<?xml version="1.0" encoding="UTF-8" standalone="no" ?>
<gpx xmlns="http://www.topografix.com/GPX/1/1" xmlns:xsi="http://www.w3.org/2001/XMLSchema-instance" xsi:schemaLocation="http://www.topografix.com/GPX/1/1 http://www.topografix.com/GPX/1/1/gpx.xsd" version="1.1" creator="VisuGPX - https://www.visugpx.com">
  <metadata>
    <name>sentier Vuaz -Anglet</name>
    <desc><![CDATA[projet de sentier pdipr sur Aviernoz 74570]]></desc>
  </metadata>
  <trk>
    <name><![CDATA[sentier Vuaz -Anglet_1]]></name>
    <trkseg>
      <trkpt lat="45.98925" lon="6.24406">
        <ele>645.4</ele>
        <time>2016-08-27T06:05:42.000Z</time>
      </trkpt>
      <trkpt lat="45.98925" lon="6.24405">
        <ele>645.4</ele>
        <time>2016-08-27T06:05:43.000Z</time>
      </trkpt>
      <trkpt lat="45.98926" lon="6.24405">
        <ele>645.3</ele>
        <time>2016-08-27T06:05:44.000Z</time>
      </trkpt>
      <trkpt lat="45.98926" lon="6.24404">
        <ele>645.4</ele>
        <time>2016-08-27T06:05:45.000Z</time>
      </trkpt>
      <trkpt lat="45.98927" lon="6.24403">
        <ele>645.4</ele>
        <time>2016-08-27T06:05:46.000Z</time>
      </trkpt>
      <trkpt lat="45.98927" lon="6.24402">
        <ele>645.5</ele>
        <time>2016-08-27T06:05:47.000Z</time>
      </trkpt>
      <trkpt lat="45.98927" lon="6.244">
        <ele>645.6</ele>
        <time>2016-08-27T06:05:48.000Z</time>
      </trkpt>
      <trkpt lat="45.98927" lon="6.24399">
        <ele>645.7</ele>
        <time>2016-08-27T06:05:49.000Z</time>
      </trkpt>
      <trkpt lat="45.98927" lon="6.24397">
        <ele>645.8</ele>
        <time>2016-08-27T06:05:50.000Z</time>
      </trkpt>
      <trkpt lat="45.98927" lon="6.24396">
        <ele>645.9</ele>
        <time>2016-08-27T06:05:51.000Z</time>
      </trkpt>
      <trkpt lat="45.98927" lon="6.24394">
        <ele>646.1</ele>
        <time>2016-08-27T06:05:52.000Z</time>
      </trkpt>
      <trkpt lat="45.98927" lon="6.24393">
        <ele>646.2</ele>
        <time>2016-08-27T06:05:53.000Z</time>
      </trkpt>
      <trkpt lat="45.98927" lon="6.24391">
        <ele>646.3</ele>
        <time>2016-08-27T06:05:54.000Z</time>
      </trkpt>
      <trkpt lat="45.98928" lon="6.24389">
        <ele>646.4</ele>
        <time>2016-08-27T06:05:55.000Z</time>
      </trkpt>
      <trkpt lat="45.98928" lon="6.24388">
        <ele>645</ele>
        <time>2016-08-27T06:05:56.000Z</time>
      </trkpt>
      <trkpt lat="45.98928" lon="6.24387">
        <ele>645</ele>
        <time>2016-08-27T06:05:57.000Z</time>
      </trkpt>
      <trkpt lat="45.98928" lon="6.24385">
        <ele>645</ele>
        <time>2016-08-27T06:05:58.000Z</time>
      </trkpt>
      <trkpt lat="45.98928" lon="6.24383">
        <ele>645</ele>
        <time>2016-08-27T06:05:59.000Z</time>
      </trkpt>
      <trkpt lat="45.98928" lon="6.24382">
        <ele>645</ele>
        <time>2016-08-27T06:06:00.000Z</time>
      </trkpt>
      <trkpt lat="45.98928" lon="6.2438">
        <ele>645</ele>
        <time>2016-08-27T06:06:01.000Z</time>
      </trkpt>
      <trkpt lat="45.98928" lon="6.24378">
        <ele>645</ele>
        <time>2016-08-27T06:06:02.000Z</time>
      </trkpt>
      <trkpt lat="45.98929" lon="6.24376">
        <ele>645</ele>
        <time>2016-08-27T06:06:03.000Z</time>
      </trkpt>
      <trkpt lat="45.98929" lon="6.24374">
        <ele>646</ele>
        <time>2016-08-27T06:06:04.000Z</time>
      </trkpt>
      <trkpt lat="45.9893" lon="6.24372">
        <ele>646</ele>
        <time>2016-08-27T06:06:05.000Z</time>
      </trkpt>
      <trkpt lat="45.9893" lon="6.2437">
        <ele>647</ele>
        <time>2016-08-27T06:06:06.000Z</time>
      </trkpt>
      <trkpt lat="45.9893" lon="6.24368">
        <ele>647</ele>
        <time>2016-08-27T06:06:07.000Z</time>
      </trkpt>
      <trkpt lat="45.98931" lon="6.24365">
        <ele>648</ele>
        <time>2016-08-27T06:06:08.000Z</time>
      </trkpt>
      <trkpt lat="45.98931" lon="6.24363">
        <ele>648</ele>
        <time>2016-08-27T06:06:09.000Z</time>
      </trkpt>
      <trkpt lat="45.98932" lon="6.2436">
        <ele>649</ele>
        <time>2016-08-27T06:06:10.000Z</time>
      </trkpt>
      <trkpt lat="45.98932" lon="6.24357">
        <ele>649</ele>
        <time>2016-08-27T06:06:11.000Z</time>
      </trkpt>
      <trkpt lat="45.98932" lon="6.24354">
        <ele>649</ele>
        <time>2016-08-27T06:06:12.000Z</time>
      </trkpt>
      <trkpt lat="45.98932" lon="6.24351">
        <ele>649</ele>
        <time>2016-08-27T06:06:13.000Z</time>
      </trkpt>
      <trkpt lat="45.98933" lon="6.24347">
        <ele>650</ele>
        <time>2016-08-27T06:06:14.000Z</time>
      </trkpt>
      <trkpt lat="45.98933" lon="6.24343">
        <ele>650</ele>
        <time>2016-08-27T06:06:15.000Z</time>
      </trkpt>
      <trkpt lat="45.98933" lon="6.24339">
        <ele>650</ele>
        <time>2016-08-27T06:06:16.000Z</time>
      </trkpt>
      <trkpt lat="45.98932" lon="6.24334">
        <ele>650</ele>
        <time>2016-08-27T06:06:17.000Z</time>
      </trkpt>
      <trkpt lat="45.98932" lon="6.24331">
        <ele>651</ele>
        <time>2016-08-27T06:06:18.000Z</time>
      </trkpt>
      <trkpt lat="45.98932" lon="6.24327">
        <ele>651</ele>
        <time>2016-08-27T06:06:19.000Z</time>
      </trkpt>
      <trkpt lat="45.98931" lon="6.24324">
        <ele>651</ele>
        <time>2016-08-27T06:06:20.000Z</time>
      </trkpt>
      <trkpt lat="45.98931" lon="6.24321">
        <ele>651</ele>
        <time>2016-08-27T06:06:21.000Z</time>
      </trkpt>
      <trkpt lat="45.9893" lon="6.24319">
        <ele>652</ele>
        <time>2016-08-27T06:06:22.000Z</time>
      </trkpt>
      <trkpt lat="45.98929" lon="6.24316">
        <ele>652</ele>
        <time>2016-08-27T06:06:23.000Z</time>
      </trkpt>
      <trkpt lat="45.98928" lon="6.24314">
        <ele>652</ele>
        <time>2016-08-27T06:06:24.000Z</time>
      </trkpt>
      <trkpt lat="45.98927" lon="6.24312">
        <ele>652</ele>
        <time>2016-08-27T06:06:25.000Z</time>
      </trkpt>
      <trkpt lat="45.98925" lon="6.2431">
        <ele>653</ele>
        <time>2016-08-27T06:06:26.000Z</time>
      </trkpt>
      <trkpt lat="45.98924" lon="6.24308">
        <ele>653</ele>
        <time>2016-08-27T06:06:27.000Z</time>
      </trkpt>
      <trkpt lat="45.98923" lon="6.24306">
        <ele>653</ele>
        <time>2016-08-27T06:06:28.000Z</time>
      </trkpt>
      <trkpt lat="45.98922" lon="6.24304">
        <ele>653</ele>
        <time>2016-08-27T06:06:29.000Z</time>
      </trkpt>
      <trkpt lat="45.98921" lon="6.24302">
        <ele>654</ele>
        <time>2016-08-27T06:06:30.000Z</time>
      </trkpt>
      <trkpt lat="45.9892" lon="6.243">
        <ele>654</ele>
        <time>2016-08-27T06:06:31.000Z</time>
      </trkpt>
      <trkpt lat="45.98919" lon="6.24297">
        <ele>654</ele>
        <time>2016-08-27T06:06:32.000Z</time>
      </trkpt>
      <trkpt lat="45.98919" lon="6.24295">
        <ele>654</ele>
        <time>2016-08-27T06:06:33.000Z</time>
      </trkpt>
      <trkpt lat="45.98918" lon="6.24293">
        <ele>655</ele>
        <time>2016-08-27T06:06:34.000Z</time>
      </trkpt>
      <trkpt lat="45.98917" lon="6.2429">
        <ele>655</ele>
        <time>2016-08-27T06:06:35.000Z</time>
      </trkpt>
      <trkpt lat="45.98917" lon="6.24288">
        <ele>655</ele>
        <time>2016-08-27T06:06:36.000Z</time>
      </trkpt>
      <trkpt lat="45.98916" lon="6.24286">
        <ele>655</ele>
        <time>2016-08-27T06:06:37.000Z</time>
      </trkpt>
      <trkpt lat="45.98915" lon="6.24284">
        <ele>655</ele>
        <time>2016-08-27T06:06:38.000Z</time>
      </trkpt>
      <trkpt lat="45.98913" lon="6.24283">
        <ele>655</ele>
        <time>2016-08-27T06:06:39.000Z</time>
      </trkpt>
      <trkpt lat="45.98913" lon="6.24281">
        <ele>656</ele>
        <time>2016-08-27T06:06:40.000Z</time>
      </trkpt>
      <trkpt lat="45.98912" lon="6.24279">
        <ele>656</ele>
        <time>2016-08-27T06:06:41.000Z</time>
      </trkpt>
      <trkpt lat="45.98911" lon="6.24277">
        <ele>656</ele>
        <time>2016-08-27T06:06:42.000Z</time>
      </trkpt>
      <trkpt lat="45.9891" lon="6.24276">
        <ele>656</ele>
        <time>2016-08-27T06:06:43.000Z</time>
      </trkpt>
      <trkpt lat="45.98909" lon="6.24273">
        <ele>656</ele>
        <time>2016-08-27T06:06:44.000Z</time>
      </trkpt>
      <trkpt lat="45.98908" lon="6.24271">
        <ele>656</ele>
        <time>2016-08-27T06:06:45.000Z</time>
      </trkpt>
      <trkpt lat="45.98907" lon="6.24269">
        <ele>656</ele>
        <time>2016-08-27T06:06:46.000Z</time>
      </trkpt>
      <trkpt lat="45.98906" lon="6.24267">
        <ele>656</ele>
        <time>2016-08-27T06:06:47.000Z</time>
      </trkpt>
      <trkpt lat="45.98905" lon="6.24265">
        <ele>656</ele>
        <time>2016-08-27T06:06:48.000Z</time>
      </trkpt>
      <trkpt lat="45.98904" lon="6.24262">
        <ele>656</ele>
        <time>2016-08-27T06:06:49.000Z</time>
      </trkpt>
      <trkpt lat="45.98903" lon="6.2426">
        <ele>657</ele>
        <time>2016-08-27T06:06:50.000Z</time>
      </trkpt>
      <trkpt lat="45.98903" lon="6.24258">
        <ele>657</ele>
        <time>2016-08-27T06:06:51.000Z</time>
      </trkpt>
      <trkpt lat="45.98902" lon="6.24256">
        <ele>657</ele>
        <time>2016-08-27T06:06:52.000Z</time>
      </trkpt>
      <trkpt lat="45.98901" lon="6.24253">
        <ele>657</ele>
        <time>2016-08-27T06:06:53.000Z</time>
      </trkpt>
      <trkpt lat="45.989" lon="6.24252">
        <ele>657</ele>
        <time>2016-08-27T06:06:54.000Z</time>
      </trkpt>
      <trkpt lat="45.98899" lon="6.2425">
        <ele>657</ele>
        <time>2016-08-27T06:06:55.000Z</time>
      </trkpt>
      <trkpt lat="45.98898" lon="6.24248">
        <ele>657</ele>
        <time>2016-08-27T06:06:56.000Z</time>
      </trkpt>
      <trkpt lat="45.98897" lon="6.24246">
        <ele>657</ele>
        <time>2016-08-27T06:06:57.000Z</time>
      </trkpt>
      <trkpt lat="45.98896" lon="6.24245">
        <ele>657</ele>
        <time>2016-08-27T06:06:58.000Z</time>
      </trkpt>
      <trkpt lat="45.98895" lon="6.24243">
        <ele>657</ele>
        <time>2016-08-27T06:06:59.000Z</time>
      </trkpt>
      <trkpt lat="45.98894" lon="6.24242">
        <ele>658</ele>
        <time>2016-08-27T06:07:00.000Z</time>
      </trkpt>
      <trkpt lat="45.98893" lon="6.2424">
        <ele>658</ele>
        <time>2016-08-27T06:07:01.000Z</time>
      </trkpt>
      <trkpt lat="45.98892" lon="6.24239">
        <ele>659</ele>
        <time>2016-08-27T06:07:02.000Z</time>
      </trkpt>
      <trkpt lat="45.98891" lon="6.24237">
        <ele>659</ele>
        <time>2016-08-27T06:07:03.000Z</time>
      </trkpt>
      <trkpt lat="45.9889" lon="6.24236">
        <ele>659</ele>
        <time>2016-08-27T06:07:04.000Z</time>
      </trkpt>
      <trkpt lat="45.9889" lon="6.24234">
        <ele>659</ele>
        <time>2016-08-27T06:07:05.000Z</time>
      </trkpt>
      <trkpt lat="45.98889" lon="6.24232">
        <ele>659</ele>
        <time>2016-08-27T06:07:06.000Z</time>
      </trkpt>
      <trkpt lat="45.98888" lon="6.24231">
        <ele>659</ele>
        <time>2016-08-27T06:07:07.000Z</time>
      </trkpt>
      <trkpt lat="45.98888" lon="6.24229">
        <ele>660</ele>
        <time>2016-08-27T06:07:08.000Z</time>
      </trkpt>
      <trkpt lat="45.98887" lon="6.24228">
        <ele>660</ele>
        <time>2016-08-27T06:07:09.000Z</time>
      </trkpt>
      <trkpt lat="45.98886" lon="6.24226">
        <ele>660</ele>
        <time>2016-08-27T06:07:10.000Z</time>
      </trkpt>
      <trkpt lat="45.98885" lon="6.24224">
        <ele>660</ele>
        <time>2016-08-27T06:07:11.000Z</time>
      </trkpt>
      <trkpt lat="45.98884" lon="6.24222">
        <ele>661</ele>
        <time>2016-08-27T06:07:12.000Z</time>
      </trkpt>
      <trkpt lat="45.98883" lon="6.24221">
        <ele>661</ele>
        <time>2016-08-27T06:07:13.000Z</time>
      </trkpt>
      <trkpt lat="45.98883" lon="6.24219">
        <ele>662</ele>
        <time>2016-08-27T06:07:14.000Z</time>
      </trkpt>
      <trkpt lat="45.98882" lon="6.24216">
        <ele>662</ele>
        <time>2016-08-27T06:07:15.000Z</time>
      </trkpt>
      <trkpt lat="45.98881" lon="6.24214">
        <ele>662</ele>
        <time>2016-08-27T06:07:16.000Z</time>
      </trkpt>
      <trkpt lat="45.98881" lon="6.24212">
        <ele>662</ele>
        <time>2016-08-27T06:07:17.000Z</time>
      </trkpt>
      <trkpt lat="45.9888" lon="6.2421">
        <ele>663</ele>
        <time>2016-08-27T06:07:18.000Z</time>
      </trkpt>
      <trkpt lat="45.98879" lon="6.24208">
        <ele>663</ele>
        <time>2016-08-27T06:07:19.000Z</time>
      </trkpt>
      <trkpt lat="45.98878" lon="6.24206">
        <ele>664</ele>
        <time>2016-08-27T06:07:20.000Z</time>
      </trkpt>
      <trkpt lat="45.98878" lon="6.24204">
        <ele>664</ele>
        <time>2016-08-27T06:07:21.000Z</time>
      </trkpt>
      <trkpt lat="45.98877" lon="6.24202">
        <ele>664</ele>
        <time>2016-08-27T06:07:22.000Z</time>
      </trkpt>
      <trkpt lat="45.98876" lon="6.24201">
        <ele>664</ele>
        <time>2016-08-27T06:07:23.000Z</time>
      </trkpt>
      <trkpt lat="45.98875" lon="6.242">
        <ele>665</ele>
        <time>2016-08-27T06:07:24.000Z</time>
      </trkpt>
      <trkpt lat="45.98873" lon="6.242">
        <ele>665</ele>
        <time>2016-08-27T06:07:25.000Z</time>
      </trkpt>
      <trkpt lat="45.98872" lon="6.242">
        <ele>665</ele>
        <time>2016-08-27T06:07:26.000Z</time>
      </trkpt>
      <trkpt lat="45.98871" lon="6.24201">
        <ele>665</ele>
        <time>2016-08-27T06:07:27.000Z</time>
      </trkpt>
      <trkpt lat="45.9887" lon="6.24202">
        <ele>666</ele>
        <time>2016-08-27T06:07:28.000Z</time>
      </trkpt>
      <trkpt lat="45.98869" lon="6.24204">
        <ele>666</ele>
        <time>2016-08-27T06:07:29.000Z</time>
      </trkpt>
      <trkpt lat="45.98868" lon="6.24206">
        <ele>666</ele>
        <time>2016-08-27T06:07:30.000Z</time>
      </trkpt>
      <trkpt lat="45.98868" lon="6.24208">
        <ele>666</ele>
        <time>2016-08-27T06:07:31.000Z</time>
      </trkpt>
      <trkpt lat="45.98867" lon="6.2421">
        <ele>667</ele>
        <time>2016-08-27T06:07:32.000Z</time>
      </trkpt>
      <trkpt lat="45.98867" lon="6.24212">
        <ele>667</ele>
        <time>2016-08-27T06:07:33.000Z</time>
      </trkpt>
      <trkpt lat="45.98866" lon="6.24215">
        <ele>667</ele>
        <time>2016-08-27T06:07:34.000Z</time>
      </trkpt>
      <trkpt lat="45.98866" lon="6.24217">
        <ele>667</ele>
        <time>2016-08-27T06:07:35.000Z</time>
      </trkpt>
      <trkpt lat="45.98865" lon="6.2422">
        <ele>667</ele>
        <time>2016-08-27T06:07:36.000Z</time>
      </trkpt>
      <trkpt lat="45.98864" lon="6.24222">
        <ele>667</ele>
        <time>2016-08-27T06:07:37.000Z</time>
      </trkpt>
      <trkpt lat="45.98864" lon="6.24224">
        <ele>668</ele>
        <time>2016-08-27T06:07:38.000Z</time>
      </trkpt>
      <trkpt lat="45.98863" lon="6.24227">
        <ele>668</ele>
        <time>2016-08-27T06:07:39.000Z</time>
      </trkpt>
      <trkpt lat="45.98862" lon="6.24229">
        <ele>668</ele>
        <time>2016-08-27T06:07:40.000Z</time>
      </trkpt>
      <trkpt lat="45.98862" lon="6.24231">
        <ele>668</ele>
        <time>2016-08-27T06:07:41.000Z</time>
      </trkpt>
      <trkpt lat="45.98861" lon="6.24233">
        <ele>669</ele>
        <time>2016-08-27T06:07:42.000Z</time>
      </trkpt>
      <trkpt lat="45.98861" lon="6.24236">
        <ele>669</ele>
        <time>2016-08-27T06:07:43.000Z</time>
      </trkpt>
      <trkpt lat="45.9886" lon="6.24238">
        <ele>669</ele>
        <time>2016-08-27T06:07:44.000Z</time>
      </trkpt>
      <trkpt lat="45.98858" lon="6.2424">
        <ele>669</ele>
        <time>2016-08-27T06:07:45.000Z</time>
      </trkpt>
      <trkpt lat="45.98857" lon="6.24242">
        <ele>670</ele>
        <time>2016-08-27T06:07:46.000Z</time>
      </trkpt>
      <trkpt lat="45.98857" lon="6.24244">
        <ele>670</ele>
        <time>2016-08-27T06:07:47.000Z</time>
      </trkpt>
      <trkpt lat="45.98856" lon="6.24246">
        <ele>670</ele>
        <time>2016-08-27T06:07:48.000Z</time>
      </trkpt>
      <trkpt lat="45.98855" lon="6.24248">
        <ele>670</ele>
        <time>2016-08-27T06:07:49.000Z</time>
      </trkpt>
      <trkpt lat="45.98854" lon="6.2425">
        <ele>670</ele>
        <time>2016-08-27T06:07:50.000Z</time>
      </trkpt>
      <trkpt lat="45.98853" lon="6.24252">
        <ele>670</ele>
        <time>2016-08-27T06:07:51.000Z</time>
      </trkpt>
      <trkpt lat="45.98852" lon="6.24255">
        <ele>671</ele>
        <time>2016-08-27T06:07:52.000Z</time>
      </trkpt>
      <trkpt lat="45.98852" lon="6.24257">
        <ele>671</ele>
        <time>2016-08-27T06:07:53.000Z</time>
      </trkpt>
      <trkpt lat="45.98851" lon="6.2426">
        <ele>671</ele>
        <time>2016-08-27T06:07:54.000Z</time>
      </trkpt>
      <trkpt lat="45.98851" lon="6.24263">
        <ele>671</ele>
        <time>2016-08-27T06:07:55.000Z</time>
      </trkpt>
      <trkpt lat="45.98851" lon="6.24266">
        <ele>671</ele>
        <time>2016-08-27T06:07:56.000Z</time>
      </trkpt>
      <trkpt lat="45.9885" lon="6.24269">
        <ele>671</ele>
        <time>2016-08-27T06:07:57.000Z</time>
      </trkpt>
      <trkpt lat="45.9885" lon="6.24272">
        <ele>671</ele>
        <time>2016-08-27T06:07:58.000Z</time>
      </trkpt>
      <trkpt lat="45.98849" lon="6.24275">
        <ele>671</ele>
        <time>2016-08-27T06:07:59.000Z</time>
      </trkpt>
      <trkpt lat="45.98848" lon="6.24278">
        <ele>671</ele>
        <time>2016-08-27T06:08:00.000Z</time>
      </trkpt>
      <trkpt lat="45.98846" lon="6.2428">
        <ele>671</ele>
        <time>2016-08-27T06:08:01.000Z</time>
      </trkpt>
      <trkpt lat="45.98845" lon="6.24282">
        <ele>671</ele>
        <time>2016-08-27T06:08:02.000Z</time>
      </trkpt>
      <trkpt lat="45.98844" lon="6.24284">
        <ele>671</ele>
        <time>2016-08-27T06:08:03.000Z</time>
      </trkpt>
      <trkpt lat="45.98843" lon="6.24286">
        <ele>671</ele>
        <time>2016-08-27T06:08:04.000Z</time>
      </trkpt>
      <trkpt lat="45.98843" lon="6.24289">
        <ele>671</ele>
        <time>2016-08-27T06:08:05.000Z</time>
      </trkpt>
      <trkpt lat="45.98842" lon="6.24291">
        <ele>672</ele>
        <time>2016-08-27T06:08:06.000Z</time>
      </trkpt>
      <trkpt lat="45.98842" lon="6.24293">
        <ele>672</ele>
        <time>2016-08-27T06:08:07.000Z</time>
      </trkpt>
      <trkpt lat="45.98841" lon="6.24295">
        <ele>672</ele>
        <time>2016-08-27T06:08:08.000Z</time>
      </trkpt>
      <trkpt lat="45.9884" lon="6.24298">
        <ele>672</ele>
        <time>2016-08-27T06:08:09.000Z</time>
      </trkpt>
      <trkpt lat="45.98839" lon="6.243">
        <ele>672</ele>
        <time>2016-08-27T06:08:10.000Z</time>
      </trkpt>
      <trkpt lat="45.98838" lon="6.24302">
        <ele>672</ele>
        <time>2016-08-27T06:08:11.000Z</time>
      </trkpt>
      <trkpt lat="45.98837" lon="6.24304">
        <ele>672</ele>
        <time>2016-08-27T06:08:12.000Z</time>
      </trkpt>
      <trkpt lat="45.98836" lon="6.24306">
        <ele>672</ele>
        <time>2016-08-27T06:08:13.000Z</time>
      </trkpt>
      <trkpt lat="45.98835" lon="6.24308">
        <ele>673</ele>
        <time>2016-08-27T06:08:14.000Z</time>
      </trkpt>
      <trkpt lat="45.98834" lon="6.2431">
        <ele>673</ele>
        <time>2016-08-27T06:08:15.000Z</time>
      </trkpt>
      <trkpt lat="45.98833" lon="6.24312">
        <ele>673</ele>
        <time>2016-08-27T06:08:16.000Z</time>
      </trkpt>
      <trkpt lat="45.98831" lon="6.24314">
        <ele>673</ele>
        <time>2016-08-27T06:08:17.000Z</time>
      </trkpt>
      <trkpt lat="45.9883" lon="6.24315">
        <ele>673</ele>
        <time>2016-08-27T06:08:18.000Z</time>
      </trkpt>
      <trkpt lat="45.98829" lon="6.24316">
        <ele>673</ele>
        <time>2016-08-27T06:08:19.000Z</time>
      </trkpt>
      <trkpt lat="45.98827" lon="6.24317">
        <ele>673</ele>
        <time>2016-08-27T06:08:20.000Z</time>
      </trkpt>
      <trkpt lat="45.98826" lon="6.24318">
        <ele>673</ele>
        <time>2016-08-27T06:08:21.000Z</time>
      </trkpt>
      <trkpt lat="45.98824" lon="6.24318">
        <ele>673</ele>
        <time>2016-08-27T06:08:22.000Z</time>
      </trkpt>
      <trkpt lat="45.98823" lon="6.24319">
        <ele>673</ele>
        <time>2016-08-27T06:08:23.000Z</time>
      </trkpt>
      <trkpt lat="45.98822" lon="6.24319">
        <ele>673</ele>
        <time>2016-08-27T06:08:24.000Z</time>
      </trkpt>
      <trkpt lat="45.9882" lon="6.2432">
        <ele>673</ele>
        <time>2016-08-27T06:08:25.000Z</time>
      </trkpt>
      <trkpt lat="45.98819" lon="6.2432">
        <ele>674</ele>
        <time>2016-08-27T06:08:26.000Z</time>
      </trkpt>
      <trkpt lat="45.98818" lon="6.2432">
        <ele>674</ele>
        <time>2016-08-27T06:08:27.000Z</time>
      </trkpt>
      <trkpt lat="45.98816" lon="6.24321">
        <ele>674</ele>
        <time>2016-08-27T06:08:28.000Z</time>
      </trkpt>
      <trkpt lat="45.98815" lon="6.24321">
        <ele>674</ele>
        <time>2016-08-27T06:08:29.000Z</time>
      </trkpt>
      <trkpt lat="45.98814" lon="6.24321">
        <ele>674</ele>
        <time>2016-08-27T06:08:30.000Z</time>
      </trkpt>
      <trkpt lat="45.98812" lon="6.24321">
        <ele>674</ele>
        <time>2016-08-27T06:08:31.000Z</time>
      </trkpt>
      <trkpt lat="45.98811" lon="6.24321">
        <ele>674</ele>
        <time>2016-08-27T06:08:32.000Z</time>
      </trkpt>
      <trkpt lat="45.9881" lon="6.2432">
        <ele>674</ele>
        <time>2016-08-27T06:08:33.000Z</time>
      </trkpt>
      <trkpt lat="45.98808" lon="6.2432">
        <ele>675</ele>
        <time>2016-08-27T06:08:34.000Z</time>
      </trkpt>
      <trkpt lat="45.98806" lon="6.2432">
        <ele>675</ele>
        <time>2016-08-27T06:08:35.000Z</time>
      </trkpt>
      <trkpt lat="45.98805" lon="6.24319">
        <ele>675</ele>
        <time>2016-08-27T06:08:36.000Z</time>
      </trkpt>
      <trkpt lat="45.98803" lon="6.24318">
        <ele>675</ele>
        <time>2016-08-27T06:08:37.000Z</time>
      </trkpt>
      <trkpt lat="45.98802" lon="6.24318">
        <ele>675</ele>
        <time>2016-08-27T06:08:38.000Z</time>
      </trkpt>
      <trkpt lat="45.98801" lon="6.24317">
        <ele>675</ele>
        <time>2016-08-27T06:08:39.000Z</time>
      </trkpt>
      <trkpt lat="45.98799" lon="6.24317">
        <ele>675</ele>
        <time>2016-08-27T06:08:40.000Z</time>
      </trkpt>
      <trkpt lat="45.98798" lon="6.24316">
        <ele>675</ele>
        <time>2016-08-27T06:08:41.000Z</time>
      </trkpt>
      <trkpt lat="45.98796" lon="6.24316">
        <ele>676</ele>
        <time>2016-08-27T06:08:42.000Z</time>
      </trkpt>
      <trkpt lat="45.98795" lon="6.24316">
        <ele>676</ele>
        <time>2016-08-27T06:08:43.000Z</time>
      </trkpt>
      <trkpt lat="45.98794" lon="6.24315">
        <ele>676</ele>
        <time>2016-08-27T06:08:44.000Z</time>
      </trkpt>
      <trkpt lat="45.98792" lon="6.24315">
        <ele>676</ele>
        <time>2016-08-27T06:08:45.000Z</time>
      </trkpt>
      <trkpt lat="45.98791" lon="6.24314">
        <ele>677</ele>
        <time>2016-08-27T06:08:46.000Z</time>
      </trkpt>
      <trkpt lat="45.98789" lon="6.24313">
        <ele>677</ele>
        <time>2016-08-27T06:08:47.000Z</time>
      </trkpt>
      <trkpt lat="45.98788" lon="6.24312">
        <ele>677</ele>
        <time>2016-08-27T06:08:48.000Z</time>
      </trkpt>
      <trkpt lat="45.98787" lon="6.24311">
        <ele>677</ele>
        <time>2016-08-27T06:08:49.000Z</time>
      </trkpt>
      <trkpt lat="45.98785" lon="6.2431">
        <ele>677</ele>
        <time>2016-08-27T06:08:50.000Z</time>
      </trkpt>
      <trkpt lat="45.98784" lon="6.24309">
        <ele>677</ele>
        <time>2016-08-27T06:08:51.000Z</time>
      </trkpt>
      <trkpt lat="45.98783" lon="6.24308">
        <ele>678</ele>
        <time>2016-08-27T06:08:52.000Z</time>
      </trkpt>
      <trkpt lat="45.98781" lon="6.24307">
        <ele>678</ele>
        <time>2016-08-27T06:08:53.000Z</time>
      </trkpt>
      <trkpt lat="45.9878" lon="6.24307">
        <ele>679</ele>
        <time>2016-08-27T06:08:54.000Z</time>
      </trkpt>
      <trkpt lat="45.98778" lon="6.24306">
        <ele>679</ele>
        <time>2016-08-27T06:08:55.000Z</time>
      </trkpt>
      <trkpt lat="45.98777" lon="6.24306">
        <ele>679</ele>
        <time>2016-08-27T06:08:56.000Z</time>
      </trkpt>
      <trkpt lat="45.98775" lon="6.24305">
        <ele>679</ele>
        <time>2016-08-27T06:08:57.000Z</time>
      </trkpt>
      <trkpt lat="45.98774" lon="6.24304">
        <ele>680</ele>
        <time>2016-08-27T06:08:58.000Z</time>
      </trkpt>
      <trkpt lat="45.98773" lon="6.24302">
        <ele>680</ele>
        <time>2016-08-27T06:08:59.000Z</time>
      </trkpt>
      <trkpt lat="45.98771" lon="6.24301">
        <ele>680</ele>
        <time>2016-08-27T06:09:00.000Z</time>
      </trkpt>
      <trkpt lat="45.9877" lon="6.243">
        <ele>680</ele>
        <time>2016-08-27T06:09:01.000Z</time>
      </trkpt>
      <trkpt lat="45.98769" lon="6.24298">
        <ele>680</ele>
        <time>2016-08-27T06:09:02.000Z</time>
      </trkpt>
      <trkpt lat="45.98767" lon="6.24297">
        <ele>680</ele>
        <time>2016-08-27T06:09:03.000Z</time>
      </trkpt>
      <trkpt lat="45.98766" lon="6.24295">
        <ele>681</ele>
        <time>2016-08-27T06:09:04.000Z</time>
      </trkpt>
      <trkpt lat="45.98764" lon="6.24294">
        <ele>681</ele>
        <time>2016-08-27T06:09:05.000Z</time>
      </trkpt>
      <trkpt lat="45.98763" lon="6.24293">
        <ele>681</ele>
        <time>2016-08-27T06:09:06.000Z</time>
      </trkpt>
      <trkpt lat="45.98762" lon="6.24292">
        <ele>681</ele>
        <time>2016-08-27T06:09:07.000Z</time>
      </trkpt>
      <trkpt lat="45.98761" lon="6.24291">
        <ele>682</ele>
        <time>2016-08-27T06:09:08.000Z</time>
      </trkpt>
      <trkpt lat="45.98759" lon="6.24291">
        <ele>682</ele>
        <time>2016-08-27T06:09:09.000Z</time>
      </trkpt>
      <trkpt lat="45.98759" lon="6.24291">
        <ele>682</ele>
        <time>2016-08-27T06:09:10.000Z</time>
      </trkpt>
      <trkpt lat="45.98759" lon="6.2429">
        <ele>682</ele>
        <time>2016-08-27T06:09:11.000Z</time>
      </trkpt>
      <trkpt lat="45.98758" lon="6.2429">
        <ele>683</ele>
        <time>2016-08-27T06:09:12.000Z</time>
      </trkpt>
      <trkpt lat="45.98757" lon="6.24289">
        <ele>683</ele>
        <time>2016-08-27T06:09:13.000Z</time>
      </trkpt>
      <trkpt lat="45.98756" lon="6.24289">
        <ele>683</ele>
        <time>2016-08-27T06:09:14.000Z</time>
      </trkpt>
      <trkpt lat="45.98755" lon="6.24288">
        <ele>683</ele>
        <time>2016-08-27T06:09:15.000Z</time>
      </trkpt>
      <trkpt lat="45.98754" lon="6.24287">
        <ele>683</ele>
        <time>2016-08-27T06:09:16.000Z</time>
      </trkpt>
      <trkpt lat="45.98753" lon="6.24286">
        <ele>683</ele>
        <time>2016-08-27T06:09:17.000Z</time>
      </trkpt>
      <trkpt lat="45.98753" lon="6.24285">
        <ele>683</ele>
        <time>2016-08-27T06:09:18.000Z</time>
      </trkpt>
      <trkpt lat="45.98752" lon="6.24284">
        <ele>683</ele>
        <time>2016-08-27T06:09:19.000Z</time>
      </trkpt>
      <trkpt lat="45.98751" lon="6.24283">
        <ele>684</ele>
        <time>2016-08-27T06:09:20.000Z</time>
      </trkpt>
      <trkpt lat="45.9875" lon="6.24282">
        <ele>684</ele>
        <time>2016-08-27T06:09:21.000Z</time>
      </trkpt>
      <trkpt lat="45.9875" lon="6.24281">
        <ele>684</ele>
        <time>2016-08-27T06:09:22.000Z</time>
      </trkpt>
      <trkpt lat="45.9875" lon="6.2428">
        <ele>684</ele>
        <time>2016-08-27T06:09:23.000Z</time>
      </trkpt>
      <trkpt lat="45.98749" lon="6.24279">
        <ele>685</ele>
        <time>2016-08-27T06:09:24.000Z</time>
      </trkpt>
      <trkpt lat="45.98748" lon="6.24279">
        <ele>685</ele>
        <time>2016-08-27T06:09:25.000Z</time>
      </trkpt>
      <trkpt lat="45.98747" lon="6.24278">
        <ele>686</ele>
        <time>2016-08-27T06:09:26.000Z</time>
      </trkpt>
      <trkpt lat="45.98746" lon="6.24278">
        <ele>686</ele>
        <time>2016-08-27T06:09:27.000Z</time>
      </trkpt>
      <trkpt lat="45.98745" lon="6.24277">
        <ele>686</ele>
        <time>2016-08-27T06:09:28.000Z</time>
      </trkpt>
      <trkpt lat="45.98744" lon="6.24276">
        <ele>686</ele>
        <time>2016-08-27T06:09:29.000Z</time>
      </trkpt>
      <trkpt lat="45.98743" lon="6.24276">
        <ele>686</ele>
        <time>2016-08-27T06:09:30.000Z</time>
      </trkpt>
      <trkpt lat="45.98742" lon="6.24275">
        <ele>686</ele>
        <time>2016-08-27T06:09:31.000Z</time>
      </trkpt>
      <trkpt lat="45.98741" lon="6.24274">
        <ele>687</ele>
        <time>2016-08-27T06:09:32.000Z</time>
      </trkpt>
      <trkpt lat="45.9874" lon="6.24273">
        <ele>687</ele>
        <time>2016-08-27T06:09:33.000Z</time>
      </trkpt>
      <trkpt lat="45.98739" lon="6.24272">
        <ele>687</ele>
        <time>2016-08-27T06:09:34.000Z</time>
      </trkpt>
      <trkpt lat="45.98739" lon="6.24272">
        <ele>687</ele>
        <time>2016-08-27T06:09:35.000Z</time>
      </trkpt>
      <trkpt lat="45.98738" lon="6.24271">
        <ele>687</ele>
        <time>2016-08-27T06:09:36.000Z</time>
      </trkpt>
      <trkpt lat="45.98737" lon="6.2427">
        <ele>687</ele>
        <time>2016-08-27T06:09:37.000Z</time>
      </trkpt>
      <trkpt lat="45.98736" lon="6.24268">
        <ele>687</ele>
        <time>2016-08-27T06:09:38.000Z</time>
      </trkpt>
      <trkpt lat="45.98735" lon="6.24267">
        <ele>687</ele>
        <time>2016-08-27T06:09:39.000Z</time>
      </trkpt>
      <trkpt lat="45.98734" lon="6.24265">
        <ele>688</ele>
        <time>2016-08-27T06:09:40.000Z</time>
      </trkpt>
      <trkpt lat="45.98734" lon="6.24264">
        <ele>688</ele>
        <time>2016-08-27T06:09:41.000Z</time>
      </trkpt>
      <trkpt lat="45.98733" lon="6.24263">
        <ele>688</ele>
        <time>2016-08-27T06:09:42.000Z</time>
      </trkpt>
      <trkpt lat="45.98732" lon="6.24262">
        <ele>688</ele>
        <time>2016-08-27T06:09:43.000Z</time>
      </trkpt>
      <trkpt lat="45.98732" lon="6.24261">
        <ele>689</ele>
        <time>2016-08-27T06:09:44.000Z</time>
      </trkpt>
      <trkpt lat="45.98731" lon="6.2426">
        <ele>689</ele>
        <time>2016-08-27T06:09:45.000Z</time>
      </trkpt>
      <trkpt lat="45.9873" lon="6.24259">
        <ele>689</ele>
        <time>2016-08-27T06:09:46.000Z</time>
      </trkpt>
      <trkpt lat="45.9873" lon="6.24257">
        <ele>689</ele>
        <time>2016-08-27T06:09:47.000Z</time>
      </trkpt>
      <trkpt lat="45.98729" lon="6.24256">
        <ele>689</ele>
        <time>2016-08-27T06:09:48.000Z</time>
      </trkpt>
      <trkpt lat="45.98728" lon="6.24255">
        <ele>689</ele>
        <time>2016-08-27T06:09:49.000Z</time>
      </trkpt>
      <trkpt lat="45.98727" lon="6.24254">
        <ele>689</ele>
        <time>2016-08-27T06:09:50.000Z</time>
      </trkpt>
      <trkpt lat="45.98726" lon="6.24253">
        <ele>689</ele>
        <time>2016-08-27T06:09:51.000Z</time>
      </trkpt>
      <trkpt lat="45.98725" lon="6.24252">
        <ele>690</ele>
        <time>2016-08-27T06:09:52.000Z</time>
      </trkpt>
      <trkpt lat="45.98725" lon="6.24251">
        <ele>690</ele>
        <time>2016-08-27T06:09:53.000Z</time>
      </trkpt>
      <trkpt lat="45.98724" lon="6.2425">
        <ele>690</ele>
        <time>2016-08-27T06:09:54.000Z</time>
      </trkpt>
      <trkpt lat="45.98723" lon="6.24249">
        <ele>690</ele>
        <time>2016-08-27T06:09:55.000Z</time>
      </trkpt>
      <trkpt lat="45.98722" lon="6.24248">
        <ele>691</ele>
        <time>2016-08-27T06:09:56.000Z</time>
      </trkpt>
      <trkpt lat="45.98722" lon="6.24247">
        <ele>691</ele>
        <time>2016-08-27T06:09:57.000Z</time>
      </trkpt>
      <trkpt lat="45.98721" lon="6.24245">
        <ele>691</ele>
        <time>2016-08-27T06:09:58.000Z</time>
      </trkpt>
      <trkpt lat="45.9872" lon="6.24244">
        <ele>691</ele>
        <time>2016-08-27T06:09:59.000Z</time>
      </trkpt>
      <trkpt lat="45.98719" lon="6.24243">
        <ele>692</ele>
        <time>2016-08-27T06:10:00.000Z</time>
      </trkpt>
      <trkpt lat="45.98718" lon="6.24241">
        <ele>692</ele>
        <time>2016-08-27T06:10:01.000Z</time>
      </trkpt>
      <trkpt lat="45.98717" lon="6.2424">
        <ele>692</ele>
        <time>2016-08-27T06:10:02.000Z</time>
      </trkpt>
      <trkpt lat="45.98717" lon="6.24239">
        <ele>692</ele>
        <time>2016-08-27T06:10:03.000Z</time>
      </trkpt>
      <trkpt lat="45.98716" lon="6.24237">
        <ele>692</ele>
        <time>2016-08-27T06:10:04.000Z</time>
      </trkpt>
      <trkpt lat="45.98715" lon="6.24236">
        <ele>692</ele>
        <time>2016-08-27T06:10:05.000Z</time>
      </trkpt>
      <trkpt lat="45.98714" lon="6.24234">
        <ele>693</ele>
        <time>2016-08-27T06:10:06.000Z</time>
      </trkpt>
      <trkpt lat="45.98713" lon="6.24233">
        <ele>693</ele>
        <time>2016-08-27T06:10:07.000Z</time>
      </trkpt>
      <trkpt lat="45.98713" lon="6.24231">
        <ele>693</ele>
        <time>2016-08-27T06:10:08.000Z</time>
      </trkpt>
      <trkpt lat="45.98712" lon="6.24229">
        <ele>693</ele>
        <time>2016-08-27T06:10:09.000Z</time>
      </trkpt>
      <trkpt lat="45.98711" lon="6.24228">
        <ele>694</ele>
        <time>2016-08-27T06:10:10.000Z</time>
      </trkpt>
      <trkpt lat="45.98711" lon="6.24226">
        <ele>694</ele>
        <time>2016-08-27T06:10:11.000Z</time>
      </trkpt>
      <trkpt lat="45.98711" lon="6.24224">
        <ele>694</ele>
        <time>2016-08-27T06:10:12.000Z</time>
      </trkpt>
      <trkpt lat="45.98711" lon="6.24222">
        <ele>694</ele>
        <time>2016-08-27T06:10:13.000Z</time>
      </trkpt>
      <trkpt lat="45.98711" lon="6.2422">
        <ele>695</ele>
        <time>2016-08-27T06:10:14.000Z</time>
      </trkpt>
      <trkpt lat="45.9871" lon="6.24218">
        <ele>695</ele>
        <time>2016-08-27T06:10:15.000Z</time>
      </trkpt>
      <trkpt lat="45.9871" lon="6.24216">
        <ele>695</ele>
        <time>2016-08-27T06:10:16.000Z</time>
      </trkpt>
      <trkpt lat="45.9871" lon="6.24214">
        <ele>695</ele>
        <time>2016-08-27T06:10:17.000Z</time>
      </trkpt>
      <trkpt lat="45.9871" lon="6.24212">
        <ele>696</ele>
        <time>2016-08-27T06:10:18.000Z</time>
      </trkpt>
      <trkpt lat="45.9871" lon="6.2421">
        <ele>696</ele>
        <time>2016-08-27T06:10:19.000Z</time>
      </trkpt>
      <trkpt lat="45.98709" lon="6.24209">
        <ele>696</ele>
        <time>2016-08-27T06:10:20.000Z</time>
      </trkpt>
      <trkpt lat="45.98708" lon="6.24207">
        <ele>696</ele>
        <time>2016-08-27T06:10:21.000Z</time>
      </trkpt>
      <trkpt lat="45.98708" lon="6.24205">
        <ele>697</ele>
        <time>2016-08-27T06:10:22.000Z</time>
      </trkpt>
      <trkpt lat="45.98707" lon="6.24204">
        <ele>697</ele>
        <time>2016-08-27T06:10:23.000Z</time>
      </trkpt>
      <trkpt lat="45.98706" lon="6.24202">
        <ele>697</ele>
        <time>2016-08-27T06:10:24.000Z</time>
      </trkpt>
      <trkpt lat="45.98705" lon="6.24201">
        <ele>697</ele>
        <time>2016-08-27T06:10:25.000Z</time>
      </trkpt>
      <trkpt lat="45.98705" lon="6.24199">
        <ele>697</ele>
        <time>2016-08-27T06:10:26.000Z</time>
      </trkpt>
      <trkpt lat="45.98704" lon="6.24198">
        <ele>697</ele>
        <time>2016-08-27T06:10:27.000Z</time>
      </trkpt>
      <trkpt lat="45.98703" lon="6.24196">
        <ele>698</ele>
        <time>2016-08-27T06:10:28.000Z</time>
      </trkpt>
      <trkpt lat="45.98703" lon="6.24195">
        <ele>698</ele>
        <time>2016-08-27T06:10:29.000Z</time>
      </trkpt>
      <trkpt lat="45.98702" lon="6.24193">
        <ele>698</ele>
        <time>2016-08-27T06:10:30.000Z</time>
      </trkpt>
      <trkpt lat="45.98702" lon="6.24192">
        <ele>698</ele>
        <time>2016-08-27T06:10:31.000Z</time>
      </trkpt>
      <trkpt lat="45.98702" lon="6.2419">
        <ele>698</ele>
        <time>2016-08-27T06:10:32.000Z</time>
      </trkpt>
      <trkpt lat="45.98702" lon="6.24188">
        <ele>698</ele>
        <time>2016-08-27T06:10:33.000Z</time>
      </trkpt>
      <trkpt lat="45.98701" lon="6.24187">
        <ele>698</ele>
        <time>2016-08-27T06:10:34.000Z</time>
      </trkpt>
      <trkpt lat="45.98701" lon="6.24185">
        <ele>698</ele>
        <time>2016-08-27T06:10:35.000Z</time>
      </trkpt>
      <trkpt lat="45.98701" lon="6.24183">
        <ele>699</ele>
        <time>2016-08-27T06:10:36.000Z</time>
      </trkpt>
      <trkpt lat="45.98701" lon="6.24182">
        <ele>699</ele>
        <time>2016-08-27T06:10:37.000Z</time>
      </trkpt>
      <trkpt lat="45.987" lon="6.2418">
        <ele>699</ele>
        <time>2016-08-27T06:10:38.000Z</time>
      </trkpt>
      <trkpt lat="45.987" lon="6.24178">
        <ele>699</ele>
        <time>2016-08-27T06:10:39.000Z</time>
      </trkpt>
      <trkpt lat="45.987" lon="6.24177">
        <ele>700</ele>
        <time>2016-08-27T06:10:40.000Z</time>
      </trkpt>
      <trkpt lat="45.98699" lon="6.24175">
        <ele>700</ele>
        <time>2016-08-27T06:10:41.000Z</time>
      </trkpt>
      <trkpt lat="45.98699" lon="6.24173">
        <ele>700</ele>
        <time>2016-08-27T06:10:42.000Z</time>
      </trkpt>
      <trkpt lat="45.98698" lon="6.24171">
        <ele>700</ele>
        <time>2016-08-27T06:10:43.000Z</time>
      </trkpt>
      <trkpt lat="45.98698" lon="6.24169">
        <ele>701</ele>
        <time>2016-08-27T06:10:44.000Z</time>
      </trkpt>
      <trkpt lat="45.98698" lon="6.24168">
        <ele>701</ele>
        <time>2016-08-27T06:10:45.000Z</time>
      </trkpt>
      <trkpt lat="45.98697" lon="6.24166">
        <ele>701</ele>
        <time>2016-08-27T06:10:46.000Z</time>
      </trkpt>
      <trkpt lat="45.98696" lon="6.24164">
        <ele>701</ele>
        <time>2016-08-27T06:10:47.000Z</time>
      </trkpt>
      <trkpt lat="45.98695" lon="6.24162">
        <ele>702</ele>
        <time>2016-08-27T06:10:48.000Z</time>
      </trkpt>
      <trkpt lat="45.98695" lon="6.24161">
        <ele>702</ele>
        <time>2016-08-27T06:10:49.000Z</time>
      </trkpt>
      <trkpt lat="45.98694" lon="6.24159">
        <ele>702</ele>
        <time>2016-08-27T06:10:50.000Z</time>
      </trkpt>
      <trkpt lat="45.98693" lon="6.24157">
        <ele>702</ele>
        <time>2016-08-27T06:10:51.000Z</time>
      </trkpt>
      <trkpt lat="45.98692" lon="6.24156">
        <ele>703</ele>
        <time>2016-08-27T06:10:52.000Z</time>
      </trkpt>
      <trkpt lat="45.98691" lon="6.24156">
        <ele>703</ele>
        <time>2016-08-27T06:10:53.000Z</time>
      </trkpt>
      <trkpt lat="45.98691" lon="6.24155">
        <ele>703</ele>
        <time>2016-08-27T06:10:54.000Z</time>
      </trkpt>
      <trkpt lat="45.9869" lon="6.24154">
        <ele>703</ele>
        <time>2016-08-27T06:10:55.000Z</time>
      </trkpt>
      <trkpt lat="45.98688" lon="6.24154">
        <ele>704</ele>
        <time>2016-08-27T06:10:56.000Z</time>
      </trkpt>
      <trkpt lat="45.98687" lon="6.24154">
        <ele>704</ele>
        <time>2016-08-27T06:10:57.000Z</time>
      </trkpt>
      <trkpt lat="45.98686" lon="6.24154">
        <ele>704</ele>
        <time>2016-08-27T06:10:58.000Z</time>
      </trkpt>
      <trkpt lat="45.98685" lon="6.24155">
        <ele>704</ele>
        <time>2016-08-27T06:10:59.000Z</time>
      </trkpt>
      <trkpt lat="45.98684" lon="6.24155">
        <ele>705</ele>
        <time>2016-08-27T06:11:00.000Z</time>
      </trkpt>
      <trkpt lat="45.98682" lon="6.24155">
        <ele>705</ele>
        <time>2016-08-27T06:11:01.000Z</time>
      </trkpt>
      <trkpt lat="45.98681" lon="6.24154">
        <ele>705</ele>
        <time>2016-08-27T06:11:02.000Z</time>
      </trkpt>
      <trkpt lat="45.9868" lon="6.24154">
        <ele>705</ele>
        <time>2016-08-27T06:11:03.000Z</time>
      </trkpt>
      <trkpt lat="45.98679" lon="6.24153">
        <ele>706</ele>
        <time>2016-08-27T06:11:04.000Z</time>
      </trkpt>
      <trkpt lat="45.98678" lon="6.24152">
        <ele>706</ele>
        <time>2016-08-27T06:11:05.000Z</time>
      </trkpt>
      <trkpt lat="45.98677" lon="6.24152">
        <ele>706</ele>
        <time>2016-08-27T06:11:06.000Z</time>
      </trkpt>
      <trkpt lat="45.98676" lon="6.24151">
        <ele>706</ele>
        <time>2016-08-27T06:11:07.000Z</time>
      </trkpt>
      <trkpt lat="45.98675" lon="6.24151">
        <ele>707</ele>
        <time>2016-08-27T06:11:08.000Z</time>
      </trkpt>
      <trkpt lat="45.98674" lon="6.2415">
        <ele>707</ele>
        <time>2016-08-27T06:11:09.000Z</time>
      </trkpt>
      <trkpt lat="45.98674" lon="6.24149">
        <ele>707</ele>
        <time>2016-08-27T06:11:10.000Z</time>
      </trkpt>
      <trkpt lat="45.98673" lon="6.24149">
        <ele>707</ele>
        <time>2016-08-27T06:11:11.000Z</time>
      </trkpt>
      <trkpt lat="45.98672" lon="6.24148">
        <ele>708</ele>
        <time>2016-08-27T06:11:12.000Z</time>
      </trkpt>
      <trkpt lat="45.98671" lon="6.24147">
        <ele>708</ele>
        <time>2016-08-27T06:11:13.000Z</time>
      </trkpt>
      <trkpt lat="45.9867" lon="6.24147">
        <ele>709</ele>
        <time>2016-08-27T06:11:14.000Z</time>
      </trkpt>
      <trkpt lat="45.98669" lon="6.24147">
        <ele>709</ele>
        <time>2016-08-27T06:11:15.000Z</time>
      </trkpt>
      <trkpt lat="45.98668" lon="6.24146">
        <ele>709</ele>
        <time>2016-08-27T06:11:16.000Z</time>
      </trkpt>
      <trkpt lat="45.98667" lon="6.24146">
        <ele>709</ele>
        <time>2016-08-27T06:11:17.000Z</time>
      </trkpt>
      <trkpt lat="45.98666" lon="6.24146">
        <ele>709</ele>
        <time>2016-08-27T06:11:18.000Z</time>
      </trkpt>
      <trkpt lat="45.98665" lon="6.24146">
        <ele>709</ele>
        <time>2016-08-27T06:11:19.000Z</time>
      </trkpt>
      <trkpt lat="45.98664" lon="6.24146">
        <ele>710</ele>
        <time>2016-08-27T06:11:20.000Z</time>
      </trkpt>
      <trkpt lat="45.98663" lon="6.24147">
        <ele>710</ele>
        <time>2016-08-27T06:11:21.000Z</time>
      </trkpt>
      <trkpt lat="45.98662" lon="6.24147">
        <ele>710</ele>
        <time>2016-08-27T06:11:22.000Z</time>
      </trkpt>
      <trkpt lat="45.98661" lon="6.24148">
        <ele>710</ele>
        <time>2016-08-27T06:11:23.000Z</time>
      </trkpt>
      <trkpt lat="45.9866" lon="6.24148">
        <ele>711</ele>
        <time>2016-08-27T06:11:24.000Z</time>
      </trkpt>
      <trkpt lat="45.98659" lon="6.24149">
        <ele>711</ele>
        <time>2016-08-27T06:11:25.000Z</time>
      </trkpt>
      <trkpt lat="45.98658" lon="6.2415">
        <ele>711</ele>
        <time>2016-08-27T06:11:26.000Z</time>
      </trkpt>
      <trkpt lat="45.98657" lon="6.2415">
        <ele>711</ele>
        <time>2016-08-27T06:11:27.000Z</time>
      </trkpt>
      <trkpt lat="45.98656" lon="6.24151">
        <ele>711</ele>
        <time>2016-08-27T06:11:28.000Z</time>
      </trkpt>
      <trkpt lat="45.98655" lon="6.24152">
        <ele>711</ele>
        <time>2016-08-27T06:11:29.000Z</time>
      </trkpt>
      <trkpt lat="45.98653" lon="6.24152">
        <ele>712</ele>
        <time>2016-08-27T06:11:30.000Z</time>
      </trkpt>
      <trkpt lat="45.98652" lon="6.24152">
        <ele>712</ele>
        <time>2016-08-27T06:11:31.000Z</time>
      </trkpt>
      <trkpt lat="45.98651" lon="6.24153">
        <ele>713</ele>
        <time>2016-08-27T06:11:32.000Z</time>
      </trkpt>
      <trkpt lat="45.9865" lon="6.24153">
        <ele>713</ele>
        <time>2016-08-27T06:11:33.000Z</time>
      </trkpt>
      <trkpt lat="45.98649" lon="6.24154">
        <ele>714</ele>
        <time>2016-08-27T06:11:34.000Z</time>
      </trkpt>
      <trkpt lat="45.98648" lon="6.24154">
        <ele>714</ele>
        <time>2016-08-27T06:11:35.000Z</time>
      </trkpt>
      <trkpt lat="45.98647" lon="6.24155">
        <ele>715</ele>
        <time>2016-08-27T06:11:36.000Z</time>
      </trkpt>
      <trkpt lat="45.98646" lon="6.24155">
        <ele>715</ele>
        <time>2016-08-27T06:11:37.000Z</time>
      </trkpt>
      <trkpt lat="45.98645" lon="6.24156">
        <ele>716</ele>
        <time>2016-08-27T06:11:38.000Z</time>
      </trkpt>
      <trkpt lat="45.98644" lon="6.24156">
        <ele>716</ele>
        <time>2016-08-27T06:11:39.000Z</time>
      </trkpt>
      <trkpt lat="45.98643" lon="6.24157">
        <ele>716</ele>
        <time>2016-08-27T06:11:40.000Z</time>
      </trkpt>
      <trkpt lat="45.98642" lon="6.24157">
        <ele>716</ele>
        <time>2016-08-27T06:11:41.000Z</time>
      </trkpt>
      <trkpt lat="45.98641" lon="6.24158">
        <ele>717</ele>
        <time>2016-08-27T06:11:42.000Z</time>
      </trkpt>
      <trkpt lat="45.98639" lon="6.24158">
        <ele>717</ele>
        <time>2016-08-27T06:11:43.000Z</time>
      </trkpt>
      <trkpt lat="45.98638" lon="6.24158">
        <ele>718</ele>
        <time>2016-08-27T06:11:44.000Z</time>
      </trkpt>
      <trkpt lat="45.98637" lon="6.24158">
        <ele>718</ele>
        <time>2016-08-27T06:11:45.000Z</time>
      </trkpt>
      <trkpt lat="45.98636" lon="6.24159">
        <ele>719</ele>
        <time>2016-08-27T06:11:46.000Z</time>
      </trkpt>
      <trkpt lat="45.98635" lon="6.24159">
        <ele>719</ele>
        <time>2016-08-27T06:11:47.000Z</time>
      </trkpt>
      <trkpt lat="45.98634" lon="6.24159">
        <ele>719</ele>
        <time>2016-08-27T06:11:48.000Z</time>
      </trkpt>
      <trkpt lat="45.98633" lon="6.2416">
        <ele>719</ele>
        <time>2016-08-27T06:11:49.000Z</time>
      </trkpt>
      <trkpt lat="45.98631" lon="6.2416">
        <ele>720</ele>
        <time>2016-08-27T06:11:50.000Z</time>
      </trkpt>
      <trkpt lat="45.9863" lon="6.2416">
        <ele>720</ele>
        <time>2016-08-27T06:11:51.000Z</time>
      </trkpt>
      <trkpt lat="45.98629" lon="6.2416">
        <ele>720</ele>
        <time>2016-08-27T06:11:52.000Z</time>
      </trkpt>
      <trkpt lat="45.98628" lon="6.24161">
        <ele>720</ele>
        <time>2016-08-27T06:11:53.000Z</time>
      </trkpt>
      <trkpt lat="45.98627" lon="6.24161">
        <ele>721</ele>
        <time>2016-08-27T06:11:54.000Z</time>
      </trkpt>
      <trkpt lat="45.98626" lon="6.24161">
        <ele>721</ele>
        <time>2016-08-27T06:11:55.000Z</time>
      </trkpt>
      <trkpt lat="45.98625" lon="6.24161">
        <ele>722</ele>
        <time>2016-08-27T06:11:56.000Z</time>
      </trkpt>
      <trkpt lat="45.98623" lon="6.24161">
        <ele>722</ele>
        <time>2016-08-27T06:11:57.000Z</time>
      </trkpt>
      <trkpt lat="45.98622" lon="6.24161">
        <ele>722</ele>
        <time>2016-08-27T06:11:58.000Z</time>
      </trkpt>
      <trkpt lat="45.98621" lon="6.24161">
        <ele>722</ele>
        <time>2016-08-27T06:11:59.000Z</time>
      </trkpt>
      <trkpt lat="45.9862" lon="6.24161">
        <ele>723</ele>
        <time>2016-08-27T06:12:00.000Z</time>
      </trkpt>
      <trkpt lat="45.98618" lon="6.24161">
        <ele>723</ele>
        <time>2016-08-27T06:12:01.000Z</time>
      </trkpt>
      <trkpt lat="45.98616" lon="6.2416">
        <ele>723</ele>
        <time>2016-08-27T06:12:02.000Z</time>
      </trkpt>
      <trkpt lat="45.98615" lon="6.2416">
        <ele>723</ele>
        <time>2016-08-27T06:12:03.000Z</time>
      </trkpt>
      <trkpt lat="45.98613" lon="6.24159">
        <ele>724</ele>
        <time>2016-08-27T06:12:04.000Z</time>
      </trkpt>
      <trkpt lat="45.98611" lon="6.24157">
        <ele>724</ele>
        <time>2016-08-27T06:12:05.000Z</time>
      </trkpt>
      <trkpt lat="45.9861" lon="6.24156">
        <ele>724</ele>
        <time>2016-08-27T06:12:06.000Z</time>
      </trkpt>
      <trkpt lat="45.98608" lon="6.24156">
        <ele>724</ele>
        <time>2016-08-27T06:12:07.000Z</time>
      </trkpt>
      <trkpt lat="45.98607" lon="6.24154">
        <ele>724</ele>
        <time>2016-08-27T06:12:08.000Z</time>
      </trkpt>
      <trkpt lat="45.98605" lon="6.24153">
        <ele>724</ele>
        <time>2016-08-27T06:12:09.000Z</time>
      </trkpt>
      <trkpt lat="45.98604" lon="6.24152">
        <ele>725</ele>
        <time>2016-08-27T06:12:10.000Z</time>
      </trkpt>
      <trkpt lat="45.98602" lon="6.2415">
        <ele>725</ele>
        <time>2016-08-27T06:12:11.000Z</time>
      </trkpt>
      <trkpt lat="45.98601" lon="6.24148">
        <ele>725</ele>
        <time>2016-08-27T06:12:12.000Z</time>
      </trkpt>
      <trkpt lat="45.98599" lon="6.24147">
        <ele>725</ele>
        <time>2016-08-27T06:12:13.000Z</time>
      </trkpt>
      <trkpt lat="45.98598" lon="6.24145">
        <ele>725</ele>
        <time>2016-08-27T06:12:14.000Z</time>
      </trkpt>
      <trkpt lat="45.98596" lon="6.24143">
        <ele>725</ele>
        <time>2016-08-27T06:12:15.000Z</time>
      </trkpt>
      <trkpt lat="45.98595" lon="6.24141">
        <ele>725</ele>
        <time>2016-08-27T06:12:16.000Z</time>
      </trkpt>
      <trkpt lat="45.98594" lon="6.24139">
        <ele>725</ele>
        <time>2016-08-27T06:12:17.000Z</time>
      </trkpt>
      <trkpt lat="45.98593" lon="6.24137">
        <ele>725</ele>
        <time>2016-08-27T06:12:18.000Z</time>
      </trkpt>
      <trkpt lat="45.98592" lon="6.24135">
        <ele>725</ele>
        <time>2016-08-27T06:12:19.000Z</time>
      </trkpt>
      <trkpt lat="45.98591" lon="6.24133">
        <ele>725</ele>
        <time>2016-08-27T06:12:20.000Z</time>
      </trkpt>
      <trkpt lat="45.9859" lon="6.24131">
        <ele>725</ele>
        <time>2016-08-27T06:12:21.000Z</time>
      </trkpt>
      <trkpt lat="45.98589" lon="6.2413">
        <ele>726</ele>
        <time>2016-08-27T06:12:22.000Z</time>
      </trkpt>
      <trkpt lat="45.98588" lon="6.24128">
        <ele>726</ele>
        <time>2016-08-27T06:12:23.000Z</time>
      </trkpt>
      <trkpt lat="45.98587" lon="6.24126">
        <ele>726</ele>
        <time>2016-08-27T06:12:24.000Z</time>
      </trkpt>
      <trkpt lat="45.98585" lon="6.24125">
        <ele>726</ele>
        <time>2016-08-27T06:12:25.000Z</time>
      </trkpt>
      <trkpt lat="45.98584" lon="6.24123">
        <ele>726</ele>
        <time>2016-08-27T06:12:26.000Z</time>
      </trkpt>
      <trkpt lat="45.98583" lon="6.24122">
        <ele>726</ele>
        <time>2016-08-27T06:12:27.000Z</time>
      </trkpt>
      <trkpt lat="45.98582" lon="6.2412">
        <ele>726</ele>
        <time>2016-08-27T06:12:28.000Z</time>
      </trkpt>
      <trkpt lat="45.98581" lon="6.24118">
        <ele>726</ele>
        <time>2016-08-27T06:12:29.000Z</time>
      </trkpt>
      <trkpt lat="45.98579" lon="6.24117">
        <ele>726</ele>
        <time>2016-08-27T06:12:30.000Z</time>
      </trkpt>
      <trkpt lat="45.98578" lon="6.24115">
        <ele>726</ele>
        <time>2016-08-27T06:12:31.000Z</time>
      </trkpt>
      <trkpt lat="45.98577" lon="6.24113">
        <ele>726</ele>
        <time>2016-08-27T06:12:32.000Z</time>
      </trkpt>
      <trkpt lat="45.98576" lon="6.24111">
        <ele>726</ele>
        <time>2016-08-27T06:12:33.000Z</time>
      </trkpt>
      <trkpt lat="45.98575" lon="6.2411">
        <ele>727</ele>
        <time>2016-08-27T06:12:34.000Z</time>
      </trkpt>
      <trkpt lat="45.98573" lon="6.24108">
        <ele>727</ele>
        <time>2016-08-27T06:12:35.000Z</time>
      </trkpt>
      <trkpt lat="45.98572" lon="6.24107">
        <ele>727</ele>
        <time>2016-08-27T06:12:36.000Z</time>
      </trkpt>
      <trkpt lat="45.98571" lon="6.24106">
        <ele>727</ele>
        <time>2016-08-27T06:12:37.000Z</time>
      </trkpt>
      <trkpt lat="45.98569" lon="6.24105">
        <ele>728</ele>
        <time>2016-08-27T06:12:38.000Z</time>
      </trkpt>
      <trkpt lat="45.98568" lon="6.24104">
        <ele>728</ele>
        <time>2016-08-27T06:12:39.000Z</time>
      </trkpt>
      <trkpt lat="45.98566" lon="6.24103">
        <ele>728</ele>
        <time>2016-08-27T06:12:40.000Z</time>
      </trkpt>
      <trkpt lat="45.98565" lon="6.24102">
        <ele>728</ele>
        <time>2016-08-27T06:12:41.000Z</time>
      </trkpt>
      <trkpt lat="45.98564" lon="6.24102">
        <ele>729</ele>
        <time>2016-08-27T06:12:42.000Z</time>
      </trkpt>
      <trkpt lat="45.98563" lon="6.24101">
        <ele>729</ele>
        <time>2016-08-27T06:12:43.000Z</time>
      </trkpt>
      <trkpt lat="45.98561" lon="6.241">
        <ele>729</ele>
        <time>2016-08-27T06:12:44.000Z</time>
      </trkpt>
      <trkpt lat="45.9856" lon="6.24099">
        <ele>729</ele>
        <time>2016-08-27T06:12:45.000Z</time>
      </trkpt>
      <trkpt lat="45.98559" lon="6.24098">
        <ele>730</ele>
        <time>2016-08-27T06:12:46.000Z</time>
      </trkpt>
      <trkpt lat="45.98557" lon="6.24097">
        <ele>730</ele>
        <time>2016-08-27T06:12:47.000Z</time>
      </trkpt>
      <trkpt lat="45.98556" lon="6.24096">
        <ele>730</ele>
        <time>2016-08-27T06:12:48.000Z</time>
      </trkpt>
      <trkpt lat="45.98554" lon="6.24096">
        <ele>730</ele>
        <time>2016-08-27T06:12:49.000Z</time>
      </trkpt>
      <trkpt lat="45.98553" lon="6.24095">
        <ele>731</ele>
        <time>2016-08-27T06:12:50.000Z</time>
      </trkpt>
      <trkpt lat="45.98552" lon="6.24094">
        <ele>731</ele>
        <time>2016-08-27T06:12:51.000Z</time>
      </trkpt>
      <trkpt lat="45.9855" lon="6.24094">
        <ele>732</ele>
        <time>2016-08-27T06:12:52.000Z</time>
      </trkpt>
      <trkpt lat="45.98549" lon="6.24093">
        <ele>732</ele>
        <time>2016-08-27T06:12:53.000Z</time>
      </trkpt>
      <trkpt lat="45.98548" lon="6.24092">
        <ele>732</ele>
        <time>2016-08-27T06:12:54.000Z</time>
      </trkpt>
      <trkpt lat="45.98546" lon="6.24092">
        <ele>732</ele>
        <time>2016-08-27T06:12:55.000Z</time>
      </trkpt>
      <trkpt lat="45.98545" lon="6.24091">
        <ele>733</ele>
        <time>2016-08-27T06:12:56.000Z</time>
      </trkpt>
      <trkpt lat="45.98544" lon="6.2409">
        <ele>733</ele>
        <time>2016-08-27T06:12:57.000Z</time>
      </trkpt>
      <trkpt lat="45.98542" lon="6.2409">
        <ele>733</ele>
        <time>2016-08-27T06:12:58.000Z</time>
      </trkpt>
      <trkpt lat="45.98541" lon="6.24089">
        <ele>733</ele>
        <time>2016-08-27T06:12:59.000Z</time>
      </trkpt>
      <trkpt lat="45.9854" lon="6.24089">
        <ele>734</ele>
        <time>2016-08-27T06:13:00.000Z</time>
      </trkpt>
      <trkpt lat="45.98539" lon="6.24089">
        <ele>734</ele>
        <time>2016-08-27T06:13:01.000Z</time>
      </trkpt>
      <trkpt lat="45.98538" lon="6.24088">
        <ele>734</ele>
        <time>2016-08-27T06:13:02.000Z</time>
      </trkpt>
      <trkpt lat="45.98536" lon="6.24088">
        <ele>734</ele>
        <time>2016-08-27T06:13:03.000Z</time>
      </trkpt>
      <trkpt lat="45.98535" lon="6.24088">
        <ele>735</ele>
        <time>2016-08-27T06:13:04.000Z</time>
      </trkpt>
      <trkpt lat="45.98533" lon="6.24087">
        <ele>735</ele>
        <time>2016-08-27T06:13:05.000Z</time>
      </trkpt>
      <trkpt lat="45.98532" lon="6.24087">
        <ele>735</ele>
        <time>2016-08-27T06:13:06.000Z</time>
      </trkpt>
      <trkpt lat="45.9853" lon="6.24086">
        <ele>735</ele>
        <time>2016-08-27T06:13:07.000Z</time>
      </trkpt>
      <trkpt lat="45.98529" lon="6.24086">
        <ele>736</ele>
        <time>2016-08-27T06:13:08.000Z</time>
      </trkpt>
      <trkpt lat="45.98527" lon="6.24085">
        <ele>736</ele>
        <time>2016-08-27T06:13:09.000Z</time>
      </trkpt>
      <trkpt lat="45.98526" lon="6.24084">
        <ele>736</ele>
        <time>2016-08-27T06:13:10.000Z</time>
      </trkpt>
      <trkpt lat="45.98524" lon="6.24084">
        <ele>736</ele>
        <time>2016-08-27T06:13:11.000Z</time>
      </trkpt>
      <trkpt lat="45.98523" lon="6.24083">
        <ele>737</ele>
        <time>2016-08-27T06:13:12.000Z</time>
      </trkpt>
      <trkpt lat="45.98521" lon="6.24082">
        <ele>737</ele>
        <time>2016-08-27T06:13:13.000Z</time>
      </trkpt>
      <trkpt lat="45.98519" lon="6.24081">
        <ele>737</ele>
        <time>2016-08-27T06:13:14.000Z</time>
      </trkpt>
      <trkpt lat="45.98518" lon="6.2408">
        <ele>737</ele>
        <time>2016-08-27T06:13:15.000Z</time>
      </trkpt>
      <trkpt lat="45.98517" lon="6.24079">
        <ele>738</ele>
        <time>2016-08-27T06:13:16.000Z</time>
      </trkpt>
      <trkpt lat="45.98515" lon="6.24078">
        <ele>738</ele>
        <time>2016-08-27T06:13:17.000Z</time>
      </trkpt>
      <trkpt lat="45.98514" lon="6.24076">
        <ele>738</ele>
        <time>2016-08-27T06:13:18.000Z</time>
      </trkpt>
      <trkpt lat="45.98512" lon="6.24075">
        <ele>738</ele>
        <time>2016-08-27T06:13:19.000Z</time>
      </trkpt>
      <trkpt lat="45.98511" lon="6.24074">
        <ele>738</ele>
        <time>2016-08-27T06:13:20.000Z</time>
      </trkpt>
      <trkpt lat="45.9851" lon="6.24073">
        <ele>738</ele>
        <time>2016-08-27T06:13:21.000Z</time>
      </trkpt>
      <trkpt lat="45.98509" lon="6.24072">
        <ele>739</ele>
        <time>2016-08-27T06:13:22.000Z</time>
      </trkpt>
      <trkpt lat="45.98508" lon="6.24071">
        <ele>739</ele>
        <time>2016-08-27T06:13:23.000Z</time>
      </trkpt>
      <trkpt lat="45.98507" lon="6.24069">
        <ele>739</ele>
        <time>2016-08-27T06:13:24.000Z</time>
      </trkpt>
      <trkpt lat="45.98505" lon="6.24068">
        <ele>739</ele>
        <time>2016-08-27T06:13:25.000Z</time>
      </trkpt>
      <trkpt lat="45.98504" lon="6.24067">
        <ele>740</ele>
        <time>2016-08-27T06:13:26.000Z</time>
      </trkpt>
      <trkpt lat="45.98503" lon="6.24066">
        <ele>740</ele>
        <time>2016-08-27T06:13:27.000Z</time>
      </trkpt>
      <trkpt lat="45.98501" lon="6.24065">
        <ele>740</ele>
        <time>2016-08-27T06:13:28.000Z</time>
      </trkpt>
      <trkpt lat="45.985" lon="6.24064">
        <ele>740</ele>
        <time>2016-08-27T06:13:29.000Z</time>
      </trkpt>
      <trkpt lat="45.98499" lon="6.24063">
        <ele>741</ele>
        <time>2016-08-27T06:13:30.000Z</time>
      </trkpt>
      <trkpt lat="45.98498" lon="6.24061">
        <ele>741</ele>
        <time>2016-08-27T06:13:31.000Z</time>
      </trkpt>
      <trkpt lat="45.98496" lon="6.24061">
        <ele>741</ele>
        <time>2016-08-27T06:13:32.000Z</time>
      </trkpt>
      <trkpt lat="45.98495" lon="6.2406">
        <ele>741</ele>
        <time>2016-08-27T06:13:33.000Z</time>
      </trkpt>
      <trkpt lat="45.98494" lon="6.24059">
        <ele>742</ele>
        <time>2016-08-27T06:13:34.000Z</time>
      </trkpt>
      <trkpt lat="45.98493" lon="6.24059">
        <ele>742</ele>
        <time>2016-08-27T06:13:35.000Z</time>
      </trkpt>
      <trkpt lat="45.98492" lon="6.24058">
        <ele>742</ele>
        <time>2016-08-27T06:13:36.000Z</time>
      </trkpt>
      <trkpt lat="45.9849" lon="6.24057">
        <ele>742</ele>
        <time>2016-08-27T06:13:37.000Z</time>
      </trkpt>
      <trkpt lat="45.98489" lon="6.24056">
        <ele>743</ele>
        <time>2016-08-27T06:13:38.000Z</time>
      </trkpt>
      <trkpt lat="45.98487" lon="6.24055">
        <ele>743</ele>
        <time>2016-08-27T06:13:39.000Z</time>
      </trkpt>
      <trkpt lat="45.98486" lon="6.24054">
        <ele>744</ele>
        <time>2016-08-27T06:13:40.000Z</time>
      </trkpt>
      <trkpt lat="45.98484" lon="6.24053">
        <ele>744</ele>
        <time>2016-08-27T06:13:41.000Z</time>
      </trkpt>
      <trkpt lat="45.98483" lon="6.24052">
        <ele>744</ele>
        <time>2016-08-27T06:13:42.000Z</time>
      </trkpt>
      <trkpt lat="45.98481" lon="6.24052">
        <ele>744</ele>
        <time>2016-08-27T06:13:43.000Z</time>
      </trkpt>
      <trkpt lat="45.9848" lon="6.24051">
        <ele>745</ele>
        <time>2016-08-27T06:13:44.000Z</time>
      </trkpt>
      <trkpt lat="45.98478" lon="6.2405">
        <ele>745</ele>
        <time>2016-08-27T06:13:45.000Z</time>
      </trkpt>
      <trkpt lat="45.98477" lon="6.24048">
        <ele>745</ele>
        <time>2016-08-27T06:13:46.000Z</time>
      </trkpt>
      <trkpt lat="45.98475" lon="6.24047">
        <ele>745</ele>
        <time>2016-08-27T06:13:47.000Z</time>
      </trkpt>
      <trkpt lat="45.98473" lon="6.24046">
        <ele>745</ele>
        <time>2016-08-27T06:13:48.000Z</time>
      </trkpt>
      <trkpt lat="45.98472" lon="6.24045">
        <ele>745</ele>
        <time>2016-08-27T06:13:49.000Z</time>
      </trkpt>
      <trkpt lat="45.9847" lon="6.24044">
        <ele>746</ele>
        <time>2016-08-27T06:13:50.000Z</time>
      </trkpt>
      <trkpt lat="45.98469" lon="6.24043">
        <ele>746</ele>
        <time>2016-08-27T06:13:51.000Z</time>
      </trkpt>
      <trkpt lat="45.98467" lon="6.24043">
        <ele>746</ele>
        <time>2016-08-27T06:13:52.000Z</time>
      </trkpt>
      <trkpt lat="45.98466" lon="6.24042">
        <ele>746</ele>
        <time>2016-08-27T06:13:53.000Z</time>
      </trkpt>
      <trkpt lat="45.98465" lon="6.24041">
        <ele>746</ele>
        <time>2016-08-27T06:13:54.000Z</time>
      </trkpt>
      <trkpt lat="45.98464" lon="6.2404">
        <ele>746</ele>
        <time>2016-08-27T06:13:55.000Z</time>
      </trkpt>
      <trkpt lat="45.98462" lon="6.2404">
        <ele>747</ele>
        <time>2016-08-27T06:13:56.000Z</time>
      </trkpt>
      <trkpt lat="45.98461" lon="6.24039">
        <ele>747</ele>
        <time>2016-08-27T06:13:57.000Z</time>
      </trkpt>
      <trkpt lat="45.9846" lon="6.24038">
        <ele>747</ele>
        <time>2016-08-27T06:13:58.000Z</time>
      </trkpt>
      <trkpt lat="45.98459" lon="6.24037">
        <ele>747</ele>
        <time>2016-08-27T06:13:59.000Z</time>
      </trkpt>
      <trkpt lat="45.98457" lon="6.24037">
        <ele>748</ele>
        <time>2016-08-27T06:14:00.000Z</time>
      </trkpt>
      <trkpt lat="45.98456" lon="6.24036">
        <ele>748</ele>
        <time>2016-08-27T06:14:01.000Z</time>
      </trkpt>
      <trkpt lat="45.98454" lon="6.24035">
        <ele>748</ele>
        <time>2016-08-27T06:14:02.000Z</time>
      </trkpt>
      <trkpt lat="45.98453" lon="6.24034">
        <ele>748</ele>
        <time>2016-08-27T06:14:03.000Z</time>
      </trkpt>
      <trkpt lat="45.98452" lon="6.24034">
        <ele>749</ele>
        <time>2016-08-27T06:14:04.000Z</time>
      </trkpt>
      <trkpt lat="45.98451" lon="6.24033">
        <ele>749</ele>
        <time>2016-08-27T06:14:05.000Z</time>
      </trkpt>
      <trkpt lat="45.9845" lon="6.24032">
        <ele>750</ele>
        <time>2016-08-27T06:14:06.000Z</time>
      </trkpt>
      <trkpt lat="45.98448" lon="6.24032">
        <ele>750</ele>
        <time>2016-08-27T06:14:07.000Z</time>
      </trkpt>
      <trkpt lat="45.98447" lon="6.24032">
        <ele>750</ele>
        <time>2016-08-27T06:14:08.000Z</time>
      </trkpt>
      <trkpt lat="45.98446" lon="6.24031">
        <ele>750</ele>
        <time>2016-08-27T06:14:09.000Z</time>
      </trkpt>
      <trkpt lat="45.98444" lon="6.24031">
        <ele>750</ele>
        <time>2016-08-27T06:14:10.000Z</time>
      </trkpt>
      <trkpt lat="45.98443" lon="6.24031">
        <ele>750</ele>
        <time>2016-08-27T06:14:11.000Z</time>
      </trkpt>
      <trkpt lat="45.98441" lon="6.24031">
        <ele>751</ele>
        <time>2016-08-27T06:14:12.000Z</time>
      </trkpt>
      <trkpt lat="45.9844" lon="6.2403">
        <ele>751</ele>
        <time>2016-08-27T06:14:13.000Z</time>
      </trkpt>
      <trkpt lat="45.98438" lon="6.2403">
        <ele>751</ele>
        <time>2016-08-27T06:14:14.000Z</time>
      </trkpt>
      <trkpt lat="45.98436" lon="6.2403">
        <ele>751</ele>
        <time>2016-08-27T06:14:15.000Z</time>
      </trkpt>
      <trkpt lat="45.98435" lon="6.2403">
        <ele>752</ele>
        <time>2016-08-27T06:14:16.000Z</time>
      </trkpt>
      <trkpt lat="45.98433" lon="6.2403">
        <ele>752</ele>
        <time>2016-08-27T06:14:17.000Z</time>
      </trkpt>
      <trkpt lat="45.98432" lon="6.2403">
        <ele>752</ele>
        <time>2016-08-27T06:14:18.000Z</time>
      </trkpt>
      <trkpt lat="45.9843" lon="6.2403">
        <ele>752</ele>
        <time>2016-08-27T06:14:19.000Z</time>
      </trkpt>
      <trkpt lat="45.98428" lon="6.2403">
        <ele>753</ele>
        <time>2016-08-27T06:14:20.000Z</time>
      </trkpt>
      <trkpt lat="45.98427" lon="6.2403">
        <ele>753</ele>
        <time>2016-08-27T06:14:21.000Z</time>
      </trkpt>
      <trkpt lat="45.98425" lon="6.24029">
        <ele>753</ele>
        <time>2016-08-27T06:14:22.000Z</time>
      </trkpt>
      <trkpt lat="45.98423" lon="6.24029">
        <ele>753</ele>
        <time>2016-08-27T06:14:23.000Z</time>
      </trkpt>
      <trkpt lat="45.98422" lon="6.24029">
        <ele>753</ele>
        <time>2016-08-27T06:14:24.000Z</time>
      </trkpt>
      <trkpt lat="45.9842" lon="6.24029">
        <ele>753</ele>
        <time>2016-08-27T06:14:25.000Z</time>
      </trkpt>
      <trkpt lat="45.98418" lon="6.24029">
        <ele>754</ele>
        <time>2016-08-27T06:14:26.000Z</time>
      </trkpt>
      <trkpt lat="45.98417" lon="6.24029">
        <ele>754</ele>
        <time>2016-08-27T06:14:27.000Z</time>
      </trkpt>
      <trkpt lat="45.98415" lon="6.24029">
        <ele>754</ele>
        <time>2016-08-27T06:14:28.000Z</time>
      </trkpt>
      <trkpt lat="45.98414" lon="6.24029">
        <ele>754</ele>
        <time>2016-08-27T06:14:29.000Z</time>
      </trkpt>
      <trkpt lat="45.98412" lon="6.24029">
        <ele>755</ele>
        <time>2016-08-27T06:14:30.000Z</time>
      </trkpt>
      <trkpt lat="45.9841" lon="6.2403">
        <ele>755</ele>
        <time>2016-08-27T06:14:31.000Z</time>
      </trkpt>
      <trkpt lat="45.98409" lon="6.2403">
        <ele>755</ele>
        <time>2016-08-27T06:14:32.000Z</time>
      </trkpt>
      <trkpt lat="45.98407" lon="6.2403">
        <ele>755</ele>
        <time>2016-08-27T06:14:33.000Z</time>
      </trkpt>
      <trkpt lat="45.98406" lon="6.2403">
        <ele>755</ele>
        <time>2016-08-27T06:14:34.000Z</time>
      </trkpt>
      <trkpt lat="45.98404" lon="6.24031">
        <ele>755</ele>
        <time>2016-08-27T06:14:35.000Z</time>
      </trkpt>
      <trkpt lat="45.98402" lon="6.24031">
        <ele>756</ele>
        <time>2016-08-27T06:14:36.000Z</time>
      </trkpt>
      <trkpt lat="45.98401" lon="6.24031">
        <ele>756</ele>
        <time>2016-08-27T06:14:37.000Z</time>
      </trkpt>
      <trkpt lat="45.98399" lon="6.24032">
        <ele>757</ele>
        <time>2016-08-27T06:14:38.000Z</time>
      </trkpt>
      <trkpt lat="45.98398" lon="6.24032">
        <ele>757</ele>
        <time>2016-08-27T06:14:39.000Z</time>
      </trkpt>
      <trkpt lat="45.98396" lon="6.24032">
        <ele>758</ele>
        <time>2016-08-27T06:14:40.000Z</time>
      </trkpt>
      <trkpt lat="45.98395" lon="6.24032">
        <ele>758</ele>
        <time>2016-08-27T06:14:41.000Z</time>
      </trkpt>
      <trkpt lat="45.98393" lon="6.24033">
        <ele>758</ele>
        <time>2016-08-27T06:14:42.000Z</time>
      </trkpt>
      <trkpt lat="45.98392" lon="6.24033">
        <ele>758</ele>
        <time>2016-08-27T06:14:43.000Z</time>
      </trkpt>
      <trkpt lat="45.9839" lon="6.24033">
        <ele>759</ele>
        <time>2016-08-27T06:14:44.000Z</time>
      </trkpt>
      <trkpt lat="45.98388" lon="6.24034">
        <ele>759</ele>
        <time>2016-08-27T06:14:45.000Z</time>
      </trkpt>
      <trkpt lat="45.98387" lon="6.24034">
        <ele>760</ele>
        <time>2016-08-27T06:14:46.000Z</time>
      </trkpt>
      <trkpt lat="45.98385" lon="6.24035">
        <ele>760</ele>
        <time>2016-08-27T06:14:47.000Z</time>
      </trkpt>
      <trkpt lat="45.98384" lon="6.24035">
        <ele>761</ele>
        <time>2016-08-27T06:14:48.000Z</time>
      </trkpt>
      <trkpt lat="45.98382" lon="6.24036">
        <ele>761</ele>
        <time>2016-08-27T06:14:49.000Z</time>
      </trkpt>
      <trkpt lat="45.9838" lon="6.24036">
        <ele>761</ele>
        <time>2016-08-27T06:14:50.000Z</time>
      </trkpt>
      <trkpt lat="45.98379" lon="6.24037">
        <ele>761</ele>
        <time>2016-08-27T06:14:51.000Z</time>
      </trkpt>
      <trkpt lat="45.98377" lon="6.24038">
        <ele>762</ele>
        <time>2016-08-27T06:14:52.000Z</time>
      </trkpt>
      <trkpt lat="45.98375" lon="6.24038">
        <ele>762</ele>
        <time>2016-08-27T06:14:53.000Z</time>
      </trkpt>
      <trkpt lat="45.98374" lon="6.24039">
        <ele>762</ele>
        <time>2016-08-27T06:14:54.000Z</time>
      </trkpt>
      <trkpt lat="45.98372" lon="6.2404">
        <ele>762</ele>
        <time>2016-08-27T06:14:55.000Z</time>
      </trkpt>
      <trkpt lat="45.98371" lon="6.24041">
        <ele>763</ele>
        <time>2016-08-27T06:14:56.000Z</time>
      </trkpt>
      <trkpt lat="45.98369" lon="6.24042">
        <ele>763</ele>
        <time>2016-08-27T06:14:57.000Z</time>
      </trkpt>
      <trkpt lat="45.98367" lon="6.24043">
        <ele>763</ele>
        <time>2016-08-27T06:14:58.000Z</time>
      </trkpt>
      <trkpt lat="45.98366" lon="6.24044">
        <ele>763</ele>
        <time>2016-08-27T06:14:59.000Z</time>
      </trkpt>
      <trkpt lat="45.98364" lon="6.24045">
        <ele>764</ele>
        <time>2016-08-27T06:15:00.000Z</time>
      </trkpt>
      <trkpt lat="45.98363" lon="6.24046">
        <ele>764</ele>
        <time>2016-08-27T06:15:01.000Z</time>
      </trkpt>
      <trkpt lat="45.98361" lon="6.24047">
        <ele>764</ele>
        <time>2016-08-27T06:15:02.000Z</time>
      </trkpt>
      <trkpt lat="45.9836" lon="6.24048">
        <ele>764</ele>
        <time>2016-08-27T06:15:03.000Z</time>
      </trkpt>
      <trkpt lat="45.98358" lon="6.24049">
        <ele>765</ele>
        <time>2016-08-27T06:15:04.000Z</time>
      </trkpt>
      <trkpt lat="45.98357" lon="6.2405">
        <ele>765</ele>
        <time>2016-08-27T06:15:05.000Z</time>
      </trkpt>
      <trkpt lat="45.98355" lon="6.24051">
        <ele>766</ele>
        <time>2016-08-27T06:15:06.000Z</time>
      </trkpt>
      <trkpt lat="45.98354" lon="6.24052">
        <ele>766</ele>
        <time>2016-08-27T06:15:07.000Z</time>
      </trkpt>
      <trkpt lat="45.98354" lon="6.24052">
        <ele>766</ele>
        <time>2016-08-27T06:15:08.000Z</time>
      </trkpt>
      <trkpt lat="45.98353" lon="6.24052">
        <ele>766</ele>
        <time>2016-08-27T06:15:09.000Z</time>
      </trkpt>
      <trkpt lat="45.98353" lon="6.24053">
        <ele>767</ele>
        <time>2016-08-27T06:15:10.000Z</time>
      </trkpt>
      <trkpt lat="45.98352" lon="6.24053">
        <ele>767</ele>
        <time>2016-08-27T06:15:11.000Z</time>
      </trkpt>
      <trkpt lat="45.98351" lon="6.24054">
        <ele>768</ele>
        <time>2016-08-27T06:15:12.000Z</time>
      </trkpt>
      <trkpt lat="45.98351" lon="6.24054">
        <ele>768</ele>
        <time>2016-08-27T06:15:13.000Z</time>
      </trkpt>
      <trkpt lat="45.9835" lon="6.24055">
        <ele>768</ele>
        <time>2016-08-27T06:15:14.000Z</time>
      </trkpt>
      <trkpt lat="45.98349" lon="6.24056">
        <ele>768</ele>
        <time>2016-08-27T06:15:15.000Z</time>
      </trkpt>
      <trkpt lat="45.98348" lon="6.24056">
        <ele>769</ele>
        <time>2016-08-27T06:15:16.000Z</time>
      </trkpt>
      <trkpt lat="45.98347" lon="6.24057">
        <ele>769</ele>
        <time>2016-08-27T06:15:17.000Z</time>
      </trkpt>
      <trkpt lat="45.98345" lon="6.24058">
        <ele>769</ele>
        <time>2016-08-27T06:15:18.000Z</time>
      </trkpt>
      <trkpt lat="45.98344" lon="6.24058">
        <ele>769</ele>
        <time>2016-08-27T06:15:19.000Z</time>
      </trkpt>
      <trkpt lat="45.98343" lon="6.24059">
        <ele>769</ele>
        <time>2016-08-27T06:15:20.000Z</time>
      </trkpt>
      <trkpt lat="45.98341" lon="6.24059">
        <ele>769</ele>
        <time>2016-08-27T06:15:21.000Z</time>
      </trkpt>
      <trkpt lat="45.9834" lon="6.24059">
        <ele>770</ele>
        <time>2016-08-27T06:15:22.000Z</time>
      </trkpt>
      <trkpt lat="45.98339" lon="6.24059">
        <ele>770</ele>
        <time>2016-08-27T06:15:23.000Z</time>
      </trkpt>
      <trkpt lat="45.98338" lon="6.24059">
        <ele>770</ele>
        <time>2016-08-27T06:15:24.000Z</time>
      </trkpt>
      <trkpt lat="45.98337" lon="6.24059">
        <ele>770</ele>
        <time>2016-08-27T06:15:25.000Z</time>
      </trkpt>
      <trkpt lat="45.98336" lon="6.24059">
        <ele>771</ele>
        <time>2016-08-27T06:15:26.000Z</time>
      </trkpt>
      <trkpt lat="45.98334" lon="6.24059">
        <ele>771</ele>
        <time>2016-08-27T06:15:27.000Z</time>
      </trkpt>
      <trkpt lat="45.98333" lon="6.24059">
        <ele>771</ele>
        <time>2016-08-27T06:15:28.000Z</time>
      </trkpt>
      <trkpt lat="45.98332" lon="6.24059">
        <ele>771</ele>
        <time>2016-08-27T06:15:29.000Z</time>
      </trkpt>
      <trkpt lat="45.98331" lon="6.24059">
        <ele>772</ele>
        <time>2016-08-27T06:15:30.000Z</time>
      </trkpt>
      <trkpt lat="45.9833" lon="6.2406">
        <ele>772</ele>
        <time>2016-08-27T06:15:31.000Z</time>
      </trkpt>
      <trkpt lat="45.98329" lon="6.2406">
        <ele>772</ele>
        <time>2016-08-27T06:15:32.000Z</time>
      </trkpt>
      <trkpt lat="45.98327" lon="6.2406">
        <ele>772</ele>
        <time>2016-08-27T06:15:33.000Z</time>
      </trkpt>
      <trkpt lat="45.98326" lon="6.2406">
        <ele>772</ele>
        <time>2016-08-27T06:15:34.000Z</time>
      </trkpt>
      <trkpt lat="45.98325" lon="6.2406">
        <ele>772</ele>
        <time>2016-08-27T06:15:35.000Z</time>
      </trkpt>
      <trkpt lat="45.98324" lon="6.2406">
        <ele>773</ele>
        <time>2016-08-27T06:15:36.000Z</time>
      </trkpt>
      <trkpt lat="45.98323" lon="6.2406">
        <ele>773</ele>
        <time>2016-08-27T06:15:37.000Z</time>
      </trkpt>
      <trkpt lat="45.98322" lon="6.2406">
        <ele>773</ele>
        <time>2016-08-27T06:15:38.000Z</time>
      </trkpt>
      <trkpt lat="45.98321" lon="6.24061">
        <ele>773</ele>
        <time>2016-08-27T06:15:39.000Z</time>
      </trkpt>
      <trkpt lat="45.98319" lon="6.2406">
        <ele>774</ele>
        <time>2016-08-27T06:15:40.000Z</time>
      </trkpt>
      <trkpt lat="45.98318" lon="6.2406">
        <ele>774</ele>
        <time>2016-08-27T06:15:41.000Z</time>
      </trkpt>
      <trkpt lat="45.98317" lon="6.2406">
        <ele>775</ele>
        <time>2016-08-27T06:15:42.000Z</time>
      </trkpt>
      <trkpt lat="45.98316" lon="6.2406">
        <ele>775</ele>
        <time>2016-08-27T06:15:43.000Z</time>
      </trkpt>
      <trkpt lat="45.98315" lon="6.2406">
        <ele>775</ele>
        <time>2016-08-27T06:15:44.000Z</time>
      </trkpt>
      <trkpt lat="45.98314" lon="6.2406">
        <ele>775</ele>
        <time>2016-08-27T06:15:45.000Z</time>
      </trkpt>
      <trkpt lat="45.98313" lon="6.2406">
        <ele>776</ele>
        <time>2016-08-27T06:15:46.000Z</time>
      </trkpt>
      <trkpt lat="45.98312" lon="6.2406">
        <ele>776</ele>
        <time>2016-08-27T06:15:47.000Z</time>
      </trkpt>
      <trkpt lat="45.98312" lon="6.2406">
        <ele>776</ele>
        <time>2016-08-27T06:15:48.000Z</time>
      </trkpt>
      <trkpt lat="45.9831" lon="6.24059">
        <ele>776</ele>
        <time>2016-08-27T06:15:49.000Z</time>
      </trkpt>
      <trkpt lat="45.9831" lon="6.24059">
        <ele>777</ele>
        <time>2016-08-27T06:15:50.000Z</time>
      </trkpt>
      <trkpt lat="45.98308" lon="6.24059">
        <ele>777</ele>
        <time>2016-08-27T06:15:51.000Z</time>
      </trkpt>
      <trkpt lat="45.98307" lon="6.24059">
        <ele>777</ele>
        <time>2016-08-27T06:15:52.000Z</time>
      </trkpt>
      <trkpt lat="45.98307" lon="6.24058">
        <ele>777</ele>
        <time>2016-08-27T06:15:53.000Z</time>
      </trkpt>
      <trkpt lat="45.98306" lon="6.24058">
        <ele>777</ele>
        <time>2016-08-27T06:15:54.000Z</time>
      </trkpt>
      <trkpt lat="45.98305" lon="6.24058">
        <ele>777</ele>
        <time>2016-08-27T06:15:55.000Z</time>
      </trkpt>
      <trkpt lat="45.98304" lon="6.24057">
        <ele>778</ele>
        <time>2016-08-27T06:15:56.000Z</time>
      </trkpt>
      <trkpt lat="45.98303" lon="6.24057">
        <ele>778</ele>
        <time>2016-08-27T06:15:57.000Z</time>
      </trkpt>
      <trkpt lat="45.98302" lon="6.24056">
        <ele>778</ele>
        <time>2016-08-27T06:15:58.000Z</time>
      </trkpt>
      <trkpt lat="45.98301" lon="6.24056">
        <ele>778</ele>
        <time>2016-08-27T06:15:59.000Z</time>
      </trkpt>
      <trkpt lat="45.983" lon="6.24055">
        <ele>779</ele>
        <time>2016-08-27T06:16:00.000Z</time>
      </trkpt>
      <trkpt lat="45.983" lon="6.24055">
        <ele>779</ele>
        <time>2016-08-27T06:16:01.000Z</time>
      </trkpt>
      <trkpt lat="45.98299" lon="6.24055">
        <ele>779</ele>
        <time>2016-08-27T06:16:02.000Z</time>
      </trkpt>
      <trkpt lat="45.98298" lon="6.24055">
        <ele>779</ele>
        <time>2016-08-27T06:16:03.000Z</time>
      </trkpt>
      <trkpt lat="45.98298" lon="6.24055">
        <ele>780</ele>
        <time>2016-08-27T06:16:04.000Z</time>
      </trkpt>
      <trkpt lat="45.98297" lon="6.24054">
        <ele>780</ele>
        <time>2016-08-27T06:16:05.000Z</time>
      </trkpt>
      <trkpt lat="45.98296" lon="6.24055">
        <ele>780</ele>
        <time>2016-08-27T06:16:06.000Z</time>
      </trkpt>
      <trkpt lat="45.98296" lon="6.24055">
        <ele>780</ele>
        <time>2016-08-27T06:16:07.000Z</time>
      </trkpt>
      <trkpt lat="45.98295" lon="6.24055">
        <ele>781</ele>
        <time>2016-08-27T06:16:08.000Z</time>
      </trkpt>
      <trkpt lat="45.98294" lon="6.24056">
        <ele>781</ele>
        <time>2016-08-27T06:16:09.000Z</time>
      </trkpt>
      <trkpt lat="45.98294" lon="6.24056">
        <ele>782</ele>
        <time>2016-08-27T06:16:10.000Z</time>
      </trkpt>
      <trkpt lat="45.98293" lon="6.24056">
        <ele>782</ele>
        <time>2016-08-27T06:16:11.000Z</time>
      </trkpt>
      <trkpt lat="45.98292" lon="6.24056">
        <ele>782</ele>
        <time>2016-08-27T06:16:12.000Z</time>
      </trkpt>
      <trkpt lat="45.98292" lon="6.24056">
        <ele>782</ele>
        <time>2016-08-27T06:16:13.000Z</time>
      </trkpt>
      <trkpt lat="45.9829" lon="6.24057">
        <ele>783</ele>
        <time>2016-08-27T06:16:14.000Z</time>
      </trkpt>
      <trkpt lat="45.98289" lon="6.24058">
        <ele>783</ele>
        <time>2016-08-27T06:16:15.000Z</time>
      </trkpt>
      <trkpt lat="45.98288" lon="6.24058">
        <ele>783</ele>
        <time>2016-08-27T06:16:16.000Z</time>
      </trkpt>
      <trkpt lat="45.98287" lon="6.24059">
        <ele>783</ele>
        <time>2016-08-27T06:16:17.000Z</time>
      </trkpt>
      <trkpt lat="45.98286" lon="6.2406">
        <ele>784</ele>
        <time>2016-08-27T06:16:18.000Z</time>
      </trkpt>
      <trkpt lat="45.98285" lon="6.2406">
        <ele>784</ele>
        <time>2016-08-27T06:16:19.000Z</time>
      </trkpt>
      <trkpt lat="45.98284" lon="6.24061">
        <ele>784</ele>
        <time>2016-08-27T06:16:20.000Z</time>
      </trkpt>
      <trkpt lat="45.98283" lon="6.24061">
        <ele>784</ele>
        <time>2016-08-27T06:16:21.000Z</time>
      </trkpt>
      <trkpt lat="45.98282" lon="6.24061">
        <ele>785</ele>
        <time>2016-08-27T06:16:22.000Z</time>
      </trkpt>
      <trkpt lat="45.98281" lon="6.24061">
        <ele>785</ele>
        <time>2016-08-27T06:16:23.000Z</time>
      </trkpt>
      <trkpt lat="45.9828" lon="6.24061">
        <ele>785</ele>
        <time>2016-08-27T06:16:24.000Z</time>
      </trkpt>
      <trkpt lat="45.98279" lon="6.24061">
        <ele>785</ele>
        <time>2016-08-27T06:16:25.000Z</time>
      </trkpt>
      <trkpt lat="45.98278" lon="6.24061">
        <ele>786</ele>
        <time>2016-08-27T06:16:26.000Z</time>
      </trkpt>
      <trkpt lat="45.98277" lon="6.24061">
        <ele>786</ele>
        <time>2016-08-27T06:16:27.000Z</time>
      </trkpt>
      <trkpt lat="45.98276" lon="6.24062">
        <ele>786</ele>
        <time>2016-08-27T06:16:28.000Z</time>
      </trkpt>
      <trkpt lat="45.98275" lon="6.24062">
        <ele>786</ele>
        <time>2016-08-27T06:16:29.000Z</time>
      </trkpt>
      <trkpt lat="45.98273" lon="6.24061">
        <ele>786</ele>
        <time>2016-08-27T06:16:30.000Z</time>
      </trkpt>
      <trkpt lat="45.98272" lon="6.24062">
        <ele>786</ele>
        <time>2016-08-27T06:16:31.000Z</time>
      </trkpt>
      <trkpt lat="45.98271" lon="6.24062">
        <ele>787</ele>
        <time>2016-08-27T06:16:32.000Z</time>
      </trkpt>
      <trkpt lat="45.9827" lon="6.24062">
        <ele>787</ele>
        <time>2016-08-27T06:16:33.000Z</time>
      </trkpt>
      <trkpt lat="45.98268" lon="6.24063">
        <ele>787</ele>
        <time>2016-08-27T06:16:34.000Z</time>
      </trkpt>
      <trkpt lat="45.98267" lon="6.24063">
        <ele>787</ele>
        <time>2016-08-27T06:16:35.000Z</time>
      </trkpt>
      <trkpt lat="45.98266" lon="6.24063">
        <ele>787</ele>
        <time>2016-08-27T06:16:36.000Z</time>
      </trkpt>
      <trkpt lat="45.98265" lon="6.24063">
        <ele>787</ele>
        <time>2016-08-27T06:16:37.000Z</time>
      </trkpt>
      <trkpt lat="45.98264" lon="6.24064">
        <ele>788</ele>
        <time>2016-08-27T06:16:38.000Z</time>
      </trkpt>
      <trkpt lat="45.98263" lon="6.24064">
        <ele>788</ele>
        <time>2016-08-27T06:16:39.000Z</time>
      </trkpt>
      <trkpt lat="45.98262" lon="6.24064">
        <ele>788</ele>
        <time>2016-08-27T06:16:40.000Z</time>
      </trkpt>
      <trkpt lat="45.98261" lon="6.24065">
        <ele>788</ele>
        <time>2016-08-27T06:16:41.000Z</time>
      </trkpt>
      <trkpt lat="45.9826" lon="6.24066">
        <ele>789</ele>
        <time>2016-08-27T06:16:42.000Z</time>
      </trkpt>
      <trkpt lat="45.98259" lon="6.24066">
        <ele>789</ele>
        <time>2016-08-27T06:16:43.000Z</time>
      </trkpt>
      <trkpt lat="45.98258" lon="6.24067">
        <ele>789</ele>
        <time>2016-08-27T06:16:44.000Z</time>
      </trkpt>
      <trkpt lat="45.98257" lon="6.24068">
        <ele>789</ele>
        <time>2016-08-27T06:16:45.000Z</time>
      </trkpt>
      <trkpt lat="45.98257" lon="6.24068">
        <ele>789</ele>
        <time>2016-08-27T06:16:46.000Z</time>
      </trkpt>
      <trkpt lat="45.98256" lon="6.24069">
        <ele>789</ele>
        <time>2016-08-27T06:16:47.000Z</time>
      </trkpt>
      <trkpt lat="45.98255" lon="6.24069">
        <ele>790</ele>
        <time>2016-08-27T06:16:48.000Z</time>
      </trkpt>
      <trkpt lat="45.98254" lon="6.2407">
        <ele>790</ele>
        <time>2016-08-27T06:16:49.000Z</time>
      </trkpt>
      <trkpt lat="45.98253" lon="6.24071">
        <ele>790</ele>
        <time>2016-08-27T06:16:50.000Z</time>
      </trkpt>
      <trkpt lat="45.98252" lon="6.24071">
        <ele>790</ele>
        <time>2016-08-27T06:16:51.000Z</time>
      </trkpt>
      <trkpt lat="45.98251" lon="6.24072">
        <ele>790</ele>
        <time>2016-08-27T06:16:52.000Z</time>
      </trkpt>
      <trkpt lat="45.9825" lon="6.24074">
        <ele>790</ele>
        <time>2016-08-27T06:16:53.000Z</time>
      </trkpt>
      <trkpt lat="45.98249" lon="6.24075">
        <ele>791</ele>
        <time>2016-08-27T06:16:54.000Z</time>
      </trkpt>
      <trkpt lat="45.98248" lon="6.24076">
        <ele>791</ele>
        <time>2016-08-27T06:16:55.000Z</time>
      </trkpt>
      <trkpt lat="45.98247" lon="6.24077">
        <ele>792</ele>
        <time>2016-08-27T06:16:56.000Z</time>
      </trkpt>
      <trkpt lat="45.98246" lon="6.24077">
        <ele>792</ele>
        <time>2016-08-27T06:16:57.000Z</time>
      </trkpt>
      <trkpt lat="45.98244" lon="6.24078">
        <ele>792</ele>
        <time>2016-08-27T06:16:58.000Z</time>
      </trkpt>
      <trkpt lat="45.98243" lon="6.24079">
        <ele>792</ele>
        <time>2016-08-27T06:16:59.000Z</time>
      </trkpt>
      <trkpt lat="45.98242" lon="6.24079">
        <ele>793</ele>
        <time>2016-08-27T06:17:00.000Z</time>
      </trkpt>
      <trkpt lat="45.98241" lon="6.2408">
        <ele>793</ele>
        <time>2016-08-27T06:17:01.000Z</time>
      </trkpt>
      <trkpt lat="45.9824" lon="6.2408">
        <ele>794</ele>
        <time>2016-08-27T06:17:02.000Z</time>
      </trkpt>
      <trkpt lat="45.98239" lon="6.24081">
        <ele>794</ele>
        <time>2016-08-27T06:17:03.000Z</time>
      </trkpt>
      <trkpt lat="45.98238" lon="6.24082">
        <ele>794</ele>
        <time>2016-08-27T06:17:04.000Z</time>
      </trkpt>
      <trkpt lat="45.98237" lon="6.24083">
        <ele>794</ele>
        <time>2016-08-27T06:17:05.000Z</time>
      </trkpt>
      <trkpt lat="45.98236" lon="6.24083">
        <ele>795</ele>
        <time>2016-08-27T06:17:06.000Z</time>
      </trkpt>
      <trkpt lat="45.98235" lon="6.24084">
        <ele>795</ele>
        <time>2016-08-27T06:17:07.000Z</time>
      </trkpt>
      <trkpt lat="45.98234" lon="6.24085">
        <ele>795</ele>
        <time>2016-08-27T06:17:08.000Z</time>
      </trkpt>
      <trkpt lat="45.98233" lon="6.24086">
        <ele>795</ele>
        <time>2016-08-27T06:17:09.000Z</time>
      </trkpt>
      <trkpt lat="45.98231" lon="6.24087">
        <ele>796</ele>
        <time>2016-08-27T06:17:10.000Z</time>
      </trkpt>
      <trkpt lat="45.9823" lon="6.24087">
        <ele>796</ele>
        <time>2016-08-27T06:17:11.000Z</time>
      </trkpt>
      <trkpt lat="45.98229" lon="6.24089">
        <ele>797</ele>
        <time>2016-08-27T06:17:12.000Z</time>
      </trkpt>
      <trkpt lat="45.98228" lon="6.2409">
        <ele>797</ele>
        <time>2016-08-27T06:17:13.000Z</time>
      </trkpt>
      <trkpt lat="45.98228" lon="6.2409">
        <ele>797</ele>
        <time>2016-08-27T06:17:14.000Z</time>
      </trkpt>
      <trkpt lat="45.98227" lon="6.24091">
        <ele>797</ele>
        <time>2016-08-27T06:17:15.000Z</time>
      </trkpt>
      <trkpt lat="45.98226" lon="6.24092">
        <ele>798</ele>
        <time>2016-08-27T06:17:16.000Z</time>
      </trkpt>
      <trkpt lat="45.98225" lon="6.24093">
        <ele>798</ele>
        <time>2016-08-27T06:17:17.000Z</time>
      </trkpt>
      <trkpt lat="45.98224" lon="6.24094">
        <ele>799</ele>
        <time>2016-08-27T06:17:18.000Z</time>
      </trkpt>
      <trkpt lat="45.98223" lon="6.24095">
        <ele>799</ele>
        <time>2016-08-27T06:17:19.000Z</time>
      </trkpt>
      <trkpt lat="45.98223" lon="6.24096">
        <ele>800</ele>
        <time>2016-08-27T06:17:20.000Z</time>
      </trkpt>
      <trkpt lat="45.98222" lon="6.24097">
        <ele>800</ele>
        <time>2016-08-27T06:17:21.000Z</time>
      </trkpt>
      <trkpt lat="45.98222" lon="6.24098">
        <ele>801</ele>
        <time>2016-08-27T06:17:22.000Z</time>
      </trkpt>
      <trkpt lat="45.98221" lon="6.24099">
        <ele>801</ele>
        <time>2016-08-27T06:17:23.000Z</time>
      </trkpt>
      <trkpt lat="45.98221" lon="6.241">
        <ele>802</ele>
        <time>2016-08-27T06:17:24.000Z</time>
      </trkpt>
      <trkpt lat="45.9822" lon="6.24102">
        <ele>802</ele>
        <time>2016-08-27T06:17:25.000Z</time>
      </trkpt>
      <trkpt lat="45.98219" lon="6.24103">
        <ele>803</ele>
        <time>2016-08-27T06:17:26.000Z</time>
      </trkpt>
      <trkpt lat="45.98219" lon="6.24105">
        <ele>803</ele>
        <time>2016-08-27T06:17:27.000Z</time>
      </trkpt>
      <trkpt lat="45.98218" lon="6.24106">
        <ele>804</ele>
        <time>2016-08-27T06:17:28.000Z</time>
      </trkpt>
      <trkpt lat="45.98218" lon="6.24108">
        <ele>804</ele>
        <time>2016-08-27T06:17:29.000Z</time>
      </trkpt>
      <trkpt lat="45.98217" lon="6.24109">
        <ele>805</ele>
        <time>2016-08-27T06:17:30.000Z</time>
      </trkpt>
      <trkpt lat="45.98217" lon="6.2411">
        <ele>805</ele>
        <time>2016-08-27T06:17:31.000Z</time>
      </trkpt>
      <trkpt lat="45.98216" lon="6.24112">
        <ele>806</ele>
        <time>2016-08-27T06:17:32.000Z</time>
      </trkpt>
      <trkpt lat="45.98215" lon="6.24114">
        <ele>806</ele>
        <time>2016-08-27T06:17:33.000Z</time>
      </trkpt>
      <trkpt lat="45.98215" lon="6.24116">
        <ele>807</ele>
        <time>2016-08-27T06:17:34.000Z</time>
      </trkpt>
      <trkpt lat="45.98214" lon="6.24117">
        <ele>807</ele>
        <time>2016-08-27T06:17:35.000Z</time>
      </trkpt>
      <trkpt lat="45.98214" lon="6.24118">
        <ele>808</ele>
        <time>2016-08-27T06:17:36.000Z</time>
      </trkpt>
      <trkpt lat="45.98213" lon="6.2412">
        <ele>808</ele>
        <time>2016-08-27T06:17:37.000Z</time>
      </trkpt>
      <trkpt lat="45.98213" lon="6.24121">
        <ele>809</ele>
        <time>2016-08-27T06:17:38.000Z</time>
      </trkpt>
      <trkpt lat="45.98212" lon="6.24122">
        <ele>809</ele>
        <time>2016-08-27T06:17:39.000Z</time>
      </trkpt>
      <trkpt lat="45.98212" lon="6.24123">
        <ele>810</ele>
        <time>2016-08-27T06:17:40.000Z</time>
      </trkpt>
      <trkpt lat="45.98212" lon="6.24124">
        <ele>810</ele>
        <time>2016-08-27T06:17:41.000Z</time>
      </trkpt>
      <trkpt lat="45.98212" lon="6.24124">
        <ele>812</ele>
        <time>2016-08-27T06:17:42.000Z</time>
      </trkpt>
      <trkpt lat="45.98211" lon="6.24125">
        <ele>812</ele>
        <time>2016-08-27T06:17:43.000Z</time>
      </trkpt>
      <trkpt lat="45.98211" lon="6.24126">
        <ele>813</ele>
        <time>2016-08-27T06:17:44.000Z</time>
      </trkpt>
      <trkpt lat="45.98211" lon="6.24126">
        <ele>813</ele>
        <time>2016-08-27T06:17:45.000Z</time>
      </trkpt>
      <trkpt lat="45.98211" lon="6.24127">
        <ele>814</ele>
        <time>2016-08-27T06:17:46.000Z</time>
      </trkpt>
      <trkpt lat="45.98211" lon="6.24127">
        <ele>814</ele>
        <time>2016-08-27T06:17:47.000Z</time>
      </trkpt>
      <trkpt lat="45.9821" lon="6.24128">
        <ele>815</ele>
        <time>2016-08-27T06:17:48.000Z</time>
      </trkpt>
      <trkpt lat="45.9821" lon="6.24128">
        <ele>815</ele>
        <time>2016-08-27T06:17:49.000Z</time>
      </trkpt>
      <trkpt lat="45.9821" lon="6.24129">
        <ele>816</ele>
        <time>2016-08-27T06:17:50.000Z</time>
      </trkpt>
      <trkpt lat="45.98209" lon="6.2413">
        <ele>816</ele>
        <time>2016-08-27T06:17:51.000Z</time>
      </trkpt>
      <trkpt lat="45.98209" lon="6.2413">
        <ele>817</ele>
        <time>2016-08-27T06:17:52.000Z</time>
      </trkpt>
      <trkpt lat="45.98208" lon="6.24131">
        <ele>817</ele>
        <time>2016-08-27T06:17:53.000Z</time>
      </trkpt>
      <trkpt lat="45.98208" lon="6.24131">
        <ele>818</ele>
        <time>2016-08-27T06:17:54.000Z</time>
      </trkpt>
      <trkpt lat="45.98207" lon="6.24131">
        <ele>818</ele>
        <time>2016-08-27T06:17:55.000Z</time>
      </trkpt>
      <trkpt lat="45.98207" lon="6.24132">
        <ele>819</ele>
        <time>2016-08-27T06:17:56.000Z</time>
      </trkpt>
      <trkpt lat="45.98206" lon="6.24132">
        <ele>819</ele>
        <time>2016-08-27T06:17:57.000Z</time>
      </trkpt>
      <trkpt lat="45.98206" lon="6.24133">
        <ele>820</ele>
        <time>2016-08-27T06:17:58.000Z</time>
      </trkpt>
      <trkpt lat="45.98205" lon="6.24134">
        <ele>820</ele>
        <time>2016-08-27T06:17:59.000Z</time>
      </trkpt>
      <trkpt lat="45.98204" lon="6.24134">
        <ele>821</ele>
        <time>2016-08-27T06:18:00.000Z</time>
      </trkpt>
      <trkpt lat="45.98204" lon="6.24135">
        <ele>821</ele>
        <time>2016-08-27T06:18:01.000Z</time>
      </trkpt>
      <trkpt lat="45.98203" lon="6.24135">
        <ele>822</ele>
        <time>2016-08-27T06:18:02.000Z</time>
      </trkpt>
      <trkpt lat="45.98203" lon="6.24136">
        <ele>822</ele>
        <time>2016-08-27T06:18:03.000Z</time>
      </trkpt>
      <trkpt lat="45.98202" lon="6.24136">
        <ele>823</ele>
        <time>2016-08-27T06:18:04.000Z</time>
      </trkpt>
      <trkpt lat="45.98202" lon="6.24137">
        <ele>823</ele>
        <time>2016-08-27T06:18:05.000Z</time>
      </trkpt>
      <trkpt lat="45.98201" lon="6.24137">
        <ele>824</ele>
        <time>2016-08-27T06:18:06.000Z</time>
      </trkpt>
      <trkpt lat="45.98201" lon="6.24137">
        <ele>824</ele>
        <time>2016-08-27T06:18:07.000Z</time>
      </trkpt>
      <trkpt lat="45.982" lon="6.24138">
        <ele>825</ele>
        <time>2016-08-27T06:18:08.000Z</time>
      </trkpt>
      <trkpt lat="45.982" lon="6.24138">
        <ele>825</ele>
        <time>2016-08-27T06:18:09.000Z</time>
      </trkpt>
      <trkpt lat="45.982" lon="6.24139">
        <ele>826</ele>
        <time>2016-08-27T06:18:10.000Z</time>
      </trkpt>
      <trkpt lat="45.98199" lon="6.2414">
        <ele>826</ele>
        <time>2016-08-27T06:18:11.000Z</time>
      </trkpt>
      <trkpt lat="45.98199" lon="6.24141">
        <ele>827</ele>
        <time>2016-08-27T06:18:12.000Z</time>
      </trkpt>
      <trkpt lat="45.98198" lon="6.24142">
        <ele>827</ele>
        <time>2016-08-27T06:18:13.000Z</time>
      </trkpt>
      <trkpt lat="45.98197" lon="6.24143">
        <ele>828</ele>
        <time>2016-08-27T06:18:14.000Z</time>
      </trkpt>
      <trkpt lat="45.98197" lon="6.24144">
        <ele>828</ele>
        <time>2016-08-27T06:18:15.000Z</time>
      </trkpt>
      <trkpt lat="45.98196" lon="6.24144">
        <ele>828</ele>
        <time>2016-08-27T06:18:16.000Z</time>
      </trkpt>
      <trkpt lat="45.98195" lon="6.24145">
        <ele>828</ele>
        <time>2016-08-27T06:18:17.000Z</time>
      </trkpt>
      <trkpt lat="45.98195" lon="6.24146">
        <ele>829</ele>
        <time>2016-08-27T06:18:18.000Z</time>
      </trkpt>
      <trkpt lat="45.98194" lon="6.24147">
        <ele>829</ele>
        <time>2016-08-27T06:18:19.000Z</time>
      </trkpt>
      <trkpt lat="45.98194" lon="6.24147">
        <ele>830</ele>
        <time>2016-08-27T06:18:20.000Z</time>
      </trkpt>
      <trkpt lat="45.98193" lon="6.24148">
        <ele>830</ele>
        <time>2016-08-27T06:18:21.000Z</time>
      </trkpt>
      <trkpt lat="45.98193" lon="6.24149">
        <ele>831</ele>
        <time>2016-08-27T06:18:22.000Z</time>
      </trkpt>
      <trkpt lat="45.98192" lon="6.2415">
        <ele>831</ele>
        <time>2016-08-27T06:18:23.000Z</time>
      </trkpt>
      <trkpt lat="45.98192" lon="6.24151">
        <ele>831</ele>
        <time>2016-08-27T06:18:24.000Z</time>
      </trkpt>
      <trkpt lat="45.98191" lon="6.24152">
        <ele>831</ele>
        <time>2016-08-27T06:18:25.000Z</time>
      </trkpt>
      <trkpt lat="45.98191" lon="6.24153">
        <ele>832</ele>
        <time>2016-08-27T06:18:26.000Z</time>
      </trkpt>
      <trkpt lat="45.9819" lon="6.24154">
        <ele>832</ele>
        <time>2016-08-27T06:18:27.000Z</time>
      </trkpt>
      <trkpt lat="45.98189" lon="6.24155">
        <ele>833</ele>
        <time>2016-08-27T06:18:28.000Z</time>
      </trkpt>
      <trkpt lat="45.98188" lon="6.24155">
        <ele>833</ele>
        <time>2016-08-27T06:18:29.000Z</time>
      </trkpt>
      <trkpt lat="45.98187" lon="6.24155">
        <ele>833</ele>
        <time>2016-08-27T06:18:30.000Z</time>
      </trkpt>
      <trkpt lat="45.98185" lon="6.24154">
        <ele>833</ele>
        <time>2016-08-27T06:18:31.000Z</time>
      </trkpt>
      <trkpt lat="45.98184" lon="6.24154">
        <ele>833</ele>
        <time>2016-08-27T06:18:32.000Z</time>
      </trkpt>
      <trkpt lat="45.98183" lon="6.24153">
        <ele>833</ele>
        <time>2016-08-27T06:18:33.000Z</time>
      </trkpt>
      <trkpt lat="45.98182" lon="6.24152">
        <ele>834</ele>
        <time>2016-08-27T06:18:34.000Z</time>
      </trkpt>
      <trkpt lat="45.98182" lon="6.24151">
        <ele>834</ele>
        <time>2016-08-27T06:18:35.000Z</time>
      </trkpt>
      <trkpt lat="45.98181" lon="6.2415">
        <ele>834</ele>
        <time>2016-08-27T06:18:36.000Z</time>
      </trkpt>
      <trkpt lat="45.9818" lon="6.24149">
        <ele>834</ele>
        <time>2016-08-27T06:18:37.000Z</time>
      </trkpt>
      <trkpt lat="45.9818" lon="6.24148">
        <ele>835</ele>
        <time>2016-08-27T06:18:38.000Z</time>
      </trkpt>
      <trkpt lat="45.98179" lon="6.24147">
        <ele>835</ele>
        <time>2016-08-27T06:18:39.000Z</time>
      </trkpt>
      <trkpt lat="45.98178" lon="6.24147">
        <ele>835</ele>
        <time>2016-08-27T06:18:40.000Z</time>
      </trkpt>
      <trkpt lat="45.98177" lon="6.24146">
        <ele>835</ele>
        <time>2016-08-27T06:18:41.000Z</time>
      </trkpt>
      <trkpt lat="45.98177" lon="6.24145">
        <ele>835</ele>
        <time>2016-08-27T06:18:42.000Z</time>
      </trkpt>
      <trkpt lat="45.98176" lon="6.24145">
        <ele>835</ele>
        <time>2016-08-27T06:18:43.000Z</time>
      </trkpt>
      <trkpt lat="45.98175" lon="6.24143">
        <ele>835</ele>
        <time>2016-08-27T06:18:44.000Z</time>
      </trkpt>
      <trkpt lat="45.98174" lon="6.24142">
        <ele>835</ele>
        <time>2016-08-27T06:18:45.000Z</time>
      </trkpt>
      <trkpt lat="45.98173" lon="6.2414">
        <ele>835</ele>
        <time>2016-08-27T06:18:46.000Z</time>
      </trkpt>
      <trkpt lat="45.98172" lon="6.24139">
        <ele>835</ele>
        <time>2016-08-27T06:18:47.000Z</time>
      </trkpt>
      <trkpt lat="45.98171" lon="6.24138">
        <ele>835</ele>
        <time>2016-08-27T06:18:48.000Z</time>
      </trkpt>
      <trkpt lat="45.9817" lon="6.24137">
        <ele>835</ele>
        <time>2016-08-27T06:18:49.000Z</time>
      </trkpt>
      <trkpt lat="45.98169" lon="6.24136">
        <ele>836</ele>
        <time>2016-08-27T06:18:50.000Z</time>
      </trkpt>
      <trkpt lat="45.98168" lon="6.24135">
        <ele>836</ele>
        <time>2016-08-27T06:18:51.000Z</time>
      </trkpt>
      <trkpt lat="45.98167" lon="6.24134">
        <ele>836</ele>
        <time>2016-08-27T06:18:52.000Z</time>
      </trkpt>
      <trkpt lat="45.98166" lon="6.24133">
        <ele>836</ele>
        <time>2016-08-27T06:18:53.000Z</time>
      </trkpt>
      <trkpt lat="45.98165" lon="6.24132">
        <ele>836</ele>
        <time>2016-08-27T06:18:54.000Z</time>
      </trkpt>
      <trkpt lat="45.98163" lon="6.24131">
        <ele>836</ele>
        <time>2016-08-27T06:18:55.000Z</time>
      </trkpt>
      <trkpt lat="45.98162" lon="6.24131">
        <ele>836</ele>
        <time>2016-08-27T06:18:56.000Z</time>
      </trkpt>
      <trkpt lat="45.98161" lon="6.24131">
        <ele>836</ele>
        <time>2016-08-27T06:18:57.000Z</time>
      </trkpt>
      <trkpt lat="45.9816" lon="6.24131">
        <ele>836</ele>
        <time>2016-08-27T06:18:58.000Z</time>
      </trkpt>
      <trkpt lat="45.98159" lon="6.24131">
        <ele>836</ele>
        <time>2016-08-27T06:18:59.000Z</time>
      </trkpt>
      <trkpt lat="45.98158" lon="6.2413">
        <ele>836</ele>
        <time>2016-08-27T06:19:00.000Z</time>
      </trkpt>
      <trkpt lat="45.98157" lon="6.2413">
        <ele>836</ele>
        <time>2016-08-27T06:19:01.000Z</time>
      </trkpt>
      <trkpt lat="45.98156" lon="6.2413">
        <ele>837</ele>
        <time>2016-08-27T06:19:02.000Z</time>
      </trkpt>
      <trkpt lat="45.98155" lon="6.2413">
        <ele>837</ele>
        <time>2016-08-27T06:19:03.000Z</time>
      </trkpt>
      <trkpt lat="45.98154" lon="6.24129">
        <ele>837</ele>
        <time>2016-08-27T06:19:04.000Z</time>
      </trkpt>
      <trkpt lat="45.98153" lon="6.24128">
        <ele>837</ele>
        <time>2016-08-27T06:19:05.000Z</time>
      </trkpt>
      <trkpt lat="45.98153" lon="6.24127">
        <ele>837</ele>
        <time>2016-08-27T06:19:06.000Z</time>
      </trkpt>
      <trkpt lat="45.98152" lon="6.24126">
        <ele>837</ele>
        <time>2016-08-27T06:19:07.000Z</time>
      </trkpt>
      <trkpt lat="45.98151" lon="6.24125">
        <ele>837</ele>
        <time>2016-08-27T06:19:08.000Z</time>
      </trkpt>
      <trkpt lat="45.98151" lon="6.24124">
        <ele>837</ele>
        <time>2016-08-27T06:19:09.000Z</time>
      </trkpt>
      <trkpt lat="45.9815" lon="6.24123">
        <ele>837</ele>
        <time>2016-08-27T06:19:10.000Z</time>
      </trkpt>
      <trkpt lat="45.98149" lon="6.24122">
        <ele>837</ele>
        <time>2016-08-27T06:19:11.000Z</time>
      </trkpt>
      <trkpt lat="45.98149" lon="6.2412">
        <ele>837</ele>
        <time>2016-08-27T06:19:12.000Z</time>
      </trkpt>
      <trkpt lat="45.98148" lon="6.24119">
        <ele>837</ele>
        <time>2016-08-27T06:19:13.000Z</time>
      </trkpt>
      <trkpt lat="45.98148" lon="6.24118">
        <ele>838</ele>
        <time>2016-08-27T06:19:14.000Z</time>
      </trkpt>
      <trkpt lat="45.98147" lon="6.24116">
        <ele>838</ele>
        <time>2016-08-27T06:19:15.000Z</time>
      </trkpt>
      <trkpt lat="45.98147" lon="6.24115">
        <ele>838</ele>
        <time>2016-08-27T06:19:16.000Z</time>
      </trkpt>
      <trkpt lat="45.98147" lon="6.24114">
        <ele>838</ele>
        <time>2016-08-27T06:19:17.000Z</time>
      </trkpt>
      <trkpt lat="45.98147" lon="6.24113">
        <ele>838</ele>
        <time>2016-08-27T06:19:18.000Z</time>
      </trkpt>
      <trkpt lat="45.98146" lon="6.24112">
        <ele>838</ele>
        <time>2016-08-27T06:19:19.000Z</time>
      </trkpt>
      <trkpt lat="45.98146" lon="6.24111">
        <ele>838</ele>
        <time>2016-08-27T06:19:20.000Z</time>
      </trkpt>
      <trkpt lat="45.98145" lon="6.2411">
        <ele>838</ele>
        <time>2016-08-27T06:19:21.000Z</time>
      </trkpt>
      <trkpt lat="45.98144" lon="6.24109">
        <ele>838</ele>
        <time>2016-08-27T06:19:22.000Z</time>
      </trkpt>
      <trkpt lat="45.98143" lon="6.24108">
        <ele>838</ele>
        <time>2016-08-27T06:19:23.000Z</time>
      </trkpt>
      <trkpt lat="45.98142" lon="6.24107">
        <ele>838</ele>
        <time>2016-08-27T06:19:24.000Z</time>
      </trkpt>
      <trkpt lat="45.98142" lon="6.24107">
        <ele>838</ele>
        <time>2016-08-27T06:19:25.000Z</time>
      </trkpt>
      <trkpt lat="45.98141" lon="6.24106">
        <ele>838</ele>
        <time>2016-08-27T06:19:26.000Z</time>
      </trkpt>
      <trkpt lat="45.9814" lon="6.24106">
        <ele>838</ele>
        <time>2016-08-27T06:19:27.000Z</time>
      </trkpt>
      <trkpt lat="45.9814" lon="6.24106">
        <ele>838</ele>
        <time>2016-08-27T06:19:28.000Z</time>
      </trkpt>
      <trkpt lat="45.98139" lon="6.24105">
        <ele>838</ele>
        <time>2016-08-27T06:19:29.000Z</time>
      </trkpt>
      <trkpt lat="45.98138" lon="6.24105">
        <ele>838</ele>
        <time>2016-08-27T06:19:30.000Z</time>
      </trkpt>
      <trkpt lat="45.98137" lon="6.24105">
        <ele>838</ele>
        <time>2016-08-27T06:19:31.000Z</time>
      </trkpt>
      <trkpt lat="45.98136" lon="6.24105">
        <ele>838</ele>
        <time>2016-08-27T06:19:32.000Z</time>
      </trkpt>
      <trkpt lat="45.98136" lon="6.24105">
        <ele>838</ele>
        <time>2016-08-27T06:19:33.000Z</time>
      </trkpt>
      <trkpt lat="45.98135" lon="6.24105">
        <ele>838</ele>
        <time>2016-08-27T06:19:34.000Z</time>
      </trkpt>
      <trkpt lat="45.98134" lon="6.24105">
        <ele>838</ele>
        <time>2016-08-27T06:19:35.000Z</time>
      </trkpt>
      <trkpt lat="45.98133" lon="6.24105">
        <ele>838</ele>
        <time>2016-08-27T06:19:36.000Z</time>
      </trkpt>
      <trkpt lat="45.98132" lon="6.24105">
        <ele>838</ele>
        <time>2016-08-27T06:19:37.000Z</time>
      </trkpt>
      <trkpt lat="45.98131" lon="6.24105">
        <ele>838</ele>
        <time>2016-08-27T06:19:38.000Z</time>
      </trkpt>
      <trkpt lat="45.9813" lon="6.24105">
        <ele>838</ele>
        <time>2016-08-27T06:19:39.000Z</time>
      </trkpt>
      <trkpt lat="45.98129" lon="6.24105">
        <ele>838</ele>
        <time>2016-08-27T06:19:40.000Z</time>
      </trkpt>
      <trkpt lat="45.98128" lon="6.24106">
        <ele>838</ele>
        <time>2016-08-27T06:19:41.000Z</time>
      </trkpt>
      <trkpt lat="45.98127" lon="6.24106">
        <ele>838</ele>
        <time>2016-08-27T06:19:42.000Z</time>
      </trkpt>
      <trkpt lat="45.98126" lon="6.24106">
        <ele>838</ele>
        <time>2016-08-27T06:19:43.000Z</time>
      </trkpt>
      <trkpt lat="45.98125" lon="6.24106">
        <ele>838</ele>
        <time>2016-08-27T06:19:44.000Z</time>
      </trkpt>
      <trkpt lat="45.98124" lon="6.24107">
        <ele>838</ele>
        <time>2016-08-27T06:19:45.000Z</time>
      </trkpt>
      <trkpt lat="45.98123" lon="6.24107">
        <ele>838</ele>
        <time>2016-08-27T06:19:46.000Z</time>
      </trkpt>
      <trkpt lat="45.98122" lon="6.24107">
        <ele>838</ele>
        <time>2016-08-27T06:19:47.000Z</time>
      </trkpt>
      <trkpt lat="45.98121" lon="6.24108">
        <ele>839</ele>
        <time>2016-08-27T06:19:48.000Z</time>
      </trkpt>
      <trkpt lat="45.9812" lon="6.24108">
        <ele>839</ele>
        <time>2016-08-27T06:19:49.000Z</time>
      </trkpt>
      <trkpt lat="45.98119" lon="6.24108">
        <ele>839</ele>
        <time>2016-08-27T06:19:50.000Z</time>
      </trkpt>
      <trkpt lat="45.98118" lon="6.24109">
        <ele>839</ele>
        <time>2016-08-27T06:19:51.000Z</time>
      </trkpt>
      <trkpt lat="45.98117" lon="6.24109">
        <ele>839</ele>
        <time>2016-08-27T06:19:52.000Z</time>
      </trkpt>
      <trkpt lat="45.98116" lon="6.2411">
        <ele>839</ele>
        <time>2016-08-27T06:19:53.000Z</time>
      </trkpt>
      <trkpt lat="45.98115" lon="6.2411">
        <ele>840</ele>
        <time>2016-08-27T06:19:54.000Z</time>
      </trkpt>
      <trkpt lat="45.98114" lon="6.2411">
        <ele>840</ele>
        <time>2016-08-27T06:19:55.000Z</time>
      </trkpt>
      <trkpt lat="45.98113" lon="6.24111">
        <ele>840</ele>
        <time>2016-08-27T06:19:56.000Z</time>
      </trkpt>
      <trkpt lat="45.98112" lon="6.24111">
        <ele>840</ele>
        <time>2016-08-27T06:19:57.000Z</time>
      </trkpt>
      <trkpt lat="45.98111" lon="6.24112">
        <ele>840</ele>
        <time>2016-08-27T06:19:58.000Z</time>
      </trkpt>
      <trkpt lat="45.98109" lon="6.24112">
        <ele>840</ele>
        <time>2016-08-27T06:19:59.000Z</time>
      </trkpt>
      <trkpt lat="45.98108" lon="6.24113">
        <ele>840</ele>
        <time>2016-08-27T06:20:00.000Z</time>
      </trkpt>
      <trkpt lat="45.98108" lon="6.24113">
        <ele>840</ele>
        <time>2016-08-27T06:20:01.000Z</time>
      </trkpt>
      <trkpt lat="45.98107" lon="6.24114">
        <ele>840</ele>
        <time>2016-08-27T06:20:02.000Z</time>
      </trkpt>
      <trkpt lat="45.98106" lon="6.24115">
        <ele>840</ele>
        <time>2016-08-27T06:20:03.000Z</time>
      </trkpt>
      <trkpt lat="45.98105" lon="6.24116">
        <ele>840</ele>
        <time>2016-08-27T06:20:04.000Z</time>
      </trkpt>
      <trkpt lat="45.98104" lon="6.24116">
        <ele>840</ele>
        <time>2016-08-27T06:20:05.000Z</time>
      </trkpt>
      <trkpt lat="45.98103" lon="6.24117">
        <ele>840</ele>
        <time>2016-08-27T06:20:06.000Z</time>
      </trkpt>
      <trkpt lat="45.98102" lon="6.24117">
        <ele>840</ele>
        <time>2016-08-27T06:20:07.000Z</time>
      </trkpt>
      <trkpt lat="45.98102" lon="6.24117">
        <ele>841</ele>
        <time>2016-08-27T06:20:08.000Z</time>
      </trkpt>
      <trkpt lat="45.98101" lon="6.24116">
        <ele>841</ele>
        <time>2016-08-27T06:20:09.000Z</time>
      </trkpt>
      <trkpt lat="45.981" lon="6.24116">
        <ele>841</ele>
        <time>2016-08-27T06:20:10.000Z</time>
      </trkpt>
      <trkpt lat="45.981" lon="6.24116">
        <ele>841</ele>
        <time>2016-08-27T06:20:11.000Z</time>
      </trkpt>
      <trkpt lat="45.98099" lon="6.24115">
        <ele>842</ele>
        <time>2016-08-27T06:20:12.000Z</time>
      </trkpt>
      <trkpt lat="45.98099" lon="6.24115">
        <ele>842</ele>
        <time>2016-08-27T06:20:13.000Z</time>
      </trkpt>
      <trkpt lat="45.98098" lon="6.24114">
        <ele>842</ele>
        <time>2016-08-27T06:20:14.000Z</time>
      </trkpt>
      <trkpt lat="45.98098" lon="6.24113">
        <ele>842</ele>
        <time>2016-08-27T06:20:15.000Z</time>
      </trkpt>
      <trkpt lat="45.98098" lon="6.24112">
        <ele>842</ele>
        <time>2016-08-27T06:20:16.000Z</time>
      </trkpt>
      <trkpt lat="45.98098" lon="6.24111">
        <ele>842</ele>
        <time>2016-08-27T06:20:17.000Z</time>
      </trkpt>
      <trkpt lat="45.98097" lon="6.2411">
        <ele>842</ele>
        <time>2016-08-27T06:20:18.000Z</time>
      </trkpt>
      <trkpt lat="45.98097" lon="6.24109">
        <ele>842</ele>
        <time>2016-08-27T06:20:19.000Z</time>
      </trkpt>
      <trkpt lat="45.98097" lon="6.24107">
        <ele>842</ele>
        <time>2016-08-27T06:20:20.000Z</time>
      </trkpt>
      <trkpt lat="45.98097" lon="6.24106">
        <ele>842</ele>
        <time>2016-08-27T06:20:21.000Z</time>
      </trkpt>
      <trkpt lat="45.98097" lon="6.24105">
        <ele>841</ele>
        <time>2016-08-27T06:20:22.000Z</time>
      </trkpt>
      <trkpt lat="45.98097" lon="6.24104">
        <ele>841</ele>
        <time>2016-08-27T06:20:23.000Z</time>
      </trkpt>
      <trkpt lat="45.98096" lon="6.24103">
        <ele>841</ele>
        <time>2016-08-27T06:20:24.000Z</time>
      </trkpt>
      <trkpt lat="45.98096" lon="6.24102">
        <ele>841</ele>
        <time>2016-08-27T06:20:25.000Z</time>
      </trkpt>
      <trkpt lat="45.98095" lon="6.24102">
        <ele>841</ele>
        <time>2016-08-27T06:20:26.000Z</time>
      </trkpt>
      <trkpt lat="45.98094" lon="6.24103">
        <ele>841</ele>
        <time>2016-08-27T06:20:27.000Z</time>
      </trkpt>
      <trkpt lat="45.98093" lon="6.24103">
        <ele>841</ele>
        <time>2016-08-27T06:20:28.000Z</time>
      </trkpt>
      <trkpt lat="45.98093" lon="6.24104">
        <ele>841</ele>
        <time>2016-08-27T06:20:29.000Z</time>
      </trkpt>
      <trkpt lat="45.98092" lon="6.24105">
        <ele>841</ele>
        <time>2016-08-27T06:20:30.000Z</time>
      </trkpt>
      <trkpt lat="45.98091" lon="6.24106">
        <ele>841</ele>
        <time>2016-08-27T06:20:31.000Z</time>
      </trkpt>
      <trkpt lat="45.9809" lon="6.24107">
        <ele>841</ele>
        <time>2016-08-27T06:20:32.000Z</time>
      </trkpt>
      <trkpt lat="45.9809" lon="6.24108">
        <ele>841</ele>
        <time>2016-08-27T06:20:33.000Z</time>
      </trkpt>
      <trkpt lat="45.98089" lon="6.2411">
        <ele>841</ele>
        <time>2016-08-27T06:20:34.000Z</time>
      </trkpt>
      <trkpt lat="45.98088" lon="6.24111">
        <ele>841</ele>
        <time>2016-08-27T06:20:35.000Z</time>
      </trkpt>
      <trkpt lat="45.98087" lon="6.24113">
        <ele>841</ele>
        <time>2016-08-27T06:20:36.000Z</time>
      </trkpt>
      <trkpt lat="45.98086" lon="6.24114">
        <ele>841</ele>
        <time>2016-08-27T06:20:37.000Z</time>
      </trkpt>
      <trkpt lat="45.98085" lon="6.24116">
        <ele>841</ele>
        <time>2016-08-27T06:20:38.000Z</time>
      </trkpt>
      <trkpt lat="45.98084" lon="6.24117">
        <ele>841</ele>
        <time>2016-08-27T06:20:39.000Z</time>
      </trkpt>
      <trkpt lat="45.98083" lon="6.24118">
        <ele>841</ele>
        <time>2016-08-27T06:20:40.000Z</time>
      </trkpt>
      <trkpt lat="45.98082" lon="6.24119">
        <ele>841</ele>
        <time>2016-08-27T06:20:41.000Z</time>
      </trkpt>
      <trkpt lat="45.98081" lon="6.2412">
        <ele>841</ele>
        <time>2016-08-27T06:20:42.000Z</time>
      </trkpt>
      <trkpt lat="45.9808" lon="6.24122">
        <ele>841</ele>
        <time>2016-08-27T06:20:43.000Z</time>
      </trkpt>
      <trkpt lat="45.98079" lon="6.24123">
        <ele>841</ele>
        <time>2016-08-27T06:20:44.000Z</time>
      </trkpt>
      <trkpt lat="45.98078" lon="6.24124">
        <ele>841</ele>
        <time>2016-08-27T06:20:45.000Z</time>
      </trkpt>
      <trkpt lat="45.98076" lon="6.24125">
        <ele>842</ele>
        <time>2016-08-27T06:20:46.000Z</time>
      </trkpt>
      <trkpt lat="45.98075" lon="6.24126">
        <ele>842</ele>
        <time>2016-08-27T06:20:47.000Z</time>
      </trkpt>
      <trkpt lat="45.98075" lon="6.24126">
        <ele>843</ele>
        <time>2016-08-27T06:20:48.000Z</time>
      </trkpt>
      <trkpt lat="45.98074" lon="6.24127">
        <ele>843</ele>
        <time>2016-08-27T06:20:49.000Z</time>
      </trkpt>
      <trkpt lat="45.98073" lon="6.24129">
        <ele>843</ele>
        <time>2016-08-27T06:20:50.000Z</time>
      </trkpt>
      <trkpt lat="45.98072" lon="6.2413">
        <ele>843</ele>
        <time>2016-08-27T06:20:51.000Z</time>
      </trkpt>
      <trkpt lat="45.98072" lon="6.24132">
        <ele>844</ele>
        <time>2016-08-27T06:20:52.000Z</time>
      </trkpt>
      <trkpt lat="45.98071" lon="6.24133">
        <ele>844</ele>
        <time>2016-08-27T06:20:53.000Z</time>
      </trkpt>
      <trkpt lat="45.9807" lon="6.24135">
        <ele>844</ele>
        <time>2016-08-27T06:20:54.000Z</time>
      </trkpt>
      <trkpt lat="45.98069" lon="6.24136">
        <ele>844</ele>
        <time>2016-08-27T06:20:55.000Z</time>
      </trkpt>
      <trkpt lat="45.98068" lon="6.24138">
        <ele>845</ele>
        <time>2016-08-27T06:20:56.000Z</time>
      </trkpt>
      <trkpt lat="45.98068" lon="6.2414">
        <ele>845</ele>
        <time>2016-08-27T06:20:57.000Z</time>
      </trkpt>
      <trkpt lat="45.98067" lon="6.24143">
        <ele>845</ele>
        <time>2016-08-27T06:20:58.000Z</time>
      </trkpt>
      <trkpt lat="45.98067" lon="6.24145">
        <ele>845</ele>
        <time>2016-08-27T06:20:59.000Z</time>
      </trkpt>
      <trkpt lat="45.98067" lon="6.24148">
        <ele>845</ele>
        <time>2016-08-27T06:21:00.000Z</time>
      </trkpt>
      <trkpt lat="45.98066" lon="6.24151">
        <ele>845</ele>
        <time>2016-08-27T06:21:01.000Z</time>
      </trkpt>
      <trkpt lat="45.98066" lon="6.24153">
        <ele>845</ele>
        <time>2016-08-27T06:21:02.000Z</time>
      </trkpt>
      <trkpt lat="45.98066" lon="6.24156">
        <ele>845</ele>
        <time>2016-08-27T06:21:03.000Z</time>
      </trkpt>
      <trkpt lat="45.98065" lon="6.24158">
        <ele>845</ele>
        <time>2016-08-27T06:21:04.000Z</time>
      </trkpt>
      <trkpt lat="45.98065" lon="6.2416">
        <ele>845</ele>
        <time>2016-08-27T06:21:05.000Z</time>
      </trkpt>
      <trkpt lat="45.98064" lon="6.24162">
        <ele>845</ele>
        <time>2016-08-27T06:21:06.000Z</time>
      </trkpt>
      <trkpt lat="45.98064" lon="6.24164">
        <ele>845</ele>
        <time>2016-08-27T06:21:07.000Z</time>
      </trkpt>
      <trkpt lat="45.98064" lon="6.24165">
        <ele>846</ele>
        <time>2016-08-27T06:21:08.000Z</time>
      </trkpt>
      <trkpt lat="45.98063" lon="6.24167">
        <ele>846</ele>
        <time>2016-08-27T06:21:09.000Z</time>
      </trkpt>
      <trkpt lat="45.98063" lon="6.24169">
        <ele>846</ele>
        <time>2016-08-27T06:21:10.000Z</time>
      </trkpt>
      <trkpt lat="45.98063" lon="6.2417">
        <ele>846</ele>
        <time>2016-08-27T06:21:11.000Z</time>
      </trkpt>
      <trkpt lat="45.98062" lon="6.24172">
        <ele>847</ele>
        <time>2016-08-27T06:21:12.000Z</time>
      </trkpt>
      <trkpt lat="45.98062" lon="6.24174">
        <ele>847</ele>
        <time>2016-08-27T06:21:13.000Z</time>
      </trkpt>
      <trkpt lat="45.98062" lon="6.24177">
        <ele>847</ele>
        <time>2016-08-27T06:21:14.000Z</time>
      </trkpt>
      <trkpt lat="45.98061" lon="6.24179">
        <ele>847</ele>
        <time>2016-08-27T06:21:15.000Z</time>
      </trkpt>
      <trkpt lat="45.98061" lon="6.24182">
        <ele>848</ele>
        <time>2016-08-27T06:21:16.000Z</time>
      </trkpt>
      <trkpt lat="45.98061" lon="6.24183">
        <ele>848</ele>
        <time>2016-08-27T06:21:17.000Z</time>
      </trkpt>
      <trkpt lat="45.98061" lon="6.24186">
        <ele>848</ele>
        <time>2016-08-27T06:21:18.000Z</time>
      </trkpt>
      <trkpt lat="45.9806" lon="6.24188">
        <ele>848</ele>
        <time>2016-08-27T06:21:19.000Z</time>
      </trkpt>
      <trkpt lat="45.9806" lon="6.24191">
        <ele>848</ele>
        <time>2016-08-27T06:21:20.000Z</time>
      </trkpt>
      <trkpt lat="45.98059" lon="6.24193">
        <ele>848</ele>
        <time>2016-08-27T06:21:21.000Z</time>
      </trkpt>
      <trkpt lat="45.98059" lon="6.24195">
        <ele>849</ele>
        <time>2016-08-27T06:21:22.000Z</time>
      </trkpt>
      <trkpt lat="45.98058" lon="6.24197">
        <ele>849</ele>
        <time>2016-08-27T06:21:23.000Z</time>
      </trkpt>
      <trkpt lat="45.98058" lon="6.24199">
        <ele>849</ele>
        <time>2016-08-27T06:21:24.000Z</time>
      </trkpt>
      <trkpt lat="45.98058" lon="6.24201">
        <ele>849</ele>
        <time>2016-08-27T06:21:25.000Z</time>
      </trkpt>
      <trkpt lat="45.98057" lon="6.24202">
        <ele>850</ele>
        <time>2016-08-27T06:21:26.000Z</time>
      </trkpt>
      <trkpt lat="45.98057" lon="6.24203">
        <ele>850</ele>
        <time>2016-08-27T06:21:27.000Z</time>
      </trkpt>
      <trkpt lat="45.98057" lon="6.24204">
        <ele>850</ele>
        <time>2016-08-27T06:21:28.000Z</time>
      </trkpt>
      <trkpt lat="45.98056" lon="6.24205">
        <ele>850</ele>
        <time>2016-08-27T06:21:29.000Z</time>
      </trkpt>
      <trkpt lat="45.98055" lon="6.24206">
        <ele>851</ele>
        <time>2016-08-27T06:21:30.000Z</time>
      </trkpt>
      <trkpt lat="45.98054" lon="6.24207">
        <ele>851</ele>
        <time>2016-08-27T06:21:31.000Z</time>
      </trkpt>
      <trkpt lat="45.98053" lon="6.24208">
        <ele>851</ele>
        <time>2016-08-27T06:21:32.000Z</time>
      </trkpt>
      <trkpt lat="45.98052" lon="6.24209">
        <ele>851</ele>
        <time>2016-08-27T06:21:33.000Z</time>
      </trkpt>
      <trkpt lat="45.98051" lon="6.2421">
        <ele>852</ele>
        <time>2016-08-27T06:21:34.000Z</time>
      </trkpt>
      <trkpt lat="45.9805" lon="6.24211">
        <ele>852</ele>
        <time>2016-08-27T06:21:35.000Z</time>
      </trkpt>
      <trkpt lat="45.98049" lon="6.24212">
        <ele>852</ele>
        <time>2016-08-27T06:21:36.000Z</time>
      </trkpt>
      <trkpt lat="45.98047" lon="6.24214">
        <ele>852</ele>
        <time>2016-08-27T06:21:37.000Z</time>
      </trkpt>
      <trkpt lat="45.98046" lon="6.24215">
        <ele>853</ele>
        <time>2016-08-27T06:21:38.000Z</time>
      </trkpt>
      <trkpt lat="45.98044" lon="6.24217">
        <ele>853</ele>
        <time>2016-08-27T06:21:39.000Z</time>
      </trkpt>
      <trkpt lat="45.98043" lon="6.24218">
        <ele>853</ele>
        <time>2016-08-27T06:21:40.000Z</time>
      </trkpt>
      <trkpt lat="45.98041" lon="6.24219">
        <ele>853</ele>
        <time>2016-08-27T06:21:41.000Z</time>
      </trkpt>
      <trkpt lat="45.9804" lon="6.2422">
        <ele>854</ele>
        <time>2016-08-27T06:21:42.000Z</time>
      </trkpt>
      <trkpt lat="45.98038" lon="6.24222">
        <ele>854</ele>
        <time>2016-08-27T06:21:43.000Z</time>
      </trkpt>
      <trkpt lat="45.98037" lon="6.24224">
        <ele>855</ele>
        <time>2016-08-27T06:21:44.000Z</time>
      </trkpt>
      <trkpt lat="45.98036" lon="6.24225">
        <ele>855</ele>
        <time>2016-08-27T06:21:45.000Z</time>
      </trkpt>
      <trkpt lat="45.98034" lon="6.24226">
        <ele>855</ele>
        <time>2016-08-27T06:21:46.000Z</time>
      </trkpt>
      <trkpt lat="45.98033" lon="6.24227">
        <ele>855</ele>
        <time>2016-08-27T06:21:47.000Z</time>
      </trkpt>
      <trkpt lat="45.98032" lon="6.24228">
        <ele>856</ele>
        <time>2016-08-27T06:21:48.000Z</time>
      </trkpt>
      <trkpt lat="45.98031" lon="6.24229">
        <ele>856</ele>
        <time>2016-08-27T06:21:49.000Z</time>
      </trkpt>
      <trkpt lat="45.98029" lon="6.2423">
        <ele>856</ele>
        <time>2016-08-27T06:21:50.000Z</time>
      </trkpt>
      <trkpt lat="45.98028" lon="6.24231">
        <ele>856</ele>
        <time>2016-08-27T06:21:51.000Z</time>
      </trkpt>
      <trkpt lat="45.98027" lon="6.24231">
        <ele>857</ele>
        <time>2016-08-27T06:21:52.000Z</time>
      </trkpt>
      <trkpt lat="45.98026" lon="6.24233">
        <ele>857</ele>
        <time>2016-08-27T06:21:53.000Z</time>
      </trkpt>
      <trkpt lat="45.98025" lon="6.24234">
        <ele>857</ele>
        <time>2016-08-27T06:21:54.000Z</time>
      </trkpt>
      <trkpt lat="45.98025" lon="6.24235">
        <ele>857</ele>
        <time>2016-08-27T06:21:55.000Z</time>
      </trkpt>
      <trkpt lat="45.98024" lon="6.24237">
        <ele>858</ele>
        <time>2016-08-27T06:21:56.000Z</time>
      </trkpt>
      <trkpt lat="45.98023" lon="6.24238">
        <ele>858</ele>
        <time>2016-08-27T06:21:57.000Z</time>
      </trkpt>
      <trkpt lat="45.98022" lon="6.24239">
        <ele>858</ele>
        <time>2016-08-27T06:21:58.000Z</time>
      </trkpt>
      <trkpt lat="45.98021" lon="6.24241">
        <ele>858</ele>
        <time>2016-08-27T06:21:59.000Z</time>
      </trkpt>
      <trkpt lat="45.9802" lon="6.24242">
        <ele>858</ele>
        <time>2016-08-27T06:22:00.000Z</time>
      </trkpt>
      <trkpt lat="45.98019" lon="6.24243">
        <ele>858</ele>
        <time>2016-08-27T06:22:01.000Z</time>
      </trkpt>
      <trkpt lat="45.98018" lon="6.24244">
        <ele>859</ele>
        <time>2016-08-27T06:22:02.000Z</time>
      </trkpt>
      <trkpt lat="45.98017" lon="6.24245">
        <ele>859</ele>
        <time>2016-08-27T06:22:03.000Z</time>
      </trkpt>
      <trkpt lat="45.98016" lon="6.24246">
        <ele>859</ele>
        <time>2016-08-27T06:22:04.000Z</time>
      </trkpt>
      <trkpt lat="45.98015" lon="6.24247">
        <ele>859</ele>
        <time>2016-08-27T06:22:05.000Z</time>
      </trkpt>
      <trkpt lat="45.98014" lon="6.24248">
        <ele>859</ele>
        <time>2016-08-27T06:22:06.000Z</time>
      </trkpt>
      <trkpt lat="45.98012" lon="6.24249">
        <ele>859</ele>
        <time>2016-08-27T06:22:07.000Z</time>
      </trkpt>
      <trkpt lat="45.98011" lon="6.24249">
        <ele>859</ele>
        <time>2016-08-27T06:22:08.000Z</time>
      </trkpt>
      <trkpt lat="45.9801" lon="6.24249">
        <ele>859</ele>
        <time>2016-08-27T06:22:09.000Z</time>
      </trkpt>
      <trkpt lat="45.98009" lon="6.2425">
        <ele>860</ele>
        <time>2016-08-27T06:22:10.000Z</time>
      </trkpt>
      <trkpt lat="45.98008" lon="6.2425">
        <ele>860</ele>
        <time>2016-08-27T06:22:11.000Z</time>
      </trkpt>
      <trkpt lat="45.98006" lon="6.24251">
        <ele>860</ele>
        <time>2016-08-27T06:22:12.000Z</time>
      </trkpt>
      <trkpt lat="45.98005" lon="6.24251">
        <ele>860</ele>
        <time>2016-08-27T06:22:13.000Z</time>
      </trkpt>
      <trkpt lat="45.98004" lon="6.24252">
        <ele>861</ele>
        <time>2016-08-27T06:22:14.000Z</time>
      </trkpt>
      <trkpt lat="45.98003" lon="6.24252">
        <ele>861</ele>
        <time>2016-08-27T06:22:15.000Z</time>
      </trkpt>
      <trkpt lat="45.98002" lon="6.24252">
        <ele>861</ele>
        <time>2016-08-27T06:22:16.000Z</time>
      </trkpt>
      <trkpt lat="45.98001" lon="6.24253">
        <ele>861</ele>
        <time>2016-08-27T06:22:17.000Z</time>
      </trkpt>
      <trkpt lat="45.97999" lon="6.24253">
        <ele>862</ele>
        <time>2016-08-27T06:22:18.000Z</time>
      </trkpt>
      <trkpt lat="45.97998" lon="6.24254">
        <ele>862</ele>
        <time>2016-08-27T06:22:19.000Z</time>
      </trkpt>
      <trkpt lat="45.97997" lon="6.24254">
        <ele>862</ele>
        <time>2016-08-27T06:22:20.000Z</time>
      </trkpt>
      <trkpt lat="45.97995" lon="6.24255">
        <ele>862</ele>
        <time>2016-08-27T06:22:21.000Z</time>
      </trkpt>
      <trkpt lat="45.97994" lon="6.24255">
        <ele>863</ele>
        <time>2016-08-27T06:22:22.000Z</time>
      </trkpt>
      <trkpt lat="45.97993" lon="6.24256">
        <ele>863</ele>
        <time>2016-08-27T06:22:23.000Z</time>
      </trkpt>
      <trkpt lat="45.97992" lon="6.24256">
        <ele>863</ele>
        <time>2016-08-27T06:22:24.000Z</time>
      </trkpt>
      <trkpt lat="45.9799" lon="6.24256">
        <ele>863</ele>
        <time>2016-08-27T06:22:25.000Z</time>
      </trkpt>
      <trkpt lat="45.97989" lon="6.24256">
        <ele>864</ele>
        <time>2016-08-27T06:22:26.000Z</time>
      </trkpt>
      <trkpt lat="45.97987" lon="6.24256">
        <ele>864</ele>
        <time>2016-08-27T06:22:27.000Z</time>
      </trkpt>
      <trkpt lat="45.97986" lon="6.24256">
        <ele>865</ele>
        <time>2016-08-27T06:22:28.000Z</time>
      </trkpt>
      <trkpt lat="45.97984" lon="6.24255">
        <ele>865</ele>
        <time>2016-08-27T06:22:29.000Z</time>
      </trkpt>
      <trkpt lat="45.97982" lon="6.24255">
        <ele>866</ele>
        <time>2016-08-27T06:22:30.000Z</time>
      </trkpt>
      <trkpt lat="45.97981" lon="6.24255">
        <ele>866</ele>
        <time>2016-08-27T06:22:31.000Z</time>
      </trkpt>
      <trkpt lat="45.97979" lon="6.24255">
        <ele>866</ele>
        <time>2016-08-27T06:22:32.000Z</time>
      </trkpt>
      <trkpt lat="45.97978" lon="6.24255">
        <ele>866</ele>
        <time>2016-08-27T06:22:33.000Z</time>
      </trkpt>
      <trkpt lat="45.97976" lon="6.24254">
        <ele>867</ele>
        <time>2016-08-27T06:22:34.000Z</time>
      </trkpt>
      <trkpt lat="45.97975" lon="6.24253">
        <ele>867</ele>
        <time>2016-08-27T06:22:35.000Z</time>
      </trkpt>
      <trkpt lat="45.97973" lon="6.24252">
        <ele>868</ele>
        <time>2016-08-27T06:22:36.000Z</time>
      </trkpt>
      <trkpt lat="45.97972" lon="6.24251">
        <ele>868</ele>
        <time>2016-08-27T06:22:37.000Z</time>
      </trkpt>
      <trkpt lat="45.97971" lon="6.2425">
        <ele>868</ele>
        <time>2016-08-27T06:22:38.000Z</time>
      </trkpt>
      <trkpt lat="45.97969" lon="6.2425">
        <ele>868</ele>
        <time>2016-08-27T06:22:39.000Z</time>
      </trkpt>
      <trkpt lat="45.97968" lon="6.24249">
        <ele>869</ele>
        <time>2016-08-27T06:22:40.000Z</time>
      </trkpt>
      <trkpt lat="45.97967" lon="6.24248">
        <ele>869</ele>
        <time>2016-08-27T06:22:41.000Z</time>
      </trkpt>
      <trkpt lat="45.97967" lon="6.24247">
        <ele>870</ele>
        <time>2016-08-27T06:22:42.000Z</time>
      </trkpt>
      <trkpt lat="45.97966" lon="6.24246">
        <ele>870</ele>
        <time>2016-08-27T06:22:43.000Z</time>
      </trkpt>
      <trkpt lat="45.97965" lon="6.24246">
        <ele>871</ele>
        <time>2016-08-27T06:22:44.000Z</time>
      </trkpt>
      <trkpt lat="45.97964" lon="6.24245">
        <ele>871</ele>
        <time>2016-08-27T06:22:45.000Z</time>
      </trkpt>
      <trkpt lat="45.97963" lon="6.24244">
        <ele>871</ele>
        <time>2016-08-27T06:22:46.000Z</time>
      </trkpt>
      <trkpt lat="45.97962" lon="6.24243">
        <ele>871</ele>
        <time>2016-08-27T06:22:47.000Z</time>
      </trkpt>
      <trkpt lat="45.9796" lon="6.24243">
        <ele>872</ele>
        <time>2016-08-27T06:22:48.000Z</time>
      </trkpt>
      <trkpt lat="45.97959" lon="6.24242">
        <ele>872</ele>
        <time>2016-08-27T06:22:49.000Z</time>
      </trkpt>
      <trkpt lat="45.97957" lon="6.24242">
        <ele>872</ele>
        <time>2016-08-27T06:22:50.000Z</time>
      </trkpt>
      <trkpt lat="45.97956" lon="6.24241">
        <ele>872</ele>
        <time>2016-08-27T06:22:51.000Z</time>
      </trkpt>
      <trkpt lat="45.97955" lon="6.2424">
        <ele>873</ele>
        <time>2016-08-27T06:22:52.000Z</time>
      </trkpt>
      <trkpt lat="45.97954" lon="6.2424">
        <ele>873</ele>
        <time>2016-08-27T06:22:53.000Z</time>
      </trkpt>
      <trkpt lat="45.97952" lon="6.24239">
        <ele>873</ele>
        <time>2016-08-27T06:22:54.000Z</time>
      </trkpt>
      <trkpt lat="45.97951" lon="6.24238">
        <ele>873</ele>
        <time>2016-08-27T06:22:55.000Z</time>
      </trkpt>
      <trkpt lat="45.9795" lon="6.24238">
        <ele>874</ele>
        <time>2016-08-27T06:22:56.000Z</time>
      </trkpt>
      <trkpt lat="45.97948" lon="6.24237">
        <ele>874</ele>
        <time>2016-08-27T06:22:57.000Z</time>
      </trkpt>
      <trkpt lat="45.97947" lon="6.24237">
        <ele>874</ele>
        <time>2016-08-27T06:22:58.000Z</time>
      </trkpt>
      <trkpt lat="45.97946" lon="6.24236">
        <ele>874</ele>
        <time>2016-08-27T06:22:59.000Z</time>
      </trkpt>
      <trkpt lat="45.97945" lon="6.24236">
        <ele>874</ele>
        <time>2016-08-27T06:23:00.000Z</time>
      </trkpt>
      <trkpt lat="45.97944" lon="6.24235">
        <ele>874</ele>
        <time>2016-08-27T06:23:01.000Z</time>
      </trkpt>
      <trkpt lat="45.97943" lon="6.24235">
        <ele>875</ele>
        <time>2016-08-27T06:23:02.000Z</time>
      </trkpt>
      <trkpt lat="45.97942" lon="6.24234">
        <ele>875</ele>
        <time>2016-08-27T06:23:03.000Z</time>
      </trkpt>
      <trkpt lat="45.97941" lon="6.24234">
        <ele>875</ele>
        <time>2016-08-27T06:23:04.000Z</time>
      </trkpt>
      <trkpt lat="45.9794" lon="6.24234">
        <ele>875</ele>
        <time>2016-08-27T06:23:05.000Z</time>
      </trkpt>
      <trkpt lat="45.97939" lon="6.24233">
        <ele>876</ele>
        <time>2016-08-27T06:23:06.000Z</time>
      </trkpt>
      <trkpt lat="45.97938" lon="6.24233">
        <ele>876</ele>
        <time>2016-08-27T06:23:07.000Z</time>
      </trkpt>
      <trkpt lat="45.97937" lon="6.24232">
        <ele>876</ele>
        <time>2016-08-27T06:23:08.000Z</time>
      </trkpt>
      <trkpt lat="45.97936" lon="6.24232">
        <ele>876</ele>
        <time>2016-08-27T06:23:09.000Z</time>
      </trkpt>
      <trkpt lat="45.97935" lon="6.24231">
        <ele>876</ele>
        <time>2016-08-27T06:23:10.000Z</time>
      </trkpt>
      <trkpt lat="45.97934" lon="6.2423">
        <ele>876</ele>
        <time>2016-08-27T06:23:11.000Z</time>
      </trkpt>
      <trkpt lat="45.97934" lon="6.2423">
        <ele>877</ele>
        <time>2016-08-27T06:23:12.000Z</time>
      </trkpt>
      <trkpt lat="45.97933" lon="6.2423">
        <ele>877</ele>
        <time>2016-08-27T06:23:13.000Z</time>
      </trkpt>
      <trkpt lat="45.97932" lon="6.24229">
        <ele>877</ele>
        <time>2016-08-27T06:23:14.000Z</time>
      </trkpt>
      <trkpt lat="45.97932" lon="6.24228">
        <ele>877</ele>
        <time>2016-08-27T06:23:15.000Z</time>
      </trkpt>
      <trkpt lat="45.97931" lon="6.24228">
        <ele>877</ele>
        <time>2016-08-27T06:23:16.000Z</time>
      </trkpt>
      <trkpt lat="45.9793" lon="6.24227">
        <ele>877</ele>
        <time>2016-08-27T06:23:17.000Z</time>
      </trkpt>
      <trkpt lat="45.97929" lon="6.24227">
        <ele>877</ele>
        <time>2016-08-27T06:23:18.000Z</time>
      </trkpt>
      <trkpt lat="45.97929" lon="6.24226">
        <ele>877</ele>
        <time>2016-08-27T06:23:19.000Z</time>
      </trkpt>
      <trkpt lat="45.97928" lon="6.24226">
        <ele>878</ele>
        <time>2016-08-27T06:23:20.000Z</time>
      </trkpt>
      <trkpt lat="45.97928" lon="6.24225">
        <ele>878</ele>
        <time>2016-08-27T06:23:21.000Z</time>
      </trkpt>
      <trkpt lat="45.97927" lon="6.24225">
        <ele>878</ele>
        <time>2016-08-27T06:23:22.000Z</time>
      </trkpt>
      <trkpt lat="45.97926" lon="6.24225">
        <ele>878</ele>
        <time>2016-08-27T06:23:23.000Z</time>
      </trkpt>
      <trkpt lat="45.97925" lon="6.24224">
        <ele>878</ele>
        <time>2016-08-27T06:23:24.000Z</time>
      </trkpt>
      <trkpt lat="45.97924" lon="6.24224">
        <ele>878</ele>
        <time>2016-08-27T06:23:25.000Z</time>
      </trkpt>
      <trkpt lat="45.97923" lon="6.24223">
        <ele>879</ele>
        <time>2016-08-27T06:23:26.000Z</time>
      </trkpt>
      <trkpt lat="45.97922" lon="6.24223">
        <ele>879</ele>
        <time>2016-08-27T06:23:27.000Z</time>
      </trkpt>
      <trkpt lat="45.97921" lon="6.24222">
        <ele>879</ele>
        <time>2016-08-27T06:23:28.000Z</time>
      </trkpt>
      <trkpt lat="45.97921" lon="6.24222">
        <ele>879</ele>
        <time>2016-08-27T06:23:29.000Z</time>
      </trkpt>
      <trkpt lat="45.9792" lon="6.24222">
        <ele>879</ele>
        <time>2016-08-27T06:23:30.000Z</time>
      </trkpt>
      <trkpt lat="45.97919" lon="6.24222">
        <ele>879</ele>
        <time>2016-08-27T06:23:31.000Z</time>
      </trkpt>
      <trkpt lat="45.97918" lon="6.24221">
        <ele>879</ele>
        <time>2016-08-27T06:23:32.000Z</time>
      </trkpt>
      <trkpt lat="45.97918" lon="6.24221">
        <ele>879</ele>
        <time>2016-08-27T06:23:33.000Z</time>
      </trkpt>
      <trkpt lat="45.97917" lon="6.24221">
        <ele>879</ele>
        <time>2016-08-27T06:23:34.000Z</time>
      </trkpt>
      <trkpt lat="45.97916" lon="6.2422">
        <ele>879</ele>
        <time>2016-08-27T06:23:35.000Z</time>
      </trkpt>
      <trkpt lat="45.97915" lon="6.2422">
        <ele>879</ele>
        <time>2016-08-27T06:23:36.000Z</time>
      </trkpt>
      <trkpt lat="45.97914" lon="6.2422">
        <ele>879</ele>
        <time>2016-08-27T06:23:37.000Z</time>
      </trkpt>
      <trkpt lat="45.97913" lon="6.2422">
        <ele>879</ele>
        <time>2016-08-27T06:23:38.000Z</time>
      </trkpt>
      <trkpt lat="45.97913" lon="6.2422">
        <ele>879</ele>
        <time>2016-08-27T06:23:39.000Z</time>
      </trkpt>
      <trkpt lat="45.97912" lon="6.2422">
        <ele>880</ele>
        <time>2016-08-27T06:23:40.000Z</time>
      </trkpt>
      <trkpt lat="45.97911" lon="6.2422">
        <ele>880</ele>
        <time>2016-08-27T06:23:41.000Z</time>
      </trkpt>
      <trkpt lat="45.9791" lon="6.2422">
        <ele>880</ele>
        <time>2016-08-27T06:23:42.000Z</time>
      </trkpt>
      <trkpt lat="45.97909" lon="6.24219">
        <ele>880</ele>
        <time>2016-08-27T06:23:43.000Z</time>
      </trkpt>
      <trkpt lat="45.97908" lon="6.24219">
        <ele>881</ele>
        <time>2016-08-27T06:23:44.000Z</time>
      </trkpt>
      <trkpt lat="45.97908" lon="6.24219">
        <ele>881</ele>
        <time>2016-08-27T06:23:45.000Z</time>
      </trkpt>
      <trkpt lat="45.97907" lon="6.2422">
        <ele>881</ele>
        <time>2016-08-27T06:23:46.000Z</time>
      </trkpt>
      <trkpt lat="45.97906" lon="6.24219">
        <ele>881</ele>
        <time>2016-08-27T06:23:47.000Z</time>
      </trkpt>
      <trkpt lat="45.97905" lon="6.2422">
        <ele>882</ele>
        <time>2016-08-27T06:23:48.000Z</time>
      </trkpt>
      <trkpt lat="45.97904" lon="6.2422">
        <ele>882</ele>
        <time>2016-08-27T06:23:49.000Z</time>
      </trkpt>
      <trkpt lat="45.97903" lon="6.2422">
        <ele>882</ele>
        <time>2016-08-27T06:23:50.000Z</time>
      </trkpt>
      <trkpt lat="45.97902" lon="6.2422">
        <ele>882</ele>
        <time>2016-08-27T06:23:51.000Z</time>
      </trkpt>
      <trkpt lat="45.97901" lon="6.24219">
        <ele>882</ele>
        <time>2016-08-27T06:23:52.000Z</time>
      </trkpt>
      <trkpt lat="45.979" lon="6.24219">
        <ele>882</ele>
        <time>2016-08-27T06:23:53.000Z</time>
      </trkpt>
      <trkpt lat="45.97899" lon="6.24219">
        <ele>883</ele>
        <time>2016-08-27T06:23:54.000Z</time>
      </trkpt>
      <trkpt lat="45.97898" lon="6.24218">
        <ele>883</ele>
        <time>2016-08-27T06:23:55.000Z</time>
      </trkpt>
      <trkpt lat="45.97898" lon="6.24218">
        <ele>883</ele>
        <time>2016-08-27T06:23:56.000Z</time>
      </trkpt>
      <trkpt lat="45.97897" lon="6.24218">
        <ele>883</ele>
        <time>2016-08-27T06:23:57.000Z</time>
      </trkpt>
      <trkpt lat="45.97896" lon="6.24218">
        <ele>883</ele>
        <time>2016-08-27T06:23:58.000Z</time>
      </trkpt>
      <trkpt lat="45.97896" lon="6.24218">
        <ele>883</ele>
        <time>2016-08-27T06:23:59.000Z</time>
      </trkpt>
      <trkpt lat="45.97895" lon="6.24218">
        <ele>884</ele>
        <time>2016-08-27T06:24:00.000Z</time>
      </trkpt>
      <trkpt lat="45.97894" lon="6.24217">
        <ele>884</ele>
        <time>2016-08-27T06:24:01.000Z</time>
      </trkpt>
      <trkpt lat="45.97893" lon="6.24217">
        <ele>884</ele>
        <time>2016-08-27T06:24:02.000Z</time>
      </trkpt>
      <trkpt lat="45.97892" lon="6.24217">
        <ele>884</ele>
        <time>2016-08-27T06:24:03.000Z</time>
      </trkpt>
      <trkpt lat="45.97892" lon="6.24217">
        <ele>885</ele>
        <time>2016-08-27T06:24:04.000Z</time>
      </trkpt>
      <trkpt lat="45.97891" lon="6.24217">
        <ele>885</ele>
        <time>2016-08-27T06:24:05.000Z</time>
      </trkpt>
      <trkpt lat="45.97891" lon="6.24217">
        <ele>885</ele>
        <time>2016-08-27T06:24:06.000Z</time>
      </trkpt>
      <trkpt lat="45.9789" lon="6.24216">
        <ele>885</ele>
        <time>2016-08-27T06:24:07.000Z</time>
      </trkpt>
      <trkpt lat="45.9789" lon="6.24216">
        <ele>885</ele>
        <time>2016-08-27T06:24:08.000Z</time>
      </trkpt>
      <trkpt lat="45.97889" lon="6.24216">
        <ele>885</ele>
        <time>2016-08-27T06:24:09.000Z</time>
      </trkpt>
      <trkpt lat="45.97888" lon="6.24215">
        <ele>886</ele>
        <time>2016-08-27T06:24:10.000Z</time>
      </trkpt>
      <trkpt lat="45.97887" lon="6.24215">
        <ele>886</ele>
        <time>2016-08-27T06:24:11.000Z</time>
      </trkpt>
      <trkpt lat="45.97887" lon="6.24215">
        <ele>886</ele>
        <time>2016-08-27T06:24:12.000Z</time>
      </trkpt>
      <trkpt lat="45.97886" lon="6.24215">
        <ele>886</ele>
        <time>2016-08-27T06:24:13.000Z</time>
      </trkpt>
      <trkpt lat="45.97885" lon="6.24215">
        <ele>886</ele>
        <time>2016-08-27T06:24:14.000Z</time>
      </trkpt>
      <trkpt lat="45.97885" lon="6.24214">
        <ele>886</ele>
        <time>2016-08-27T06:24:15.000Z</time>
      </trkpt>
      <trkpt lat="45.97884" lon="6.24214">
        <ele>887</ele>
        <time>2016-08-27T06:24:16.000Z</time>
      </trkpt>
      <trkpt lat="45.97884" lon="6.24214">
        <ele>887</ele>
        <time>2016-08-27T06:24:17.000Z</time>
      </trkpt>
      <trkpt lat="45.97883" lon="6.24214">
        <ele>887</ele>
        <time>2016-08-27T06:24:18.000Z</time>
      </trkpt>
      <trkpt lat="45.97882" lon="6.24213">
        <ele>887</ele>
        <time>2016-08-27T06:24:19.000Z</time>
      </trkpt>
      <trkpt lat="45.97881" lon="6.24213">
        <ele>887</ele>
        <time>2016-08-27T06:24:20.000Z</time>
      </trkpt>
      <trkpt lat="45.97881" lon="6.24212">
        <ele>887</ele>
        <time>2016-08-27T06:24:21.000Z</time>
      </trkpt>
      <trkpt lat="45.9788" lon="6.24212">
        <ele>887</ele>
        <time>2016-08-27T06:24:22.000Z</time>
      </trkpt>
      <trkpt lat="45.97879" lon="6.24211">
        <ele>887</ele>
        <time>2016-08-27T06:24:23.000Z</time>
      </trkpt>
      <trkpt lat="45.97878" lon="6.24211">
        <ele>887</ele>
        <time>2016-08-27T06:24:24.000Z</time>
      </trkpt>
      <trkpt lat="45.97877" lon="6.2421">
        <ele>887</ele>
        <time>2016-08-27T06:24:25.000Z</time>
      </trkpt>
      <trkpt lat="45.97877" lon="6.2421">
        <ele>887</ele>
        <time>2016-08-27T06:24:26.000Z</time>
      </trkpt>
      <trkpt lat="45.97876" lon="6.24209">
        <ele>887</ele>
        <time>2016-08-27T06:24:27.000Z</time>
      </trkpt>
      <trkpt lat="45.97875" lon="6.24209">
        <ele>888</ele>
        <time>2016-08-27T06:24:28.000Z</time>
      </trkpt>
      <trkpt lat="45.97874" lon="6.24208">
        <ele>888</ele>
        <time>2016-08-27T06:24:29.000Z</time>
      </trkpt>
      <trkpt lat="45.97874" lon="6.24207">
        <ele>888</ele>
        <time>2016-08-27T06:24:30.000Z</time>
      </trkpt>
      <trkpt lat="45.97873" lon="6.24207">
        <ele>888</ele>
        <time>2016-08-27T06:24:31.000Z</time>
      </trkpt>
      <trkpt lat="45.97872" lon="6.24206">
        <ele>888</ele>
        <time>2016-08-27T06:24:32.000Z</time>
      </trkpt>
      <trkpt lat="45.97871" lon="6.24206">
        <ele>888</ele>
        <time>2016-08-27T06:24:33.000Z</time>
      </trkpt>
      <trkpt lat="45.97871" lon="6.24205">
        <ele>888</ele>
        <time>2016-08-27T06:24:34.000Z</time>
      </trkpt>
      <trkpt lat="45.9787" lon="6.24204">
        <ele>888</ele>
        <time>2016-08-27T06:24:35.000Z</time>
      </trkpt>
      <trkpt lat="45.97869" lon="6.24204">
        <ele>889</ele>
        <time>2016-08-27T06:24:36.000Z</time>
      </trkpt>
      <trkpt lat="45.97868" lon="6.24203">
        <ele>889</ele>
        <time>2016-08-27T06:24:37.000Z</time>
      </trkpt>
      <trkpt lat="45.97867" lon="6.24202">
        <ele>889</ele>
        <time>2016-08-27T06:24:38.000Z</time>
      </trkpt>
      <trkpt lat="45.97866" lon="6.24202">
        <ele>889</ele>
        <time>2016-08-27T06:24:39.000Z</time>
      </trkpt>
      <trkpt lat="45.97865" lon="6.24201">
        <ele>889</ele>
        <time>2016-08-27T06:24:40.000Z</time>
      </trkpt>
      <trkpt lat="45.97864" lon="6.242">
        <ele>889</ele>
        <time>2016-08-27T06:24:41.000Z</time>
      </trkpt>
      <trkpt lat="45.97863" lon="6.24199">
        <ele>889</ele>
        <time>2016-08-27T06:24:42.000Z</time>
      </trkpt>
      <trkpt lat="45.97862" lon="6.24198">
        <ele>889</ele>
        <time>2016-08-27T06:24:43.000Z</time>
      </trkpt>
      <trkpt lat="45.97861" lon="6.24197">
        <ele>890</ele>
        <time>2016-08-27T06:24:44.000Z</time>
      </trkpt>
      <trkpt lat="45.9786" lon="6.24196">
        <ele>890</ele>
        <time>2016-08-27T06:24:45.000Z</time>
      </trkpt>
      <trkpt lat="45.9786" lon="6.24195">
        <ele>890</ele>
        <time>2016-08-27T06:24:46.000Z</time>
      </trkpt>
      <trkpt lat="45.97859" lon="6.24194">
        <ele>890</ele>
        <time>2016-08-27T06:24:47.000Z</time>
      </trkpt>
      <trkpt lat="45.97858" lon="6.24193">
        <ele>890</ele>
        <time>2016-08-27T06:24:48.000Z</time>
      </trkpt>
      <trkpt lat="45.97857" lon="6.24193">
        <ele>890</ele>
        <time>2016-08-27T06:24:49.000Z</time>
      </trkpt>
      <trkpt lat="45.97857" lon="6.24192">
        <ele>890</ele>
        <time>2016-08-27T06:24:50.000Z</time>
      </trkpt>
      <trkpt lat="45.97856" lon="6.24191">
        <ele>890</ele>
        <time>2016-08-27T06:24:51.000Z</time>
      </trkpt>
      <trkpt lat="45.97855" lon="6.24189">
        <ele>890</ele>
        <time>2016-08-27T06:24:52.000Z</time>
      </trkpt>
      <trkpt lat="45.97854" lon="6.24188">
        <ele>890</ele>
        <time>2016-08-27T06:24:53.000Z</time>
      </trkpt>
      <trkpt lat="45.97853" lon="6.24187">
        <ele>890</ele>
        <time>2016-08-27T06:24:54.000Z</time>
      </trkpt>
      <trkpt lat="45.97852" lon="6.24186">
        <ele>890</ele>
        <time>2016-08-27T06:24:55.000Z</time>
      </trkpt>
      <trkpt lat="45.97851" lon="6.24185">
        <ele>891</ele>
        <time>2016-08-27T06:24:56.000Z</time>
      </trkpt>
      <trkpt lat="45.9785" lon="6.24184">
        <ele>891</ele>
        <time>2016-08-27T06:24:57.000Z</time>
      </trkpt>
      <trkpt lat="45.9785" lon="6.24182">
        <ele>891</ele>
        <time>2016-08-27T06:24:58.000Z</time>
      </trkpt>
      <trkpt lat="45.97849" lon="6.24181">
        <ele>891</ele>
        <time>2016-08-27T06:24:59.000Z</time>
      </trkpt>
      <trkpt lat="45.97848" lon="6.2418">
        <ele>891</ele>
        <time>2016-08-27T06:25:00.000Z</time>
      </trkpt>
      <trkpt lat="45.97847" lon="6.24179">
        <ele>891</ele>
        <time>2016-08-27T06:25:01.000Z</time>
      </trkpt>
      <trkpt lat="45.97846" lon="6.24178">
        <ele>892</ele>
        <time>2016-08-27T06:25:02.000Z</time>
      </trkpt>
      <trkpt lat="45.97845" lon="6.24178">
        <ele>892</ele>
        <time>2016-08-27T06:25:03.000Z</time>
      </trkpt>
      <trkpt lat="45.97844" lon="6.24177">
        <ele>892</ele>
        <time>2016-08-27T06:25:04.000Z</time>
      </trkpt>
      <trkpt lat="45.97843" lon="6.24177">
        <ele>892</ele>
        <time>2016-08-27T06:25:05.000Z</time>
      </trkpt>
      <trkpt lat="45.97842" lon="6.24176">
        <ele>893</ele>
        <time>2016-08-27T06:25:06.000Z</time>
      </trkpt>
      <trkpt lat="45.97842" lon="6.24176">
        <ele>893</ele>
        <time>2016-08-27T06:25:07.000Z</time>
      </trkpt>
      <trkpt lat="45.97841" lon="6.24175">
        <ele>893</ele>
        <time>2016-08-27T06:25:08.000Z</time>
      </trkpt>
      <trkpt lat="45.9784" lon="6.24174">
        <ele>893</ele>
        <time>2016-08-27T06:25:09.000Z</time>
      </trkpt>
      <trkpt lat="45.9784" lon="6.24173">
        <ele>894</ele>
        <time>2016-08-27T06:25:10.000Z</time>
      </trkpt>
      <trkpt lat="45.97839" lon="6.24173">
        <ele>894</ele>
        <time>2016-08-27T06:25:11.000Z</time>
      </trkpt>
      <trkpt lat="45.97839" lon="6.24172">
        <ele>895</ele>
        <time>2016-08-27T06:25:12.000Z</time>
      </trkpt>
      <trkpt lat="45.97838" lon="6.24171">
        <ele>895</ele>
        <time>2016-08-27T06:25:13.000Z</time>
      </trkpt>
      <trkpt lat="45.97837" lon="6.2417">
        <ele>895</ele>
        <time>2016-08-27T06:25:14.000Z</time>
      </trkpt>
      <trkpt lat="45.97837" lon="6.24169">
        <ele>895</ele>
        <time>2016-08-27T06:25:15.000Z</time>
      </trkpt>
      <trkpt lat="45.97836" lon="6.24168">
        <ele>896</ele>
        <time>2016-08-27T06:25:16.000Z</time>
      </trkpt>
      <trkpt lat="45.97836" lon="6.24167">
        <ele>896</ele>
        <time>2016-08-27T06:25:17.000Z</time>
      </trkpt>
      <trkpt lat="45.97835" lon="6.24166">
        <ele>897</ele>
        <time>2016-08-27T06:25:18.000Z</time>
      </trkpt>
      <trkpt lat="45.97834" lon="6.24165">
        <ele>897</ele>
        <time>2016-08-27T06:25:19.000Z</time>
      </trkpt>
      <trkpt lat="45.97833" lon="6.24163">
        <ele>897</ele>
        <time>2016-08-27T06:25:20.000Z</time>
      </trkpt>
      <trkpt lat="45.97832" lon="6.24162">
        <ele>897</ele>
        <time>2016-08-27T06:25:21.000Z</time>
      </trkpt>
      <trkpt lat="45.97831" lon="6.24161">
        <ele>897</ele>
        <time>2016-08-27T06:25:22.000Z</time>
      </trkpt>
      <trkpt lat="45.9783" lon="6.2416">
        <ele>897</ele>
        <time>2016-08-27T06:25:23.000Z</time>
      </trkpt>
      <trkpt lat="45.97829" lon="6.24159">
        <ele>898</ele>
        <time>2016-08-27T06:25:24.000Z</time>
      </trkpt>
      <trkpt lat="45.97828" lon="6.24159">
        <ele>898</ele>
        <time>2016-08-27T06:25:25.000Z</time>
      </trkpt>
      <trkpt lat="45.97826" lon="6.24159">
        <ele>898</ele>
        <time>2016-08-27T06:25:26.000Z</time>
      </trkpt>
      <trkpt lat="45.97825" lon="6.24158">
        <ele>898</ele>
        <time>2016-08-27T06:25:27.000Z</time>
      </trkpt>
      <trkpt lat="45.97824" lon="6.24158">
        <ele>898</ele>
        <time>2016-08-27T06:25:28.000Z</time>
      </trkpt>
      <trkpt lat="45.97823" lon="6.24158">
        <ele>898</ele>
        <time>2016-08-27T06:25:29.000Z</time>
      </trkpt>
      <trkpt lat="45.97822" lon="6.24158">
        <ele>899</ele>
        <time>2016-08-27T06:25:30.000Z</time>
      </trkpt>
      <trkpt lat="45.9782" lon="6.24158">
        <ele>899</ele>
        <time>2016-08-27T06:25:31.000Z</time>
      </trkpt>
      <trkpt lat="45.97819" lon="6.24158">
        <ele>899</ele>
        <time>2016-08-27T06:25:32.000Z</time>
      </trkpt>
      <trkpt lat="45.97818" lon="6.24157">
        <ele>899</ele>
        <time>2016-08-27T06:25:33.000Z</time>
      </trkpt>
      <trkpt lat="45.97817" lon="6.24157">
        <ele>899</ele>
        <time>2016-08-27T06:25:34.000Z</time>
      </trkpt>
      <trkpt lat="45.97816" lon="6.24157">
        <ele>899</ele>
        <time>2016-08-27T06:25:35.000Z</time>
      </trkpt>
      <trkpt lat="45.97815" lon="6.24157">
        <ele>900</ele>
        <time>2016-08-27T06:25:36.000Z</time>
      </trkpt>
      <trkpt lat="45.97814" lon="6.24156">
        <ele>900</ele>
        <time>2016-08-27T06:25:37.000Z</time>
      </trkpt>
      <trkpt lat="45.97813" lon="6.24156">
        <ele>900</ele>
        <time>2016-08-27T06:25:38.000Z</time>
      </trkpt>
      <trkpt lat="45.97812" lon="6.24156">
        <ele>900</ele>
        <time>2016-08-27T06:25:39.000Z</time>
      </trkpt>
      <trkpt lat="45.97811" lon="6.24156">
        <ele>900</ele>
        <time>2016-08-27T06:25:40.000Z</time>
      </trkpt>
      <trkpt lat="45.97811" lon="6.24156">
        <ele>900</ele>
        <time>2016-08-27T06:25:41.000Z</time>
      </trkpt>
      <trkpt lat="45.9781" lon="6.24156">
        <ele>901</ele>
        <time>2016-08-27T06:25:42.000Z</time>
      </trkpt>
      <trkpt lat="45.97809" lon="6.24156">
        <ele>901</ele>
        <time>2016-08-27T06:25:43.000Z</time>
      </trkpt>
      <trkpt lat="45.97808" lon="6.24156">
        <ele>901</ele>
        <time>2016-08-27T06:25:44.000Z</time>
      </trkpt>
      <trkpt lat="45.97807" lon="6.24155">
        <ele>901</ele>
        <time>2016-08-27T06:25:45.000Z</time>
      </trkpt>
      <trkpt lat="45.97807" lon="6.24155">
        <ele>901</ele>
        <time>2016-08-27T06:25:46.000Z</time>
      </trkpt>
      <trkpt lat="45.97807" lon="6.24154">
        <ele>901</ele>
        <time>2016-08-27T06:25:47.000Z</time>
      </trkpt>
      <trkpt lat="45.97806" lon="6.24153">
        <ele>902</ele>
        <time>2016-08-27T06:25:48.000Z</time>
      </trkpt>
      <trkpt lat="45.97806" lon="6.24152">
        <ele>902</ele>
        <time>2016-08-27T06:25:49.000Z</time>
      </trkpt>
      <trkpt lat="45.97806" lon="6.24151">
        <ele>902</ele>
        <time>2016-08-27T06:25:50.000Z</time>
      </trkpt>
      <trkpt lat="45.97806" lon="6.2415">
        <ele>902</ele>
        <time>2016-08-27T06:25:51.000Z</time>
      </trkpt>
      <trkpt lat="45.97806" lon="6.2415">
        <ele>903</ele>
        <time>2016-08-27T06:25:52.000Z</time>
      </trkpt>
      <trkpt lat="45.97806" lon="6.24149">
        <ele>903</ele>
        <time>2016-08-27T06:25:53.000Z</time>
      </trkpt>
      <trkpt lat="45.97806" lon="6.24148">
        <ele>904</ele>
        <time>2016-08-27T06:25:54.000Z</time>
      </trkpt>
      <trkpt lat="45.97805" lon="6.24147">
        <ele>904</ele>
        <time>2016-08-27T06:25:55.000Z</time>
      </trkpt>
      <trkpt lat="45.97805" lon="6.24146">
        <ele>904</ele>
        <time>2016-08-27T06:25:56.000Z</time>
      </trkpt>
      <trkpt lat="45.97805" lon="6.24145">
        <ele>904</ele>
        <time>2016-08-27T06:25:57.000Z</time>
      </trkpt>
      <trkpt lat="45.97804" lon="6.24144">
        <ele>905</ele>
        <time>2016-08-27T06:25:58.000Z</time>
      </trkpt>
      <trkpt lat="45.97804" lon="6.24144">
        <ele>905</ele>
        <time>2016-08-27T06:25:59.000Z</time>
      </trkpt>
      <trkpt lat="45.97803" lon="6.24143">
        <ele>906</ele>
        <time>2016-08-27T06:26:00.000Z</time>
      </trkpt>
      <trkpt lat="45.97802" lon="6.24143">
        <ele>906</ele>
        <time>2016-08-27T06:26:01.000Z</time>
      </trkpt>
      <trkpt lat="45.97801" lon="6.24142">
        <ele>906</ele>
        <time>2016-08-27T06:26:02.000Z</time>
      </trkpt>
      <trkpt lat="45.978" lon="6.24142">
        <ele>906</ele>
        <time>2016-08-27T06:26:03.000Z</time>
      </trkpt>
      <trkpt lat="45.97799" lon="6.24141">
        <ele>907</ele>
        <time>2016-08-27T06:26:04.000Z</time>
      </trkpt>
      <trkpt lat="45.97798" lon="6.24141">
        <ele>907</ele>
        <time>2016-08-27T06:26:05.000Z</time>
      </trkpt>
      <trkpt lat="45.97797" lon="6.2414">
        <ele>907</ele>
        <time>2016-08-27T06:26:06.000Z</time>
      </trkpt>
      <trkpt lat="45.97797" lon="6.2414">
        <ele>907</ele>
        <time>2016-08-27T06:26:07.000Z</time>
      </trkpt>
      <trkpt lat="45.97796" lon="6.24139">
        <ele>908</ele>
        <time>2016-08-27T06:26:08.000Z</time>
      </trkpt>
      <trkpt lat="45.97795" lon="6.24139">
        <ele>908</ele>
        <time>2016-08-27T06:26:09.000Z</time>
      </trkpt>
      <trkpt lat="45.97795" lon="6.24138">
        <ele>909</ele>
        <time>2016-08-27T06:26:10.000Z</time>
      </trkpt>
      <trkpt lat="45.97794" lon="6.24137">
        <ele>909</ele>
        <time>2016-08-27T06:26:11.000Z</time>
      </trkpt>
      <trkpt lat="45.97794" lon="6.24137">
        <ele>909</ele>
        <time>2016-08-27T06:26:12.000Z</time>
      </trkpt>
      <trkpt lat="45.97794" lon="6.24136">
        <ele>909</ele>
        <time>2016-08-27T06:26:13.000Z</time>
      </trkpt>
      <trkpt lat="45.97793" lon="6.24135">
        <ele>909</ele>
        <time>2016-08-27T06:26:14.000Z</time>
      </trkpt>
      <trkpt lat="45.97792" lon="6.24135">
        <ele>909</ele>
        <time>2016-08-27T06:26:15.000Z</time>
      </trkpt>
      <trkpt lat="45.97792" lon="6.24134">
        <ele>910</ele>
        <time>2016-08-27T06:26:16.000Z</time>
      </trkpt>
      <trkpt lat="45.97791" lon="6.24133">
        <ele>910</ele>
        <time>2016-08-27T06:26:17.000Z</time>
      </trkpt>
      <trkpt lat="45.9779" lon="6.24132">
        <ele>910</ele>
        <time>2016-08-27T06:26:18.000Z</time>
      </trkpt>
      <trkpt lat="45.9779" lon="6.24131">
        <ele>910</ele>
        <time>2016-08-27T06:26:19.000Z</time>
      </trkpt>
      <trkpt lat="45.97789" lon="6.2413">
        <ele>910</ele>
        <time>2016-08-27T06:26:20.000Z</time>
      </trkpt>
      <trkpt lat="45.97789" lon="6.24129">
        <ele>910</ele>
        <time>2016-08-27T06:26:21.000Z</time>
      </trkpt>
      <trkpt lat="45.97789" lon="6.24128">
        <ele>911</ele>
        <time>2016-08-27T06:26:22.000Z</time>
      </trkpt>
      <trkpt lat="45.97789" lon="6.24127">
        <ele>911</ele>
        <time>2016-08-27T06:26:23.000Z</time>
      </trkpt>
      <trkpt lat="45.97789" lon="6.24126">
        <ele>911</ele>
        <time>2016-08-27T06:26:24.000Z</time>
      </trkpt>
      <trkpt lat="45.97789" lon="6.24124">
        <ele>911</ele>
        <time>2016-08-27T06:26:25.000Z</time>
      </trkpt>
      <trkpt lat="45.97789" lon="6.24123">
        <ele>911</ele>
        <time>2016-08-27T06:26:26.000Z</time>
      </trkpt>
      <trkpt lat="45.97789" lon="6.24122">
        <ele>911</ele>
        <time>2016-08-27T06:26:27.000Z</time>
      </trkpt>
      <trkpt lat="45.97788" lon="6.24121">
        <ele>911</ele>
        <time>2016-08-27T06:26:28.000Z</time>
      </trkpt>
      <trkpt lat="45.97788" lon="6.24119">
        <ele>911</ele>
        <time>2016-08-27T06:26:29.000Z</time>
      </trkpt>
      <trkpt lat="45.97787" lon="6.24118">
        <ele>912</ele>
        <time>2016-08-27T06:26:30.000Z</time>
      </trkpt>
      <trkpt lat="45.97787" lon="6.24117">
        <ele>912</ele>
        <time>2016-08-27T06:26:31.000Z</time>
      </trkpt>
      <trkpt lat="45.97787" lon="6.24115">
        <ele>912</ele>
        <time>2016-08-27T06:26:32.000Z</time>
      </trkpt>
      <trkpt lat="45.97786" lon="6.24114">
        <ele>912</ele>
        <time>2016-08-27T06:26:33.000Z</time>
      </trkpt>
      <trkpt lat="45.97785" lon="6.24113">
        <ele>913</ele>
        <time>2016-08-27T06:26:34.000Z</time>
      </trkpt>
      <trkpt lat="45.97785" lon="6.24112">
        <ele>913</ele>
        <time>2016-08-27T06:26:35.000Z</time>
      </trkpt>
      <trkpt lat="45.97784" lon="6.24112">
        <ele>913</ele>
        <time>2016-08-27T06:26:36.000Z</time>
      </trkpt>
      <trkpt lat="45.97783" lon="6.24111">
        <ele>913</ele>
        <time>2016-08-27T06:26:37.000Z</time>
      </trkpt>
      <trkpt lat="45.97782" lon="6.2411">
        <ele>913</ele>
        <time>2016-08-27T06:26:38.000Z</time>
      </trkpt>
      <trkpt lat="45.97782" lon="6.2411">
        <ele>913</ele>
        <time>2016-08-27T06:26:39.000Z</time>
      </trkpt>
      <trkpt lat="45.97781" lon="6.2411">
        <ele>913</ele>
        <time>2016-08-27T06:26:40.000Z</time>
      </trkpt>
      <trkpt lat="45.97781" lon="6.24109">
        <ele>913</ele>
        <time>2016-08-27T06:26:41.000Z</time>
      </trkpt>
      <trkpt lat="45.97781" lon="6.24109">
        <ele>914</ele>
        <time>2016-08-27T06:26:42.000Z</time>
      </trkpt>
      <trkpt lat="45.9778" lon="6.24108">
        <ele>914</ele>
        <time>2016-08-27T06:26:43.000Z</time>
      </trkpt>
      <trkpt lat="45.9778" lon="6.24107">
        <ele>914</ele>
        <time>2016-08-27T06:26:44.000Z</time>
      </trkpt>
      <trkpt lat="45.9778" lon="6.24106">
        <ele>914</ele>
        <time>2016-08-27T06:26:45.000Z</time>
      </trkpt>
      <trkpt lat="45.97779" lon="6.24106">
        <ele>915</ele>
        <time>2016-08-27T06:26:46.000Z</time>
      </trkpt>
      <trkpt lat="45.97779" lon="6.24105">
        <ele>915</ele>
        <time>2016-08-27T06:26:47.000Z</time>
      </trkpt>
      <trkpt lat="45.97779" lon="6.24104">
        <ele>915</ele>
        <time>2016-08-27T06:26:48.000Z</time>
      </trkpt>
      <trkpt lat="45.97779" lon="6.24103">
        <ele>915</ele>
        <time>2016-08-27T06:26:49.000Z</time>
      </trkpt>
      <trkpt lat="45.97779" lon="6.24102">
        <ele>916</ele>
        <time>2016-08-27T06:26:50.000Z</time>
      </trkpt>
      <trkpt lat="45.97778" lon="6.241">
        <ele>916</ele>
        <time>2016-08-27T06:26:51.000Z</time>
      </trkpt>
      <trkpt lat="45.97778" lon="6.24099">
        <ele>916</ele>
        <time>2016-08-27T06:26:52.000Z</time>
      </trkpt>
      <trkpt lat="45.97777" lon="6.24098">
        <ele>916</ele>
        <time>2016-08-27T06:26:53.000Z</time>
      </trkpt>
      <trkpt lat="45.97777" lon="6.24098">
        <ele>917</ele>
        <time>2016-08-27T06:26:54.000Z</time>
      </trkpt>
      <trkpt lat="45.97776" lon="6.24097">
        <ele>917</ele>
        <time>2016-08-27T06:26:55.000Z</time>
      </trkpt>
      <trkpt lat="45.97776" lon="6.24096">
        <ele>917</ele>
        <time>2016-08-27T06:26:56.000Z</time>
      </trkpt>
      <trkpt lat="45.97775" lon="6.24095">
        <ele>917</ele>
        <time>2016-08-27T06:26:57.000Z</time>
      </trkpt>
      <trkpt lat="45.97774" lon="6.24094">
        <ele>918</ele>
        <time>2016-08-27T06:26:58.000Z</time>
      </trkpt>
      <trkpt lat="45.97774" lon="6.24094">
        <ele>918</ele>
        <time>2016-08-27T06:26:59.000Z</time>
      </trkpt>
      <trkpt lat="45.97773" lon="6.24093">
        <ele>919</ele>
        <time>2016-08-27T06:27:00.000Z</time>
      </trkpt>
      <trkpt lat="45.97772" lon="6.24093">
        <ele>919</ele>
        <time>2016-08-27T06:27:01.000Z</time>
      </trkpt>
      <trkpt lat="45.97772" lon="6.24092">
        <ele>919</ele>
        <time>2016-08-27T06:27:02.000Z</time>
      </trkpt>
      <trkpt lat="45.97771" lon="6.24092">
        <ele>919</ele>
        <time>2016-08-27T06:27:03.000Z</time>
      </trkpt>
      <trkpt lat="45.9777" lon="6.24091">
        <ele>920</ele>
        <time>2016-08-27T06:27:04.000Z</time>
      </trkpt>
      <trkpt lat="45.9777" lon="6.2409">
        <ele>920</ele>
        <time>2016-08-27T06:27:05.000Z</time>
      </trkpt>
      <trkpt lat="45.9777" lon="6.2409">
        <ele>920</ele>
        <time>2016-08-27T06:27:06.000Z</time>
      </trkpt>
      <trkpt lat="45.97769" lon="6.24089">
        <ele>920</ele>
        <time>2016-08-27T06:27:07.000Z</time>
      </trkpt>
      <trkpt lat="45.97769" lon="6.24088">
        <ele>921</ele>
        <time>2016-08-27T06:27:08.000Z</time>
      </trkpt>
      <trkpt lat="45.9777" lon="6.24087">
        <ele>921</ele>
        <time>2016-08-27T06:27:09.000Z</time>
      </trkpt>
      <trkpt lat="45.9777" lon="6.24086">
        <ele>921</ele>
        <time>2016-08-27T06:27:10.000Z</time>
      </trkpt>
      <trkpt lat="45.9777" lon="6.24085">
        <ele>921</ele>
        <time>2016-08-27T06:27:11.000Z</time>
      </trkpt>
      <trkpt lat="45.9777" lon="6.24084">
        <ele>922</ele>
        <time>2016-08-27T06:27:12.000Z</time>
      </trkpt>
      <trkpt lat="45.97771" lon="6.24083">
        <ele>922</ele>
        <time>2016-08-27T06:27:13.000Z</time>
      </trkpt>
      <trkpt lat="45.97771" lon="6.24082">
        <ele>923</ele>
        <time>2016-08-27T06:27:14.000Z</time>
      </trkpt>
      <trkpt lat="45.97771" lon="6.2408">
        <ele>923</ele>
        <time>2016-08-27T06:27:15.000Z</time>
      </trkpt>
      <trkpt lat="45.97771" lon="6.24079">
        <ele>924</ele>
        <time>2016-08-27T06:27:16.000Z</time>
      </trkpt>
      <trkpt lat="45.97772" lon="6.24078">
        <ele>924</ele>
        <time>2016-08-27T06:27:17.000Z</time>
      </trkpt>
      <trkpt lat="45.97772" lon="6.24076">
        <ele>925</ele>
        <time>2016-08-27T06:27:18.000Z</time>
      </trkpt>
      <trkpt lat="45.97772" lon="6.24075">
        <ele>925</ele>
        <time>2016-08-27T06:27:19.000Z</time>
      </trkpt>
      <trkpt lat="45.97772" lon="6.24074">
        <ele>926</ele>
        <time>2016-08-27T06:27:20.000Z</time>
      </trkpt>
      <trkpt lat="45.97772" lon="6.24073">
        <ele>926</ele>
        <time>2016-08-27T06:27:21.000Z</time>
      </trkpt>
      <trkpt lat="45.97772" lon="6.24071">
        <ele>927</ele>
        <time>2016-08-27T06:27:22.000Z</time>
      </trkpt>
      <trkpt lat="45.97772" lon="6.2407">
        <ele>927</ele>
        <time>2016-08-27T06:27:23.000Z</time>
      </trkpt>
      <trkpt lat="45.97772" lon="6.24068">
        <ele>927</ele>
        <time>2016-08-27T06:27:24.000Z</time>
      </trkpt>
      <trkpt lat="45.97772" lon="6.24067">
        <ele>927</ele>
        <time>2016-08-27T06:27:25.000Z</time>
      </trkpt>
      <trkpt lat="45.97772" lon="6.24065">
        <ele>928</ele>
        <time>2016-08-27T06:27:26.000Z</time>
      </trkpt>
      <trkpt lat="45.97772" lon="6.24064">
        <ele>928</ele>
        <time>2016-08-27T06:27:27.000Z</time>
      </trkpt>
      <trkpt lat="45.97772" lon="6.24063">
        <ele>929</ele>
        <time>2016-08-27T06:27:28.000Z</time>
      </trkpt>
      <trkpt lat="45.97772" lon="6.24062">
        <ele>929</ele>
        <time>2016-08-27T06:27:29.000Z</time>
      </trkpt>
      <trkpt lat="45.97772" lon="6.2406">
        <ele>929</ele>
        <time>2016-08-27T06:27:30.000Z</time>
      </trkpt>
      <trkpt lat="45.97772" lon="6.24059">
        <ele>929</ele>
        <time>2016-08-27T06:27:31.000Z</time>
      </trkpt>
      <trkpt lat="45.97773" lon="6.24058">
        <ele>929</ele>
        <time>2016-08-27T06:27:32.000Z</time>
      </trkpt>
      <trkpt lat="45.97773" lon="6.24056">
        <ele>929</ele>
        <time>2016-08-27T06:27:33.000Z</time>
      </trkpt>
      <trkpt lat="45.97773" lon="6.24054">
        <ele>930</ele>
        <time>2016-08-27T06:27:34.000Z</time>
      </trkpt>
      <trkpt lat="45.97773" lon="6.24053">
        <ele>930</ele>
        <time>2016-08-27T06:27:35.000Z</time>
      </trkpt>
      <trkpt lat="45.97773" lon="6.24051">
        <ele>931</ele>
        <time>2016-08-27T06:27:36.000Z</time>
      </trkpt>
      <trkpt lat="45.97773" lon="6.2405">
        <ele>931</ele>
        <time>2016-08-27T06:27:37.000Z</time>
      </trkpt>
      <trkpt lat="45.97773" lon="6.24048">
        <ele>931</ele>
        <time>2016-08-27T06:27:38.000Z</time>
      </trkpt>
      <trkpt lat="45.97773" lon="6.24047">
        <ele>931</ele>
        <time>2016-08-27T06:27:39.000Z</time>
      </trkpt>
      <trkpt lat="45.97773" lon="6.24046">
        <ele>932</ele>
        <time>2016-08-27T06:27:40.000Z</time>
      </trkpt>
      <trkpt lat="45.97772" lon="6.24044">
        <ele>932</ele>
        <time>2016-08-27T06:27:41.000Z</time>
      </trkpt>
      <trkpt lat="45.97772" lon="6.24043">
        <ele>932</ele>
        <time>2016-08-27T06:27:42.000Z</time>
      </trkpt>
      <trkpt lat="45.97773" lon="6.24041">
        <ele>932</ele>
        <time>2016-08-27T06:27:43.000Z</time>
      </trkpt>
      <trkpt lat="45.97773" lon="6.2404">
        <ele>932</ele>
        <time>2016-08-27T06:27:44.000Z</time>
      </trkpt>
      <trkpt lat="45.97773" lon="6.24039">
        <ele>932</ele>
        <time>2016-08-27T06:27:45.000Z</time>
      </trkpt>
      <trkpt lat="45.97774" lon="6.24037">
        <ele>933</ele>
        <time>2016-08-27T06:27:46.000Z</time>
      </trkpt>
      <trkpt lat="45.97775" lon="6.24036">
        <ele>933</ele>
        <time>2016-08-27T06:27:47.000Z</time>
      </trkpt>
      <trkpt lat="45.97775" lon="6.24034">
        <ele>933</ele>
        <time>2016-08-27T06:27:48.000Z</time>
      </trkpt>
      <trkpt lat="45.97775" lon="6.24033">
        <ele>933</ele>
        <time>2016-08-27T06:27:49.000Z</time>
      </trkpt>
      <trkpt lat="45.97776" lon="6.24032">
        <ele>933</ele>
        <time>2016-08-27T06:27:50.000Z</time>
      </trkpt>
      <trkpt lat="45.97776" lon="6.24031">
        <ele>933</ele>
        <time>2016-08-27T06:27:51.000Z</time>
      </trkpt>
      <trkpt lat="45.97776" lon="6.2403">
        <ele>933</ele>
        <time>2016-08-27T06:27:52.000Z</time>
      </trkpt>
      <trkpt lat="45.97776" lon="6.24028">
        <ele>933</ele>
        <time>2016-08-27T06:27:53.000Z</time>
      </trkpt>
      <trkpt lat="45.97776" lon="6.24027">
        <ele>933</ele>
        <time>2016-08-27T06:27:54.000Z</time>
      </trkpt>
      <trkpt lat="45.97777" lon="6.24026">
        <ele>933</ele>
        <time>2016-08-27T06:27:55.000Z</time>
      </trkpt>
      <trkpt lat="45.97777" lon="6.24025">
        <ele>933</ele>
        <time>2016-08-27T06:27:56.000Z</time>
      </trkpt>
      <trkpt lat="45.97777" lon="6.24024">
        <ele>933</ele>
        <time>2016-08-27T06:27:57.000Z</time>
      </trkpt>
      <trkpt lat="45.97777" lon="6.24023">
        <ele>933</ele>
        <time>2016-08-27T06:27:58.000Z</time>
      </trkpt>
      <trkpt lat="45.97777" lon="6.24021">
        <ele>933</ele>
        <time>2016-08-27T06:27:59.000Z</time>
      </trkpt>
      <trkpt lat="45.97776" lon="6.2402">
        <ele>933</ele>
        <time>2016-08-27T06:28:00.000Z</time>
      </trkpt>
      <trkpt lat="45.97776" lon="6.24019">
        <ele>933</ele>
        <time>2016-08-27T06:28:01.000Z</time>
      </trkpt>
      <trkpt lat="45.97776" lon="6.24018">
        <ele>933</ele>
        <time>2016-08-27T06:28:02.000Z</time>
      </trkpt>
      <trkpt lat="45.97776" lon="6.24018">
        <ele>933</ele>
        <time>2016-08-27T06:28:03.000Z</time>
      </trkpt>
      <trkpt lat="45.97776" lon="6.24017">
        <ele>934</ele>
        <time>2016-08-27T06:28:04.000Z</time>
      </trkpt>
      <trkpt lat="45.97775" lon="6.24016">
        <ele>934</ele>
        <time>2016-08-27T06:28:05.000Z</time>
      </trkpt>
      <trkpt lat="45.97775" lon="6.24015">
        <ele>934</ele>
        <time>2016-08-27T06:28:06.000Z</time>
      </trkpt>
      <trkpt lat="45.97775" lon="6.24015">
        <ele>934</ele>
        <time>2016-08-27T06:28:07.000Z</time>
      </trkpt>
      <trkpt lat="45.97774" lon="6.24014">
        <ele>934</ele>
        <time>2016-08-27T06:28:08.000Z</time>
      </trkpt>
      <trkpt lat="45.97773" lon="6.24013">
        <ele>934</ele>
        <time>2016-08-27T06:28:09.000Z</time>
      </trkpt>
      <trkpt lat="45.97773" lon="6.24012">
        <ele>935</ele>
        <time>2016-08-27T06:28:10.000Z</time>
      </trkpt>
      <trkpt lat="45.97772" lon="6.24011">
        <ele>935</ele>
        <time>2016-08-27T06:28:11.000Z</time>
      </trkpt>
      <trkpt lat="45.97772" lon="6.24011">
        <ele>935</ele>
        <time>2016-08-27T06:28:12.000Z</time>
      </trkpt>
      <trkpt lat="45.97771" lon="6.2401">
        <ele>935</ele>
        <time>2016-08-27T06:28:13.000Z</time>
      </trkpt>
      <trkpt lat="45.9777" lon="6.2401">
        <ele>935</ele>
        <time>2016-08-27T06:28:14.000Z</time>
      </trkpt>
      <trkpt lat="45.9777" lon="6.24009">
        <ele>935</ele>
        <time>2016-08-27T06:28:15.000Z</time>
      </trkpt>
      <trkpt lat="45.97769" lon="6.24009">
        <ele>936</ele>
        <time>2016-08-27T06:28:16.000Z</time>
      </trkpt>
      <trkpt lat="45.97769" lon="6.24008">
        <ele>936</ele>
        <time>2016-08-27T06:28:17.000Z</time>
      </trkpt>
      <trkpt lat="45.97768" lon="6.24007">
        <ele>936</ele>
        <time>2016-08-27T06:28:18.000Z</time>
      </trkpt>
      <trkpt lat="45.97768" lon="6.24007">
        <ele>936</ele>
        <time>2016-08-27T06:28:19.000Z</time>
      </trkpt>
      <trkpt lat="45.97767" lon="6.24006">
        <ele>936</ele>
        <time>2016-08-27T06:28:20.000Z</time>
      </trkpt>
      <trkpt lat="45.97767" lon="6.24005">
        <ele>936</ele>
        <time>2016-08-27T06:28:21.000Z</time>
      </trkpt>
      <trkpt lat="45.97766" lon="6.24004">
        <ele>937</ele>
        <time>2016-08-27T06:28:22.000Z</time>
      </trkpt>
      <trkpt lat="45.97766" lon="6.24004">
        <ele>937</ele>
        <time>2016-08-27T06:28:23.000Z</time>
      </trkpt>
      <trkpt lat="45.97765" lon="6.24003">
        <ele>937</ele>
        <time>2016-08-27T06:28:24.000Z</time>
      </trkpt>
      <trkpt lat="45.97765" lon="6.24002">
        <ele>937</ele>
        <time>2016-08-27T06:28:25.000Z</time>
      </trkpt>
      <trkpt lat="45.97764" lon="6.24001">
        <ele>937</ele>
        <time>2016-08-27T06:28:26.000Z</time>
      </trkpt>
      <trkpt lat="45.97763" lon="6.24001">
        <ele>937</ele>
        <time>2016-08-27T06:28:27.000Z</time>
      </trkpt>
      <trkpt lat="45.97763" lon="6.24">
        <ele>937</ele>
        <time>2016-08-27T06:28:28.000Z</time>
      </trkpt>
      <trkpt lat="45.97762" lon="6.24">
        <ele>937</ele>
        <time>2016-08-27T06:28:29.000Z</time>
      </trkpt>
      <trkpt lat="45.97761" lon="6.24">
        <ele>937</ele>
        <time>2016-08-27T06:28:30.000Z</time>
      </trkpt>
      <trkpt lat="45.97761" lon="6.23999">
        <ele>937</ele>
        <time>2016-08-27T06:28:31.000Z</time>
      </trkpt>
      <trkpt lat="45.9776" lon="6.23999">
        <ele>938</ele>
        <time>2016-08-27T06:28:32.000Z</time>
      </trkpt>
      <trkpt lat="45.9776" lon="6.23998">
        <ele>938</ele>
        <time>2016-08-27T06:28:33.000Z</time>
      </trkpt>
      <trkpt lat="45.97759" lon="6.23998">
        <ele>938</ele>
        <time>2016-08-27T06:28:34.000Z</time>
      </trkpt>
      <trkpt lat="45.97759" lon="6.23997">
        <ele>938</ele>
        <time>2016-08-27T06:28:35.000Z</time>
      </trkpt>
      <trkpt lat="45.97758" lon="6.23996">
        <ele>938</ele>
        <time>2016-08-27T06:28:36.000Z</time>
      </trkpt>
      <trkpt lat="45.97758" lon="6.23995">
        <ele>938</ele>
        <time>2016-08-27T06:28:37.000Z</time>
      </trkpt>
      <trkpt lat="45.97758" lon="6.23994">
        <ele>939</ele>
        <time>2016-08-27T06:28:38.000Z</time>
      </trkpt>
      <trkpt lat="45.97757" lon="6.23994">
        <ele>939</ele>
        <time>2016-08-27T06:28:39.000Z</time>
      </trkpt>
      <trkpt lat="45.97757" lon="6.23993">
        <ele>939</ele>
        <time>2016-08-27T06:28:40.000Z</time>
      </trkpt>
      <trkpt lat="45.97756" lon="6.23993">
        <ele>939</ele>
        <time>2016-08-27T06:28:41.000Z</time>
      </trkpt>
      <trkpt lat="45.97756" lon="6.23992">
        <ele>940</ele>
        <time>2016-08-27T06:28:42.000Z</time>
      </trkpt>
      <trkpt lat="45.97756" lon="6.23991">
        <ele>940</ele>
        <time>2016-08-27T06:28:43.000Z</time>
      </trkpt>
      <trkpt lat="45.97756" lon="6.2399">
        <ele>940</ele>
        <time>2016-08-27T06:28:44.000Z</time>
      </trkpt>
      <trkpt lat="45.97755" lon="6.23989">
        <ele>940</ele>
        <time>2016-08-27T06:28:45.000Z</time>
      </trkpt>
      <trkpt lat="45.97755" lon="6.23988">
        <ele>940</ele>
        <time>2016-08-27T06:28:46.000Z</time>
      </trkpt>
      <trkpt lat="45.97755" lon="6.23987">
        <ele>940</ele>
        <time>2016-08-27T06:28:47.000Z</time>
      </trkpt>
      <trkpt lat="45.97755" lon="6.23986">
        <ele>941</ele>
        <time>2016-08-27T06:28:48.000Z</time>
      </trkpt>
      <trkpt lat="45.97754" lon="6.23985">
        <ele>941</ele>
        <time>2016-08-27T06:28:49.000Z</time>
      </trkpt>
      <trkpt lat="45.97754" lon="6.23984">
        <ele>941</ele>
        <time>2016-08-27T06:28:50.000Z</time>
      </trkpt>
      <trkpt lat="45.97753" lon="6.23983">
        <ele>941</ele>
        <time>2016-08-27T06:28:51.000Z</time>
      </trkpt>
      <trkpt lat="45.97753" lon="6.23983">
        <ele>941</ele>
        <time>2016-08-27T06:28:52.000Z</time>
      </trkpt>
      <trkpt lat="45.97752" lon="6.23982">
        <ele>941</ele>
        <time>2016-08-27T06:28:53.000Z</time>
      </trkpt>
      <trkpt lat="45.97751" lon="6.23981">
        <ele>942</ele>
        <time>2016-08-27T06:28:54.000Z</time>
      </trkpt>
      <trkpt lat="45.97751" lon="6.2398">
        <ele>942</ele>
        <time>2016-08-27T06:28:55.000Z</time>
      </trkpt>
      <trkpt lat="45.97751" lon="6.2398">
        <ele>942</ele>
        <time>2016-08-27T06:28:56.000Z</time>
      </trkpt>
      <trkpt lat="45.9775" lon="6.23979">
        <ele>942</ele>
        <time>2016-08-27T06:28:57.000Z</time>
      </trkpt>
      <trkpt lat="45.9775" lon="6.23979">
        <ele>942</ele>
        <time>2016-08-27T06:28:58.000Z</time>
      </trkpt>
      <trkpt lat="45.97749" lon="6.23978">
        <ele>942</ele>
        <time>2016-08-27T06:28:59.000Z</time>
      </trkpt>
      <trkpt lat="45.97748" lon="6.23978">
        <ele>943</ele>
        <time>2016-08-27T06:29:00.000Z</time>
      </trkpt>
      <trkpt lat="45.97748" lon="6.23977">
        <ele>943</ele>
        <time>2016-08-27T06:29:01.000Z</time>
      </trkpt>
      <trkpt lat="45.97747" lon="6.23976">
        <ele>943</ele>
        <time>2016-08-27T06:29:02.000Z</time>
      </trkpt>
      <trkpt lat="45.97747" lon="6.23975">
        <ele>943</ele>
        <time>2016-08-27T06:29:03.000Z</time>
      </trkpt>
      <trkpt lat="45.97747" lon="6.23975">
        <ele>944</ele>
        <time>2016-08-27T06:29:04.000Z</time>
      </trkpt>
      <trkpt lat="45.97746" lon="6.23974">
        <ele>944</ele>
        <time>2016-08-27T06:29:05.000Z</time>
      </trkpt>
      <trkpt lat="45.97746" lon="6.23973">
        <ele>944</ele>
        <time>2016-08-27T06:29:06.000Z</time>
      </trkpt>
      <trkpt lat="45.97746" lon="6.23973">
        <ele>944</ele>
        <time>2016-08-27T06:29:07.000Z</time>
      </trkpt>
      <trkpt lat="45.97745" lon="6.23972">
        <ele>945</ele>
        <time>2016-08-27T06:29:08.000Z</time>
      </trkpt>
      <trkpt lat="45.97745" lon="6.23971">
        <ele>945</ele>
        <time>2016-08-27T06:29:09.000Z</time>
      </trkpt>
      <trkpt lat="45.97744" lon="6.2397">
        <ele>946</ele>
        <time>2016-08-27T06:29:10.000Z</time>
      </trkpt>
      <trkpt lat="45.97744" lon="6.23969">
        <ele>946</ele>
        <time>2016-08-27T06:29:11.000Z</time>
      </trkpt>
      <trkpt lat="45.97743" lon="6.23969">
        <ele>946</ele>
        <time>2016-08-27T06:29:12.000Z</time>
      </trkpt>
      <trkpt lat="45.97743" lon="6.23968">
        <ele>946</ele>
        <time>2016-08-27T06:29:13.000Z</time>
      </trkpt>
      <trkpt lat="45.97742" lon="6.23967">
        <ele>947</ele>
        <time>2016-08-27T06:29:14.000Z</time>
      </trkpt>
      <trkpt lat="45.97742" lon="6.23966">
        <ele>947</ele>
        <time>2016-08-27T06:29:15.000Z</time>
      </trkpt>
      <trkpt lat="45.97741" lon="6.23965">
        <ele>947</ele>
        <time>2016-08-27T06:29:16.000Z</time>
      </trkpt>
      <trkpt lat="45.9774" lon="6.23964">
        <ele>947</ele>
        <time>2016-08-27T06:29:17.000Z</time>
      </trkpt>
      <trkpt lat="45.9774" lon="6.23963">
        <ele>948</ele>
        <time>2016-08-27T06:29:18.000Z</time>
      </trkpt>
      <trkpt lat="45.97739" lon="6.23963">
        <ele>948</ele>
        <time>2016-08-27T06:29:19.000Z</time>
      </trkpt>
      <trkpt lat="45.97739" lon="6.23962">
        <ele>948</ele>
        <time>2016-08-27T06:29:20.000Z</time>
      </trkpt>
      <trkpt lat="45.97739" lon="6.23961">
        <ele>948</ele>
        <time>2016-08-27T06:29:21.000Z</time>
      </trkpt>
      <trkpt lat="45.97739" lon="6.2396">
        <ele>948</ele>
        <time>2016-08-27T06:29:22.000Z</time>
      </trkpt>
      <trkpt lat="45.97739" lon="6.2396">
        <ele>948</ele>
        <time>2016-08-27T06:29:23.000Z</time>
      </trkpt>
      <trkpt lat="45.97739" lon="6.23959">
        <ele>949</ele>
        <time>2016-08-27T06:29:24.000Z</time>
      </trkpt>
      <trkpt lat="45.97738" lon="6.23959">
        <ele>949</ele>
        <time>2016-08-27T06:29:25.000Z</time>
      </trkpt>
      <trkpt lat="45.97738" lon="6.23958">
        <ele>949</ele>
        <time>2016-08-27T06:29:26.000Z</time>
      </trkpt>
      <trkpt lat="45.97739" lon="6.23958">
        <ele>949</ele>
        <time>2016-08-27T06:29:27.000Z</time>
      </trkpt>
      <trkpt lat="45.97739" lon="6.23957">
        <ele>949</ele>
        <time>2016-08-27T06:29:28.000Z</time>
      </trkpt>
      <trkpt lat="45.97739" lon="6.23957">
        <ele>949</ele>
        <time>2016-08-27T06:29:29.000Z</time>
      </trkpt>
      <trkpt lat="45.97739" lon="6.23957">
        <ele>949</ele>
        <time>2016-08-27T06:29:30.000Z</time>
      </trkpt>
      <trkpt lat="45.97739" lon="6.23956">
        <ele>949</ele>
        <time>2016-08-27T06:29:31.000Z</time>
      </trkpt>
      <trkpt lat="45.97739" lon="6.23956">
        <ele>950</ele>
        <time>2016-08-27T06:29:32.000Z</time>
      </trkpt>
      <trkpt lat="45.97739" lon="6.23955">
        <ele>950</ele>
        <time>2016-08-27T06:29:33.000Z</time>
      </trkpt>
      <trkpt lat="45.97739" lon="6.23954">
        <ele>950</ele>
        <time>2016-08-27T06:29:34.000Z</time>
      </trkpt>
      <trkpt lat="45.97738" lon="6.23954">
        <ele>950</ele>
        <time>2016-08-27T06:29:35.000Z</time>
      </trkpt>
      <trkpt lat="45.97738" lon="6.23953">
        <ele>950</ele>
        <time>2016-08-27T06:29:36.000Z</time>
      </trkpt>
      <trkpt lat="45.97738" lon="6.23953">
        <ele>950</ele>
        <time>2016-08-27T06:29:37.000Z</time>
      </trkpt>
      <trkpt lat="45.97737" lon="6.23952">
        <ele>950</ele>
        <time>2016-08-27T06:29:38.000Z</time>
      </trkpt>
      <trkpt lat="45.97736" lon="6.23951">
        <ele>950</ele>
        <time>2016-08-27T06:29:39.000Z</time>
      </trkpt>
      <trkpt lat="45.97736" lon="6.23951">
        <ele>950</ele>
        <time>2016-08-27T06:29:40.000Z</time>
      </trkpt>
      <trkpt lat="45.97735" lon="6.2395">
        <ele>950</ele>
        <time>2016-08-27T06:29:41.000Z</time>
      </trkpt>
      <trkpt lat="45.97735" lon="6.2395">
        <ele>950</ele>
        <time>2016-08-27T06:29:42.000Z</time>
      </trkpt>
      <trkpt lat="45.97735" lon="6.2395">
        <ele>950</ele>
        <time>2016-08-27T06:29:43.000Z</time>
      </trkpt>
      <trkpt lat="45.97735" lon="6.23949">
        <ele>951</ele>
        <time>2016-08-27T06:29:44.000Z</time>
      </trkpt>
      <trkpt lat="45.97734" lon="6.23949">
        <ele>951</ele>
        <time>2016-08-27T06:29:45.000Z</time>
      </trkpt>
      <trkpt lat="45.97734" lon="6.23949">
        <ele>951</ele>
        <time>2016-08-27T06:29:46.000Z</time>
      </trkpt>
      <trkpt lat="45.97734" lon="6.23949">
        <ele>951</ele>
        <time>2016-08-27T06:29:47.000Z</time>
      </trkpt>
      <trkpt lat="45.97733" lon="6.23949">
        <ele>951</ele>
        <time>2016-08-27T06:29:48.000Z</time>
      </trkpt>
      <trkpt lat="45.97733" lon="6.23949">
        <ele>951</ele>
        <time>2016-08-27T06:29:49.000Z</time>
      </trkpt>
      <trkpt lat="45.97732" lon="6.23948">
        <ele>951</ele>
        <time>2016-08-27T06:29:50.000Z</time>
      </trkpt>
      <trkpt lat="45.97732" lon="6.23948">
        <ele>951</ele>
        <time>2016-08-27T06:29:51.000Z</time>
      </trkpt>
      <trkpt lat="45.97731" lon="6.23947">
        <ele>952</ele>
        <time>2016-08-27T06:29:52.000Z</time>
      </trkpt>
      <trkpt lat="45.97731" lon="6.23947">
        <ele>952</ele>
        <time>2016-08-27T06:29:53.000Z</time>
      </trkpt>
      <trkpt lat="45.97731" lon="6.23946">
        <ele>952</ele>
        <time>2016-08-27T06:29:54.000Z</time>
      </trkpt>
      <trkpt lat="45.97731" lon="6.23946">
        <ele>952</ele>
        <time>2016-08-27T06:29:55.000Z</time>
      </trkpt>
      <trkpt lat="45.9773" lon="6.23945">
        <ele>952</ele>
        <time>2016-08-27T06:29:56.000Z</time>
      </trkpt>
      <trkpt lat="45.9773" lon="6.23945">
        <ele>952</ele>
        <time>2016-08-27T06:29:57.000Z</time>
      </trkpt>
      <trkpt lat="45.9773" lon="6.23944">
        <ele>952</ele>
        <time>2016-08-27T06:29:58.000Z</time>
      </trkpt>
      <trkpt lat="45.9773" lon="6.23943">
        <ele>952</ele>
        <time>2016-08-27T06:29:59.000Z</time>
      </trkpt>
      <trkpt lat="45.9773" lon="6.23942">
        <ele>952</ele>
        <time>2016-08-27T06:30:00.000Z</time>
      </trkpt>
      <trkpt lat="45.9773" lon="6.23942">
        <ele>952</ele>
        <time>2016-08-27T06:30:01.000Z</time>
      </trkpt>
      <trkpt lat="45.9773" lon="6.23941">
        <ele>952</ele>
        <time>2016-08-27T06:30:02.000Z</time>
      </trkpt>
      <trkpt lat="45.9773" lon="6.2394">
        <ele>952</ele>
        <time>2016-08-27T06:30:03.000Z</time>
      </trkpt>
      <trkpt lat="45.9773" lon="6.23939">
        <ele>952</ele>
        <time>2016-08-27T06:30:04.000Z</time>
      </trkpt>
      <trkpt lat="45.9773" lon="6.23938">
        <ele>952</ele>
        <time>2016-08-27T06:30:05.000Z</time>
      </trkpt>
      <trkpt lat="45.9773" lon="6.23937">
        <ele>952</ele>
        <time>2016-08-27T06:30:06.000Z</time>
      </trkpt>
      <trkpt lat="45.9773" lon="6.23936">
        <ele>952</ele>
        <time>2016-08-27T06:30:07.000Z</time>
      </trkpt>
      <trkpt lat="45.9773" lon="6.23935">
        <ele>952</ele>
        <time>2016-08-27T06:30:08.000Z</time>
      </trkpt>
      <trkpt lat="45.9773" lon="6.23934">
        <ele>952</ele>
        <time>2016-08-27T06:30:09.000Z</time>
      </trkpt>
      <trkpt lat="45.9773" lon="6.23933">
        <ele>952</ele>
        <time>2016-08-27T06:30:10.000Z</time>
      </trkpt>
      <trkpt lat="45.9773" lon="6.23932">
        <ele>952</ele>
        <time>2016-08-27T06:30:11.000Z</time>
      </trkpt>
      <trkpt lat="45.9773" lon="6.23931">
        <ele>952</ele>
        <time>2016-08-27T06:30:12.000Z</time>
      </trkpt>
      <trkpt lat="45.9773" lon="6.2393">
        <ele>952</ele>
        <time>2016-08-27T06:30:13.000Z</time>
      </trkpt>
      <trkpt lat="45.9773" lon="6.23929">
        <ele>952</ele>
        <time>2016-08-27T06:30:14.000Z</time>
      </trkpt>
      <trkpt lat="45.9773" lon="6.23929">
        <ele>952</ele>
        <time>2016-08-27T06:30:15.000Z</time>
      </trkpt>
      <trkpt lat="45.9773" lon="6.23928">
        <ele>953</ele>
        <time>2016-08-27T06:30:16.000Z</time>
      </trkpt>
      <trkpt lat="45.9773" lon="6.23927">
        <ele>953</ele>
        <time>2016-08-27T06:30:17.000Z</time>
      </trkpt>
      <trkpt lat="45.9773" lon="6.23927">
        <ele>953</ele>
        <time>2016-08-27T06:30:18.000Z</time>
      </trkpt>
      <trkpt lat="45.9773" lon="6.23926">
        <ele>953</ele>
        <time>2016-08-27T06:30:19.000Z</time>
      </trkpt>
      <trkpt lat="45.9773" lon="6.23925">
        <ele>953</ele>
        <time>2016-08-27T06:30:20.000Z</time>
      </trkpt>
      <trkpt lat="45.97729" lon="6.23924">
        <ele>953</ele>
        <time>2016-08-27T06:30:21.000Z</time>
      </trkpt>
      <trkpt lat="45.97729" lon="6.23923">
        <ele>953</ele>
        <time>2016-08-27T06:30:22.000Z</time>
      </trkpt>
      <trkpt lat="45.97728" lon="6.23922">
        <ele>953</ele>
        <time>2016-08-27T06:30:23.000Z</time>
      </trkpt>
      <trkpt lat="45.97728" lon="6.23921">
        <ele>953</ele>
        <time>2016-08-27T06:30:24.000Z</time>
      </trkpt>
      <trkpt lat="45.97727" lon="6.2392">
        <ele>953</ele>
        <time>2016-08-27T06:30:25.000Z</time>
      </trkpt>
      <trkpt lat="45.97727" lon="6.23919">
        <ele>953</ele>
        <time>2016-08-27T06:30:26.000Z</time>
      </trkpt>
      <trkpt lat="45.97727" lon="6.23919">
        <ele>953</ele>
        <time>2016-08-27T06:30:27.000Z</time>
      </trkpt>
      <trkpt lat="45.97726" lon="6.23918">
        <ele>953</ele>
        <time>2016-08-27T06:30:28.000Z</time>
      </trkpt>
      <trkpt lat="45.97726" lon="6.23917">
        <ele>953</ele>
        <time>2016-08-27T06:30:29.000Z</time>
      </trkpt>
      <trkpt lat="45.97725" lon="6.23915">
        <ele>953</ele>
        <time>2016-08-27T06:30:30.000Z</time>
      </trkpt>
      <trkpt lat="45.97725" lon="6.23914">
        <ele>953</ele>
        <time>2016-08-27T06:30:31.000Z</time>
      </trkpt>
      <trkpt lat="45.97724" lon="6.23913">
        <ele>953</ele>
        <time>2016-08-27T06:30:32.000Z</time>
      </trkpt>
      <trkpt lat="45.97724" lon="6.23913">
        <ele>953</ele>
        <time>2016-08-27T06:30:33.000Z</time>
      </trkpt>
      <trkpt lat="45.97724" lon="6.23912">
        <ele>953</ele>
        <time>2016-08-27T06:30:34.000Z</time>
      </trkpt>
      <trkpt lat="45.97723" lon="6.23911">
        <ele>953</ele>
        <time>2016-08-27T06:30:35.000Z</time>
      </trkpt>
      <trkpt lat="45.97723" lon="6.2391">
        <ele>954</ele>
        <time>2016-08-27T06:30:36.000Z</time>
      </trkpt>
      <trkpt lat="45.97723" lon="6.2391">
        <ele>954</ele>
        <time>2016-08-27T06:30:37.000Z</time>
      </trkpt>
      <trkpt lat="45.97722" lon="6.23909">
        <ele>954</ele>
        <time>2016-08-27T06:30:38.000Z</time>
      </trkpt>
      <trkpt lat="45.97722" lon="6.23909">
        <ele>954</ele>
        <time>2016-08-27T06:30:39.000Z</time>
      </trkpt>
      <trkpt lat="45.97722" lon="6.23908">
        <ele>954</ele>
        <time>2016-08-27T06:30:40.000Z</time>
      </trkpt>
      <trkpt lat="45.97722" lon="6.23908">
        <ele>954</ele>
        <time>2016-08-27T06:30:41.000Z</time>
      </trkpt>
      <trkpt lat="45.97722" lon="6.23907">
        <ele>954</ele>
        <time>2016-08-27T06:30:42.000Z</time>
      </trkpt>
      <trkpt lat="45.97721" lon="6.23906">
        <ele>954</ele>
        <time>2016-08-27T06:30:43.000Z</time>
      </trkpt>
      <trkpt lat="45.97721" lon="6.23906">
        <ele>954</ele>
        <time>2016-08-27T06:30:44.000Z</time>
      </trkpt>
      <trkpt lat="45.9772" lon="6.23906">
        <ele>954</ele>
        <time>2016-08-27T06:30:45.000Z</time>
      </trkpt>
      <trkpt lat="45.9772" lon="6.23905">
        <ele>954</ele>
        <time>2016-08-27T06:30:46.000Z</time>
      </trkpt>
      <trkpt lat="45.9772" lon="6.23904">
        <ele>954</ele>
        <time>2016-08-27T06:30:47.000Z</time>
      </trkpt>
      <trkpt lat="45.97719" lon="6.23904">
        <ele>955</ele>
        <time>2016-08-27T06:30:48.000Z</time>
      </trkpt>
      <trkpt lat="45.97719" lon="6.23903">
        <ele>955</ele>
        <time>2016-08-27T06:30:49.000Z</time>
      </trkpt>
      <trkpt lat="45.97719" lon="6.23903">
        <ele>955</ele>
        <time>2016-08-27T06:30:50.000Z</time>
      </trkpt>
      <trkpt lat="45.97718" lon="6.23902">
        <ele>955</ele>
        <time>2016-08-27T06:30:51.000Z</time>
      </trkpt>
      <trkpt lat="45.97718" lon="6.23902">
        <ele>956</ele>
        <time>2016-08-27T06:30:52.000Z</time>
      </trkpt>
      <trkpt lat="45.97718" lon="6.23901">
        <ele>956</ele>
        <time>2016-08-27T06:30:53.000Z</time>
      </trkpt>
      <trkpt lat="45.97718" lon="6.239">
        <ele>956</ele>
        <time>2016-08-27T06:30:54.000Z</time>
      </trkpt>
      <trkpt lat="45.97717" lon="6.23899">
        <ele>956</ele>
        <time>2016-08-27T06:30:55.000Z</time>
      </trkpt>
      <trkpt lat="45.97717" lon="6.23898">
        <ele>956</ele>
        <time>2016-08-27T06:30:56.000Z</time>
      </trkpt>
      <trkpt lat="45.97716" lon="6.23897">
        <ele>956</ele>
        <time>2016-08-27T06:30:57.000Z</time>
      </trkpt>
      <trkpt lat="45.97716" lon="6.23896">
        <ele>957</ele>
        <time>2016-08-27T06:30:58.000Z</time>
      </trkpt>
      <trkpt lat="45.97716" lon="6.23896">
        <ele>957</ele>
        <time>2016-08-27T06:30:59.000Z</time>
      </trkpt>
      <trkpt lat="45.97716" lon="6.23895">
        <ele>957</ele>
        <time>2016-08-27T06:31:00.000Z</time>
      </trkpt>
      <trkpt lat="45.97716" lon="6.23895">
        <ele>957</ele>
        <time>2016-08-27T06:31:01.000Z</time>
      </trkpt>
      <trkpt lat="45.97716" lon="6.23894">
        <ele>958</ele>
        <time>2016-08-27T06:31:02.000Z</time>
      </trkpt>
      <trkpt lat="45.97715" lon="6.23893">
        <ele>958</ele>
        <time>2016-08-27T06:31:03.000Z</time>
      </trkpt>
      <trkpt lat="45.97715" lon="6.23893">
        <ele>958</ele>
        <time>2016-08-27T06:31:04.000Z</time>
      </trkpt>
      <trkpt lat="45.97715" lon="6.23893">
        <ele>958</ele>
        <time>2016-08-27T06:31:05.000Z</time>
      </trkpt>
      <trkpt lat="45.97714" lon="6.23893">
        <ele>959</ele>
        <time>2016-08-27T06:31:06.000Z</time>
      </trkpt>
      <trkpt lat="45.97714" lon="6.23893">
        <ele>959</ele>
        <time>2016-08-27T06:31:07.000Z</time>
      </trkpt>
      <trkpt lat="45.97713" lon="6.23892">
        <ele>959</ele>
        <time>2016-08-27T06:31:08.000Z</time>
      </trkpt>
      <trkpt lat="45.97713" lon="6.23892">
        <ele>959</ele>
        <time>2016-08-27T06:31:09.000Z</time>
      </trkpt>
      <trkpt lat="45.97713" lon="6.23891">
        <ele>959</ele>
        <time>2016-08-27T06:31:10.000Z</time>
      </trkpt>
      <trkpt lat="45.97712" lon="6.23891">
        <ele>959</ele>
        <time>2016-08-27T06:31:11.000Z</time>
      </trkpt>
      <trkpt lat="45.97711" lon="6.23891">
        <ele>960</ele>
        <time>2016-08-27T06:31:12.000Z</time>
      </trkpt>
      <trkpt lat="45.97711" lon="6.2389">
        <ele>960</ele>
        <time>2016-08-27T06:31:13.000Z</time>
      </trkpt>
      <trkpt lat="45.9771" lon="6.2389">
        <ele>960</ele>
        <time>2016-08-27T06:31:14.000Z</time>
      </trkpt>
      <trkpt lat="45.9771" lon="6.2389">
        <ele>960</ele>
        <time>2016-08-27T06:31:15.000Z</time>
      </trkpt>
      <trkpt lat="45.97709" lon="6.23889">
        <ele>961</ele>
        <time>2016-08-27T06:31:16.000Z</time>
      </trkpt>
      <trkpt lat="45.97709" lon="6.23888">
        <ele>961</ele>
        <time>2016-08-27T06:31:17.000Z</time>
      </trkpt>
      <trkpt lat="45.97708" lon="6.23888">
        <ele>962</ele>
        <time>2016-08-27T06:31:18.000Z</time>
      </trkpt>
      <trkpt lat="45.97708" lon="6.23888">
        <ele>962</ele>
        <time>2016-08-27T06:31:19.000Z</time>
      </trkpt>
      <trkpt lat="45.97707" lon="6.23888">
        <ele>962</ele>
        <time>2016-08-27T06:31:20.000Z</time>
      </trkpt>
      <trkpt lat="45.97706" lon="6.23887">
        <ele>962</ele>
        <time>2016-08-27T06:31:21.000Z</time>
      </trkpt>
      <trkpt lat="45.97706" lon="6.23887">
        <ele>963</ele>
        <time>2016-08-27T06:31:22.000Z</time>
      </trkpt>
      <trkpt lat="45.97705" lon="6.23887">
        <ele>963</ele>
        <time>2016-08-27T06:31:23.000Z</time>
      </trkpt>
      <trkpt lat="45.97704" lon="6.23887">
        <ele>963</ele>
        <time>2016-08-27T06:31:24.000Z</time>
      </trkpt>
      <trkpt lat="45.97703" lon="6.23887">
        <ele>963</ele>
        <time>2016-08-27T06:31:25.000Z</time>
      </trkpt>
      <trkpt lat="45.97702" lon="6.23887">
        <ele>964</ele>
        <time>2016-08-27T06:31:26.000Z</time>
      </trkpt>
      <trkpt lat="45.97701" lon="6.23886">
        <ele>964</ele>
        <time>2016-08-27T06:31:27.000Z</time>
      </trkpt>
      <trkpt lat="45.97701" lon="6.23886">
        <ele>964</ele>
        <time>2016-08-27T06:31:28.000Z</time>
      </trkpt>
      <trkpt lat="45.977" lon="6.23885">
        <ele>964</ele>
        <time>2016-08-27T06:31:29.000Z</time>
      </trkpt>
      <trkpt lat="45.977" lon="6.23885">
        <ele>965</ele>
        <time>2016-08-27T06:31:30.000Z</time>
      </trkpt>
      <trkpt lat="45.97699" lon="6.23884">
        <ele>965</ele>
        <time>2016-08-27T06:31:31.000Z</time>
      </trkpt>
      <trkpt lat="45.97698" lon="6.23884">
        <ele>966</ele>
        <time>2016-08-27T06:31:32.000Z</time>
      </trkpt>
      <trkpt lat="45.97697" lon="6.23884">
        <ele>966</ele>
        <time>2016-08-27T06:31:33.000Z</time>
      </trkpt>
      <trkpt lat="45.97697" lon="6.23883">
        <ele>966</ele>
        <time>2016-08-27T06:31:34.000Z</time>
      </trkpt>
      <trkpt lat="45.97696" lon="6.23883">
        <ele>966</ele>
        <time>2016-08-27T06:31:35.000Z</time>
      </trkpt>
      <trkpt lat="45.97695" lon="6.23883">
        <ele>967</ele>
        <time>2016-08-27T06:31:36.000Z</time>
      </trkpt>
      <trkpt lat="45.97695" lon="6.23882">
        <ele>967</ele>
        <time>2016-08-27T06:31:37.000Z</time>
      </trkpt>
      <trkpt lat="45.97694" lon="6.23882">
        <ele>967</ele>
        <time>2016-08-27T06:31:38.000Z</time>
      </trkpt>
      <trkpt lat="45.97694" lon="6.23882">
        <ele>967</ele>
        <time>2016-08-27T06:31:39.000Z</time>
      </trkpt>
      <trkpt lat="45.97693" lon="6.23881">
        <ele>968</ele>
        <time>2016-08-27T06:31:40.000Z</time>
      </trkpt>
      <trkpt lat="45.97693" lon="6.23881">
        <ele>968</ele>
        <time>2016-08-27T06:31:41.000Z</time>
      </trkpt>
      <trkpt lat="45.97692" lon="6.23881">
        <ele>968</ele>
        <time>2016-08-27T06:31:42.000Z</time>
      </trkpt>
      <trkpt lat="45.97691" lon="6.2388">
        <ele>968</ele>
        <time>2016-08-27T06:31:43.000Z</time>
      </trkpt>
      <trkpt lat="45.9769" lon="6.2388">
        <ele>968</ele>
        <time>2016-08-27T06:31:44.000Z</time>
      </trkpt>
      <trkpt lat="45.97689" lon="6.23879">
        <ele>968</ele>
        <time>2016-08-27T06:31:45.000Z</time>
      </trkpt>
      <trkpt lat="45.97689" lon="6.23879">
        <ele>968</ele>
        <time>2016-08-27T06:31:46.000Z</time>
      </trkpt>
      <trkpt lat="45.97688" lon="6.23879">
        <ele>968</ele>
        <time>2016-08-27T06:31:47.000Z</time>
      </trkpt>
      <trkpt lat="45.97687" lon="6.23878">
        <ele>969</ele>
        <time>2016-08-27T06:31:48.000Z</time>
      </trkpt>
      <trkpt lat="45.97686" lon="6.23878">
        <ele>969</ele>
        <time>2016-08-27T06:31:49.000Z</time>
      </trkpt>
      <trkpt lat="45.97686" lon="6.23877">
        <ele>969</ele>
        <time>2016-08-27T06:31:50.000Z</time>
      </trkpt>
      <trkpt lat="45.97685" lon="6.23877">
        <ele>969</ele>
        <time>2016-08-27T06:31:51.000Z</time>
      </trkpt>
      <trkpt lat="45.97684" lon="6.23876">
        <ele>970</ele>
        <time>2016-08-27T06:31:52.000Z</time>
      </trkpt>
      <trkpt lat="45.97684" lon="6.23875">
        <ele>970</ele>
        <time>2016-08-27T06:31:53.000Z</time>
      </trkpt>
      <trkpt lat="45.97683" lon="6.23874">
        <ele>970</ele>
        <time>2016-08-27T06:31:54.000Z</time>
      </trkpt>
      <trkpt lat="45.97683" lon="6.23874">
        <ele>970</ele>
        <time>2016-08-27T06:31:55.000Z</time>
      </trkpt>
      <trkpt lat="45.97682" lon="6.23874">
        <ele>970</ele>
        <time>2016-08-27T06:31:56.000Z</time>
      </trkpt>
      <trkpt lat="45.97681" lon="6.23873">
        <ele>970</ele>
        <time>2016-08-27T06:31:57.000Z</time>
      </trkpt>
      <trkpt lat="45.9768" lon="6.23873">
        <ele>971</ele>
        <time>2016-08-27T06:31:58.000Z</time>
      </trkpt>
      <trkpt lat="45.9768" lon="6.23872">
        <ele>971</ele>
        <time>2016-08-27T06:31:59.000Z</time>
      </trkpt>
      <trkpt lat="45.97679" lon="6.23872">
        <ele>971</ele>
        <time>2016-08-27T06:32:00.000Z</time>
      </trkpt>
      <trkpt lat="45.97678" lon="6.23871">
        <ele>971</ele>
        <time>2016-08-27T06:32:01.000Z</time>
      </trkpt>
      <trkpt lat="45.97677" lon="6.23871">
        <ele>971</ele>
        <time>2016-08-27T06:32:02.000Z</time>
      </trkpt>
      <trkpt lat="45.97676" lon="6.2387">
        <ele>971</ele>
        <time>2016-08-27T06:32:03.000Z</time>
      </trkpt>
      <trkpt lat="45.97676" lon="6.2387">
        <ele>972</ele>
        <time>2016-08-27T06:32:04.000Z</time>
      </trkpt>
      <trkpt lat="45.97675" lon="6.2387">
        <ele>972</ele>
        <time>2016-08-27T06:32:05.000Z</time>
      </trkpt>
      <trkpt lat="45.97674" lon="6.23869">
        <ele>972</ele>
        <time>2016-08-27T06:32:06.000Z</time>
      </trkpt>
      <trkpt lat="45.97673" lon="6.23869">
        <ele>972</ele>
        <time>2016-08-27T06:32:07.000Z</time>
      </trkpt>
      <trkpt lat="45.97672" lon="6.2387">
        <ele>973</ele>
        <time>2016-08-27T06:32:08.000Z</time>
      </trkpt>
      <trkpt lat="45.97671" lon="6.2387">
        <ele>973</ele>
        <time>2016-08-27T06:32:09.000Z</time>
      </trkpt>
      <trkpt lat="45.97671" lon="6.2387">
        <ele>973</ele>
        <time>2016-08-27T06:32:10.000Z</time>
      </trkpt>
      <trkpt lat="45.9767" lon="6.23871">
        <ele>973</ele>
        <time>2016-08-27T06:32:11.000Z</time>
      </trkpt>
      <trkpt lat="45.97669" lon="6.23871">
        <ele>974</ele>
        <time>2016-08-27T06:32:12.000Z</time>
      </trkpt>
      <trkpt lat="45.97669" lon="6.23871">
        <ele>974</ele>
        <time>2016-08-27T06:32:13.000Z</time>
      </trkpt>
      <trkpt lat="45.97668" lon="6.23871">
        <ele>975</ele>
        <time>2016-08-27T06:32:14.000Z</time>
      </trkpt>
      <trkpt lat="45.97668" lon="6.23871">
        <ele>975</ele>
        <time>2016-08-27T06:32:15.000Z</time>
      </trkpt>
      <trkpt lat="45.97667" lon="6.23871">
        <ele>976</ele>
        <time>2016-08-27T06:32:16.000Z</time>
      </trkpt>
      <trkpt lat="45.97666" lon="6.23871">
        <ele>976</ele>
        <time>2016-08-27T06:32:17.000Z</time>
      </trkpt>
      <trkpt lat="45.97666" lon="6.23871">
        <ele>977</ele>
        <time>2016-08-27T06:32:18.000Z</time>
      </trkpt>
      <trkpt lat="45.97665" lon="6.23871">
        <ele>977</ele>
        <time>2016-08-27T06:32:19.000Z</time>
      </trkpt>
      <trkpt lat="45.97664" lon="6.2387">
        <ele>977</ele>
        <time>2016-08-27T06:32:20.000Z</time>
      </trkpt>
      <trkpt lat="45.97664" lon="6.2387">
        <ele>977</ele>
        <time>2016-08-27T06:32:21.000Z</time>
      </trkpt>
      <trkpt lat="45.97663" lon="6.2387">
        <ele>978</ele>
        <time>2016-08-27T06:32:22.000Z</time>
      </trkpt>
      <trkpt lat="45.97663" lon="6.2387">
        <ele>978</ele>
        <time>2016-08-27T06:32:23.000Z</time>
      </trkpt>
      <trkpt lat="45.97662" lon="6.23871">
        <ele>979</ele>
        <time>2016-08-27T06:32:24.000Z</time>
      </trkpt>
      <trkpt lat="45.97661" lon="6.23871">
        <ele>979</ele>
        <time>2016-08-27T06:32:25.000Z</time>
      </trkpt>
      <trkpt lat="45.9766" lon="6.23872">
        <ele>980</ele>
        <time>2016-08-27T06:32:26.000Z</time>
      </trkpt>
      <trkpt lat="45.9766" lon="6.23872">
        <ele>980</ele>
        <time>2016-08-27T06:32:27.000Z</time>
      </trkpt>
      <trkpt lat="45.97659" lon="6.23873">
        <ele>981</ele>
        <time>2016-08-27T06:32:28.000Z</time>
      </trkpt>
      <trkpt lat="45.97658" lon="6.23873">
        <ele>981</ele>
        <time>2016-08-27T06:32:29.000Z</time>
      </trkpt>
      <trkpt lat="45.97657" lon="6.23874">
        <ele>982</ele>
        <time>2016-08-27T06:32:30.000Z</time>
      </trkpt>
      <trkpt lat="45.97656" lon="6.23875">
        <ele>982</ele>
        <time>2016-08-27T06:32:31.000Z</time>
      </trkpt>
      <trkpt lat="45.97655" lon="6.23876">
        <ele>983</ele>
        <time>2016-08-27T06:32:32.000Z</time>
      </trkpt>
      <trkpt lat="45.97654" lon="6.23876">
        <ele>983</ele>
        <time>2016-08-27T06:32:33.000Z</time>
      </trkpt>
      <trkpt lat="45.97654" lon="6.23877">
        <ele>984</ele>
        <time>2016-08-27T06:32:34.000Z</time>
      </trkpt>
      <trkpt lat="45.97653" lon="6.23877">
        <ele>984</ele>
        <time>2016-08-27T06:32:35.000Z</time>
      </trkpt>
      <trkpt lat="45.97653" lon="6.23878">
        <ele>985</ele>
        <time>2016-08-27T06:32:36.000Z</time>
      </trkpt>
      <trkpt lat="45.97652" lon="6.23879">
        <ele>985</ele>
        <time>2016-08-27T06:32:37.000Z</time>
      </trkpt>
      <trkpt lat="45.97652" lon="6.2388">
        <ele>986</ele>
        <time>2016-08-27T06:32:38.000Z</time>
      </trkpt>
      <trkpt lat="45.97651" lon="6.23881">
        <ele>986</ele>
        <time>2016-08-27T06:32:39.000Z</time>
      </trkpt>
      <trkpt lat="45.9765" lon="6.23882">
        <ele>987</ele>
        <time>2016-08-27T06:32:40.000Z</time>
      </trkpt>
      <trkpt lat="45.9765" lon="6.23883">
        <ele>987</ele>
        <time>2016-08-27T06:32:41.000Z</time>
      </trkpt>
      <trkpt lat="45.97649" lon="6.23883">
        <ele>988</ele>
        <time>2016-08-27T06:32:42.000Z</time>
      </trkpt>
      <trkpt lat="45.97648" lon="6.23883">
        <ele>988</ele>
        <time>2016-08-27T06:32:43.000Z</time>
      </trkpt>
      <trkpt lat="45.97647" lon="6.23884">
        <ele>989</ele>
        <time>2016-08-27T06:32:44.000Z</time>
      </trkpt>
      <trkpt lat="45.97647" lon="6.23884">
        <ele>989</ele>
        <time>2016-08-27T06:32:45.000Z</time>
      </trkpt>
      <trkpt lat="45.97646" lon="6.23885">
        <ele>990</ele>
        <time>2016-08-27T06:32:46.000Z</time>
      </trkpt>
      <trkpt lat="45.97645" lon="6.23885">
        <ele>990</ele>
        <time>2016-08-27T06:32:47.000Z</time>
      </trkpt>
      <trkpt lat="45.97645" lon="6.23885">
        <ele>991</ele>
        <time>2016-08-27T06:32:48.000Z</time>
      </trkpt>
      <trkpt lat="45.97644" lon="6.23886">
        <ele>991</ele>
        <time>2016-08-27T06:32:49.000Z</time>
      </trkpt>
      <trkpt lat="45.97644" lon="6.23887">
        <ele>992</ele>
        <time>2016-08-27T06:32:50.000Z</time>
      </trkpt>
      <trkpt lat="45.97643" lon="6.23888">
        <ele>992</ele>
        <time>2016-08-27T06:32:51.000Z</time>
      </trkpt>
      <trkpt lat="45.97643" lon="6.23889">
        <ele>993</ele>
        <time>2016-08-27T06:32:52.000Z</time>
      </trkpt>
      <trkpt lat="45.97642" lon="6.23889">
        <ele>993</ele>
        <time>2016-08-27T06:32:53.000Z</time>
      </trkpt>
      <trkpt lat="45.97642" lon="6.2389">
        <ele>994</ele>
        <time>2016-08-27T06:32:54.000Z</time>
      </trkpt>
      <trkpt lat="45.97642" lon="6.23891">
        <ele>994</ele>
        <time>2016-08-27T06:32:55.000Z</time>
      </trkpt>
      <trkpt lat="45.97641" lon="6.23892">
        <ele>995</ele>
        <time>2016-08-27T06:32:56.000Z</time>
      </trkpt>
      <trkpt lat="45.97641" lon="6.23892">
        <ele>995</ele>
        <time>2016-08-27T06:32:57.000Z</time>
      </trkpt>
      <trkpt lat="45.9764" lon="6.23893">
        <ele>996</ele>
        <time>2016-08-27T06:32:58.000Z</time>
      </trkpt>
      <trkpt lat="45.97639" lon="6.23894">
        <ele>996</ele>
        <time>2016-08-27T06:32:59.000Z</time>
      </trkpt>
      <trkpt lat="45.97639" lon="6.23895">
        <ele>996</ele>
        <time>2016-08-27T06:33:00.000Z</time>
      </trkpt>
      <trkpt lat="45.97638" lon="6.23896">
        <ele>996</ele>
        <time>2016-08-27T06:33:01.000Z</time>
      </trkpt>
      <trkpt lat="45.97638" lon="6.23896">
        <ele>997</ele>
        <time>2016-08-27T06:33:02.000Z</time>
      </trkpt>
      <trkpt lat="45.97637" lon="6.23897">
        <ele>997</ele>
        <time>2016-08-27T06:33:03.000Z</time>
      </trkpt>
      <trkpt lat="45.97637" lon="6.23897">
        <ele>997</ele>
        <time>2016-08-27T06:33:04.000Z</time>
      </trkpt>
      <trkpt lat="45.97636" lon="6.23898">
        <ele>997</ele>
        <time>2016-08-27T06:33:05.000Z</time>
      </trkpt>
      <trkpt lat="45.97636" lon="6.23899">
        <ele>998</ele>
        <time>2016-08-27T06:33:06.000Z</time>
      </trkpt>
      <trkpt lat="45.97635" lon="6.239">
        <ele>998</ele>
        <time>2016-08-27T06:33:07.000Z</time>
      </trkpt>
      <trkpt lat="45.97635" lon="6.239">
        <ele>998</ele>
        <time>2016-08-27T06:33:08.000Z</time>
      </trkpt>
      <trkpt lat="45.97634" lon="6.23901">
        <ele>998</ele>
        <time>2016-08-27T06:33:09.000Z</time>
      </trkpt>
      <trkpt lat="45.97634" lon="6.23901">
        <ele>998</ele>
        <time>2016-08-27T06:33:10.000Z</time>
      </trkpt>
      <trkpt lat="45.97634" lon="6.23901">
        <ele>998</ele>
        <time>2016-08-27T06:33:11.000Z</time>
      </trkpt>
      <trkpt lat="45.97633" lon="6.23902">
        <ele>999</ele>
        <time>2016-08-27T06:33:12.000Z</time>
      </trkpt>
      <trkpt lat="45.97633" lon="6.23902">
        <ele>999</ele>
        <time>2016-08-27T06:33:13.000Z</time>
      </trkpt>
      <trkpt lat="45.97633" lon="6.23902">
        <ele>999</ele>
        <time>2016-08-27T06:33:14.000Z</time>
      </trkpt>
      <trkpt lat="45.97633" lon="6.23902">
        <ele>999</ele>
        <time>2016-08-27T06:33:15.000Z</time>
      </trkpt>
      <trkpt lat="45.97632" lon="6.23902">
        <ele>999</ele>
        <time>2016-08-27T06:33:16.000Z</time>
      </trkpt>
      <trkpt lat="45.97632" lon="6.23903">
        <ele>999</ele>
        <time>2016-08-27T06:33:17.000Z</time>
      </trkpt>
      <trkpt lat="45.97632" lon="6.23903">
        <ele>999</ele>
        <time>2016-08-27T06:33:18.000Z</time>
      </trkpt>
      <trkpt lat="45.97631" lon="6.23903">
        <ele>999</ele>
        <time>2016-08-27T06:33:19.000Z</time>
      </trkpt>
      <trkpt lat="45.97631" lon="6.23904">
        <ele>1000</ele>
        <time>2016-08-27T06:33:20.000Z</time>
      </trkpt>
      <trkpt lat="45.97631" lon="6.23904">
        <ele>1000</ele>
        <time>2016-08-27T06:33:21.000Z</time>
      </trkpt>
      <trkpt lat="45.9763" lon="6.23905">
        <ele>1000</ele>
        <time>2016-08-27T06:33:22.000Z</time>
      </trkpt>
      <trkpt lat="45.9763" lon="6.23906">
        <ele>1000</ele>
        <time>2016-08-27T06:33:23.000Z</time>
      </trkpt>
      <trkpt lat="45.9763" lon="6.23907">
        <ele>1000</ele>
        <time>2016-08-27T06:33:24.000Z</time>
      </trkpt>
      <trkpt lat="45.97629" lon="6.23907">
        <ele>1000</ele>
        <time>2016-08-27T06:33:25.000Z</time>
      </trkpt>
      <trkpt lat="45.97629" lon="6.23908">
        <ele>1001</ele>
        <time>2016-08-27T06:33:26.000Z</time>
      </trkpt>
      <trkpt lat="45.97629" lon="6.23908">
        <ele>1001</ele>
        <time>2016-08-27T06:33:27.000Z</time>
      </trkpt>
      <trkpt lat="45.97629" lon="6.23909">
        <ele>1001</ele>
        <time>2016-08-27T06:33:28.000Z</time>
      </trkpt>
      <trkpt lat="45.97628" lon="6.2391">
        <ele>1001</ele>
        <time>2016-08-27T06:33:29.000Z</time>
      </trkpt>
      <trkpt lat="45.97628" lon="6.23911">
        <ele>1002</ele>
        <time>2016-08-27T06:33:30.000Z</time>
      </trkpt>
      <trkpt lat="45.97628" lon="6.23912">
        <ele>1002</ele>
        <time>2016-08-27T06:33:31.000Z</time>
      </trkpt>
      <trkpt lat="45.97627" lon="6.23913">
        <ele>1002</ele>
        <time>2016-08-27T06:33:32.000Z</time>
      </trkpt>
      <trkpt lat="45.97626" lon="6.23914">
        <ele>1002</ele>
        <time>2016-08-27T06:33:33.000Z</time>
      </trkpt>
      <trkpt lat="45.97626" lon="6.23914">
        <ele>1003</ele>
        <time>2016-08-27T06:33:34.000Z</time>
      </trkpt>
      <trkpt lat="45.97625" lon="6.23915">
        <ele>1003</ele>
        <time>2016-08-27T06:33:35.000Z</time>
      </trkpt>
      <trkpt lat="45.97625" lon="6.23915">
        <ele>1003</ele>
        <time>2016-08-27T06:33:36.000Z</time>
      </trkpt>
      <trkpt lat="45.97625" lon="6.23916">
        <ele>1003</ele>
        <time>2016-08-27T06:33:37.000Z</time>
      </trkpt>
      <trkpt lat="45.97625" lon="6.23916">
        <ele>1004</ele>
        <time>2016-08-27T06:33:38.000Z</time>
      </trkpt>
      <trkpt lat="45.97624" lon="6.23916">
        <ele>1004</ele>
        <time>2016-08-27T06:33:39.000Z</time>
      </trkpt>
      <trkpt lat="45.97624" lon="6.23916">
        <ele>1004</ele>
        <time>2016-08-27T06:33:40.000Z</time>
      </trkpt>
      <trkpt lat="45.97623" lon="6.23916">
        <ele>1004</ele>
        <time>2016-08-27T06:33:41.000Z</time>
      </trkpt>
      <trkpt lat="45.97622" lon="6.23915">
        <ele>1005</ele>
        <time>2016-08-27T06:33:42.000Z</time>
      </trkpt>
      <trkpt lat="45.97622" lon="6.23915">
        <ele>1005</ele>
        <time>2016-08-27T06:33:43.000Z</time>
      </trkpt>
      <trkpt lat="45.97621" lon="6.23914">
        <ele>1005</ele>
        <time>2016-08-27T06:33:44.000Z</time>
      </trkpt>
      <trkpt lat="45.9762" lon="6.23914">
        <ele>1005</ele>
        <time>2016-08-27T06:33:45.000Z</time>
      </trkpt>
      <trkpt lat="45.97619" lon="6.23914">
        <ele>1005</ele>
        <time>2016-08-27T06:33:46.000Z</time>
      </trkpt>
      <trkpt lat="45.97619" lon="6.23913">
        <ele>1005</ele>
        <time>2016-08-27T06:33:47.000Z</time>
      </trkpt>
      <trkpt lat="45.97618" lon="6.23912">
        <ele>1005</ele>
        <time>2016-08-27T06:33:48.000Z</time>
      </trkpt>
      <trkpt lat="45.97617" lon="6.23912">
        <ele>1005</ele>
        <time>2016-08-27T06:33:49.000Z</time>
      </trkpt>
      <trkpt lat="45.97617" lon="6.23911">
        <ele>1005</ele>
        <time>2016-08-27T06:33:50.000Z</time>
      </trkpt>
      <trkpt lat="45.97616" lon="6.2391">
        <ele>1005</ele>
        <time>2016-08-27T06:33:51.000Z</time>
      </trkpt>
      <trkpt lat="45.97616" lon="6.23909">
        <ele>1005</ele>
        <time>2016-08-27T06:33:52.000Z</time>
      </trkpt>
      <trkpt lat="45.97616" lon="6.23909">
        <ele>1005</ele>
        <time>2016-08-27T06:33:53.000Z</time>
      </trkpt>
      <trkpt lat="45.97615" lon="6.23908">
        <ele>1005</ele>
        <time>2016-08-27T06:33:54.000Z</time>
      </trkpt>
      <trkpt lat="45.97615" lon="6.23907">
        <ele>1005</ele>
        <time>2016-08-27T06:33:55.000Z</time>
      </trkpt>
      <trkpt lat="45.97614" lon="6.23907">
        <ele>1005</ele>
        <time>2016-08-27T06:33:56.000Z</time>
      </trkpt>
      <trkpt lat="45.97614" lon="6.23906">
        <ele>1005</ele>
        <time>2016-08-27T06:33:57.000Z</time>
      </trkpt>
      <trkpt lat="45.97613" lon="6.23905">
        <ele>1005</ele>
        <time>2016-08-27T06:33:58.000Z</time>
      </trkpt>
      <trkpt lat="45.97613" lon="6.23905">
        <ele>1005</ele>
        <time>2016-08-27T06:33:59.000Z</time>
      </trkpt>
      <trkpt lat="45.97612" lon="6.23904">
        <ele>1005</ele>
        <time>2016-08-27T06:34:00.000Z</time>
      </trkpt>
      <trkpt lat="45.97612" lon="6.23904">
        <ele>1005</ele>
        <time>2016-08-27T06:34:01.000Z</time>
      </trkpt>
      <trkpt lat="45.97611" lon="6.23903">
        <ele>1005</ele>
        <time>2016-08-27T06:34:02.000Z</time>
      </trkpt>
      <trkpt lat="45.97611" lon="6.23903">
        <ele>1005</ele>
        <time>2016-08-27T06:34:03.000Z</time>
      </trkpt>
      <trkpt lat="45.97611" lon="6.23902">
        <ele>1005</ele>
        <time>2016-08-27T06:34:04.000Z</time>
      </trkpt>
      <trkpt lat="45.9761" lon="6.23901">
        <ele>1005</ele>
        <time>2016-08-27T06:34:05.000Z</time>
      </trkpt>
      <trkpt lat="45.9761" lon="6.239">
        <ele>1005</ele>
        <time>2016-08-27T06:34:06.000Z</time>
      </trkpt>
      <trkpt lat="45.9761" lon="6.239">
        <ele>1005</ele>
        <time>2016-08-27T06:34:07.000Z</time>
      </trkpt>
      <trkpt lat="45.9761" lon="6.23899">
        <ele>1005</ele>
        <time>2016-08-27T06:34:08.000Z</time>
      </trkpt>
      <trkpt lat="45.9761" lon="6.23899">
        <ele>1005</ele>
        <time>2016-08-27T06:34:09.000Z</time>
      </trkpt>
      <trkpt lat="45.9761" lon="6.23898">
        <ele>1005</ele>
        <time>2016-08-27T06:34:10.000Z</time>
      </trkpt>
      <trkpt lat="45.9761" lon="6.23898">
        <ele>1005</ele>
        <time>2016-08-27T06:34:11.000Z</time>
      </trkpt>
      <trkpt lat="45.9761" lon="6.23897">
        <ele>1005</ele>
        <time>2016-08-27T06:34:12.000Z</time>
      </trkpt>
      <trkpt lat="45.9761" lon="6.23896">
        <ele>1005</ele>
        <time>2016-08-27T06:34:13.000Z</time>
      </trkpt>
      <trkpt lat="45.97611" lon="6.23895">
        <ele>1005</ele>
        <time>2016-08-27T06:34:14.000Z</time>
      </trkpt>
      <trkpt lat="45.97611" lon="6.23895">
        <ele>1005</ele>
        <time>2016-08-27T06:34:15.000Z</time>
      </trkpt>
      <trkpt lat="45.97611" lon="6.23895">
        <ele>1005</ele>
        <time>2016-08-27T06:34:16.000Z</time>
      </trkpt>
      <trkpt lat="45.97611" lon="6.23895">
        <ele>1005</ele>
        <time>2016-08-27T06:34:17.000Z</time>
      </trkpt>
      <trkpt lat="45.97611" lon="6.23894">
        <ele>1006</ele>
        <time>2016-08-27T06:34:18.000Z</time>
      </trkpt>
      <trkpt lat="45.97611" lon="6.23893">
        <ele>1006</ele>
        <time>2016-08-27T06:34:19.000Z</time>
      </trkpt>
      <trkpt lat="45.97611" lon="6.23893">
        <ele>1006</ele>
        <time>2016-08-27T06:34:20.000Z</time>
      </trkpt>
      <trkpt lat="45.97611" lon="6.23892">
        <ele>1006</ele>
        <time>2016-08-27T06:34:21.000Z</time>
      </trkpt>
      <trkpt lat="45.97611" lon="6.2389">
        <ele>1006</ele>
        <time>2016-08-27T06:34:22.000Z</time>
      </trkpt>
      <trkpt lat="45.97611" lon="6.23889">
        <ele>1006</ele>
        <time>2016-08-27T06:34:23.000Z</time>
      </trkpt>
      <trkpt lat="45.97611" lon="6.23888">
        <ele>1006</ele>
        <time>2016-08-27T06:34:24.000Z</time>
      </trkpt>
      <trkpt lat="45.97611" lon="6.23887">
        <ele>1006</ele>
        <time>2016-08-27T06:34:25.000Z</time>
      </trkpt>
      <trkpt lat="45.97611" lon="6.23886">
        <ele>1006</ele>
        <time>2016-08-27T06:34:26.000Z</time>
      </trkpt>
      <trkpt lat="45.97612" lon="6.23885">
        <ele>1006</ele>
        <time>2016-08-27T06:34:27.000Z</time>
      </trkpt>
      <trkpt lat="45.97612" lon="6.23884">
        <ele>1007</ele>
        <time>2016-08-27T06:34:28.000Z</time>
      </trkpt>
      <trkpt lat="45.97611" lon="6.23883">
        <ele>1007</ele>
        <time>2016-08-27T06:34:29.000Z</time>
      </trkpt>
      <trkpt lat="45.97612" lon="6.23882">
        <ele>1007</ele>
        <time>2016-08-27T06:34:30.000Z</time>
      </trkpt>
      <trkpt lat="45.97611" lon="6.23882">
        <ele>1007</ele>
        <time>2016-08-27T06:34:31.000Z</time>
      </trkpt>
      <trkpt lat="45.97611" lon="6.23881">
        <ele>1007</ele>
        <time>2016-08-27T06:34:32.000Z</time>
      </trkpt>
      <trkpt lat="45.97611" lon="6.23879">
        <ele>1007</ele>
        <time>2016-08-27T06:34:33.000Z</time>
      </trkpt>
      <trkpt lat="45.97611" lon="6.23878">
        <ele>1008</ele>
        <time>2016-08-27T06:34:34.000Z</time>
      </trkpt>
      <trkpt lat="45.97611" lon="6.23877">
        <ele>1008</ele>
        <time>2016-08-27T06:34:35.000Z</time>
      </trkpt>
      <trkpt lat="45.97612" lon="6.23877">
        <ele>1008</ele>
        <time>2016-08-27T06:34:36.000Z</time>
      </trkpt>
      <trkpt lat="45.97612" lon="6.23876">
        <ele>1008</ele>
        <time>2016-08-27T06:34:37.000Z</time>
      </trkpt>
      <trkpt lat="45.97613" lon="6.23875">
        <ele>1008</ele>
        <time>2016-08-27T06:34:38.000Z</time>
      </trkpt>
      <trkpt lat="45.97613" lon="6.23874">
        <ele>1008</ele>
        <time>2016-08-27T06:34:39.000Z</time>
      </trkpt>
      <trkpt lat="45.97613" lon="6.23874">
        <ele>1008</ele>
        <time>2016-08-27T06:34:40.000Z</time>
      </trkpt>
      <trkpt lat="45.97612" lon="6.23873">
        <ele>1008</ele>
        <time>2016-08-27T06:34:41.000Z</time>
      </trkpt>
      <trkpt lat="45.97612" lon="6.23873">
        <ele>1008</ele>
        <time>2016-08-27T06:34:42.000Z</time>
      </trkpt>
      <trkpt lat="45.97612" lon="6.23872">
        <ele>1008</ele>
        <time>2016-08-27T06:34:43.000Z</time>
      </trkpt>
      <trkpt lat="45.97612" lon="6.23872">
        <ele>1008</ele>
        <time>2016-08-27T06:34:44.000Z</time>
      </trkpt>
      <trkpt lat="45.97612" lon="6.23871">
        <ele>1008</ele>
        <time>2016-08-27T06:34:45.000Z</time>
      </trkpt>
      <trkpt lat="45.97612" lon="6.23871">
        <ele>1008</ele>
        <time>2016-08-27T06:34:46.000Z</time>
      </trkpt>
      <trkpt lat="45.97611" lon="6.2387">
        <ele>1008</ele>
        <time>2016-08-27T06:34:47.000Z</time>
      </trkpt>
      <trkpt lat="45.97611" lon="6.23869">
        <ele>1008</ele>
        <time>2016-08-27T06:34:48.000Z</time>
      </trkpt>
      <trkpt lat="45.97611" lon="6.23869">
        <ele>1008</ele>
        <time>2016-08-27T06:34:49.000Z</time>
      </trkpt>
      <trkpt lat="45.97611" lon="6.23868">
        <ele>1008</ele>
        <time>2016-08-27T06:34:50.000Z</time>
      </trkpt>
      <trkpt lat="45.97611" lon="6.23868">
        <ele>1008</ele>
        <time>2016-08-27T06:34:51.000Z</time>
      </trkpt>
      <trkpt lat="45.97611" lon="6.23867">
        <ele>1008</ele>
        <time>2016-08-27T06:34:52.000Z</time>
      </trkpt>
      <trkpt lat="45.9761" lon="6.23866">
        <ele>1008</ele>
        <time>2016-08-27T06:34:53.000Z</time>
      </trkpt>
      <trkpt lat="45.9761" lon="6.23866">
        <ele>1009</ele>
        <time>2016-08-27T06:34:54.000Z</time>
      </trkpt>
      <trkpt lat="45.9761" lon="6.23866">
        <ele>1009</ele>
        <time>2016-08-27T06:34:55.000Z</time>
      </trkpt>
      <trkpt lat="45.9761" lon="6.23865">
        <ele>1009</ele>
        <time>2016-08-27T06:34:56.000Z</time>
      </trkpt>
      <trkpt lat="45.9761" lon="6.23865">
        <ele>1009</ele>
        <time>2016-08-27T06:34:57.000Z</time>
      </trkpt>
      <trkpt lat="45.9761" lon="6.23864">
        <ele>1009</ele>
        <time>2016-08-27T06:34:58.000Z</time>
      </trkpt>
      <trkpt lat="45.9761" lon="6.23863">
        <ele>1009</ele>
        <time>2016-08-27T06:34:59.000Z</time>
      </trkpt>
      <trkpt lat="45.9761" lon="6.23862">
        <ele>1009</ele>
        <time>2016-08-27T06:35:00.000Z</time>
      </trkpt>
      <trkpt lat="45.9761" lon="6.23862">
        <ele>1009</ele>
        <time>2016-08-27T06:35:01.000Z</time>
      </trkpt>
      <trkpt lat="45.9761" lon="6.2386">
        <ele>1009</ele>
        <time>2016-08-27T06:35:02.000Z</time>
      </trkpt>
      <trkpt lat="45.97611" lon="6.23859">
        <ele>1009</ele>
        <time>2016-08-27T06:35:03.000Z</time>
      </trkpt>
      <trkpt lat="45.97611" lon="6.23859">
        <ele>1009</ele>
        <time>2016-08-27T06:35:04.000Z</time>
      </trkpt>
      <trkpt lat="45.97611" lon="6.23858">
        <ele>1009</ele>
        <time>2016-08-27T06:35:05.000Z</time>
      </trkpt>
      <trkpt lat="45.97611" lon="6.23857">
        <ele>1009</ele>
        <time>2016-08-27T06:35:06.000Z</time>
      </trkpt>
      <trkpt lat="45.97612" lon="6.23856">
        <ele>1009</ele>
        <time>2016-08-27T06:35:07.000Z</time>
      </trkpt>
      <trkpt lat="45.97613" lon="6.23855">
        <ele>1009</ele>
        <time>2016-08-27T06:35:08.000Z</time>
      </trkpt>
      <trkpt lat="45.97613" lon="6.23854">
        <ele>1009</ele>
        <time>2016-08-27T06:35:09.000Z</time>
      </trkpt>
      <trkpt lat="45.97614" lon="6.23854">
        <ele>1009</ele>
        <time>2016-08-27T06:35:10.000Z</time>
      </trkpt>
      <trkpt lat="45.97614" lon="6.23853">
        <ele>1009</ele>
        <time>2016-08-27T06:35:11.000Z</time>
      </trkpt>
      <trkpt lat="45.97615" lon="6.23852">
        <ele>1009</ele>
        <time>2016-08-27T06:35:12.000Z</time>
      </trkpt>
      <trkpt lat="45.97615" lon="6.23851">
        <ele>1009</ele>
        <time>2016-08-27T06:35:13.000Z</time>
      </trkpt>
      <trkpt lat="45.97615" lon="6.23851">
        <ele>1009</ele>
        <time>2016-08-27T06:35:14.000Z</time>
      </trkpt>
      <trkpt lat="45.97615" lon="6.2385">
        <ele>1009</ele>
        <time>2016-08-27T06:35:15.000Z</time>
      </trkpt>
      <trkpt lat="45.97616" lon="6.23849">
        <ele>1008</ele>
        <time>2016-08-27T06:35:16.000Z</time>
      </trkpt>
      <trkpt lat="45.97616" lon="6.23848">
        <ele>1008</ele>
        <time>2016-08-27T06:35:17.000Z</time>
      </trkpt>
      <trkpt lat="45.97617" lon="6.23847">
        <ele>1008</ele>
        <time>2016-08-27T06:35:18.000Z</time>
      </trkpt>
      <trkpt lat="45.97618" lon="6.23846">
        <ele>1008</ele>
        <time>2016-08-27T06:35:19.000Z</time>
      </trkpt>
      <trkpt lat="45.97618" lon="6.23846">
        <ele>1008</ele>
        <time>2016-08-27T06:35:20.000Z</time>
      </trkpt>
      <trkpt lat="45.97618" lon="6.23846">
        <ele>1008</ele>
        <time>2016-08-27T06:35:21.000Z</time>
      </trkpt>
      <trkpt lat="45.97618" lon="6.23846">
        <ele>1008</ele>
        <time>2016-08-27T06:35:22.000Z</time>
      </trkpt>
      <trkpt lat="45.97618" lon="6.23846">
        <ele>1008</ele>
        <time>2016-08-27T06:35:23.000Z</time>
      </trkpt>
      <trkpt lat="45.97618" lon="6.23846">
        <ele>1008</ele>
        <time>2016-08-27T06:35:24.000Z</time>
      </trkpt>
      <trkpt lat="45.97619" lon="6.23845">
        <ele>1008</ele>
        <time>2016-08-27T06:35:25.000Z</time>
      </trkpt>
      <trkpt lat="45.97619" lon="6.23845">
        <ele>1008</ele>
        <time>2016-08-27T06:35:26.000Z</time>
      </trkpt>
      <trkpt lat="45.97619" lon="6.23845">
        <ele>1008</ele>
        <time>2016-08-27T06:35:27.000Z</time>
      </trkpt>
      <trkpt lat="45.97619" lon="6.23845">
        <ele>1008</ele>
        <time>2016-08-27T06:35:28.000Z</time>
      </trkpt>
      <trkpt lat="45.97619" lon="6.23845">
        <ele>1008</ele>
        <time>2016-08-27T06:35:29.000Z</time>
      </trkpt>
      <trkpt lat="45.97619" lon="6.23845">
        <ele>1008</ele>
        <time>2016-08-27T06:35:30.000Z</time>
      </trkpt>
      <trkpt lat="45.97619" lon="6.23845">
        <ele>1008</ele>
        <time>2016-08-27T06:35:31.000Z</time>
      </trkpt>
      <trkpt lat="45.97619" lon="6.23845">
        <ele>1008</ele>
        <time>2016-08-27T06:35:32.000Z</time>
      </trkpt>
      <trkpt lat="45.9762" lon="6.23845">
        <ele>1008</ele>
        <time>2016-08-27T06:35:33.000Z</time>
      </trkpt>
      <trkpt lat="45.9762" lon="6.23845">
        <ele>1008</ele>
        <time>2016-08-27T06:35:34.000Z</time>
      </trkpt>
      <trkpt lat="45.9762" lon="6.23845">
        <ele>1008</ele>
        <time>2016-08-27T06:35:35.000Z</time>
      </trkpt>
      <trkpt lat="45.9762" lon="6.23845">
        <ele>1008</ele>
        <time>2016-08-27T06:35:36.000Z</time>
      </trkpt>
      <trkpt lat="45.9762" lon="6.23845">
        <ele>1008</ele>
        <time>2016-08-27T06:35:37.000Z</time>
      </trkpt>
      <trkpt lat="45.9762" lon="6.23845">
        <ele>1008</ele>
        <time>2016-08-27T06:35:38.000Z</time>
      </trkpt>
      <trkpt lat="45.9762" lon="6.23846">
        <ele>1008</ele>
        <time>2016-08-27T06:35:39.000Z</time>
      </trkpt>
      <trkpt lat="45.9762" lon="6.23846">
        <ele>1008</ele>
        <time>2016-08-27T06:35:40.000Z</time>
      </trkpt>
      <trkpt lat="45.9762" lon="6.23846">
        <ele>1008</ele>
        <time>2016-08-27T06:35:41.000Z</time>
      </trkpt>
      <trkpt lat="45.9762" lon="6.23846">
        <ele>1008</ele>
        <time>2016-08-27T06:35:42.000Z</time>
      </trkpt>
      <trkpt lat="45.9762" lon="6.23846">
        <ele>1008</ele>
        <time>2016-08-27T06:35:43.000Z</time>
      </trkpt>
      <trkpt lat="45.9762" lon="6.23846">
        <ele>1008</ele>
        <time>2016-08-27T06:35:44.000Z</time>
      </trkpt>
      <trkpt lat="45.97621" lon="6.23846">
        <ele>1008</ele>
        <time>2016-08-27T06:35:45.000Z</time>
      </trkpt>
      <trkpt lat="45.97621" lon="6.23847">
        <ele>1007</ele>
        <time>2016-08-27T06:35:46.000Z</time>
      </trkpt>
      <trkpt lat="45.97621" lon="6.23847">
        <ele>1007</ele>
        <time>2016-08-27T06:35:47.000Z</time>
      </trkpt>
      <trkpt lat="45.97621" lon="6.23847">
        <ele>1007</ele>
        <time>2016-08-27T06:35:48.000Z</time>
      </trkpt>
      <trkpt lat="45.97622" lon="6.23846">
        <ele>1007</ele>
        <time>2016-08-27T06:35:49.000Z</time>
      </trkpt>
      <trkpt lat="45.97622" lon="6.23845">
        <ele>1007</ele>
        <time>2016-08-27T06:35:50.000Z</time>
      </trkpt>
      <trkpt lat="45.97622" lon="6.23844">
        <ele>1007</ele>
        <time>2016-08-27T06:35:51.000Z</time>
      </trkpt>
      <trkpt lat="45.97623" lon="6.23843">
        <ele>1006</ele>
        <time>2016-08-27T06:35:52.000Z</time>
      </trkpt>
      <trkpt lat="45.97623" lon="6.23841">
        <ele>1006</ele>
        <time>2016-08-27T06:35:53.000Z</time>
      </trkpt>
      <trkpt lat="45.97623" lon="6.2384">
        <ele>1006</ele>
        <time>2016-08-27T06:35:54.000Z</time>
      </trkpt>
      <trkpt lat="45.97623" lon="6.23839">
        <ele>1006</ele>
        <time>2016-08-27T06:35:55.000Z</time>
      </trkpt>
      <trkpt lat="45.97623" lon="6.23837">
        <ele>1006</ele>
        <time>2016-08-27T06:35:56.000Z</time>
      </trkpt>
      <trkpt lat="45.97623" lon="6.23836">
        <ele>1006</ele>
        <time>2016-08-27T06:35:57.000Z</time>
      </trkpt>
      <trkpt lat="45.97623" lon="6.23833">
        <ele>1005</ele>
        <time>2016-08-27T06:35:58.000Z</time>
      </trkpt>
      <trkpt lat="45.97622" lon="6.2383">
        <ele>1005</ele>
        <time>2016-08-27T06:35:59.000Z</time>
      </trkpt>
      <trkpt lat="45.97622" lon="6.23827">
        <ele>1005</ele>
        <time>2016-08-27T06:36:00.000Z</time>
      </trkpt>
      <trkpt lat="45.97621" lon="6.23825">
        <ele>1005</ele>
        <time>2016-08-27T06:36:01.000Z</time>
      </trkpt>
      <trkpt lat="45.97619" lon="6.23822">
        <ele>1004</ele>
        <time>2016-08-27T06:36:02.000Z</time>
      </trkpt>
      <trkpt lat="45.97618" lon="6.23819">
        <ele>1004</ele>
        <time>2016-08-27T06:36:03.000Z</time>
      </trkpt>
      <trkpt lat="45.97617" lon="6.23816">
        <ele>1003</ele>
        <time>2016-08-27T06:36:04.000Z</time>
      </trkpt>
      <trkpt lat="45.97616" lon="6.23813">
        <ele>1003</ele>
        <time>2016-08-27T06:36:05.000Z</time>
      </trkpt>
      <trkpt lat="45.97614" lon="6.2381">
        <ele>1003</ele>
        <time>2016-08-27T06:36:06.000Z</time>
      </trkpt>
      <trkpt lat="45.97613" lon="6.23808">
        <ele>1003</ele>
        <time>2016-08-27T06:36:07.000Z</time>
      </trkpt>
      <trkpt lat="45.97611" lon="6.23805">
        <ele>1002</ele>
        <time>2016-08-27T06:36:08.000Z</time>
      </trkpt>
      <trkpt lat="45.97609" lon="6.23803">
        <ele>1002</ele>
        <time>2016-08-27T06:36:09.000Z</time>
      </trkpt>
      <trkpt lat="45.97607" lon="6.238">
        <ele>1002</ele>
        <time>2016-08-27T06:36:10.000Z</time>
      </trkpt>
      <trkpt lat="45.97606" lon="6.23798">
        <ele>1002</ele>
        <time>2016-08-27T06:36:11.000Z</time>
      </trkpt>
      <trkpt lat="45.97604" lon="6.23795">
        <ele>1001</ele>
        <time>2016-08-27T06:36:12.000Z</time>
      </trkpt>
      <trkpt lat="45.97603" lon="6.23793">
        <ele>1001</ele>
        <time>2016-08-27T06:36:13.000Z</time>
      </trkpt>
      <trkpt lat="45.97602" lon="6.23792">
        <ele>1001</ele>
        <time>2016-08-27T06:36:14.000Z</time>
      </trkpt>
      <trkpt lat="45.976" lon="6.23789">
        <ele>1001</ele>
        <time>2016-08-27T06:36:15.000Z</time>
      </trkpt>
      <trkpt lat="45.97599" lon="6.23787">
        <ele>1000</ele>
        <time>2016-08-27T06:36:16.000Z</time>
      </trkpt>
      <trkpt lat="45.97598" lon="6.23784">
        <ele>1000</ele>
        <time>2016-08-27T06:36:17.000Z</time>
      </trkpt>
      <trkpt lat="45.97597" lon="6.23782">
        <ele>1000</ele>
        <time>2016-08-27T06:36:18.000Z</time>
      </trkpt>
      <trkpt lat="45.97596" lon="6.2378">
        <ele>1000</ele>
        <time>2016-08-27T06:36:19.000Z</time>
      </trkpt>
      <trkpt lat="45.97595" lon="6.23777">
        <ele>1000</ele>
        <time>2016-08-27T06:36:20.000Z</time>
      </trkpt>
      <trkpt lat="45.97593" lon="6.23775">
        <ele>1000</ele>
        <time>2016-08-27T06:36:21.000Z</time>
      </trkpt>
      <trkpt lat="45.97592" lon="6.23772">
        <ele>999</ele>
        <time>2016-08-27T06:36:22.000Z</time>
      </trkpt>
      <trkpt lat="45.97591" lon="6.2377">
        <ele>999</ele>
        <time>2016-08-27T06:36:23.000Z</time>
      </trkpt>
      <trkpt lat="45.9759" lon="6.23768">
        <ele>999</ele>
        <time>2016-08-27T06:36:24.000Z</time>
      </trkpt>
      <trkpt lat="45.97589" lon="6.23766">
        <ele>999</ele>
        <time>2016-08-27T06:36:25.000Z</time>
      </trkpt>
      <trkpt lat="45.97588" lon="6.23764">
        <ele>999</ele>
        <time>2016-08-27T06:36:26.000Z</time>
      </trkpt>
      <trkpt lat="45.97587" lon="6.23762">
        <ele>999</ele>
        <time>2016-08-27T06:36:27.000Z</time>
      </trkpt>
      <trkpt lat="45.97586" lon="6.2376">
        <ele>999</ele>
        <time>2016-08-27T06:36:28.000Z</time>
      </trkpt>
      <trkpt lat="45.97585" lon="6.23758">
        <ele>999</ele>
        <time>2016-08-27T06:36:29.000Z</time>
      </trkpt>
      <trkpt lat="45.97584" lon="6.23756">
        <ele>999</ele>
        <time>2016-08-27T06:36:30.000Z</time>
      </trkpt>
      <trkpt lat="45.97583" lon="6.23754">
        <ele>999</ele>
        <time>2016-08-27T06:36:31.000Z</time>
      </trkpt>
      <trkpt lat="45.97582" lon="6.23752">
        <ele>999</ele>
        <time>2016-08-27T06:36:32.000Z</time>
      </trkpt>
      <trkpt lat="45.97581" lon="6.2375">
        <ele>999</ele>
        <time>2016-08-27T06:36:33.000Z</time>
      </trkpt>
      <trkpt lat="45.97581" lon="6.23748">
        <ele>999</ele>
        <time>2016-08-27T06:36:34.000Z</time>
      </trkpt>
      <trkpt lat="45.9758" lon="6.23746">
        <ele>999</ele>
        <time>2016-08-27T06:36:35.000Z</time>
      </trkpt>
      <trkpt lat="45.97578" lon="6.23744">
        <ele>999</ele>
        <time>2016-08-27T06:36:36.000Z</time>
      </trkpt>
      <trkpt lat="45.97577" lon="6.23742">
        <ele>999</ele>
        <time>2016-08-27T06:36:37.000Z</time>
      </trkpt>
      <trkpt lat="45.97576" lon="6.23741">
        <ele>999</ele>
        <time>2016-08-27T06:36:38.000Z</time>
      </trkpt>
      <trkpt lat="45.97575" lon="6.23739">
        <ele>999</ele>
        <time>2016-08-27T06:36:39.000Z</time>
      </trkpt>
      <trkpt lat="45.97574" lon="6.23739">
        <ele>999</ele>
        <time>2016-08-27T06:36:40.000Z</time>
      </trkpt>
      <trkpt lat="45.97573" lon="6.23738">
        <ele>999</ele>
        <time>2016-08-27T06:36:41.000Z</time>
      </trkpt>
      <trkpt lat="45.97572" lon="6.23738">
        <ele>999</ele>
        <time>2016-08-27T06:36:42.000Z</time>
      </trkpt>
      <trkpt lat="45.97571" lon="6.23738">
        <ele>999</ele>
        <time>2016-08-27T06:36:43.000Z</time>
      </trkpt>
      <trkpt lat="45.97571" lon="6.23738">
        <ele>999</ele>
        <time>2016-08-27T06:36:44.000Z</time>
      </trkpt>
      <trkpt lat="45.9757" lon="6.23739">
        <ele>999</ele>
        <time>2016-08-27T06:36:45.000Z</time>
      </trkpt>
      <trkpt lat="45.9757" lon="6.23739">
        <ele>999</ele>
        <time>2016-08-27T06:36:46.000Z</time>
      </trkpt>
      <trkpt lat="45.97569" lon="6.2374">
        <ele>999</ele>
        <time>2016-08-27T06:36:47.000Z</time>
      </trkpt>
      <trkpt lat="45.97569" lon="6.2374">
        <ele>999</ele>
        <time>2016-08-27T06:36:48.000Z</time>
      </trkpt>
      <trkpt lat="45.97568" lon="6.23742">
        <ele>999</ele>
        <time>2016-08-27T06:36:49.000Z</time>
      </trkpt>
      <trkpt lat="45.97567" lon="6.23743">
        <ele>999</ele>
        <time>2016-08-27T06:36:50.000Z</time>
      </trkpt>
      <trkpt lat="45.97567" lon="6.23743">
        <ele>999</ele>
        <time>2016-08-27T06:36:51.000Z</time>
      </trkpt>
      <trkpt lat="45.97566" lon="6.23744">
        <ele>999</ele>
        <time>2016-08-27T06:36:52.000Z</time>
      </trkpt>
      <trkpt lat="45.97565" lon="6.23745">
        <ele>999</ele>
        <time>2016-08-27T06:36:53.000Z</time>
      </trkpt>
      <trkpt lat="45.97565" lon="6.23745">
        <ele>999</ele>
        <time>2016-08-27T06:36:54.000Z</time>
      </trkpt>
      <trkpt lat="45.97564" lon="6.23746">
        <ele>999</ele>
        <time>2016-08-27T06:36:55.000Z</time>
      </trkpt>
      <trkpt lat="45.97563" lon="6.23747">
        <ele>999</ele>
        <time>2016-08-27T06:36:56.000Z</time>
      </trkpt>
      <trkpt lat="45.97563" lon="6.23748">
        <ele>999</ele>
        <time>2016-08-27T06:36:57.000Z</time>
      </trkpt>
      <trkpt lat="45.97562" lon="6.23749">
        <ele>999</ele>
        <time>2016-08-27T06:36:58.000Z</time>
      </trkpt>
      <trkpt lat="45.97562" lon="6.23749">
        <ele>999</ele>
        <time>2016-08-27T06:36:59.000Z</time>
      </trkpt>
      <trkpt lat="45.97561" lon="6.2375">
        <ele>999</ele>
        <time>2016-08-27T06:37:00.000Z</time>
      </trkpt>
      <trkpt lat="45.97561" lon="6.2375">
        <ele>999</ele>
        <time>2016-08-27T06:37:01.000Z</time>
      </trkpt>
      <trkpt lat="45.9756" lon="6.23751">
        <ele>999</ele>
        <time>2016-08-27T06:37:02.000Z</time>
      </trkpt>
      <trkpt lat="45.9756" lon="6.23752">
        <ele>999</ele>
        <time>2016-08-27T06:37:03.000Z</time>
      </trkpt>
      <trkpt lat="45.97559" lon="6.23752">
        <ele>999</ele>
        <time>2016-08-27T06:37:04.000Z</time>
      </trkpt>
      <trkpt lat="45.97559" lon="6.23753">
        <ele>999</ele>
        <time>2016-08-27T06:37:05.000Z</time>
      </trkpt>
      <trkpt lat="45.97559" lon="6.23753">
        <ele>1000</ele>
        <time>2016-08-27T06:37:06.000Z</time>
      </trkpt>
      <trkpt lat="45.97558" lon="6.23754">
        <ele>1000</ele>
        <time>2016-08-27T06:37:07.000Z</time>
      </trkpt>
      <trkpt lat="45.97558" lon="6.23754">
        <ele>1000</ele>
        <time>2016-08-27T06:37:08.000Z</time>
      </trkpt>
      <trkpt lat="45.97558" lon="6.23754">
        <ele>1000</ele>
        <time>2016-08-27T06:37:09.000Z</time>
      </trkpt>
      <trkpt lat="45.97557" lon="6.23755">
        <ele>1001</ele>
        <time>2016-08-27T06:37:10.000Z</time>
      </trkpt>
      <trkpt lat="45.97556" lon="6.23755">
        <ele>1001</ele>
        <time>2016-08-27T06:37:11.000Z</time>
      </trkpt>
      <trkpt lat="45.97556" lon="6.23756">
        <ele>1001</ele>
        <time>2016-08-27T06:37:12.000Z</time>
      </trkpt>
      <trkpt lat="45.97555" lon="6.23756">
        <ele>1001</ele>
        <time>2016-08-27T06:37:13.000Z</time>
      </trkpt>
      <trkpt lat="45.97554" lon="6.23757">
        <ele>1002</ele>
        <time>2016-08-27T06:37:14.000Z</time>
      </trkpt>
      <trkpt lat="45.97553" lon="6.23758">
        <ele>1002</ele>
        <time>2016-08-27T06:37:15.000Z</time>
      </trkpt>
      <trkpt lat="45.97553" lon="6.23758">
        <ele>1002</ele>
        <time>2016-08-27T06:37:16.000Z</time>
      </trkpt>
      <trkpt lat="45.97552" lon="6.23759">
        <ele>1002</ele>
        <time>2016-08-27T06:37:17.000Z</time>
      </trkpt>
      <trkpt lat="45.97551" lon="6.23759">
        <ele>1002</ele>
        <time>2016-08-27T06:37:18.000Z</time>
      </trkpt>
      <trkpt lat="45.9755" lon="6.2376">
        <ele>1002</ele>
        <time>2016-08-27T06:37:19.000Z</time>
      </trkpt>
      <trkpt lat="45.97549" lon="6.2376">
        <ele>1003</ele>
        <time>2016-08-27T06:37:20.000Z</time>
      </trkpt>
      <trkpt lat="45.97548" lon="6.23761">
        <ele>1003</ele>
        <time>2016-08-27T06:37:21.000Z</time>
      </trkpt>
      <trkpt lat="45.97547" lon="6.23762">
        <ele>1004</ele>
        <time>2016-08-27T06:37:22.000Z</time>
      </trkpt>
      <trkpt lat="45.97547" lon="6.23763">
        <ele>1004</ele>
        <time>2016-08-27T06:37:23.000Z</time>
      </trkpt>
      <trkpt lat="45.97546" lon="6.23763">
        <ele>1004</ele>
        <time>2016-08-27T06:37:24.000Z</time>
      </trkpt>
      <trkpt lat="45.97546" lon="6.23763">
        <ele>1004</ele>
        <time>2016-08-27T06:37:25.000Z</time>
      </trkpt>
      <trkpt lat="45.97545" lon="6.23764">
        <ele>1005</ele>
        <time>2016-08-27T06:37:26.000Z</time>
      </trkpt>
      <trkpt lat="45.97544" lon="6.23764">
        <ele>1005</ele>
        <time>2016-08-27T06:37:27.000Z</time>
      </trkpt>
      <trkpt lat="45.97543" lon="6.23765">
        <ele>1006</ele>
        <time>2016-08-27T06:37:28.000Z</time>
      </trkpt>
      <trkpt lat="45.97542" lon="6.23765">
        <ele>1006</ele>
        <time>2016-08-27T06:37:29.000Z</time>
      </trkpt>
      <trkpt lat="45.97541" lon="6.23766">
        <ele>1007</ele>
        <time>2016-08-27T06:37:30.000Z</time>
      </trkpt>
      <trkpt lat="45.9754" lon="6.23766">
        <ele>1007</ele>
        <time>2016-08-27T06:37:31.000Z</time>
      </trkpt>
      <trkpt lat="45.97539" lon="6.23766">
        <ele>1007</ele>
        <time>2016-08-27T06:37:32.000Z</time>
      </trkpt>
      <trkpt lat="45.97539" lon="6.23767">
        <ele>1007</ele>
        <time>2016-08-27T06:37:33.000Z</time>
      </trkpt>
      <trkpt lat="45.97538" lon="6.23767">
        <ele>1008</ele>
        <time>2016-08-27T06:37:34.000Z</time>
      </trkpt>
      <trkpt lat="45.97537" lon="6.23767">
        <ele>1008</ele>
        <time>2016-08-27T06:37:35.000Z</time>
      </trkpt>
      <trkpt lat="45.97537" lon="6.23767">
        <ele>1009</ele>
        <time>2016-08-27T06:37:36.000Z</time>
      </trkpt>
      <trkpt lat="45.97536" lon="6.23767">
        <ele>1009</ele>
        <time>2016-08-27T06:37:37.000Z</time>
      </trkpt>
      <trkpt lat="45.97535" lon="6.23767">
        <ele>1009</ele>
        <time>2016-08-27T06:37:38.000Z</time>
      </trkpt>
      <trkpt lat="45.97534" lon="6.23768">
        <ele>1009</ele>
        <time>2016-08-27T06:37:39.000Z</time>
      </trkpt>
      <trkpt lat="45.97533" lon="6.23768">
        <ele>1009</ele>
        <time>2016-08-27T06:37:40.000Z</time>
      </trkpt>
      <trkpt lat="45.97532" lon="6.23768">
        <ele>1009</ele>
        <time>2016-08-27T06:37:41.000Z</time>
      </trkpt>
      <trkpt lat="45.97531" lon="6.23768">
        <ele>1009</ele>
        <time>2016-08-27T06:37:42.000Z</time>
      </trkpt>
      <trkpt lat="45.9753" lon="6.23768">
        <ele>1009</ele>
        <time>2016-08-27T06:37:43.000Z</time>
      </trkpt>
      <trkpt lat="45.97529" lon="6.23768">
        <ele>1010</ele>
        <time>2016-08-27T06:37:44.000Z</time>
      </trkpt>
      <trkpt lat="45.97528" lon="6.23768">
        <ele>1010</ele>
        <time>2016-08-27T06:37:45.000Z</time>
      </trkpt>
      <trkpt lat="45.97527" lon="6.23768">
        <ele>1010</ele>
        <time>2016-08-27T06:37:46.000Z</time>
      </trkpt>
      <trkpt lat="45.97526" lon="6.23768">
        <ele>1010</ele>
        <time>2016-08-27T06:37:47.000Z</time>
      </trkpt>
      <trkpt lat="45.97525" lon="6.23768">
        <ele>1010</ele>
        <time>2016-08-27T06:37:48.000Z</time>
      </trkpt>
      <trkpt lat="45.97524" lon="6.23768">
        <ele>1010</ele>
        <time>2016-08-27T06:37:49.000Z</time>
      </trkpt>
      <trkpt lat="45.97524" lon="6.23768">
        <ele>1011</ele>
        <time>2016-08-27T06:37:50.000Z</time>
      </trkpt>
      <trkpt lat="45.97523" lon="6.23768">
        <ele>1011</ele>
        <time>2016-08-27T06:37:51.000Z</time>
      </trkpt>
      <trkpt lat="45.97522" lon="6.23768">
        <ele>1011</ele>
        <time>2016-08-27T06:37:52.000Z</time>
      </trkpt>
      <trkpt lat="45.97522" lon="6.23768">
        <ele>1011</ele>
        <time>2016-08-27T06:37:53.000Z</time>
      </trkpt>
      <trkpt lat="45.97521" lon="6.23768">
        <ele>1012</ele>
        <time>2016-08-27T06:37:54.000Z</time>
      </trkpt>
      <trkpt lat="45.97521" lon="6.23768">
        <ele>1012</ele>
        <time>2016-08-27T06:37:55.000Z</time>
      </trkpt>
      <trkpt lat="45.9752" lon="6.23767">
        <ele>1012</ele>
        <time>2016-08-27T06:37:56.000Z</time>
      </trkpt>
      <trkpt lat="45.97519" lon="6.23767">
        <ele>1012</ele>
        <time>2016-08-27T06:37:57.000Z</time>
      </trkpt>
      <trkpt lat="45.97518" lon="6.23766">
        <ele>1012</ele>
        <time>2016-08-27T06:37:58.000Z</time>
      </trkpt>
      <trkpt lat="45.97517" lon="6.23766">
        <ele>1012</ele>
        <time>2016-08-27T06:37:59.000Z</time>
      </trkpt>
      <trkpt lat="45.97516" lon="6.23765">
        <ele>1013</ele>
        <time>2016-08-27T06:38:00.000Z</time>
      </trkpt>
      <trkpt lat="45.97515" lon="6.23765">
        <ele>1013</ele>
        <time>2016-08-27T06:38:01.000Z</time>
      </trkpt>
      <trkpt lat="45.97515" lon="6.23765">
        <ele>1013</ele>
        <time>2016-08-27T06:38:02.000Z</time>
      </trkpt>
      <trkpt lat="45.97514" lon="6.23765">
        <ele>1013</ele>
        <time>2016-08-27T06:38:03.000Z</time>
      </trkpt>
      <trkpt lat="45.97513" lon="6.23765">
        <ele>1014</ele>
        <time>2016-08-27T06:38:04.000Z</time>
      </trkpt>
      <trkpt lat="45.97513" lon="6.23764">
        <ele>1014</ele>
        <time>2016-08-27T06:38:05.000Z</time>
      </trkpt>
      <trkpt lat="45.97512" lon="6.23763">
        <ele>1014</ele>
        <time>2016-08-27T06:38:06.000Z</time>
      </trkpt>
      <trkpt lat="45.97512" lon="6.23763">
        <ele>1014</ele>
        <time>2016-08-27T06:38:07.000Z</time>
      </trkpt>
      <trkpt lat="45.97511" lon="6.23762">
        <ele>1014</ele>
        <time>2016-08-27T06:38:08.000Z</time>
      </trkpt>
      <trkpt lat="45.9751" lon="6.23762">
        <ele>1014</ele>
        <time>2016-08-27T06:38:09.000Z</time>
      </trkpt>
      <trkpt lat="45.97509" lon="6.23762">
        <ele>1015</ele>
        <time>2016-08-27T06:38:10.000Z</time>
      </trkpt>
      <trkpt lat="45.97508" lon="6.23762">
        <ele>1015</ele>
        <time>2016-08-27T06:38:11.000Z</time>
      </trkpt>
      <trkpt lat="45.97508" lon="6.23762">
        <ele>1015</ele>
        <time>2016-08-27T06:38:12.000Z</time>
      </trkpt>
      <trkpt lat="45.97507" lon="6.23762">
        <ele>1015</ele>
        <time>2016-08-27T06:38:13.000Z</time>
      </trkpt>
      <trkpt lat="45.97506" lon="6.23762">
        <ele>1016</ele>
        <time>2016-08-27T06:38:14.000Z</time>
      </trkpt>
      <trkpt lat="45.97505" lon="6.23762">
        <ele>1016</ele>
        <time>2016-08-27T06:38:15.000Z</time>
      </trkpt>
      <trkpt lat="45.97505" lon="6.23761">
        <ele>1016</ele>
        <time>2016-08-27T06:38:16.000Z</time>
      </trkpt>
      <trkpt lat="45.97504" lon="6.23761">
        <ele>1016</ele>
        <time>2016-08-27T06:38:17.000Z</time>
      </trkpt>
      <trkpt lat="45.97503" lon="6.23761">
        <ele>1016</ele>
        <time>2016-08-27T06:38:18.000Z</time>
      </trkpt>
      <trkpt lat="45.97503" lon="6.23762">
        <ele>1016</ele>
        <time>2016-08-27T06:38:19.000Z</time>
      </trkpt>
      <trkpt lat="45.97502" lon="6.23762">
        <ele>1017</ele>
        <time>2016-08-27T06:38:20.000Z</time>
      </trkpt>
      <trkpt lat="45.97501" lon="6.23762">
        <ele>1017</ele>
        <time>2016-08-27T06:38:21.000Z</time>
      </trkpt>
      <trkpt lat="45.975" lon="6.23762">
        <ele>1017</ele>
        <time>2016-08-27T06:38:22.000Z</time>
      </trkpt>
      <trkpt lat="45.97499" lon="6.23762">
        <ele>1017</ele>
        <time>2016-08-27T06:38:23.000Z</time>
      </trkpt>
      <trkpt lat="45.97498" lon="6.23762">
        <ele>1018</ele>
        <time>2016-08-27T06:38:24.000Z</time>
      </trkpt>
      <trkpt lat="45.97497" lon="6.23762">
        <ele>1018</ele>
        <time>2016-08-27T06:38:25.000Z</time>
      </trkpt>
      <trkpt lat="45.97496" lon="6.23761">
        <ele>1018</ele>
        <time>2016-08-27T06:38:26.000Z</time>
      </trkpt>
      <trkpt lat="45.97495" lon="6.23761">
        <ele>1018</ele>
        <time>2016-08-27T06:38:27.000Z</time>
      </trkpt>
      <trkpt lat="45.97495" lon="6.23761">
        <ele>1019</ele>
        <time>2016-08-27T06:38:28.000Z</time>
      </trkpt>
      <trkpt lat="45.97494" lon="6.23761">
        <ele>1019</ele>
        <time>2016-08-27T06:38:29.000Z</time>
      </trkpt>
      <trkpt lat="45.97493" lon="6.23762">
        <ele>1019</ele>
        <time>2016-08-27T06:38:30.000Z</time>
      </trkpt>
      <trkpt lat="45.97492" lon="6.23761">
        <ele>1019</ele>
        <time>2016-08-27T06:38:31.000Z</time>
      </trkpt>
      <trkpt lat="45.97491" lon="6.23761">
        <ele>1019</ele>
        <time>2016-08-27T06:38:32.000Z</time>
      </trkpt>
      <trkpt lat="45.9749" lon="6.23761">
        <ele>1019</ele>
        <time>2016-08-27T06:38:33.000Z</time>
      </trkpt>
      <trkpt lat="45.97489" lon="6.23761">
        <ele>1019</ele>
        <time>2016-08-27T06:38:34.000Z</time>
      </trkpt>
      <trkpt lat="45.97488" lon="6.23761">
        <ele>1019</ele>
        <time>2016-08-27T06:38:35.000Z</time>
      </trkpt>
      <trkpt lat="45.97487" lon="6.23761">
        <ele>1020</ele>
        <time>2016-08-27T06:38:36.000Z</time>
      </trkpt>
      <trkpt lat="45.97487" lon="6.23761">
        <ele>1020</ele>
        <time>2016-08-27T06:38:37.000Z</time>
      </trkpt>
      <trkpt lat="45.97486" lon="6.23762">
        <ele>1020</ele>
        <time>2016-08-27T06:38:38.000Z</time>
      </trkpt>
      <trkpt lat="45.97485" lon="6.23762">
        <ele>1020</ele>
        <time>2016-08-27T06:38:39.000Z</time>
      </trkpt>
      <trkpt lat="45.97485" lon="6.23763">
        <ele>1020</ele>
        <time>2016-08-27T06:38:40.000Z</time>
      </trkpt>
      <trkpt lat="45.97484" lon="6.23764">
        <ele>1020</ele>
        <time>2016-08-27T06:38:41.000Z</time>
      </trkpt>
      <trkpt lat="45.97484" lon="6.23766">
        <ele>1020</ele>
        <time>2016-08-27T06:38:42.000Z</time>
      </trkpt>
      <trkpt lat="45.97483" lon="6.23766">
        <ele>1020</ele>
        <time>2016-08-27T06:38:43.000Z</time>
      </trkpt>
      <trkpt lat="45.97483" lon="6.23767">
        <ele>1021</ele>
        <time>2016-08-27T06:38:44.000Z</time>
      </trkpt>
      <trkpt lat="45.97483" lon="6.23768">
        <ele>1021</ele>
        <time>2016-08-27T06:38:45.000Z</time>
      </trkpt>
      <trkpt lat="45.97482" lon="6.23768">
        <ele>1021</ele>
        <time>2016-08-27T06:38:46.000Z</time>
      </trkpt>
      <trkpt lat="45.97481" lon="6.23769">
        <ele>1021</ele>
        <time>2016-08-27T06:38:47.000Z</time>
      </trkpt>
      <trkpt lat="45.97481" lon="6.23769">
        <ele>1022</ele>
        <time>2016-08-27T06:38:48.000Z</time>
      </trkpt>
      <trkpt lat="45.9748" lon="6.2377">
        <ele>1022</ele>
        <time>2016-08-27T06:38:49.000Z</time>
      </trkpt>
      <trkpt lat="45.97479" lon="6.2377">
        <ele>1022</ele>
        <time>2016-08-27T06:38:50.000Z</time>
      </trkpt>
      <trkpt lat="45.97479" lon="6.23771">
        <ele>1022</ele>
        <time>2016-08-27T06:38:51.000Z</time>
      </trkpt>
      <trkpt lat="45.97478" lon="6.23772">
        <ele>1023</ele>
        <time>2016-08-27T06:38:52.000Z</time>
      </trkpt>
      <trkpt lat="45.97478" lon="6.23772">
        <ele>1023</ele>
        <time>2016-08-27T06:38:53.000Z</time>
      </trkpt>
      <trkpt lat="45.97477" lon="6.23773">
        <ele>1024</ele>
        <time>2016-08-27T06:38:54.000Z</time>
      </trkpt>
      <trkpt lat="45.97477" lon="6.23774">
        <ele>1024</ele>
        <time>2016-08-27T06:38:55.000Z</time>
      </trkpt>
      <trkpt lat="45.97477" lon="6.23775">
        <ele>1024</ele>
        <time>2016-08-27T06:38:56.000Z</time>
      </trkpt>
      <trkpt lat="45.97477" lon="6.23776">
        <ele>1024</ele>
        <time>2016-08-27T06:38:57.000Z</time>
      </trkpt>
      <trkpt lat="45.97476" lon="6.23778">
        <ele>1025</ele>
        <time>2016-08-27T06:38:58.000Z</time>
      </trkpt>
      <trkpt lat="45.97476" lon="6.23779">
        <ele>1025</ele>
        <time>2016-08-27T06:38:59.000Z</time>
      </trkpt>
      <trkpt lat="45.97476" lon="6.2378">
        <ele>1026</ele>
        <time>2016-08-27T06:39:00.000Z</time>
      </trkpt>
      <trkpt lat="45.97476" lon="6.2378">
        <ele>1026</ele>
        <time>2016-08-27T06:39:01.000Z</time>
      </trkpt>
      <trkpt lat="45.97476" lon="6.23781">
        <ele>1027</ele>
        <time>2016-08-27T06:39:02.000Z</time>
      </trkpt>
      <trkpt lat="45.97476" lon="6.23782">
        <ele>1027</ele>
        <time>2016-08-27T06:39:03.000Z</time>
      </trkpt>
      <trkpt lat="45.97476" lon="6.23783">
        <ele>1028</ele>
        <time>2016-08-27T06:39:04.000Z</time>
      </trkpt>
      <trkpt lat="45.97476" lon="6.23784">
        <ele>1028</ele>
        <time>2016-08-27T06:39:05.000Z</time>
      </trkpt>
      <trkpt lat="45.97476" lon="6.23785">
        <ele>1029</ele>
        <time>2016-08-27T06:39:06.000Z</time>
      </trkpt>
      <trkpt lat="45.97476" lon="6.23786">
        <ele>1029</ele>
        <time>2016-08-27T06:39:07.000Z</time>
      </trkpt>
      <trkpt lat="45.97476" lon="6.23787">
        <ele>1030</ele>
        <time>2016-08-27T06:39:08.000Z</time>
      </trkpt>
      <trkpt lat="45.97476" lon="6.23789">
        <ele>1030</ele>
        <time>2016-08-27T06:39:09.000Z</time>
      </trkpt>
      <trkpt lat="45.97476" lon="6.2379">
        <ele>1030</ele>
        <time>2016-08-27T06:39:10.000Z</time>
      </trkpt>
      <trkpt lat="45.97476" lon="6.23791">
        <ele>1030</ele>
        <time>2016-08-27T06:39:11.000Z</time>
      </trkpt>
      <trkpt lat="45.97475" lon="6.23793">
        <ele>1031</ele>
        <time>2016-08-27T06:39:12.000Z</time>
      </trkpt>
      <trkpt lat="45.97476" lon="6.23794">
        <ele>1031</ele>
        <time>2016-08-27T06:39:13.000Z</time>
      </trkpt>
      <trkpt lat="45.97476" lon="6.23796">
        <ele>1032</ele>
        <time>2016-08-27T06:39:14.000Z</time>
      </trkpt>
      <trkpt lat="45.97476" lon="6.23797">
        <ele>1032</ele>
        <time>2016-08-27T06:39:15.000Z</time>
      </trkpt>
      <trkpt lat="45.97476" lon="6.23798">
        <ele>1032</ele>
        <time>2016-08-27T06:39:16.000Z</time>
      </trkpt>
      <trkpt lat="45.97477" lon="6.23799">
        <ele>1032</ele>
        <time>2016-08-27T06:39:17.000Z</time>
      </trkpt>
      <trkpt lat="45.97477" lon="6.238">
        <ele>1033</ele>
        <time>2016-08-27T06:39:18.000Z</time>
      </trkpt>
      <trkpt lat="45.97477" lon="6.23801">
        <ele>1033</ele>
        <time>2016-08-27T06:39:19.000Z</time>
      </trkpt>
      <trkpt lat="45.97478" lon="6.23802">
        <ele>1034</ele>
        <time>2016-08-27T06:39:20.000Z</time>
      </trkpt>
      <trkpt lat="45.97479" lon="6.23802">
        <ele>1034</ele>
        <time>2016-08-27T06:39:21.000Z</time>
      </trkpt>
      <trkpt lat="45.97479" lon="6.23803">
        <ele>1034</ele>
        <time>2016-08-27T06:39:22.000Z</time>
      </trkpt>
      <trkpt lat="45.97479" lon="6.23804">
        <ele>1034</ele>
        <time>2016-08-27T06:39:23.000Z</time>
      </trkpt>
      <trkpt lat="45.97479" lon="6.23804">
        <ele>1035</ele>
        <time>2016-08-27T06:39:24.000Z</time>
      </trkpt>
      <trkpt lat="45.9748" lon="6.23805">
        <ele>1035</ele>
        <time>2016-08-27T06:39:25.000Z</time>
      </trkpt>
      <trkpt lat="45.9748" lon="6.23806">
        <ele>1035</ele>
        <time>2016-08-27T06:39:26.000Z</time>
      </trkpt>
      <trkpt lat="45.9748" lon="6.23807">
        <ele>1035</ele>
        <time>2016-08-27T06:39:27.000Z</time>
      </trkpt>
      <trkpt lat="45.9748" lon="6.23808">
        <ele>1036</ele>
        <time>2016-08-27T06:39:28.000Z</time>
      </trkpt>
      <trkpt lat="45.97481" lon="6.23809">
        <ele>1036</ele>
        <time>2016-08-27T06:39:29.000Z</time>
      </trkpt>
      <trkpt lat="45.97481" lon="6.2381">
        <ele>1036</ele>
        <time>2016-08-27T06:39:30.000Z</time>
      </trkpt>
      <trkpt lat="45.97481" lon="6.23811">
        <ele>1036</ele>
        <time>2016-08-27T06:39:31.000Z</time>
      </trkpt>
      <trkpt lat="45.97481" lon="6.23812">
        <ele>1037</ele>
        <time>2016-08-27T06:39:32.000Z</time>
      </trkpt>
      <trkpt lat="45.97481" lon="6.23813">
        <ele>1037</ele>
        <time>2016-08-27T06:39:33.000Z</time>
      </trkpt>
      <trkpt lat="45.97481" lon="6.23814">
        <ele>1037</ele>
        <time>2016-08-27T06:39:34.000Z</time>
      </trkpt>
      <trkpt lat="45.97481" lon="6.23816">
        <ele>1037</ele>
        <time>2016-08-27T06:39:35.000Z</time>
      </trkpt>
      <trkpt lat="45.97481" lon="6.23817">
        <ele>1038</ele>
        <time>2016-08-27T06:39:36.000Z</time>
      </trkpt>
      <trkpt lat="45.97481" lon="6.23818">
        <ele>1038</ele>
        <time>2016-08-27T06:39:37.000Z</time>
      </trkpt>
      <trkpt lat="45.97481" lon="6.23819">
        <ele>1038</ele>
        <time>2016-08-27T06:39:38.000Z</time>
      </trkpt>
      <trkpt lat="45.97482" lon="6.2382">
        <ele>1038</ele>
        <time>2016-08-27T06:39:39.000Z</time>
      </trkpt>
      <trkpt lat="45.97482" lon="6.23821">
        <ele>1039</ele>
        <time>2016-08-27T06:39:40.000Z</time>
      </trkpt>
      <trkpt lat="45.97482" lon="6.23822">
        <ele>1039</ele>
        <time>2016-08-27T06:39:41.000Z</time>
      </trkpt>
      <trkpt lat="45.97483" lon="6.23823">
        <ele>1039</ele>
        <time>2016-08-27T06:39:42.000Z</time>
      </trkpt>
      <trkpt lat="45.97483" lon="6.23824">
        <ele>1039</ele>
        <time>2016-08-27T06:39:43.000Z</time>
      </trkpt>
      <trkpt lat="45.97483" lon="6.23825">
        <ele>1040</ele>
        <time>2016-08-27T06:39:44.000Z</time>
      </trkpt>
      <trkpt lat="45.97484" lon="6.23826">
        <ele>1040</ele>
        <time>2016-08-27T06:39:45.000Z</time>
      </trkpt>
      <trkpt lat="45.97484" lon="6.23827">
        <ele>1041</ele>
        <time>2016-08-27T06:39:46.000Z</time>
      </trkpt>
      <trkpt lat="45.97484" lon="6.23828">
        <ele>1041</ele>
        <time>2016-08-27T06:39:47.000Z</time>
      </trkpt>
      <trkpt lat="45.97485" lon="6.23829">
        <ele>1041</ele>
        <time>2016-08-27T06:39:48.000Z</time>
      </trkpt>
      <trkpt lat="45.97485" lon="6.2383">
        <ele>1041</ele>
        <time>2016-08-27T06:39:49.000Z</time>
      </trkpt>
      <trkpt lat="45.97486" lon="6.23831">
        <ele>1042</ele>
        <time>2016-08-27T06:39:50.000Z</time>
      </trkpt>
      <trkpt lat="45.97486" lon="6.23833">
        <ele>1042</ele>
        <time>2016-08-27T06:39:51.000Z</time>
      </trkpt>
      <trkpt lat="45.97486" lon="6.23834">
        <ele>1042</ele>
        <time>2016-08-27T06:39:52.000Z</time>
      </trkpt>
      <trkpt lat="45.97487" lon="6.23835">
        <ele>1042</ele>
        <time>2016-08-27T06:39:53.000Z</time>
      </trkpt>
      <trkpt lat="45.97487" lon="6.23836">
        <ele>1043</ele>
        <time>2016-08-27T06:39:54.000Z</time>
      </trkpt>
      <trkpt lat="45.97487" lon="6.23837">
        <ele>1043</ele>
        <time>2016-08-27T06:39:55.000Z</time>
      </trkpt>
      <trkpt lat="45.97487" lon="6.23837">
        <ele>1043</ele>
        <time>2016-08-27T06:39:56.000Z</time>
      </trkpt>
      <trkpt lat="45.97488" lon="6.23838">
        <ele>1043</ele>
        <time>2016-08-27T06:39:57.000Z</time>
      </trkpt>
      <trkpt lat="45.97488" lon="6.23839">
        <ele>1044</ele>
        <time>2016-08-27T06:39:58.000Z</time>
      </trkpt>
      <trkpt lat="45.97488" lon="6.2384">
        <ele>1044</ele>
        <time>2016-08-27T06:39:59.000Z</time>
      </trkpt>
      <trkpt lat="45.97488" lon="6.23841">
        <ele>1044</ele>
        <time>2016-08-27T06:40:00.000Z</time>
      </trkpt>
      <trkpt lat="45.97489" lon="6.23842">
        <ele>1044</ele>
        <time>2016-08-27T06:40:01.000Z</time>
      </trkpt>
      <trkpt lat="45.97489" lon="6.23843">
        <ele>1045</ele>
        <time>2016-08-27T06:40:02.000Z</time>
      </trkpt>
      <trkpt lat="45.97489" lon="6.23844">
        <ele>1045</ele>
        <time>2016-08-27T06:40:03.000Z</time>
      </trkpt>
      <trkpt lat="45.97489" lon="6.23845">
        <ele>1045</ele>
        <time>2016-08-27T06:40:04.000Z</time>
      </trkpt>
      <trkpt lat="45.97489" lon="6.23846">
        <ele>1045</ele>
        <time>2016-08-27T06:40:05.000Z</time>
      </trkpt>
      <trkpt lat="45.97489" lon="6.23847">
        <ele>1046</ele>
        <time>2016-08-27T06:40:06.000Z</time>
      </trkpt>
      <trkpt lat="45.97488" lon="6.23849">
        <ele>1046</ele>
        <time>2016-08-27T06:40:07.000Z</time>
      </trkpt>
      <trkpt lat="45.97488" lon="6.2385">
        <ele>1046</ele>
        <time>2016-08-27T06:40:08.000Z</time>
      </trkpt>
      <trkpt lat="45.97488" lon="6.23851">
        <ele>1046</ele>
        <time>2016-08-27T06:40:09.000Z</time>
      </trkpt>
      <trkpt lat="45.97488" lon="6.23852">
        <ele>1047</ele>
        <time>2016-08-27T06:40:10.000Z</time>
      </trkpt>
      <trkpt lat="45.97488" lon="6.23853">
        <ele>1047</ele>
        <time>2016-08-27T06:40:11.000Z</time>
      </trkpt>
      <trkpt lat="45.97488" lon="6.23853">
        <ele>1047</ele>
        <time>2016-08-27T06:40:12.000Z</time>
      </trkpt>
      <trkpt lat="45.97489" lon="6.23854">
        <ele>1047</ele>
        <time>2016-08-27T06:40:13.000Z</time>
      </trkpt>
      <trkpt lat="45.97489" lon="6.23855">
        <ele>1047</ele>
        <time>2016-08-27T06:40:14.000Z</time>
      </trkpt>
      <trkpt lat="45.97489" lon="6.23856">
        <ele>1047</ele>
        <time>2016-08-27T06:40:15.000Z</time>
      </trkpt>
      <trkpt lat="45.97489" lon="6.23857">
        <ele>1047</ele>
        <time>2016-08-27T06:40:16.000Z</time>
      </trkpt>
      <trkpt lat="45.97489" lon="6.23858">
        <ele>1047</ele>
        <time>2016-08-27T06:40:17.000Z</time>
      </trkpt>
      <trkpt lat="45.97489" lon="6.23859">
        <ele>1047</ele>
        <time>2016-08-27T06:40:18.000Z</time>
      </trkpt>
      <trkpt lat="45.97489" lon="6.2386">
        <ele>1047</ele>
        <time>2016-08-27T06:40:19.000Z</time>
      </trkpt>
      <trkpt lat="45.97489" lon="6.2386">
        <ele>1047</ele>
        <time>2016-08-27T06:40:20.000Z</time>
      </trkpt>
      <trkpt lat="45.97489" lon="6.23861">
        <ele>1047</ele>
        <time>2016-08-27T06:40:21.000Z</time>
      </trkpt>
      <trkpt lat="45.97489" lon="6.23862">
        <ele>1048</ele>
        <time>2016-08-27T06:40:22.000Z</time>
      </trkpt>
      <trkpt lat="45.9749" lon="6.23863">
        <ele>1048</ele>
        <time>2016-08-27T06:40:23.000Z</time>
      </trkpt>
      <trkpt lat="45.9749" lon="6.23864">
        <ele>1048</ele>
        <time>2016-08-27T06:40:24.000Z</time>
      </trkpt>
      <trkpt lat="45.9749" lon="6.23865">
        <ele>1048</ele>
        <time>2016-08-27T06:40:25.000Z</time>
      </trkpt>
      <trkpt lat="45.97491" lon="6.23866">
        <ele>1048</ele>
        <time>2016-08-27T06:40:26.000Z</time>
      </trkpt>
      <trkpt lat="45.97491" lon="6.23867">
        <ele>1048</ele>
        <time>2016-08-27T06:40:27.000Z</time>
      </trkpt>
      <trkpt lat="45.97491" lon="6.23869">
        <ele>1049</ele>
        <time>2016-08-27T06:40:28.000Z</time>
      </trkpt>
      <trkpt lat="45.97491" lon="6.2387">
        <ele>1049</ele>
        <time>2016-08-27T06:40:29.000Z</time>
      </trkpt>
      <trkpt lat="45.97492" lon="6.23871">
        <ele>1049</ele>
        <time>2016-08-27T06:40:30.000Z</time>
      </trkpt>
      <trkpt lat="45.97492" lon="6.23872">
        <ele>1049</ele>
        <time>2016-08-27T06:40:31.000Z</time>
      </trkpt>
      <trkpt lat="45.97492" lon="6.23873">
        <ele>1050</ele>
        <time>2016-08-27T06:40:32.000Z</time>
      </trkpt>
      <trkpt lat="45.97492" lon="6.23874">
        <ele>1050</ele>
        <time>2016-08-27T06:40:33.000Z</time>
      </trkpt>
      <trkpt lat="45.97492" lon="6.23876">
        <ele>1050</ele>
        <time>2016-08-27T06:40:34.000Z</time>
      </trkpt>
      <trkpt lat="45.97492" lon="6.23877">
        <ele>1050</ele>
        <time>2016-08-27T06:40:35.000Z</time>
      </trkpt>
      <trkpt lat="45.97492" lon="6.23878">
        <ele>1050</ele>
        <time>2016-08-27T06:40:36.000Z</time>
      </trkpt>
      <trkpt lat="45.97492" lon="6.2388">
        <ele>1050</ele>
        <time>2016-08-27T06:40:37.000Z</time>
      </trkpt>
      <trkpt lat="45.97492" lon="6.23881">
        <ele>1051</ele>
        <time>2016-08-27T06:40:38.000Z</time>
      </trkpt>
      <trkpt lat="45.97492" lon="6.23883">
        <ele>1051</ele>
        <time>2016-08-27T06:40:39.000Z</time>
      </trkpt>
      <trkpt lat="45.97492" lon="6.23884">
        <ele>1051</ele>
        <time>2016-08-27T06:40:40.000Z</time>
      </trkpt>
      <trkpt lat="45.97492" lon="6.23885">
        <ele>1051</ele>
        <time>2016-08-27T06:40:41.000Z</time>
      </trkpt>
      <trkpt lat="45.97492" lon="6.23886">
        <ele>1052</ele>
        <time>2016-08-27T06:40:42.000Z</time>
      </trkpt>
      <trkpt lat="45.97493" lon="6.23887">
        <ele>1052</ele>
        <time>2016-08-27T06:40:43.000Z</time>
      </trkpt>
      <trkpt lat="45.97493" lon="6.23888">
        <ele>1052</ele>
        <time>2016-08-27T06:40:44.000Z</time>
      </trkpt>
      <trkpt lat="45.97493" lon="6.23889">
        <ele>1052</ele>
        <time>2016-08-27T06:40:45.000Z</time>
      </trkpt>
      <trkpt lat="45.97493" lon="6.23891">
        <ele>1053</ele>
        <time>2016-08-27T06:40:46.000Z</time>
      </trkpt>
      <trkpt lat="45.97493" lon="6.23892">
        <ele>1053</ele>
        <time>2016-08-27T06:40:47.000Z</time>
      </trkpt>
      <trkpt lat="45.97493" lon="6.23893">
        <ele>1053</ele>
        <time>2016-08-27T06:40:48.000Z</time>
      </trkpt>
      <trkpt lat="45.97494" lon="6.23894">
        <ele>1053</ele>
        <time>2016-08-27T06:40:49.000Z</time>
      </trkpt>
      <trkpt lat="45.97494" lon="6.23895">
        <ele>1053</ele>
        <time>2016-08-27T06:40:50.000Z</time>
      </trkpt>
      <trkpt lat="45.97494" lon="6.23896">
        <ele>1053</ele>
        <time>2016-08-27T06:40:51.000Z</time>
      </trkpt>
      <trkpt lat="45.97494" lon="6.23897">
        <ele>1054</ele>
        <time>2016-08-27T06:40:52.000Z</time>
      </trkpt>
      <trkpt lat="45.97494" lon="6.23898">
        <ele>1054</ele>
        <time>2016-08-27T06:40:53.000Z</time>
      </trkpt>
      <trkpt lat="45.97495" lon="6.23899">
        <ele>1054</ele>
        <time>2016-08-27T06:40:54.000Z</time>
      </trkpt>
      <trkpt lat="45.97495" lon="6.239">
        <ele>1054</ele>
        <time>2016-08-27T06:40:55.000Z</time>
      </trkpt>
      <trkpt lat="45.97495" lon="6.23901">
        <ele>1054</ele>
        <time>2016-08-27T06:40:56.000Z</time>
      </trkpt>
      <trkpt lat="45.97494" lon="6.23902">
        <ele>1054</ele>
        <time>2016-08-27T06:40:57.000Z</time>
      </trkpt>
      <trkpt lat="45.97494" lon="6.23903">
        <ele>1054</ele>
        <time>2016-08-27T06:40:58.000Z</time>
      </trkpt>
      <trkpt lat="45.97494" lon="6.23904">
        <ele>1054</ele>
        <time>2016-08-27T06:40:59.000Z</time>
      </trkpt>
      <trkpt lat="45.97494" lon="6.23905">
        <ele>1055</ele>
        <time>2016-08-27T06:41:00.000Z</time>
      </trkpt>
      <trkpt lat="45.97495" lon="6.23906">
        <ele>1055</ele>
        <time>2016-08-27T06:41:01.000Z</time>
      </trkpt>
      <trkpt lat="45.97495" lon="6.23907">
        <ele>1055</ele>
        <time>2016-08-27T06:41:02.000Z</time>
      </trkpt>
      <trkpt lat="45.97495" lon="6.23908">
        <ele>1055</ele>
        <time>2016-08-27T06:41:03.000Z</time>
      </trkpt>
      <trkpt lat="45.97495" lon="6.23909">
        <ele>1055</ele>
        <time>2016-08-27T06:41:04.000Z</time>
      </trkpt>
      <trkpt lat="45.97495" lon="6.23909">
        <ele>1055</ele>
        <time>2016-08-27T06:41:05.000Z</time>
      </trkpt>
      <trkpt lat="45.97496" lon="6.2391">
        <ele>1055</ele>
        <time>2016-08-27T06:41:06.000Z</time>
      </trkpt>
      <trkpt lat="45.97496" lon="6.23911">
        <ele>1055</ele>
        <time>2016-08-27T06:41:07.000Z</time>
      </trkpt>
      <trkpt lat="45.97496" lon="6.23912">
        <ele>1055</ele>
        <time>2016-08-27T06:41:08.000Z</time>
      </trkpt>
      <trkpt lat="45.97496" lon="6.23913">
        <ele>1055</ele>
        <time>2016-08-27T06:41:09.000Z</time>
      </trkpt>
      <trkpt lat="45.97497" lon="6.23914">
        <ele>1056</ele>
        <time>2016-08-27T06:41:10.000Z</time>
      </trkpt>
      <trkpt lat="45.97497" lon="6.23915">
        <ele>1056</ele>
        <time>2016-08-27T06:41:11.000Z</time>
      </trkpt>
      <trkpt lat="45.97497" lon="6.23916">
        <ele>1056</ele>
        <time>2016-08-27T06:41:12.000Z</time>
      </trkpt>
      <trkpt lat="45.97497" lon="6.23917">
        <ele>1056</ele>
        <time>2016-08-27T06:41:13.000Z</time>
      </trkpt>
      <trkpt lat="45.97497" lon="6.23917">
        <ele>1056</ele>
        <time>2016-08-27T06:41:14.000Z</time>
      </trkpt>
      <trkpt lat="45.97497" lon="6.23918">
        <ele>1056</ele>
        <time>2016-08-27T06:41:15.000Z</time>
      </trkpt>
      <trkpt lat="45.97498" lon="6.23919">
        <ele>1057</ele>
        <time>2016-08-27T06:41:16.000Z</time>
      </trkpt>
      <trkpt lat="45.97498" lon="6.2392">
        <ele>1057</ele>
        <time>2016-08-27T06:41:17.000Z</time>
      </trkpt>
      <trkpt lat="45.97498" lon="6.2392">
        <ele>1057</ele>
        <time>2016-08-27T06:41:18.000Z</time>
      </trkpt>
      <trkpt lat="45.97498" lon="6.23921">
        <ele>1057</ele>
        <time>2016-08-27T06:41:19.000Z</time>
      </trkpt>
      <trkpt lat="45.97498" lon="6.23922">
        <ele>1058</ele>
        <time>2016-08-27T06:41:20.000Z</time>
      </trkpt>
      <trkpt lat="45.97498" lon="6.23923">
        <ele>1058</ele>
        <time>2016-08-27T06:41:21.000Z</time>
      </trkpt>
      <trkpt lat="45.97499" lon="6.23924">
        <ele>1058</ele>
        <time>2016-08-27T06:41:22.000Z</time>
      </trkpt>
      <trkpt lat="45.97499" lon="6.23925">
        <ele>1058</ele>
        <time>2016-08-27T06:41:23.000Z</time>
      </trkpt>
      <trkpt lat="45.975" lon="6.23926">
        <ele>1058</ele>
        <time>2016-08-27T06:41:24.000Z</time>
      </trkpt>
      <trkpt lat="45.975" lon="6.23927">
        <ele>1058</ele>
        <time>2016-08-27T06:41:25.000Z</time>
      </trkpt>
      <trkpt lat="45.975" lon="6.23928">
        <ele>1059</ele>
        <time>2016-08-27T06:41:26.000Z</time>
      </trkpt>
      <trkpt lat="45.97501" lon="6.23929">
        <ele>1059</ele>
        <time>2016-08-27T06:41:27.000Z</time>
      </trkpt>
      <trkpt lat="45.97501" lon="6.23929">
        <ele>1059</ele>
        <time>2016-08-27T06:41:28.000Z</time>
      </trkpt>
      <trkpt lat="45.97501" lon="6.2393">
        <ele>1059</ele>
        <time>2016-08-27T06:41:29.000Z</time>
      </trkpt>
      <trkpt lat="45.97501" lon="6.23931">
        <ele>1060</ele>
        <time>2016-08-27T06:41:30.000Z</time>
      </trkpt>
      <trkpt lat="45.97501" lon="6.23933">
        <ele>1060</ele>
        <time>2016-08-27T06:41:31.000Z</time>
      </trkpt>
      <trkpt lat="45.97501" lon="6.23934">
        <ele>1060</ele>
        <time>2016-08-27T06:41:32.000Z</time>
      </trkpt>
      <trkpt lat="45.97501" lon="6.23935">
        <ele>1060</ele>
        <time>2016-08-27T06:41:33.000Z</time>
      </trkpt>
      <trkpt lat="45.97501" lon="6.23936">
        <ele>1061</ele>
        <time>2016-08-27T06:41:34.000Z</time>
      </trkpt>
      <trkpt lat="45.97502" lon="6.23937">
        <ele>1061</ele>
        <time>2016-08-27T06:41:35.000Z</time>
      </trkpt>
      <trkpt lat="45.97502" lon="6.23938">
        <ele>1061</ele>
        <time>2016-08-27T06:41:36.000Z</time>
      </trkpt>
      <trkpt lat="45.97502" lon="6.23939">
        <ele>1061</ele>
        <time>2016-08-27T06:41:37.000Z</time>
      </trkpt>
      <trkpt lat="45.97503" lon="6.2394">
        <ele>1062</ele>
        <time>2016-08-27T06:41:38.000Z</time>
      </trkpt>
      <trkpt lat="45.97503" lon="6.23941">
        <ele>1062</ele>
        <time>2016-08-27T06:41:39.000Z</time>
      </trkpt>
      <trkpt lat="45.97504" lon="6.23942">
        <ele>1063</ele>
        <time>2016-08-27T06:41:40.000Z</time>
      </trkpt>
      <trkpt lat="45.97504" lon="6.23944">
        <ele>1063</ele>
        <time>2016-08-27T06:41:41.000Z</time>
      </trkpt>
      <trkpt lat="45.97505" lon="6.23945">
        <ele>1063</ele>
        <time>2016-08-27T06:41:42.000Z</time>
      </trkpt>
      <trkpt lat="45.97505" lon="6.23946">
        <ele>1063</ele>
        <time>2016-08-27T06:41:43.000Z</time>
      </trkpt>
      <trkpt lat="45.97505" lon="6.23947">
        <ele>1064</ele>
        <time>2016-08-27T06:41:44.000Z</time>
      </trkpt>
      <trkpt lat="45.97506" lon="6.23948">
        <ele>1064</ele>
        <time>2016-08-27T06:41:45.000Z</time>
      </trkpt>
      <trkpt lat="45.97506" lon="6.2395">
        <ele>1064</ele>
        <time>2016-08-27T06:41:46.000Z</time>
      </trkpt>
      <trkpt lat="45.97507" lon="6.23951">
        <ele>1064</ele>
        <time>2016-08-27T06:41:47.000Z</time>
      </trkpt>
      <trkpt lat="45.97507" lon="6.23953">
        <ele>1064</ele>
        <time>2016-08-27T06:41:48.000Z</time>
      </trkpt>
      <trkpt lat="45.97508" lon="6.23954">
        <ele>1064</ele>
        <time>2016-08-27T06:41:49.000Z</time>
      </trkpt>
      <trkpt lat="45.97508" lon="6.23955">
        <ele>1064</ele>
        <time>2016-08-27T06:41:50.000Z</time>
      </trkpt>
      <trkpt lat="45.97509" lon="6.23957">
        <ele>1064</ele>
        <time>2016-08-27T06:41:51.000Z</time>
      </trkpt>
      <trkpt lat="45.97509" lon="6.23958">
        <ele>1065</ele>
        <time>2016-08-27T06:41:52.000Z</time>
      </trkpt>
      <trkpt lat="45.9751" lon="6.23959">
        <ele>1065</ele>
        <time>2016-08-27T06:41:53.000Z</time>
      </trkpt>
      <trkpt lat="45.97511" lon="6.23961">
        <ele>1065</ele>
        <time>2016-08-27T06:41:54.000Z</time>
      </trkpt>
      <trkpt lat="45.97511" lon="6.23962">
        <ele>1065</ele>
        <time>2016-08-27T06:41:55.000Z</time>
      </trkpt>
      <trkpt lat="45.97511" lon="6.23963">
        <ele>1065</ele>
        <time>2016-08-27T06:41:56.000Z</time>
      </trkpt>
      <trkpt lat="45.97511" lon="6.23964">
        <ele>1065</ele>
        <time>2016-08-27T06:41:57.000Z</time>
      </trkpt>
      <trkpt lat="45.97512" lon="6.23965">
        <ele>1066</ele>
        <time>2016-08-27T06:41:58.000Z</time>
      </trkpt>
      <trkpt lat="45.97512" lon="6.23966">
        <ele>1066</ele>
        <time>2016-08-27T06:41:59.000Z</time>
      </trkpt>
      <trkpt lat="45.97512" lon="6.23967">
        <ele>1066</ele>
        <time>2016-08-27T06:42:00.000Z</time>
      </trkpt>
      <trkpt lat="45.97513" lon="6.23968">
        <ele>1066</ele>
        <time>2016-08-27T06:42:01.000Z</time>
      </trkpt>
      <trkpt lat="45.97513" lon="6.23969">
        <ele>1066</ele>
        <time>2016-08-27T06:42:02.000Z</time>
      </trkpt>
      <trkpt lat="45.97514" lon="6.2397">
        <ele>1066</ele>
        <time>2016-08-27T06:42:03.000Z</time>
      </trkpt>
      <trkpt lat="45.97514" lon="6.23972">
        <ele>1067</ele>
        <time>2016-08-27T06:42:04.000Z</time>
      </trkpt>
      <trkpt lat="45.97514" lon="6.23973">
        <ele>1067</ele>
        <time>2016-08-27T06:42:05.000Z</time>
      </trkpt>
      <trkpt lat="45.97515" lon="6.23974">
        <ele>1067</ele>
        <time>2016-08-27T06:42:06.000Z</time>
      </trkpt>
      <trkpt lat="45.97515" lon="6.23975">
        <ele>1067</ele>
        <time>2016-08-27T06:42:07.000Z</time>
      </trkpt>
      <trkpt lat="45.97515" lon="6.23976">
        <ele>1068</ele>
        <time>2016-08-27T06:42:08.000Z</time>
      </trkpt>
      <trkpt lat="45.97516" lon="6.23978">
        <ele>1068</ele>
        <time>2016-08-27T06:42:09.000Z</time>
      </trkpt>
      <trkpt lat="45.97516" lon="6.23979">
        <ele>1069</ele>
        <time>2016-08-27T06:42:10.000Z</time>
      </trkpt>
      <trkpt lat="45.97517" lon="6.2398">
        <ele>1069</ele>
        <time>2016-08-27T06:42:11.000Z</time>
      </trkpt>
      <trkpt lat="45.97517" lon="6.23981">
        <ele>1070</ele>
        <time>2016-08-27T06:42:12.000Z</time>
      </trkpt>
      <trkpt lat="45.97517" lon="6.23982">
        <ele>1070</ele>
        <time>2016-08-27T06:42:13.000Z</time>
      </trkpt>
      <trkpt lat="45.97517" lon="6.23983">
        <ele>1070</ele>
        <time>2016-08-27T06:42:14.000Z</time>
      </trkpt>
      <trkpt lat="45.97518" lon="6.23984">
        <ele>1070</ele>
        <time>2016-08-27T06:42:15.000Z</time>
      </trkpt>
      <trkpt lat="45.97518" lon="6.23985">
        <ele>1071</ele>
        <time>2016-08-27T06:42:16.000Z</time>
      </trkpt>
      <trkpt lat="45.97519" lon="6.23986">
        <ele>1071</ele>
        <time>2016-08-27T06:42:17.000Z</time>
      </trkpt>
      <trkpt lat="45.97519" lon="6.23987">
        <ele>1071</ele>
        <time>2016-08-27T06:42:18.000Z</time>
      </trkpt>
      <trkpt lat="45.97519" lon="6.23988">
        <ele>1071</ele>
        <time>2016-08-27T06:42:19.000Z</time>
      </trkpt>
      <trkpt lat="45.9752" lon="6.23989">
        <ele>1072</ele>
        <time>2016-08-27T06:42:20.000Z</time>
      </trkpt>
      <trkpt lat="45.97521" lon="6.2399">
        <ele>1072</ele>
        <time>2016-08-27T06:42:21.000Z</time>
      </trkpt>
      <trkpt lat="45.97521" lon="6.23991">
        <ele>1073</ele>
        <time>2016-08-27T06:42:22.000Z</time>
      </trkpt>
      <trkpt lat="45.97522" lon="6.23993">
        <ele>1073</ele>
        <time>2016-08-27T06:42:23.000Z</time>
      </trkpt>
      <trkpt lat="45.97522" lon="6.23994">
        <ele>1073</ele>
        <time>2016-08-27T06:42:24.000Z</time>
      </trkpt>
      <trkpt lat="45.97522" lon="6.23995">
        <ele>1073</ele>
        <time>2016-08-27T06:42:25.000Z</time>
      </trkpt>
      <trkpt lat="45.97523" lon="6.23996">
        <ele>1073</ele>
        <time>2016-08-27T06:42:26.000Z</time>
      </trkpt>
      <trkpt lat="45.97523" lon="6.23997">
        <ele>1073</ele>
        <time>2016-08-27T06:42:27.000Z</time>
      </trkpt>
      <trkpt lat="45.97523" lon="6.23999">
        <ele>1073</ele>
        <time>2016-08-27T06:42:28.000Z</time>
      </trkpt>
      <trkpt lat="45.97523" lon="6.24">
        <ele>1073</ele>
        <time>2016-08-27T06:42:29.000Z</time>
      </trkpt>
      <trkpt lat="45.97524" lon="6.24002">
        <ele>1073</ele>
        <time>2016-08-27T06:42:30.000Z</time>
      </trkpt>
      <trkpt lat="45.97524" lon="6.24003">
        <ele>1073</ele>
        <time>2016-08-27T06:42:31.000Z</time>
      </trkpt>
      <trkpt lat="45.97524" lon="6.24004">
        <ele>1074</ele>
        <time>2016-08-27T06:42:32.000Z</time>
      </trkpt>
      <trkpt lat="45.97525" lon="6.24005">
        <ele>1074</ele>
        <time>2016-08-27T06:42:33.000Z</time>
      </trkpt>
      <trkpt lat="45.97525" lon="6.24007">
        <ele>1074</ele>
        <time>2016-08-27T06:42:34.000Z</time>
      </trkpt>
      <trkpt lat="45.97525" lon="6.24008">
        <ele>1074</ele>
        <time>2016-08-27T06:42:35.000Z</time>
      </trkpt>
      <trkpt lat="45.97526" lon="6.24009">
        <ele>1074</ele>
        <time>2016-08-27T06:42:36.000Z</time>
      </trkpt>
      <trkpt lat="45.97526" lon="6.2401">
        <ele>1074</ele>
        <time>2016-08-27T06:42:37.000Z</time>
      </trkpt>
      <trkpt lat="45.97526" lon="6.24012">
        <ele>1074</ele>
        <time>2016-08-27T06:42:38.000Z</time>
      </trkpt>
      <trkpt lat="45.97526" lon="6.24013">
        <ele>1074</ele>
        <time>2016-08-27T06:42:39.000Z</time>
      </trkpt>
      <trkpt lat="45.97526" lon="6.24014">
        <ele>1074</ele>
        <time>2016-08-27T06:42:40.000Z</time>
      </trkpt>
      <trkpt lat="45.97526" lon="6.24015">
        <ele>1074</ele>
        <time>2016-08-27T06:42:41.000Z</time>
      </trkpt>
      <trkpt lat="45.97526" lon="6.24016">
        <ele>1075</ele>
        <time>2016-08-27T06:42:42.000Z</time>
      </trkpt>
      <trkpt lat="45.97527" lon="6.24018">
        <ele>1075</ele>
        <time>2016-08-27T06:42:43.000Z</time>
      </trkpt>
      <trkpt lat="45.97527" lon="6.24019">
        <ele>1075</ele>
        <time>2016-08-27T06:42:44.000Z</time>
      </trkpt>
      <trkpt lat="45.97527" lon="6.2402">
        <ele>1075</ele>
        <time>2016-08-27T06:42:45.000Z</time>
      </trkpt>
      <trkpt lat="45.97527" lon="6.24021">
        <ele>1075</ele>
        <time>2016-08-27T06:42:46.000Z</time>
      </trkpt>
      <trkpt lat="45.97528" lon="6.24022">
        <ele>1075</ele>
        <time>2016-08-27T06:42:47.000Z</time>
      </trkpt>
      <trkpt lat="45.97528" lon="6.24024">
        <ele>1076</ele>
        <time>2016-08-27T06:42:48.000Z</time>
      </trkpt>
      <trkpt lat="45.97528" lon="6.24025">
        <ele>1076</ele>
        <time>2016-08-27T06:42:49.000Z</time>
      </trkpt>
      <trkpt lat="45.97528" lon="6.24026">
        <ele>1076</ele>
        <time>2016-08-27T06:42:50.000Z</time>
      </trkpt>
      <trkpt lat="45.97529" lon="6.24028">
        <ele>1076</ele>
        <time>2016-08-27T06:42:51.000Z</time>
      </trkpt>
      <trkpt lat="45.97529" lon="6.24029">
        <ele>1076</ele>
        <time>2016-08-27T06:42:52.000Z</time>
      </trkpt>
      <trkpt lat="45.97529" lon="6.2403">
        <ele>1076</ele>
        <time>2016-08-27T06:42:53.000Z</time>
      </trkpt>
      <trkpt lat="45.9753" lon="6.24032">
        <ele>1077</ele>
        <time>2016-08-27T06:42:54.000Z</time>
      </trkpt>
      <trkpt lat="45.9753" lon="6.24033">
        <ele>1077</ele>
        <time>2016-08-27T06:42:55.000Z</time>
      </trkpt>
      <trkpt lat="45.9753" lon="6.24034">
        <ele>1077</ele>
        <time>2016-08-27T06:42:56.000Z</time>
      </trkpt>
      <trkpt lat="45.97531" lon="6.24036">
        <ele>1077</ele>
        <time>2016-08-27T06:42:57.000Z</time>
      </trkpt>
      <trkpt lat="45.97531" lon="6.24037">
        <ele>1077</ele>
        <time>2016-08-27T06:42:58.000Z</time>
      </trkpt>
      <trkpt lat="45.97531" lon="6.24038">
        <ele>1077</ele>
        <time>2016-08-27T06:42:59.000Z</time>
      </trkpt>
      <trkpt lat="45.97531" lon="6.2404">
        <ele>1077</ele>
        <time>2016-08-27T06:43:00.000Z</time>
      </trkpt>
      <trkpt lat="45.97532" lon="6.24041">
        <ele>1077</ele>
        <time>2016-08-27T06:43:01.000Z</time>
      </trkpt>
      <trkpt lat="45.97532" lon="6.24042">
        <ele>1077</ele>
        <time>2016-08-27T06:43:02.000Z</time>
      </trkpt>
      <trkpt lat="45.97532" lon="6.24044">
        <ele>1077</ele>
        <time>2016-08-27T06:43:03.000Z</time>
      </trkpt>
      <trkpt lat="45.97533" lon="6.24045">
        <ele>1078</ele>
        <time>2016-08-27T06:43:04.000Z</time>
      </trkpt>
      <trkpt lat="45.97533" lon="6.24046">
        <ele>1078</ele>
        <time>2016-08-27T06:43:05.000Z</time>
      </trkpt>
      <trkpt lat="45.97533" lon="6.24047">
        <ele>1078</ele>
        <time>2016-08-27T06:43:06.000Z</time>
      </trkpt>
      <trkpt lat="45.97534" lon="6.24048">
        <ele>1078</ele>
        <time>2016-08-27T06:43:07.000Z</time>
      </trkpt>
      <trkpt lat="45.97534" lon="6.24049">
        <ele>1078</ele>
        <time>2016-08-27T06:43:08.000Z</time>
      </trkpt>
      <trkpt lat="45.97534" lon="6.2405">
        <ele>1078</ele>
        <time>2016-08-27T06:43:09.000Z</time>
      </trkpt>
      <trkpt lat="45.97535" lon="6.24051">
        <ele>1079</ele>
        <time>2016-08-27T06:43:10.000Z</time>
      </trkpt>
      <trkpt lat="45.97535" lon="6.24052">
        <ele>1079</ele>
        <time>2016-08-27T06:43:11.000Z</time>
      </trkpt>
      <trkpt lat="45.97536" lon="6.24053">
        <ele>1079</ele>
        <time>2016-08-27T06:43:12.000Z</time>
      </trkpt>
      <trkpt lat="45.97536" lon="6.24054">
        <ele>1079</ele>
        <time>2016-08-27T06:43:13.000Z</time>
      </trkpt>
      <trkpt lat="45.97537" lon="6.24055">
        <ele>1079</ele>
        <time>2016-08-27T06:43:14.000Z</time>
      </trkpt>
      <trkpt lat="45.97537" lon="6.24056">
        <ele>1079</ele>
        <time>2016-08-27T06:43:15.000Z</time>
      </trkpt>
      <trkpt lat="45.97537" lon="6.24057">
        <ele>1079</ele>
        <time>2016-08-27T06:43:16.000Z</time>
      </trkpt>
      <trkpt lat="45.97538" lon="6.24058">
        <ele>1079</ele>
        <time>2016-08-27T06:43:17.000Z</time>
      </trkpt>
      <trkpt lat="45.97538" lon="6.24059">
        <ele>1080</ele>
        <time>2016-08-27T06:43:18.000Z</time>
      </trkpt>
      <trkpt lat="45.97538" lon="6.2406">
        <ele>1080</ele>
        <time>2016-08-27T06:43:19.000Z</time>
      </trkpt>
      <trkpt lat="45.97538" lon="6.24061">
        <ele>1080</ele>
        <time>2016-08-27T06:43:20.000Z</time>
      </trkpt>
      <trkpt lat="45.97538" lon="6.24062">
        <ele>1080</ele>
        <time>2016-08-27T06:43:21.000Z</time>
      </trkpt>
      <trkpt lat="45.97538" lon="6.24063">
        <ele>1080</ele>
        <time>2016-08-27T06:43:22.000Z</time>
      </trkpt>
      <trkpt lat="45.97538" lon="6.24064">
        <ele>1080</ele>
        <time>2016-08-27T06:43:23.000Z</time>
      </trkpt>
      <trkpt lat="45.97539" lon="6.24065">
        <ele>1081</ele>
        <time>2016-08-27T06:43:24.000Z</time>
      </trkpt>
      <trkpt lat="45.97539" lon="6.24066">
        <ele>1081</ele>
        <time>2016-08-27T06:43:25.000Z</time>
      </trkpt>
      <trkpt lat="45.97539" lon="6.24067">
        <ele>1082</ele>
        <time>2016-08-27T06:43:26.000Z</time>
      </trkpt>
      <trkpt lat="45.9754" lon="6.24068">
        <ele>1082</ele>
        <time>2016-08-27T06:43:27.000Z</time>
      </trkpt>
      <trkpt lat="45.9754" lon="6.24069">
        <ele>1082</ele>
        <time>2016-08-27T06:43:28.000Z</time>
      </trkpt>
      <trkpt lat="45.9754" lon="6.2407">
        <ele>1082</ele>
        <time>2016-08-27T06:43:29.000Z</time>
      </trkpt>
      <trkpt lat="45.9754" lon="6.24072">
        <ele>1083</ele>
        <time>2016-08-27T06:43:30.000Z</time>
      </trkpt>
      <trkpt lat="45.9754" lon="6.24073">
        <ele>1083</ele>
        <time>2016-08-27T06:43:31.000Z</time>
      </trkpt>
      <trkpt lat="45.97541" lon="6.24074">
        <ele>1083</ele>
        <time>2016-08-27T06:43:32.000Z</time>
      </trkpt>
      <trkpt lat="45.97541" lon="6.24075">
        <ele>1083</ele>
        <time>2016-08-27T06:43:33.000Z</time>
      </trkpt>
      <trkpt lat="45.97542" lon="6.24076">
        <ele>1084</ele>
        <time>2016-08-27T06:43:34.000Z</time>
      </trkpt>
      <trkpt lat="45.97542" lon="6.24077">
        <ele>1084</ele>
        <time>2016-08-27T06:43:35.000Z</time>
      </trkpt>
      <trkpt lat="45.97542" lon="6.24079">
        <ele>1084</ele>
        <time>2016-08-27T06:43:36.000Z</time>
      </trkpt>
      <trkpt lat="45.97543" lon="6.2408">
        <ele>1084</ele>
        <time>2016-08-27T06:43:37.000Z</time>
      </trkpt>
      <trkpt lat="45.97543" lon="6.24081">
        <ele>1085</ele>
        <time>2016-08-27T06:43:38.000Z</time>
      </trkpt>
      <trkpt lat="45.97543" lon="6.24082">
        <ele>1085</ele>
        <time>2016-08-27T06:43:39.000Z</time>
      </trkpt>
      <trkpt lat="45.97543" lon="6.24084">
        <ele>1085</ele>
        <time>2016-08-27T06:43:40.000Z</time>
      </trkpt>
      <trkpt lat="45.97544" lon="6.24085">
        <ele>1085</ele>
        <time>2016-08-27T06:43:41.000Z</time>
      </trkpt>
      <trkpt lat="45.97544" lon="6.24086">
        <ele>1085</ele>
        <time>2016-08-27T06:43:42.000Z</time>
      </trkpt>
      <trkpt lat="45.97544" lon="6.24087">
        <ele>1085</ele>
        <time>2016-08-27T06:43:43.000Z</time>
      </trkpt>
      <trkpt lat="45.97544" lon="6.24088">
        <ele>1085</ele>
        <time>2016-08-27T06:43:44.000Z</time>
      </trkpt>
      <trkpt lat="45.97544" lon="6.24089">
        <ele>1085</ele>
        <time>2016-08-27T06:43:45.000Z</time>
      </trkpt>
      <trkpt lat="45.97544" lon="6.24091">
        <ele>1086</ele>
        <time>2016-08-27T06:43:46.000Z</time>
      </trkpt>
      <trkpt lat="45.97544" lon="6.24092">
        <ele>1086</ele>
        <time>2016-08-27T06:43:47.000Z</time>
      </trkpt>
      <trkpt lat="45.97544" lon="6.24093">
        <ele>1086</ele>
        <time>2016-08-27T06:43:48.000Z</time>
      </trkpt>
      <trkpt lat="45.97544" lon="6.24094">
        <ele>1086</ele>
        <time>2016-08-27T06:43:49.000Z</time>
      </trkpt>
      <trkpt lat="45.97544" lon="6.24095">
        <ele>1086</ele>
        <time>2016-08-27T06:43:50.000Z</time>
      </trkpt>
      <trkpt lat="45.97544" lon="6.24096">
        <ele>1086</ele>
        <time>2016-08-27T06:43:51.000Z</time>
      </trkpt>
      <trkpt lat="45.97544" lon="6.24097">
        <ele>1086</ele>
        <time>2016-08-27T06:43:52.000Z</time>
      </trkpt>
      <trkpt lat="45.97544" lon="6.24098">
        <ele>1086</ele>
        <time>2016-08-27T06:43:53.000Z</time>
      </trkpt>
      <trkpt lat="45.97544" lon="6.241">
        <ele>1086</ele>
        <time>2016-08-27T06:43:54.000Z</time>
      </trkpt>
      <trkpt lat="45.97544" lon="6.24101">
        <ele>1086</ele>
        <time>2016-08-27T06:43:55.000Z</time>
      </trkpt>
      <trkpt lat="45.97544" lon="6.24103">
        <ele>1087</ele>
        <time>2016-08-27T06:43:56.000Z</time>
      </trkpt>
      <trkpt lat="45.97544" lon="6.24104">
        <ele>1087</ele>
        <time>2016-08-27T06:43:57.000Z</time>
      </trkpt>
      <trkpt lat="45.97544" lon="6.24105">
        <ele>1087</ele>
        <time>2016-08-27T06:43:58.000Z</time>
      </trkpt>
      <trkpt lat="45.97545" lon="6.24106">
        <ele>1087</ele>
        <time>2016-08-27T06:43:59.000Z</time>
      </trkpt>
      <trkpt lat="45.97545" lon="6.24107">
        <ele>1087</ele>
        <time>2016-08-27T06:44:00.000Z</time>
      </trkpt>
      <trkpt lat="45.97545" lon="6.24108">
        <ele>1087</ele>
        <time>2016-08-27T06:44:01.000Z</time>
      </trkpt>
      <trkpt lat="45.97545" lon="6.24109">
        <ele>1088</ele>
        <time>2016-08-27T06:44:02.000Z</time>
      </trkpt>
      <trkpt lat="45.97545" lon="6.24111">
        <ele>1088</ele>
        <time>2016-08-27T06:44:03.000Z</time>
      </trkpt>
      <trkpt lat="45.97545" lon="6.24112">
        <ele>1088</ele>
        <time>2016-08-27T06:44:04.000Z</time>
      </trkpt>
      <trkpt lat="45.97545" lon="6.24113">
        <ele>1088</ele>
        <time>2016-08-27T06:44:05.000Z</time>
      </trkpt>
      <trkpt lat="45.97545" lon="6.24114">
        <ele>1089</ele>
        <time>2016-08-27T06:44:06.000Z</time>
      </trkpt>
      <trkpt lat="45.97545" lon="6.24115">
        <ele>1089</ele>
        <time>2016-08-27T06:44:07.000Z</time>
      </trkpt>
      <trkpt lat="45.97546" lon="6.24116">
        <ele>1090</ele>
        <time>2016-08-27T06:44:08.000Z</time>
      </trkpt>
      <trkpt lat="45.97547" lon="6.24117">
        <ele>1090</ele>
        <time>2016-08-27T06:44:09.000Z</time>
      </trkpt>
      <trkpt lat="45.97547" lon="6.24118">
        <ele>1090</ele>
        <time>2016-08-27T06:44:10.000Z</time>
      </trkpt>
      <trkpt lat="45.97547" lon="6.24119">
        <ele>1090</ele>
        <time>2016-08-27T06:44:11.000Z</time>
      </trkpt>
      <trkpt lat="45.97548" lon="6.2412">
        <ele>1091</ele>
        <time>2016-08-27T06:44:12.000Z</time>
      </trkpt>
      <trkpt lat="45.97548" lon="6.24121">
        <ele>1091</ele>
        <time>2016-08-27T06:44:13.000Z</time>
      </trkpt>
      <trkpt lat="45.97548" lon="6.24122">
        <ele>1091</ele>
        <time>2016-08-27T06:44:14.000Z</time>
      </trkpt>
      <trkpt lat="45.97549" lon="6.24123">
        <ele>1091</ele>
        <time>2016-08-27T06:44:15.000Z</time>
      </trkpt>
      <trkpt lat="45.97549" lon="6.24124">
        <ele>1091</ele>
        <time>2016-08-27T06:44:16.000Z</time>
      </trkpt>
      <trkpt lat="45.97549" lon="6.24124">
        <ele>1091</ele>
        <time>2016-08-27T06:44:17.000Z</time>
      </trkpt>
      <trkpt lat="45.97549" lon="6.24126">
        <ele>1091</ele>
        <time>2016-08-27T06:44:18.000Z</time>
      </trkpt>
      <trkpt lat="45.97549" lon="6.24127">
        <ele>1091</ele>
        <time>2016-08-27T06:44:19.000Z</time>
      </trkpt>
      <trkpt lat="45.97549" lon="6.24128">
        <ele>1092</ele>
        <time>2016-08-27T06:44:20.000Z</time>
      </trkpt>
      <trkpt lat="45.97549" lon="6.24129">
        <ele>1092</ele>
        <time>2016-08-27T06:44:21.000Z</time>
      </trkpt>
      <trkpt lat="45.97549" lon="6.2413">
        <ele>1092</ele>
        <time>2016-08-27T06:44:22.000Z</time>
      </trkpt>
      <trkpt lat="45.97549" lon="6.24131">
        <ele>1092</ele>
        <time>2016-08-27T06:44:23.000Z</time>
      </trkpt>
      <trkpt lat="45.9755" lon="6.24132">
        <ele>1093</ele>
        <time>2016-08-27T06:44:24.000Z</time>
      </trkpt>
      <trkpt lat="45.9755" lon="6.24134">
        <ele>1093</ele>
        <time>2016-08-27T06:44:25.000Z</time>
      </trkpt>
      <trkpt lat="45.9755" lon="6.24134">
        <ele>1093</ele>
        <time>2016-08-27T06:44:26.000Z</time>
      </trkpt>
      <trkpt lat="45.9755" lon="6.24135">
        <ele>1093</ele>
        <time>2016-08-27T06:44:27.000Z</time>
      </trkpt>
      <trkpt lat="45.9755" lon="6.24136">
        <ele>1094</ele>
        <time>2016-08-27T06:44:28.000Z</time>
      </trkpt>
      <trkpt lat="45.9755" lon="6.24137">
        <ele>1094</ele>
        <time>2016-08-27T06:44:29.000Z</time>
      </trkpt>
      <trkpt lat="45.9755" lon="6.24137">
        <ele>1094</ele>
        <time>2016-08-27T06:44:30.000Z</time>
      </trkpt>
      <trkpt lat="45.9755" lon="6.24138">
        <ele>1094</ele>
        <time>2016-08-27T06:44:31.000Z</time>
      </trkpt>
      <trkpt lat="45.9755" lon="6.24138">
        <ele>1095</ele>
        <time>2016-08-27T06:44:32.000Z</time>
      </trkpt>
      <trkpt lat="45.97551" lon="6.24138">
        <ele>1095</ele>
        <time>2016-08-27T06:44:33.000Z</time>
      </trkpt>
      <trkpt lat="45.97551" lon="6.24139">
        <ele>1095</ele>
        <time>2016-08-27T06:44:34.000Z</time>
      </trkpt>
      <trkpt lat="45.97551" lon="6.2414">
        <ele>1095</ele>
        <time>2016-08-27T06:44:35.000Z</time>
      </trkpt>
      <trkpt lat="45.97551" lon="6.24141">
        <ele>1096</ele>
        <time>2016-08-27T06:44:36.000Z</time>
      </trkpt>
      <trkpt lat="45.97551" lon="6.24142">
        <ele>1096</ele>
        <time>2016-08-27T06:44:37.000Z</time>
      </trkpt>
      <trkpt lat="45.97551" lon="6.24143">
        <ele>1096</ele>
        <time>2016-08-27T06:44:38.000Z</time>
      </trkpt>
      <trkpt lat="45.97551" lon="6.24144">
        <ele>1096</ele>
        <time>2016-08-27T06:44:39.000Z</time>
      </trkpt>
      <trkpt lat="45.97551" lon="6.24145">
        <ele>1097</ele>
        <time>2016-08-27T06:44:40.000Z</time>
      </trkpt>
      <trkpt lat="45.97551" lon="6.24146">
        <ele>1097</ele>
        <time>2016-08-27T06:44:41.000Z</time>
      </trkpt>
      <trkpt lat="45.97551" lon="6.24147">
        <ele>1097</ele>
        <time>2016-08-27T06:44:42.000Z</time>
      </trkpt>
      <trkpt lat="45.97551" lon="6.24148">
        <ele>1097</ele>
        <time>2016-08-27T06:44:43.000Z</time>
      </trkpt>
      <trkpt lat="45.97551" lon="6.24149">
        <ele>1098</ele>
        <time>2016-08-27T06:44:44.000Z</time>
      </trkpt>
      <trkpt lat="45.97551" lon="6.24149">
        <ele>1098</ele>
        <time>2016-08-27T06:44:45.000Z</time>
      </trkpt>
      <trkpt lat="45.97551" lon="6.2415">
        <ele>1098</ele>
        <time>2016-08-27T06:44:46.000Z</time>
      </trkpt>
      <trkpt lat="45.97551" lon="6.24151">
        <ele>1098</ele>
        <time>2016-08-27T06:44:47.000Z</time>
      </trkpt>
      <trkpt lat="45.97551" lon="6.24152">
        <ele>1099</ele>
        <time>2016-08-27T06:44:48.000Z</time>
      </trkpt>
      <trkpt lat="45.9755" lon="6.24153">
        <ele>1099</ele>
        <time>2016-08-27T06:44:49.000Z</time>
      </trkpt>
      <trkpt lat="45.97551" lon="6.24154">
        <ele>1099</ele>
        <time>2016-08-27T06:44:50.000Z</time>
      </trkpt>
      <trkpt lat="45.97551" lon="6.24155">
        <ele>1099</ele>
        <time>2016-08-27T06:44:51.000Z</time>
      </trkpt>
      <trkpt lat="45.9755" lon="6.24156">
        <ele>1100</ele>
        <time>2016-08-27T06:44:52.000Z</time>
      </trkpt>
      <trkpt lat="45.9755" lon="6.24157">
        <ele>1100</ele>
        <time>2016-08-27T06:44:53.000Z</time>
      </trkpt>
      <trkpt lat="45.9755" lon="6.24157">
        <ele>1101</ele>
        <time>2016-08-27T06:44:54.000Z</time>
      </trkpt>
      <trkpt lat="45.97549" lon="6.24158">
        <ele>1101</ele>
        <time>2016-08-27T06:44:55.000Z</time>
      </trkpt>
      <trkpt lat="45.97549" lon="6.24159">
        <ele>1101</ele>
        <time>2016-08-27T06:44:56.000Z</time>
      </trkpt>
      <trkpt lat="45.97549" lon="6.24159">
        <ele>1101</ele>
        <time>2016-08-27T06:44:57.000Z</time>
      </trkpt>
      <trkpt lat="45.97549" lon="6.2416">
        <ele>1102</ele>
        <time>2016-08-27T06:44:58.000Z</time>
      </trkpt>
      <trkpt lat="45.97548" lon="6.24161">
        <ele>1102</ele>
        <time>2016-08-27T06:44:59.000Z</time>
      </trkpt>
      <trkpt lat="45.97548" lon="6.24161">
        <ele>1102</ele>
        <time>2016-08-27T06:45:00.000Z</time>
      </trkpt>
      <trkpt lat="45.97548" lon="6.24162">
        <ele>1102</ele>
        <time>2016-08-27T06:45:01.000Z</time>
      </trkpt>
      <trkpt lat="45.97548" lon="6.24163">
        <ele>1103</ele>
        <time>2016-08-27T06:45:02.000Z</time>
      </trkpt>
      <trkpt lat="45.97548" lon="6.24163">
        <ele>1103</ele>
        <time>2016-08-27T06:45:03.000Z</time>
      </trkpt>
      <trkpt lat="45.97547" lon="6.24164">
        <ele>1103</ele>
        <time>2016-08-27T06:45:04.000Z</time>
      </trkpt>
      <trkpt lat="45.97547" lon="6.24165">
        <ele>1103</ele>
        <time>2016-08-27T06:45:05.000Z</time>
      </trkpt>
      <trkpt lat="45.97547" lon="6.24165">
        <ele>1104</ele>
        <time>2016-08-27T06:45:06.000Z</time>
      </trkpt>
      <trkpt lat="45.97547" lon="6.24166">
        <ele>1104</ele>
        <time>2016-08-27T06:45:07.000Z</time>
      </trkpt>
      <trkpt lat="45.97546" lon="6.24167">
        <ele>1105</ele>
        <time>2016-08-27T06:45:08.000Z</time>
      </trkpt>
      <trkpt lat="45.97546" lon="6.24167">
        <ele>1105</ele>
        <time>2016-08-27T06:45:09.000Z</time>
      </trkpt>
      <trkpt lat="45.97546" lon="6.24168">
        <ele>1105</ele>
        <time>2016-08-27T06:45:10.000Z</time>
      </trkpt>
      <trkpt lat="45.97546" lon="6.24169">
        <ele>1105</ele>
        <time>2016-08-27T06:45:11.000Z</time>
      </trkpt>
      <trkpt lat="45.97546" lon="6.2417">
        <ele>1106</ele>
        <time>2016-08-27T06:45:12.000Z</time>
      </trkpt>
      <trkpt lat="45.97546" lon="6.24171">
        <ele>1106</ele>
        <time>2016-08-27T06:45:13.000Z</time>
      </trkpt>
      <trkpt lat="45.97546" lon="6.24171">
        <ele>1107</ele>
        <time>2016-08-27T06:45:14.000Z</time>
      </trkpt>
      <trkpt lat="45.97546" lon="6.24172">
        <ele>1107</ele>
        <time>2016-08-27T06:45:15.000Z</time>
      </trkpt>
      <trkpt lat="45.97546" lon="6.24173">
        <ele>1107</ele>
        <time>2016-08-27T06:45:16.000Z</time>
      </trkpt>
      <trkpt lat="45.97546" lon="6.24174">
        <ele>1107</ele>
        <time>2016-08-27T06:45:17.000Z</time>
      </trkpt>
      <trkpt lat="45.97546" lon="6.24175">
        <ele>1108</ele>
        <time>2016-08-27T06:45:18.000Z</time>
      </trkpt>
      <trkpt lat="45.97546" lon="6.24175">
        <ele>1108</ele>
        <time>2016-08-27T06:45:19.000Z</time>
      </trkpt>
      <trkpt lat="45.97546" lon="6.24176">
        <ele>1108</ele>
        <time>2016-08-27T06:45:20.000Z</time>
      </trkpt>
      <trkpt lat="45.97546" lon="6.24176">
        <ele>1108</ele>
        <time>2016-08-27T06:45:21.000Z</time>
      </trkpt>
      <trkpt lat="45.97545" lon="6.24177">
        <ele>1109</ele>
        <time>2016-08-27T06:45:22.000Z</time>
      </trkpt>
      <trkpt lat="45.97545" lon="6.24178">
        <ele>1109</ele>
        <time>2016-08-27T06:45:23.000Z</time>
      </trkpt>
      <trkpt lat="45.97545" lon="6.24179">
        <ele>1109</ele>
        <time>2016-08-27T06:45:24.000Z</time>
      </trkpt>
      <trkpt lat="45.97544" lon="6.24179">
        <ele>1109</ele>
        <time>2016-08-27T06:45:25.000Z</time>
      </trkpt>
      <trkpt lat="45.97544" lon="6.2418">
        <ele>1110</ele>
        <time>2016-08-27T06:45:26.000Z</time>
      </trkpt>
      <trkpt lat="45.97544" lon="6.24181">
        <ele>1110</ele>
        <time>2016-08-27T06:45:27.000Z</time>
      </trkpt>
      <trkpt lat="45.97544" lon="6.24182">
        <ele>1110</ele>
        <time>2016-08-27T06:45:28.000Z</time>
      </trkpt>
      <trkpt lat="45.97544" lon="6.24183">
        <ele>1110</ele>
        <time>2016-08-27T06:45:29.000Z</time>
      </trkpt>
      <trkpt lat="45.97544" lon="6.24183">
        <ele>1111</ele>
        <time>2016-08-27T06:45:30.000Z</time>
      </trkpt>
      <trkpt lat="45.97544" lon="6.24184">
        <ele>1111</ele>
        <time>2016-08-27T06:45:31.000Z</time>
      </trkpt>
      <trkpt lat="45.97544" lon="6.24185">
        <ele>1111</ele>
        <time>2016-08-27T06:45:32.000Z</time>
      </trkpt>
      <trkpt lat="45.97544" lon="6.24186">
        <ele>1111</ele>
        <time>2016-08-27T06:45:33.000Z</time>
      </trkpt>
      <trkpt lat="45.97544" lon="6.24187">
        <ele>1111</ele>
        <time>2016-08-27T06:45:34.000Z</time>
      </trkpt>
      <trkpt lat="45.97544" lon="6.24188">
        <ele>1111</ele>
        <time>2016-08-27T06:45:35.000Z</time>
      </trkpt>
      <trkpt lat="45.97544" lon="6.24189">
        <ele>1112</ele>
        <time>2016-08-27T06:45:36.000Z</time>
      </trkpt>
      <trkpt lat="45.97543" lon="6.24189">
        <ele>1112</ele>
        <time>2016-08-27T06:45:37.000Z</time>
      </trkpt>
      <trkpt lat="45.97543" lon="6.2419">
        <ele>1112</ele>
        <time>2016-08-27T06:45:38.000Z</time>
      </trkpt>
      <trkpt lat="45.97543" lon="6.24191">
        <ele>1112</ele>
        <time>2016-08-27T06:45:39.000Z</time>
      </trkpt>
      <trkpt lat="45.97543" lon="6.24192">
        <ele>1113</ele>
        <time>2016-08-27T06:45:40.000Z</time>
      </trkpt>
      <trkpt lat="45.97544" lon="6.24193">
        <ele>1113</ele>
        <time>2016-08-27T06:45:41.000Z</time>
      </trkpt>
      <trkpt lat="45.97544" lon="6.24194">
        <ele>1113</ele>
        <time>2016-08-27T06:45:42.000Z</time>
      </trkpt>
      <trkpt lat="45.97544" lon="6.24194">
        <ele>1113</ele>
        <time>2016-08-27T06:45:43.000Z</time>
      </trkpt>
      <trkpt lat="45.97544" lon="6.24195">
        <ele>1113</ele>
        <time>2016-08-27T06:45:44.000Z</time>
      </trkpt>
      <trkpt lat="45.97544" lon="6.24196">
        <ele>1113</ele>
        <time>2016-08-27T06:45:45.000Z</time>
      </trkpt>
      <trkpt lat="45.97544" lon="6.24196">
        <ele>1114</ele>
        <time>2016-08-27T06:45:46.000Z</time>
      </trkpt>
      <trkpt lat="45.97543" lon="6.24197">
        <ele>1114</ele>
        <time>2016-08-27T06:45:47.000Z</time>
      </trkpt>
      <trkpt lat="45.97543" lon="6.24198">
        <ele>1114</ele>
        <time>2016-08-27T06:45:48.000Z</time>
      </trkpt>
      <trkpt lat="45.97543" lon="6.24198">
        <ele>1114</ele>
        <time>2016-08-27T06:45:49.000Z</time>
      </trkpt>
      <trkpt lat="45.97543" lon="6.24199">
        <ele>1114</ele>
        <time>2016-08-27T06:45:50.000Z</time>
      </trkpt>
      <trkpt lat="45.97543" lon="6.242">
        <ele>1114</ele>
        <time>2016-08-27T06:45:51.000Z</time>
      </trkpt>
      <trkpt lat="45.97543" lon="6.24201">
        <ele>1114</ele>
        <time>2016-08-27T06:45:52.000Z</time>
      </trkpt>
      <trkpt lat="45.97543" lon="6.24202">
        <ele>1114</ele>
        <time>2016-08-27T06:45:53.000Z</time>
      </trkpt>
      <trkpt lat="45.97543" lon="6.24203">
        <ele>1115</ele>
        <time>2016-08-27T06:45:54.000Z</time>
      </trkpt>
      <trkpt lat="45.97543" lon="6.24204">
        <ele>1115</ele>
        <time>2016-08-27T06:45:55.000Z</time>
      </trkpt>
      <trkpt lat="45.97543" lon="6.24205">
        <ele>1115</ele>
        <time>2016-08-27T06:45:56.000Z</time>
      </trkpt>
      <trkpt lat="45.97543" lon="6.24205">
        <ele>1115</ele>
        <time>2016-08-27T06:45:57.000Z</time>
      </trkpt>
      <trkpt lat="45.97543" lon="6.24206">
        <ele>1115</ele>
        <time>2016-08-27T06:45:58.000Z</time>
      </trkpt>
      <trkpt lat="45.97543" lon="6.24207">
        <ele>1115</ele>
        <time>2016-08-27T06:45:59.000Z</time>
      </trkpt>
      <trkpt lat="45.97543" lon="6.24208">
        <ele>1116</ele>
        <time>2016-08-27T06:46:00.000Z</time>
      </trkpt>
      <trkpt lat="45.97543" lon="6.24209">
        <ele>1116</ele>
        <time>2016-08-27T06:46:01.000Z</time>
      </trkpt>
      <trkpt lat="45.97543" lon="6.2421">
        <ele>1116</ele>
        <time>2016-08-27T06:46:02.000Z</time>
      </trkpt>
      <trkpt lat="45.97543" lon="6.24211">
        <ele>1116</ele>
        <time>2016-08-27T06:46:03.000Z</time>
      </trkpt>
      <trkpt lat="45.97543" lon="6.24212">
        <ele>1117</ele>
        <time>2016-08-27T06:46:04.000Z</time>
      </trkpt>
      <trkpt lat="45.97543" lon="6.24212">
        <ele>1117</ele>
        <time>2016-08-27T06:46:05.000Z</time>
      </trkpt>
      <trkpt lat="45.97544" lon="6.24213">
        <ele>1117</ele>
        <time>2016-08-27T06:46:06.000Z</time>
      </trkpt>
      <trkpt lat="45.97544" lon="6.24214">
        <ele>1117</ele>
        <time>2016-08-27T06:46:07.000Z</time>
      </trkpt>
      <trkpt lat="45.97544" lon="6.24214">
        <ele>1117</ele>
        <time>2016-08-27T06:46:08.000Z</time>
      </trkpt>
      <trkpt lat="45.97545" lon="6.24215">
        <ele>1117</ele>
        <time>2016-08-27T06:46:09.000Z</time>
      </trkpt>
      <trkpt lat="45.97545" lon="6.24215">
        <ele>1118</ele>
        <time>2016-08-27T06:46:10.000Z</time>
      </trkpt>
      <trkpt lat="45.97545" lon="6.24216">
        <ele>1118</ele>
        <time>2016-08-27T06:46:11.000Z</time>
      </trkpt>
      <trkpt lat="45.97546" lon="6.24216">
        <ele>1118</ele>
        <time>2016-08-27T06:46:12.000Z</time>
      </trkpt>
      <trkpt lat="45.97546" lon="6.24217">
        <ele>1118</ele>
        <time>2016-08-27T06:46:13.000Z</time>
      </trkpt>
      <trkpt lat="45.97547" lon="6.24217">
        <ele>1119</ele>
        <time>2016-08-27T06:46:14.000Z</time>
      </trkpt>
      <trkpt lat="45.97547" lon="6.24218">
        <ele>1119</ele>
        <time>2016-08-27T06:46:15.000Z</time>
      </trkpt>
      <trkpt lat="45.97547" lon="6.24219">
        <ele>1119</ele>
        <time>2016-08-27T06:46:16.000Z</time>
      </trkpt>
      <trkpt lat="45.97548" lon="6.2422">
        <ele>1119</ele>
        <time>2016-08-27T06:46:17.000Z</time>
      </trkpt>
      <trkpt lat="45.97548" lon="6.24221">
        <ele>1120</ele>
        <time>2016-08-27T06:46:18.000Z</time>
      </trkpt>
      <trkpt lat="45.97548" lon="6.24222">
        <ele>1120</ele>
        <time>2016-08-27T06:46:19.000Z</time>
      </trkpt>
      <trkpt lat="45.97549" lon="6.24222">
        <ele>1121</ele>
        <time>2016-08-27T06:46:20.000Z</time>
      </trkpt>
      <trkpt lat="45.97549" lon="6.24223">
        <ele>1121</ele>
        <time>2016-08-27T06:46:21.000Z</time>
      </trkpt>
      <trkpt lat="45.9755" lon="6.24224">
        <ele>1121</ele>
        <time>2016-08-27T06:46:22.000Z</time>
      </trkpt>
      <trkpt lat="45.9755" lon="6.24225">
        <ele>1121</ele>
        <time>2016-08-27T06:46:23.000Z</time>
      </trkpt>
      <trkpt lat="45.9755" lon="6.24226">
        <ele>1122</ele>
        <time>2016-08-27T06:46:24.000Z</time>
      </trkpt>
      <trkpt lat="45.97551" lon="6.24227">
        <ele>1122</ele>
        <time>2016-08-27T06:46:25.000Z</time>
      </trkpt>
      <trkpt lat="45.97551" lon="6.24228">
        <ele>1122</ele>
        <time>2016-08-27T06:46:26.000Z</time>
      </trkpt>
      <trkpt lat="45.97551" lon="6.24229">
        <ele>1122</ele>
        <time>2016-08-27T06:46:27.000Z</time>
      </trkpt>
      <trkpt lat="45.97552" lon="6.2423">
        <ele>1123</ele>
        <time>2016-08-27T06:46:28.000Z</time>
      </trkpt>
      <trkpt lat="45.97552" lon="6.24231">
        <ele>1123</ele>
        <time>2016-08-27T06:46:29.000Z</time>
      </trkpt>
      <trkpt lat="45.97552" lon="6.24232">
        <ele>1123</ele>
        <time>2016-08-27T06:46:30.000Z</time>
      </trkpt>
      <trkpt lat="45.97553" lon="6.24233">
        <ele>1123</ele>
        <time>2016-08-27T06:46:31.000Z</time>
      </trkpt>
      <trkpt lat="45.97553" lon="6.24233">
        <ele>1124</ele>
        <time>2016-08-27T06:46:32.000Z</time>
      </trkpt>
      <trkpt lat="45.97553" lon="6.24234">
        <ele>1124</ele>
        <time>2016-08-27T06:46:33.000Z</time>
      </trkpt>
      <trkpt lat="45.97553" lon="6.24235">
        <ele>1124</ele>
        <time>2016-08-27T06:46:34.000Z</time>
      </trkpt>
      <trkpt lat="45.97553" lon="6.24236">
        <ele>1124</ele>
        <time>2016-08-27T06:46:35.000Z</time>
      </trkpt>
      <trkpt lat="45.97553" lon="6.24237">
        <ele>1125</ele>
        <time>2016-08-27T06:46:36.000Z</time>
      </trkpt>
      <trkpt lat="45.97553" lon="6.24238">
        <ele>1125</ele>
        <time>2016-08-27T06:46:37.000Z</time>
      </trkpt>
      <trkpt lat="45.97553" lon="6.24239">
        <ele>1125</ele>
        <time>2016-08-27T06:46:38.000Z</time>
      </trkpt>
      <trkpt lat="45.97554" lon="6.2424">
        <ele>1125</ele>
        <time>2016-08-27T06:46:39.000Z</time>
      </trkpt>
      <trkpt lat="45.97554" lon="6.24241">
        <ele>1125</ele>
        <time>2016-08-27T06:46:40.000Z</time>
      </trkpt>
      <trkpt lat="45.97554" lon="6.24241">
        <ele>1125</ele>
        <time>2016-08-27T06:46:41.000Z</time>
      </trkpt>
      <trkpt lat="45.97555" lon="6.24242">
        <ele>1125</ele>
        <time>2016-08-27T06:46:42.000Z</time>
      </trkpt>
      <trkpt lat="45.97555" lon="6.24243">
        <ele>1125</ele>
        <time>2016-08-27T06:46:43.000Z</time>
      </trkpt>
      <trkpt lat="45.97555" lon="6.24244">
        <ele>1126</ele>
        <time>2016-08-27T06:46:44.000Z</time>
      </trkpt>
      <trkpt lat="45.97555" lon="6.24245">
        <ele>1126</ele>
        <time>2016-08-27T06:46:45.000Z</time>
      </trkpt>
      <trkpt lat="45.97555" lon="6.24246">
        <ele>1126</ele>
        <time>2016-08-27T06:46:46.000Z</time>
      </trkpt>
      <trkpt lat="45.97555" lon="6.24247">
        <ele>1126</ele>
        <time>2016-08-27T06:46:47.000Z</time>
      </trkpt>
      <trkpt lat="45.97555" lon="6.24248">
        <ele>1126</ele>
        <time>2016-08-27T06:46:48.000Z</time>
      </trkpt>
      <trkpt lat="45.97555" lon="6.24249">
        <ele>1126</ele>
        <time>2016-08-27T06:46:49.000Z</time>
      </trkpt>
      <trkpt lat="45.97555" lon="6.2425">
        <ele>1126</ele>
        <time>2016-08-27T06:46:50.000Z</time>
      </trkpt>
      <trkpt lat="45.97555" lon="6.24251">
        <ele>1126</ele>
        <time>2016-08-27T06:46:51.000Z</time>
      </trkpt>
      <trkpt lat="45.97554" lon="6.24252">
        <ele>1126</ele>
        <time>2016-08-27T06:46:52.000Z</time>
      </trkpt>
      <trkpt lat="45.97554" lon="6.24253">
        <ele>1126</ele>
        <time>2016-08-27T06:46:53.000Z</time>
      </trkpt>
      <trkpt lat="45.97554" lon="6.24253">
        <ele>1126</ele>
        <time>2016-08-27T06:46:54.000Z</time>
      </trkpt>
      <trkpt lat="45.97554" lon="6.24254">
        <ele>1126</ele>
        <time>2016-08-27T06:46:55.000Z</time>
      </trkpt>
      <trkpt lat="45.97554" lon="6.24255">
        <ele>1126</ele>
        <time>2016-08-27T06:46:56.000Z</time>
      </trkpt>
      <trkpt lat="45.97554" lon="6.24256">
        <ele>1126</ele>
        <time>2016-08-27T06:46:57.000Z</time>
      </trkpt>
      <trkpt lat="45.97554" lon="6.24257">
        <ele>1127</ele>
        <time>2016-08-27T06:46:58.000Z</time>
      </trkpt>
      <trkpt lat="45.97554" lon="6.24258">
        <ele>1127</ele>
        <time>2016-08-27T06:46:59.000Z</time>
      </trkpt>
      <trkpt lat="45.97554" lon="6.24259">
        <ele>1127</ele>
        <time>2016-08-27T06:47:00.000Z</time>
      </trkpt>
      <trkpt lat="45.97554" lon="6.2426">
        <ele>1127</ele>
        <time>2016-08-27T06:47:01.000Z</time>
      </trkpt>
      <trkpt lat="45.97554" lon="6.24261">
        <ele>1127</ele>
        <time>2016-08-27T06:47:02.000Z</time>
      </trkpt>
      <trkpt lat="45.97554" lon="6.24262">
        <ele>1127</ele>
        <time>2016-08-27T06:47:03.000Z</time>
      </trkpt>
      <trkpt lat="45.97554" lon="6.24263">
        <ele>1128</ele>
        <time>2016-08-27T06:47:04.000Z</time>
      </trkpt>
      <trkpt lat="45.97554" lon="6.24264">
        <ele>1128</ele>
        <time>2016-08-27T06:47:05.000Z</time>
      </trkpt>
      <trkpt lat="45.97554" lon="6.24265">
        <ele>1128</ele>
        <time>2016-08-27T06:47:06.000Z</time>
      </trkpt>
      <trkpt lat="45.97554" lon="6.24266">
        <ele>1128</ele>
        <time>2016-08-27T06:47:07.000Z</time>
      </trkpt>
      <trkpt lat="45.97554" lon="6.24268">
        <ele>1128</ele>
        <time>2016-08-27T06:47:08.000Z</time>
      </trkpt>
      <trkpt lat="45.97553" lon="6.24269">
        <ele>1128</ele>
        <time>2016-08-27T06:47:09.000Z</time>
      </trkpt>
      <trkpt lat="45.97553" lon="6.2427">
        <ele>1128</ele>
        <time>2016-08-27T06:47:10.000Z</time>
      </trkpt>
      <trkpt lat="45.97553" lon="6.24271">
        <ele>1128</ele>
        <time>2016-08-27T06:47:11.000Z</time>
      </trkpt>
      <trkpt lat="45.97553" lon="6.24273">
        <ele>1129</ele>
        <time>2016-08-27T06:47:12.000Z</time>
      </trkpt>
      <trkpt lat="45.97553" lon="6.24274">
        <ele>1129</ele>
        <time>2016-08-27T06:47:13.000Z</time>
      </trkpt>
      <trkpt lat="45.97553" lon="6.24275">
        <ele>1129</ele>
        <time>2016-08-27T06:47:14.000Z</time>
      </trkpt>
      <trkpt lat="45.97553" lon="6.24276">
        <ele>1129</ele>
        <time>2016-08-27T06:47:15.000Z</time>
      </trkpt>
      <trkpt lat="45.97553" lon="6.24277">
        <ele>1130</ele>
        <time>2016-08-27T06:47:16.000Z</time>
      </trkpt>
      <trkpt lat="45.97553" lon="6.24278">
        <ele>1130</ele>
        <time>2016-08-27T06:47:17.000Z</time>
      </trkpt>
      <trkpt lat="45.97553" lon="6.24278">
        <ele>1131</ele>
        <time>2016-08-27T06:47:18.000Z</time>
      </trkpt>
      <trkpt lat="45.97553" lon="6.24279">
        <ele>1131</ele>
        <time>2016-08-27T06:47:19.000Z</time>
      </trkpt>
      <trkpt lat="45.97553" lon="6.2428">
        <ele>1131</ele>
        <time>2016-08-27T06:47:20.000Z</time>
      </trkpt>
      <trkpt lat="45.97552" lon="6.24281">
        <ele>1131</ele>
        <time>2016-08-27T06:47:21.000Z</time>
      </trkpt>
      <trkpt lat="45.97552" lon="6.24282">
        <ele>1132</ele>
        <time>2016-08-27T06:47:22.000Z</time>
      </trkpt>
      <trkpt lat="45.97552" lon="6.24283">
        <ele>1132</ele>
        <time>2016-08-27T06:47:23.000Z</time>
      </trkpt>
      <trkpt lat="45.97552" lon="6.24283">
        <ele>1132</ele>
        <time>2016-08-27T06:47:24.000Z</time>
      </trkpt>
      <trkpt lat="45.97552" lon="6.24284">
        <ele>1132</ele>
        <time>2016-08-27T06:47:25.000Z</time>
      </trkpt>
      <trkpt lat="45.97552" lon="6.24285">
        <ele>1133</ele>
        <time>2016-08-27T06:47:26.000Z</time>
      </trkpt>
      <trkpt lat="45.97552" lon="6.24286">
        <ele>1133</ele>
        <time>2016-08-27T06:47:27.000Z</time>
      </trkpt>
      <trkpt lat="45.97552" lon="6.24287">
        <ele>1133</ele>
        <time>2016-08-27T06:47:28.000Z</time>
      </trkpt>
      <trkpt lat="45.97552" lon="6.24287">
        <ele>1133</ele>
        <time>2016-08-27T06:47:29.000Z</time>
      </trkpt>
      <trkpt lat="45.97552" lon="6.24288">
        <ele>1133</ele>
        <time>2016-08-27T06:47:30.000Z</time>
      </trkpt>
      <trkpt lat="45.97552" lon="6.24289">
        <ele>1133</ele>
        <time>2016-08-27T06:47:31.000Z</time>
      </trkpt>
      <trkpt lat="45.97551" lon="6.2429">
        <ele>1134</ele>
        <time>2016-08-27T06:47:32.000Z</time>
      </trkpt>
      <trkpt lat="45.97551" lon="6.24291">
        <ele>1134</ele>
        <time>2016-08-27T06:47:33.000Z</time>
      </trkpt>
      <trkpt lat="45.97552" lon="6.24292">
        <ele>1134</ele>
        <time>2016-08-27T06:47:34.000Z</time>
      </trkpt>
      <trkpt lat="45.97552" lon="6.24292">
        <ele>1134</ele>
        <time>2016-08-27T06:47:35.000Z</time>
      </trkpt>
      <trkpt lat="45.97552" lon="6.24293">
        <ele>1135</ele>
        <time>2016-08-27T06:47:36.000Z</time>
      </trkpt>
      <trkpt lat="45.97552" lon="6.24294">
        <ele>1135</ele>
        <time>2016-08-27T06:47:37.000Z</time>
      </trkpt>
      <trkpt lat="45.97552" lon="6.24295">
        <ele>1136</ele>
        <time>2016-08-27T06:47:38.000Z</time>
      </trkpt>
      <trkpt lat="45.97552" lon="6.24295">
        <ele>1136</ele>
        <time>2016-08-27T06:47:39.000Z</time>
      </trkpt>
      <trkpt lat="45.97552" lon="6.24296">
        <ele>1136</ele>
        <time>2016-08-27T06:47:40.000Z</time>
      </trkpt>
      <trkpt lat="45.97552" lon="6.24296">
        <ele>1136</ele>
        <time>2016-08-27T06:47:41.000Z</time>
      </trkpt>
      <trkpt lat="45.97552" lon="6.24297">
        <ele>1137</ele>
        <time>2016-08-27T06:47:42.000Z</time>
      </trkpt>
      <trkpt lat="45.97552" lon="6.24297">
        <ele>1137</ele>
        <time>2016-08-27T06:47:43.000Z</time>
      </trkpt>
      <trkpt lat="45.97551" lon="6.24298">
        <ele>1137</ele>
        <time>2016-08-27T06:47:44.000Z</time>
      </trkpt>
      <trkpt lat="45.97551" lon="6.24298">
        <ele>1137</ele>
        <time>2016-08-27T06:47:45.000Z</time>
      </trkpt>
      <trkpt lat="45.97551" lon="6.24299">
        <ele>1137</ele>
        <time>2016-08-27T06:47:46.000Z</time>
      </trkpt>
      <trkpt lat="45.97551" lon="6.24299">
        <ele>1137</ele>
        <time>2016-08-27T06:47:47.000Z</time>
      </trkpt>
      <trkpt lat="45.97551" lon="6.243">
        <ele>1138</ele>
        <time>2016-08-27T06:47:48.000Z</time>
      </trkpt>
      <trkpt lat="45.9755" lon="6.24301">
        <ele>1138</ele>
        <time>2016-08-27T06:47:49.000Z</time>
      </trkpt>
      <trkpt lat="45.9755" lon="6.24301">
        <ele>1138</ele>
        <time>2016-08-27T06:47:50.000Z</time>
      </trkpt>
      <trkpt lat="45.9755" lon="6.24302">
        <ele>1138</ele>
        <time>2016-08-27T06:47:51.000Z</time>
      </trkpt>
      <trkpt lat="45.97549" lon="6.24302">
        <ele>1139</ele>
        <time>2016-08-27T06:47:52.000Z</time>
      </trkpt>
      <trkpt lat="45.97549" lon="6.24303">
        <ele>1139</ele>
        <time>2016-08-27T06:47:53.000Z</time>
      </trkpt>
      <trkpt lat="45.97549" lon="6.24303">
        <ele>1139</ele>
        <time>2016-08-27T06:47:54.000Z</time>
      </trkpt>
      <trkpt lat="45.97549" lon="6.24304">
        <ele>1139</ele>
        <time>2016-08-27T06:47:55.000Z</time>
      </trkpt>
      <trkpt lat="45.97549" lon="6.24305">
        <ele>1140</ele>
        <time>2016-08-27T06:47:56.000Z</time>
      </trkpt>
      <trkpt lat="45.97549" lon="6.24305">
        <ele>1140</ele>
        <time>2016-08-27T06:47:57.000Z</time>
      </trkpt>
      <trkpt lat="45.97548" lon="6.24306">
        <ele>1140</ele>
        <time>2016-08-27T06:47:58.000Z</time>
      </trkpt>
      <trkpt lat="45.97548" lon="6.24307">
        <ele>1140</ele>
        <time>2016-08-27T06:47:59.000Z</time>
      </trkpt>
      <trkpt lat="45.97548" lon="6.24308">
        <ele>1140</ele>
        <time>2016-08-27T06:48:00.000Z</time>
      </trkpt>
      <trkpt lat="45.97547" lon="6.24308">
        <ele>1140</ele>
        <time>2016-08-27T06:48:01.000Z</time>
      </trkpt>
      <trkpt lat="45.97547" lon="6.24309">
        <ele>1141</ele>
        <time>2016-08-27T06:48:02.000Z</time>
      </trkpt>
      <trkpt lat="45.97547" lon="6.2431">
        <ele>1141</ele>
        <time>2016-08-27T06:48:03.000Z</time>
      </trkpt>
      <trkpt lat="45.97546" lon="6.24311">
        <ele>1141</ele>
        <time>2016-08-27T06:48:04.000Z</time>
      </trkpt>
      <trkpt lat="45.97546" lon="6.24312">
        <ele>1141</ele>
        <time>2016-08-27T06:48:05.000Z</time>
      </trkpt>
      <trkpt lat="45.97546" lon="6.24313">
        <ele>1141</ele>
        <time>2016-08-27T06:48:06.000Z</time>
      </trkpt>
      <trkpt lat="45.97546" lon="6.24314">
        <ele>1141</ele>
        <time>2016-08-27T06:48:07.000Z</time>
      </trkpt>
      <trkpt lat="45.97546" lon="6.24315">
        <ele>1142</ele>
        <time>2016-08-27T06:48:08.000Z</time>
      </trkpt>
      <trkpt lat="45.97545" lon="6.24316">
        <ele>1142</ele>
        <time>2016-08-27T06:48:09.000Z</time>
      </trkpt>
      <trkpt lat="45.97545" lon="6.24318">
        <ele>1142</ele>
        <time>2016-08-27T06:48:10.000Z</time>
      </trkpt>
      <trkpt lat="45.97545" lon="6.24319">
        <ele>1142</ele>
        <time>2016-08-27T06:48:11.000Z</time>
      </trkpt>
      <trkpt lat="45.97544" lon="6.2432">
        <ele>1143</ele>
        <time>2016-08-27T06:48:12.000Z</time>
      </trkpt>
      <trkpt lat="45.97544" lon="6.24322">
        <ele>1143</ele>
        <time>2016-08-27T06:48:13.000Z</time>
      </trkpt>
      <trkpt lat="45.97544" lon="6.24323">
        <ele>1143</ele>
        <time>2016-08-27T06:48:14.000Z</time>
      </trkpt>
      <trkpt lat="45.97543" lon="6.24324">
        <ele>1143</ele>
        <time>2016-08-27T06:48:15.000Z</time>
      </trkpt>
      <trkpt lat="45.97543" lon="6.24325">
        <ele>1144</ele>
        <time>2016-08-27T06:48:16.000Z</time>
      </trkpt>
      <trkpt lat="45.97543" lon="6.24326">
        <ele>1144</ele>
        <time>2016-08-27T06:48:17.000Z</time>
      </trkpt>
      <trkpt lat="45.97543" lon="6.24327">
        <ele>1144</ele>
        <time>2016-08-27T06:48:18.000Z</time>
      </trkpt>
      <trkpt lat="45.97543" lon="6.24328">
        <ele>1144</ele>
        <time>2016-08-27T06:48:19.000Z</time>
      </trkpt>
      <trkpt lat="45.97543" lon="6.2433">
        <ele>1145</ele>
        <time>2016-08-27T06:48:20.000Z</time>
      </trkpt>
      <trkpt lat="45.97543" lon="6.24331">
        <ele>1145</ele>
        <time>2016-08-27T06:48:21.000Z</time>
      </trkpt>
      <trkpt lat="45.97543" lon="6.24333">
        <ele>1145</ele>
        <time>2016-08-27T06:48:22.000Z</time>
      </trkpt>
      <trkpt lat="45.97543" lon="6.24334">
        <ele>1145</ele>
        <time>2016-08-27T06:48:23.000Z</time>
      </trkpt>
      <trkpt lat="45.97543" lon="6.24336">
        <ele>1145</ele>
        <time>2016-08-27T06:48:24.000Z</time>
      </trkpt>
      <trkpt lat="45.97543" lon="6.24337">
        <ele>1145</ele>
        <time>2016-08-27T06:48:25.000Z</time>
      </trkpt>
      <trkpt lat="45.97542" lon="6.24338">
        <ele>1146</ele>
        <time>2016-08-27T06:48:26.000Z</time>
      </trkpt>
      <trkpt lat="45.97542" lon="6.24339">
        <ele>1146</ele>
        <time>2016-08-27T06:48:27.000Z</time>
      </trkpt>
      <trkpt lat="45.97542" lon="6.24341">
        <ele>1147</ele>
        <time>2016-08-27T06:48:28.000Z</time>
      </trkpt>
      <trkpt lat="45.97542" lon="6.24342">
        <ele>1147</ele>
        <time>2016-08-27T06:48:29.000Z</time>
      </trkpt>
      <trkpt lat="45.97542" lon="6.24343">
        <ele>1147</ele>
        <time>2016-08-27T06:48:30.000Z</time>
      </trkpt>
      <trkpt lat="45.97542" lon="6.24343">
        <ele>1147</ele>
        <time>2016-08-27T06:48:31.000Z</time>
      </trkpt>
      <trkpt lat="45.97542" lon="6.24344">
        <ele>1148</ele>
        <time>2016-08-27T06:48:32.000Z</time>
      </trkpt>
      <trkpt lat="45.97542" lon="6.24345">
        <ele>1148</ele>
        <time>2016-08-27T06:48:33.000Z</time>
      </trkpt>
      <trkpt lat="45.97542" lon="6.24346">
        <ele>1149</ele>
        <time>2016-08-27T06:48:34.000Z</time>
      </trkpt>
      <trkpt lat="45.97543" lon="6.24346">
        <ele>1149</ele>
        <time>2016-08-27T06:48:35.000Z</time>
      </trkpt>
      <trkpt lat="45.97543" lon="6.24347">
        <ele>1149</ele>
        <time>2016-08-27T06:48:36.000Z</time>
      </trkpt>
      <trkpt lat="45.97543" lon="6.24348">
        <ele>1149</ele>
        <time>2016-08-27T06:48:37.000Z</time>
      </trkpt>
      <trkpt lat="45.97543" lon="6.24349">
        <ele>1150</ele>
        <time>2016-08-27T06:48:38.000Z</time>
      </trkpt>
      <trkpt lat="45.97543" lon="6.2435">
        <ele>1150</ele>
        <time>2016-08-27T06:48:39.000Z</time>
      </trkpt>
      <trkpt lat="45.97543" lon="6.24351">
        <ele>1150</ele>
        <time>2016-08-27T06:48:40.000Z</time>
      </trkpt>
      <trkpt lat="45.97543" lon="6.24352">
        <ele>1150</ele>
        <time>2016-08-27T06:48:41.000Z</time>
      </trkpt>
      <trkpt lat="45.97542" lon="6.24353">
        <ele>1151</ele>
        <time>2016-08-27T06:48:42.000Z</time>
      </trkpt>
      <trkpt lat="45.97542" lon="6.24354">
        <ele>1151</ele>
        <time>2016-08-27T06:48:43.000Z</time>
      </trkpt>
      <trkpt lat="45.97542" lon="6.24355">
        <ele>1152</ele>
        <time>2016-08-27T06:48:44.000Z</time>
      </trkpt>
      <trkpt lat="45.97542" lon="6.24356">
        <ele>1152</ele>
        <time>2016-08-27T06:48:45.000Z</time>
      </trkpt>
      <trkpt lat="45.97541" lon="6.24357">
        <ele>1152</ele>
        <time>2016-08-27T06:48:46.000Z</time>
      </trkpt>
      <trkpt lat="45.97541" lon="6.24358">
        <ele>1152</ele>
        <time>2016-08-27T06:48:47.000Z</time>
      </trkpt>
      <trkpt lat="45.97541" lon="6.24359">
        <ele>1152</ele>
        <time>2016-08-27T06:48:48.000Z</time>
      </trkpt>
      <trkpt lat="45.9754" lon="6.24359">
        <ele>1152</ele>
        <time>2016-08-27T06:48:49.000Z</time>
      </trkpt>
      <trkpt lat="45.9754" lon="6.2436">
        <ele>1153</ele>
        <time>2016-08-27T06:48:50.000Z</time>
      </trkpt>
      <trkpt lat="45.9754" lon="6.24361">
        <ele>1153</ele>
        <time>2016-08-27T06:48:51.000Z</time>
      </trkpt>
      <trkpt lat="45.9754" lon="6.24362">
        <ele>1153</ele>
        <time>2016-08-27T06:48:52.000Z</time>
      </trkpt>
      <trkpt lat="45.9754" lon="6.24362">
        <ele>1153</ele>
        <time>2016-08-27T06:48:53.000Z</time>
      </trkpt>
      <trkpt lat="45.97539" lon="6.24362">
        <ele>1154</ele>
        <time>2016-08-27T06:48:54.000Z</time>
      </trkpt>
      <trkpt lat="45.97539" lon="6.24363">
        <ele>1154</ele>
        <time>2016-08-27T06:48:55.000Z</time>
      </trkpt>
      <trkpt lat="45.97539" lon="6.24363">
        <ele>1154</ele>
        <time>2016-08-27T06:48:56.000Z</time>
      </trkpt>
      <trkpt lat="45.97539" lon="6.24364">
        <ele>1154</ele>
        <time>2016-08-27T06:48:57.000Z</time>
      </trkpt>
      <trkpt lat="45.97539" lon="6.24364">
        <ele>1154</ele>
        <time>2016-08-27T06:48:58.000Z</time>
      </trkpt>
      <trkpt lat="45.97539" lon="6.24365">
        <ele>1154</ele>
        <time>2016-08-27T06:48:59.000Z</time>
      </trkpt>
      <trkpt lat="45.97539" lon="6.24365">
        <ele>1155</ele>
        <time>2016-08-27T06:49:00.000Z</time>
      </trkpt>
      <trkpt lat="45.97539" lon="6.24366">
        <ele>1155</ele>
        <time>2016-08-27T06:49:01.000Z</time>
      </trkpt>
      <trkpt lat="45.97539" lon="6.24366">
        <ele>1155</ele>
        <time>2016-08-27T06:49:02.000Z</time>
      </trkpt>
      <trkpt lat="45.97539" lon="6.24367">
        <ele>1155</ele>
        <time>2016-08-27T06:49:03.000Z</time>
      </trkpt>
      <trkpt lat="45.97539" lon="6.24367">
        <ele>1155</ele>
        <time>2016-08-27T06:49:04.000Z</time>
      </trkpt>
      <trkpt lat="45.97538" lon="6.24368">
        <ele>1155</ele>
        <time>2016-08-27T06:49:05.000Z</time>
      </trkpt>
      <trkpt lat="45.97538" lon="6.24368">
        <ele>1156</ele>
        <time>2016-08-27T06:49:06.000Z</time>
      </trkpt>
      <trkpt lat="45.97538" lon="6.24369">
        <ele>1156</ele>
        <time>2016-08-27T06:49:07.000Z</time>
      </trkpt>
      <trkpt lat="45.97538" lon="6.2437">
        <ele>1156</ele>
        <time>2016-08-27T06:49:08.000Z</time>
      </trkpt>
      <trkpt lat="45.97537" lon="6.24371">
        <ele>1156</ele>
        <time>2016-08-27T06:49:09.000Z</time>
      </trkpt>
      <trkpt lat="45.97537" lon="6.24371">
        <ele>1157</ele>
        <time>2016-08-27T06:49:10.000Z</time>
      </trkpt>
      <trkpt lat="45.97537" lon="6.24372">
        <ele>1157</ele>
        <time>2016-08-27T06:49:11.000Z</time>
      </trkpt>
      <trkpt lat="45.97537" lon="6.24372">
        <ele>1157</ele>
        <time>2016-08-27T06:49:12.000Z</time>
      </trkpt>
      <trkpt lat="45.97537" lon="6.24373">
        <ele>1157</ele>
        <time>2016-08-27T06:49:13.000Z</time>
      </trkpt>
      <trkpt lat="45.97537" lon="6.24374">
        <ele>1158</ele>
        <time>2016-08-27T06:49:14.000Z</time>
      </trkpt>
      <trkpt lat="45.97537" lon="6.24375">
        <ele>1158</ele>
        <time>2016-08-27T06:49:15.000Z</time>
      </trkpt>
      <trkpt lat="45.97536" lon="6.24375">
        <ele>1158</ele>
        <time>2016-08-27T06:49:16.000Z</time>
      </trkpt>
      <trkpt lat="45.97536" lon="6.24376">
        <ele>1158</ele>
        <time>2016-08-27T06:49:17.000Z</time>
      </trkpt>
      <trkpt lat="45.97536" lon="6.24377">
        <ele>1159</ele>
        <time>2016-08-27T06:49:18.000Z</time>
      </trkpt>
      <trkpt lat="45.97536" lon="6.24378">
        <ele>1159</ele>
        <time>2016-08-27T06:49:19.000Z</time>
      </trkpt>
      <trkpt lat="45.97536" lon="6.24378">
        <ele>1159</ele>
        <time>2016-08-27T06:49:20.000Z</time>
      </trkpt>
      <trkpt lat="45.97536" lon="6.24379">
        <ele>1159</ele>
        <time>2016-08-27T06:49:21.000Z</time>
      </trkpt>
      <trkpt lat="45.97536" lon="6.2438">
        <ele>1159</ele>
        <time>2016-08-27T06:49:22.000Z</time>
      </trkpt>
      <trkpt lat="45.97536" lon="6.24381">
        <ele>1159</ele>
        <time>2016-08-27T06:49:23.000Z</time>
      </trkpt>
      <trkpt lat="45.97536" lon="6.24381">
        <ele>1160</ele>
        <time>2016-08-27T06:49:24.000Z</time>
      </trkpt>
      <trkpt lat="45.97536" lon="6.24382">
        <ele>1160</ele>
        <time>2016-08-27T06:49:25.000Z</time>
      </trkpt>
      <trkpt lat="45.97536" lon="6.24383">
        <ele>1160</ele>
        <time>2016-08-27T06:49:26.000Z</time>
      </trkpt>
      <trkpt lat="45.97536" lon="6.24383">
        <ele>1160</ele>
        <time>2016-08-27T06:49:27.000Z</time>
      </trkpt>
      <trkpt lat="45.97536" lon="6.24384">
        <ele>1160</ele>
        <time>2016-08-27T06:49:28.000Z</time>
      </trkpt>
      <trkpt lat="45.97536" lon="6.24385">
        <ele>1160</ele>
        <time>2016-08-27T06:49:29.000Z</time>
      </trkpt>
      <trkpt lat="45.97535" lon="6.24385">
        <ele>1161</ele>
        <time>2016-08-27T06:49:30.000Z</time>
      </trkpt>
      <trkpt lat="45.97535" lon="6.24386">
        <ele>1161</ele>
        <time>2016-08-27T06:49:31.000Z</time>
      </trkpt>
      <trkpt lat="45.97534" lon="6.24386">
        <ele>1161</ele>
        <time>2016-08-27T06:49:32.000Z</time>
      </trkpt>
      <trkpt lat="45.97534" lon="6.24387">
        <ele>1161</ele>
        <time>2016-08-27T06:49:33.000Z</time>
      </trkpt>
      <trkpt lat="45.97533" lon="6.24387">
        <ele>1162</ele>
        <time>2016-08-27T06:49:34.000Z</time>
      </trkpt>
      <trkpt lat="45.97532" lon="6.24386">
        <ele>1162</ele>
        <time>2016-08-27T06:49:35.000Z</time>
      </trkpt>
      <trkpt lat="45.97531" lon="6.24386">
        <ele>1162</ele>
        <time>2016-08-27T06:49:36.000Z</time>
      </trkpt>
      <trkpt lat="45.9753" lon="6.24385">
        <ele>1162</ele>
        <time>2016-08-27T06:49:37.000Z</time>
      </trkpt>
      <trkpt lat="45.97529" lon="6.24384">
        <ele>1162</ele>
        <time>2016-08-27T06:49:38.000Z</time>
      </trkpt>
      <trkpt lat="45.97528" lon="6.24383">
        <ele>1162</ele>
        <time>2016-08-27T06:49:39.000Z</time>
      </trkpt>
      <trkpt lat="45.97527" lon="6.24382">
        <ele>1162</ele>
        <time>2016-08-27T06:49:40.000Z</time>
      </trkpt>
      <trkpt lat="45.97527" lon="6.24381">
        <ele>1162</ele>
        <time>2016-08-27T06:49:41.000Z</time>
      </trkpt>
      <trkpt lat="45.97526" lon="6.2438">
        <ele>1162</ele>
        <time>2016-08-27T06:49:42.000Z</time>
      </trkpt>
      <trkpt lat="45.97526" lon="6.24379">
        <ele>1162</ele>
        <time>2016-08-27T06:49:43.000Z</time>
      </trkpt>
      <trkpt lat="45.97525" lon="6.24378">
        <ele>1162</ele>
        <time>2016-08-27T06:49:44.000Z</time>
      </trkpt>
      <trkpt lat="45.97525" lon="6.24377">
        <ele>1162</ele>
        <time>2016-08-27T06:49:45.000Z</time>
      </trkpt>
      <trkpt lat="45.97524" lon="6.24375">
        <ele>1162</ele>
        <time>2016-08-27T06:49:46.000Z</time>
      </trkpt>
      <trkpt lat="45.97524" lon="6.24374">
        <ele>1162</ele>
        <time>2016-08-27T06:49:47.000Z</time>
      </trkpt>
      <trkpt lat="45.97524" lon="6.24372">
        <ele>1163</ele>
        <time>2016-08-27T06:49:48.000Z</time>
      </trkpt>
      <trkpt lat="45.97524" lon="6.24371">
        <ele>1163</ele>
        <time>2016-08-27T06:49:49.000Z</time>
      </trkpt>
      <trkpt lat="45.97523" lon="6.24369">
        <ele>1163</ele>
        <time>2016-08-27T06:49:50.000Z</time>
      </trkpt>
      <trkpt lat="45.97523" lon="6.24367">
        <ele>1163</ele>
        <time>2016-08-27T06:49:51.000Z</time>
      </trkpt>
      <trkpt lat="45.97523" lon="6.24365">
        <ele>1163</ele>
        <time>2016-08-27T06:49:52.000Z</time>
      </trkpt>
      <trkpt lat="45.97523" lon="6.24363">
        <ele>1163</ele>
        <time>2016-08-27T06:49:53.000Z</time>
      </trkpt>
      <trkpt lat="45.97523" lon="6.24361">
        <ele>1164</ele>
        <time>2016-08-27T06:49:54.000Z</time>
      </trkpt>
      <trkpt lat="45.97523" lon="6.24358">
        <ele>1164</ele>
        <time>2016-08-27T06:49:55.000Z</time>
      </trkpt>
      <trkpt lat="45.97523" lon="6.24355">
        <ele>1164</ele>
        <time>2016-08-27T06:49:56.000Z</time>
      </trkpt>
      <trkpt lat="45.97524" lon="6.24351">
        <ele>1164</ele>
        <time>2016-08-27T06:49:57.000Z</time>
      </trkpt>
      <trkpt lat="45.97524" lon="6.24348">
        <ele>1164</ele>
        <time>2016-08-27T06:49:58.000Z</time>
      </trkpt>
      <trkpt lat="45.97524" lon="6.24345">
        <ele>1164</ele>
        <time>2016-08-27T06:49:59.000Z</time>
      </trkpt>
      <trkpt lat="45.97525" lon="6.24341">
        <ele>1164</ele>
        <time>2016-08-27T06:50:00.000Z</time>
      </trkpt>
      <trkpt lat="45.97525" lon="6.24337">
        <ele>1164</ele>
        <time>2016-08-27T06:50:01.000Z</time>
      </trkpt>
      <trkpt lat="45.97525" lon="6.24334">
        <ele>1165</ele>
        <time>2016-08-27T06:50:02.000Z</time>
      </trkpt>
      <trkpt lat="45.97524" lon="6.2433">
        <ele>1165</ele>
        <time>2016-08-27T06:50:03.000Z</time>
      </trkpt>
      <trkpt lat="45.97524" lon="6.24326">
        <ele>1165</ele>
        <time>2016-08-27T06:50:04.000Z</time>
      </trkpt>
      <trkpt lat="45.97524" lon="6.24322">
        <ele>1165</ele>
        <time>2016-08-27T06:50:05.000Z</time>
      </trkpt>
      <trkpt lat="45.97524" lon="6.24319">
        <ele>1165</ele>
        <time>2016-08-27T06:50:06.000Z</time>
      </trkpt>
      <trkpt lat="45.97523" lon="6.24315">
        <ele>1165</ele>
        <time>2016-08-27T06:50:07.000Z</time>
      </trkpt>
      <trkpt lat="45.97522" lon="6.24312">
        <ele>1165</ele>
        <time>2016-08-27T06:50:08.000Z</time>
      </trkpt>
      <trkpt lat="45.97521" lon="6.24309">
        <ele>1165</ele>
        <time>2016-08-27T06:50:09.000Z</time>
      </trkpt>
      <trkpt lat="45.9752" lon="6.24306">
        <ele>1165</ele>
        <time>2016-08-27T06:50:10.000Z</time>
      </trkpt>
      <trkpt lat="45.97518" lon="6.24303">
        <ele>1165</ele>
        <time>2016-08-27T06:50:11.000Z</time>
      </trkpt>
      <trkpt lat="45.97517" lon="6.243">
        <ele>1165</ele>
        <time>2016-08-27T06:50:12.000Z</time>
      </trkpt>
      <trkpt lat="45.97516" lon="6.24298">
        <ele>1165</ele>
        <time>2016-08-27T06:50:13.000Z</time>
      </trkpt>
      <trkpt lat="45.97514" lon="6.24295">
        <ele>1165</ele>
        <time>2016-08-27T06:50:14.000Z</time>
      </trkpt>
      <trkpt lat="45.97513" lon="6.24293">
        <ele>1165</ele>
        <time>2016-08-27T06:50:15.000Z</time>
      </trkpt>
      <trkpt lat="45.97512" lon="6.24291">
        <ele>1165</ele>
        <time>2016-08-27T06:50:16.000Z</time>
      </trkpt>
      <trkpt lat="45.97511" lon="6.24288">
        <ele>1165</ele>
        <time>2016-08-27T06:50:17.000Z</time>
      </trkpt>
      <trkpt lat="45.97509" lon="6.24286">
        <ele>1164</ele>
        <time>2016-08-27T06:50:18.000Z</time>
      </trkpt>
      <trkpt lat="45.97508" lon="6.24284">
        <ele>1164</ele>
        <time>2016-08-27T06:50:19.000Z</time>
      </trkpt>
      <trkpt lat="45.97506" lon="6.24281">
        <ele>1164</ele>
        <time>2016-08-27T06:50:20.000Z</time>
      </trkpt>
      <trkpt lat="45.97505" lon="6.24279">
        <ele>1164</ele>
        <time>2016-08-27T06:50:21.000Z</time>
      </trkpt>
      <trkpt lat="45.97503" lon="6.24276">
        <ele>1164</ele>
        <time>2016-08-27T06:50:22.000Z</time>
      </trkpt>
      <trkpt lat="45.97501" lon="6.24273">
        <ele>1164</ele>
        <time>2016-08-27T06:50:23.000Z</time>
      </trkpt>
      <trkpt lat="45.975" lon="6.24271">
        <ele>1164</ele>
        <time>2016-08-27T06:50:24.000Z</time>
      </trkpt>
      <trkpt lat="45.97498" lon="6.24268">
        <ele>1164</ele>
        <time>2016-08-27T06:50:25.000Z</time>
      </trkpt>
      <trkpt lat="45.97496" lon="6.24264">
        <ele>1163</ele>
        <time>2016-08-27T06:50:26.000Z</time>
      </trkpt>
      <trkpt lat="45.97495" lon="6.24261">
        <ele>1163</ele>
        <time>2016-08-27T06:50:27.000Z</time>
      </trkpt>
      <trkpt lat="45.97494" lon="6.24258">
        <ele>1163</ele>
        <time>2016-08-27T06:50:28.000Z</time>
      </trkpt>
      <trkpt lat="45.97492" lon="6.24255">
        <ele>1163</ele>
        <time>2016-08-27T06:50:29.000Z</time>
      </trkpt>
      <trkpt lat="45.97491" lon="6.24252">
        <ele>1162</ele>
        <time>2016-08-27T06:50:30.000Z</time>
      </trkpt>
      <trkpt lat="45.97489" lon="6.24249">
        <ele>1162</ele>
        <time>2016-08-27T06:50:31.000Z</time>
      </trkpt>
      <trkpt lat="45.97487" lon="6.24245">
        <ele>1162</ele>
        <time>2016-08-27T06:50:32.000Z</time>
      </trkpt>
      <trkpt lat="45.97486" lon="6.24242">
        <ele>1162</ele>
        <time>2016-08-27T06:50:33.000Z</time>
      </trkpt>
      <trkpt lat="45.97484" lon="6.24239">
        <ele>1161</ele>
        <time>2016-08-27T06:50:34.000Z</time>
      </trkpt>
      <trkpt lat="45.97483" lon="6.24235">
        <ele>1161</ele>
        <time>2016-08-27T06:50:35.000Z</time>
      </trkpt>
      <trkpt lat="45.97481" lon="6.24232">
        <ele>1161</ele>
        <time>2016-08-27T06:50:36.000Z</time>
      </trkpt>
      <trkpt lat="45.9748" lon="6.24228">
        <ele>1161</ele>
        <time>2016-08-27T06:50:37.000Z</time>
      </trkpt>
      <trkpt lat="45.97478" lon="6.24225">
        <ele>1160</ele>
        <time>2016-08-27T06:50:38.000Z</time>
      </trkpt>
      <trkpt lat="45.97477" lon="6.24222">
        <ele>1160</ele>
        <time>2016-08-27T06:50:39.000Z</time>
      </trkpt>
      <trkpt lat="45.97475" lon="6.24219">
        <ele>1160</ele>
        <time>2016-08-27T06:50:40.000Z</time>
      </trkpt>
      <trkpt lat="45.97473" lon="6.24216">
        <ele>1160</ele>
        <time>2016-08-27T06:50:41.000Z</time>
      </trkpt>
      <trkpt lat="45.97472" lon="6.24213">
        <ele>1159</ele>
        <time>2016-08-27T06:50:42.000Z</time>
      </trkpt>
      <trkpt lat="45.97471" lon="6.2421">
        <ele>1159</ele>
        <time>2016-08-27T06:50:43.000Z</time>
      </trkpt>
      <trkpt lat="45.9747" lon="6.24208">
        <ele>1159</ele>
        <time>2016-08-27T06:50:44.000Z</time>
      </trkpt>
      <trkpt lat="45.97468" lon="6.24205">
        <ele>1159</ele>
        <time>2016-08-27T06:50:45.000Z</time>
      </trkpt>
      <trkpt lat="45.97468" lon="6.24201">
        <ele>1159</ele>
        <time>2016-08-27T06:50:46.000Z</time>
      </trkpt>
      <trkpt lat="45.97467" lon="6.24198">
        <ele>1159</ele>
        <time>2016-08-27T06:50:47.000Z</time>
      </trkpt>
      <trkpt lat="45.97466" lon="6.24195">
        <ele>1158</ele>
        <time>2016-08-27T06:50:48.000Z</time>
      </trkpt>
      <trkpt lat="45.97465" lon="6.24192">
        <ele>1158</ele>
        <time>2016-08-27T06:50:49.000Z</time>
      </trkpt>
      <trkpt lat="45.97464" lon="6.24188">
        <ele>1158</ele>
        <time>2016-08-27T06:50:50.000Z</time>
      </trkpt>
      <trkpt lat="45.97463" lon="6.24184">
        <ele>1158</ele>
        <time>2016-08-27T06:50:51.000Z</time>
      </trkpt>
      <trkpt lat="45.97462" lon="6.24181">
        <ele>1157</ele>
        <time>2016-08-27T06:50:52.000Z</time>
      </trkpt>
      <trkpt lat="45.97461" lon="6.24177">
        <ele>1157</ele>
        <time>2016-08-27T06:50:53.000Z</time>
      </trkpt>
      <trkpt lat="45.9746" lon="6.24174">
        <ele>1157</ele>
        <time>2016-08-27T06:50:54.000Z</time>
      </trkpt>
      <trkpt lat="45.97459" lon="6.24171">
        <ele>1157</ele>
        <time>2016-08-27T06:50:55.000Z</time>
      </trkpt>
      <trkpt lat="45.97458" lon="6.24168">
        <ele>1157</ele>
        <time>2016-08-27T06:50:56.000Z</time>
      </trkpt>
      <trkpt lat="45.97457" lon="6.24164">
        <ele>1157</ele>
        <time>2016-08-27T06:50:57.000Z</time>
      </trkpt>
      <trkpt lat="45.97456" lon="6.24161">
        <ele>1157</ele>
        <time>2016-08-27T06:50:58.000Z</time>
      </trkpt>
      <trkpt lat="45.97456" lon="6.24157">
        <ele>1157</ele>
        <time>2016-08-27T06:50:59.000Z</time>
      </trkpt>
      <trkpt lat="45.97455" lon="6.24153">
        <ele>1156</ele>
        <time>2016-08-27T06:51:00.000Z</time>
      </trkpt>
      <trkpt lat="45.97454" lon="6.24148">
        <ele>1156</ele>
        <time>2016-08-27T06:51:01.000Z</time>
      </trkpt>
      <trkpt lat="45.97453" lon="6.24144">
        <ele>1156</ele>
        <time>2016-08-27T06:51:02.000Z</time>
      </trkpt>
      <trkpt lat="45.97452" lon="6.2414">
        <ele>1156</ele>
        <time>2016-08-27T06:51:03.000Z</time>
      </trkpt>
      <trkpt lat="45.97451" lon="6.24136">
        <ele>1155</ele>
        <time>2016-08-27T06:51:04.000Z</time>
      </trkpt>
      <trkpt lat="45.97449" lon="6.24132">
        <ele>1155</ele>
        <time>2016-08-27T06:51:05.000Z</time>
      </trkpt>
      <trkpt lat="45.97448" lon="6.24129">
        <ele>1155</ele>
        <time>2016-08-27T06:51:06.000Z</time>
      </trkpt>
      <trkpt lat="45.97447" lon="6.24125">
        <ele>1155</ele>
        <time>2016-08-27T06:51:07.000Z</time>
      </trkpt>
      <trkpt lat="45.97446" lon="6.24121">
        <ele>1154</ele>
        <time>2016-08-27T06:51:08.000Z</time>
      </trkpt>
      <trkpt lat="45.97444" lon="6.24118">
        <ele>1154</ele>
        <time>2016-08-27T06:51:09.000Z</time>
      </trkpt>
      <trkpt lat="45.97443" lon="6.24114">
        <ele>1153</ele>
        <time>2016-08-27T06:51:10.000Z</time>
      </trkpt>
      <trkpt lat="45.97441" lon="6.24111">
        <ele>1153</ele>
        <time>2016-08-27T06:51:11.000Z</time>
      </trkpt>
      <trkpt lat="45.9744" lon="6.24108">
        <ele>1153</ele>
        <time>2016-08-27T06:51:12.000Z</time>
      </trkpt>
      <trkpt lat="45.97438" lon="6.24105">
        <ele>1153</ele>
        <time>2016-08-27T06:51:13.000Z</time>
      </trkpt>
      <trkpt lat="45.97437" lon="6.24101">
        <ele>1152</ele>
        <time>2016-08-27T06:51:14.000Z</time>
      </trkpt>
      <trkpt lat="45.97436" lon="6.24097">
        <ele>1152</ele>
        <time>2016-08-27T06:51:15.000Z</time>
      </trkpt>
      <trkpt lat="45.97434" lon="6.24094">
        <ele>1152</ele>
        <time>2016-08-27T06:51:16.000Z</time>
      </trkpt>
      <trkpt lat="45.97432" lon="6.24091">
        <ele>1152</ele>
        <time>2016-08-27T06:51:17.000Z</time>
      </trkpt>
      <trkpt lat="45.97431" lon="6.24087">
        <ele>1151</ele>
        <time>2016-08-27T06:51:18.000Z</time>
      </trkpt>
      <trkpt lat="45.97429" lon="6.24084">
        <ele>1151</ele>
        <time>2016-08-27T06:51:19.000Z</time>
      </trkpt>
      <trkpt lat="45.97427" lon="6.24082">
        <ele>1150</ele>
        <time>2016-08-27T06:51:20.000Z</time>
      </trkpt>
      <trkpt lat="45.97425" lon="6.24079">
        <ele>1150</ele>
        <time>2016-08-27T06:51:21.000Z</time>
      </trkpt>
      <trkpt lat="45.97423" lon="6.24078">
        <ele>1150</ele>
        <time>2016-08-27T06:51:22.000Z</time>
      </trkpt>
      <trkpt lat="45.97421" lon="6.24076">
        <ele>1150</ele>
        <time>2016-08-27T06:51:23.000Z</time>
      </trkpt>
      <trkpt lat="45.97419" lon="6.24075">
        <ele>1149</ele>
        <time>2016-08-27T06:51:24.000Z</time>
      </trkpt>
      <trkpt lat="45.97417" lon="6.24074">
        <ele>1149</ele>
        <time>2016-08-27T06:51:25.000Z</time>
      </trkpt>
      <trkpt lat="45.97415" lon="6.24073">
        <ele>1148</ele>
        <time>2016-08-27T06:51:26.000Z</time>
      </trkpt>
      <trkpt lat="45.97413" lon="6.24072">
        <ele>1148</ele>
        <time>2016-08-27T06:51:27.000Z</time>
      </trkpt>
      <trkpt lat="45.97411" lon="6.24071">
        <ele>1147</ele>
        <time>2016-08-27T06:51:28.000Z</time>
      </trkpt>
      <trkpt lat="45.97408" lon="6.2407">
        <ele>1147</ele>
        <time>2016-08-27T06:51:29.000Z</time>
      </trkpt>
      <trkpt lat="45.97406" lon="6.2407">
        <ele>1147</ele>
        <time>2016-08-27T06:51:30.000Z</time>
      </trkpt>
      <trkpt lat="45.97403" lon="6.24069">
        <ele>1147</ele>
        <time>2016-08-27T06:51:31.000Z</time>
      </trkpt>
      <trkpt lat="45.97401" lon="6.24068">
        <ele>1146</ele>
        <time>2016-08-27T06:51:32.000Z</time>
      </trkpt>
      <trkpt lat="45.97399" lon="6.24067">
        <ele>1146</ele>
        <time>2016-08-27T06:51:33.000Z</time>
      </trkpt>
      <trkpt lat="45.97397" lon="6.24066">
        <ele>1145</ele>
        <time>2016-08-27T06:51:34.000Z</time>
      </trkpt>
      <trkpt lat="45.97395" lon="6.24065">
        <ele>1145</ele>
        <time>2016-08-27T06:51:35.000Z</time>
      </trkpt>
      <trkpt lat="45.97393" lon="6.24064">
        <ele>1145</ele>
        <time>2016-08-27T06:51:36.000Z</time>
      </trkpt>
      <trkpt lat="45.9739" lon="6.24062">
        <ele>1145</ele>
        <time>2016-08-27T06:51:37.000Z</time>
      </trkpt>
      <trkpt lat="45.97388" lon="6.24061">
        <ele>1144</ele>
        <time>2016-08-27T06:51:38.000Z</time>
      </trkpt>
      <trkpt lat="45.97386" lon="6.2406">
        <ele>1144</ele>
        <time>2016-08-27T06:51:39.000Z</time>
      </trkpt>
      <trkpt lat="45.97384" lon="6.24059">
        <ele>1144</ele>
        <time>2016-08-27T06:51:40.000Z</time>
      </trkpt>
      <trkpt lat="45.97382" lon="6.24059">
        <ele>1144</ele>
        <time>2016-08-27T06:51:41.000Z</time>
      </trkpt>
      <trkpt lat="45.9738" lon="6.24057">
        <ele>1144</ele>
        <time>2016-08-27T06:51:42.000Z</time>
      </trkpt>
      <trkpt lat="45.97379" lon="6.24056">
        <ele>1144</ele>
        <time>2016-08-27T06:51:43.000Z</time>
      </trkpt>
      <trkpt lat="45.97377" lon="6.24055">
        <ele>1144</ele>
        <time>2016-08-27T06:51:44.000Z</time>
      </trkpt>
      <trkpt lat="45.97375" lon="6.24054">
        <ele>1144</ele>
        <time>2016-08-27T06:51:45.000Z</time>
      </trkpt>
      <trkpt lat="45.97373" lon="6.24053">
        <ele>1144</ele>
        <time>2016-08-27T06:51:46.000Z</time>
      </trkpt>
      <trkpt lat="45.97371" lon="6.24051">
        <ele>1144</ele>
        <time>2016-08-27T06:51:47.000Z</time>
      </trkpt>
      <trkpt lat="45.97369" lon="6.2405">
        <ele>1143</ele>
        <time>2016-08-27T06:51:48.000Z</time>
      </trkpt>
      <trkpt lat="45.97367" lon="6.24049">
        <ele>1143</ele>
        <time>2016-08-27T06:51:49.000Z</time>
      </trkpt>
      <trkpt lat="45.97366" lon="6.24048">
        <ele>1143</ele>
        <time>2016-08-27T06:51:50.000Z</time>
      </trkpt>
      <trkpt lat="45.97364" lon="6.24047">
        <ele>1143</ele>
        <time>2016-08-27T06:51:51.000Z</time>
      </trkpt>
      <trkpt lat="45.97362" lon="6.24045">
        <ele>1143</ele>
        <time>2016-08-27T06:51:52.000Z</time>
      </trkpt>
      <trkpt lat="45.97361" lon="6.24044">
        <ele>1143</ele>
        <time>2016-08-27T06:51:53.000Z</time>
      </trkpt>
      <trkpt lat="45.97359" lon="6.24042">
        <ele>1143</ele>
        <time>2016-08-27T06:51:54.000Z</time>
      </trkpt>
      <trkpt lat="45.97358" lon="6.2404">
        <ele>1143</ele>
        <time>2016-08-27T06:51:55.000Z</time>
      </trkpt>
      <trkpt lat="45.97357" lon="6.24038">
        <ele>1143</ele>
        <time>2016-08-27T06:51:56.000Z</time>
      </trkpt>
      <trkpt lat="45.97355" lon="6.24036">
        <ele>1143</ele>
        <time>2016-08-27T06:51:57.000Z</time>
      </trkpt>
      <trkpt lat="45.97354" lon="6.24035">
        <ele>1143</ele>
        <time>2016-08-27T06:51:58.000Z</time>
      </trkpt>
      <trkpt lat="45.97352" lon="6.24033">
        <ele>1143</ele>
        <time>2016-08-27T06:51:59.000Z</time>
      </trkpt>
      <trkpt lat="45.97351" lon="6.24032">
        <ele>1143</ele>
        <time>2016-08-27T06:52:00.000Z</time>
      </trkpt>
      <trkpt lat="45.9735" lon="6.2403">
        <ele>1143</ele>
        <time>2016-08-27T06:52:01.000Z</time>
      </trkpt>
      <trkpt lat="45.97349" lon="6.24028">
        <ele>1143</ele>
        <time>2016-08-27T06:52:02.000Z</time>
      </trkpt>
      <trkpt lat="45.97347" lon="6.24027">
        <ele>1143</ele>
        <time>2016-08-27T06:52:03.000Z</time>
      </trkpt>
      <trkpt lat="45.97346" lon="6.24025">
        <ele>1143</ele>
        <time>2016-08-27T06:52:04.000Z</time>
      </trkpt>
      <trkpt lat="45.97345" lon="6.24024">
        <ele>1143</ele>
        <time>2016-08-27T06:52:05.000Z</time>
      </trkpt>
      <trkpt lat="45.97343" lon="6.24022">
        <ele>1143</ele>
        <time>2016-08-27T06:52:06.000Z</time>
      </trkpt>
      <trkpt lat="45.97342" lon="6.24021">
        <ele>1143</ele>
        <time>2016-08-27T06:52:07.000Z</time>
      </trkpt>
      <trkpt lat="45.9734" lon="6.2402">
        <ele>1143</ele>
        <time>2016-08-27T06:52:08.000Z</time>
      </trkpt>
      <trkpt lat="45.97339" lon="6.24018">
        <ele>1143</ele>
        <time>2016-08-27T06:52:09.000Z</time>
      </trkpt>
      <trkpt lat="45.97337" lon="6.24017">
        <ele>1143</ele>
        <time>2016-08-27T06:52:10.000Z</time>
      </trkpt>
      <trkpt lat="45.97336" lon="6.24016">
        <ele>1143</ele>
        <time>2016-08-27T06:52:11.000Z</time>
      </trkpt>
      <trkpt lat="45.97334" lon="6.24014">
        <ele>1144</ele>
        <time>2016-08-27T06:52:12.000Z</time>
      </trkpt>
      <trkpt lat="45.97333" lon="6.24013">
        <ele>1144</ele>
        <time>2016-08-27T06:52:13.000Z</time>
      </trkpt>
      <trkpt lat="45.97332" lon="6.24012">
        <ele>1144</ele>
        <time>2016-08-27T06:52:14.000Z</time>
      </trkpt>
      <trkpt lat="45.9733" lon="6.2401">
        <ele>1144</ele>
        <time>2016-08-27T06:52:15.000Z</time>
      </trkpt>
      <trkpt lat="45.97329" lon="6.24009">
        <ele>1144</ele>
        <time>2016-08-27T06:52:16.000Z</time>
      </trkpt>
      <trkpt lat="45.97328" lon="6.24008">
        <ele>1144</ele>
        <time>2016-08-27T06:52:17.000Z</time>
      </trkpt>
      <trkpt lat="45.97327" lon="6.24007">
        <ele>1145</ele>
        <time>2016-08-27T06:52:18.000Z</time>
      </trkpt>
      <trkpt lat="45.97325" lon="6.24005">
        <ele>1145</ele>
        <time>2016-08-27T06:52:19.000Z</time>
      </trkpt>
      <trkpt lat="45.97323" lon="6.24004">
        <ele>1145</ele>
        <time>2016-08-27T06:52:20.000Z</time>
      </trkpt>
      <trkpt lat="45.97322" lon="6.24003">
        <ele>1145</ele>
        <time>2016-08-27T06:52:21.000Z</time>
      </trkpt>
      <trkpt lat="45.9732" lon="6.24001">
        <ele>1145</ele>
        <time>2016-08-27T06:52:22.000Z</time>
      </trkpt>
      <trkpt lat="45.97318" lon="6.24">
        <ele>1145</ele>
        <time>2016-08-27T06:52:23.000Z</time>
      </trkpt>
      <trkpt lat="45.97316" lon="6.23999">
        <ele>1146</ele>
        <time>2016-08-27T06:52:24.000Z</time>
      </trkpt>
      <trkpt lat="45.97314" lon="6.23998">
        <ele>1146</ele>
        <time>2016-08-27T06:52:25.000Z</time>
      </trkpt>
      <trkpt lat="45.97312" lon="6.23996">
        <ele>1146</ele>
        <time>2016-08-27T06:52:26.000Z</time>
      </trkpt>
      <trkpt lat="45.9731" lon="6.23995">
        <ele>1146</ele>
        <time>2016-08-27T06:52:27.000Z</time>
      </trkpt>
      <trkpt lat="45.97308" lon="6.23994">
        <ele>1147</ele>
        <time>2016-08-27T06:52:28.000Z</time>
      </trkpt>
      <trkpt lat="45.97306" lon="6.23993">
        <ele>1147</ele>
        <time>2016-08-27T06:52:29.000Z</time>
      </trkpt>
      <trkpt lat="45.97305" lon="6.23992">
        <ele>1147</ele>
        <time>2016-08-27T06:52:30.000Z</time>
      </trkpt>
      <trkpt lat="45.97303" lon="6.23991">
        <ele>1147</ele>
        <time>2016-08-27T06:52:31.000Z</time>
      </trkpt>
      <trkpt lat="45.97301" lon="6.2399">
        <ele>1147</ele>
        <time>2016-08-27T06:52:32.000Z</time>
      </trkpt>
      <trkpt lat="45.973" lon="6.23989">
        <ele>1147</ele>
        <time>2016-08-27T06:52:33.000Z</time>
      </trkpt>
      <trkpt lat="45.97298" lon="6.23988">
        <ele>1148</ele>
        <time>2016-08-27T06:52:34.000Z</time>
      </trkpt>
      <trkpt lat="45.97297" lon="6.23987">
        <ele>1148</ele>
        <time>2016-08-27T06:52:35.000Z</time>
      </trkpt>
      <trkpt lat="45.97296" lon="6.23986">
        <ele>1148</ele>
        <time>2016-08-27T06:52:36.000Z</time>
      </trkpt>
      <trkpt lat="45.97294" lon="6.23986">
        <ele>1148</ele>
        <time>2016-08-27T06:52:37.000Z</time>
      </trkpt>
      <trkpt lat="45.97293" lon="6.23985">
        <ele>1149</ele>
        <time>2016-08-27T06:52:38.000Z</time>
      </trkpt>
      <trkpt lat="45.97292" lon="6.23984">
        <ele>1149</ele>
        <time>2016-08-27T06:52:39.000Z</time>
      </trkpt>
      <trkpt lat="45.97291" lon="6.23984">
        <ele>1149</ele>
        <time>2016-08-27T06:52:40.000Z</time>
      </trkpt>
      <trkpt lat="45.9729" lon="6.23983">
        <ele>1149</ele>
        <time>2016-08-27T06:52:41.000Z</time>
      </trkpt>
      <trkpt lat="45.97289" lon="6.23983">
        <ele>1150</ele>
        <time>2016-08-27T06:52:42.000Z</time>
      </trkpt>
      <trkpt lat="45.97288" lon="6.23983">
        <ele>1150</ele>
        <time>2016-08-27T06:52:43.000Z</time>
      </trkpt>
      <trkpt lat="45.97288" lon="6.23983">
        <ele>1150</ele>
        <time>2016-08-27T06:52:44.000Z</time>
      </trkpt>
      <trkpt lat="45.97288" lon="6.23983">
        <ele>1150</ele>
        <time>2016-08-27T06:52:45.000Z</time>
      </trkpt>
      <trkpt lat="45.97288" lon="6.23983">
        <ele>1151</ele>
        <time>2016-08-27T06:52:46.000Z</time>
      </trkpt>
      <trkpt lat="45.97288" lon="6.23984">
        <ele>1151</ele>
        <time>2016-08-27T06:52:47.000Z</time>
      </trkpt>
      <trkpt lat="45.97288" lon="6.23985">
        <ele>1152</ele>
        <time>2016-08-27T06:52:48.000Z</time>
      </trkpt>
      <trkpt lat="45.97288" lon="6.23986">
        <ele>1152</ele>
        <time>2016-08-27T06:52:49.000Z</time>
      </trkpt>
      <trkpt lat="45.97288" lon="6.23987">
        <ele>1153</ele>
        <time>2016-08-27T06:52:50.000Z</time>
      </trkpt>
      <trkpt lat="45.97288" lon="6.23988">
        <ele>1153</ele>
        <time>2016-08-27T06:52:51.000Z</time>
      </trkpt>
      <trkpt lat="45.97289" lon="6.23989">
        <ele>1153</ele>
        <time>2016-08-27T06:52:52.000Z</time>
      </trkpt>
      <trkpt lat="45.9729" lon="6.23989">
        <ele>1153</ele>
        <time>2016-08-27T06:52:53.000Z</time>
      </trkpt>
      <trkpt lat="45.9729" lon="6.2399">
        <ele>1154</ele>
        <time>2016-08-27T06:52:54.000Z</time>
      </trkpt>
      <trkpt lat="45.97291" lon="6.23991">
        <ele>1154</ele>
        <time>2016-08-27T06:52:55.000Z</time>
      </trkpt>
      <trkpt lat="45.97292" lon="6.23992">
        <ele>1155</ele>
        <time>2016-08-27T06:52:56.000Z</time>
      </trkpt>
      <trkpt lat="45.97293" lon="6.23993">
        <ele>1155</ele>
        <time>2016-08-27T06:52:57.000Z</time>
      </trkpt>
      <trkpt lat="45.97294" lon="6.23994">
        <ele>1156</ele>
        <time>2016-08-27T06:52:58.000Z</time>
      </trkpt>
      <trkpt lat="45.97295" lon="6.23995">
        <ele>1156</ele>
        <time>2016-08-27T06:52:59.000Z</time>
      </trkpt>
      <trkpt lat="45.97296" lon="6.23995">
        <ele>1157</ele>
        <time>2016-08-27T06:53:00.000Z</time>
      </trkpt>
      <trkpt lat="45.97297" lon="6.23996">
        <ele>1157</ele>
        <time>2016-08-27T06:53:01.000Z</time>
      </trkpt>
      <trkpt lat="45.97298" lon="6.23996">
        <ele>1158</ele>
        <time>2016-08-27T06:53:02.000Z</time>
      </trkpt>
      <trkpt lat="45.97298" lon="6.23997">
        <ele>1158</ele>
        <time>2016-08-27T06:53:03.000Z</time>
      </trkpt>
      <trkpt lat="45.97299" lon="6.23998">
        <ele>1159</ele>
        <time>2016-08-27T06:53:04.000Z</time>
      </trkpt>
      <trkpt lat="45.973" lon="6.23999">
        <ele>1159</ele>
        <time>2016-08-27T06:53:05.000Z</time>
      </trkpt>
      <trkpt lat="45.973" lon="6.24">
        <ele>1160</ele>
        <time>2016-08-27T06:53:06.000Z</time>
      </trkpt>
      <trkpt lat="45.97301" lon="6.24001">
        <ele>1160</ele>
        <time>2016-08-27T06:53:07.000Z</time>
      </trkpt>
      <trkpt lat="45.97301" lon="6.24002">
        <ele>1160</ele>
        <time>2016-08-27T06:53:08.000Z</time>
      </trkpt>
      <trkpt lat="45.97301" lon="6.24003">
        <ele>1160</ele>
        <time>2016-08-27T06:53:09.000Z</time>
      </trkpt>
      <trkpt lat="45.97302" lon="6.24004">
        <ele>1161</ele>
        <time>2016-08-27T06:53:10.000Z</time>
      </trkpt>
      <trkpt lat="45.97302" lon="6.24006">
        <ele>1161</ele>
        <time>2016-08-27T06:53:11.000Z</time>
      </trkpt>
      <trkpt lat="45.97303" lon="6.24007">
        <ele>1161</ele>
        <time>2016-08-27T06:53:12.000Z</time>
      </trkpt>
      <trkpt lat="45.97303" lon="6.24008">
        <ele>1161</ele>
        <time>2016-08-27T06:53:13.000Z</time>
      </trkpt>
      <trkpt lat="45.97304" lon="6.24009">
        <ele>1161</ele>
        <time>2016-08-27T06:53:14.000Z</time>
      </trkpt>
      <trkpt lat="45.97304" lon="6.24011">
        <ele>1161</ele>
        <time>2016-08-27T06:53:15.000Z</time>
      </trkpt>
      <trkpt lat="45.97305" lon="6.24012">
        <ele>1161</ele>
        <time>2016-08-27T06:53:16.000Z</time>
      </trkpt>
      <trkpt lat="45.97305" lon="6.24013">
        <ele>1161</ele>
        <time>2016-08-27T06:53:17.000Z</time>
      </trkpt>
      <trkpt lat="45.97306" lon="6.24014">
        <ele>1161</ele>
        <time>2016-08-27T06:53:18.000Z</time>
      </trkpt>
      <trkpt lat="45.97307" lon="6.24016">
        <ele>1161</ele>
        <time>2016-08-27T06:53:19.000Z</time>
      </trkpt>
      <trkpt lat="45.97307" lon="6.24017">
        <ele>1162</ele>
        <time>2016-08-27T06:53:20.000Z</time>
      </trkpt>
      <trkpt lat="45.97308" lon="6.24018">
        <ele>1162</ele>
        <time>2016-08-27T06:53:21.000Z</time>
      </trkpt>
      <trkpt lat="45.97309" lon="6.2402">
        <ele>1162</ele>
        <time>2016-08-27T06:53:22.000Z</time>
      </trkpt>
      <trkpt lat="45.9731" lon="6.24021">
        <ele>1162</ele>
        <time>2016-08-27T06:53:23.000Z</time>
      </trkpt>
      <trkpt lat="45.97311" lon="6.24022">
        <ele>1163</ele>
        <time>2016-08-27T06:53:24.000Z</time>
      </trkpt>
      <trkpt lat="45.97311" lon="6.24023">
        <ele>1163</ele>
        <time>2016-08-27T06:53:25.000Z</time>
      </trkpt>
      <trkpt lat="45.97312" lon="6.24024">
        <ele>1163</ele>
        <time>2016-08-27T06:53:26.000Z</time>
      </trkpt>
      <trkpt lat="45.97313" lon="6.24026">
        <ele>1163</ele>
        <time>2016-08-27T06:53:27.000Z</time>
      </trkpt>
      <trkpt lat="45.97314" lon="6.24027">
        <ele>1163</ele>
        <time>2016-08-27T06:53:28.000Z</time>
      </trkpt>
      <trkpt lat="45.97314" lon="6.24028">
        <ele>1163</ele>
        <time>2016-08-27T06:53:29.000Z</time>
      </trkpt>
      <trkpt lat="45.97315" lon="6.24029">
        <ele>1164</ele>
        <time>2016-08-27T06:53:30.000Z</time>
      </trkpt>
      <trkpt lat="45.97316" lon="6.24031">
        <ele>1164</ele>
        <time>2016-08-27T06:53:31.000Z</time>
      </trkpt>
      <trkpt lat="45.97316" lon="6.24032">
        <ele>1164</ele>
        <time>2016-08-27T06:53:32.000Z</time>
      </trkpt>
      <trkpt lat="45.97316" lon="6.24033">
        <ele>1164</ele>
        <time>2016-08-27T06:53:33.000Z</time>
      </trkpt>
      <trkpt lat="45.97317" lon="6.24035">
        <ele>1165</ele>
        <time>2016-08-27T06:53:34.000Z</time>
      </trkpt>
      <trkpt lat="45.97317" lon="6.24036">
        <ele>1165</ele>
        <time>2016-08-27T06:53:35.000Z</time>
      </trkpt>
      <trkpt lat="45.97317" lon="6.24037">
        <ele>1165</ele>
        <time>2016-08-27T06:53:36.000Z</time>
      </trkpt>
      <trkpt lat="45.97318" lon="6.24039">
        <ele>1165</ele>
        <time>2016-08-27T06:53:37.000Z</time>
      </trkpt>
      <trkpt lat="45.97318" lon="6.2404">
        <ele>1165</ele>
        <time>2016-08-27T06:53:38.000Z</time>
      </trkpt>
      <trkpt lat="45.97319" lon="6.24042">
        <ele>1165</ele>
        <time>2016-08-27T06:53:39.000Z</time>
      </trkpt>
      <trkpt lat="45.97319" lon="6.24043">
        <ele>1166</ele>
        <time>2016-08-27T06:53:40.000Z</time>
      </trkpt>
      <trkpt lat="45.9732" lon="6.24045">
        <ele>1166</ele>
        <time>2016-08-27T06:53:41.000Z</time>
      </trkpt>
      <trkpt lat="45.9732" lon="6.24046">
        <ele>1166</ele>
        <time>2016-08-27T06:53:42.000Z</time>
      </trkpt>
      <trkpt lat="45.9732" lon="6.24048">
        <ele>1166</ele>
        <time>2016-08-27T06:53:43.000Z</time>
      </trkpt>
      <trkpt lat="45.97321" lon="6.24049">
        <ele>1166</ele>
        <time>2016-08-27T06:53:44.000Z</time>
      </trkpt>
      <trkpt lat="45.97321" lon="6.24051">
        <ele>1166</ele>
        <time>2016-08-27T06:53:45.000Z</time>
      </trkpt>
      <trkpt lat="45.97322" lon="6.24053">
        <ele>1167</ele>
        <time>2016-08-27T06:53:46.000Z</time>
      </trkpt>
      <trkpt lat="45.97322" lon="6.24054">
        <ele>1167</ele>
        <time>2016-08-27T06:53:47.000Z</time>
      </trkpt>
      <trkpt lat="45.97323" lon="6.24056">
        <ele>1168</ele>
        <time>2016-08-27T06:53:48.000Z</time>
      </trkpt>
      <trkpt lat="45.97323" lon="6.24057">
        <ele>1168</ele>
        <time>2016-08-27T06:53:49.000Z</time>
      </trkpt>
      <trkpt lat="45.97324" lon="6.24058">
        <ele>1168</ele>
        <time>2016-08-27T06:53:50.000Z</time>
      </trkpt>
      <trkpt lat="45.97325" lon="6.24059">
        <ele>1168</ele>
        <time>2016-08-27T06:53:51.000Z</time>
      </trkpt>
      <trkpt lat="45.97325" lon="6.24061">
        <ele>1169</ele>
        <time>2016-08-27T06:53:52.000Z</time>
      </trkpt>
      <trkpt lat="45.97325" lon="6.24061">
        <ele>1169</ele>
        <time>2016-08-27T06:53:53.000Z</time>
      </trkpt>
      <trkpt lat="45.97326" lon="6.24063">
        <ele>1169</ele>
        <time>2016-08-27T06:53:54.000Z</time>
      </trkpt>
      <trkpt lat="45.97327" lon="6.24064">
        <ele>1169</ele>
        <time>2016-08-27T06:53:55.000Z</time>
      </trkpt>
      <trkpt lat="45.97327" lon="6.24065">
        <ele>1170</ele>
        <time>2016-08-27T06:53:56.000Z</time>
      </trkpt>
      <trkpt lat="45.97328" lon="6.24067">
        <ele>1170</ele>
        <time>2016-08-27T06:53:57.000Z</time>
      </trkpt>
      <trkpt lat="45.97329" lon="6.24068">
        <ele>1171</ele>
        <time>2016-08-27T06:53:58.000Z</time>
      </trkpt>
      <trkpt lat="45.97329" lon="6.24069">
        <ele>1171</ele>
        <time>2016-08-27T06:53:59.000Z</time>
      </trkpt>
      <trkpt lat="45.9733" lon="6.24071">
        <ele>1171</ele>
        <time>2016-08-27T06:54:00.000Z</time>
      </trkpt>
      <trkpt lat="45.9733" lon="6.24072">
        <ele>1171</ele>
        <time>2016-08-27T06:54:01.000Z</time>
      </trkpt>
      <trkpt lat="45.97331" lon="6.24073">
        <ele>1172</ele>
        <time>2016-08-27T06:54:02.000Z</time>
      </trkpt>
      <trkpt lat="45.97331" lon="6.24074">
        <ele>1172</ele>
        <time>2016-08-27T06:54:03.000Z</time>
      </trkpt>
      <trkpt lat="45.97332" lon="6.24075">
        <ele>1172</ele>
        <time>2016-08-27T06:54:04.000Z</time>
      </trkpt>
      <trkpt lat="45.97332" lon="6.24077">
        <ele>1172</ele>
        <time>2016-08-27T06:54:05.000Z</time>
      </trkpt>
      <trkpt lat="45.97332" lon="6.24078">
        <ele>1173</ele>
        <time>2016-08-27T06:54:06.000Z</time>
      </trkpt>
      <trkpt lat="45.97332" lon="6.2408">
        <ele>1173</ele>
        <time>2016-08-27T06:54:07.000Z</time>
      </trkpt>
      <trkpt lat="45.97332" lon="6.24081">
        <ele>1173</ele>
        <time>2016-08-27T06:54:08.000Z</time>
      </trkpt>
      <trkpt lat="45.97333" lon="6.24083">
        <ele>1173</ele>
        <time>2016-08-27T06:54:09.000Z</time>
      </trkpt>
      <trkpt lat="45.97333" lon="6.24084">
        <ele>1173</ele>
        <time>2016-08-27T06:54:10.000Z</time>
      </trkpt>
      <trkpt lat="45.97334" lon="6.24086">
        <ele>1173</ele>
        <time>2016-08-27T06:54:11.000Z</time>
      </trkpt>
      <trkpt lat="45.97334" lon="6.24088">
        <ele>1173</ele>
        <time>2016-08-27T06:54:12.000Z</time>
      </trkpt>
      <trkpt lat="45.97334" lon="6.24089">
        <ele>1173</ele>
        <time>2016-08-27T06:54:13.000Z</time>
      </trkpt>
      <trkpt lat="45.97335" lon="6.24091">
        <ele>1174</ele>
        <time>2016-08-27T06:54:14.000Z</time>
      </trkpt>
      <trkpt lat="45.97335" lon="6.24092">
        <ele>1174</ele>
        <time>2016-08-27T06:54:15.000Z</time>
      </trkpt>
      <trkpt lat="45.97336" lon="6.24094">
        <ele>1174</ele>
        <time>2016-08-27T06:54:16.000Z</time>
      </trkpt>
      <trkpt lat="45.97336" lon="6.24095">
        <ele>1174</ele>
        <time>2016-08-27T06:54:17.000Z</time>
      </trkpt>
      <trkpt lat="45.97337" lon="6.24096">
        <ele>1175</ele>
        <time>2016-08-27T06:54:18.000Z</time>
      </trkpt>
      <trkpt lat="45.97338" lon="6.24098">
        <ele>1175</ele>
        <time>2016-08-27T06:54:19.000Z</time>
      </trkpt>
      <trkpt lat="45.97339" lon="6.24099">
        <ele>1175</ele>
        <time>2016-08-27T06:54:20.000Z</time>
      </trkpt>
      <trkpt lat="45.9734" lon="6.241">
        <ele>1175</ele>
        <time>2016-08-27T06:54:21.000Z</time>
      </trkpt>
      <trkpt lat="45.97341" lon="6.24102">
        <ele>1176</ele>
        <time>2016-08-27T06:54:22.000Z</time>
      </trkpt>
      <trkpt lat="45.97342" lon="6.24103">
        <ele>1176</ele>
        <time>2016-08-27T06:54:23.000Z</time>
      </trkpt>
      <trkpt lat="45.97344" lon="6.24104">
        <ele>1176</ele>
        <time>2016-08-27T06:54:24.000Z</time>
      </trkpt>
      <trkpt lat="45.97345" lon="6.24105">
        <ele>1176</ele>
        <time>2016-08-27T06:54:25.000Z</time>
      </trkpt>
      <trkpt lat="45.97345" lon="6.24106">
        <ele>1177</ele>
        <time>2016-08-27T06:54:26.000Z</time>
      </trkpt>
      <trkpt lat="45.97346" lon="6.24107">
        <ele>1177</ele>
        <time>2016-08-27T06:54:27.000Z</time>
      </trkpt>
      <trkpt lat="45.97347" lon="6.24108">
        <ele>1178</ele>
        <time>2016-08-27T06:54:28.000Z</time>
      </trkpt>
      <trkpt lat="45.97347" lon="6.2411">
        <ele>1178</ele>
        <time>2016-08-27T06:54:29.000Z</time>
      </trkpt>
      <trkpt lat="45.97348" lon="6.24111">
        <ele>1178</ele>
        <time>2016-08-27T06:54:30.000Z</time>
      </trkpt>
      <trkpt lat="45.97349" lon="6.24112">
        <ele>1178</ele>
        <time>2016-08-27T06:54:31.000Z</time>
      </trkpt>
      <trkpt lat="45.9735" lon="6.24113">
        <ele>1179</ele>
        <time>2016-08-27T06:54:32.000Z</time>
      </trkpt>
      <trkpt lat="45.9735" lon="6.24114">
        <ele>1179</ele>
        <time>2016-08-27T06:54:33.000Z</time>
      </trkpt>
      <trkpt lat="45.97351" lon="6.24115">
        <ele>1179</ele>
        <time>2016-08-27T06:54:34.000Z</time>
      </trkpt>
      <trkpt lat="45.97351" lon="6.24116">
        <ele>1179</ele>
        <time>2016-08-27T06:54:35.000Z</time>
      </trkpt>
      <trkpt lat="45.97352" lon="6.24116">
        <ele>1180</ele>
        <time>2016-08-27T06:54:36.000Z</time>
      </trkpt>
      <trkpt lat="45.97352" lon="6.24117">
        <ele>1180</ele>
        <time>2016-08-27T06:54:37.000Z</time>
      </trkpt>
      <trkpt lat="45.97352" lon="6.24118">
        <ele>1180</ele>
        <time>2016-08-27T06:54:38.000Z</time>
      </trkpt>
      <trkpt lat="45.97353" lon="6.24119">
        <ele>1180</ele>
        <time>2016-08-27T06:54:39.000Z</time>
      </trkpt>
      <trkpt lat="45.97353" lon="6.2412">
        <ele>1180</ele>
        <time>2016-08-27T06:54:40.000Z</time>
      </trkpt>
      <trkpt lat="45.97354" lon="6.24121">
        <ele>1180</ele>
        <time>2016-08-27T06:54:41.000Z</time>
      </trkpt>
      <trkpt lat="45.97354" lon="6.24122">
        <ele>1180</ele>
        <time>2016-08-27T06:54:42.000Z</time>
      </trkpt>
      <trkpt lat="45.97355" lon="6.24124">
        <ele>1180</ele>
        <time>2016-08-27T06:54:43.000Z</time>
      </trkpt>
      <trkpt lat="45.97356" lon="6.24125">
        <ele>1181</ele>
        <time>2016-08-27T06:54:44.000Z</time>
      </trkpt>
      <trkpt lat="45.97357" lon="6.24127">
        <ele>1181</ele>
        <time>2016-08-27T06:54:45.000Z</time>
      </trkpt>
      <trkpt lat="45.97357" lon="6.24128">
        <ele>1181</ele>
        <time>2016-08-27T06:54:46.000Z</time>
      </trkpt>
      <trkpt lat="45.97358" lon="6.2413">
        <ele>1181</ele>
        <time>2016-08-27T06:54:47.000Z</time>
      </trkpt>
      <trkpt lat="45.97358" lon="6.24131">
        <ele>1182</ele>
        <time>2016-08-27T06:54:48.000Z</time>
      </trkpt>
      <trkpt lat="45.97359" lon="6.24132">
        <ele>1182</ele>
        <time>2016-08-27T06:54:49.000Z</time>
      </trkpt>
      <trkpt lat="45.9736" lon="6.24133">
        <ele>1182</ele>
        <time>2016-08-27T06:54:50.000Z</time>
      </trkpt>
      <trkpt lat="45.9736" lon="6.24135">
        <ele>1182</ele>
        <time>2016-08-27T06:54:51.000Z</time>
      </trkpt>
      <trkpt lat="45.97361" lon="6.24136">
        <ele>1182</ele>
        <time>2016-08-27T06:54:52.000Z</time>
      </trkpt>
      <trkpt lat="45.97361" lon="6.24137">
        <ele>1182</ele>
        <time>2016-08-27T06:54:53.000Z</time>
      </trkpt>
      <trkpt lat="45.97361" lon="6.24138">
        <ele>1183</ele>
        <time>2016-08-27T06:54:54.000Z</time>
      </trkpt>
      <trkpt lat="45.97362" lon="6.24139">
        <ele>1183</ele>
        <time>2016-08-27T06:54:55.000Z</time>
      </trkpt>
      <trkpt lat="45.97362" lon="6.24141">
        <ele>1183</ele>
        <time>2016-08-27T06:54:56.000Z</time>
      </trkpt>
      <trkpt lat="45.97363" lon="6.24142">
        <ele>1183</ele>
        <time>2016-08-27T06:54:57.000Z</time>
      </trkpt>
      <trkpt lat="45.97364" lon="6.24143">
        <ele>1183</ele>
        <time>2016-08-27T06:54:58.000Z</time>
      </trkpt>
      <trkpt lat="45.97365" lon="6.24145">
        <ele>1183</ele>
        <time>2016-08-27T06:54:59.000Z</time>
      </trkpt>
      <trkpt lat="45.97366" lon="6.24147">
        <ele>1184</ele>
        <time>2016-08-27T06:55:00.000Z</time>
      </trkpt>
      <trkpt lat="45.97367" lon="6.24148">
        <ele>1184</ele>
        <time>2016-08-27T06:55:01.000Z</time>
      </trkpt>
      <trkpt lat="45.97368" lon="6.2415">
        <ele>1184</ele>
        <time>2016-08-27T06:55:02.000Z</time>
      </trkpt>
      <trkpt lat="45.97369" lon="6.24151">
        <ele>1184</ele>
        <time>2016-08-27T06:55:03.000Z</time>
      </trkpt>
      <trkpt lat="45.97369" lon="6.24153">
        <ele>1184</ele>
        <time>2016-08-27T06:55:04.000Z</time>
      </trkpt>
      <trkpt lat="45.9737" lon="6.24154">
        <ele>1184</ele>
        <time>2016-08-27T06:55:05.000Z</time>
      </trkpt>
      <trkpt lat="45.97371" lon="6.24155">
        <ele>1184</ele>
        <time>2016-08-27T06:55:06.000Z</time>
      </trkpt>
      <trkpt lat="45.97372" lon="6.24156">
        <ele>1184</ele>
        <time>2016-08-27T06:55:07.000Z</time>
      </trkpt>
      <trkpt lat="45.97372" lon="6.24157">
        <ele>1185</ele>
        <time>2016-08-27T06:55:08.000Z</time>
      </trkpt>
      <trkpt lat="45.97373" lon="6.24159">
        <ele>1185</ele>
        <time>2016-08-27T06:55:09.000Z</time>
      </trkpt>
      <trkpt lat="45.97374" lon="6.2416">
        <ele>1185</ele>
        <time>2016-08-27T06:55:10.000Z</time>
      </trkpt>
      <trkpt lat="45.97374" lon="6.24161">
        <ele>1185</ele>
        <time>2016-08-27T06:55:11.000Z</time>
      </trkpt>
      <trkpt lat="45.97375" lon="6.24162">
        <ele>1185</ele>
        <time>2016-08-27T06:55:12.000Z</time>
      </trkpt>
      <trkpt lat="45.97376" lon="6.24163">
        <ele>1185</ele>
        <time>2016-08-27T06:55:13.000Z</time>
      </trkpt>
      <trkpt lat="45.97377" lon="6.24164">
        <ele>1185</ele>
        <time>2016-08-27T06:55:14.000Z</time>
      </trkpt>
      <trkpt lat="45.97378" lon="6.24165">
        <ele>1185</ele>
        <time>2016-08-27T06:55:15.000Z</time>
      </trkpt>
      <trkpt lat="45.97379" lon="6.24166">
        <ele>1186</ele>
        <time>2016-08-27T06:55:16.000Z</time>
      </trkpt>
      <trkpt lat="45.9738" lon="6.24168">
        <ele>1186</ele>
        <time>2016-08-27T06:55:17.000Z</time>
      </trkpt>
      <trkpt lat="45.97381" lon="6.24169">
        <ele>1186</ele>
        <time>2016-08-27T06:55:18.000Z</time>
      </trkpt>
      <trkpt lat="45.97382" lon="6.24171">
        <ele>1186</ele>
        <time>2016-08-27T06:55:19.000Z</time>
      </trkpt>
      <trkpt lat="45.97382" lon="6.24172">
        <ele>1187</ele>
        <time>2016-08-27T06:55:20.000Z</time>
      </trkpt>
      <trkpt lat="45.97383" lon="6.24174">
        <ele>1187</ele>
        <time>2016-08-27T06:55:21.000Z</time>
      </trkpt>
      <trkpt lat="45.97384" lon="6.24175">
        <ele>1187</ele>
        <time>2016-08-27T06:55:22.000Z</time>
      </trkpt>
      <trkpt lat="45.97384" lon="6.24177">
        <ele>1187</ele>
        <time>2016-08-27T06:55:23.000Z</time>
      </trkpt>
      <trkpt lat="45.97385" lon="6.24179">
        <ele>1187</ele>
        <time>2016-08-27T06:55:24.000Z</time>
      </trkpt>
      <trkpt lat="45.97385" lon="6.2418">
        <ele>1187</ele>
        <time>2016-08-27T06:55:25.000Z</time>
      </trkpt>
      <trkpt lat="45.97386" lon="6.24181">
        <ele>1188</ele>
        <time>2016-08-27T06:55:26.000Z</time>
      </trkpt>
      <trkpt lat="45.97387" lon="6.24183">
        <ele>1188</ele>
        <time>2016-08-27T06:55:27.000Z</time>
      </trkpt>
      <trkpt lat="45.97387" lon="6.24184">
        <ele>1188</ele>
        <time>2016-08-27T06:55:28.000Z</time>
      </trkpt>
      <trkpt lat="45.97388" lon="6.24186">
        <ele>1188</ele>
        <time>2016-08-27T06:55:29.000Z</time>
      </trkpt>
      <trkpt lat="45.97389" lon="6.24187">
        <ele>1189</ele>
        <time>2016-08-27T06:55:30.000Z</time>
      </trkpt>
      <trkpt lat="45.97389" lon="6.24189">
        <ele>1189</ele>
        <time>2016-08-27T06:55:31.000Z</time>
      </trkpt>
      <trkpt lat="45.9739" lon="6.2419">
        <ele>1190</ele>
        <time>2016-08-27T06:55:32.000Z</time>
      </trkpt>
      <trkpt lat="45.97391" lon="6.24191">
        <ele>1190</ele>
        <time>2016-08-27T06:55:33.000Z</time>
      </trkpt>
      <trkpt lat="45.97392" lon="6.24193">
        <ele>1190</ele>
        <time>2016-08-27T06:55:34.000Z</time>
      </trkpt>
      <trkpt lat="45.97393" lon="6.24194">
        <ele>1190</ele>
        <time>2016-08-27T06:55:35.000Z</time>
      </trkpt>
      <trkpt lat="45.97394" lon="6.24195">
        <ele>1191</ele>
        <time>2016-08-27T06:55:36.000Z</time>
      </trkpt>
      <trkpt lat="45.97394" lon="6.24197">
        <ele>1191</ele>
        <time>2016-08-27T06:55:37.000Z</time>
      </trkpt>
      <trkpt lat="45.97395" lon="6.24198">
        <ele>1192</ele>
        <time>2016-08-27T06:55:38.000Z</time>
      </trkpt>
      <trkpt lat="45.97395" lon="6.24199">
        <ele>1192</ele>
        <time>2016-08-27T06:55:39.000Z</time>
      </trkpt>
      <trkpt lat="45.97396" lon="6.242">
        <ele>1193</ele>
        <time>2016-08-27T06:55:40.000Z</time>
      </trkpt>
      <trkpt lat="45.97396" lon="6.24201">
        <ele>1193</ele>
        <time>2016-08-27T06:55:41.000Z</time>
      </trkpt>
      <trkpt lat="45.97397" lon="6.24203">
        <ele>1193</ele>
        <time>2016-08-27T06:55:42.000Z</time>
      </trkpt>
      <trkpt lat="45.97397" lon="6.24204">
        <ele>1193</ele>
        <time>2016-08-27T06:55:43.000Z</time>
      </trkpt>
      <trkpt lat="45.97398" lon="6.24205">
        <ele>1193</ele>
        <time>2016-08-27T06:55:44.000Z</time>
      </trkpt>
      <trkpt lat="45.97398" lon="6.24206">
        <ele>1193</ele>
        <time>2016-08-27T06:55:45.000Z</time>
      </trkpt>
      <trkpt lat="45.97399" lon="6.24208">
        <ele>1194</ele>
        <time>2016-08-27T06:55:46.000Z</time>
      </trkpt>
      <trkpt lat="45.97399" lon="6.24209">
        <ele>1194</ele>
        <time>2016-08-27T06:55:47.000Z</time>
      </trkpt>
      <trkpt lat="45.97399" lon="6.2421">
        <ele>1194</ele>
        <time>2016-08-27T06:55:48.000Z</time>
      </trkpt>
      <trkpt lat="45.974" lon="6.24211">
        <ele>1194</ele>
        <time>2016-08-27T06:55:49.000Z</time>
      </trkpt>
      <trkpt lat="45.974" lon="6.24212">
        <ele>1195</ele>
        <time>2016-08-27T06:55:50.000Z</time>
      </trkpt>
      <trkpt lat="45.974" lon="6.24213">
        <ele>1195</ele>
        <time>2016-08-27T06:55:51.000Z</time>
      </trkpt>
      <trkpt lat="45.97401" lon="6.24214">
        <ele>1195</ele>
        <time>2016-08-27T06:55:52.000Z</time>
      </trkpt>
      <trkpt lat="45.97402" lon="6.24215">
        <ele>1195</ele>
        <time>2016-08-27T06:55:53.000Z</time>
      </trkpt>
      <trkpt lat="45.97403" lon="6.24217">
        <ele>1195</ele>
        <time>2016-08-27T06:55:54.000Z</time>
      </trkpt>
      <trkpt lat="45.97403" lon="6.24218">
        <ele>1195</ele>
        <time>2016-08-27T06:55:55.000Z</time>
      </trkpt>
      <trkpt lat="45.97404" lon="6.2422">
        <ele>1195</ele>
        <time>2016-08-27T06:55:56.000Z</time>
      </trkpt>
      <trkpt lat="45.97405" lon="6.24221">
        <ele>1195</ele>
        <time>2016-08-27T06:55:57.000Z</time>
      </trkpt>
      <trkpt lat="45.97406" lon="6.24223">
        <ele>1196</ele>
        <time>2016-08-27T06:55:58.000Z</time>
      </trkpt>
      <trkpt lat="45.97407" lon="6.24224">
        <ele>1196</ele>
        <time>2016-08-27T06:55:59.000Z</time>
      </trkpt>
      <trkpt lat="45.97407" lon="6.24225">
        <ele>1196</ele>
        <time>2016-08-27T06:56:00.000Z</time>
      </trkpt>
      <trkpt lat="45.97408" lon="6.24226">
        <ele>1196</ele>
        <time>2016-08-27T06:56:01.000Z</time>
      </trkpt>
      <trkpt lat="45.97409" lon="6.24228">
        <ele>1197</ele>
        <time>2016-08-27T06:56:02.000Z</time>
      </trkpt>
      <trkpt lat="45.9741" lon="6.24229">
        <ele>1197</ele>
        <time>2016-08-27T06:56:03.000Z</time>
      </trkpt>
      <trkpt lat="45.9741" lon="6.24231">
        <ele>1197</ele>
        <time>2016-08-27T06:56:04.000Z</time>
      </trkpt>
      <trkpt lat="45.97411" lon="6.24232">
        <ele>1197</ele>
        <time>2016-08-27T06:56:05.000Z</time>
      </trkpt>
      <trkpt lat="45.97411" lon="6.24233">
        <ele>1198</ele>
        <time>2016-08-27T06:56:06.000Z</time>
      </trkpt>
      <trkpt lat="45.97411" lon="6.24234">
        <ele>1198</ele>
        <time>2016-08-27T06:56:07.000Z</time>
      </trkpt>
      <trkpt lat="45.97412" lon="6.24235">
        <ele>1198</ele>
        <time>2016-08-27T06:56:08.000Z</time>
      </trkpt>
      <trkpt lat="45.97412" lon="6.24236">
        <ele>1198</ele>
        <time>2016-08-27T06:56:09.000Z</time>
      </trkpt>
      <trkpt lat="45.97412" lon="6.24238">
        <ele>1199</ele>
        <time>2016-08-27T06:56:10.000Z</time>
      </trkpt>
      <trkpt lat="45.97413" lon="6.24239">
        <ele>1199</ele>
        <time>2016-08-27T06:56:11.000Z</time>
      </trkpt>
      <trkpt lat="45.97413" lon="6.2424">
        <ele>1199</ele>
        <time>2016-08-27T06:56:12.000Z</time>
      </trkpt>
      <trkpt lat="45.97414" lon="6.24242">
        <ele>1199</ele>
        <time>2016-08-27T06:56:13.000Z</time>
      </trkpt>
      <trkpt lat="45.97415" lon="6.24243">
        <ele>1200</ele>
        <time>2016-08-27T06:56:14.000Z</time>
      </trkpt>
      <trkpt lat="45.97416" lon="6.24244">
        <ele>1200</ele>
        <time>2016-08-27T06:56:15.000Z</time>
      </trkpt>
      <trkpt lat="45.97417" lon="6.24245">
        <ele>1200</ele>
        <time>2016-08-27T06:56:16.000Z</time>
      </trkpt>
      <trkpt lat="45.97417" lon="6.24246">
        <ele>1200</ele>
        <time>2016-08-27T06:56:17.000Z</time>
      </trkpt>
      <trkpt lat="45.97418" lon="6.24248">
        <ele>1200</ele>
        <time>2016-08-27T06:56:18.000Z</time>
      </trkpt>
      <trkpt lat="45.97419" lon="6.24249">
        <ele>1200</ele>
        <time>2016-08-27T06:56:19.000Z</time>
      </trkpt>
      <trkpt lat="45.97419" lon="6.2425">
        <ele>1201</ele>
        <time>2016-08-27T06:56:20.000Z</time>
      </trkpt>
      <trkpt lat="45.9742" lon="6.24251">
        <ele>1201</ele>
        <time>2016-08-27T06:56:21.000Z</time>
      </trkpt>
      <trkpt lat="45.97421" lon="6.24253">
        <ele>1201</ele>
        <time>2016-08-27T06:56:22.000Z</time>
      </trkpt>
      <trkpt lat="45.97422" lon="6.24254">
        <ele>1201</ele>
        <time>2016-08-27T06:56:23.000Z</time>
      </trkpt>
      <trkpt lat="45.97422" lon="6.24255">
        <ele>1201</ele>
        <time>2016-08-27T06:56:24.000Z</time>
      </trkpt>
      <trkpt lat="45.97423" lon="6.24257">
        <ele>1201</ele>
        <time>2016-08-27T06:56:25.000Z</time>
      </trkpt>
      <trkpt lat="45.97423" lon="6.24259">
        <ele>1201</ele>
        <time>2016-08-27T06:56:26.000Z</time>
      </trkpt>
      <trkpt lat="45.97424" lon="6.2426">
        <ele>1201</ele>
        <time>2016-08-27T06:56:27.000Z</time>
      </trkpt>
      <trkpt lat="45.97424" lon="6.24263">
        <ele>1201</ele>
        <time>2016-08-27T06:56:28.000Z</time>
      </trkpt>
      <trkpt lat="45.97425" lon="6.24265">
        <ele>1201</ele>
        <time>2016-08-27T06:56:29.000Z</time>
      </trkpt>
      <trkpt lat="45.97425" lon="6.24267">
        <ele>1201</ele>
        <time>2016-08-27T06:56:30.000Z</time>
      </trkpt>
      <trkpt lat="45.97426" lon="6.24269">
        <ele>1201</ele>
        <time>2016-08-27T06:56:31.000Z</time>
      </trkpt>
      <trkpt lat="45.97427" lon="6.24271">
        <ele>1201</ele>
        <time>2016-08-27T06:56:32.000Z</time>
      </trkpt>
      <trkpt lat="45.97427" lon="6.24273">
        <ele>1201</ele>
        <time>2016-08-27T06:56:33.000Z</time>
      </trkpt>
      <trkpt lat="45.97428" lon="6.24275">
        <ele>1202</ele>
        <time>2016-08-27T06:56:34.000Z</time>
      </trkpt>
      <trkpt lat="45.97429" lon="6.24276">
        <ele>1202</ele>
        <time>2016-08-27T06:56:35.000Z</time>
      </trkpt>
      <trkpt lat="45.97429" lon="6.24278">
        <ele>1202</ele>
        <time>2016-08-27T06:56:36.000Z</time>
      </trkpt>
      <trkpt lat="45.97429" lon="6.2428">
        <ele>1202</ele>
        <time>2016-08-27T06:56:37.000Z</time>
      </trkpt>
      <trkpt lat="45.97429" lon="6.24282">
        <ele>1202</ele>
        <time>2016-08-27T06:56:38.000Z</time>
      </trkpt>
      <trkpt lat="45.9743" lon="6.24284">
        <ele>1202</ele>
        <time>2016-08-27T06:56:39.000Z</time>
      </trkpt>
      <trkpt lat="45.9743" lon="6.24286">
        <ele>1202</ele>
        <time>2016-08-27T06:56:40.000Z</time>
      </trkpt>
      <trkpt lat="45.9743" lon="6.24288">
        <ele>1202</ele>
        <time>2016-08-27T06:56:41.000Z</time>
      </trkpt>
      <trkpt lat="45.97431" lon="6.24291">
        <ele>1202</ele>
        <time>2016-08-27T06:56:42.000Z</time>
      </trkpt>
      <trkpt lat="45.97431" lon="6.24293">
        <ele>1202</ele>
        <time>2016-08-27T06:56:43.000Z</time>
      </trkpt>
      <trkpt lat="45.97432" lon="6.24294">
        <ele>1202</ele>
        <time>2016-08-27T06:56:44.000Z</time>
      </trkpt>
      <trkpt lat="45.97432" lon="6.24296">
        <ele>1202</ele>
        <time>2016-08-27T06:56:45.000Z</time>
      </trkpt>
      <trkpt lat="45.97433" lon="6.24298">
        <ele>1203</ele>
        <time>2016-08-27T06:56:46.000Z</time>
      </trkpt>
      <trkpt lat="45.97433" lon="6.243">
        <ele>1203</ele>
        <time>2016-08-27T06:56:47.000Z</time>
      </trkpt>
      <trkpt lat="45.97434" lon="6.24302">
        <ele>1203</ele>
        <time>2016-08-27T06:56:48.000Z</time>
      </trkpt>
      <trkpt lat="45.97434" lon="6.24303">
        <ele>1203</ele>
        <time>2016-08-27T06:56:49.000Z</time>
      </trkpt>
      <trkpt lat="45.97435" lon="6.24304">
        <ele>1204</ele>
        <time>2016-08-27T06:56:50.000Z</time>
      </trkpt>
      <trkpt lat="45.97435" lon="6.24306">
        <ele>1204</ele>
        <time>2016-08-27T06:56:51.000Z</time>
      </trkpt>
      <trkpt lat="45.97435" lon="6.24307">
        <ele>1204</ele>
        <time>2016-08-27T06:56:52.000Z</time>
      </trkpt>
      <trkpt lat="45.97436" lon="6.24309">
        <ele>1204</ele>
        <time>2016-08-27T06:56:53.000Z</time>
      </trkpt>
      <trkpt lat="45.97436" lon="6.2431">
        <ele>1205</ele>
        <time>2016-08-27T06:56:54.000Z</time>
      </trkpt>
      <trkpt lat="45.97437" lon="6.24311">
        <ele>1205</ele>
        <time>2016-08-27T06:56:55.000Z</time>
      </trkpt>
      <trkpt lat="45.97437" lon="6.24313">
        <ele>1205</ele>
        <time>2016-08-27T06:56:56.000Z</time>
      </trkpt>
      <trkpt lat="45.97438" lon="6.24314">
        <ele>1205</ele>
        <time>2016-08-27T06:56:57.000Z</time>
      </trkpt>
      <trkpt lat="45.97438" lon="6.24316">
        <ele>1206</ele>
        <time>2016-08-27T06:56:58.000Z</time>
      </trkpt>
      <trkpt lat="45.97439" lon="6.24318">
        <ele>1206</ele>
        <time>2016-08-27T06:56:59.000Z</time>
      </trkpt>
      <trkpt lat="45.97439" lon="6.2432">
        <ele>1207</ele>
        <time>2016-08-27T06:57:00.000Z</time>
      </trkpt>
      <trkpt lat="45.9744" lon="6.24322">
        <ele>1207</ele>
        <time>2016-08-27T06:57:01.000Z</time>
      </trkpt>
      <trkpt lat="45.9744" lon="6.24324">
        <ele>1207</ele>
        <time>2016-08-27T06:57:02.000Z</time>
      </trkpt>
      <trkpt lat="45.97441" lon="6.24325">
        <ele>1207</ele>
        <time>2016-08-27T06:57:03.000Z</time>
      </trkpt>
      <trkpt lat="45.97441" lon="6.24326">
        <ele>1207</ele>
        <time>2016-08-27T06:57:04.000Z</time>
      </trkpt>
      <trkpt lat="45.97441" lon="6.24328">
        <ele>1207</ele>
        <time>2016-08-27T06:57:05.000Z</time>
      </trkpt>
      <trkpt lat="45.97442" lon="6.24329">
        <ele>1208</ele>
        <time>2016-08-27T06:57:06.000Z</time>
      </trkpt>
      <trkpt lat="45.97442" lon="6.24331">
        <ele>1208</ele>
        <time>2016-08-27T06:57:07.000Z</time>
      </trkpt>
      <trkpt lat="45.97442" lon="6.24332">
        <ele>1208</ele>
        <time>2016-08-27T06:57:08.000Z</time>
      </trkpt>
      <trkpt lat="45.97443" lon="6.24333">
        <ele>1208</ele>
        <time>2016-08-27T06:57:09.000Z</time>
      </trkpt>
      <trkpt lat="45.97444" lon="6.24335">
        <ele>1209</ele>
        <time>2016-08-27T06:57:10.000Z</time>
      </trkpt>
      <trkpt lat="45.97444" lon="6.24336">
        <ele>1209</ele>
        <time>2016-08-27T06:57:11.000Z</time>
      </trkpt>
      <trkpt lat="45.97445" lon="6.24338">
        <ele>1209</ele>
        <time>2016-08-27T06:57:12.000Z</time>
      </trkpt>
      <trkpt lat="45.97445" lon="6.24339">
        <ele>1209</ele>
        <time>2016-08-27T06:57:13.000Z</time>
      </trkpt>
      <trkpt lat="45.97446" lon="6.2434">
        <ele>1209</ele>
        <time>2016-08-27T06:57:14.000Z</time>
      </trkpt>
      <trkpt lat="45.97447" lon="6.24341">
        <ele>1209</ele>
        <time>2016-08-27T06:57:15.000Z</time>
      </trkpt>
      <trkpt lat="45.97447" lon="6.24342">
        <ele>1210</ele>
        <time>2016-08-27T06:57:16.000Z</time>
      </trkpt>
      <trkpt lat="45.97448" lon="6.24343">
        <ele>1210</ele>
        <time>2016-08-27T06:57:17.000Z</time>
      </trkpt>
      <trkpt lat="45.97449" lon="6.24344">
        <ele>1210</ele>
        <time>2016-08-27T06:57:18.000Z</time>
      </trkpt>
      <trkpt lat="45.97449" lon="6.24345">
        <ele>1210</ele>
        <time>2016-08-27T06:57:19.000Z</time>
      </trkpt>
      <trkpt lat="45.9745" lon="6.24347">
        <ele>1211</ele>
        <time>2016-08-27T06:57:20.000Z</time>
      </trkpt>
      <trkpt lat="45.97451" lon="6.24348">
        <ele>1211</ele>
        <time>2016-08-27T06:57:21.000Z</time>
      </trkpt>
      <trkpt lat="45.97451" lon="6.2435">
        <ele>1211</ele>
        <time>2016-08-27T06:57:22.000Z</time>
      </trkpt>
      <trkpt lat="45.97452" lon="6.2435">
        <ele>1211</ele>
        <time>2016-08-27T06:57:23.000Z</time>
      </trkpt>
      <trkpt lat="45.97452" lon="6.24351">
        <ele>1211</ele>
        <time>2016-08-27T06:57:24.000Z</time>
      </trkpt>
      <trkpt lat="45.97451" lon="6.24351">
        <ele>1211</ele>
        <time>2016-08-27T06:57:25.000Z</time>
      </trkpt>
      <trkpt lat="45.97452" lon="6.24351">
        <ele>1212</ele>
        <time>2016-08-27T06:57:26.000Z</time>
      </trkpt>
      <trkpt lat="45.97452" lon="6.24351">
        <ele>1212</ele>
        <time>2016-08-27T06:57:27.000Z</time>
      </trkpt>
      <trkpt lat="45.97451" lon="6.2435">
        <ele>1212</ele>
        <time>2016-08-27T06:57:28.000Z</time>
      </trkpt>
      <trkpt lat="45.97451" lon="6.24349">
        <ele>1212</ele>
        <time>2016-08-27T06:57:29.000Z</time>
      </trkpt>
      <trkpt lat="45.9745" lon="6.24349">
        <ele>1212</ele>
        <time>2016-08-27T06:57:30.000Z</time>
      </trkpt>
      <trkpt lat="45.97449" lon="6.24348">
        <ele>1212</ele>
        <time>2016-08-27T06:57:31.000Z</time>
      </trkpt>
      <trkpt lat="45.97449" lon="6.24348">
        <ele>1213</ele>
        <time>2016-08-27T06:57:32.000Z</time>
      </trkpt>
      <trkpt lat="45.97448" lon="6.24348">
        <ele>1213</ele>
        <time>2016-08-27T06:57:33.000Z</time>
      </trkpt>
      <trkpt lat="45.97447" lon="6.24347">
        <ele>1213</ele>
        <time>2016-08-27T06:57:34.000Z</time>
      </trkpt>
      <trkpt lat="45.97446" lon="6.24347">
        <ele>1213</ele>
        <time>2016-08-27T06:57:35.000Z</time>
      </trkpt>
      <trkpt lat="45.97445" lon="6.24346">
        <ele>1213</ele>
        <time>2016-08-27T06:57:36.000Z</time>
      </trkpt>
      <trkpt lat="45.97445" lon="6.24346">
        <ele>1213</ele>
        <time>2016-08-27T06:57:37.000Z</time>
      </trkpt>
      <trkpt lat="45.97444" lon="6.24345">
        <ele>1213</ele>
        <time>2016-08-27T06:57:38.000Z</time>
      </trkpt>
      <trkpt lat="45.97443" lon="6.24344">
        <ele>1213</ele>
        <time>2016-08-27T06:57:39.000Z</time>
      </trkpt>
      <trkpt lat="45.97442" lon="6.24343">
        <ele>1214</ele>
        <time>2016-08-27T06:57:40.000Z</time>
      </trkpt>
      <trkpt lat="45.97441" lon="6.24342">
        <ele>1214</ele>
        <time>2016-08-27T06:57:41.000Z</time>
      </trkpt>
      <trkpt lat="45.9744" lon="6.24342">
        <ele>1214</ele>
        <time>2016-08-27T06:57:42.000Z</time>
      </trkpt>
      <trkpt lat="45.97439" lon="6.24342">
        <ele>1214</ele>
        <time>2016-08-27T06:57:43.000Z</time>
      </trkpt>
      <trkpt lat="45.97438" lon="6.24341">
        <ele>1214</ele>
        <time>2016-08-27T06:57:44.000Z</time>
      </trkpt>
      <trkpt lat="45.97437" lon="6.24341">
        <ele>1214</ele>
        <time>2016-08-27T06:57:45.000Z</time>
      </trkpt>
      <trkpt lat="45.97437" lon="6.2434">
        <ele>1214</ele>
        <time>2016-08-27T06:57:46.000Z</time>
      </trkpt>
      <trkpt lat="45.97436" lon="6.24339">
        <ele>1214</ele>
        <time>2016-08-27T06:57:47.000Z</time>
      </trkpt>
      <trkpt lat="45.97435" lon="6.24338">
        <ele>1215</ele>
        <time>2016-08-27T06:57:48.000Z</time>
      </trkpt>
      <trkpt lat="45.97435" lon="6.24337">
        <ele>1215</ele>
        <time>2016-08-27T06:57:49.000Z</time>
      </trkpt>
      <trkpt lat="45.97434" lon="6.24336">
        <ele>1215</ele>
        <time>2016-08-27T06:57:50.000Z</time>
      </trkpt>
      <trkpt lat="45.97432" lon="6.24335">
        <ele>1215</ele>
        <time>2016-08-27T06:57:51.000Z</time>
      </trkpt>
      <trkpt lat="45.97431" lon="6.24334">
        <ele>1215</ele>
        <time>2016-08-27T06:57:52.000Z</time>
      </trkpt>
      <trkpt lat="45.9743" lon="6.24333">
        <ele>1215</ele>
        <time>2016-08-27T06:57:53.000Z</time>
      </trkpt>
      <trkpt lat="45.97428" lon="6.24332">
        <ele>1215</ele>
        <time>2016-08-27T06:57:54.000Z</time>
      </trkpt>
      <trkpt lat="45.97427" lon="6.24331">
        <ele>1215</ele>
        <time>2016-08-27T06:57:55.000Z</time>
      </trkpt>
      <trkpt lat="45.97425" lon="6.2433">
        <ele>1215</ele>
        <time>2016-08-27T06:57:56.000Z</time>
      </trkpt>
      <trkpt lat="45.97424" lon="6.24329">
        <ele>1215</ele>
        <time>2016-08-27T06:57:57.000Z</time>
      </trkpt>
      <trkpt lat="45.97423" lon="6.24328">
        <ele>1216</ele>
        <time>2016-08-27T06:57:58.000Z</time>
      </trkpt>
      <trkpt lat="45.97422" lon="6.24327">
        <ele>1216</ele>
        <time>2016-08-27T06:57:59.000Z</time>
      </trkpt>
      <trkpt lat="45.97421" lon="6.24326">
        <ele>1216</ele>
        <time>2016-08-27T06:58:00.000Z</time>
      </trkpt>
      <trkpt lat="45.9742" lon="6.24325">
        <ele>1216</ele>
        <time>2016-08-27T06:58:01.000Z</time>
      </trkpt>
      <trkpt lat="45.97419" lon="6.24323">
        <ele>1216</ele>
        <time>2016-08-27T06:58:02.000Z</time>
      </trkpt>
      <trkpt lat="45.97418" lon="6.24322">
        <ele>1216</ele>
        <time>2016-08-27T06:58:03.000Z</time>
      </trkpt>
      <trkpt lat="45.97417" lon="6.24321">
        <ele>1216</ele>
        <time>2016-08-27T06:58:04.000Z</time>
      </trkpt>
      <trkpt lat="45.97416" lon="6.2432">
        <ele>1216</ele>
        <time>2016-08-27T06:58:05.000Z</time>
      </trkpt>
      <trkpt lat="45.97415" lon="6.24318">
        <ele>1216</ele>
        <time>2016-08-27T06:58:06.000Z</time>
      </trkpt>
      <trkpt lat="45.97414" lon="6.24317">
        <ele>1216</ele>
        <time>2016-08-27T06:58:07.000Z</time>
      </trkpt>
      <trkpt lat="45.97413" lon="6.24316">
        <ele>1216</ele>
        <time>2016-08-27T06:58:08.000Z</time>
      </trkpt>
      <trkpt lat="45.97413" lon="6.24315">
        <ele>1216</ele>
        <time>2016-08-27T06:58:09.000Z</time>
      </trkpt>
      <trkpt lat="45.97412" lon="6.24314">
        <ele>1216</ele>
        <time>2016-08-27T06:58:10.000Z</time>
      </trkpt>
      <trkpt lat="45.97412" lon="6.24312">
        <ele>1216</ele>
        <time>2016-08-27T06:58:11.000Z</time>
      </trkpt>
      <trkpt lat="45.97411" lon="6.24311">
        <ele>1216</ele>
        <time>2016-08-27T06:58:12.000Z</time>
      </trkpt>
      <trkpt lat="45.9741" lon="6.2431">
        <ele>1216</ele>
        <time>2016-08-27T06:58:13.000Z</time>
      </trkpt>
      <trkpt lat="45.97409" lon="6.24309">
        <ele>1217</ele>
        <time>2016-08-27T06:58:14.000Z</time>
      </trkpt>
      <trkpt lat="45.97409" lon="6.24308">
        <ele>1217</ele>
        <time>2016-08-27T06:58:15.000Z</time>
      </trkpt>
      <trkpt lat="45.97408" lon="6.24307">
        <ele>1217</ele>
        <time>2016-08-27T06:58:16.000Z</time>
      </trkpt>
      <trkpt lat="45.97408" lon="6.24305">
        <ele>1217</ele>
        <time>2016-08-27T06:58:17.000Z</time>
      </trkpt>
      <trkpt lat="45.97407" lon="6.24304">
        <ele>1217</ele>
        <time>2016-08-27T06:58:18.000Z</time>
      </trkpt>
      <trkpt lat="45.97406" lon="6.24303">
        <ele>1217</ele>
        <time>2016-08-27T06:58:19.000Z</time>
      </trkpt>
      <trkpt lat="45.97406" lon="6.24302">
        <ele>1218</ele>
        <time>2016-08-27T06:58:20.000Z</time>
      </trkpt>
      <trkpt lat="45.97405" lon="6.24301">
        <ele>1218</ele>
        <time>2016-08-27T06:58:21.000Z</time>
      </trkpt>
      <trkpt lat="45.97405" lon="6.243">
        <ele>1218</ele>
        <time>2016-08-27T06:58:22.000Z</time>
      </trkpt>
      <trkpt lat="45.97405" lon="6.24298">
        <ele>1218</ele>
        <time>2016-08-27T06:58:23.000Z</time>
      </trkpt>
      <trkpt lat="45.97404" lon="6.24297">
        <ele>1218</ele>
        <time>2016-08-27T06:58:24.000Z</time>
      </trkpt>
      <trkpt lat="45.97404" lon="6.24296">
        <ele>1218</ele>
        <time>2016-08-27T06:58:25.000Z</time>
      </trkpt>
      <trkpt lat="45.97403" lon="6.24295">
        <ele>1219</ele>
        <time>2016-08-27T06:58:26.000Z</time>
      </trkpt>
      <trkpt lat="45.97402" lon="6.24294">
        <ele>1219</ele>
        <time>2016-08-27T06:58:27.000Z</time>
      </trkpt>
      <trkpt lat="45.97402" lon="6.24292">
        <ele>1220</ele>
        <time>2016-08-27T06:58:28.000Z</time>
      </trkpt>
      <trkpt lat="45.97401" lon="6.24291">
        <ele>1220</ele>
        <time>2016-08-27T06:58:29.000Z</time>
      </trkpt>
      <trkpt lat="45.974" lon="6.2429">
        <ele>1220</ele>
        <time>2016-08-27T06:58:30.000Z</time>
      </trkpt>
      <trkpt lat="45.97399" lon="6.24288">
        <ele>1220</ele>
        <time>2016-08-27T06:58:31.000Z</time>
      </trkpt>
      <trkpt lat="45.97398" lon="6.24287">
        <ele>1221</ele>
        <time>2016-08-27T06:58:32.000Z</time>
      </trkpt>
      <trkpt lat="45.97397" lon="6.24285">
        <ele>1221</ele>
        <time>2016-08-27T06:58:33.000Z</time>
      </trkpt>
      <trkpt lat="45.97396" lon="6.24284">
        <ele>1221</ele>
        <time>2016-08-27T06:58:34.000Z</time>
      </trkpt>
      <trkpt lat="45.97395" lon="6.24282">
        <ele>1221</ele>
        <time>2016-08-27T06:58:35.000Z</time>
      </trkpt>
      <trkpt lat="45.97394" lon="6.24281">
        <ele>1222</ele>
        <time>2016-08-27T06:58:36.000Z</time>
      </trkpt>
      <trkpt lat="45.97393" lon="6.2428">
        <ele>1222</ele>
        <time>2016-08-27T06:58:37.000Z</time>
      </trkpt>
      <trkpt lat="45.97392" lon="6.24279">
        <ele>1222</ele>
        <time>2016-08-27T06:58:38.000Z</time>
      </trkpt>
      <trkpt lat="45.97391" lon="6.24277">
        <ele>1222</ele>
        <time>2016-08-27T06:58:39.000Z</time>
      </trkpt>
      <trkpt lat="45.9739" lon="6.24276">
        <ele>1222</ele>
        <time>2016-08-27T06:58:40.000Z</time>
      </trkpt>
      <trkpt lat="45.97389" lon="6.24275">
        <ele>1222</ele>
        <time>2016-08-27T06:58:41.000Z</time>
      </trkpt>
      <trkpt lat="45.97387" lon="6.24274">
        <ele>1223</ele>
        <time>2016-08-27T06:58:42.000Z</time>
      </trkpt>
      <trkpt lat="45.97386" lon="6.24273">
        <ele>1223</ele>
        <time>2016-08-27T06:58:43.000Z</time>
      </trkpt>
      <trkpt lat="45.97384" lon="6.24272">
        <ele>1223</ele>
        <time>2016-08-27T06:58:44.000Z</time>
      </trkpt>
      <trkpt lat="45.97382" lon="6.24271">
        <ele>1223</ele>
        <time>2016-08-27T06:58:45.000Z</time>
      </trkpt>
      <trkpt lat="45.97381" lon="6.2427">
        <ele>1223</ele>
        <time>2016-08-27T06:58:46.000Z</time>
      </trkpt>
      <trkpt lat="45.97379" lon="6.24269">
        <ele>1223</ele>
        <time>2016-08-27T06:58:47.000Z</time>
      </trkpt>
      <trkpt lat="45.97378" lon="6.24268">
        <ele>1223</ele>
        <time>2016-08-27T06:58:48.000Z</time>
      </trkpt>
      <trkpt lat="45.97376" lon="6.24267">
        <ele>1223</ele>
        <time>2016-08-27T06:58:49.000Z</time>
      </trkpt>
      <trkpt lat="45.97374" lon="6.24267">
        <ele>1223</ele>
        <time>2016-08-27T06:58:50.000Z</time>
      </trkpt>
      <trkpt lat="45.97373" lon="6.24266">
        <ele>1223</ele>
        <time>2016-08-27T06:58:51.000Z</time>
      </trkpt>
      <trkpt lat="45.97371" lon="6.24266">
        <ele>1223</ele>
        <time>2016-08-27T06:58:52.000Z</time>
      </trkpt>
      <trkpt lat="45.97369" lon="6.24265">
        <ele>1223</ele>
        <time>2016-08-27T06:58:53.000Z</time>
      </trkpt>
      <trkpt lat="45.97368" lon="6.24264">
        <ele>1223</ele>
        <time>2016-08-27T06:58:54.000Z</time>
      </trkpt>
      <trkpt lat="45.97366" lon="6.24264">
        <ele>1223</ele>
        <time>2016-08-27T06:58:55.000Z</time>
      </trkpt>
      <trkpt lat="45.97365" lon="6.24263">
        <ele>1224</ele>
        <time>2016-08-27T06:58:56.000Z</time>
      </trkpt>
      <trkpt lat="45.97363" lon="6.24263">
        <ele>1224</ele>
        <time>2016-08-27T06:58:57.000Z</time>
      </trkpt>
      <trkpt lat="45.97362" lon="6.24262">
        <ele>1224</ele>
        <time>2016-08-27T06:58:58.000Z</time>
      </trkpt>
      <trkpt lat="45.97361" lon="6.24262">
        <ele>1224</ele>
        <time>2016-08-27T06:58:59.000Z</time>
      </trkpt>
      <trkpt lat="45.97361" lon="6.24261">
        <ele>1224</ele>
        <time>2016-08-27T06:59:00.000Z</time>
      </trkpt>
      <trkpt lat="45.9736" lon="6.2426">
        <ele>1224</ele>
        <time>2016-08-27T06:59:01.000Z</time>
      </trkpt>
      <trkpt lat="45.97359" lon="6.2426">
        <ele>1225</ele>
        <time>2016-08-27T06:59:02.000Z</time>
      </trkpt>
      <trkpt lat="45.97358" lon="6.24259">
        <ele>1225</ele>
        <time>2016-08-27T06:59:03.000Z</time>
      </trkpt>
      <trkpt lat="45.97357" lon="6.24258">
        <ele>1225</ele>
        <time>2016-08-27T06:59:04.000Z</time>
      </trkpt>
      <trkpt lat="45.97357" lon="6.24257">
        <ele>1225</ele>
        <time>2016-08-27T06:59:05.000Z</time>
      </trkpt>
      <trkpt lat="45.97356" lon="6.24257">
        <ele>1225</ele>
        <time>2016-08-27T06:59:06.000Z</time>
      </trkpt>
      <trkpt lat="45.97355" lon="6.24257">
        <ele>1225</ele>
        <time>2016-08-27T06:59:07.000Z</time>
      </trkpt>
      <trkpt lat="45.97354" lon="6.24256">
        <ele>1225</ele>
        <time>2016-08-27T06:59:08.000Z</time>
      </trkpt>
      <trkpt lat="45.97353" lon="6.24255">
        <ele>1225</ele>
        <time>2016-08-27T06:59:09.000Z</time>
      </trkpt>
      <trkpt lat="45.97352" lon="6.24255">
        <ele>1226</ele>
        <time>2016-08-27T06:59:10.000Z</time>
      </trkpt>
      <trkpt lat="45.97352" lon="6.24254">
        <ele>1226</ele>
        <time>2016-08-27T06:59:11.000Z</time>
      </trkpt>
      <trkpt lat="45.97351" lon="6.24253">
        <ele>1226</ele>
        <time>2016-08-27T06:59:12.000Z</time>
      </trkpt>
      <trkpt lat="45.9735" lon="6.24252">
        <ele>1226</ele>
        <time>2016-08-27T06:59:13.000Z</time>
      </trkpt>
      <trkpt lat="45.97349" lon="6.24251">
        <ele>1226</ele>
        <time>2016-08-27T06:59:14.000Z</time>
      </trkpt>
      <trkpt lat="45.97349" lon="6.2425">
        <ele>1226</ele>
        <time>2016-08-27T06:59:15.000Z</time>
      </trkpt>
      <trkpt lat="45.97348" lon="6.24249">
        <ele>1227</ele>
        <time>2016-08-27T06:59:16.000Z</time>
      </trkpt>
      <trkpt lat="45.97346" lon="6.24248">
        <ele>1227</ele>
        <time>2016-08-27T06:59:17.000Z</time>
      </trkpt>
      <trkpt lat="45.97346" lon="6.24248">
        <ele>1227</ele>
        <time>2016-08-27T06:59:18.000Z</time>
      </trkpt>
      <trkpt lat="45.97345" lon="6.24247">
        <ele>1227</ele>
        <time>2016-08-27T06:59:19.000Z</time>
      </trkpt>
      <trkpt lat="45.97344" lon="6.24246">
        <ele>1228</ele>
        <time>2016-08-27T06:59:20.000Z</time>
      </trkpt>
      <trkpt lat="45.97343" lon="6.24245">
        <ele>1228</ele>
        <time>2016-08-27T06:59:21.000Z</time>
      </trkpt>
      <trkpt lat="45.97342" lon="6.24245">
        <ele>1228</ele>
        <time>2016-08-27T06:59:22.000Z</time>
      </trkpt>
      <trkpt lat="45.97341" lon="6.24244">
        <ele>1228</ele>
        <time>2016-08-27T06:59:23.000Z</time>
      </trkpt>
      <trkpt lat="45.9734" lon="6.24243">
        <ele>1228</ele>
        <time>2016-08-27T06:59:24.000Z</time>
      </trkpt>
      <trkpt lat="45.97339" lon="6.24243">
        <ele>1228</ele>
        <time>2016-08-27T06:59:25.000Z</time>
      </trkpt>
      <trkpt lat="45.97338" lon="6.24242">
        <ele>1229</ele>
        <time>2016-08-27T06:59:26.000Z</time>
      </trkpt>
      <trkpt lat="45.97337" lon="6.24241">
        <ele>1229</ele>
        <time>2016-08-27T06:59:27.000Z</time>
      </trkpt>
      <trkpt lat="45.97337" lon="6.24241">
        <ele>1229</ele>
        <time>2016-08-27T06:59:28.000Z</time>
      </trkpt>
      <trkpt lat="45.97335" lon="6.2424">
        <ele>1229</ele>
        <time>2016-08-27T06:59:29.000Z</time>
      </trkpt>
      <trkpt lat="45.97334" lon="6.2424">
        <ele>1230</ele>
        <time>2016-08-27T06:59:30.000Z</time>
      </trkpt>
      <trkpt lat="45.97333" lon="6.24239">
        <ele>1230</ele>
        <time>2016-08-27T06:59:31.000Z</time>
      </trkpt>
      <trkpt lat="45.97332" lon="6.24239">
        <ele>1230</ele>
        <time>2016-08-27T06:59:32.000Z</time>
      </trkpt>
      <trkpt lat="45.97331" lon="6.24239">
        <ele>1230</ele>
        <time>2016-08-27T06:59:33.000Z</time>
      </trkpt>
      <trkpt lat="45.9733" lon="6.24238">
        <ele>1231</ele>
        <time>2016-08-27T06:59:34.000Z</time>
      </trkpt>
      <trkpt lat="45.97329" lon="6.24238">
        <ele>1231</ele>
        <time>2016-08-27T06:59:35.000Z</time>
      </trkpt>
      <trkpt lat="45.97328" lon="6.24237">
        <ele>1232</ele>
        <time>2016-08-27T06:59:36.000Z</time>
      </trkpt>
      <trkpt lat="45.97327" lon="6.24237">
        <ele>1232</ele>
        <time>2016-08-27T06:59:37.000Z</time>
      </trkpt>
      <trkpt lat="45.97326" lon="6.24236">
        <ele>1232</ele>
        <time>2016-08-27T06:59:38.000Z</time>
      </trkpt>
      <trkpt lat="45.97325" lon="6.24236">
        <ele>1232</ele>
        <time>2016-08-27T06:59:39.000Z</time>
      </trkpt>
      <trkpt lat="45.97325" lon="6.24236">
        <ele>1233</ele>
        <time>2016-08-27T06:59:40.000Z</time>
      </trkpt>
      <trkpt lat="45.97324" lon="6.24235">
        <ele>1233</ele>
        <time>2016-08-27T06:59:41.000Z</time>
      </trkpt>
      <trkpt lat="45.97323" lon="6.24234">
        <ele>1233</ele>
        <time>2016-08-27T06:59:42.000Z</time>
      </trkpt>
      <trkpt lat="45.97321" lon="6.24234">
        <ele>1233</ele>
        <time>2016-08-27T06:59:43.000Z</time>
      </trkpt>
      <trkpt lat="45.9732" lon="6.24233">
        <ele>1234</ele>
        <time>2016-08-27T06:59:44.000Z</time>
      </trkpt>
      <trkpt lat="45.9732" lon="6.24233">
        <ele>1234</ele>
        <time>2016-08-27T06:59:45.000Z</time>
      </trkpt>
      <trkpt lat="45.97318" lon="6.24233">
        <ele>1234</ele>
        <time>2016-08-27T06:59:46.000Z</time>
      </trkpt>
      <trkpt lat="45.97317" lon="6.24232">
        <ele>1234</ele>
        <time>2016-08-27T06:59:47.000Z</time>
      </trkpt>
      <trkpt lat="45.97316" lon="6.24232">
        <ele>1234</ele>
        <time>2016-08-27T06:59:48.000Z</time>
      </trkpt>
      <trkpt lat="45.97315" lon="6.24231">
        <ele>1234</ele>
        <time>2016-08-27T06:59:49.000Z</time>
      </trkpt>
      <trkpt lat="45.97314" lon="6.24231">
        <ele>1234</ele>
        <time>2016-08-27T06:59:50.000Z</time>
      </trkpt>
      <trkpt lat="45.97313" lon="6.2423">
        <ele>1234</ele>
        <time>2016-08-27T06:59:51.000Z</time>
      </trkpt>
      <trkpt lat="45.97312" lon="6.2423">
        <ele>1234</ele>
        <time>2016-08-27T06:59:52.000Z</time>
      </trkpt>
      <trkpt lat="45.97311" lon="6.24229">
        <ele>1234</ele>
        <time>2016-08-27T06:59:53.000Z</time>
      </trkpt>
      <trkpt lat="45.9731" lon="6.24229">
        <ele>1235</ele>
        <time>2016-08-27T06:59:54.000Z</time>
      </trkpt>
      <trkpt lat="45.97309" lon="6.24229">
        <ele>1235</ele>
        <time>2016-08-27T06:59:55.000Z</time>
      </trkpt>
      <trkpt lat="45.97308" lon="6.24229">
        <ele>1235</ele>
        <time>2016-08-27T06:59:56.000Z</time>
      </trkpt>
      <trkpt lat="45.97307" lon="6.24229">
        <ele>1235</ele>
        <time>2016-08-27T06:59:57.000Z</time>
      </trkpt>
      <trkpt lat="45.97306" lon="6.24229">
        <ele>1235</ele>
        <time>2016-08-27T06:59:58.000Z</time>
      </trkpt>
      <trkpt lat="45.97305" lon="6.24229">
        <ele>1235</ele>
        <time>2016-08-27T06:59:59.000Z</time>
      </trkpt>
      <trkpt lat="45.97304" lon="6.24229">
        <ele>1236</ele>
        <time>2016-08-27T07:00:00.000Z</time>
      </trkpt>
      <trkpt lat="45.97303" lon="6.24228">
        <ele>1236</ele>
        <time>2016-08-27T07:00:01.000Z</time>
      </trkpt>
      <trkpt lat="45.97302" lon="6.24228">
        <ele>1236</ele>
        <time>2016-08-27T07:00:02.000Z</time>
      </trkpt>
      <trkpt lat="45.97301" lon="6.24228">
        <ele>1236</ele>
        <time>2016-08-27T07:00:03.000Z</time>
      </trkpt>
      <trkpt lat="45.973" lon="6.24227">
        <ele>1237</ele>
        <time>2016-08-27T07:00:04.000Z</time>
      </trkpt>
      <trkpt lat="45.97299" lon="6.24227">
        <ele>1237</ele>
        <time>2016-08-27T07:00:05.000Z</time>
      </trkpt>
      <trkpt lat="45.97299" lon="6.24226">
        <ele>1237</ele>
        <time>2016-08-27T07:00:06.000Z</time>
      </trkpt>
      <trkpt lat="45.97298" lon="6.24226">
        <ele>1237</ele>
        <time>2016-08-27T07:00:07.000Z</time>
      </trkpt>
      <trkpt lat="45.97297" lon="6.24225">
        <ele>1238</ele>
        <time>2016-08-27T07:00:08.000Z</time>
      </trkpt>
      <trkpt lat="45.97296" lon="6.24224">
        <ele>1238</ele>
        <time>2016-08-27T07:00:09.000Z</time>
      </trkpt>
      <trkpt lat="45.97294" lon="6.24223">
        <ele>1238</ele>
        <time>2016-08-27T07:00:10.000Z</time>
      </trkpt>
      <trkpt lat="45.97293" lon="6.24223">
        <ele>1238</ele>
        <time>2016-08-27T07:00:11.000Z</time>
      </trkpt>
      <trkpt lat="45.97292" lon="6.24222">
        <ele>1239</ele>
        <time>2016-08-27T07:00:12.000Z</time>
      </trkpt>
      <trkpt lat="45.97291" lon="6.24221">
        <ele>1239</ele>
        <time>2016-08-27T07:00:13.000Z</time>
      </trkpt>
      <trkpt lat="45.9729" lon="6.24221">
        <ele>1239</ele>
        <time>2016-08-27T07:00:14.000Z</time>
      </trkpt>
      <trkpt lat="45.97289" lon="6.24221">
        <ele>1239</ele>
        <time>2016-08-27T07:00:15.000Z</time>
      </trkpt>
      <trkpt lat="45.97288" lon="6.2422">
        <ele>1240</ele>
        <time>2016-08-27T07:00:16.000Z</time>
      </trkpt>
      <trkpt lat="45.97287" lon="6.24219">
        <ele>1240</ele>
        <time>2016-08-27T07:00:17.000Z</time>
      </trkpt>
      <trkpt lat="45.97286" lon="6.24218">
        <ele>1240</ele>
        <time>2016-08-27T07:00:18.000Z</time>
      </trkpt>
      <trkpt lat="45.97284" lon="6.24217">
        <ele>1240</ele>
        <time>2016-08-27T07:00:19.000Z</time>
      </trkpt>
      <trkpt lat="45.97283" lon="6.24216">
        <ele>1240</ele>
        <time>2016-08-27T07:00:20.000Z</time>
      </trkpt>
      <trkpt lat="45.97282" lon="6.24215">
        <ele>1240</ele>
        <time>2016-08-27T07:00:21.000Z</time>
      </trkpt>
      <trkpt lat="45.9728" lon="6.24214">
        <ele>1241</ele>
        <time>2016-08-27T07:00:22.000Z</time>
      </trkpt>
      <trkpt lat="45.97278" lon="6.24213">
        <ele>1241</ele>
        <time>2016-08-27T07:00:23.000Z</time>
      </trkpt>
      <trkpt lat="45.97277" lon="6.24212">
        <ele>1241</ele>
        <time>2016-08-27T07:00:24.000Z</time>
      </trkpt>
      <trkpt lat="45.97275" lon="6.24211">
        <ele>1241</ele>
        <time>2016-08-27T07:00:25.000Z</time>
      </trkpt>
      <trkpt lat="45.97274" lon="6.24209">
        <ele>1242</ele>
        <time>2016-08-27T07:00:26.000Z</time>
      </trkpt>
      <trkpt lat="45.97272" lon="6.24208">
        <ele>1242</ele>
        <time>2016-08-27T07:00:27.000Z</time>
      </trkpt>
      <trkpt lat="45.97271" lon="6.24207">
        <ele>1242</ele>
        <time>2016-08-27T07:00:28.000Z</time>
      </trkpt>
      <trkpt lat="45.97269" lon="6.24207">
        <ele>1242</ele>
        <time>2016-08-27T07:00:29.000Z</time>
      </trkpt>
      <trkpt lat="45.97268" lon="6.24206">
        <ele>1242</ele>
        <time>2016-08-27T07:00:30.000Z</time>
      </trkpt>
      <trkpt lat="45.97267" lon="6.24205">
        <ele>1242</ele>
        <time>2016-08-27T07:00:31.000Z</time>
      </trkpt>
      <trkpt lat="45.97266" lon="6.24204">
        <ele>1243</ele>
        <time>2016-08-27T07:00:32.000Z</time>
      </trkpt>
      <trkpt lat="45.97265" lon="6.24203">
        <ele>1243</ele>
        <time>2016-08-27T07:00:33.000Z</time>
      </trkpt>
      <trkpt lat="45.97263" lon="6.24203">
        <ele>1243</ele>
        <time>2016-08-27T07:00:34.000Z</time>
      </trkpt>
      <trkpt lat="45.97263" lon="6.24201">
        <ele>1243</ele>
        <time>2016-08-27T07:00:35.000Z</time>
      </trkpt>
      <trkpt lat="45.97261" lon="6.242">
        <ele>1244</ele>
        <time>2016-08-27T07:00:36.000Z</time>
      </trkpt>
      <trkpt lat="45.9726" lon="6.24198">
        <ele>1244</ele>
        <time>2016-08-27T07:00:37.000Z</time>
      </trkpt>
      <trkpt lat="45.9726" lon="6.24197">
        <ele>1244</ele>
        <time>2016-08-27T07:00:38.000Z</time>
      </trkpt>
      <trkpt lat="45.97258" lon="6.24195">
        <ele>1244</ele>
        <time>2016-08-27T07:00:39.000Z</time>
      </trkpt>
      <trkpt lat="45.97257" lon="6.24194">
        <ele>1244</ele>
        <time>2016-08-27T07:00:40.000Z</time>
      </trkpt>
      <trkpt lat="45.97256" lon="6.24193">
        <ele>1244</ele>
        <time>2016-08-27T07:00:41.000Z</time>
      </trkpt>
      <trkpt lat="45.97255" lon="6.24192">
        <ele>1245</ele>
        <time>2016-08-27T07:00:42.000Z</time>
      </trkpt>
      <trkpt lat="45.97254" lon="6.24191">
        <ele>1245</ele>
        <time>2016-08-27T07:00:43.000Z</time>
      </trkpt>
      <trkpt lat="45.97252" lon="6.2419">
        <ele>1245</ele>
        <time>2016-08-27T07:00:44.000Z</time>
      </trkpt>
      <trkpt lat="45.97251" lon="6.24189">
        <ele>1245</ele>
        <time>2016-08-27T07:00:45.000Z</time>
      </trkpt>
      <trkpt lat="45.9725" lon="6.24188">
        <ele>1245</ele>
        <time>2016-08-27T07:00:46.000Z</time>
      </trkpt>
      <trkpt lat="45.97248" lon="6.24188">
        <ele>1245</ele>
        <time>2016-08-27T07:00:47.000Z</time>
      </trkpt>
      <trkpt lat="45.97247" lon="6.24187">
        <ele>1246</ele>
        <time>2016-08-27T07:00:48.000Z</time>
      </trkpt>
      <trkpt lat="45.97245" lon="6.24186">
        <ele>1246</ele>
        <time>2016-08-27T07:00:49.000Z</time>
      </trkpt>
      <trkpt lat="45.97244" lon="6.24185">
        <ele>1246</ele>
        <time>2016-08-27T07:00:50.000Z</time>
      </trkpt>
      <trkpt lat="45.97242" lon="6.24184">
        <ele>1246</ele>
        <time>2016-08-27T07:00:51.000Z</time>
      </trkpt>
      <trkpt lat="45.97241" lon="6.24183">
        <ele>1246</ele>
        <time>2016-08-27T07:00:52.000Z</time>
      </trkpt>
      <trkpt lat="45.9724" lon="6.24182">
        <ele>1246</ele>
        <time>2016-08-27T07:00:53.000Z</time>
      </trkpt>
      <trkpt lat="45.97238" lon="6.24181">
        <ele>1247</ele>
        <time>2016-08-27T07:00:54.000Z</time>
      </trkpt>
      <trkpt lat="45.97237" lon="6.2418">
        <ele>1247</ele>
        <time>2016-08-27T07:00:55.000Z</time>
      </trkpt>
      <trkpt lat="45.97235" lon="6.24179">
        <ele>1247</ele>
        <time>2016-08-27T07:00:56.000Z</time>
      </trkpt>
      <trkpt lat="45.97234" lon="6.24179">
        <ele>1247</ele>
        <time>2016-08-27T07:00:57.000Z</time>
      </trkpt>
      <trkpt lat="45.97233" lon="6.24178">
        <ele>1248</ele>
        <time>2016-08-27T07:00:58.000Z</time>
      </trkpt>
      <trkpt lat="45.97231" lon="6.24177">
        <ele>1248</ele>
        <time>2016-08-27T07:00:59.000Z</time>
      </trkpt>
      <trkpt lat="45.9723" lon="6.24177">
        <ele>1248</ele>
        <time>2016-08-27T07:01:00.000Z</time>
      </trkpt>
      <trkpt lat="45.9723" lon="6.24176">
        <ele>1248</ele>
        <time>2016-08-27T07:01:01.000Z</time>
      </trkpt>
      <trkpt lat="45.97228" lon="6.24175">
        <ele>1248</ele>
        <time>2016-08-27T07:01:02.000Z</time>
      </trkpt>
      <trkpt lat="45.97228" lon="6.24175">
        <ele>1248</ele>
        <time>2016-08-27T07:01:03.000Z</time>
      </trkpt>
      <trkpt lat="45.97227" lon="6.24174">
        <ele>1248</ele>
        <time>2016-08-27T07:01:04.000Z</time>
      </trkpt>
      <trkpt lat="45.97226" lon="6.24174">
        <ele>1248</ele>
        <time>2016-08-27T07:01:05.000Z</time>
      </trkpt>
      <trkpt lat="45.97226" lon="6.24174">
        <ele>1249</ele>
        <time>2016-08-27T07:01:06.000Z</time>
      </trkpt>
      <trkpt lat="45.97226" lon="6.24173">
        <ele>1249</ele>
        <time>2016-08-27T07:01:07.000Z</time>
      </trkpt>
      <trkpt lat="45.97225" lon="6.24173">
        <ele>1249</ele>
        <time>2016-08-27T07:01:08.000Z</time>
      </trkpt>
      <trkpt lat="45.97225" lon="6.24173">
        <ele>1249</ele>
        <time>2016-08-27T07:01:09.000Z</time>
      </trkpt>
      <trkpt lat="45.97225" lon="6.24173">
        <ele>1250</ele>
        <time>2016-08-27T07:01:10.000Z</time>
      </trkpt>
      <trkpt lat="45.97225" lon="6.24173">
        <ele>1250</ele>
        <time>2016-08-27T07:01:11.000Z</time>
      </trkpt>
      <trkpt lat="45.97224" lon="6.24173">
        <ele>1250</ele>
        <time>2016-08-27T07:01:12.000Z</time>
      </trkpt>
      <trkpt lat="45.97224" lon="6.24173">
        <ele>1250</ele>
        <time>2016-08-27T07:01:13.000Z</time>
      </trkpt>
      <trkpt lat="45.97224" lon="6.24173">
        <ele>1250</ele>
        <time>2016-08-27T07:01:14.000Z</time>
      </trkpt>
      <trkpt lat="45.97224" lon="6.24172">
        <ele>1250</ele>
        <time>2016-08-27T07:01:15.000Z</time>
      </trkpt>
      <trkpt lat="45.97224" lon="6.24172">
        <ele>1251</ele>
        <time>2016-08-27T07:01:16.000Z</time>
      </trkpt>
      <trkpt lat="45.97224" lon="6.24172">
        <ele>1251</ele>
        <time>2016-08-27T07:01:17.000Z</time>
      </trkpt>
      <trkpt lat="45.97224" lon="6.24172">
        <ele>1251</ele>
        <time>2016-08-27T07:01:18.000Z</time>
      </trkpt>
      <trkpt lat="45.97223" lon="6.24172">
        <ele>1251</ele>
        <time>2016-08-27T07:01:19.000Z</time>
      </trkpt>
      <trkpt lat="45.97223" lon="6.24172">
        <ele>1251</ele>
        <time>2016-08-27T07:01:20.000Z</time>
      </trkpt>
      <trkpt lat="45.97223" lon="6.24172">
        <ele>1251</ele>
        <time>2016-08-27T07:01:21.000Z</time>
      </trkpt>
      <trkpt lat="45.97223" lon="6.24172">
        <ele>1252</ele>
        <time>2016-08-27T07:01:22.000Z</time>
      </trkpt>
      <trkpt lat="45.97223" lon="6.24172">
        <ele>1252</ele>
        <time>2016-08-27T07:01:23.000Z</time>
      </trkpt>
      <trkpt lat="45.97222" lon="6.24172">
        <ele>1252</ele>
        <time>2016-08-27T07:01:24.000Z</time>
      </trkpt>
      <trkpt lat="45.97222" lon="6.24172">
        <ele>1252</ele>
        <time>2016-08-27T07:01:25.000Z</time>
      </trkpt>
      <trkpt lat="45.97222" lon="6.24172">
        <ele>1252</ele>
        <time>2016-08-27T07:01:26.000Z</time>
      </trkpt>
      <trkpt lat="45.97221" lon="6.24171">
        <ele>1252</ele>
        <time>2016-08-27T07:01:27.000Z</time>
      </trkpt>
      <trkpt lat="45.9722" lon="6.24171">
        <ele>1252</ele>
        <time>2016-08-27T07:01:28.000Z</time>
      </trkpt>
      <trkpt lat="45.9722" lon="6.24171">
        <ele>1252</ele>
        <time>2016-08-27T07:01:29.000Z</time>
      </trkpt>
      <trkpt lat="45.97219" lon="6.24171">
        <ele>1252</ele>
        <time>2016-08-27T07:01:30.000Z</time>
      </trkpt>
      <trkpt lat="45.97218" lon="6.24171">
        <ele>1252</ele>
        <time>2016-08-27T07:01:31.000Z</time>
      </trkpt>
      <trkpt lat="45.97217" lon="6.24171">
        <ele>1252</ele>
        <time>2016-08-27T07:01:32.000Z</time>
      </trkpt>
      <trkpt lat="45.97216" lon="6.2417">
        <ele>1252</ele>
        <time>2016-08-27T07:01:33.000Z</time>
      </trkpt>
      <trkpt lat="45.97215" lon="6.2417">
        <ele>1253</ele>
        <time>2016-08-27T07:01:34.000Z</time>
      </trkpt>
      <trkpt lat="45.97214" lon="6.24169">
        <ele>1253</ele>
        <time>2016-08-27T07:01:35.000Z</time>
      </trkpt>
      <trkpt lat="45.97213" lon="6.24169">
        <ele>1253</ele>
        <time>2016-08-27T07:01:36.000Z</time>
      </trkpt>
      <trkpt lat="45.97211" lon="6.24168">
        <ele>1253</ele>
        <time>2016-08-27T07:01:37.000Z</time>
      </trkpt>
      <trkpt lat="45.9721" lon="6.24167">
        <ele>1253</ele>
        <time>2016-08-27T07:01:38.000Z</time>
      </trkpt>
      <trkpt lat="45.97208" lon="6.24166">
        <ele>1253</ele>
        <time>2016-08-27T07:01:39.000Z</time>
      </trkpt>
      <trkpt lat="45.97206" lon="6.24165">
        <ele>1254</ele>
        <time>2016-08-27T07:01:40.000Z</time>
      </trkpt>
      <trkpt lat="45.97205" lon="6.24164">
        <ele>1254</ele>
        <time>2016-08-27T07:01:41.000Z</time>
      </trkpt>
      <trkpt lat="45.97203" lon="6.24164">
        <ele>1254</ele>
        <time>2016-08-27T07:01:42.000Z</time>
      </trkpt>
      <trkpt lat="45.97202" lon="6.24164">
        <ele>1254</ele>
        <time>2016-08-27T07:01:43.000Z</time>
      </trkpt>
      <trkpt lat="45.97201" lon="6.24163">
        <ele>1254</ele>
        <time>2016-08-27T07:01:44.000Z</time>
      </trkpt>
      <trkpt lat="45.97199" lon="6.24163">
        <ele>1254</ele>
        <time>2016-08-27T07:01:45.000Z</time>
      </trkpt>
      <trkpt lat="45.97198" lon="6.24162">
        <ele>1255</ele>
        <time>2016-08-27T07:01:46.000Z</time>
      </trkpt>
      <trkpt lat="45.97197" lon="6.24161">
        <ele>1255</ele>
        <time>2016-08-27T07:01:47.000Z</time>
      </trkpt>
      <trkpt lat="45.97195" lon="6.2416">
        <ele>1255</ele>
        <time>2016-08-27T07:01:48.000Z</time>
      </trkpt>
      <trkpt lat="45.97194" lon="6.24158">
        <ele>1255</ele>
        <time>2016-08-27T07:01:49.000Z</time>
      </trkpt>
      <trkpt lat="45.97193" lon="6.24157">
        <ele>1255</ele>
        <time>2016-08-27T07:01:50.000Z</time>
      </trkpt>
      <trkpt lat="45.97191" lon="6.24156">
        <ele>1255</ele>
        <time>2016-08-27T07:01:51.000Z</time>
      </trkpt>
      <trkpt lat="45.9719" lon="6.24156">
        <ele>1255</ele>
        <time>2016-08-27T07:01:52.000Z</time>
      </trkpt>
      <trkpt lat="45.97188" lon="6.24155">
        <ele>1255</ele>
        <time>2016-08-27T07:01:53.000Z</time>
      </trkpt>
      <trkpt lat="45.97187" lon="6.24155">
        <ele>1256</ele>
        <time>2016-08-27T07:01:54.000Z</time>
      </trkpt>
      <trkpt lat="45.97185" lon="6.24154">
        <ele>1256</ele>
        <time>2016-08-27T07:01:55.000Z</time>
      </trkpt>
      <trkpt lat="45.97184" lon="6.24153">
        <ele>1256</ele>
        <time>2016-08-27T07:01:56.000Z</time>
      </trkpt>
      <trkpt lat="45.97183" lon="6.24152">
        <ele>1256</ele>
        <time>2016-08-27T07:01:57.000Z</time>
      </trkpt>
      <trkpt lat="45.97182" lon="6.24151">
        <ele>1256</ele>
        <time>2016-08-27T07:01:58.000Z</time>
      </trkpt>
      <trkpt lat="45.9718" lon="6.2415">
        <ele>1256</ele>
        <time>2016-08-27T07:01:59.000Z</time>
      </trkpt>
      <trkpt lat="45.97179" lon="6.2415">
        <ele>1257</ele>
        <time>2016-08-27T07:02:00.000Z</time>
      </trkpt>
      <trkpt lat="45.97177" lon="6.24149">
        <ele>1257</ele>
        <time>2016-08-27T07:02:01.000Z</time>
      </trkpt>
      <trkpt lat="45.97175" lon="6.24148">
        <ele>1257</ele>
        <time>2016-08-27T07:02:02.000Z</time>
      </trkpt>
      <trkpt lat="45.97174" lon="6.24148">
        <ele>1257</ele>
        <time>2016-08-27T07:02:03.000Z</time>
      </trkpt>
      <trkpt lat="45.97173" lon="6.24148">
        <ele>1257</ele>
        <time>2016-08-27T07:02:04.000Z</time>
      </trkpt>
      <trkpt lat="45.97171" lon="6.24147">
        <ele>1257</ele>
        <time>2016-08-27T07:02:05.000Z</time>
      </trkpt>
      <trkpt lat="45.9717" lon="6.24146">
        <ele>1258</ele>
        <time>2016-08-27T07:02:06.000Z</time>
      </trkpt>
      <trkpt lat="45.97168" lon="6.24144">
        <ele>1258</ele>
        <time>2016-08-27T07:02:07.000Z</time>
      </trkpt>
      <trkpt lat="45.97167" lon="6.24142">
        <ele>1258</ele>
        <time>2016-08-27T07:02:08.000Z</time>
      </trkpt>
      <trkpt lat="45.97166" lon="6.24141">
        <ele>1258</ele>
        <time>2016-08-27T07:02:09.000Z</time>
      </trkpt>
      <trkpt lat="45.97165" lon="6.2414">
        <ele>1258</ele>
        <time>2016-08-27T07:02:10.000Z</time>
      </trkpt>
      <trkpt lat="45.97164" lon="6.24139">
        <ele>1258</ele>
        <time>2016-08-27T07:02:11.000Z</time>
      </trkpt>
      <trkpt lat="45.97163" lon="6.24138">
        <ele>1258</ele>
        <time>2016-08-27T07:02:12.000Z</time>
      </trkpt>
      <trkpt lat="45.97162" lon="6.24137">
        <ele>1258</ele>
        <time>2016-08-27T07:02:13.000Z</time>
      </trkpt>
      <trkpt lat="45.9716" lon="6.24137">
        <ele>1259</ele>
        <time>2016-08-27T07:02:14.000Z</time>
      </trkpt>
      <trkpt lat="45.97159" lon="6.24136">
        <ele>1259</ele>
        <time>2016-08-27T07:02:15.000Z</time>
      </trkpt>
      <trkpt lat="45.97158" lon="6.24135">
        <ele>1259</ele>
        <time>2016-08-27T07:02:16.000Z</time>
      </trkpt>
      <trkpt lat="45.97157" lon="6.24134">
        <ele>1259</ele>
        <time>2016-08-27T07:02:17.000Z</time>
      </trkpt>
      <trkpt lat="45.97156" lon="6.24133">
        <ele>1259</ele>
        <time>2016-08-27T07:02:18.000Z</time>
      </trkpt>
      <trkpt lat="45.97155" lon="6.24133">
        <ele>1259</ele>
        <time>2016-08-27T07:02:19.000Z</time>
      </trkpt>
      <trkpt lat="45.97154" lon="6.24132">
        <ele>1260</ele>
        <time>2016-08-27T07:02:20.000Z</time>
      </trkpt>
      <trkpt lat="45.97152" lon="6.24132">
        <ele>1260</ele>
        <time>2016-08-27T07:02:21.000Z</time>
      </trkpt>
      <trkpt lat="45.9715" lon="6.24131">
        <ele>1260</ele>
        <time>2016-08-27T07:02:22.000Z</time>
      </trkpt>
      <trkpt lat="45.97149" lon="6.24131">
        <ele>1260</ele>
        <time>2016-08-27T07:02:23.000Z</time>
      </trkpt>
      <trkpt lat="45.97148" lon="6.24131">
        <ele>1260</ele>
        <time>2016-08-27T07:02:24.000Z</time>
      </trkpt>
      <trkpt lat="45.97147" lon="6.2413">
        <ele>1260</ele>
        <time>2016-08-27T07:02:25.000Z</time>
      </trkpt>
      <trkpt lat="45.97145" lon="6.24129">
        <ele>1261</ele>
        <time>2016-08-27T07:02:26.000Z</time>
      </trkpt>
      <trkpt lat="45.97144" lon="6.24128">
        <ele>1261</ele>
        <time>2016-08-27T07:02:27.000Z</time>
      </trkpt>
      <trkpt lat="45.97143" lon="6.24127">
        <ele>1261</ele>
        <time>2016-08-27T07:02:28.000Z</time>
      </trkpt>
      <trkpt lat="45.97141" lon="6.24126">
        <ele>1261</ele>
        <time>2016-08-27T07:02:29.000Z</time>
      </trkpt>
      <trkpt lat="45.9714" lon="6.24125">
        <ele>1262</ele>
        <time>2016-08-27T07:02:30.000Z</time>
      </trkpt>
      <trkpt lat="45.97139" lon="6.24124">
        <ele>1262</ele>
        <time>2016-08-27T07:02:31.000Z</time>
      </trkpt>
      <trkpt lat="45.97138" lon="6.24124">
        <ele>1262</ele>
        <time>2016-08-27T07:02:32.000Z</time>
      </trkpt>
      <trkpt lat="45.97136" lon="6.24123">
        <ele>1262</ele>
        <time>2016-08-27T07:02:33.000Z</time>
      </trkpt>
      <trkpt lat="45.97135" lon="6.24123">
        <ele>1263</ele>
        <time>2016-08-27T07:02:34.000Z</time>
      </trkpt>
      <trkpt lat="45.97134" lon="6.24122">
        <ele>1263</ele>
        <time>2016-08-27T07:02:35.000Z</time>
      </trkpt>
      <trkpt lat="45.97133" lon="6.24121">
        <ele>1263</ele>
        <time>2016-08-27T07:02:36.000Z</time>
      </trkpt>
      <trkpt lat="45.97132" lon="6.24121">
        <ele>1263</ele>
        <time>2016-08-27T07:02:37.000Z</time>
      </trkpt>
      <trkpt lat="45.97131" lon="6.2412">
        <ele>1264</ele>
        <time>2016-08-27T07:02:38.000Z</time>
      </trkpt>
      <trkpt lat="45.97129" lon="6.24119">
        <ele>1264</ele>
        <time>2016-08-27T07:02:39.000Z</time>
      </trkpt>
      <trkpt lat="45.97128" lon="6.24118">
        <ele>1264</ele>
        <time>2016-08-27T07:02:40.000Z</time>
      </trkpt>
      <trkpt lat="45.97126" lon="6.24117">
        <ele>1264</ele>
        <time>2016-08-27T07:02:41.000Z</time>
      </trkpt>
      <trkpt lat="45.97125" lon="6.24116">
        <ele>1265</ele>
        <time>2016-08-27T07:02:42.000Z</time>
      </trkpt>
      <trkpt lat="45.97123" lon="6.24116">
        <ele>1265</ele>
        <time>2016-08-27T07:02:43.000Z</time>
      </trkpt>
      <trkpt lat="45.97122" lon="6.24115">
        <ele>1265</ele>
        <time>2016-08-27T07:02:44.000Z</time>
      </trkpt>
      <trkpt lat="45.9712" lon="6.24114">
        <ele>1265</ele>
        <time>2016-08-27T07:02:45.000Z</time>
      </trkpt>
      <trkpt lat="45.97119" lon="6.24113">
        <ele>1265</ele>
        <time>2016-08-27T07:02:46.000Z</time>
      </trkpt>
      <trkpt lat="45.97117" lon="6.24113">
        <ele>1265</ele>
        <time>2016-08-27T07:02:47.000Z</time>
      </trkpt>
      <trkpt lat="45.97116" lon="6.24112">
        <ele>1266</ele>
        <time>2016-08-27T07:02:48.000Z</time>
      </trkpt>
      <trkpt lat="45.97114" lon="6.24111">
        <ele>1266</ele>
        <time>2016-08-27T07:02:49.000Z</time>
      </trkpt>
      <trkpt lat="45.97112" lon="6.2411">
        <ele>1266</ele>
        <time>2016-08-27T07:02:50.000Z</time>
      </trkpt>
      <trkpt lat="45.9711" lon="6.2411">
        <ele>1266</ele>
        <time>2016-08-27T07:02:51.000Z</time>
      </trkpt>
      <trkpt lat="45.97109" lon="6.24109">
        <ele>1267</ele>
        <time>2016-08-27T07:02:52.000Z</time>
      </trkpt>
      <trkpt lat="45.97107" lon="6.24109">
        <ele>1267</ele>
        <time>2016-08-27T07:02:53.000Z</time>
      </trkpt>
      <trkpt lat="45.97105" lon="6.24108">
        <ele>1267</ele>
        <time>2016-08-27T07:02:54.000Z</time>
      </trkpt>
      <trkpt lat="45.97103" lon="6.24107">
        <ele>1267</ele>
        <time>2016-08-27T07:02:55.000Z</time>
      </trkpt>
      <trkpt lat="45.97102" lon="6.24107">
        <ele>1268</ele>
        <time>2016-08-27T07:02:56.000Z</time>
      </trkpt>
      <trkpt lat="45.97101" lon="6.24107">
        <ele>1268</ele>
        <time>2016-08-27T07:02:57.000Z</time>
      </trkpt>
      <trkpt lat="45.971" lon="6.24106">
        <ele>1268</ele>
        <time>2016-08-27T07:02:58.000Z</time>
      </trkpt>
      <trkpt lat="45.97099" lon="6.24106">
        <ele>1268</ele>
        <time>2016-08-27T07:02:59.000Z</time>
      </trkpt>
      <trkpt lat="45.97098" lon="6.24106">
        <ele>1268</ele>
        <time>2016-08-27T07:03:00.000Z</time>
      </trkpt>
      <trkpt lat="45.97096" lon="6.24105">
        <ele>1268</ele>
        <time>2016-08-27T07:03:01.000Z</time>
      </trkpt>
      <trkpt lat="45.97095" lon="6.24105">
        <ele>1269</ele>
        <time>2016-08-27T07:03:02.000Z</time>
      </trkpt>
      <trkpt lat="45.97094" lon="6.24105">
        <ele>1269</ele>
        <time>2016-08-27T07:03:03.000Z</time>
      </trkpt>
      <trkpt lat="45.97093" lon="6.24104">
        <ele>1269</ele>
        <time>2016-08-27T07:03:04.000Z</time>
      </trkpt>
      <trkpt lat="45.97092" lon="6.24104">
        <ele>1269</ele>
        <time>2016-08-27T07:03:05.000Z</time>
      </trkpt>
      <trkpt lat="45.97091" lon="6.24104">
        <ele>1269</ele>
        <time>2016-08-27T07:03:06.000Z</time>
      </trkpt>
      <trkpt lat="45.9709" lon="6.24104">
        <ele>1269</ele>
        <time>2016-08-27T07:03:07.000Z</time>
      </trkpt>
      <trkpt lat="45.97088" lon="6.24104">
        <ele>1270</ele>
        <time>2016-08-27T07:03:08.000Z</time>
      </trkpt>
      <trkpt lat="45.97087" lon="6.24104">
        <ele>1270</ele>
        <time>2016-08-27T07:03:09.000Z</time>
      </trkpt>
      <trkpt lat="45.97086" lon="6.24104">
        <ele>1270</ele>
        <time>2016-08-27T07:03:10.000Z</time>
      </trkpt>
      <trkpt lat="45.97085" lon="6.24104">
        <ele>1270</ele>
        <time>2016-08-27T07:03:11.000Z</time>
      </trkpt>
      <trkpt lat="45.97084" lon="6.24104">
        <ele>1270</ele>
        <time>2016-08-27T07:03:12.000Z</time>
      </trkpt>
      <trkpt lat="45.97083" lon="6.24104">
        <ele>1270</ele>
        <time>2016-08-27T07:03:13.000Z</time>
      </trkpt>
      <trkpt lat="45.97082" lon="6.24103">
        <ele>1270</ele>
        <time>2016-08-27T07:03:14.000Z</time>
      </trkpt>
      <trkpt lat="45.97081" lon="6.24103">
        <ele>1270</ele>
        <time>2016-08-27T07:03:15.000Z</time>
      </trkpt>
      <trkpt lat="45.9708" lon="6.24103">
        <ele>1271</ele>
        <time>2016-08-27T07:03:16.000Z</time>
      </trkpt>
      <trkpt lat="45.97079" lon="6.24103">
        <ele>1271</ele>
        <time>2016-08-27T07:03:17.000Z</time>
      </trkpt>
      <trkpt lat="45.97078" lon="6.24104">
        <ele>1271</ele>
        <time>2016-08-27T07:03:18.000Z</time>
      </trkpt>
      <trkpt lat="45.97077" lon="6.24104">
        <ele>1271</ele>
        <time>2016-08-27T07:03:19.000Z</time>
      </trkpt>
      <trkpt lat="45.97076" lon="6.24104">
        <ele>1271</ele>
        <time>2016-08-27T07:03:20.000Z</time>
      </trkpt>
      <trkpt lat="45.97076" lon="6.24104">
        <ele>1271</ele>
        <time>2016-08-27T07:03:21.000Z</time>
      </trkpt>
      <trkpt lat="45.97075" lon="6.24104">
        <ele>1272</ele>
        <time>2016-08-27T07:03:22.000Z</time>
      </trkpt>
      <trkpt lat="45.97074" lon="6.24103">
        <ele>1272</ele>
        <time>2016-08-27T07:03:23.000Z</time>
      </trkpt>
      <trkpt lat="45.97073" lon="6.24103">
        <ele>1272</ele>
        <time>2016-08-27T07:03:24.000Z</time>
      </trkpt>
      <trkpt lat="45.97072" lon="6.24103">
        <ele>1272</ele>
        <time>2016-08-27T07:03:25.000Z</time>
      </trkpt>
      <trkpt lat="45.97071" lon="6.24103">
        <ele>1273</ele>
        <time>2016-08-27T07:03:26.000Z</time>
      </trkpt>
      <trkpt lat="45.9707" lon="6.24103">
        <ele>1273</ele>
        <time>2016-08-27T07:03:27.000Z</time>
      </trkpt>
      <trkpt lat="45.97069" lon="6.24102">
        <ele>1273</ele>
        <time>2016-08-27T07:03:28.000Z</time>
      </trkpt>
      <trkpt lat="45.97069" lon="6.24102">
        <ele>1273</ele>
        <time>2016-08-27T07:03:29.000Z</time>
      </trkpt>
      <trkpt lat="45.97068" lon="6.24102">
        <ele>1273</ele>
        <time>2016-08-27T07:03:30.000Z</time>
      </trkpt>
      <trkpt lat="45.97067" lon="6.24102">
        <ele>1273</ele>
        <time>2016-08-27T07:03:31.000Z</time>
      </trkpt>
      <trkpt lat="45.97066" lon="6.24102">
        <ele>1274</ele>
        <time>2016-08-27T07:03:32.000Z</time>
      </trkpt>
      <trkpt lat="45.97064" lon="6.24102">
        <ele>1274</ele>
        <time>2016-08-27T07:03:33.000Z</time>
      </trkpt>
      <trkpt lat="45.97063" lon="6.24102">
        <ele>1275</ele>
        <time>2016-08-27T07:03:34.000Z</time>
      </trkpt>
      <trkpt lat="45.97061" lon="6.24102">
        <ele>1275</ele>
        <time>2016-08-27T07:03:35.000Z</time>
      </trkpt>
      <trkpt lat="45.9706" lon="6.24102">
        <ele>1275</ele>
        <time>2016-08-27T07:03:36.000Z</time>
      </trkpt>
      <trkpt lat="45.97058" lon="6.24102">
        <ele>1275</ele>
        <time>2016-08-27T07:03:37.000Z</time>
      </trkpt>
      <trkpt lat="45.97057" lon="6.24103">
        <ele>1276</ele>
        <time>2016-08-27T07:03:38.000Z</time>
      </trkpt>
      <trkpt lat="45.97055" lon="6.24103">
        <ele>1276</ele>
        <time>2016-08-27T07:03:39.000Z</time>
      </trkpt>
      <trkpt lat="45.97053" lon="6.24103">
        <ele>1276</ele>
        <time>2016-08-27T07:03:40.000Z</time>
      </trkpt>
      <trkpt lat="45.97051" lon="6.24104">
        <ele>1276</ele>
        <time>2016-08-27T07:03:41.000Z</time>
      </trkpt>
      <trkpt lat="45.97049" lon="6.24104">
        <ele>1277</ele>
        <time>2016-08-27T07:03:42.000Z</time>
      </trkpt>
      <trkpt lat="45.97047" lon="6.24105">
        <ele>1277</ele>
        <time>2016-08-27T07:03:43.000Z</time>
      </trkpt>
      <trkpt lat="45.97045" lon="6.24106">
        <ele>1278</ele>
        <time>2016-08-27T07:03:44.000Z</time>
      </trkpt>
      <trkpt lat="45.97044" lon="6.24106">
        <ele>1278</ele>
        <time>2016-08-27T07:03:45.000Z</time>
      </trkpt>
      <trkpt lat="45.97042" lon="6.24106">
        <ele>1278</ele>
        <time>2016-08-27T07:03:46.000Z</time>
      </trkpt>
      <trkpt lat="45.9704" lon="6.24106">
        <ele>1278</ele>
        <time>2016-08-27T07:03:47.000Z</time>
      </trkpt>
      <trkpt lat="45.97039" lon="6.24106">
        <ele>1278</ele>
        <time>2016-08-27T07:03:48.000Z</time>
      </trkpt>
      <trkpt lat="45.97037" lon="6.24105">
        <ele>1278</ele>
        <time>2016-08-27T07:03:49.000Z</time>
      </trkpt>
      <trkpt lat="45.97036" lon="6.24104">
        <ele>1279</ele>
        <time>2016-08-27T07:03:50.000Z</time>
      </trkpt>
      <trkpt lat="45.97034" lon="6.24103">
        <ele>1279</ele>
        <time>2016-08-27T07:03:51.000Z</time>
      </trkpt>
      <trkpt lat="45.97033" lon="6.24102">
        <ele>1279</ele>
        <time>2016-08-27T07:03:52.000Z</time>
      </trkpt>
      <trkpt lat="45.97031" lon="6.24101">
        <ele>1279</ele>
        <time>2016-08-27T07:03:53.000Z</time>
      </trkpt>
      <trkpt lat="45.97029" lon="6.241">
        <ele>1279</ele>
        <time>2016-08-27T07:03:54.000Z</time>
      </trkpt>
      <trkpt lat="45.97027" lon="6.24099">
        <ele>1279</ele>
        <time>2016-08-27T07:03:55.000Z</time>
      </trkpt>
      <trkpt lat="45.97026" lon="6.24099">
        <ele>1279</ele>
        <time>2016-08-27T07:03:56.000Z</time>
      </trkpt>
      <trkpt lat="45.97024" lon="6.24099">
        <ele>1279</ele>
        <time>2016-08-27T07:03:57.000Z</time>
      </trkpt>
      <trkpt lat="45.97023" lon="6.24098">
        <ele>1280</ele>
        <time>2016-08-27T07:03:58.000Z</time>
      </trkpt>
      <trkpt lat="45.97021" lon="6.24097">
        <ele>1280</ele>
        <time>2016-08-27T07:03:59.000Z</time>
      </trkpt>
      <trkpt lat="45.9702" lon="6.24095">
        <ele>1280</ele>
        <time>2016-08-27T07:04:00.000Z</time>
      </trkpt>
      <trkpt lat="45.9702" lon="6.24094">
        <ele>1280</ele>
        <time>2016-08-27T07:04:01.000Z</time>
      </trkpt>
      <trkpt lat="45.97019" lon="6.24092">
        <ele>1280</ele>
        <time>2016-08-27T07:04:02.000Z</time>
      </trkpt>
      <trkpt lat="45.97018" lon="6.2409">
        <ele>1280</ele>
        <time>2016-08-27T07:04:03.000Z</time>
      </trkpt>
      <trkpt lat="45.97018" lon="6.24089">
        <ele>1280</ele>
        <time>2016-08-27T07:04:04.000Z</time>
      </trkpt>
      <trkpt lat="45.97017" lon="6.24088">
        <ele>1280</ele>
        <time>2016-08-27T07:04:05.000Z</time>
      </trkpt>
      <trkpt lat="45.97016" lon="6.24087">
        <ele>1281</ele>
        <time>2016-08-27T07:04:06.000Z</time>
      </trkpt>
      <trkpt lat="45.97016" lon="6.24086">
        <ele>1281</ele>
        <time>2016-08-27T07:04:07.000Z</time>
      </trkpt>
      <trkpt lat="45.97015" lon="6.24085">
        <ele>1281</ele>
        <time>2016-08-27T07:04:08.000Z</time>
      </trkpt>
      <trkpt lat="45.97014" lon="6.24085">
        <ele>1281</ele>
        <time>2016-08-27T07:04:09.000Z</time>
      </trkpt>
      <trkpt lat="45.97014" lon="6.24084">
        <ele>1281</ele>
        <time>2016-08-27T07:04:10.000Z</time>
      </trkpt>
      <trkpt lat="45.97013" lon="6.24084">
        <ele>1281</ele>
        <time>2016-08-27T07:04:11.000Z</time>
      </trkpt>
      <trkpt lat="45.97013" lon="6.24084">
        <ele>1282</ele>
        <time>2016-08-27T07:04:12.000Z</time>
      </trkpt>
      <trkpt lat="45.97012" lon="6.24083">
        <ele>1282</ele>
        <time>2016-08-27T07:04:13.000Z</time>
      </trkpt>
      <trkpt lat="45.97011" lon="6.24082">
        <ele>1282</ele>
        <time>2016-08-27T07:04:14.000Z</time>
      </trkpt>
      <trkpt lat="45.9701" lon="6.24082">
        <ele>1282</ele>
        <time>2016-08-27T07:04:15.000Z</time>
      </trkpt>
      <trkpt lat="45.97009" lon="6.24081">
        <ele>1283</ele>
        <time>2016-08-27T07:04:16.000Z</time>
      </trkpt>
      <trkpt lat="45.97008" lon="6.24081">
        <ele>1283</ele>
        <time>2016-08-27T07:04:17.000Z</time>
      </trkpt>
      <trkpt lat="45.97007" lon="6.2408">
        <ele>1283</ele>
        <time>2016-08-27T07:04:18.000Z</time>
      </trkpt>
      <trkpt lat="45.97006" lon="6.2408">
        <ele>1283</ele>
        <time>2016-08-27T07:04:19.000Z</time>
      </trkpt>
      <trkpt lat="45.97005" lon="6.24079">
        <ele>1283</ele>
        <time>2016-08-27T07:04:20.000Z</time>
      </trkpt>
      <trkpt lat="45.97004" lon="6.24078">
        <ele>1283</ele>
        <time>2016-08-27T07:04:21.000Z</time>
      </trkpt>
      <trkpt lat="45.97003" lon="6.24077">
        <ele>1284</ele>
        <time>2016-08-27T07:04:22.000Z</time>
      </trkpt>
      <trkpt lat="45.97002" lon="6.24077">
        <ele>1284</ele>
        <time>2016-08-27T07:04:23.000Z</time>
      </trkpt>
      <trkpt lat="45.97001" lon="6.24076">
        <ele>1284</ele>
        <time>2016-08-27T07:04:24.000Z</time>
      </trkpt>
      <trkpt lat="45.97" lon="6.24075">
        <ele>1284</ele>
        <time>2016-08-27T07:04:25.000Z</time>
      </trkpt>
      <trkpt lat="45.96999" lon="6.24074">
        <ele>1284</ele>
        <time>2016-08-27T07:04:26.000Z</time>
      </trkpt>
      <trkpt lat="45.96998" lon="6.24073">
        <ele>1284</ele>
        <time>2016-08-27T07:04:27.000Z</time>
      </trkpt>
      <trkpt lat="45.96997" lon="6.24072">
        <ele>1285</ele>
        <time>2016-08-27T07:04:28.000Z</time>
      </trkpt>
      <trkpt lat="45.96996" lon="6.24072">
        <ele>1285</ele>
        <time>2016-08-27T07:04:29.000Z</time>
      </trkpt>
      <trkpt lat="45.96995" lon="6.24071">
        <ele>1285</ele>
        <time>2016-08-27T07:04:30.000Z</time>
      </trkpt>
      <trkpt lat="45.96994" lon="6.2407">
        <ele>1285</ele>
        <time>2016-08-27T07:04:31.000Z</time>
      </trkpt>
      <trkpt lat="45.96993" lon="6.2407">
        <ele>1286</ele>
        <time>2016-08-27T07:04:32.000Z</time>
      </trkpt>
      <trkpt lat="45.96992" lon="6.24069">
        <ele>1286</ele>
        <time>2016-08-27T07:04:33.000Z</time>
      </trkpt>
      <trkpt lat="45.96991" lon="6.24068">
        <ele>1287</ele>
        <time>2016-08-27T07:04:34.000Z</time>
      </trkpt>
      <trkpt lat="45.96991" lon="6.24068">
        <ele>1287</ele>
        <time>2016-08-27T07:04:35.000Z</time>
      </trkpt>
      <trkpt lat="45.9699" lon="6.24067">
        <ele>1288</ele>
        <time>2016-08-27T07:04:36.000Z</time>
      </trkpt>
      <trkpt lat="45.96989" lon="6.24066">
        <ele>1288</ele>
        <time>2016-08-27T07:04:37.000Z</time>
      </trkpt>
      <trkpt lat="45.96988" lon="6.24065">
        <ele>1288</ele>
        <time>2016-08-27T07:04:38.000Z</time>
      </trkpt>
      <trkpt lat="45.96988" lon="6.24064">
        <ele>1288</ele>
        <time>2016-08-27T07:04:39.000Z</time>
      </trkpt>
      <trkpt lat="45.96987" lon="6.24064">
        <ele>1289</ele>
        <time>2016-08-27T07:04:40.000Z</time>
      </trkpt>
      <trkpt lat="45.96986" lon="6.24063">
        <ele>1289</ele>
        <time>2016-08-27T07:04:41.000Z</time>
      </trkpt>
      <trkpt lat="45.96986" lon="6.24062">
        <ele>1289</ele>
        <time>2016-08-27T07:04:42.000Z</time>
      </trkpt>
      <trkpt lat="45.96985" lon="6.24062">
        <ele>1289</ele>
        <time>2016-08-27T07:04:43.000Z</time>
      </trkpt>
      <trkpt lat="45.96984" lon="6.24061">
        <ele>1290</ele>
        <time>2016-08-27T07:04:44.000Z</time>
      </trkpt>
      <trkpt lat="45.96984" lon="6.2406">
        <ele>1290</ele>
        <time>2016-08-27T07:04:45.000Z</time>
      </trkpt>
      <trkpt lat="45.96983" lon="6.24059">
        <ele>1290</ele>
        <time>2016-08-27T07:04:46.000Z</time>
      </trkpt>
      <trkpt lat="45.96982" lon="6.24059">
        <ele>1290</ele>
        <time>2016-08-27T07:04:47.000Z</time>
      </trkpt>
      <trkpt lat="45.96981" lon="6.24058">
        <ele>1291</ele>
        <time>2016-08-27T07:04:48.000Z</time>
      </trkpt>
      <trkpt lat="45.9698" lon="6.24058">
        <ele>1291</ele>
        <time>2016-08-27T07:04:49.000Z</time>
      </trkpt>
      <trkpt lat="45.9698" lon="6.24058">
        <ele>1291</ele>
        <time>2016-08-27T07:04:50.000Z</time>
      </trkpt>
      <trkpt lat="45.96979" lon="6.24057">
        <ele>1291</ele>
        <time>2016-08-27T07:04:51.000Z</time>
      </trkpt>
      <trkpt lat="45.96978" lon="6.24057">
        <ele>1292</ele>
        <time>2016-08-27T07:04:52.000Z</time>
      </trkpt>
      <trkpt lat="45.96977" lon="6.24056">
        <ele>1292</ele>
        <time>2016-08-27T07:04:53.000Z</time>
      </trkpt>
      <trkpt lat="45.96976" lon="6.24056">
        <ele>1292</ele>
        <time>2016-08-27T07:04:54.000Z</time>
      </trkpt>
      <trkpt lat="45.96975" lon="6.24055">
        <ele>1292</ele>
        <time>2016-08-27T07:04:55.000Z</time>
      </trkpt>
      <trkpt lat="45.96974" lon="6.24055">
        <ele>1293</ele>
        <time>2016-08-27T07:04:56.000Z</time>
      </trkpt>
      <trkpt lat="45.96973" lon="6.24055">
        <ele>1293</ele>
        <time>2016-08-27T07:04:57.000Z</time>
      </trkpt>
      <trkpt lat="45.96972" lon="6.24055">
        <ele>1293</ele>
        <time>2016-08-27T07:04:58.000Z</time>
      </trkpt>
      <trkpt lat="45.9697" lon="6.24055">
        <ele>1293</ele>
        <time>2016-08-27T07:04:59.000Z</time>
      </trkpt>
      <trkpt lat="45.96969" lon="6.24055">
        <ele>1293</ele>
        <time>2016-08-27T07:05:00.000Z</time>
      </trkpt>
      <trkpt lat="45.96969" lon="6.24055">
        <ele>1293</ele>
        <time>2016-08-27T07:05:01.000Z</time>
      </trkpt>
      <trkpt lat="45.96968" lon="6.24055">
        <ele>1294</ele>
        <time>2016-08-27T07:05:02.000Z</time>
      </trkpt>
      <trkpt lat="45.96966" lon="6.24055">
        <ele>1294</ele>
        <time>2016-08-27T07:05:03.000Z</time>
      </trkpt>
      <trkpt lat="45.96965" lon="6.24055">
        <ele>1294</ele>
        <time>2016-08-27T07:05:04.000Z</time>
      </trkpt>
      <trkpt lat="45.96964" lon="6.24054">
        <ele>1294</ele>
        <time>2016-08-27T07:05:05.000Z</time>
      </trkpt>
      <trkpt lat="45.96964" lon="6.24054">
        <ele>1294</ele>
        <time>2016-08-27T07:05:06.000Z</time>
      </trkpt>
      <trkpt lat="45.96963" lon="6.24053">
        <ele>1294</ele>
        <time>2016-08-27T07:05:07.000Z</time>
      </trkpt>
      <trkpt lat="45.96962" lon="6.24052">
        <ele>1295</ele>
        <time>2016-08-27T07:05:08.000Z</time>
      </trkpt>
      <trkpt lat="45.96961" lon="6.24052">
        <ele>1295</ele>
        <time>2016-08-27T07:05:09.000Z</time>
      </trkpt>
      <trkpt lat="45.9696" lon="6.24051">
        <ele>1295</ele>
        <time>2016-08-27T07:05:10.000Z</time>
      </trkpt>
      <trkpt lat="45.96959" lon="6.24051">
        <ele>1295</ele>
        <time>2016-08-27T07:05:11.000Z</time>
      </trkpt>
      <trkpt lat="45.96958" lon="6.2405">
        <ele>1295</ele>
        <time>2016-08-27T07:05:12.000Z</time>
      </trkpt>
      <trkpt lat="45.96957" lon="6.2405">
        <ele>1295</ele>
        <time>2016-08-27T07:05:13.000Z</time>
      </trkpt>
      <trkpt lat="45.96957" lon="6.24049">
        <ele>1296</ele>
        <time>2016-08-27T07:05:14.000Z</time>
      </trkpt>
      <trkpt lat="45.96956" lon="6.24049">
        <ele>1296</ele>
        <time>2016-08-27T07:05:15.000Z</time>
      </trkpt>
      <trkpt lat="45.96955" lon="6.24048">
        <ele>1296</ele>
        <time>2016-08-27T07:05:16.000Z</time>
      </trkpt>
      <trkpt lat="45.96954" lon="6.24047">
        <ele>1296</ele>
        <time>2016-08-27T07:05:17.000Z</time>
      </trkpt>
      <trkpt lat="45.96954" lon="6.24046">
        <ele>1296</ele>
        <time>2016-08-27T07:05:18.000Z</time>
      </trkpt>
      <trkpt lat="45.96953" lon="6.24046">
        <ele>1296</ele>
        <time>2016-08-27T07:05:19.000Z</time>
      </trkpt>
      <trkpt lat="45.96953" lon="6.24045">
        <ele>1297</ele>
        <time>2016-08-27T07:05:20.000Z</time>
      </trkpt>
      <trkpt lat="45.96952" lon="6.24044">
        <ele>1297</ele>
        <time>2016-08-27T07:05:21.000Z</time>
      </trkpt>
      <trkpt lat="45.96951" lon="6.24043">
        <ele>1297</ele>
        <time>2016-08-27T07:05:22.000Z</time>
      </trkpt>
      <trkpt lat="45.9695" lon="6.24043">
        <ele>1297</ele>
        <time>2016-08-27T07:05:23.000Z</time>
      </trkpt>
      <trkpt lat="45.96949" lon="6.24042">
        <ele>1298</ele>
        <time>2016-08-27T07:05:24.000Z</time>
      </trkpt>
      <trkpt lat="45.96948" lon="6.24042">
        <ele>1298</ele>
        <time>2016-08-27T07:05:25.000Z</time>
      </trkpt>
      <trkpt lat="45.96948" lon="6.24041">
        <ele>1298</ele>
        <time>2016-08-27T07:05:26.000Z</time>
      </trkpt>
      <trkpt lat="45.96947" lon="6.2404">
        <ele>1298</ele>
        <time>2016-08-27T07:05:27.000Z</time>
      </trkpt>
      <trkpt lat="45.96946" lon="6.2404">
        <ele>1298</ele>
        <time>2016-08-27T07:05:28.000Z</time>
      </trkpt>
      <trkpt lat="45.96945" lon="6.24039">
        <ele>1298</ele>
        <time>2016-08-27T07:05:29.000Z</time>
      </trkpt>
      <trkpt lat="45.96944" lon="6.24038">
        <ele>1298</ele>
        <time>2016-08-27T07:05:30.000Z</time>
      </trkpt>
      <trkpt lat="45.96943" lon="6.24038">
        <ele>1298</ele>
        <time>2016-08-27T07:05:31.000Z</time>
      </trkpt>
      <trkpt lat="45.96942" lon="6.24037">
        <ele>1298</ele>
        <time>2016-08-27T07:05:32.000Z</time>
      </trkpt>
      <trkpt lat="45.96941" lon="6.24037">
        <ele>1298</ele>
        <time>2016-08-27T07:05:33.000Z</time>
      </trkpt>
      <trkpt lat="45.96941" lon="6.24036">
        <ele>1299</ele>
        <time>2016-08-27T07:05:34.000Z</time>
      </trkpt>
      <trkpt lat="45.96941" lon="6.24036">
        <ele>1299</ele>
        <time>2016-08-27T07:05:35.000Z</time>
      </trkpt>
      <trkpt lat="45.96941" lon="6.24036">
        <ele>1299</ele>
        <time>2016-08-27T07:05:36.000Z</time>
      </trkpt>
      <trkpt lat="45.9694" lon="6.24036">
        <ele>1299</ele>
        <time>2016-08-27T07:05:37.000Z</time>
      </trkpt>
      <trkpt lat="45.9694" lon="6.24036">
        <ele>1299</ele>
        <time>2016-08-27T07:05:38.000Z</time>
      </trkpt>
      <trkpt lat="45.9694" lon="6.24036">
        <ele>1299</ele>
        <time>2016-08-27T07:05:39.000Z</time>
      </trkpt>
      <trkpt lat="45.9694" lon="6.24036">
        <ele>1299</ele>
        <time>2016-08-27T07:05:40.000Z</time>
      </trkpt>
      <trkpt lat="45.9694" lon="6.24036">
        <ele>1299</ele>
        <time>2016-08-27T07:05:41.000Z</time>
      </trkpt>
      <trkpt lat="45.9694" lon="6.24036">
        <ele>1299</ele>
        <time>2016-08-27T07:05:42.000Z</time>
      </trkpt>
      <trkpt lat="45.96939" lon="6.24035">
        <ele>1299</ele>
        <time>2016-08-27T07:05:43.000Z</time>
      </trkpt>
      <trkpt lat="45.96939" lon="6.24035">
        <ele>1300</ele>
        <time>2016-08-27T07:05:44.000Z</time>
      </trkpt>
      <trkpt lat="45.96939" lon="6.24036">
        <ele>1300</ele>
        <time>2016-08-27T07:05:45.000Z</time>
      </trkpt>
      <trkpt lat="45.96939" lon="6.24036">
        <ele>1300</ele>
        <time>2016-08-27T07:05:46.000Z</time>
      </trkpt>
      <trkpt lat="45.96939" lon="6.24037">
        <ele>1300</ele>
        <time>2016-08-27T07:05:47.000Z</time>
      </trkpt>
      <trkpt lat="45.96939" lon="6.24037">
        <ele>1300</ele>
        <time>2016-08-27T07:05:48.000Z</time>
      </trkpt>
      <trkpt lat="45.9694" lon="6.24038">
        <ele>1300</ele>
        <time>2016-08-27T07:05:49.000Z</time>
      </trkpt>
      <trkpt lat="45.9694" lon="6.24039">
        <ele>1301</ele>
        <time>2016-08-27T07:05:50.000Z</time>
      </trkpt>
      <trkpt lat="45.9694" lon="6.2404">
        <ele>1301</ele>
        <time>2016-08-27T07:05:51.000Z</time>
      </trkpt>
      <trkpt lat="45.9694" lon="6.24042">
        <ele>1301</ele>
        <time>2016-08-27T07:05:52.000Z</time>
      </trkpt>
      <trkpt lat="45.96941" lon="6.24043">
        <ele>1301</ele>
        <time>2016-08-27T07:05:53.000Z</time>
      </trkpt>
      <trkpt lat="45.96942" lon="6.24044">
        <ele>1302</ele>
        <time>2016-08-27T07:05:54.000Z</time>
      </trkpt>
      <trkpt lat="45.96942" lon="6.24046">
        <ele>1302</ele>
        <time>2016-08-27T07:05:55.000Z</time>
      </trkpt>
      <trkpt lat="45.96943" lon="6.24047">
        <ele>1302</ele>
        <time>2016-08-27T07:05:56.000Z</time>
      </trkpt>
      <trkpt lat="45.96943" lon="6.24048">
        <ele>1302</ele>
        <time>2016-08-27T07:05:57.000Z</time>
      </trkpt>
      <trkpt lat="45.96944" lon="6.24049">
        <ele>1303</ele>
        <time>2016-08-27T07:05:58.000Z</time>
      </trkpt>
      <trkpt lat="45.96945" lon="6.2405">
        <ele>1303</ele>
        <time>2016-08-27T07:05:59.000Z</time>
      </trkpt>
      <trkpt lat="45.96945" lon="6.24051">
        <ele>1303</ele>
        <time>2016-08-27T07:06:00.000Z</time>
      </trkpt>
      <trkpt lat="45.96945" lon="6.24052">
        <ele>1303</ele>
        <time>2016-08-27T07:06:01.000Z</time>
      </trkpt>
      <trkpt lat="45.96946" lon="6.24053">
        <ele>1304</ele>
        <time>2016-08-27T07:06:02.000Z</time>
      </trkpt>
      <trkpt lat="45.96946" lon="6.24054">
        <ele>1304</ele>
        <time>2016-08-27T07:06:03.000Z</time>
      </trkpt>
      <trkpt lat="45.96947" lon="6.24055">
        <ele>1304</ele>
        <time>2016-08-27T07:06:04.000Z</time>
      </trkpt>
      <trkpt lat="45.96948" lon="6.24056">
        <ele>1304</ele>
        <time>2016-08-27T07:06:05.000Z</time>
      </trkpt>
      <trkpt lat="45.96948" lon="6.24057">
        <ele>1305</ele>
        <time>2016-08-27T07:06:06.000Z</time>
      </trkpt>
      <trkpt lat="45.96949" lon="6.24058">
        <ele>1305</ele>
        <time>2016-08-27T07:06:07.000Z</time>
      </trkpt>
      <trkpt lat="45.96949" lon="6.24058">
        <ele>1306</ele>
        <time>2016-08-27T07:06:08.000Z</time>
      </trkpt>
      <trkpt lat="45.96949" lon="6.24059">
        <ele>1306</ele>
        <time>2016-08-27T07:06:09.000Z</time>
      </trkpt>
      <trkpt lat="45.9695" lon="6.2406">
        <ele>1306</ele>
        <time>2016-08-27T07:06:10.000Z</time>
      </trkpt>
      <trkpt lat="45.9695" lon="6.24061">
        <ele>1306</ele>
        <time>2016-08-27T07:06:11.000Z</time>
      </trkpt>
      <trkpt lat="45.9695" lon="6.24062">
        <ele>1307</ele>
        <time>2016-08-27T07:06:12.000Z</time>
      </trkpt>
      <trkpt lat="45.96951" lon="6.24064">
        <ele>1307</ele>
        <time>2016-08-27T07:06:13.000Z</time>
      </trkpt>
      <trkpt lat="45.96951" lon="6.24065">
        <ele>1307</ele>
        <time>2016-08-27T07:06:14.000Z</time>
      </trkpt>
      <trkpt lat="45.96952" lon="6.24066">
        <ele>1307</ele>
        <time>2016-08-27T07:06:15.000Z</time>
      </trkpt>
      <trkpt lat="45.96953" lon="6.24067">
        <ele>1308</ele>
        <time>2016-08-27T07:06:16.000Z</time>
      </trkpt>
      <trkpt lat="45.96954" lon="6.24069">
        <ele>1308</ele>
        <time>2016-08-27T07:06:17.000Z</time>
      </trkpt>
      <trkpt lat="45.96955" lon="6.2407">
        <ele>1308</ele>
        <time>2016-08-27T07:06:18.000Z</time>
      </trkpt>
      <trkpt lat="45.96956" lon="6.24071">
        <ele>1308</ele>
        <time>2016-08-27T07:06:19.000Z</time>
      </trkpt>
      <trkpt lat="45.96958" lon="6.24072">
        <ele>1309</ele>
        <time>2016-08-27T07:06:20.000Z</time>
      </trkpt>
      <trkpt lat="45.96959" lon="6.24073">
        <ele>1309</ele>
        <time>2016-08-27T07:06:21.000Z</time>
      </trkpt>
      <trkpt lat="45.9696" lon="6.24075">
        <ele>1309</ele>
        <time>2016-08-27T07:06:22.000Z</time>
      </trkpt>
      <trkpt lat="45.96961" lon="6.24076">
        <ele>1309</ele>
        <time>2016-08-27T07:06:23.000Z</time>
      </trkpt>
      <trkpt lat="45.96962" lon="6.24077">
        <ele>1310</ele>
        <time>2016-08-27T07:06:24.000Z</time>
      </trkpt>
      <trkpt lat="45.96962" lon="6.24078">
        <ele>1310</ele>
        <time>2016-08-27T07:06:25.000Z</time>
      </trkpt>
      <trkpt lat="45.96962" lon="6.24079">
        <ele>1310</ele>
        <time>2016-08-27T07:06:26.000Z</time>
      </trkpt>
      <trkpt lat="45.96963" lon="6.2408">
        <ele>1310</ele>
        <time>2016-08-27T07:06:27.000Z</time>
      </trkpt>
      <trkpt lat="45.96964" lon="6.24081">
        <ele>1310</ele>
        <time>2016-08-27T07:06:28.000Z</time>
      </trkpt>
      <trkpt lat="45.96964" lon="6.24083">
        <ele>1310</ele>
        <time>2016-08-27T07:06:29.000Z</time>
      </trkpt>
      <trkpt lat="45.96965" lon="6.24084">
        <ele>1311</ele>
        <time>2016-08-27T07:06:30.000Z</time>
      </trkpt>
      <trkpt lat="45.96965" lon="6.24085">
        <ele>1311</ele>
        <time>2016-08-27T07:06:31.000Z</time>
      </trkpt>
      <trkpt lat="45.96966" lon="6.24087">
        <ele>1311</ele>
        <time>2016-08-27T07:06:32.000Z</time>
      </trkpt>
      <trkpt lat="45.96966" lon="6.24089">
        <ele>1311</ele>
        <time>2016-08-27T07:06:33.000Z</time>
      </trkpt>
      <trkpt lat="45.96967" lon="6.24091">
        <ele>1312</ele>
        <time>2016-08-27T07:06:34.000Z</time>
      </trkpt>
      <trkpt lat="45.96967" lon="6.24092">
        <ele>1312</ele>
        <time>2016-08-27T07:06:35.000Z</time>
      </trkpt>
      <trkpt lat="45.96968" lon="6.24094">
        <ele>1312</ele>
        <time>2016-08-27T07:06:36.000Z</time>
      </trkpt>
      <trkpt lat="45.96968" lon="6.24095">
        <ele>1312</ele>
        <time>2016-08-27T07:06:37.000Z</time>
      </trkpt>
      <trkpt lat="45.96969" lon="6.24097">
        <ele>1312</ele>
        <time>2016-08-27T07:06:38.000Z</time>
      </trkpt>
      <trkpt lat="45.9697" lon="6.24098">
        <ele>1312</ele>
        <time>2016-08-27T07:06:39.000Z</time>
      </trkpt>
      <trkpt lat="45.96971" lon="6.24099">
        <ele>1313</ele>
        <time>2016-08-27T07:06:40.000Z</time>
      </trkpt>
      <trkpt lat="45.96971" lon="6.24101">
        <ele>1313</ele>
        <time>2016-08-27T07:06:41.000Z</time>
      </trkpt>
      <trkpt lat="45.96972" lon="6.24102">
        <ele>1313</ele>
        <time>2016-08-27T07:06:42.000Z</time>
      </trkpt>
      <trkpt lat="45.96973" lon="6.24104">
        <ele>1313</ele>
        <time>2016-08-27T07:06:43.000Z</time>
      </trkpt>
      <trkpt lat="45.96973" lon="6.24105">
        <ele>1313</ele>
        <time>2016-08-27T07:06:44.000Z</time>
      </trkpt>
      <trkpt lat="45.96974" lon="6.24106">
        <ele>1313</ele>
        <time>2016-08-27T07:06:45.000Z</time>
      </trkpt>
      <trkpt lat="45.96974" lon="6.24107">
        <ele>1314</ele>
        <time>2016-08-27T07:06:46.000Z</time>
      </trkpt>
      <trkpt lat="45.96975" lon="6.24108">
        <ele>1314</ele>
        <time>2016-08-27T07:06:47.000Z</time>
      </trkpt>
      <trkpt lat="45.96976" lon="6.2411">
        <ele>1314</ele>
        <time>2016-08-27T07:06:48.000Z</time>
      </trkpt>
      <trkpt lat="45.96977" lon="6.24111">
        <ele>1314</ele>
        <time>2016-08-27T07:06:49.000Z</time>
      </trkpt>
      <trkpt lat="45.96978" lon="6.24113">
        <ele>1315</ele>
        <time>2016-08-27T07:06:50.000Z</time>
      </trkpt>
      <trkpt lat="45.96978" lon="6.24114">
        <ele>1315</ele>
        <time>2016-08-27T07:06:51.000Z</time>
      </trkpt>
      <trkpt lat="45.96979" lon="6.24115">
        <ele>1315</ele>
        <time>2016-08-27T07:06:52.000Z</time>
      </trkpt>
      <trkpt lat="45.9698" lon="6.24116">
        <ele>1315</ele>
        <time>2016-08-27T07:06:53.000Z</time>
      </trkpt>
      <trkpt lat="45.9698" lon="6.24118">
        <ele>1316</ele>
        <time>2016-08-27T07:06:54.000Z</time>
      </trkpt>
      <trkpt lat="45.96981" lon="6.24119">
        <ele>1316</ele>
        <time>2016-08-27T07:06:55.000Z</time>
      </trkpt>
      <trkpt lat="45.96981" lon="6.2412">
        <ele>1316</ele>
        <time>2016-08-27T07:06:56.000Z</time>
      </trkpt>
      <trkpt lat="45.96982" lon="6.24122">
        <ele>1316</ele>
        <time>2016-08-27T07:06:57.000Z</time>
      </trkpt>
      <trkpt lat="45.96982" lon="6.24123">
        <ele>1317</ele>
        <time>2016-08-27T07:06:58.000Z</time>
      </trkpt>
      <trkpt lat="45.96983" lon="6.24125">
        <ele>1317</ele>
        <time>2016-08-27T07:06:59.000Z</time>
      </trkpt>
      <trkpt lat="45.96983" lon="6.24127">
        <ele>1318</ele>
        <time>2016-08-27T07:07:00.000Z</time>
      </trkpt>
      <trkpt lat="45.96984" lon="6.2413">
        <ele>1318</ele>
        <time>2016-08-27T07:07:01.000Z</time>
      </trkpt>
      <trkpt lat="45.96985" lon="6.24132">
        <ele>1318</ele>
        <time>2016-08-27T07:07:02.000Z</time>
      </trkpt>
      <trkpt lat="45.96985" lon="6.24134">
        <ele>1318</ele>
        <time>2016-08-27T07:07:03.000Z</time>
      </trkpt>
      <trkpt lat="45.96986" lon="6.24136">
        <ele>1319</ele>
        <time>2016-08-27T07:07:04.000Z</time>
      </trkpt>
      <trkpt lat="45.96987" lon="6.24138">
        <ele>1319</ele>
        <time>2016-08-27T07:07:05.000Z</time>
      </trkpt>
      <trkpt lat="45.96987" lon="6.2414">
        <ele>1320</ele>
        <time>2016-08-27T07:07:06.000Z</time>
      </trkpt>
      <trkpt lat="45.96988" lon="6.24142">
        <ele>1320</ele>
        <time>2016-08-27T07:07:07.000Z</time>
      </trkpt>
      <trkpt lat="45.96988" lon="6.24144">
        <ele>1320</ele>
        <time>2016-08-27T07:07:08.000Z</time>
      </trkpt>
      <trkpt lat="45.96989" lon="6.24145">
        <ele>1320</ele>
        <time>2016-08-27T07:07:09.000Z</time>
      </trkpt>
      <trkpt lat="45.96989" lon="6.24146">
        <ele>1320</ele>
        <time>2016-08-27T07:07:10.000Z</time>
      </trkpt>
      <trkpt lat="45.96989" lon="6.24146">
        <ele>1320</ele>
        <time>2016-08-27T07:07:11.000Z</time>
      </trkpt>
      <trkpt lat="45.96988" lon="6.24146">
        <ele>1321</ele>
        <time>2016-08-27T07:07:12.000Z</time>
      </trkpt>
      <trkpt lat="45.96988" lon="6.24146">
        <ele>1321</ele>
        <time>2016-08-27T07:07:13.000Z</time>
      </trkpt>
      <trkpt lat="45.96987" lon="6.24146">
        <ele>1321</ele>
        <time>2016-08-27T07:07:14.000Z</time>
      </trkpt>
      <trkpt lat="45.96988" lon="6.24146">
        <ele>1321</ele>
        <time>2016-08-27T07:07:15.000Z</time>
      </trkpt>
      <trkpt lat="45.96987" lon="6.24146">
        <ele>1321</ele>
        <time>2016-08-27T07:07:16.000Z</time>
      </trkpt>
      <trkpt lat="45.96987" lon="6.24146">
        <ele>1321</ele>
        <time>2016-08-27T07:07:17.000Z</time>
      </trkpt>
      <trkpt lat="45.96986" lon="6.24145">
        <ele>1321</ele>
        <time>2016-08-27T07:07:18.000Z</time>
      </trkpt>
      <trkpt lat="45.96985" lon="6.24144">
        <ele>1321</ele>
        <time>2016-08-27T07:07:19.000Z</time>
      </trkpt>
      <trkpt lat="45.96985" lon="6.24143">
        <ele>1322</ele>
        <time>2016-08-27T07:07:20.000Z</time>
      </trkpt>
      <trkpt lat="45.96984" lon="6.24142">
        <ele>1322</ele>
        <time>2016-08-27T07:07:21.000Z</time>
      </trkpt>
      <trkpt lat="45.96983" lon="6.24141">
        <ele>1322</ele>
        <time>2016-08-27T07:07:22.000Z</time>
      </trkpt>
      <trkpt lat="45.96982" lon="6.2414">
        <ele>1322</ele>
        <time>2016-08-27T07:07:23.000Z</time>
      </trkpt>
      <trkpt lat="45.96982" lon="6.24139">
        <ele>1322</ele>
        <time>2016-08-27T07:07:24.000Z</time>
      </trkpt>
      <trkpt lat="45.96981" lon="6.24138">
        <ele>1322</ele>
        <time>2016-08-27T07:07:25.000Z</time>
      </trkpt>
      <trkpt lat="45.9698" lon="6.24137">
        <ele>1322</ele>
        <time>2016-08-27T07:07:26.000Z</time>
      </trkpt>
      <trkpt lat="45.9698" lon="6.24136">
        <ele>1322</ele>
        <time>2016-08-27T07:07:27.000Z</time>
      </trkpt>
      <trkpt lat="45.96979" lon="6.24136">
        <ele>1322</ele>
        <time>2016-08-27T07:07:28.000Z</time>
      </trkpt>
      <trkpt lat="45.96979" lon="6.24135">
        <ele>1322</ele>
        <time>2016-08-27T07:07:29.000Z</time>
      </trkpt>
      <trkpt lat="45.96978" lon="6.24134">
        <ele>1322</ele>
        <time>2016-08-27T07:07:30.000Z</time>
      </trkpt>
      <trkpt lat="45.96977" lon="6.24134">
        <ele>1322</ele>
        <time>2016-08-27T07:07:31.000Z</time>
      </trkpt>
      <trkpt lat="45.96977" lon="6.24133">
        <ele>1322</ele>
        <time>2016-08-27T07:07:32.000Z</time>
      </trkpt>
      <trkpt lat="45.96976" lon="6.24132">
        <ele>1322</ele>
        <time>2016-08-27T07:07:33.000Z</time>
      </trkpt>
      <trkpt lat="45.96976" lon="6.24131">
        <ele>1323</ele>
        <time>2016-08-27T07:07:34.000Z</time>
      </trkpt>
      <trkpt lat="45.96975" lon="6.2413">
        <ele>1323</ele>
        <time>2016-08-27T07:07:35.000Z</time>
      </trkpt>
      <trkpt lat="45.96974" lon="6.24129">
        <ele>1323</ele>
        <time>2016-08-27T07:07:36.000Z</time>
      </trkpt>
      <trkpt lat="45.96973" lon="6.24128">
        <ele>1323</ele>
        <time>2016-08-27T07:07:37.000Z</time>
      </trkpt>
      <trkpt lat="45.96973" lon="6.24127">
        <ele>1324</ele>
        <time>2016-08-27T07:07:38.000Z</time>
      </trkpt>
      <trkpt lat="45.96972" lon="6.24126">
        <ele>1324</ele>
        <time>2016-08-27T07:07:39.000Z</time>
      </trkpt>
      <trkpt lat="45.96971" lon="6.24126">
        <ele>1324</ele>
        <time>2016-08-27T07:07:40.000Z</time>
      </trkpt>
      <trkpt lat="45.9697" lon="6.24125">
        <ele>1324</ele>
        <time>2016-08-27T07:07:41.000Z</time>
      </trkpt>
      <trkpt lat="45.96969" lon="6.24124">
        <ele>1325</ele>
        <time>2016-08-27T07:07:42.000Z</time>
      </trkpt>
      <trkpt lat="45.96969" lon="6.24124">
        <ele>1325</ele>
        <time>2016-08-27T07:07:43.000Z</time>
      </trkpt>
      <trkpt lat="45.96968" lon="6.24123">
        <ele>1325</ele>
        <time>2016-08-27T07:07:44.000Z</time>
      </trkpt>
      <trkpt lat="45.96967" lon="6.24123">
        <ele>1325</ele>
        <time>2016-08-27T07:07:45.000Z</time>
      </trkpt>
      <trkpt lat="45.96967" lon="6.24122">
        <ele>1325</ele>
        <time>2016-08-27T07:07:46.000Z</time>
      </trkpt>
      <trkpt lat="45.96966" lon="6.24121">
        <ele>1325</ele>
        <time>2016-08-27T07:07:47.000Z</time>
      </trkpt>
      <trkpt lat="45.96966" lon="6.24121">
        <ele>1326</ele>
        <time>2016-08-27T07:07:48.000Z</time>
      </trkpt>
      <trkpt lat="45.96965" lon="6.2412">
        <ele>1326</ele>
        <time>2016-08-27T07:07:49.000Z</time>
      </trkpt>
      <trkpt lat="45.96965" lon="6.2412">
        <ele>1326</ele>
        <time>2016-08-27T07:07:50.000Z</time>
      </trkpt>
      <trkpt lat="45.96964" lon="6.2412">
        <ele>1326</ele>
        <time>2016-08-27T07:07:51.000Z</time>
      </trkpt>
      <trkpt lat="45.96964" lon="6.24119">
        <ele>1326</ele>
        <time>2016-08-27T07:07:52.000Z</time>
      </trkpt>
      <trkpt lat="45.96963" lon="6.24119">
        <ele>1326</ele>
        <time>2016-08-27T07:07:53.000Z</time>
      </trkpt>
      <trkpt lat="45.96962" lon="6.24118">
        <ele>1327</ele>
        <time>2016-08-27T07:07:54.000Z</time>
      </trkpt>
      <trkpt lat="45.9696" lon="6.24118">
        <ele>1327</ele>
        <time>2016-08-27T07:07:55.000Z</time>
      </trkpt>
      <trkpt lat="45.96959" lon="6.24117">
        <ele>1327</ele>
        <time>2016-08-27T07:07:56.000Z</time>
      </trkpt>
      <trkpt lat="45.96958" lon="6.24116">
        <ele>1327</ele>
        <time>2016-08-27T07:07:57.000Z</time>
      </trkpt>
      <trkpt lat="45.96957" lon="6.24116">
        <ele>1327</ele>
        <time>2016-08-27T07:07:58.000Z</time>
      </trkpt>
      <trkpt lat="45.96956" lon="6.24115">
        <ele>1327</ele>
        <time>2016-08-27T07:07:59.000Z</time>
      </trkpt>
      <trkpt lat="45.96954" lon="6.24115">
        <ele>1327</ele>
        <time>2016-08-27T07:08:00.000Z</time>
      </trkpt>
      <trkpt lat="45.96953" lon="6.24114">
        <ele>1327</ele>
        <time>2016-08-27T07:08:01.000Z</time>
      </trkpt>
      <trkpt lat="45.96952" lon="6.24114">
        <ele>1328</ele>
        <time>2016-08-27T07:08:02.000Z</time>
      </trkpt>
      <trkpt lat="45.96951" lon="6.24113">
        <ele>1328</ele>
        <time>2016-08-27T07:08:03.000Z</time>
      </trkpt>
      <trkpt lat="45.9695" lon="6.24113">
        <ele>1328</ele>
        <time>2016-08-27T07:08:04.000Z</time>
      </trkpt>
      <trkpt lat="45.96948" lon="6.24113">
        <ele>1328</ele>
        <time>2016-08-27T07:08:05.000Z</time>
      </trkpt>
      <trkpt lat="45.96947" lon="6.24113">
        <ele>1329</ele>
        <time>2016-08-27T07:08:06.000Z</time>
      </trkpt>
      <trkpt lat="45.96946" lon="6.24113">
        <ele>1329</ele>
        <time>2016-08-27T07:08:07.000Z</time>
      </trkpt>
      <trkpt lat="45.96945" lon="6.24112">
        <ele>1329</ele>
        <time>2016-08-27T07:08:08.000Z</time>
      </trkpt>
      <trkpt lat="45.96943" lon="6.24112">
        <ele>1329</ele>
        <time>2016-08-27T07:08:09.000Z</time>
      </trkpt>
      <trkpt lat="45.96942" lon="6.24111">
        <ele>1329</ele>
        <time>2016-08-27T07:08:10.000Z</time>
      </trkpt>
      <trkpt lat="45.96941" lon="6.2411">
        <ele>1329</ele>
        <time>2016-08-27T07:08:11.000Z</time>
      </trkpt>
      <trkpt lat="45.96939" lon="6.24109">
        <ele>1330</ele>
        <time>2016-08-27T07:08:12.000Z</time>
      </trkpt>
      <trkpt lat="45.96938" lon="6.24108">
        <ele>1330</ele>
        <time>2016-08-27T07:08:13.000Z</time>
      </trkpt>
      <trkpt lat="45.96937" lon="6.24107">
        <ele>1330</ele>
        <time>2016-08-27T07:08:14.000Z</time>
      </trkpt>
      <trkpt lat="45.96936" lon="6.24106">
        <ele>1330</ele>
        <time>2016-08-27T07:08:15.000Z</time>
      </trkpt>
      <trkpt lat="45.96934" lon="6.24105">
        <ele>1330</ele>
        <time>2016-08-27T07:08:16.000Z</time>
      </trkpt>
      <trkpt lat="45.96933" lon="6.24104">
        <ele>1330</ele>
        <time>2016-08-27T07:08:17.000Z</time>
      </trkpt>
      <trkpt lat="45.96932" lon="6.24103">
        <ele>1331</ele>
        <time>2016-08-27T07:08:18.000Z</time>
      </trkpt>
      <trkpt lat="45.96931" lon="6.24102">
        <ele>1331</ele>
        <time>2016-08-27T07:08:19.000Z</time>
      </trkpt>
      <trkpt lat="45.96931" lon="6.24102">
        <ele>1331</ele>
        <time>2016-08-27T07:08:20.000Z</time>
      </trkpt>
      <trkpt lat="45.9693" lon="6.24102">
        <ele>1331</ele>
        <time>2016-08-27T07:08:21.000Z</time>
      </trkpt>
      <trkpt lat="45.9693" lon="6.24102">
        <ele>1332</ele>
        <time>2016-08-27T07:08:22.000Z</time>
      </trkpt>
      <trkpt lat="45.96929" lon="6.24102">
        <ele>1332</ele>
        <time>2016-08-27T07:08:23.000Z</time>
      </trkpt>
      <trkpt lat="45.96928" lon="6.24102">
        <ele>1332</ele>
        <time>2016-08-27T07:08:24.000Z</time>
      </trkpt>
      <trkpt lat="45.96927" lon="6.24101">
        <ele>1332</ele>
        <time>2016-08-27T07:08:25.000Z</time>
      </trkpt>
      <trkpt lat="45.96926" lon="6.241">
        <ele>1333</ele>
        <time>2016-08-27T07:08:26.000Z</time>
      </trkpt>
      <trkpt lat="45.96925" lon="6.241">
        <ele>1333</ele>
        <time>2016-08-27T07:08:27.000Z</time>
      </trkpt>
      <trkpt lat="45.96925" lon="6.24098">
        <ele>1333</ele>
        <time>2016-08-27T07:08:28.000Z</time>
      </trkpt>
      <trkpt lat="45.96924" lon="6.24097">
        <ele>1333</ele>
        <time>2016-08-27T07:08:29.000Z</time>
      </trkpt>
      <trkpt lat="45.96923" lon="6.24096">
        <ele>1334</ele>
        <time>2016-08-27T07:08:30.000Z</time>
      </trkpt>
      <trkpt lat="45.96922" lon="6.24095">
        <ele>1334</ele>
        <time>2016-08-27T07:08:31.000Z</time>
      </trkpt>
      <trkpt lat="45.96921" lon="6.24094">
        <ele>1334</ele>
        <time>2016-08-27T07:08:32.000Z</time>
      </trkpt>
      <trkpt lat="45.9692" lon="6.24093">
        <ele>1334</ele>
        <time>2016-08-27T07:08:33.000Z</time>
      </trkpt>
      <trkpt lat="45.96919" lon="6.24091">
        <ele>1335</ele>
        <time>2016-08-27T07:08:34.000Z</time>
      </trkpt>
      <trkpt lat="45.96918" lon="6.24091">
        <ele>1335</ele>
        <time>2016-08-27T07:08:35.000Z</time>
      </trkpt>
      <trkpt lat="45.96918" lon="6.24091">
        <ele>1336</ele>
        <time>2016-08-27T07:08:36.000Z</time>
      </trkpt>
      <trkpt lat="45.96918" lon="6.24091">
        <ele>1336</ele>
        <time>2016-08-27T07:08:37.000Z</time>
      </trkpt>
      <trkpt lat="45.96917" lon="6.24091">
        <ele>1336</ele>
        <time>2016-08-27T07:08:38.000Z</time>
      </trkpt>
      <trkpt lat="45.96917" lon="6.24092">
        <ele>1336</ele>
        <time>2016-08-27T07:08:39.000Z</time>
      </trkpt>
      <trkpt lat="45.96917" lon="6.24094">
        <ele>1336</ele>
        <time>2016-08-27T07:08:40.000Z</time>
      </trkpt>
      <trkpt lat="45.96917" lon="6.24095">
        <ele>1336</ele>
        <time>2016-08-27T07:08:41.000Z</time>
      </trkpt>
      <trkpt lat="45.96917" lon="6.24097">
        <ele>1337</ele>
        <time>2016-08-27T07:08:42.000Z</time>
      </trkpt>
      <trkpt lat="45.96918" lon="6.24098">
        <ele>1337</ele>
        <time>2016-08-27T07:08:43.000Z</time>
      </trkpt>
      <trkpt lat="45.96918" lon="6.24099">
        <ele>1337</ele>
        <time>2016-08-27T07:08:44.000Z</time>
      </trkpt>
      <trkpt lat="45.96919" lon="6.241">
        <ele>1337</ele>
        <time>2016-08-27T07:08:45.000Z</time>
      </trkpt>
      <trkpt lat="45.96919" lon="6.24102">
        <ele>1338</ele>
        <time>2016-08-27T07:08:46.000Z</time>
      </trkpt>
      <trkpt lat="45.9692" lon="6.24103">
        <ele>1338</ele>
        <time>2016-08-27T07:08:47.000Z</time>
      </trkpt>
      <trkpt lat="45.9692" lon="6.24104">
        <ele>1338</ele>
        <time>2016-08-27T07:08:48.000Z</time>
      </trkpt>
      <trkpt lat="45.9692" lon="6.24106">
        <ele>1338</ele>
        <time>2016-08-27T07:08:49.000Z</time>
      </trkpt>
      <trkpt lat="45.96921" lon="6.24107">
        <ele>1338</ele>
        <time>2016-08-27T07:08:50.000Z</time>
      </trkpt>
      <trkpt lat="45.96921" lon="6.24108">
        <ele>1338</ele>
        <time>2016-08-27T07:08:51.000Z</time>
      </trkpt>
      <trkpt lat="45.96922" lon="6.2411">
        <ele>1339</ele>
        <time>2016-08-27T07:08:52.000Z</time>
      </trkpt>
      <trkpt lat="45.96922" lon="6.24111">
        <ele>1339</ele>
        <time>2016-08-27T07:08:53.000Z</time>
      </trkpt>
      <trkpt lat="45.96923" lon="6.24112">
        <ele>1339</ele>
        <time>2016-08-27T07:08:54.000Z</time>
      </trkpt>
      <trkpt lat="45.96924" lon="6.24113">
        <ele>1339</ele>
        <time>2016-08-27T07:08:55.000Z</time>
      </trkpt>
      <trkpt lat="45.96924" lon="6.24114">
        <ele>1340</ele>
        <time>2016-08-27T07:08:56.000Z</time>
      </trkpt>
      <trkpt lat="45.96925" lon="6.24115">
        <ele>1340</ele>
        <time>2016-08-27T07:08:57.000Z</time>
      </trkpt>
      <trkpt lat="45.96926" lon="6.24116">
        <ele>1341</ele>
        <time>2016-08-27T07:08:58.000Z</time>
      </trkpt>
      <trkpt lat="45.96927" lon="6.24117">
        <ele>1341</ele>
        <time>2016-08-27T07:08:59.000Z</time>
      </trkpt>
      <trkpt lat="45.96928" lon="6.24118">
        <ele>1341</ele>
        <time>2016-08-27T07:09:00.000Z</time>
      </trkpt>
      <trkpt lat="45.96929" lon="6.24119">
        <ele>1341</ele>
        <time>2016-08-27T07:09:01.000Z</time>
      </trkpt>
      <trkpt lat="45.96929" lon="6.2412">
        <ele>1342</ele>
        <time>2016-08-27T07:09:02.000Z</time>
      </trkpt>
      <trkpt lat="45.9693" lon="6.24121">
        <ele>1342</ele>
        <time>2016-08-27T07:09:03.000Z</time>
      </trkpt>
      <trkpt lat="45.96931" lon="6.24122">
        <ele>1343</ele>
        <time>2016-08-27T07:09:04.000Z</time>
      </trkpt>
      <trkpt lat="45.96931" lon="6.24123">
        <ele>1343</ele>
        <time>2016-08-27T07:09:05.000Z</time>
      </trkpt>
      <trkpt lat="45.96932" lon="6.24124">
        <ele>1343</ele>
        <time>2016-08-27T07:09:06.000Z</time>
      </trkpt>
      <trkpt lat="45.96932" lon="6.24125">
        <ele>1343</ele>
        <time>2016-08-27T07:09:07.000Z</time>
      </trkpt>
      <trkpt lat="45.96933" lon="6.24126">
        <ele>1343</ele>
        <time>2016-08-27T07:09:08.000Z</time>
      </trkpt>
      <trkpt lat="45.96933" lon="6.24127">
        <ele>1343</ele>
        <time>2016-08-27T07:09:09.000Z</time>
      </trkpt>
      <trkpt lat="45.96933" lon="6.24128">
        <ele>1344</ele>
        <time>2016-08-27T07:09:10.000Z</time>
      </trkpt>
      <trkpt lat="45.96934" lon="6.2413">
        <ele>1344</ele>
        <time>2016-08-27T07:09:11.000Z</time>
      </trkpt>
      <trkpt lat="45.96934" lon="6.24131">
        <ele>1344</ele>
        <time>2016-08-27T07:09:12.000Z</time>
      </trkpt>
      <trkpt lat="45.96935" lon="6.24132">
        <ele>1344</ele>
        <time>2016-08-27T07:09:13.000Z</time>
      </trkpt>
      <trkpt lat="45.96935" lon="6.24134">
        <ele>1345</ele>
        <time>2016-08-27T07:09:14.000Z</time>
      </trkpt>
      <trkpt lat="45.96936" lon="6.24135">
        <ele>1345</ele>
        <time>2016-08-27T07:09:15.000Z</time>
      </trkpt>
      <trkpt lat="45.96936" lon="6.24137">
        <ele>1345</ele>
        <time>2016-08-27T07:09:16.000Z</time>
      </trkpt>
      <trkpt lat="45.96937" lon="6.24138">
        <ele>1345</ele>
        <time>2016-08-27T07:09:17.000Z</time>
      </trkpt>
      <trkpt lat="45.96937" lon="6.24139">
        <ele>1346</ele>
        <time>2016-08-27T07:09:18.000Z</time>
      </trkpt>
      <trkpt lat="45.96938" lon="6.2414">
        <ele>1346</ele>
        <time>2016-08-27T07:09:19.000Z</time>
      </trkpt>
      <trkpt lat="45.96939" lon="6.24141">
        <ele>1346</ele>
        <time>2016-08-27T07:09:20.000Z</time>
      </trkpt>
      <trkpt lat="45.96939" lon="6.24143">
        <ele>1346</ele>
        <time>2016-08-27T07:09:21.000Z</time>
      </trkpt>
      <trkpt lat="45.9694" lon="6.24144">
        <ele>1346</ele>
        <time>2016-08-27T07:09:22.000Z</time>
      </trkpt>
      <trkpt lat="45.96941" lon="6.24145">
        <ele>1346</ele>
        <time>2016-08-27T07:09:23.000Z</time>
      </trkpt>
      <trkpt lat="45.96941" lon="6.24146">
        <ele>1347</ele>
        <time>2016-08-27T07:09:24.000Z</time>
      </trkpt>
      <trkpt lat="45.96942" lon="6.24147">
        <ele>1347</ele>
        <time>2016-08-27T07:09:25.000Z</time>
      </trkpt>
      <trkpt lat="45.96943" lon="6.24148">
        <ele>1347</ele>
        <time>2016-08-27T07:09:26.000Z</time>
      </trkpt>
      <trkpt lat="45.96943" lon="6.2415">
        <ele>1347</ele>
        <time>2016-08-27T07:09:27.000Z</time>
      </trkpt>
      <trkpt lat="45.96944" lon="6.24151">
        <ele>1348</ele>
        <time>2016-08-27T07:09:28.000Z</time>
      </trkpt>
      <trkpt lat="45.96945" lon="6.24153">
        <ele>1348</ele>
        <time>2016-08-27T07:09:29.000Z</time>
      </trkpt>
      <trkpt lat="45.96946" lon="6.24155">
        <ele>1348</ele>
        <time>2016-08-27T07:09:30.000Z</time>
      </trkpt>
      <trkpt lat="45.96947" lon="6.24157">
        <ele>1348</ele>
        <time>2016-08-27T07:09:31.000Z</time>
      </trkpt>
      <trkpt lat="45.96948" lon="6.24159">
        <ele>1349</ele>
        <time>2016-08-27T07:09:32.000Z</time>
      </trkpt>
      <trkpt lat="45.96949" lon="6.24161">
        <ele>1349</ele>
        <time>2016-08-27T07:09:33.000Z</time>
      </trkpt>
      <trkpt lat="45.9695" lon="6.24163">
        <ele>1349</ele>
        <time>2016-08-27T07:09:34.000Z</time>
      </trkpt>
      <trkpt lat="45.96951" lon="6.24165">
        <ele>1349</ele>
        <time>2016-08-27T07:09:35.000Z</time>
      </trkpt>
      <trkpt lat="45.96952" lon="6.24166">
        <ele>1350</ele>
        <time>2016-08-27T07:09:36.000Z</time>
      </trkpt>
      <trkpt lat="45.96953" lon="6.24168">
        <ele>1350</ele>
        <time>2016-08-27T07:09:37.000Z</time>
      </trkpt>
      <trkpt lat="45.96953" lon="6.24169">
        <ele>1350</ele>
        <time>2016-08-27T07:09:38.000Z</time>
      </trkpt>
      <trkpt lat="45.96954" lon="6.2417">
        <ele>1350</ele>
        <time>2016-08-27T07:09:39.000Z</time>
      </trkpt>
      <trkpt lat="45.96954" lon="6.24171">
        <ele>1351</ele>
        <time>2016-08-27T07:09:40.000Z</time>
      </trkpt>
      <trkpt lat="45.96954" lon="6.24171">
        <ele>1351</ele>
        <time>2016-08-27T07:09:41.000Z</time>
      </trkpt>
      <trkpt lat="45.96954" lon="6.24171">
        <ele>1351</ele>
        <time>2016-08-27T07:09:42.000Z</time>
      </trkpt>
      <trkpt lat="45.96954" lon="6.24171">
        <ele>1351</ele>
        <time>2016-08-27T07:09:43.000Z</time>
      </trkpt>
      <trkpt lat="45.96954" lon="6.24171">
        <ele>1351</ele>
        <time>2016-08-27T07:09:44.000Z</time>
      </trkpt>
      <trkpt lat="45.96953" lon="6.24171">
        <ele>1351</ele>
        <time>2016-08-27T07:09:45.000Z</time>
      </trkpt>
      <trkpt lat="45.96953" lon="6.24171">
        <ele>1352</ele>
        <time>2016-08-27T07:09:46.000Z</time>
      </trkpt>
      <trkpt lat="45.96953" lon="6.24171">
        <ele>1352</ele>
        <time>2016-08-27T07:09:47.000Z</time>
      </trkpt>
      <trkpt lat="45.96952" lon="6.24172">
        <ele>1352</ele>
        <time>2016-08-27T07:09:48.000Z</time>
      </trkpt>
      <trkpt lat="45.96951" lon="6.24171">
        <ele>1352</ele>
        <time>2016-08-27T07:09:49.000Z</time>
      </trkpt>
      <trkpt lat="45.9695" lon="6.24171">
        <ele>1352</ele>
        <time>2016-08-27T07:09:50.000Z</time>
      </trkpt>
      <trkpt lat="45.9695" lon="6.24171">
        <ele>1352</ele>
        <time>2016-08-27T07:09:51.000Z</time>
      </trkpt>
      <trkpt lat="45.96949" lon="6.24171">
        <ele>1352</ele>
        <time>2016-08-27T07:09:52.000Z</time>
      </trkpt>
      <trkpt lat="45.96948" lon="6.2417">
        <ele>1352</ele>
        <time>2016-08-27T07:09:53.000Z</time>
      </trkpt>
      <trkpt lat="45.96947" lon="6.2417">
        <ele>1352</ele>
        <time>2016-08-27T07:09:54.000Z</time>
      </trkpt>
      <trkpt lat="45.96947" lon="6.2417">
        <ele>1352</ele>
        <time>2016-08-27T07:09:55.000Z</time>
      </trkpt>
      <trkpt lat="45.96946" lon="6.2417">
        <ele>1352</ele>
        <time>2016-08-27T07:09:56.000Z</time>
      </trkpt>
      <trkpt lat="45.96945" lon="6.2417">
        <ele>1352</ele>
        <time>2016-08-27T07:09:57.000Z</time>
      </trkpt>
      <trkpt lat="45.96944" lon="6.24169">
        <ele>1352</ele>
        <time>2016-08-27T07:09:58.000Z</time>
      </trkpt>
      <trkpt lat="45.96943" lon="6.24169">
        <ele>1352</ele>
        <time>2016-08-27T07:09:59.000Z</time>
      </trkpt>
      <trkpt lat="45.96943" lon="6.24169">
        <ele>1353</ele>
        <time>2016-08-27T07:10:00.000Z</time>
      </trkpt>
      <trkpt lat="45.96942" lon="6.24168">
        <ele>1353</ele>
        <time>2016-08-27T07:10:01.000Z</time>
      </trkpt>
      <trkpt lat="45.96941" lon="6.24168">
        <ele>1353</ele>
        <time>2016-08-27T07:10:02.000Z</time>
      </trkpt>
      <trkpt lat="45.9694" lon="6.24168">
        <ele>1353</ele>
        <time>2016-08-27T07:10:03.000Z</time>
      </trkpt>
      <trkpt lat="45.96939" lon="6.24167">
        <ele>1353</ele>
        <time>2016-08-27T07:10:04.000Z</time>
      </trkpt>
      <trkpt lat="45.96938" lon="6.24167">
        <ele>1353</ele>
        <time>2016-08-27T07:10:05.000Z</time>
      </trkpt>
      <trkpt lat="45.96937" lon="6.24166">
        <ele>1354</ele>
        <time>2016-08-27T07:10:06.000Z</time>
      </trkpt>
      <trkpt lat="45.96937" lon="6.24166">
        <ele>1354</ele>
        <time>2016-08-27T07:10:07.000Z</time>
      </trkpt>
      <trkpt lat="45.96936" lon="6.24166">
        <ele>1354</ele>
        <time>2016-08-27T07:10:08.000Z</time>
      </trkpt>
      <trkpt lat="45.96935" lon="6.24165">
        <ele>1354</ele>
        <time>2016-08-27T07:10:09.000Z</time>
      </trkpt>
      <trkpt lat="45.96934" lon="6.24165">
        <ele>1355</ele>
        <time>2016-08-27T07:10:10.000Z</time>
      </trkpt>
      <trkpt lat="45.96933" lon="6.24165">
        <ele>1355</ele>
        <time>2016-08-27T07:10:11.000Z</time>
      </trkpt>
      <trkpt lat="45.96932" lon="6.24164">
        <ele>1355</ele>
        <time>2016-08-27T07:10:12.000Z</time>
      </trkpt>
      <trkpt lat="45.96931" lon="6.24164">
        <ele>1355</ele>
        <time>2016-08-27T07:10:13.000Z</time>
      </trkpt>
      <trkpt lat="45.9693" lon="6.24163">
        <ele>1356</ele>
        <time>2016-08-27T07:10:14.000Z</time>
      </trkpt>
      <trkpt lat="45.96929" lon="6.24163">
        <ele>1356</ele>
        <time>2016-08-27T07:10:15.000Z</time>
      </trkpt>
      <trkpt lat="45.96928" lon="6.24162">
        <ele>1356</ele>
        <time>2016-08-27T07:10:16.000Z</time>
      </trkpt>
      <trkpt lat="45.96927" lon="6.24162">
        <ele>1356</ele>
        <time>2016-08-27T07:10:17.000Z</time>
      </trkpt>
      <trkpt lat="45.96926" lon="6.24161">
        <ele>1357</ele>
        <time>2016-08-27T07:10:18.000Z</time>
      </trkpt>
      <trkpt lat="45.96926" lon="6.24161">
        <ele>1357</ele>
        <time>2016-08-27T07:10:19.000Z</time>
      </trkpt>
      <trkpt lat="45.96925" lon="6.2416">
        <ele>1357</ele>
        <time>2016-08-27T07:10:20.000Z</time>
      </trkpt>
      <trkpt lat="45.96924" lon="6.24159">
        <ele>1357</ele>
        <time>2016-08-27T07:10:21.000Z</time>
      </trkpt>
      <trkpt lat="45.96923" lon="6.24159">
        <ele>1358</ele>
        <time>2016-08-27T07:10:22.000Z</time>
      </trkpt>
      <trkpt lat="45.96923" lon="6.24158">
        <ele>1358</ele>
        <time>2016-08-27T07:10:23.000Z</time>
      </trkpt>
      <trkpt lat="45.96922" lon="6.24158">
        <ele>1358</ele>
        <time>2016-08-27T07:10:24.000Z</time>
      </trkpt>
      <trkpt lat="45.96921" lon="6.24158">
        <ele>1358</ele>
        <time>2016-08-27T07:10:25.000Z</time>
      </trkpt>
      <trkpt lat="45.9692" lon="6.24157">
        <ele>1358</ele>
        <time>2016-08-27T07:10:26.000Z</time>
      </trkpt>
      <trkpt lat="45.96919" lon="6.24156">
        <ele>1358</ele>
        <time>2016-08-27T07:10:27.000Z</time>
      </trkpt>
      <trkpt lat="45.96918" lon="6.24156">
        <ele>1359</ele>
        <time>2016-08-27T07:10:28.000Z</time>
      </trkpt>
      <trkpt lat="45.96918" lon="6.24156">
        <ele>1359</ele>
        <time>2016-08-27T07:10:29.000Z</time>
      </trkpt>
      <trkpt lat="45.96917" lon="6.24155">
        <ele>1359</ele>
        <time>2016-08-27T07:10:30.000Z</time>
      </trkpt>
      <trkpt lat="45.96916" lon="6.24154">
        <ele>1359</ele>
        <time>2016-08-27T07:10:31.000Z</time>
      </trkpt>
      <trkpt lat="45.96915" lon="6.24154">
        <ele>1360</ele>
        <time>2016-08-27T07:10:32.000Z</time>
      </trkpt>
      <trkpt lat="45.96914" lon="6.24153">
        <ele>1360</ele>
        <time>2016-08-27T07:10:33.000Z</time>
      </trkpt>
      <trkpt lat="45.96913" lon="6.24153">
        <ele>1360</ele>
        <time>2016-08-27T07:10:34.000Z</time>
      </trkpt>
      <trkpt lat="45.96912" lon="6.24152">
        <ele>1360</ele>
        <time>2016-08-27T07:10:35.000Z</time>
      </trkpt>
      <trkpt lat="45.96911" lon="6.24151">
        <ele>1361</ele>
        <time>2016-08-27T07:10:36.000Z</time>
      </trkpt>
      <trkpt lat="45.9691" lon="6.2415">
        <ele>1361</ele>
        <time>2016-08-27T07:10:37.000Z</time>
      </trkpt>
      <trkpt lat="45.96909" lon="6.2415">
        <ele>1361</ele>
        <time>2016-08-27T07:10:38.000Z</time>
      </trkpt>
      <trkpt lat="45.96908" lon="6.24149">
        <ele>1361</ele>
        <time>2016-08-27T07:10:39.000Z</time>
      </trkpt>
      <trkpt lat="45.96907" lon="6.24149">
        <ele>1362</ele>
        <time>2016-08-27T07:10:40.000Z</time>
      </trkpt>
      <trkpt lat="45.96906" lon="6.24148">
        <ele>1362</ele>
        <time>2016-08-27T07:10:41.000Z</time>
      </trkpt>
      <trkpt lat="45.96905" lon="6.24147">
        <ele>1362</ele>
        <time>2016-08-27T07:10:42.000Z</time>
      </trkpt>
      <trkpt lat="45.96904" lon="6.24147">
        <ele>1362</ele>
        <time>2016-08-27T07:10:43.000Z</time>
      </trkpt>
      <trkpt lat="45.96903" lon="6.24147">
        <ele>1363</ele>
        <time>2016-08-27T07:10:44.000Z</time>
      </trkpt>
      <trkpt lat="45.96903" lon="6.24146">
        <ele>1363</ele>
        <time>2016-08-27T07:10:45.000Z</time>
      </trkpt>
      <trkpt lat="45.96902" lon="6.24145">
        <ele>1363</ele>
        <time>2016-08-27T07:10:46.000Z</time>
      </trkpt>
      <trkpt lat="45.96902" lon="6.24144">
        <ele>1363</ele>
        <time>2016-08-27T07:10:47.000Z</time>
      </trkpt>
      <trkpt lat="45.96901" lon="6.24144">
        <ele>1364</ele>
        <time>2016-08-27T07:10:48.000Z</time>
      </trkpt>
      <trkpt lat="45.96901" lon="6.24143">
        <ele>1364</ele>
        <time>2016-08-27T07:10:49.000Z</time>
      </trkpt>
      <trkpt lat="45.969" lon="6.24142">
        <ele>1364</ele>
        <time>2016-08-27T07:10:50.000Z</time>
      </trkpt>
      <trkpt lat="45.969" lon="6.24141">
        <ele>1364</ele>
        <time>2016-08-27T07:10:51.000Z</time>
      </trkpt>
      <trkpt lat="45.96899" lon="6.2414">
        <ele>1364</ele>
        <time>2016-08-27T07:10:52.000Z</time>
      </trkpt>
      <trkpt lat="45.96899" lon="6.24139">
        <ele>1364</ele>
        <time>2016-08-27T07:10:53.000Z</time>
      </trkpt>
      <trkpt lat="45.96898" lon="6.24138">
        <ele>1365</ele>
        <time>2016-08-27T07:10:54.000Z</time>
      </trkpt>
      <trkpt lat="45.96898" lon="6.24138">
        <ele>1365</ele>
        <time>2016-08-27T07:10:55.000Z</time>
      </trkpt>
      <trkpt lat="45.96898" lon="6.24138">
        <ele>1365</ele>
        <time>2016-08-27T07:10:56.000Z</time>
      </trkpt>
      <trkpt lat="45.96898" lon="6.24139">
        <ele>1365</ele>
        <time>2016-08-27T07:10:57.000Z</time>
      </trkpt>
      <trkpt lat="45.96898" lon="6.2414">
        <ele>1366</ele>
        <time>2016-08-27T07:10:58.000Z</time>
      </trkpt>
      <trkpt lat="45.96897" lon="6.24141">
        <ele>1366</ele>
        <time>2016-08-27T07:10:59.000Z</time>
      </trkpt>
      <trkpt lat="45.96898" lon="6.24142">
        <ele>1366</ele>
        <time>2016-08-27T07:11:00.000Z</time>
      </trkpt>
      <trkpt lat="45.96897" lon="6.24143">
        <ele>1366</ele>
        <time>2016-08-27T07:11:01.000Z</time>
      </trkpt>
      <trkpt lat="45.96897" lon="6.24144">
        <ele>1367</ele>
        <time>2016-08-27T07:11:02.000Z</time>
      </trkpt>
      <trkpt lat="45.96897" lon="6.24145">
        <ele>1367</ele>
        <time>2016-08-27T07:11:03.000Z</time>
      </trkpt>
      <trkpt lat="45.96897" lon="6.24146">
        <ele>1367</ele>
        <time>2016-08-27T07:11:04.000Z</time>
      </trkpt>
      <trkpt lat="45.96897" lon="6.24147">
        <ele>1367</ele>
        <time>2016-08-27T07:11:05.000Z</time>
      </trkpt>
      <trkpt lat="45.96897" lon="6.24149">
        <ele>1367</ele>
        <time>2016-08-27T07:11:06.000Z</time>
      </trkpt>
      <trkpt lat="45.96897" lon="6.2415">
        <ele>1367</ele>
        <time>2016-08-27T07:11:07.000Z</time>
      </trkpt>
      <trkpt lat="45.96897" lon="6.24151">
        <ele>1368</ele>
        <time>2016-08-27T07:11:08.000Z</time>
      </trkpt>
      <trkpt lat="45.96898" lon="6.24152">
        <ele>1368</ele>
        <time>2016-08-27T07:11:09.000Z</time>
      </trkpt>
      <trkpt lat="45.96898" lon="6.24153">
        <ele>1368</ele>
        <time>2016-08-27T07:11:10.000Z</time>
      </trkpt>
      <trkpt lat="45.96899" lon="6.24154">
        <ele>1368</ele>
        <time>2016-08-27T07:11:11.000Z</time>
      </trkpt>
      <trkpt lat="45.96899" lon="6.24155">
        <ele>1369</ele>
        <time>2016-08-27T07:11:12.000Z</time>
      </trkpt>
      <trkpt lat="45.96899" lon="6.24156">
        <ele>1369</ele>
        <time>2016-08-27T07:11:13.000Z</time>
      </trkpt>
      <trkpt lat="45.969" lon="6.24157">
        <ele>1369</ele>
        <time>2016-08-27T07:11:14.000Z</time>
      </trkpt>
      <trkpt lat="45.969" lon="6.24158">
        <ele>1369</ele>
        <time>2016-08-27T07:11:15.000Z</time>
      </trkpt>
      <trkpt lat="45.96901" lon="6.24159">
        <ele>1370</ele>
        <time>2016-08-27T07:11:16.000Z</time>
      </trkpt>
      <trkpt lat="45.96901" lon="6.2416">
        <ele>1370</ele>
        <time>2016-08-27T07:11:17.000Z</time>
      </trkpt>
      <trkpt lat="45.96902" lon="6.24162">
        <ele>1370</ele>
        <time>2016-08-27T07:11:18.000Z</time>
      </trkpt>
      <trkpt lat="45.96903" lon="6.24163">
        <ele>1370</ele>
        <time>2016-08-27T07:11:19.000Z</time>
      </trkpt>
      <trkpt lat="45.96904" lon="6.24164">
        <ele>1371</ele>
        <time>2016-08-27T07:11:20.000Z</time>
      </trkpt>
      <trkpt lat="45.96904" lon="6.24165">
        <ele>1371</ele>
        <time>2016-08-27T07:11:21.000Z</time>
      </trkpt>
      <trkpt lat="45.96905" lon="6.24166">
        <ele>1371</ele>
        <time>2016-08-27T07:11:22.000Z</time>
      </trkpt>
      <trkpt lat="45.96906" lon="6.24167">
        <ele>1371</ele>
        <time>2016-08-27T07:11:23.000Z</time>
      </trkpt>
      <trkpt lat="45.96906" lon="6.24168">
        <ele>1372</ele>
        <time>2016-08-27T07:11:24.000Z</time>
      </trkpt>
      <trkpt lat="45.96907" lon="6.2417">
        <ele>1372</ele>
        <time>2016-08-27T07:11:25.000Z</time>
      </trkpt>
      <trkpt lat="45.96907" lon="6.24171">
        <ele>1372</ele>
        <time>2016-08-27T07:11:26.000Z</time>
      </trkpt>
      <trkpt lat="45.96908" lon="6.24173">
        <ele>1372</ele>
        <time>2016-08-27T07:11:27.000Z</time>
      </trkpt>
      <trkpt lat="45.96909" lon="6.24174">
        <ele>1372</ele>
        <time>2016-08-27T07:11:28.000Z</time>
      </trkpt>
      <trkpt lat="45.9691" lon="6.24175">
        <ele>1372</ele>
        <time>2016-08-27T07:11:29.000Z</time>
      </trkpt>
      <trkpt lat="45.96911" lon="6.24177">
        <ele>1373</ele>
        <time>2016-08-27T07:11:30.000Z</time>
      </trkpt>
      <trkpt lat="45.96911" lon="6.24178">
        <ele>1373</ele>
        <time>2016-08-27T07:11:31.000Z</time>
      </trkpt>
      <trkpt lat="45.96912" lon="6.24179">
        <ele>1373</ele>
        <time>2016-08-27T07:11:32.000Z</time>
      </trkpt>
      <trkpt lat="45.96913" lon="6.24181">
        <ele>1373</ele>
        <time>2016-08-27T07:11:33.000Z</time>
      </trkpt>
      <trkpt lat="45.96913" lon="6.24182">
        <ele>1374</ele>
        <time>2016-08-27T07:11:34.000Z</time>
      </trkpt>
      <trkpt lat="45.96914" lon="6.24184">
        <ele>1374</ele>
        <time>2016-08-27T07:11:35.000Z</time>
      </trkpt>
      <trkpt lat="45.96915" lon="6.24185">
        <ele>1374</ele>
        <time>2016-08-27T07:11:36.000Z</time>
      </trkpt>
      <trkpt lat="45.96916" lon="6.24186">
        <ele>1374</ele>
        <time>2016-08-27T07:11:37.000Z</time>
      </trkpt>
      <trkpt lat="45.96917" lon="6.24187">
        <ele>1375</ele>
        <time>2016-08-27T07:11:38.000Z</time>
      </trkpt>
      <trkpt lat="45.96918" lon="6.24189">
        <ele>1375</ele>
        <time>2016-08-27T07:11:39.000Z</time>
      </trkpt>
      <trkpt lat="45.96919" lon="6.2419">
        <ele>1375</ele>
        <time>2016-08-27T07:11:40.000Z</time>
      </trkpt>
      <trkpt lat="45.9692" lon="6.24192">
        <ele>1375</ele>
        <time>2016-08-27T07:11:41.000Z</time>
      </trkpt>
      <trkpt lat="45.96921" lon="6.24193">
        <ele>1375</ele>
        <time>2016-08-27T07:11:42.000Z</time>
      </trkpt>
      <trkpt lat="45.96922" lon="6.24195">
        <ele>1375</ele>
        <time>2016-08-27T07:11:43.000Z</time>
      </trkpt>
      <trkpt lat="45.96923" lon="6.24196">
        <ele>1376</ele>
        <time>2016-08-27T07:11:44.000Z</time>
      </trkpt>
      <trkpt lat="45.96924" lon="6.24197">
        <ele>1376</ele>
        <time>2016-08-27T07:11:45.000Z</time>
      </trkpt>
      <trkpt lat="45.96924" lon="6.24199">
        <ele>1377</ele>
        <time>2016-08-27T07:11:46.000Z</time>
      </trkpt>
      <trkpt lat="45.96925" lon="6.242">
        <ele>1377</ele>
        <time>2016-08-27T07:11:47.000Z</time>
      </trkpt>
      <trkpt lat="45.96926" lon="6.24201">
        <ele>1378</ele>
        <time>2016-08-27T07:11:48.000Z</time>
      </trkpt>
      <trkpt lat="45.96926" lon="6.24203">
        <ele>1378</ele>
        <time>2016-08-27T07:11:49.000Z</time>
      </trkpt>
      <trkpt lat="45.96927" lon="6.24204">
        <ele>1378</ele>
        <time>2016-08-27T07:11:50.000Z</time>
      </trkpt>
      <trkpt lat="45.96928" lon="6.24206">
        <ele>1378</ele>
        <time>2016-08-27T07:11:51.000Z</time>
      </trkpt>
      <trkpt lat="45.96929" lon="6.24207">
        <ele>1379</ele>
        <time>2016-08-27T07:11:52.000Z</time>
      </trkpt>
      <trkpt lat="45.96929" lon="6.24208">
        <ele>1379</ele>
        <time>2016-08-27T07:11:53.000Z</time>
      </trkpt>
      <trkpt lat="45.9693" lon="6.24209">
        <ele>1380</ele>
        <time>2016-08-27T07:11:54.000Z</time>
      </trkpt>
      <trkpt lat="45.96931" lon="6.24211">
        <ele>1380</ele>
        <time>2016-08-27T07:11:55.000Z</time>
      </trkpt>
      <trkpt lat="45.96932" lon="6.24212">
        <ele>1380</ele>
        <time>2016-08-27T07:11:56.000Z</time>
      </trkpt>
      <trkpt lat="45.96932" lon="6.24213">
        <ele>1380</ele>
        <time>2016-08-27T07:11:57.000Z</time>
      </trkpt>
      <trkpt lat="45.96933" lon="6.24214">
        <ele>1381</ele>
        <time>2016-08-27T07:11:58.000Z</time>
      </trkpt>
      <trkpt lat="45.96933" lon="6.24215">
        <ele>1381</ele>
        <time>2016-08-27T07:11:59.000Z</time>
      </trkpt>
      <trkpt lat="45.96934" lon="6.24217">
        <ele>1381</ele>
        <time>2016-08-27T07:12:00.000Z</time>
      </trkpt>
      <trkpt lat="45.96934" lon="6.24218">
        <ele>1381</ele>
        <time>2016-08-27T07:12:01.000Z</time>
      </trkpt>
      <trkpt lat="45.96935" lon="6.24219">
        <ele>1382</ele>
        <time>2016-08-27T07:12:02.000Z</time>
      </trkpt>
      <trkpt lat="45.96935" lon="6.2422">
        <ele>1382</ele>
        <time>2016-08-27T07:12:03.000Z</time>
      </trkpt>
      <trkpt lat="45.96935" lon="6.24221">
        <ele>1383</ele>
        <time>2016-08-27T07:12:04.000Z</time>
      </trkpt>
      <trkpt lat="45.96936" lon="6.24222">
        <ele>1383</ele>
        <time>2016-08-27T07:12:05.000Z</time>
      </trkpt>
      <trkpt lat="45.96937" lon="6.24223">
        <ele>1383</ele>
        <time>2016-08-27T07:12:06.000Z</time>
      </trkpt>
      <trkpt lat="45.96937" lon="6.24225">
        <ele>1383</ele>
        <time>2016-08-27T07:12:07.000Z</time>
      </trkpt>
      <trkpt lat="45.96938" lon="6.24226">
        <ele>1384</ele>
        <time>2016-08-27T07:12:08.000Z</time>
      </trkpt>
      <trkpt lat="45.96938" lon="6.24227">
        <ele>1384</ele>
        <time>2016-08-27T07:12:09.000Z</time>
      </trkpt>
      <trkpt lat="45.96939" lon="6.24227">
        <ele>1384</ele>
        <time>2016-08-27T07:12:10.000Z</time>
      </trkpt>
      <trkpt lat="45.96939" lon="6.24228">
        <ele>1384</ele>
        <time>2016-08-27T07:12:11.000Z</time>
      </trkpt>
      <trkpt lat="45.9694" lon="6.2423">
        <ele>1385</ele>
        <time>2016-08-27T07:12:12.000Z</time>
      </trkpt>
      <trkpt lat="45.9694" lon="6.24231">
        <ele>1385</ele>
        <time>2016-08-27T07:12:13.000Z</time>
      </trkpt>
      <trkpt lat="45.96941" lon="6.24232">
        <ele>1385</ele>
        <time>2016-08-27T07:12:14.000Z</time>
      </trkpt>
      <trkpt lat="45.96942" lon="6.24233">
        <ele>1385</ele>
        <time>2016-08-27T07:12:15.000Z</time>
      </trkpt>
      <trkpt lat="45.96942" lon="6.24234">
        <ele>1385</ele>
        <time>2016-08-27T07:12:16.000Z</time>
      </trkpt>
      <trkpt lat="45.96943" lon="6.24236">
        <ele>1385</ele>
        <time>2016-08-27T07:12:17.000Z</time>
      </trkpt>
      <trkpt lat="45.96943" lon="6.24237">
        <ele>1385</ele>
        <time>2016-08-27T07:12:18.000Z</time>
      </trkpt>
      <trkpt lat="45.96943" lon="6.24238">
        <ele>1385</ele>
        <time>2016-08-27T07:12:19.000Z</time>
      </trkpt>
      <trkpt lat="45.96943" lon="6.24239">
        <ele>1386</ele>
        <time>2016-08-27T07:12:20.000Z</time>
      </trkpt>
      <trkpt lat="45.96943" lon="6.2424">
        <ele>1386</ele>
        <time>2016-08-27T07:12:21.000Z</time>
      </trkpt>
      <trkpt lat="45.96944" lon="6.2424">
        <ele>1386</ele>
        <time>2016-08-27T07:12:22.000Z</time>
      </trkpt>
      <trkpt lat="45.96944" lon="6.24241">
        <ele>1386</ele>
        <time>2016-08-27T07:12:23.000Z</time>
      </trkpt>
      <trkpt lat="45.96945" lon="6.24242">
        <ele>1387</ele>
        <time>2016-08-27T07:12:24.000Z</time>
      </trkpt>
      <trkpt lat="45.96945" lon="6.24243">
        <ele>1387</ele>
        <time>2016-08-27T07:12:25.000Z</time>
      </trkpt>
      <trkpt lat="45.96945" lon="6.24244">
        <ele>1387</ele>
        <time>2016-08-27T07:12:26.000Z</time>
      </trkpt>
      <trkpt lat="45.96945" lon="6.24245">
        <ele>1387</ele>
        <time>2016-08-27T07:12:27.000Z</time>
      </trkpt>
      <trkpt lat="45.96946" lon="6.24246">
        <ele>1388</ele>
        <time>2016-08-27T07:12:28.000Z</time>
      </trkpt>
      <trkpt lat="45.96947" lon="6.24246">
        <ele>1388</ele>
        <time>2016-08-27T07:12:29.000Z</time>
      </trkpt>
      <trkpt lat="45.96948" lon="6.24247">
        <ele>1388</ele>
        <time>2016-08-27T07:12:30.000Z</time>
      </trkpt>
      <trkpt lat="45.96948" lon="6.24248">
        <ele>1388</ele>
        <time>2016-08-27T07:12:31.000Z</time>
      </trkpt>
      <trkpt lat="45.96949" lon="6.24249">
        <ele>1389</ele>
        <time>2016-08-27T07:12:32.000Z</time>
      </trkpt>
      <trkpt lat="45.96949" lon="6.2425">
        <ele>1389</ele>
        <time>2016-08-27T07:12:33.000Z</time>
      </trkpt>
      <trkpt lat="45.9695" lon="6.24252">
        <ele>1389</ele>
        <time>2016-08-27T07:12:34.000Z</time>
      </trkpt>
      <trkpt lat="45.96951" lon="6.24253">
        <ele>1389</ele>
        <time>2016-08-27T07:12:35.000Z</time>
      </trkpt>
      <trkpt lat="45.96952" lon="6.24254">
        <ele>1390</ele>
        <time>2016-08-27T07:12:36.000Z</time>
      </trkpt>
      <trkpt lat="45.96953" lon="6.24254">
        <ele>1390</ele>
        <time>2016-08-27T07:12:37.000Z</time>
      </trkpt>
      <trkpt lat="45.96954" lon="6.24255">
        <ele>1390</ele>
        <time>2016-08-27T07:12:38.000Z</time>
      </trkpt>
      <trkpt lat="45.96954" lon="6.24256">
        <ele>1390</ele>
        <time>2016-08-27T07:12:39.000Z</time>
      </trkpt>
      <trkpt lat="45.96955" lon="6.24257">
        <ele>1390</ele>
        <time>2016-08-27T07:12:40.000Z</time>
      </trkpt>
      <trkpt lat="45.96955" lon="6.24258">
        <ele>1390</ele>
        <time>2016-08-27T07:12:41.000Z</time>
      </trkpt>
      <trkpt lat="45.96956" lon="6.24259">
        <ele>1391</ele>
        <time>2016-08-27T07:12:42.000Z</time>
      </trkpt>
      <trkpt lat="45.96956" lon="6.2426">
        <ele>1391</ele>
        <time>2016-08-27T07:12:43.000Z</time>
      </trkpt>
      <trkpt lat="45.96957" lon="6.2426">
        <ele>1391</ele>
        <time>2016-08-27T07:12:44.000Z</time>
      </trkpt>
      <trkpt lat="45.96958" lon="6.24261">
        <ele>1391</ele>
        <time>2016-08-27T07:12:45.000Z</time>
      </trkpt>
      <trkpt lat="45.96959" lon="6.24262">
        <ele>1392</ele>
        <time>2016-08-27T07:12:46.000Z</time>
      </trkpt>
      <trkpt lat="45.96959" lon="6.24263">
        <ele>1392</ele>
        <time>2016-08-27T07:12:47.000Z</time>
      </trkpt>
      <trkpt lat="45.9696" lon="6.24263">
        <ele>1392</ele>
        <time>2016-08-27T07:12:48.000Z</time>
      </trkpt>
      <trkpt lat="45.9696" lon="6.24264">
        <ele>1392</ele>
        <time>2016-08-27T07:12:49.000Z</time>
      </trkpt>
      <trkpt lat="45.96961" lon="6.24264">
        <ele>1393</ele>
        <time>2016-08-27T07:12:50.000Z</time>
      </trkpt>
      <trkpt lat="45.96961" lon="6.24265">
        <ele>1393</ele>
        <time>2016-08-27T07:12:51.000Z</time>
      </trkpt>
      <trkpt lat="45.96962" lon="6.24266">
        <ele>1393</ele>
        <time>2016-08-27T07:12:52.000Z</time>
      </trkpt>
      <trkpt lat="45.96963" lon="6.24266">
        <ele>1393</ele>
        <time>2016-08-27T07:12:53.000Z</time>
      </trkpt>
      <trkpt lat="45.96963" lon="6.24267">
        <ele>1394</ele>
        <time>2016-08-27T07:12:54.000Z</time>
      </trkpt>
      <trkpt lat="45.96964" lon="6.24268">
        <ele>1394</ele>
        <time>2016-08-27T07:12:55.000Z</time>
      </trkpt>
      <trkpt lat="45.96965" lon="6.24268">
        <ele>1394</ele>
        <time>2016-08-27T07:12:56.000Z</time>
      </trkpt>
      <trkpt lat="45.96966" lon="6.24269">
        <ele>1394</ele>
        <time>2016-08-27T07:12:57.000Z</time>
      </trkpt>
      <trkpt lat="45.96967" lon="6.2427">
        <ele>1394</ele>
        <time>2016-08-27T07:12:58.000Z</time>
      </trkpt>
      <trkpt lat="45.96968" lon="6.2427">
        <ele>1394</ele>
        <time>2016-08-27T07:12:59.000Z</time>
      </trkpt>
      <trkpt lat="45.96969" lon="6.24271">
        <ele>1395</ele>
        <time>2016-08-27T07:13:00.000Z</time>
      </trkpt>
      <trkpt lat="45.9697" lon="6.24272">
        <ele>1395</ele>
        <time>2016-08-27T07:13:01.000Z</time>
      </trkpt>
      <trkpt lat="45.96972" lon="6.24273">
        <ele>1395</ele>
        <time>2016-08-27T07:13:02.000Z</time>
      </trkpt>
      <trkpt lat="45.96973" lon="6.24274">
        <ele>1395</ele>
        <time>2016-08-27T07:13:03.000Z</time>
      </trkpt>
      <trkpt lat="45.96975" lon="6.24274">
        <ele>1395</ele>
        <time>2016-08-27T07:13:04.000Z</time>
      </trkpt>
      <trkpt lat="45.96977" lon="6.24275">
        <ele>1395</ele>
        <time>2016-08-27T07:13:05.000Z</time>
      </trkpt>
      <trkpt lat="45.96978" lon="6.24276">
        <ele>1396</ele>
        <time>2016-08-27T07:13:06.000Z</time>
      </trkpt>
      <trkpt lat="45.9698" lon="6.24277">
        <ele>1396</ele>
        <time>2016-08-27T07:13:07.000Z</time>
      </trkpt>
      <trkpt lat="45.96982" lon="6.24278">
        <ele>1396</ele>
        <time>2016-08-27T07:13:08.000Z</time>
      </trkpt>
      <trkpt lat="45.96983" lon="6.24279">
        <ele>1396</ele>
        <time>2016-08-27T07:13:09.000Z</time>
      </trkpt>
      <trkpt lat="45.96985" lon="6.24281">
        <ele>1396</ele>
        <time>2016-08-27T07:13:10.000Z</time>
      </trkpt>
      <trkpt lat="45.96987" lon="6.24281">
        <ele>1396</ele>
        <time>2016-08-27T07:13:11.000Z</time>
      </trkpt>
      <trkpt lat="45.96989" lon="6.24283">
        <ele>1397</ele>
        <time>2016-08-27T07:13:12.000Z</time>
      </trkpt>
      <trkpt lat="45.96991" lon="6.24284">
        <ele>1397</ele>
        <time>2016-08-27T07:13:13.000Z</time>
      </trkpt>
      <trkpt lat="45.96993" lon="6.24285">
        <ele>1397</ele>
        <time>2016-08-27T07:13:14.000Z</time>
      </trkpt>
      <trkpt lat="45.96995" lon="6.24286">
        <ele>1397</ele>
        <time>2016-08-27T07:13:15.000Z</time>
      </trkpt>
      <trkpt lat="45.96997" lon="6.24288">
        <ele>1397</ele>
        <time>2016-08-27T07:13:16.000Z</time>
      </trkpt>
      <trkpt lat="45.96998" lon="6.24289">
        <ele>1397</ele>
        <time>2016-08-27T07:13:17.000Z</time>
      </trkpt>
      <trkpt lat="45.97" lon="6.2429">
        <ele>1397</ele>
        <time>2016-08-27T07:13:18.000Z</time>
      </trkpt>
      <trkpt lat="45.97002" lon="6.24292">
        <ele>1397</ele>
        <time>2016-08-27T07:13:19.000Z</time>
      </trkpt>
      <trkpt lat="45.97004" lon="6.24293">
        <ele>1398</ele>
        <time>2016-08-27T07:13:20.000Z</time>
      </trkpt>
      <trkpt lat="45.97005" lon="6.24295">
        <ele>1398</ele>
        <time>2016-08-27T07:13:21.000Z</time>
      </trkpt>
      <trkpt lat="45.97006" lon="6.24296">
        <ele>1398</ele>
        <time>2016-08-27T07:13:22.000Z</time>
      </trkpt>
      <trkpt lat="45.97006" lon="6.24297">
        <ele>1398</ele>
        <time>2016-08-27T07:13:23.000Z</time>
      </trkpt>
      <trkpt lat="45.97006" lon="6.24297">
        <ele>1398</ele>
        <time>2016-08-27T07:13:24.000Z</time>
      </trkpt>
      <trkpt lat="45.97005" lon="6.24298">
        <ele>1398</ele>
        <time>2016-08-27T07:13:25.000Z</time>
      </trkpt>
      <trkpt lat="45.97005" lon="6.24298">
        <ele>1398</ele>
        <time>2016-08-27T07:13:26.000Z</time>
      </trkpt>
      <trkpt lat="45.97004" lon="6.24299">
        <ele>1398</ele>
        <time>2016-08-27T07:13:27.000Z</time>
      </trkpt>
      <trkpt lat="45.97003" lon="6.243">
        <ele>1398</ele>
        <time>2016-08-27T07:13:28.000Z</time>
      </trkpt>
      <trkpt lat="45.97002" lon="6.243">
        <ele>1398</ele>
        <time>2016-08-27T07:13:29.000Z</time>
      </trkpt>
      <trkpt lat="45.97002" lon="6.243">
        <ele>1399</ele>
        <time>2016-08-27T07:13:30.000Z</time>
      </trkpt>
      <trkpt lat="45.97001" lon="6.24301">
        <ele>1399</ele>
        <time>2016-08-27T07:13:31.000Z</time>
      </trkpt>
      <trkpt lat="45.97" lon="6.24301">
        <ele>1399</ele>
        <time>2016-08-27T07:13:32.000Z</time>
      </trkpt>
      <trkpt lat="45.96999" lon="6.24301">
        <ele>1399</ele>
        <time>2016-08-27T07:13:33.000Z</time>
      </trkpt>
      <trkpt lat="45.96998" lon="6.24302">
        <ele>1399</ele>
        <time>2016-08-27T07:13:34.000Z</time>
      </trkpt>
      <trkpt lat="45.96997" lon="6.24302">
        <ele>1399</ele>
        <time>2016-08-27T07:13:35.000Z</time>
      </trkpt>
      <trkpt lat="45.96996" lon="6.24302">
        <ele>1399</ele>
        <time>2016-08-27T07:13:36.000Z</time>
      </trkpt>
      <trkpt lat="45.96995" lon="6.24303">
        <ele>1399</ele>
        <time>2016-08-27T07:13:37.000Z</time>
      </trkpt>
      <trkpt lat="45.96994" lon="6.24303">
        <ele>1399</ele>
        <time>2016-08-27T07:13:38.000Z</time>
      </trkpt>
      <trkpt lat="45.96993" lon="6.24303">
        <ele>1399</ele>
        <time>2016-08-27T07:13:39.000Z</time>
      </trkpt>
      <trkpt lat="45.96993" lon="6.24304">
        <ele>1399</ele>
        <time>2016-08-27T07:13:40.000Z</time>
      </trkpt>
      <trkpt lat="45.96992" lon="6.24304">
        <ele>1399</ele>
        <time>2016-08-27T07:13:41.000Z</time>
      </trkpt>
      <trkpt lat="45.96991" lon="6.24304">
        <ele>1400</ele>
        <time>2016-08-27T07:13:42.000Z</time>
      </trkpt>
      <trkpt lat="45.9699" lon="6.24304">
        <ele>1400</ele>
        <time>2016-08-27T07:13:43.000Z</time>
      </trkpt>
      <trkpt lat="45.96989" lon="6.24304">
        <ele>1400</ele>
        <time>2016-08-27T07:13:44.000Z</time>
      </trkpt>
      <trkpt lat="45.96989" lon="6.24304">
        <ele>1400</ele>
        <time>2016-08-27T07:13:45.000Z</time>
      </trkpt>
      <trkpt lat="45.96988" lon="6.24304">
        <ele>1400</ele>
        <time>2016-08-27T07:13:46.000Z</time>
      </trkpt>
      <trkpt lat="45.96987" lon="6.24304">
        <ele>1400</ele>
        <time>2016-08-27T07:13:47.000Z</time>
      </trkpt>
      <trkpt lat="45.96986" lon="6.24304">
        <ele>1400</ele>
        <time>2016-08-27T07:13:48.000Z</time>
      </trkpt>
      <trkpt lat="45.96985" lon="6.24304">
        <ele>1400</ele>
        <time>2016-08-27T07:13:49.000Z</time>
      </trkpt>
      <trkpt lat="45.96984" lon="6.24304">
        <ele>1400</ele>
        <time>2016-08-27T07:13:50.000Z</time>
      </trkpt>
      <trkpt lat="45.96983" lon="6.24304">
        <ele>1400</ele>
        <time>2016-08-27T07:13:51.000Z</time>
      </trkpt>
      <trkpt lat="45.96982" lon="6.24305">
        <ele>1400</ele>
        <time>2016-08-27T07:13:52.000Z</time>
      </trkpt>
      <trkpt lat="45.96981" lon="6.24305">
        <ele>1400</ele>
        <time>2016-08-27T07:13:53.000Z</time>
      </trkpt>
      <trkpt lat="45.9698" lon="6.24305">
        <ele>1400</ele>
        <time>2016-08-27T07:13:54.000Z</time>
      </trkpt>
      <trkpt lat="45.96979" lon="6.24306">
        <ele>1400</ele>
        <time>2016-08-27T07:13:55.000Z</time>
      </trkpt>
      <trkpt lat="45.96978" lon="6.24306">
        <ele>1401</ele>
        <time>2016-08-27T07:13:56.000Z</time>
      </trkpt>
      <trkpt lat="45.96976" lon="6.24306">
        <ele>1401</ele>
        <time>2016-08-27T07:13:57.000Z</time>
      </trkpt>
      <trkpt lat="45.96975" lon="6.24307">
        <ele>1401</ele>
        <time>2016-08-27T07:13:58.000Z</time>
      </trkpt>
      <trkpt lat="45.96974" lon="6.24307">
        <ele>1401</ele>
        <time>2016-08-27T07:13:59.000Z</time>
      </trkpt>
      <trkpt lat="45.96973" lon="6.24307">
        <ele>1401</ele>
        <time>2016-08-27T07:14:00.000Z</time>
      </trkpt>
      <trkpt lat="45.96973" lon="6.24307">
        <ele>1401</ele>
        <time>2016-08-27T07:14:01.000Z</time>
      </trkpt>
      <trkpt lat="45.96971" lon="6.24307">
        <ele>1401</ele>
        <time>2016-08-27T07:14:02.000Z</time>
      </trkpt>
      <trkpt lat="45.9697" lon="6.24307">
        <ele>1401</ele>
        <time>2016-08-27T07:14:03.000Z</time>
      </trkpt>
      <trkpt lat="45.96968" lon="6.24307">
        <ele>1401</ele>
        <time>2016-08-27T07:14:04.000Z</time>
      </trkpt>
      <trkpt lat="45.96966" lon="6.24306">
        <ele>1401</ele>
        <time>2016-08-27T07:14:05.000Z</time>
      </trkpt>
      <trkpt lat="45.96965" lon="6.24306">
        <ele>1401</ele>
        <time>2016-08-27T07:14:06.000Z</time>
      </trkpt>
      <trkpt lat="45.96963" lon="6.24305">
        <ele>1401</ele>
        <time>2016-08-27T07:14:07.000Z</time>
      </trkpt>
      <trkpt lat="45.96962" lon="6.24305">
        <ele>1402</ele>
        <time>2016-08-27T07:14:08.000Z</time>
      </trkpt>
      <trkpt lat="45.9696" lon="6.24305">
        <ele>1402</ele>
        <time>2016-08-27T07:14:09.000Z</time>
      </trkpt>
      <trkpt lat="45.96959" lon="6.24305">
        <ele>1402</ele>
        <time>2016-08-27T07:14:10.000Z</time>
      </trkpt>
      <trkpt lat="45.96958" lon="6.24305">
        <ele>1402</ele>
        <time>2016-08-27T07:14:11.000Z</time>
      </trkpt>
      <trkpt lat="45.96956" lon="6.24305">
        <ele>1402</ele>
        <time>2016-08-27T07:14:12.000Z</time>
      </trkpt>
      <trkpt lat="45.96955" lon="6.24304">
        <ele>1402</ele>
        <time>2016-08-27T07:14:13.000Z</time>
      </trkpt>
      <trkpt lat="45.96954" lon="6.24304">
        <ele>1402</ele>
        <time>2016-08-27T07:14:14.000Z</time>
      </trkpt>
      <trkpt lat="45.96953" lon="6.24304">
        <ele>1402</ele>
        <time>2016-08-27T07:14:15.000Z</time>
      </trkpt>
      <trkpt lat="45.96952" lon="6.24304">
        <ele>1402</ele>
        <time>2016-08-27T07:14:16.000Z</time>
      </trkpt>
      <trkpt lat="45.96951" lon="6.24304">
        <ele>1402</ele>
        <time>2016-08-27T07:14:17.000Z</time>
      </trkpt>
      <trkpt lat="45.9695" lon="6.24304">
        <ele>1403</ele>
        <time>2016-08-27T07:14:18.000Z</time>
      </trkpt>
      <trkpt lat="45.96948" lon="6.24304">
        <ele>1403</ele>
        <time>2016-08-27T07:14:19.000Z</time>
      </trkpt>
      <trkpt lat="45.96947" lon="6.24304">
        <ele>1403</ele>
        <time>2016-08-27T07:14:20.000Z</time>
      </trkpt>
      <trkpt lat="45.96946" lon="6.24304">
        <ele>1403</ele>
        <time>2016-08-27T07:14:21.000Z</time>
      </trkpt>
      <trkpt lat="45.96945" lon="6.24304">
        <ele>1404</ele>
        <time>2016-08-27T07:14:22.000Z</time>
      </trkpt>
      <trkpt lat="45.96944" lon="6.24303">
        <ele>1404</ele>
        <time>2016-08-27T07:14:23.000Z</time>
      </trkpt>
      <trkpt lat="45.96943" lon="6.24303">
        <ele>1404</ele>
        <time>2016-08-27T07:14:24.000Z</time>
      </trkpt>
      <trkpt lat="45.96942" lon="6.24303">
        <ele>1404</ele>
        <time>2016-08-27T07:14:25.000Z</time>
      </trkpt>
      <trkpt lat="45.96941" lon="6.24303">
        <ele>1404</ele>
        <time>2016-08-27T07:14:26.000Z</time>
      </trkpt>
      <trkpt lat="45.9694" lon="6.24303">
        <ele>1404</ele>
        <time>2016-08-27T07:14:27.000Z</time>
      </trkpt>
      <trkpt lat="45.96939" lon="6.24303">
        <ele>1405</ele>
        <time>2016-08-27T07:14:28.000Z</time>
      </trkpt>
      <trkpt lat="45.96938" lon="6.24303">
        <ele>1405</ele>
        <time>2016-08-27T07:14:29.000Z</time>
      </trkpt>
      <trkpt lat="45.96937" lon="6.24303">
        <ele>1406</ele>
        <time>2016-08-27T07:14:30.000Z</time>
      </trkpt>
      <trkpt lat="45.96936" lon="6.24303">
        <ele>1406</ele>
        <time>2016-08-27T07:14:31.000Z</time>
      </trkpt>
      <trkpt lat="45.96934" lon="6.24302">
        <ele>1406</ele>
        <time>2016-08-27T07:14:32.000Z</time>
      </trkpt>
      <trkpt lat="45.96933" lon="6.24302">
        <ele>1406</ele>
        <time>2016-08-27T07:14:33.000Z</time>
      </trkpt>
      <trkpt lat="45.96932" lon="6.24302">
        <ele>1406</ele>
        <time>2016-08-27T07:14:34.000Z</time>
      </trkpt>
      <trkpt lat="45.96931" lon="6.24302">
        <ele>1406</ele>
        <time>2016-08-27T07:14:35.000Z</time>
      </trkpt>
      <trkpt lat="45.9693" lon="6.24302">
        <ele>1407</ele>
        <time>2016-08-27T07:14:36.000Z</time>
      </trkpt>
      <trkpt lat="45.96928" lon="6.24301">
        <ele>1407</ele>
        <time>2016-08-27T07:14:37.000Z</time>
      </trkpt>
      <trkpt lat="45.96927" lon="6.24301">
        <ele>1407</ele>
        <time>2016-08-27T07:14:38.000Z</time>
      </trkpt>
      <trkpt lat="45.96926" lon="6.243">
        <ele>1407</ele>
        <time>2016-08-27T07:14:39.000Z</time>
      </trkpt>
      <trkpt lat="45.96925" lon="6.243">
        <ele>1407</ele>
        <time>2016-08-27T07:14:40.000Z</time>
      </trkpt>
      <trkpt lat="45.96924" lon="6.24299">
        <ele>1407</ele>
        <time>2016-08-27T07:14:41.000Z</time>
      </trkpt>
      <trkpt lat="45.96923" lon="6.24299">
        <ele>1408</ele>
        <time>2016-08-27T07:14:42.000Z</time>
      </trkpt>
      <trkpt lat="45.96922" lon="6.24298">
        <ele>1408</ele>
        <time>2016-08-27T07:14:43.000Z</time>
      </trkpt>
      <trkpt lat="45.96921" lon="6.24298">
        <ele>1408</ele>
        <time>2016-08-27T07:14:44.000Z</time>
      </trkpt>
      <trkpt lat="45.9692" lon="6.24298">
        <ele>1408</ele>
        <time>2016-08-27T07:14:45.000Z</time>
      </trkpt>
      <trkpt lat="45.9692" lon="6.24297">
        <ele>1409</ele>
        <time>2016-08-27T07:14:46.000Z</time>
      </trkpt>
      <trkpt lat="45.96919" lon="6.24297">
        <ele>1409</ele>
        <time>2016-08-27T07:14:47.000Z</time>
      </trkpt>
      <trkpt lat="45.96918" lon="6.24296">
        <ele>1409</ele>
        <time>2016-08-27T07:14:48.000Z</time>
      </trkpt>
      <trkpt lat="45.96917" lon="6.24296">
        <ele>1409</ele>
        <time>2016-08-27T07:14:49.000Z</time>
      </trkpt>
      <trkpt lat="45.96916" lon="6.24295">
        <ele>1409</ele>
        <time>2016-08-27T07:14:50.000Z</time>
      </trkpt>
      <trkpt lat="45.96916" lon="6.24294">
        <ele>1409</ele>
        <time>2016-08-27T07:14:51.000Z</time>
      </trkpt>
      <trkpt lat="45.96915" lon="6.24293">
        <ele>1409</ele>
        <time>2016-08-27T07:14:52.000Z</time>
      </trkpt>
      <trkpt lat="45.96914" lon="6.24293">
        <ele>1409</ele>
        <time>2016-08-27T07:14:53.000Z</time>
      </trkpt>
      <trkpt lat="45.96913" lon="6.24292">
        <ele>1410</ele>
        <time>2016-08-27T07:14:54.000Z</time>
      </trkpt>
      <trkpt lat="45.96913" lon="6.24291">
        <ele>1410</ele>
        <time>2016-08-27T07:14:55.000Z</time>
      </trkpt>
      <trkpt lat="45.96912" lon="6.2429">
        <ele>1410</ele>
        <time>2016-08-27T07:14:56.000Z</time>
      </trkpt>
      <trkpt lat="45.96912" lon="6.24289">
        <ele>1410</ele>
        <time>2016-08-27T07:14:57.000Z</time>
      </trkpt>
      <trkpt lat="45.96911" lon="6.24288">
        <ele>1410</ele>
        <time>2016-08-27T07:14:58.000Z</time>
      </trkpt>
      <trkpt lat="45.9691" lon="6.24288">
        <ele>1410</ele>
        <time>2016-08-27T07:14:59.000Z</time>
      </trkpt>
      <trkpt lat="45.9691" lon="6.24287">
        <ele>1411</ele>
        <time>2016-08-27T07:15:00.000Z</time>
      </trkpt>
      <trkpt lat="45.96909" lon="6.24286">
        <ele>1411</ele>
        <time>2016-08-27T07:15:01.000Z</time>
      </trkpt>
      <trkpt lat="45.96908" lon="6.24285">
        <ele>1411</ele>
        <time>2016-08-27T07:15:02.000Z</time>
      </trkpt>
      <trkpt lat="45.96907" lon="6.24284">
        <ele>1411</ele>
        <time>2016-08-27T07:15:03.000Z</time>
      </trkpt>
      <trkpt lat="45.96907" lon="6.24283">
        <ele>1412</ele>
        <time>2016-08-27T07:15:04.000Z</time>
      </trkpt>
      <trkpt lat="45.96906" lon="6.24282">
        <ele>1412</ele>
        <time>2016-08-27T07:15:05.000Z</time>
      </trkpt>
      <trkpt lat="45.96905" lon="6.24281">
        <ele>1413</ele>
        <time>2016-08-27T07:15:06.000Z</time>
      </trkpt>
      <trkpt lat="45.96905" lon="6.24281">
        <ele>1413</ele>
        <time>2016-08-27T07:15:07.000Z</time>
      </trkpt>
      <trkpt lat="45.96904" lon="6.2428">
        <ele>1414</ele>
        <time>2016-08-27T07:15:08.000Z</time>
      </trkpt>
      <trkpt lat="45.96903" lon="6.24278">
        <ele>1414</ele>
        <time>2016-08-27T07:15:09.000Z</time>
      </trkpt>
      <trkpt lat="45.96903" lon="6.24277">
        <ele>1415</ele>
        <time>2016-08-27T07:15:10.000Z</time>
      </trkpt>
      <trkpt lat="45.96902" lon="6.24276">
        <ele>1415</ele>
        <time>2016-08-27T07:15:11.000Z</time>
      </trkpt>
      <trkpt lat="45.96901" lon="6.24275">
        <ele>1415</ele>
        <time>2016-08-27T07:15:12.000Z</time>
      </trkpt>
      <trkpt lat="45.96901" lon="6.24274">
        <ele>1415</ele>
        <time>2016-08-27T07:15:13.000Z</time>
      </trkpt>
      <trkpt lat="45.969" lon="6.24272">
        <ele>1416</ele>
        <time>2016-08-27T07:15:14.000Z</time>
      </trkpt>
      <trkpt lat="45.969" lon="6.24271">
        <ele>1416</ele>
        <time>2016-08-27T07:15:15.000Z</time>
      </trkpt>
      <trkpt lat="45.96899" lon="6.2427">
        <ele>1417</ele>
        <time>2016-08-27T07:15:16.000Z</time>
      </trkpt>
      <trkpt lat="45.96898" lon="6.24269">
        <ele>1417</ele>
        <time>2016-08-27T07:15:17.000Z</time>
      </trkpt>
      <trkpt lat="45.96898" lon="6.24268">
        <ele>1417</ele>
        <time>2016-08-27T07:15:18.000Z</time>
      </trkpt>
      <trkpt lat="45.96897" lon="6.24267">
        <ele>1417</ele>
        <time>2016-08-27T07:15:19.000Z</time>
      </trkpt>
      <trkpt lat="45.96897" lon="6.24266">
        <ele>1418</ele>
        <time>2016-08-27T07:15:20.000Z</time>
      </trkpt>
      <trkpt lat="45.96896" lon="6.24265">
        <ele>1418</ele>
        <time>2016-08-27T07:15:21.000Z</time>
      </trkpt>
      <trkpt lat="45.96896" lon="6.24264">
        <ele>1418</ele>
        <time>2016-08-27T07:15:22.000Z</time>
      </trkpt>
      <trkpt lat="45.96895" lon="6.24263">
        <ele>1418</ele>
        <time>2016-08-27T07:15:23.000Z</time>
      </trkpt>
      <trkpt lat="45.96895" lon="6.24262">
        <ele>1418</ele>
        <time>2016-08-27T07:15:24.000Z</time>
      </trkpt>
      <trkpt lat="45.96894" lon="6.24261">
        <ele>1418</ele>
        <time>2016-08-27T07:15:25.000Z</time>
      </trkpt>
      <trkpt lat="45.96894" lon="6.24259">
        <ele>1418</ele>
        <time>2016-08-27T07:15:26.000Z</time>
      </trkpt>
      <trkpt lat="45.96893" lon="6.24258">
        <ele>1418</ele>
        <time>2016-08-27T07:15:27.000Z</time>
      </trkpt>
      <trkpt lat="45.96892" lon="6.24258">
        <ele>1419</ele>
        <time>2016-08-27T07:15:28.000Z</time>
      </trkpt>
      <trkpt lat="45.96892" lon="6.24257">
        <ele>1419</ele>
        <time>2016-08-27T07:15:29.000Z</time>
      </trkpt>
      <trkpt lat="45.96891" lon="6.24256">
        <ele>1419</ele>
        <time>2016-08-27T07:15:30.000Z</time>
      </trkpt>
      <trkpt lat="45.9689" lon="6.24256">
        <ele>1419</ele>
        <time>2016-08-27T07:15:31.000Z</time>
      </trkpt>
      <trkpt lat="45.9689" lon="6.24255">
        <ele>1419</ele>
        <time>2016-08-27T07:15:32.000Z</time>
      </trkpt>
      <trkpt lat="45.96889" lon="6.24254">
        <ele>1419</ele>
        <time>2016-08-27T07:15:33.000Z</time>
      </trkpt>
      <trkpt lat="45.96889" lon="6.24253">
        <ele>1419</ele>
        <time>2016-08-27T07:15:34.000Z</time>
      </trkpt>
      <trkpt lat="45.96888" lon="6.24252">
        <ele>1419</ele>
        <time>2016-08-27T07:15:35.000Z</time>
      </trkpt>
      <trkpt lat="45.96887" lon="6.24251">
        <ele>1420</ele>
        <time>2016-08-27T07:15:36.000Z</time>
      </trkpt>
      <trkpt lat="45.96886" lon="6.2425">
        <ele>1420</ele>
        <time>2016-08-27T07:15:37.000Z</time>
      </trkpt>
      <trkpt lat="45.96886" lon="6.24249">
        <ele>1420</ele>
        <time>2016-08-27T07:15:38.000Z</time>
      </trkpt>
      <trkpt lat="45.96885" lon="6.24248">
        <ele>1420</ele>
        <time>2016-08-27T07:15:39.000Z</time>
      </trkpt>
      <trkpt lat="45.96884" lon="6.24248">
        <ele>1420</ele>
        <time>2016-08-27T07:15:40.000Z</time>
      </trkpt>
      <trkpt lat="45.96884" lon="6.24247">
        <ele>1420</ele>
        <time>2016-08-27T07:15:41.000Z</time>
      </trkpt>
      <trkpt lat="45.96883" lon="6.24245">
        <ele>1421</ele>
        <time>2016-08-27T07:15:42.000Z</time>
      </trkpt>
      <trkpt lat="45.96883" lon="6.24244">
        <ele>1421</ele>
        <time>2016-08-27T07:15:43.000Z</time>
      </trkpt>
      <trkpt lat="45.96882" lon="6.24243">
        <ele>1421</ele>
        <time>2016-08-27T07:15:44.000Z</time>
      </trkpt>
      <trkpt lat="45.96881" lon="6.24242">
        <ele>1421</ele>
        <time>2016-08-27T07:15:45.000Z</time>
      </trkpt>
      <trkpt lat="45.96881" lon="6.24241">
        <ele>1421</ele>
        <time>2016-08-27T07:15:46.000Z</time>
      </trkpt>
      <trkpt lat="45.9688" lon="6.2424">
        <ele>1421</ele>
        <time>2016-08-27T07:15:47.000Z</time>
      </trkpt>
      <trkpt lat="45.96879" lon="6.2424">
        <ele>1422</ele>
        <time>2016-08-27T07:15:48.000Z</time>
      </trkpt>
      <trkpt lat="45.96878" lon="6.24239">
        <ele>1422</ele>
        <time>2016-08-27T07:15:49.000Z</time>
      </trkpt>
      <trkpt lat="45.96877" lon="6.24238">
        <ele>1422</ele>
        <time>2016-08-27T07:15:50.000Z</time>
      </trkpt>
      <trkpt lat="45.96876" lon="6.24238">
        <ele>1422</ele>
        <time>2016-08-27T07:15:51.000Z</time>
      </trkpt>
      <trkpt lat="45.96875" lon="6.24237">
        <ele>1423</ele>
        <time>2016-08-27T07:15:52.000Z</time>
      </trkpt>
      <trkpt lat="45.96875" lon="6.24237">
        <ele>1423</ele>
        <time>2016-08-27T07:15:53.000Z</time>
      </trkpt>
      <trkpt lat="45.96874" lon="6.24236">
        <ele>1423</ele>
        <time>2016-08-27T07:15:54.000Z</time>
      </trkpt>
      <trkpt lat="45.96873" lon="6.24236">
        <ele>1423</ele>
        <time>2016-08-27T07:15:55.000Z</time>
      </trkpt>
      <trkpt lat="45.96872" lon="6.24235">
        <ele>1423</ele>
        <time>2016-08-27T07:15:56.000Z</time>
      </trkpt>
      <trkpt lat="45.96871" lon="6.24235">
        <ele>1423</ele>
        <time>2016-08-27T07:15:57.000Z</time>
      </trkpt>
      <trkpt lat="45.9687" lon="6.24234">
        <ele>1424</ele>
        <time>2016-08-27T07:15:58.000Z</time>
      </trkpt>
      <trkpt lat="45.96869" lon="6.24233">
        <ele>1424</ele>
        <time>2016-08-27T07:15:59.000Z</time>
      </trkpt>
      <trkpt lat="45.96868" lon="6.24232">
        <ele>1424</ele>
        <time>2016-08-27T07:16:00.000Z</time>
      </trkpt>
      <trkpt lat="45.96868" lon="6.24232">
        <ele>1424</ele>
        <time>2016-08-27T07:16:01.000Z</time>
      </trkpt>
      <trkpt lat="45.96867" lon="6.24231">
        <ele>1425</ele>
        <time>2016-08-27T07:16:02.000Z</time>
      </trkpt>
      <trkpt lat="45.96866" lon="6.24231">
        <ele>1425</ele>
        <time>2016-08-27T07:16:03.000Z</time>
      </trkpt>
      <trkpt lat="45.96865" lon="6.24231">
        <ele>1425</ele>
        <time>2016-08-27T07:16:04.000Z</time>
      </trkpt>
      <trkpt lat="45.96865" lon="6.24231">
        <ele>1425</ele>
        <time>2016-08-27T07:16:05.000Z</time>
      </trkpt>
      <trkpt lat="45.96864" lon="6.24231">
        <ele>1426</ele>
        <time>2016-08-27T07:16:06.000Z</time>
      </trkpt>
      <trkpt lat="45.96863" lon="6.24231">
        <ele>1426</ele>
        <time>2016-08-27T07:16:07.000Z</time>
      </trkpt>
      <trkpt lat="45.96863" lon="6.24231">
        <ele>1426</ele>
        <time>2016-08-27T07:16:08.000Z</time>
      </trkpt>
      <trkpt lat="45.96863" lon="6.24232">
        <ele>1426</ele>
        <time>2016-08-27T07:16:09.000Z</time>
      </trkpt>
      <trkpt lat="45.96863" lon="6.24233">
        <ele>1426</ele>
        <time>2016-08-27T07:16:10.000Z</time>
      </trkpt>
      <trkpt lat="45.96864" lon="6.24234">
        <ele>1426</ele>
        <time>2016-08-27T07:16:11.000Z</time>
      </trkpt>
      <trkpt lat="45.96864" lon="6.24235">
        <ele>1427</ele>
        <time>2016-08-27T07:16:12.000Z</time>
      </trkpt>
      <trkpt lat="45.96865" lon="6.24236">
        <ele>1427</ele>
        <time>2016-08-27T07:16:13.000Z</time>
      </trkpt>
      <trkpt lat="45.96865" lon="6.24237">
        <ele>1428</ele>
        <time>2016-08-27T07:16:14.000Z</time>
      </trkpt>
      <trkpt lat="45.96866" lon="6.24238">
        <ele>1428</ele>
        <time>2016-08-27T07:16:15.000Z</time>
      </trkpt>
      <trkpt lat="45.96867" lon="6.24239">
        <ele>1428</ele>
        <time>2016-08-27T07:16:16.000Z</time>
      </trkpt>
      <trkpt lat="45.96867" lon="6.24239">
        <ele>1428</ele>
        <time>2016-08-27T07:16:17.000Z</time>
      </trkpt>
      <trkpt lat="45.96868" lon="6.2424">
        <ele>1429</ele>
        <time>2016-08-27T07:16:18.000Z</time>
      </trkpt>
      <trkpt lat="45.96869" lon="6.2424">
        <ele>1429</ele>
        <time>2016-08-27T07:16:19.000Z</time>
      </trkpt>
      <trkpt lat="45.9687" lon="6.24241">
        <ele>1430</ele>
        <time>2016-08-27T07:16:20.000Z</time>
      </trkpt>
      <trkpt lat="45.9687" lon="6.24241">
        <ele>1430</ele>
        <time>2016-08-27T07:16:21.000Z</time>
      </trkpt>
      <trkpt lat="45.96871" lon="6.24242">
        <ele>1430</ele>
        <time>2016-08-27T07:16:22.000Z</time>
      </trkpt>
      <trkpt lat="45.96872" lon="6.24243">
        <ele>1430</ele>
        <time>2016-08-27T07:16:23.000Z</time>
      </trkpt>
      <trkpt lat="45.96873" lon="6.24243">
        <ele>1431</ele>
        <time>2016-08-27T07:16:24.000Z</time>
      </trkpt>
      <trkpt lat="45.96873" lon="6.24244">
        <ele>1431</ele>
        <time>2016-08-27T07:16:25.000Z</time>
      </trkpt>
      <trkpt lat="45.96873" lon="6.24245">
        <ele>1432</ele>
        <time>2016-08-27T07:16:26.000Z</time>
      </trkpt>
      <trkpt lat="45.96873" lon="6.24246">
        <ele>1432</ele>
        <time>2016-08-27T07:16:27.000Z</time>
      </trkpt>
      <trkpt lat="45.96874" lon="6.24246">
        <ele>1432</ele>
        <time>2016-08-27T07:16:28.000Z</time>
      </trkpt>
      <trkpt lat="45.96874" lon="6.24247">
        <ele>1432</ele>
        <time>2016-08-27T07:16:29.000Z</time>
      </trkpt>
      <trkpt lat="45.96875" lon="6.24248">
        <ele>1432</ele>
        <time>2016-08-27T07:16:30.000Z</time>
      </trkpt>
      <trkpt lat="45.96875" lon="6.24249">
        <ele>1432</ele>
        <time>2016-08-27T07:16:31.000Z</time>
      </trkpt>
      <trkpt lat="45.96876" lon="6.24251">
        <ele>1432</ele>
        <time>2016-08-27T07:16:32.000Z</time>
      </trkpt>
      <trkpt lat="45.96876" lon="6.24252">
        <ele>1432</ele>
        <time>2016-08-27T07:16:33.000Z</time>
      </trkpt>
      <trkpt lat="45.96876" lon="6.24253">
        <ele>1433</ele>
        <time>2016-08-27T07:16:34.000Z</time>
      </trkpt>
      <trkpt lat="45.96876" lon="6.24254">
        <ele>1433</ele>
        <time>2016-08-27T07:16:35.000Z</time>
      </trkpt>
      <trkpt lat="45.96877" lon="6.24256">
        <ele>1433</ele>
        <time>2016-08-27T07:16:36.000Z</time>
      </trkpt>
      <trkpt lat="45.96877" lon="6.24257">
        <ele>1433</ele>
        <time>2016-08-27T07:16:37.000Z</time>
      </trkpt>
      <trkpt lat="45.96877" lon="6.24258">
        <ele>1433</ele>
        <time>2016-08-27T07:16:38.000Z</time>
      </trkpt>
      <trkpt lat="45.96877" lon="6.24259">
        <ele>1433</ele>
        <time>2016-08-27T07:16:39.000Z</time>
      </trkpt>
      <trkpt lat="45.96877" lon="6.2426">
        <ele>1434</ele>
        <time>2016-08-27T07:16:40.000Z</time>
      </trkpt>
      <trkpt lat="45.96877" lon="6.24261">
        <ele>1434</ele>
        <time>2016-08-27T07:16:41.000Z</time>
      </trkpt>
      <trkpt lat="45.96877" lon="6.24263">
        <ele>1434</ele>
        <time>2016-08-27T07:16:42.000Z</time>
      </trkpt>
      <trkpt lat="45.96877" lon="6.24264">
        <ele>1434</ele>
        <time>2016-08-27T07:16:43.000Z</time>
      </trkpt>
      <trkpt lat="45.96877" lon="6.24265">
        <ele>1434</ele>
        <time>2016-08-27T07:16:44.000Z</time>
      </trkpt>
      <trkpt lat="45.96877" lon="6.24266">
        <ele>1434</ele>
        <time>2016-08-27T07:16:45.000Z</time>
      </trkpt>
      <trkpt lat="45.96877" lon="6.24267">
        <ele>1434</ele>
        <time>2016-08-27T07:16:46.000Z</time>
      </trkpt>
      <trkpt lat="45.96877" lon="6.24269">
        <ele>1434</ele>
        <time>2016-08-27T07:16:47.000Z</time>
      </trkpt>
      <trkpt lat="45.96877" lon="6.2427">
        <ele>1434</ele>
        <time>2016-08-27T07:16:48.000Z</time>
      </trkpt>
      <trkpt lat="45.96878" lon="6.24271">
        <ele>1434</ele>
        <time>2016-08-27T07:16:49.000Z</time>
      </trkpt>
      <trkpt lat="45.96878" lon="6.24272">
        <ele>1434</ele>
        <time>2016-08-27T07:16:50.000Z</time>
      </trkpt>
      <trkpt lat="45.96879" lon="6.24273">
        <ele>1434</ele>
        <time>2016-08-27T07:16:51.000Z</time>
      </trkpt>
      <trkpt lat="45.96879" lon="6.24274">
        <ele>1434</ele>
        <time>2016-08-27T07:16:52.000Z</time>
      </trkpt>
      <trkpt lat="45.9688" lon="6.24275">
        <ele>1434</ele>
        <time>2016-08-27T07:16:53.000Z</time>
      </trkpt>
      <trkpt lat="45.96881" lon="6.24276">
        <ele>1434</ele>
        <time>2016-08-27T07:16:54.000Z</time>
      </trkpt>
      <trkpt lat="45.96881" lon="6.24277">
        <ele>1434</ele>
        <time>2016-08-27T07:16:55.000Z</time>
      </trkpt>
      <trkpt lat="45.96882" lon="6.24278">
        <ele>1435</ele>
        <time>2016-08-27T07:16:56.000Z</time>
      </trkpt>
      <trkpt lat="45.96883" lon="6.24279">
        <ele>1435</ele>
        <time>2016-08-27T07:16:57.000Z</time>
      </trkpt>
      <trkpt lat="45.96884" lon="6.2428">
        <ele>1435</ele>
        <time>2016-08-27T07:16:58.000Z</time>
      </trkpt>
      <trkpt lat="45.96884" lon="6.24281">
        <ele>1435</ele>
        <time>2016-08-27T07:16:59.000Z</time>
      </trkpt>
      <trkpt lat="45.96885" lon="6.24282">
        <ele>1435</ele>
        <time>2016-08-27T07:17:00.000Z</time>
      </trkpt>
      <trkpt lat="45.96885" lon="6.24284">
        <ele>1435</ele>
        <time>2016-08-27T07:17:01.000Z</time>
      </trkpt>
      <trkpt lat="45.96885" lon="6.24285">
        <ele>1436</ele>
        <time>2016-08-27T07:17:02.000Z</time>
      </trkpt>
      <trkpt lat="45.96886" lon="6.24287">
        <ele>1436</ele>
        <time>2016-08-27T07:17:03.000Z</time>
      </trkpt>
      <trkpt lat="45.96886" lon="6.24288">
        <ele>1436</ele>
        <time>2016-08-27T07:17:04.000Z</time>
      </trkpt>
      <trkpt lat="45.96886" lon="6.24289">
        <ele>1436</ele>
        <time>2016-08-27T07:17:05.000Z</time>
      </trkpt>
      <trkpt lat="45.96886" lon="6.2429">
        <ele>1437</ele>
        <time>2016-08-27T07:17:06.000Z</time>
      </trkpt>
      <trkpt lat="45.96886" lon="6.24291">
        <ele>1437</ele>
        <time>2016-08-27T07:17:07.000Z</time>
      </trkpt>
      <trkpt lat="45.96886" lon="6.24293">
        <ele>1438</ele>
        <time>2016-08-27T07:17:08.000Z</time>
      </trkpt>
      <trkpt lat="45.96886" lon="6.24294">
        <ele>1438</ele>
        <time>2016-08-27T07:17:09.000Z</time>
      </trkpt>
      <trkpt lat="45.96886" lon="6.24295">
        <ele>1439</ele>
        <time>2016-08-27T07:17:10.000Z</time>
      </trkpt>
      <trkpt lat="45.96886" lon="6.24296">
        <ele>1439</ele>
        <time>2016-08-27T07:17:11.000Z</time>
      </trkpt>
      <trkpt lat="45.96886" lon="6.24298">
        <ele>1439</ele>
        <time>2016-08-27T07:17:12.000Z</time>
      </trkpt>
      <trkpt lat="45.96886" lon="6.24299">
        <ele>1439</ele>
        <time>2016-08-27T07:17:13.000Z</time>
      </trkpt>
      <trkpt lat="45.96886" lon="6.243">
        <ele>1440</ele>
        <time>2016-08-27T07:17:14.000Z</time>
      </trkpt>
      <trkpt lat="45.96886" lon="6.24301">
        <ele>1440</ele>
        <time>2016-08-27T07:17:15.000Z</time>
      </trkpt>
      <trkpt lat="45.96886" lon="6.24303">
        <ele>1441</ele>
        <time>2016-08-27T07:17:16.000Z</time>
      </trkpt>
      <trkpt lat="45.96886" lon="6.24304">
        <ele>1441</ele>
        <time>2016-08-27T07:17:17.000Z</time>
      </trkpt>
      <trkpt lat="45.96887" lon="6.24305">
        <ele>1442</ele>
        <time>2016-08-27T07:17:18.000Z</time>
      </trkpt>
      <trkpt lat="45.96887" lon="6.24306">
        <ele>1442</ele>
        <time>2016-08-27T07:17:19.000Z</time>
      </trkpt>
      <trkpt lat="45.96887" lon="6.24308">
        <ele>1443</ele>
        <time>2016-08-27T07:17:20.000Z</time>
      </trkpt>
      <trkpt lat="45.96888" lon="6.24309">
        <ele>1443</ele>
        <time>2016-08-27T07:17:21.000Z</time>
      </trkpt>
      <trkpt lat="45.96888" lon="6.2431">
        <ele>1443</ele>
        <time>2016-08-27T07:17:22.000Z</time>
      </trkpt>
      <trkpt lat="45.96888" lon="6.24311">
        <ele>1443</ele>
        <time>2016-08-27T07:17:23.000Z</time>
      </trkpt>
      <trkpt lat="45.96888" lon="6.24312">
        <ele>1443</ele>
        <time>2016-08-27T07:17:24.000Z</time>
      </trkpt>
      <trkpt lat="45.96889" lon="6.24313">
        <ele>1443</ele>
        <time>2016-08-27T07:17:25.000Z</time>
      </trkpt>
      <trkpt lat="45.96889" lon="6.24314">
        <ele>1444</ele>
        <time>2016-08-27T07:17:26.000Z</time>
      </trkpt>
      <trkpt lat="45.96889" lon="6.24315">
        <ele>1444</ele>
        <time>2016-08-27T07:17:27.000Z</time>
      </trkpt>
      <trkpt lat="45.96889" lon="6.24316">
        <ele>1444</ele>
        <time>2016-08-27T07:17:28.000Z</time>
      </trkpt>
      <trkpt lat="45.96889" lon="6.24317">
        <ele>1444</ele>
        <time>2016-08-27T07:17:29.000Z</time>
      </trkpt>
      <trkpt lat="45.9689" lon="6.24318">
        <ele>1445</ele>
        <time>2016-08-27T07:17:30.000Z</time>
      </trkpt>
      <trkpt lat="45.9689" lon="6.24319">
        <ele>1445</ele>
        <time>2016-08-27T07:17:31.000Z</time>
      </trkpt>
      <trkpt lat="45.9689" lon="6.24319">
        <ele>1445</ele>
        <time>2016-08-27T07:17:32.000Z</time>
      </trkpt>
      <trkpt lat="45.96891" lon="6.24321">
        <ele>1445</ele>
        <time>2016-08-27T07:17:33.000Z</time>
      </trkpt>
      <trkpt lat="45.96891" lon="6.24322">
        <ele>1446</ele>
        <time>2016-08-27T07:17:34.000Z</time>
      </trkpt>
      <trkpt lat="45.96892" lon="6.24323">
        <ele>1446</ele>
        <time>2016-08-27T07:17:35.000Z</time>
      </trkpt>
      <trkpt lat="45.96892" lon="6.24324">
        <ele>1447</ele>
        <time>2016-08-27T07:17:36.000Z</time>
      </trkpt>
      <trkpt lat="45.96893" lon="6.24325">
        <ele>1447</ele>
        <time>2016-08-27T07:17:37.000Z</time>
      </trkpt>
      <trkpt lat="45.96893" lon="6.24326">
        <ele>1447</ele>
        <time>2016-08-27T07:17:38.000Z</time>
      </trkpt>
      <trkpt lat="45.96893" lon="6.24327">
        <ele>1447</ele>
        <time>2016-08-27T07:17:39.000Z</time>
      </trkpt>
      <trkpt lat="45.96893" lon="6.24328">
        <ele>1448</ele>
        <time>2016-08-27T07:17:40.000Z</time>
      </trkpt>
      <trkpt lat="45.96894" lon="6.24329">
        <ele>1448</ele>
        <time>2016-08-27T07:17:41.000Z</time>
      </trkpt>
      <trkpt lat="45.96894" lon="6.24331">
        <ele>1449</ele>
        <time>2016-08-27T07:17:42.000Z</time>
      </trkpt>
      <trkpt lat="45.96895" lon="6.24331">
        <ele>1449</ele>
        <time>2016-08-27T07:17:43.000Z</time>
      </trkpt>
      <trkpt lat="45.96896" lon="6.24332">
        <ele>1450</ele>
        <time>2016-08-27T07:17:44.000Z</time>
      </trkpt>
      <trkpt lat="45.96897" lon="6.24333">
        <ele>1450</ele>
        <time>2016-08-27T07:17:45.000Z</time>
      </trkpt>
      <trkpt lat="45.96898" lon="6.24334">
        <ele>1450</ele>
        <time>2016-08-27T07:17:46.000Z</time>
      </trkpt>
      <trkpt lat="45.96899" lon="6.24335">
        <ele>1450</ele>
        <time>2016-08-27T07:17:47.000Z</time>
      </trkpt>
      <trkpt lat="45.969" lon="6.24336">
        <ele>1451</ele>
        <time>2016-08-27T07:17:48.000Z</time>
      </trkpt>
      <trkpt lat="45.969" lon="6.24337">
        <ele>1451</ele>
        <time>2016-08-27T07:17:49.000Z</time>
      </trkpt>
      <trkpt lat="45.96901" lon="6.24338">
        <ele>1452</ele>
        <time>2016-08-27T07:17:50.000Z</time>
      </trkpt>
      <trkpt lat="45.96902" lon="6.24339">
        <ele>1452</ele>
        <time>2016-08-27T07:17:51.000Z</time>
      </trkpt>
      <trkpt lat="45.96903" lon="6.2434">
        <ele>1452</ele>
        <time>2016-08-27T07:17:52.000Z</time>
      </trkpt>
      <trkpt lat="45.96903" lon="6.24341">
        <ele>1452</ele>
        <time>2016-08-27T07:17:53.000Z</time>
      </trkpt>
      <trkpt lat="45.96904" lon="6.24341">
        <ele>1453</ele>
        <time>2016-08-27T07:17:54.000Z</time>
      </trkpt>
      <trkpt lat="45.96904" lon="6.24342">
        <ele>1453</ele>
        <time>2016-08-27T07:17:55.000Z</time>
      </trkpt>
      <trkpt lat="45.96905" lon="6.24343">
        <ele>1453</ele>
        <time>2016-08-27T07:17:56.000Z</time>
      </trkpt>
      <trkpt lat="45.96905" lon="6.24343">
        <ele>1453</ele>
        <time>2016-08-27T07:17:57.000Z</time>
      </trkpt>
      <trkpt lat="45.96906" lon="6.24344">
        <ele>1454</ele>
        <time>2016-08-27T07:17:58.000Z</time>
      </trkpt>
      <trkpt lat="45.96907" lon="6.24345">
        <ele>1454</ele>
        <time>2016-08-27T07:17:59.000Z</time>
      </trkpt>
      <trkpt lat="45.96908" lon="6.24346">
        <ele>1454</ele>
        <time>2016-08-27T07:18:00.000Z</time>
      </trkpt>
      <trkpt lat="45.9691" lon="6.24347">
        <ele>1454</ele>
        <time>2016-08-27T07:18:01.000Z</time>
      </trkpt>
      <trkpt lat="45.96911" lon="6.24348">
        <ele>1455</ele>
        <time>2016-08-27T07:18:02.000Z</time>
      </trkpt>
      <trkpt lat="45.96912" lon="6.24348">
        <ele>1455</ele>
        <time>2016-08-27T07:18:03.000Z</time>
      </trkpt>
      <trkpt lat="45.96913" lon="6.24349">
        <ele>1455</ele>
        <time>2016-08-27T07:18:04.000Z</time>
      </trkpt>
      <trkpt lat="45.96915" lon="6.2435">
        <ele>1455</ele>
        <time>2016-08-27T07:18:05.000Z</time>
      </trkpt>
      <trkpt lat="45.96916" lon="6.2435">
        <ele>1456</ele>
        <time>2016-08-27T07:18:06.000Z</time>
      </trkpt>
      <trkpt lat="45.96917" lon="6.24351">
        <ele>1456</ele>
        <time>2016-08-27T07:18:07.000Z</time>
      </trkpt>
      <trkpt lat="45.96919" lon="6.24352">
        <ele>1456</ele>
        <time>2016-08-27T07:18:08.000Z</time>
      </trkpt>
      <trkpt lat="45.9692" lon="6.24352">
        <ele>1456</ele>
        <time>2016-08-27T07:18:09.000Z</time>
      </trkpt>
      <trkpt lat="45.96921" lon="6.24352">
        <ele>1456</ele>
        <time>2016-08-27T07:18:10.000Z</time>
      </trkpt>
      <trkpt lat="45.96922" lon="6.24353">
        <ele>1456</ele>
        <time>2016-08-27T07:18:11.000Z</time>
      </trkpt>
      <trkpt lat="45.96922" lon="6.24353">
        <ele>1457</ele>
        <time>2016-08-27T07:18:12.000Z</time>
      </trkpt>
      <trkpt lat="45.96923" lon="6.24353">
        <ele>1457</ele>
        <time>2016-08-27T07:18:13.000Z</time>
      </trkpt>
      <trkpt lat="45.96923" lon="6.24353">
        <ele>1457</ele>
        <time>2016-08-27T07:18:14.000Z</time>
      </trkpt>
      <trkpt lat="45.96923" lon="6.24353">
        <ele>1457</ele>
        <time>2016-08-27T07:18:15.000Z</time>
      </trkpt>
      <trkpt lat="45.96924" lon="6.24353">
        <ele>1457</ele>
        <time>2016-08-27T07:18:16.000Z</time>
      </trkpt>
      <trkpt lat="45.96925" lon="6.24354">
        <ele>1457</ele>
        <time>2016-08-27T07:18:17.000Z</time>
      </trkpt>
      <trkpt lat="45.96926" lon="6.24354">
        <ele>1458</ele>
        <time>2016-08-27T07:18:18.000Z</time>
      </trkpt>
      <trkpt lat="45.96928" lon="6.24354">
        <ele>1458</ele>
        <time>2016-08-27T07:18:19.000Z</time>
      </trkpt>
      <trkpt lat="45.96929" lon="6.24355">
        <ele>1458</ele>
        <time>2016-08-27T07:18:20.000Z</time>
      </trkpt>
      <trkpt lat="45.9693" lon="6.24356">
        <ele>1458</ele>
        <time>2016-08-27T07:18:21.000Z</time>
      </trkpt>
      <trkpt lat="45.96931" lon="6.24356">
        <ele>1458</ele>
        <time>2016-08-27T07:18:22.000Z</time>
      </trkpt>
      <trkpt lat="45.96932" lon="6.24357">
        <ele>1458</ele>
        <time>2016-08-27T07:18:23.000Z</time>
      </trkpt>
      <trkpt lat="45.96934" lon="6.24358">
        <ele>1458</ele>
        <time>2016-08-27T07:18:24.000Z</time>
      </trkpt>
      <trkpt lat="45.96935" lon="6.24358">
        <ele>1458</ele>
        <time>2016-08-27T07:18:25.000Z</time>
      </trkpt>
      <trkpt lat="45.96936" lon="6.24359">
        <ele>1459</ele>
        <time>2016-08-27T07:18:26.000Z</time>
      </trkpt>
      <trkpt lat="45.96937" lon="6.2436">
        <ele>1459</ele>
        <time>2016-08-27T07:18:27.000Z</time>
      </trkpt>
      <trkpt lat="45.96939" lon="6.2436">
        <ele>1459</ele>
        <time>2016-08-27T07:18:28.000Z</time>
      </trkpt>
      <trkpt lat="45.9694" lon="6.24361">
        <ele>1459</ele>
        <time>2016-08-27T07:18:29.000Z</time>
      </trkpt>
      <trkpt lat="45.96941" lon="6.24362">
        <ele>1459</ele>
        <time>2016-08-27T07:18:30.000Z</time>
      </trkpt>
      <trkpt lat="45.96942" lon="6.24363">
        <ele>1459</ele>
        <time>2016-08-27T07:18:31.000Z</time>
      </trkpt>
      <trkpt lat="45.96942" lon="6.24363">
        <ele>1460</ele>
        <time>2016-08-27T07:18:32.000Z</time>
      </trkpt>
      <trkpt lat="45.96943" lon="6.24364">
        <ele>1460</ele>
        <time>2016-08-27T07:18:33.000Z</time>
      </trkpt>
      <trkpt lat="45.96943" lon="6.24365">
        <ele>1460</ele>
        <time>2016-08-27T07:18:34.000Z</time>
      </trkpt>
      <trkpt lat="45.96944" lon="6.24366">
        <ele>1460</ele>
        <time>2016-08-27T07:18:35.000Z</time>
      </trkpt>
      <trkpt lat="45.96945" lon="6.24367">
        <ele>1460</ele>
        <time>2016-08-27T07:18:36.000Z</time>
      </trkpt>
      <trkpt lat="45.96946" lon="6.24368">
        <ele>1460</ele>
        <time>2016-08-27T07:18:37.000Z</time>
      </trkpt>
      <trkpt lat="45.96946" lon="6.24369">
        <ele>1460</ele>
        <time>2016-08-27T07:18:38.000Z</time>
      </trkpt>
      <trkpt lat="45.96947" lon="6.2437">
        <ele>1460</ele>
        <time>2016-08-27T07:18:39.000Z</time>
      </trkpt>
      <trkpt lat="45.96948" lon="6.24371">
        <ele>1460</ele>
        <time>2016-08-27T07:18:40.000Z</time>
      </trkpt>
      <trkpt lat="45.96949" lon="6.24371">
        <ele>1460</ele>
        <time>2016-08-27T07:18:41.000Z</time>
      </trkpt>
      <trkpt lat="45.9695" lon="6.24372">
        <ele>1461</ele>
        <time>2016-08-27T07:18:42.000Z</time>
      </trkpt>
      <trkpt lat="45.96951" lon="6.24372">
        <ele>1461</ele>
        <time>2016-08-27T07:18:43.000Z</time>
      </trkpt>
      <trkpt lat="45.96952" lon="6.24373">
        <ele>1461</ele>
        <time>2016-08-27T07:18:44.000Z</time>
      </trkpt>
      <trkpt lat="45.96953" lon="6.24374">
        <ele>1461</ele>
        <time>2016-08-27T07:18:45.000Z</time>
      </trkpt>
      <trkpt lat="45.96954" lon="6.24375">
        <ele>1461</ele>
        <time>2016-08-27T07:18:46.000Z</time>
      </trkpt>
      <trkpt lat="45.96954" lon="6.24376">
        <ele>1461</ele>
        <time>2016-08-27T07:18:47.000Z</time>
      </trkpt>
      <trkpt lat="45.96954" lon="6.24376">
        <ele>1461</ele>
        <time>2016-08-27T07:18:48.000Z</time>
      </trkpt>
      <trkpt lat="45.96954" lon="6.24376">
        <ele>1461</ele>
        <time>2016-08-27T07:18:49.000Z</time>
      </trkpt>
      <trkpt lat="45.96954" lon="6.24376">
        <ele>1461</ele>
        <time>2016-08-27T07:18:50.000Z</time>
      </trkpt>
      <trkpt lat="45.96954" lon="6.24376">
        <ele>1461</ele>
        <time>2016-08-27T07:18:51.000Z</time>
      </trkpt>
      <trkpt lat="45.96954" lon="6.24377">
        <ele>1461</ele>
        <time>2016-08-27T07:18:52.000Z</time>
      </trkpt>
      <trkpt lat="45.96954" lon="6.24377">
        <ele>1461</ele>
        <time>2016-08-27T07:18:53.000Z</time>
      </trkpt>
      <trkpt lat="45.96953" lon="6.24377">
        <ele>1461</ele>
        <time>2016-08-27T07:18:54.000Z</time>
      </trkpt>
      <trkpt lat="45.96953" lon="6.24377">
        <ele>1461</ele>
        <time>2016-08-27T07:18:55.000Z</time>
      </trkpt>
      <trkpt lat="45.96953" lon="6.24377">
        <ele>1461</ele>
        <time>2016-08-27T07:18:56.000Z</time>
      </trkpt>
      <trkpt lat="45.96952" lon="6.24377">
        <ele>1461</ele>
        <time>2016-08-27T07:18:57.000Z</time>
      </trkpt>
      <trkpt lat="45.96952" lon="6.24377">
        <ele>1461</ele>
        <time>2016-08-27T07:18:58.000Z</time>
      </trkpt>
      <trkpt lat="45.96951" lon="6.24377">
        <ele>1461</ele>
        <time>2016-08-27T07:18:59.000Z</time>
      </trkpt>
      <trkpt lat="45.96951" lon="6.24377">
        <ele>1461</ele>
        <time>2016-08-27T07:19:00.000Z</time>
      </trkpt>
      <trkpt lat="45.9695" lon="6.24377">
        <ele>1461</ele>
        <time>2016-08-27T07:19:01.000Z</time>
      </trkpt>
      <trkpt lat="45.9695" lon="6.24377">
        <ele>1461</ele>
        <time>2016-08-27T07:19:02.000Z</time>
      </trkpt>
      <trkpt lat="45.96949" lon="6.24377">
        <ele>1461</ele>
        <time>2016-08-27T07:19:03.000Z</time>
      </trkpt>
      <trkpt lat="45.96948" lon="6.24378">
        <ele>1461</ele>
        <time>2016-08-27T07:19:04.000Z</time>
      </trkpt>
      <trkpt lat="45.96948" lon="6.24378">
        <ele>1461</ele>
        <time>2016-08-27T07:19:05.000Z</time>
      </trkpt>
      <trkpt lat="45.96947" lon="6.24378">
        <ele>1461</ele>
        <time>2016-08-27T07:19:06.000Z</time>
      </trkpt>
      <trkpt lat="45.96947" lon="6.24378">
        <ele>1461</ele>
        <time>2016-08-27T07:19:07.000Z</time>
      </trkpt>
      <trkpt lat="45.96947" lon="6.24378">
        <ele>1461</ele>
        <time>2016-08-27T07:19:08.000Z</time>
      </trkpt>
      <trkpt lat="45.96946" lon="6.24378">
        <ele>1461</ele>
        <time>2016-08-27T07:19:09.000Z</time>
      </trkpt>
      <trkpt lat="45.96946" lon="6.24379">
        <ele>1461</ele>
        <time>2016-08-27T07:19:10.000Z</time>
      </trkpt>
      <trkpt lat="45.96945" lon="6.24379">
        <ele>1461</ele>
        <time>2016-08-27T07:19:11.000Z</time>
      </trkpt>
      <trkpt lat="45.96945" lon="6.24379">
        <ele>1461</ele>
        <time>2016-08-27T07:19:12.000Z</time>
      </trkpt>
      <trkpt lat="45.96944" lon="6.24379">
        <ele>1461</ele>
        <time>2016-08-27T07:19:13.000Z</time>
      </trkpt>
      <trkpt lat="45.96943" lon="6.24379">
        <ele>1461</ele>
        <time>2016-08-27T07:19:14.000Z</time>
      </trkpt>
      <trkpt lat="45.96943" lon="6.2438">
        <ele>1461</ele>
        <time>2016-08-27T07:19:15.000Z</time>
      </trkpt>
      <trkpt lat="45.96942" lon="6.2438">
        <ele>1461</ele>
        <time>2016-08-27T07:19:16.000Z</time>
      </trkpt>
      <trkpt lat="45.96942" lon="6.2438">
        <ele>1461</ele>
        <time>2016-08-27T07:19:17.000Z</time>
      </trkpt>
      <trkpt lat="45.96941" lon="6.2438">
        <ele>1461</ele>
        <time>2016-08-27T07:19:18.000Z</time>
      </trkpt>
      <trkpt lat="45.9694" lon="6.24381">
        <ele>1461</ele>
        <time>2016-08-27T07:19:19.000Z</time>
      </trkpt>
      <trkpt lat="45.96939" lon="6.24381">
        <ele>1461</ele>
        <time>2016-08-27T07:19:20.000Z</time>
      </trkpt>
      <trkpt lat="45.96939" lon="6.24382">
        <ele>1461</ele>
        <time>2016-08-27T07:19:21.000Z</time>
      </trkpt>
      <trkpt lat="45.96938" lon="6.24382">
        <ele>1461</ele>
        <time>2016-08-27T07:19:22.000Z</time>
      </trkpt>
      <trkpt lat="45.96937" lon="6.24382">
        <ele>1461</ele>
        <time>2016-08-27T07:19:23.000Z</time>
      </trkpt>
      <trkpt lat="45.96936" lon="6.24383">
        <ele>1460</ele>
        <time>2016-08-27T07:19:24.000Z</time>
      </trkpt>
      <trkpt lat="45.96936" lon="6.24383">
        <ele>1460</ele>
        <time>2016-08-27T07:19:25.000Z</time>
      </trkpt>
      <trkpt lat="45.96935" lon="6.24384">
        <ele>1460</ele>
        <time>2016-08-27T07:19:26.000Z</time>
      </trkpt>
      <trkpt lat="45.96934" lon="6.24385">
        <ele>1460</ele>
        <time>2016-08-27T07:19:27.000Z</time>
      </trkpt>
      <trkpt lat="45.96933" lon="6.24385">
        <ele>1460</ele>
        <time>2016-08-27T07:19:28.000Z</time>
      </trkpt>
      <trkpt lat="45.96932" lon="6.24386">
        <ele>1460</ele>
        <time>2016-08-27T07:19:29.000Z</time>
      </trkpt>
      <trkpt lat="45.96931" lon="6.24386">
        <ele>1460</ele>
        <time>2016-08-27T07:19:30.000Z</time>
      </trkpt>
      <trkpt lat="45.96931" lon="6.24387">
        <ele>1460</ele>
        <time>2016-08-27T07:19:31.000Z</time>
      </trkpt>
      <trkpt lat="45.9693" lon="6.24388">
        <ele>1460</ele>
        <time>2016-08-27T07:19:32.000Z</time>
      </trkpt>
      <trkpt lat="45.96929" lon="6.24388">
        <ele>1460</ele>
        <time>2016-08-27T07:19:33.000Z</time>
      </trkpt>
      <trkpt lat="45.96928" lon="6.24388">
        <ele>1460</ele>
        <time>2016-08-27T07:19:34.000Z</time>
      </trkpt>
      <trkpt lat="45.96928" lon="6.24389">
        <ele>1460</ele>
        <time>2016-08-27T07:19:35.000Z</time>
      </trkpt>
      <trkpt lat="45.96927" lon="6.24389">
        <ele>1460</ele>
        <time>2016-08-27T07:19:36.000Z</time>
      </trkpt>
      <trkpt lat="45.96927" lon="6.24389">
        <ele>1460</ele>
        <time>2016-08-27T07:19:37.000Z</time>
      </trkpt>
      <trkpt lat="45.96927" lon="6.2439">
        <ele>1460</ele>
        <time>2016-08-27T07:19:38.000Z</time>
      </trkpt>
      <trkpt lat="45.96926" lon="6.2439">
        <ele>1460</ele>
        <time>2016-08-27T07:19:39.000Z</time>
      </trkpt>
      <trkpt lat="45.96926" lon="6.2439">
        <ele>1461</ele>
        <time>2016-08-27T07:19:40.000Z</time>
      </trkpt>
      <trkpt lat="45.96925" lon="6.24389">
        <ele>1461</ele>
        <time>2016-08-27T07:19:41.000Z</time>
      </trkpt>
      <trkpt lat="45.96924" lon="6.24389">
        <ele>1461</ele>
        <time>2016-08-27T07:19:42.000Z</time>
      </trkpt>
      <trkpt lat="45.96923" lon="6.24389">
        <ele>1461</ele>
        <time>2016-08-27T07:19:43.000Z</time>
      </trkpt>
      <trkpt lat="45.96922" lon="6.24389">
        <ele>1461</ele>
        <time>2016-08-27T07:19:44.000Z</time>
      </trkpt>
      <trkpt lat="45.96921" lon="6.2439">
        <ele>1461</ele>
        <time>2016-08-27T07:19:45.000Z</time>
      </trkpt>
      <trkpt lat="45.96921" lon="6.2439">
        <ele>1462</ele>
        <time>2016-08-27T07:19:46.000Z</time>
      </trkpt>
      <trkpt lat="45.9692" lon="6.2439">
        <ele>1462</ele>
        <time>2016-08-27T07:19:47.000Z</time>
      </trkpt>
      <trkpt lat="45.96919" lon="6.2439">
        <ele>1462</ele>
        <time>2016-08-27T07:19:48.000Z</time>
      </trkpt>
      <trkpt lat="45.96919" lon="6.24391">
        <ele>1462</ele>
        <time>2016-08-27T07:19:49.000Z</time>
      </trkpt>
      <trkpt lat="45.96918" lon="6.24391">
        <ele>1463</ele>
        <time>2016-08-27T07:19:50.000Z</time>
      </trkpt>
      <trkpt lat="45.96918" lon="6.24392">
        <ele>1463</ele>
        <time>2016-08-27T07:19:51.000Z</time>
      </trkpt>
      <trkpt lat="45.96918" lon="6.24392">
        <ele>1463</ele>
        <time>2016-08-27T07:19:52.000Z</time>
      </trkpt>
      <trkpt lat="45.96918" lon="6.24392">
        <ele>1463</ele>
        <time>2016-08-27T07:19:53.000Z</time>
      </trkpt>
      <trkpt lat="45.96918" lon="6.24393">
        <ele>1463</ele>
        <time>2016-08-27T07:19:54.000Z</time>
      </trkpt>
      <trkpt lat="45.96918" lon="6.24393">
        <ele>1463</ele>
        <time>2016-08-27T07:19:55.000Z</time>
      </trkpt>
      <trkpt lat="45.96918" lon="6.24394">
        <ele>1463</ele>
        <time>2016-08-27T07:19:56.000Z</time>
      </trkpt>
      <trkpt lat="45.96918" lon="6.24394">
        <ele>1463</ele>
        <time>2016-08-27T07:19:57.000Z</time>
      </trkpt>
      <trkpt lat="45.96919" lon="6.24395">
        <ele>1464</ele>
        <time>2016-08-27T07:19:58.000Z</time>
      </trkpt>
      <trkpt lat="45.96919" lon="6.24395">
        <ele>1464</ele>
        <time>2016-08-27T07:19:59.000Z</time>
      </trkpt>
      <trkpt lat="45.9692" lon="6.24396">
        <ele>1464</ele>
        <time>2016-08-27T07:20:00.000Z</time>
      </trkpt>
      <trkpt lat="45.96921" lon="6.24397">
        <ele>1464</ele>
        <time>2016-08-27T07:20:01.000Z</time>
      </trkpt>
      <trkpt lat="45.96921" lon="6.24398">
        <ele>1465</ele>
        <time>2016-08-27T07:20:02.000Z</time>
      </trkpt>
      <trkpt lat="45.96922" lon="6.24398">
        <ele>1465</ele>
        <time>2016-08-27T07:20:03.000Z</time>
      </trkpt>
      <trkpt lat="45.96923" lon="6.24399">
        <ele>1465</ele>
        <time>2016-08-27T07:20:04.000Z</time>
      </trkpt>
      <trkpt lat="45.96924" lon="6.244">
        <ele>1465</ele>
        <time>2016-08-27T07:20:05.000Z</time>
      </trkpt>
      <trkpt lat="45.96924" lon="6.24401">
        <ele>1465</ele>
        <time>2016-08-27T07:20:06.000Z</time>
      </trkpt>
      <trkpt lat="45.96925" lon="6.24401">
        <ele>1465</ele>
        <time>2016-08-27T07:20:07.000Z</time>
      </trkpt>
      <trkpt lat="45.96925" lon="6.24402">
        <ele>1466</ele>
        <time>2016-08-27T07:20:08.000Z</time>
      </trkpt>
      <trkpt lat="45.96926" lon="6.24402">
        <ele>1466</ele>
        <time>2016-08-27T07:20:09.000Z</time>
      </trkpt>
      <trkpt lat="45.96926" lon="6.24403">
        <ele>1466</ele>
        <time>2016-08-27T07:20:10.000Z</time>
      </trkpt>
      <trkpt lat="45.96927" lon="6.24403">
        <ele>1466</ele>
        <time>2016-08-27T07:20:11.000Z</time>
      </trkpt>
      <trkpt lat="45.96927" lon="6.24403">
        <ele>1467</ele>
        <time>2016-08-27T07:20:12.000Z</time>
      </trkpt>
      <trkpt lat="45.96928" lon="6.24404">
        <ele>1467</ele>
        <time>2016-08-27T07:20:13.000Z</time>
      </trkpt>
      <trkpt lat="45.96928" lon="6.24404">
        <ele>1467</ele>
        <time>2016-08-27T07:20:14.000Z</time>
      </trkpt>
      <trkpt lat="45.96929" lon="6.24405">
        <ele>1467</ele>
        <time>2016-08-27T07:20:15.000Z</time>
      </trkpt>
      <trkpt lat="45.9693" lon="6.24405">
        <ele>1467</ele>
        <time>2016-08-27T07:20:16.000Z</time>
      </trkpt>
      <trkpt lat="45.9693" lon="6.24406">
        <ele>1467</ele>
        <time>2016-08-27T07:20:17.000Z</time>
      </trkpt>
      <trkpt lat="45.96931" lon="6.24407">
        <ele>1468</ele>
        <time>2016-08-27T07:20:18.000Z</time>
      </trkpt>
      <trkpt lat="45.96931" lon="6.24407">
        <ele>1468</ele>
        <time>2016-08-27T07:20:19.000Z</time>
      </trkpt>
      <trkpt lat="45.96932" lon="6.24408">
        <ele>1468</ele>
        <time>2016-08-27T07:20:20.000Z</time>
      </trkpt>
      <trkpt lat="45.96933" lon="6.24408">
        <ele>1468</ele>
        <time>2016-08-27T07:20:21.000Z</time>
      </trkpt>
      <trkpt lat="45.96933" lon="6.24409">
        <ele>1469</ele>
        <time>2016-08-27T07:20:22.000Z</time>
      </trkpt>
      <trkpt lat="45.96933" lon="6.2441">
        <ele>1469</ele>
        <time>2016-08-27T07:20:23.000Z</time>
      </trkpt>
      <trkpt lat="45.96934" lon="6.2441">
        <ele>1469</ele>
        <time>2016-08-27T07:20:24.000Z</time>
      </trkpt>
      <trkpt lat="45.96934" lon="6.24411">
        <ele>1469</ele>
        <time>2016-08-27T07:20:25.000Z</time>
      </trkpt>
      <trkpt lat="45.96934" lon="6.24411">
        <ele>1469</ele>
        <time>2016-08-27T07:20:26.000Z</time>
      </trkpt>
      <trkpt lat="45.96935" lon="6.24411">
        <ele>1469</ele>
        <time>2016-08-27T07:20:27.000Z</time>
      </trkpt>
      <trkpt lat="45.96935" lon="6.24412">
        <ele>1470</ele>
        <time>2016-08-27T07:20:28.000Z</time>
      </trkpt>
      <trkpt lat="45.96936" lon="6.24412">
        <ele>1470</ele>
        <time>2016-08-27T07:20:29.000Z</time>
      </trkpt>
      <trkpt lat="45.96937" lon="6.24413">
        <ele>1470</ele>
        <time>2016-08-27T07:20:30.000Z</time>
      </trkpt>
      <trkpt lat="45.96937" lon="6.24413">
        <ele>1470</ele>
        <time>2016-08-27T07:20:31.000Z</time>
      </trkpt>
      <trkpt lat="45.96938" lon="6.24414">
        <ele>1471</ele>
        <time>2016-08-27T07:20:32.000Z</time>
      </trkpt>
      <trkpt lat="45.96939" lon="6.24415">
        <ele>1471</ele>
        <time>2016-08-27T07:20:33.000Z</time>
      </trkpt>
      <trkpt lat="45.96939" lon="6.24417">
        <ele>1471</ele>
        <time>2016-08-27T07:20:34.000Z</time>
      </trkpt>
      <trkpt lat="45.9694" lon="6.24418">
        <ele>1471</ele>
        <time>2016-08-27T07:20:35.000Z</time>
      </trkpt>
      <trkpt lat="45.96941" lon="6.24418">
        <ele>1472</ele>
        <time>2016-08-27T07:20:36.000Z</time>
      </trkpt>
      <trkpt lat="45.96942" lon="6.24419">
        <ele>1472</ele>
        <time>2016-08-27T07:20:37.000Z</time>
      </trkpt>
      <trkpt lat="45.96943" lon="6.2442">
        <ele>1473</ele>
        <time>2016-08-27T07:20:38.000Z</time>
      </trkpt>
      <trkpt lat="45.96943" lon="6.24421">
        <ele>1473</ele>
        <time>2016-08-27T07:20:39.000Z</time>
      </trkpt>
      <trkpt lat="45.96944" lon="6.24422">
        <ele>1474</ele>
        <time>2016-08-27T07:20:40.000Z</time>
      </trkpt>
      <trkpt lat="45.96945" lon="6.24423">
        <ele>1474</ele>
        <time>2016-08-27T07:20:41.000Z</time>
      </trkpt>
      <trkpt lat="45.96945" lon="6.24424">
        <ele>1475</ele>
        <time>2016-08-27T07:20:42.000Z</time>
      </trkpt>
      <trkpt lat="45.96946" lon="6.24425">
        <ele>1475</ele>
        <time>2016-08-27T07:20:43.000Z</time>
      </trkpt>
      <trkpt lat="45.96945" lon="6.24426">
        <ele>1476</ele>
        <time>2016-08-27T07:20:44.000Z</time>
      </trkpt>
      <trkpt lat="45.96945" lon="6.24426">
        <ele>1476</ele>
        <time>2016-08-27T07:20:45.000Z</time>
      </trkpt>
      <trkpt lat="45.96945" lon="6.24426">
        <ele>1476</ele>
        <time>2016-08-27T07:20:46.000Z</time>
      </trkpt>
      <trkpt lat="45.96945" lon="6.24427">
        <ele>1476</ele>
        <time>2016-08-27T07:20:47.000Z</time>
      </trkpt>
      <trkpt lat="45.96945" lon="6.24427">
        <ele>1477</ele>
        <time>2016-08-27T07:20:48.000Z</time>
      </trkpt>
      <trkpt lat="45.96944" lon="6.24427">
        <ele>1477</ele>
        <time>2016-08-27T07:20:49.000Z</time>
      </trkpt>
      <trkpt lat="45.96944" lon="6.24426">
        <ele>1478</ele>
        <time>2016-08-27T07:20:50.000Z</time>
      </trkpt>
      <trkpt lat="45.96943" lon="6.24425">
        <ele>1478</ele>
        <time>2016-08-27T07:20:51.000Z</time>
      </trkpt>
      <trkpt lat="45.96942" lon="6.24425">
        <ele>1479</ele>
        <time>2016-08-27T07:20:52.000Z</time>
      </trkpt>
      <trkpt lat="45.96942" lon="6.24425">
        <ele>1479</ele>
        <time>2016-08-27T07:20:53.000Z</time>
      </trkpt>
      <trkpt lat="45.96941" lon="6.24425">
        <ele>1480</ele>
        <time>2016-08-27T07:20:54.000Z</time>
      </trkpt>
      <trkpt lat="45.9694" lon="6.24425">
        <ele>1480</ele>
        <time>2016-08-27T07:20:55.000Z</time>
      </trkpt>
      <trkpt lat="45.9694" lon="6.24424">
        <ele>1480</ele>
        <time>2016-08-27T07:20:56.000Z</time>
      </trkpt>
      <trkpt lat="45.96939" lon="6.24424">
        <ele>1480</ele>
        <time>2016-08-27T07:20:57.000Z</time>
      </trkpt>
      <trkpt lat="45.96938" lon="6.24424">
        <ele>1481</ele>
        <time>2016-08-27T07:20:58.000Z</time>
      </trkpt>
      <trkpt lat="45.96938" lon="6.24424">
        <ele>1481</ele>
        <time>2016-08-27T07:20:59.000Z</time>
      </trkpt>
      <trkpt lat="45.96937" lon="6.24424">
        <ele>1482</ele>
        <time>2016-08-27T07:21:00.000Z</time>
      </trkpt>
      <trkpt lat="45.96937" lon="6.24424">
        <ele>1482</ele>
        <time>2016-08-27T07:21:01.000Z</time>
      </trkpt>
      <trkpt lat="45.96936" lon="6.24424">
        <ele>1483</ele>
        <time>2016-08-27T07:21:02.000Z</time>
      </trkpt>
      <trkpt lat="45.96936" lon="6.24423">
        <ele>1483</ele>
        <time>2016-08-27T07:21:03.000Z</time>
      </trkpt>
      <trkpt lat="45.96936" lon="6.24423">
        <ele>1484</ele>
        <time>2016-08-27T07:21:04.000Z</time>
      </trkpt>
      <trkpt lat="45.96935" lon="6.24423">
        <ele>1484</ele>
        <time>2016-08-27T07:21:05.000Z</time>
      </trkpt>
      <trkpt lat="45.96935" lon="6.24423">
        <ele>1484</ele>
        <time>2016-08-27T07:21:06.000Z</time>
      </trkpt>
      <trkpt lat="45.96934" lon="6.24423">
        <ele>1484</ele>
        <time>2016-08-27T07:21:07.000Z</time>
      </trkpt>
      <trkpt lat="45.96933" lon="6.24424">
        <ele>1485</ele>
        <time>2016-08-27T07:21:08.000Z</time>
      </trkpt>
      <trkpt lat="45.96933" lon="6.24424">
        <ele>1485</ele>
        <time>2016-08-27T07:21:09.000Z</time>
      </trkpt>
      <trkpt lat="45.96932" lon="6.24425">
        <ele>1485</ele>
        <time>2016-08-27T07:21:10.000Z</time>
      </trkpt>
      <trkpt lat="45.96932" lon="6.24425">
        <ele>1485</ele>
        <time>2016-08-27T07:21:11.000Z</time>
      </trkpt>
      <trkpt lat="45.96931" lon="6.24425">
        <ele>1485</ele>
        <time>2016-08-27T07:21:12.000Z</time>
      </trkpt>
      <trkpt lat="45.96931" lon="6.24425">
        <ele>1485</ele>
        <time>2016-08-27T07:21:13.000Z</time>
      </trkpt>
      <trkpt lat="45.96931" lon="6.24425">
        <ele>1486</ele>
        <time>2016-08-27T07:21:14.000Z</time>
      </trkpt>
      <trkpt lat="45.96931" lon="6.24425">
        <ele>1486</ele>
        <time>2016-08-27T07:21:15.000Z</time>
      </trkpt>
      <trkpt lat="45.96931" lon="6.24425">
        <ele>1486</ele>
        <time>2016-08-27T07:21:16.000Z</time>
      </trkpt>
      <trkpt lat="45.9693" lon="6.24425">
        <ele>1486</ele>
        <time>2016-08-27T07:21:17.000Z</time>
      </trkpt>
      <trkpt lat="45.9693" lon="6.24425">
        <ele>1487</ele>
        <time>2016-08-27T07:21:18.000Z</time>
      </trkpt>
      <trkpt lat="45.96929" lon="6.24425">
        <ele>1487</ele>
        <time>2016-08-27T07:21:19.000Z</time>
      </trkpt>
      <trkpt lat="45.96928" lon="6.24425">
        <ele>1487</ele>
        <time>2016-08-27T07:21:20.000Z</time>
      </trkpt>
      <trkpt lat="45.96928" lon="6.24425">
        <ele>1487</ele>
        <time>2016-08-27T07:21:21.000Z</time>
      </trkpt>
      <trkpt lat="45.96927" lon="6.24425">
        <ele>1487</ele>
        <time>2016-08-27T07:21:22.000Z</time>
      </trkpt>
      <trkpt lat="45.96926" lon="6.24426">
        <ele>1487</ele>
        <time>2016-08-27T07:21:23.000Z</time>
      </trkpt>
      <trkpt lat="45.96925" lon="6.24426">
        <ele>1488</ele>
        <time>2016-08-27T07:21:24.000Z</time>
      </trkpt>
      <trkpt lat="45.96924" lon="6.24426">
        <ele>1488</ele>
        <time>2016-08-27T07:21:25.000Z</time>
      </trkpt>
      <trkpt lat="45.96923" lon="6.24426">
        <ele>1488</ele>
        <time>2016-08-27T07:21:26.000Z</time>
      </trkpt>
      <trkpt lat="45.96922" lon="6.24426">
        <ele>1488</ele>
        <time>2016-08-27T07:21:27.000Z</time>
      </trkpt>
      <trkpt lat="45.96921" lon="6.24426">
        <ele>1488</ele>
        <time>2016-08-27T07:21:28.000Z</time>
      </trkpt>
      <trkpt lat="45.96919" lon="6.24426">
        <ele>1488</ele>
        <time>2016-08-27T07:21:29.000Z</time>
      </trkpt>
      <trkpt lat="45.96918" lon="6.24426">
        <ele>1489</ele>
        <time>2016-08-27T07:21:30.000Z</time>
      </trkpt>
      <trkpt lat="45.96918" lon="6.24426">
        <ele>1489</ele>
        <time>2016-08-27T07:21:31.000Z</time>
      </trkpt>
      <trkpt lat="45.96917" lon="6.24427">
        <ele>1489</ele>
        <time>2016-08-27T07:21:32.000Z</time>
      </trkpt>
      <trkpt lat="45.96916" lon="6.24427">
        <ele>1489</ele>
        <time>2016-08-27T07:21:33.000Z</time>
      </trkpt>
      <trkpt lat="45.96916" lon="6.24428">
        <ele>1490</ele>
        <time>2016-08-27T07:21:34.000Z</time>
      </trkpt>
      <trkpt lat="45.96916" lon="6.24428">
        <ele>1490</ele>
        <time>2016-08-27T07:21:35.000Z</time>
      </trkpt>
      <trkpt lat="45.96916" lon="6.24429">
        <ele>1490</ele>
        <time>2016-08-27T07:21:36.000Z</time>
      </trkpt>
      <trkpt lat="45.96916" lon="6.2443">
        <ele>1490</ele>
        <time>2016-08-27T07:21:37.000Z</time>
      </trkpt>
      <trkpt lat="45.96916" lon="6.24431">
        <ele>1490</ele>
        <time>2016-08-27T07:21:38.000Z</time>
      </trkpt>
      <trkpt lat="45.96916" lon="6.24432">
        <ele>1490</ele>
        <time>2016-08-27T07:21:39.000Z</time>
      </trkpt>
      <trkpt lat="45.96916" lon="6.24433">
        <ele>1490</ele>
        <time>2016-08-27T07:21:40.000Z</time>
      </trkpt>
      <trkpt lat="45.96917" lon="6.24433">
        <ele>1490</ele>
        <time>2016-08-27T07:21:41.000Z</time>
      </trkpt>
      <trkpt lat="45.96917" lon="6.24434">
        <ele>1491</ele>
        <time>2016-08-27T07:21:42.000Z</time>
      </trkpt>
      <trkpt lat="45.96917" lon="6.24435">
        <ele>1491</ele>
        <time>2016-08-27T07:21:43.000Z</time>
      </trkpt>
      <trkpt lat="45.96918" lon="6.24435">
        <ele>1491</ele>
        <time>2016-08-27T07:21:44.000Z</time>
      </trkpt>
      <trkpt lat="45.96918" lon="6.24436">
        <ele>1491</ele>
        <time>2016-08-27T07:21:45.000Z</time>
      </trkpt>
      <trkpt lat="45.96918" lon="6.24437">
        <ele>1491</ele>
        <time>2016-08-27T07:21:46.000Z</time>
      </trkpt>
      <trkpt lat="45.96919" lon="6.24438">
        <ele>1491</ele>
        <time>2016-08-27T07:21:47.000Z</time>
      </trkpt>
      <trkpt lat="45.9692" lon="6.24438">
        <ele>1491</ele>
        <time>2016-08-27T07:21:48.000Z</time>
      </trkpt>
      <trkpt lat="45.96921" lon="6.24439">
        <ele>1491</ele>
        <time>2016-08-27T07:21:49.000Z</time>
      </trkpt>
      <trkpt lat="45.96921" lon="6.2444">
        <ele>1491</ele>
        <time>2016-08-27T07:21:50.000Z</time>
      </trkpt>
      <trkpt lat="45.96922" lon="6.24441">
        <ele>1491</ele>
        <time>2016-08-27T07:21:51.000Z</time>
      </trkpt>
      <trkpt lat="45.96923" lon="6.24441">
        <ele>1492</ele>
        <time>2016-08-27T07:21:52.000Z</time>
      </trkpt>
      <trkpt lat="45.96923" lon="6.24442">
        <ele>1492</ele>
        <time>2016-08-27T07:21:53.000Z</time>
      </trkpt>
      <trkpt lat="45.96924" lon="6.24443">
        <ele>1492</ele>
        <time>2016-08-27T07:21:54.000Z</time>
      </trkpt>
      <trkpt lat="45.96925" lon="6.24445">
        <ele>1492</ele>
        <time>2016-08-27T07:21:55.000Z</time>
      </trkpt>
      <trkpt lat="45.96925" lon="6.24446">
        <ele>1492</ele>
        <time>2016-08-27T07:21:56.000Z</time>
      </trkpt>
      <trkpt lat="45.96926" lon="6.24447">
        <ele>1492</ele>
        <time>2016-08-27T07:21:57.000Z</time>
      </trkpt>
      <trkpt lat="45.96927" lon="6.24449">
        <ele>1492</ele>
        <time>2016-08-27T07:21:58.000Z</time>
      </trkpt>
      <trkpt lat="45.96928" lon="6.24451">
        <ele>1492</ele>
        <time>2016-08-27T07:21:59.000Z</time>
      </trkpt>
      <trkpt lat="45.9693" lon="6.24452">
        <ele>1493</ele>
        <time>2016-08-27T07:22:00.000Z</time>
      </trkpt>
      <trkpt lat="45.96931" lon="6.24454">
        <ele>1493</ele>
        <time>2016-08-27T07:22:01.000Z</time>
      </trkpt>
      <trkpt lat="45.96932" lon="6.24456">
        <ele>1493</ele>
        <time>2016-08-27T07:22:02.000Z</time>
      </trkpt>
      <trkpt lat="45.96934" lon="6.24457">
        <ele>1493</ele>
        <time>2016-08-27T07:22:03.000Z</time>
      </trkpt>
      <trkpt lat="45.96935" lon="6.24459">
        <ele>1494</ele>
        <time>2016-08-27T07:22:04.000Z</time>
      </trkpt>
      <trkpt lat="45.96937" lon="6.24461">
        <ele>1494</ele>
        <time>2016-08-27T07:22:05.000Z</time>
      </trkpt>
      <trkpt lat="45.96938" lon="6.24463">
        <ele>1494</ele>
        <time>2016-08-27T07:22:06.000Z</time>
      </trkpt>
      <trkpt lat="45.9694" lon="6.24465">
        <ele>1494</ele>
        <time>2016-08-27T07:22:07.000Z</time>
      </trkpt>
      <trkpt lat="45.96942" lon="6.24467">
        <ele>1495</ele>
        <time>2016-08-27T07:22:08.000Z</time>
      </trkpt>
      <trkpt lat="45.96943" lon="6.24468">
        <ele>1495</ele>
        <time>2016-08-27T07:22:09.000Z</time>
      </trkpt>
      <trkpt lat="45.96945" lon="6.2447">
        <ele>1495</ele>
        <time>2016-08-27T07:22:10.000Z</time>
      </trkpt>
      <trkpt lat="45.96946" lon="6.24471">
        <ele>1495</ele>
        <time>2016-08-27T07:22:11.000Z</time>
      </trkpt>
      <trkpt lat="45.96947" lon="6.24473">
        <ele>1496</ele>
        <time>2016-08-27T07:22:12.000Z</time>
      </trkpt>
      <trkpt lat="45.96948" lon="6.24475">
        <ele>1496</ele>
        <time>2016-08-27T07:22:13.000Z</time>
      </trkpt>
      <trkpt lat="45.9695" lon="6.24477">
        <ele>1496</ele>
        <time>2016-08-27T07:22:14.000Z</time>
      </trkpt>
      <trkpt lat="45.96951" lon="6.24479">
        <ele>1496</ele>
        <time>2016-08-27T07:22:15.000Z</time>
      </trkpt>
      <trkpt lat="45.96953" lon="6.24481">
        <ele>1497</ele>
        <time>2016-08-27T07:22:16.000Z</time>
      </trkpt>
      <trkpt lat="45.96954" lon="6.24482">
        <ele>1497</ele>
        <time>2016-08-27T07:22:17.000Z</time>
      </trkpt>
      <trkpt lat="45.96955" lon="6.24484">
        <ele>1497</ele>
        <time>2016-08-27T07:22:18.000Z</time>
      </trkpt>
      <trkpt lat="45.96957" lon="6.24486">
        <ele>1497</ele>
        <time>2016-08-27T07:22:19.000Z</time>
      </trkpt>
      <trkpt lat="45.96958" lon="6.24488">
        <ele>1497</ele>
        <time>2016-08-27T07:22:20.000Z</time>
      </trkpt>
      <trkpt lat="45.96959" lon="6.2449">
        <ele>1497</ele>
        <time>2016-08-27T07:22:21.000Z</time>
      </trkpt>
      <trkpt lat="45.96959" lon="6.24491">
        <ele>1498</ele>
        <time>2016-08-27T07:22:22.000Z</time>
      </trkpt>
      <trkpt lat="45.9696" lon="6.24493">
        <ele>1498</ele>
        <time>2016-08-27T07:22:23.000Z</time>
      </trkpt>
      <trkpt lat="45.96961" lon="6.24495">
        <ele>1498</ele>
        <time>2016-08-27T07:22:24.000Z</time>
      </trkpt>
      <trkpt lat="45.96962" lon="6.24496">
        <ele>1498</ele>
        <time>2016-08-27T07:22:25.000Z</time>
      </trkpt>
      <trkpt lat="45.96962" lon="6.24498">
        <ele>1499</ele>
        <time>2016-08-27T07:22:26.000Z</time>
      </trkpt>
      <trkpt lat="45.96963" lon="6.245">
        <ele>1499</ele>
        <time>2016-08-27T07:22:27.000Z</time>
      </trkpt>
      <trkpt lat="45.96964" lon="6.24502">
        <ele>1499</ele>
        <time>2016-08-27T07:22:28.000Z</time>
      </trkpt>
      <trkpt lat="45.96965" lon="6.24503">
        <ele>1499</ele>
        <time>2016-08-27T07:22:29.000Z</time>
      </trkpt>
      <trkpt lat="45.96966" lon="6.24505">
        <ele>1499</ele>
        <time>2016-08-27T07:22:30.000Z</time>
      </trkpt>
      <trkpt lat="45.96966" lon="6.24507">
        <ele>1499</ele>
        <time>2016-08-27T07:22:31.000Z</time>
      </trkpt>
      <trkpt lat="45.96967" lon="6.24509">
        <ele>1500</ele>
        <time>2016-08-27T07:22:32.000Z</time>
      </trkpt>
      <trkpt lat="45.96967" lon="6.24509">
        <ele>1500</ele>
        <time>2016-08-27T07:22:33.000Z</time>
      </trkpt>
      <trkpt lat="45.96967" lon="6.24511">
        <ele>1500</ele>
        <time>2016-08-27T07:22:34.000Z</time>
      </trkpt>
      <trkpt lat="45.96967" lon="6.24511">
        <ele>1500</ele>
        <time>2016-08-27T07:22:35.000Z</time>
      </trkpt>
      <trkpt lat="45.96966" lon="6.24512">
        <ele>1501</ele>
        <time>2016-08-27T07:22:36.000Z</time>
      </trkpt>
      <trkpt lat="45.96966" lon="6.24512">
        <ele>1501</ele>
        <time>2016-08-27T07:22:37.000Z</time>
      </trkpt>
      <trkpt lat="45.96966" lon="6.24513">
        <ele>1501</ele>
        <time>2016-08-27T07:22:38.000Z</time>
      </trkpt>
      <trkpt lat="45.96967" lon="6.24513">
        <ele>1501</ele>
        <time>2016-08-27T07:22:39.000Z</time>
      </trkpt>
      <trkpt lat="45.96967" lon="6.24514">
        <ele>1501</ele>
        <time>2016-08-27T07:22:40.000Z</time>
      </trkpt>
      <trkpt lat="45.96967" lon="6.24515">
        <ele>1501</ele>
        <time>2016-08-27T07:22:41.000Z</time>
      </trkpt>
      <trkpt lat="45.96968" lon="6.24516">
        <ele>1501</ele>
        <time>2016-08-27T07:22:42.000Z</time>
      </trkpt>
      <trkpt lat="45.96969" lon="6.24517">
        <ele>1501</ele>
        <time>2016-08-27T07:22:43.000Z</time>
      </trkpt>
      <trkpt lat="45.96969" lon="6.24518">
        <ele>1502</ele>
        <time>2016-08-27T07:22:44.000Z</time>
      </trkpt>
      <trkpt lat="45.9697" lon="6.24519">
        <ele>1502</ele>
        <time>2016-08-27T07:22:45.000Z</time>
      </trkpt>
      <trkpt lat="45.9697" lon="6.24519">
        <ele>1502</ele>
        <time>2016-08-27T07:22:46.000Z</time>
      </trkpt>
      <trkpt lat="45.96971" lon="6.2452">
        <ele>1502</ele>
        <time>2016-08-27T07:22:47.000Z</time>
      </trkpt>
      <trkpt lat="45.96971" lon="6.24521">
        <ele>1502</ele>
        <time>2016-08-27T07:22:48.000Z</time>
      </trkpt>
      <trkpt lat="45.96972" lon="6.24523">
        <ele>1502</ele>
        <time>2016-08-27T07:22:49.000Z</time>
      </trkpt>
      <trkpt lat="45.96973" lon="6.24524">
        <ele>1503</ele>
        <time>2016-08-27T07:22:50.000Z</time>
      </trkpt>
      <trkpt lat="45.96974" lon="6.24526">
        <ele>1503</ele>
        <time>2016-08-27T07:22:51.000Z</time>
      </trkpt>
      <trkpt lat="45.96975" lon="6.24528">
        <ele>1503</ele>
        <time>2016-08-27T07:22:52.000Z</time>
      </trkpt>
      <trkpt lat="45.96976" lon="6.2453">
        <ele>1503</ele>
        <time>2016-08-27T07:22:53.000Z</time>
      </trkpt>
      <trkpt lat="45.96977" lon="6.24532">
        <ele>1503</ele>
        <time>2016-08-27T07:22:54.000Z</time>
      </trkpt>
      <trkpt lat="45.96978" lon="6.24533">
        <ele>1503</ele>
        <time>2016-08-27T07:22:55.000Z</time>
      </trkpt>
      <trkpt lat="45.96978" lon="6.24534">
        <ele>1504</ele>
        <time>2016-08-27T07:22:56.000Z</time>
      </trkpt>
      <trkpt lat="45.96979" lon="6.24535">
        <ele>1504</ele>
        <time>2016-08-27T07:22:57.000Z</time>
      </trkpt>
      <trkpt lat="45.96979" lon="6.24536">
        <ele>1505</ele>
        <time>2016-08-27T07:22:58.000Z</time>
      </trkpt>
      <trkpt lat="45.9698" lon="6.24537">
        <ele>1505</ele>
        <time>2016-08-27T07:22:59.000Z</time>
      </trkpt>
      <trkpt lat="45.9698" lon="6.24538">
        <ele>1505</ele>
        <time>2016-08-27T07:23:00.000Z</time>
      </trkpt>
      <trkpt lat="45.96981" lon="6.24539">
        <ele>1505</ele>
        <time>2016-08-27T07:23:01.000Z</time>
      </trkpt>
      <trkpt lat="45.96981" lon="6.2454">
        <ele>1506</ele>
        <time>2016-08-27T07:23:02.000Z</time>
      </trkpt>
      <trkpt lat="45.96981" lon="6.24541">
        <ele>1506</ele>
        <time>2016-08-27T07:23:03.000Z</time>
      </trkpt>
      <trkpt lat="45.96982" lon="6.24542">
        <ele>1507</ele>
        <time>2016-08-27T07:23:04.000Z</time>
      </trkpt>
      <trkpt lat="45.96982" lon="6.24544">
        <ele>1507</ele>
        <time>2016-08-27T07:23:05.000Z</time>
      </trkpt>
      <trkpt lat="45.96983" lon="6.24545">
        <ele>1507</ele>
        <time>2016-08-27T07:23:06.000Z</time>
      </trkpt>
      <trkpt lat="45.96983" lon="6.24546">
        <ele>1507</ele>
        <time>2016-08-27T07:23:07.000Z</time>
      </trkpt>
      <trkpt lat="45.96983" lon="6.24548">
        <ele>1508</ele>
        <time>2016-08-27T07:23:08.000Z</time>
      </trkpt>
      <trkpt lat="45.96984" lon="6.24549">
        <ele>1508</ele>
        <time>2016-08-27T07:23:09.000Z</time>
      </trkpt>
      <trkpt lat="45.96984" lon="6.24551">
        <ele>1508</ele>
        <time>2016-08-27T07:23:10.000Z</time>
      </trkpt>
      <trkpt lat="45.96984" lon="6.24552">
        <ele>1508</ele>
        <time>2016-08-27T07:23:11.000Z</time>
      </trkpt>
      <trkpt lat="45.96985" lon="6.24554">
        <ele>1509</ele>
        <time>2016-08-27T07:23:12.000Z</time>
      </trkpt>
      <trkpt lat="45.96985" lon="6.24555">
        <ele>1509</ele>
        <time>2016-08-27T07:23:13.000Z</time>
      </trkpt>
      <trkpt lat="45.96985" lon="6.24556">
        <ele>1509</ele>
        <time>2016-08-27T07:23:14.000Z</time>
      </trkpt>
      <trkpt lat="45.96986" lon="6.24557">
        <ele>1509</ele>
        <time>2016-08-27T07:23:15.000Z</time>
      </trkpt>
      <trkpt lat="45.96986" lon="6.24559">
        <ele>1510</ele>
        <time>2016-08-27T07:23:16.000Z</time>
      </trkpt>
      <trkpt lat="45.96987" lon="6.2456">
        <ele>1510</ele>
        <time>2016-08-27T07:23:17.000Z</time>
      </trkpt>
      <trkpt lat="45.96988" lon="6.24562">
        <ele>1510</ele>
        <time>2016-08-27T07:23:18.000Z</time>
      </trkpt>
      <trkpt lat="45.96988" lon="6.24563">
        <ele>1510</ele>
        <time>2016-08-27T07:23:19.000Z</time>
      </trkpt>
      <trkpt lat="45.96988" lon="6.24565">
        <ele>1511</ele>
        <time>2016-08-27T07:23:20.000Z</time>
      </trkpt>
      <trkpt lat="45.96988" lon="6.24566">
        <ele>1511</ele>
        <time>2016-08-27T07:23:21.000Z</time>
      </trkpt>
      <trkpt lat="45.96989" lon="6.24567">
        <ele>1511</ele>
        <time>2016-08-27T07:23:22.000Z</time>
      </trkpt>
      <trkpt lat="45.96989" lon="6.24569">
        <ele>1511</ele>
        <time>2016-08-27T07:23:23.000Z</time>
      </trkpt>
      <trkpt lat="45.9699" lon="6.2457">
        <ele>1512</ele>
        <time>2016-08-27T07:23:24.000Z</time>
      </trkpt>
      <trkpt lat="45.9699" lon="6.24572">
        <ele>1512</ele>
        <time>2016-08-27T07:23:25.000Z</time>
      </trkpt>
      <trkpt lat="45.96991" lon="6.24573">
        <ele>1512</ele>
        <time>2016-08-27T07:23:26.000Z</time>
      </trkpt>
      <trkpt lat="45.96992" lon="6.24575">
        <ele>1512</ele>
        <time>2016-08-27T07:23:27.000Z</time>
      </trkpt>
      <trkpt lat="45.96992" lon="6.24576">
        <ele>1512</ele>
        <time>2016-08-27T07:23:28.000Z</time>
      </trkpt>
      <trkpt lat="45.96993" lon="6.24578">
        <ele>1512</ele>
        <time>2016-08-27T07:23:29.000Z</time>
      </trkpt>
      <trkpt lat="45.96993" lon="6.24579">
        <ele>1512</ele>
        <time>2016-08-27T07:23:30.000Z</time>
      </trkpt>
      <trkpt lat="45.96993" lon="6.2458">
        <ele>1512</ele>
        <time>2016-08-27T07:23:31.000Z</time>
      </trkpt>
      <trkpt lat="45.96994" lon="6.24582">
        <ele>1513</ele>
        <time>2016-08-27T07:23:32.000Z</time>
      </trkpt>
      <trkpt lat="45.96994" lon="6.24583">
        <ele>1513</ele>
        <time>2016-08-27T07:23:33.000Z</time>
      </trkpt>
      <trkpt lat="45.96995" lon="6.24584">
        <ele>1513</ele>
        <time>2016-08-27T07:23:34.000Z</time>
      </trkpt>
      <trkpt lat="45.96995" lon="6.24586">
        <ele>1513</ele>
        <time>2016-08-27T07:23:35.000Z</time>
      </trkpt>
      <trkpt lat="45.96996" lon="6.24587">
        <ele>1514</ele>
        <time>2016-08-27T07:23:36.000Z</time>
      </trkpt>
      <trkpt lat="45.96997" lon="6.24588">
        <ele>1514</ele>
        <time>2016-08-27T07:23:37.000Z</time>
      </trkpt>
      <trkpt lat="45.96997" lon="6.24589">
        <ele>1514</ele>
        <time>2016-08-27T07:23:38.000Z</time>
      </trkpt>
      <trkpt lat="45.96998" lon="6.2459">
        <ele>1514</ele>
        <time>2016-08-27T07:23:39.000Z</time>
      </trkpt>
      <trkpt lat="45.96999" lon="6.24591">
        <ele>1515</ele>
        <time>2016-08-27T07:23:40.000Z</time>
      </trkpt>
      <trkpt lat="45.96999" lon="6.24592">
        <ele>1515</ele>
        <time>2016-08-27T07:23:41.000Z</time>
      </trkpt>
      <trkpt lat="45.97" lon="6.24594">
        <ele>1515</ele>
        <time>2016-08-27T07:23:42.000Z</time>
      </trkpt>
      <trkpt lat="45.97001" lon="6.24595">
        <ele>1515</ele>
        <time>2016-08-27T07:23:43.000Z</time>
      </trkpt>
      <trkpt lat="45.97002" lon="6.24596">
        <ele>1515</ele>
        <time>2016-08-27T07:23:44.000Z</time>
      </trkpt>
      <trkpt lat="45.97003" lon="6.24597">
        <ele>1515</ele>
        <time>2016-08-27T07:23:45.000Z</time>
      </trkpt>
      <trkpt lat="45.97003" lon="6.24598">
        <ele>1516</ele>
        <time>2016-08-27T07:23:46.000Z</time>
      </trkpt>
      <trkpt lat="45.97004" lon="6.246">
        <ele>1516</ele>
        <time>2016-08-27T07:23:47.000Z</time>
      </trkpt>
      <trkpt lat="45.97005" lon="6.24601">
        <ele>1517</ele>
        <time>2016-08-27T07:23:48.000Z</time>
      </trkpt>
      <trkpt lat="45.97005" lon="6.24603">
        <ele>1517</ele>
        <time>2016-08-27T07:23:49.000Z</time>
      </trkpt>
      <trkpt lat="45.97006" lon="6.24604">
        <ele>1517</ele>
        <time>2016-08-27T07:23:50.000Z</time>
      </trkpt>
      <trkpt lat="45.97007" lon="6.24605">
        <ele>1517</ele>
        <time>2016-08-27T07:23:51.000Z</time>
      </trkpt>
      <trkpt lat="45.97007" lon="6.24607">
        <ele>1518</ele>
        <time>2016-08-27T07:23:52.000Z</time>
      </trkpt>
      <trkpt lat="45.97007" lon="6.24608">
        <ele>1518</ele>
        <time>2016-08-27T07:23:53.000Z</time>
      </trkpt>
      <trkpt lat="45.97007" lon="6.2461">
        <ele>1518</ele>
        <time>2016-08-27T07:23:54.000Z</time>
      </trkpt>
      <trkpt lat="45.97007" lon="6.24611">
        <ele>1518</ele>
        <time>2016-08-27T07:23:55.000Z</time>
      </trkpt>
      <trkpt lat="45.97008" lon="6.24612">
        <ele>1519</ele>
        <time>2016-08-27T07:23:56.000Z</time>
      </trkpt>
      <trkpt lat="45.97008" lon="6.24613">
        <ele>1519</ele>
        <time>2016-08-27T07:23:57.000Z</time>
      </trkpt>
      <trkpt lat="45.97008" lon="6.24614">
        <ele>1519</ele>
        <time>2016-08-27T07:23:58.000Z</time>
      </trkpt>
      <trkpt lat="45.97008" lon="6.24615">
        <ele>1519</ele>
        <time>2016-08-27T07:23:59.000Z</time>
      </trkpt>
      <trkpt lat="45.97009" lon="6.24616">
        <ele>1520</ele>
        <time>2016-08-27T07:24:00.000Z</time>
      </trkpt>
      <trkpt lat="45.9701" lon="6.24617">
        <ele>1520</ele>
        <time>2016-08-27T07:24:01.000Z</time>
      </trkpt>
      <trkpt lat="45.9701" lon="6.24619">
        <ele>1520</ele>
        <time>2016-08-27T07:24:02.000Z</time>
      </trkpt>
      <trkpt lat="45.97011" lon="6.2462">
        <ele>1520</ele>
        <time>2016-08-27T07:24:03.000Z</time>
      </trkpt>
      <trkpt lat="45.97012" lon="6.24622">
        <ele>1521</ele>
        <time>2016-08-27T07:24:04.000Z</time>
      </trkpt>
      <trkpt lat="45.97012" lon="6.24624">
        <ele>1521</ele>
        <time>2016-08-27T07:24:05.000Z</time>
      </trkpt>
      <trkpt lat="45.97013" lon="6.24625">
        <ele>1521</ele>
        <time>2016-08-27T07:24:06.000Z</time>
      </trkpt>
      <trkpt lat="45.97014" lon="6.24627">
        <ele>1521</ele>
        <time>2016-08-27T07:24:07.000Z</time>
      </trkpt>
      <trkpt lat="45.97015" lon="6.24629">
        <ele>1522</ele>
        <time>2016-08-27T07:24:08.000Z</time>
      </trkpt>
      <trkpt lat="45.97015" lon="6.2463">
        <ele>1522</ele>
        <time>2016-08-27T07:24:09.000Z</time>
      </trkpt>
      <trkpt lat="45.97015" lon="6.24631">
        <ele>1522</ele>
        <time>2016-08-27T07:24:10.000Z</time>
      </trkpt>
      <trkpt lat="45.97016" lon="6.24633">
        <ele>1522</ele>
        <time>2016-08-27T07:24:11.000Z</time>
      </trkpt>
      <trkpt lat="45.97016" lon="6.24635">
        <ele>1522</ele>
        <time>2016-08-27T07:24:12.000Z</time>
      </trkpt>
      <trkpt lat="45.97017" lon="6.24636">
        <ele>1522</ele>
        <time>2016-08-27T07:24:13.000Z</time>
      </trkpt>
      <trkpt lat="45.97017" lon="6.24637">
        <ele>1522</ele>
        <time>2016-08-27T07:24:14.000Z</time>
      </trkpt>
      <trkpt lat="45.97018" lon="6.24638">
        <ele>1522</ele>
        <time>2016-08-27T07:24:15.000Z</time>
      </trkpt>
      <trkpt lat="45.97018" lon="6.2464">
        <ele>1522</ele>
        <time>2016-08-27T07:24:16.000Z</time>
      </trkpt>
      <trkpt lat="45.97019" lon="6.24641">
        <ele>1522</ele>
        <time>2016-08-27T07:24:17.000Z</time>
      </trkpt>
      <trkpt lat="45.97019" lon="6.24642">
        <ele>1523</ele>
        <time>2016-08-27T07:24:18.000Z</time>
      </trkpt>
      <trkpt lat="45.9702" lon="6.24643">
        <ele>1523</ele>
        <time>2016-08-27T07:24:19.000Z</time>
      </trkpt>
      <trkpt lat="45.9702" lon="6.24644">
        <ele>1523</ele>
        <time>2016-08-27T07:24:20.000Z</time>
      </trkpt>
      <trkpt lat="45.97021" lon="6.24645">
        <ele>1523</ele>
        <time>2016-08-27T07:24:21.000Z</time>
      </trkpt>
      <trkpt lat="45.97021" lon="6.24647">
        <ele>1523</ele>
        <time>2016-08-27T07:24:22.000Z</time>
      </trkpt>
      <trkpt lat="45.97022" lon="6.24648">
        <ele>1523</ele>
        <time>2016-08-27T07:24:23.000Z</time>
      </trkpt>
      <trkpt lat="45.97022" lon="6.2465">
        <ele>1524</ele>
        <time>2016-08-27T07:24:24.000Z</time>
      </trkpt>
      <trkpt lat="45.97023" lon="6.24651">
        <ele>1524</ele>
        <time>2016-08-27T07:24:25.000Z</time>
      </trkpt>
      <trkpt lat="45.97023" lon="6.24653">
        <ele>1524</ele>
        <time>2016-08-27T07:24:26.000Z</time>
      </trkpt>
      <trkpt lat="45.97024" lon="6.24654">
        <ele>1524</ele>
        <time>2016-08-27T07:24:27.000Z</time>
      </trkpt>
      <trkpt lat="45.97025" lon="6.24655">
        <ele>1524</ele>
        <time>2016-08-27T07:24:28.000Z</time>
      </trkpt>
      <trkpt lat="45.97025" lon="6.24657">
        <ele>1524</ele>
        <time>2016-08-27T07:24:29.000Z</time>
      </trkpt>
      <trkpt lat="45.97025" lon="6.24658">
        <ele>1524</ele>
        <time>2016-08-27T07:24:30.000Z</time>
      </trkpt>
      <trkpt lat="45.97025" lon="6.2466">
        <ele>1524</ele>
        <time>2016-08-27T07:24:31.000Z</time>
      </trkpt>
      <trkpt lat="45.97025" lon="6.24662">
        <ele>1525</ele>
        <time>2016-08-27T07:24:32.000Z</time>
      </trkpt>
      <trkpt lat="45.97025" lon="6.24664">
        <ele>1525</ele>
        <time>2016-08-27T07:24:33.000Z</time>
      </trkpt>
      <trkpt lat="45.97025" lon="6.24666">
        <ele>1525</ele>
        <time>2016-08-27T07:24:34.000Z</time>
      </trkpt>
      <trkpt lat="45.97025" lon="6.24668">
        <ele>1525</ele>
        <time>2016-08-27T07:24:35.000Z</time>
      </trkpt>
      <trkpt lat="45.97024" lon="6.24669">
        <ele>1525</ele>
        <time>2016-08-27T07:24:36.000Z</time>
      </trkpt>
      <trkpt lat="45.97025" lon="6.24671">
        <ele>1525</ele>
        <time>2016-08-27T07:24:37.000Z</time>
      </trkpt>
      <trkpt lat="45.97025" lon="6.24672">
        <ele>1525</ele>
        <time>2016-08-27T07:24:38.000Z</time>
      </trkpt>
      <trkpt lat="45.97026" lon="6.24674">
        <ele>1525</ele>
        <time>2016-08-27T07:24:39.000Z</time>
      </trkpt>
      <trkpt lat="45.97027" lon="6.24675">
        <ele>1526</ele>
        <time>2016-08-27T07:24:40.000Z</time>
      </trkpt>
      <trkpt lat="45.97027" lon="6.24676">
        <ele>1526</ele>
        <time>2016-08-27T07:24:41.000Z</time>
      </trkpt>
      <trkpt lat="45.97028" lon="6.24678">
        <ele>1526</ele>
        <time>2016-08-27T07:24:42.000Z</time>
      </trkpt>
      <trkpt lat="45.97029" lon="6.24679">
        <ele>1526</ele>
        <time>2016-08-27T07:24:43.000Z</time>
      </trkpt>
      <trkpt lat="45.9703" lon="6.24681">
        <ele>1527</ele>
        <time>2016-08-27T07:24:44.000Z</time>
      </trkpt>
      <trkpt lat="45.97031" lon="6.24682">
        <ele>1527</ele>
        <time>2016-08-27T07:24:45.000Z</time>
      </trkpt>
      <trkpt lat="45.97032" lon="6.24684">
        <ele>1527</ele>
        <time>2016-08-27T07:24:46.000Z</time>
      </trkpt>
      <trkpt lat="45.97033" lon="6.24687">
        <ele>1527</ele>
        <time>2016-08-27T07:24:47.000Z</time>
      </trkpt>
      <trkpt lat="45.97034" lon="6.24689">
        <ele>1527</ele>
        <time>2016-08-27T07:24:48.000Z</time>
      </trkpt>
      <trkpt lat="45.97035" lon="6.24691">
        <ele>1527</ele>
        <time>2016-08-27T07:24:49.000Z</time>
      </trkpt>
      <trkpt lat="45.97036" lon="6.24693">
        <ele>1527</ele>
        <time>2016-08-27T07:24:50.000Z</time>
      </trkpt>
      <trkpt lat="45.97037" lon="6.24696">
        <ele>1527</ele>
        <time>2016-08-27T07:24:51.000Z</time>
      </trkpt>
      <trkpt lat="45.97038" lon="6.24699">
        <ele>1528</ele>
        <time>2016-08-27T07:24:52.000Z</time>
      </trkpt>
      <trkpt lat="45.97039" lon="6.24701">
        <ele>1528</ele>
        <time>2016-08-27T07:24:53.000Z</time>
      </trkpt>
      <trkpt lat="45.9704" lon="6.24703">
        <ele>1528</ele>
        <time>2016-08-27T07:24:54.000Z</time>
      </trkpt>
      <trkpt lat="45.97041" lon="6.24706">
        <ele>1528</ele>
        <time>2016-08-27T07:24:55.000Z</time>
      </trkpt>
      <trkpt lat="45.97042" lon="6.24709">
        <ele>1529</ele>
        <time>2016-08-27T07:24:56.000Z</time>
      </trkpt>
      <trkpt lat="45.97043" lon="6.24711">
        <ele>1529</ele>
        <time>2016-08-27T07:24:57.000Z</time>
      </trkpt>
      <trkpt lat="45.97044" lon="6.24714">
        <ele>1529</ele>
        <time>2016-08-27T07:24:58.000Z</time>
      </trkpt>
      <trkpt lat="45.97045" lon="6.24716">
        <ele>1529</ele>
        <time>2016-08-27T07:24:59.000Z</time>
      </trkpt>
      <trkpt lat="45.97046" lon="6.24718">
        <ele>1529</ele>
        <time>2016-08-27T07:25:00.000Z</time>
      </trkpt>
      <trkpt lat="45.97046" lon="6.2472">
        <ele>1529</ele>
        <time>2016-08-27T07:25:01.000Z</time>
      </trkpt>
      <trkpt lat="45.97047" lon="6.24722">
        <ele>1530</ele>
        <time>2016-08-27T07:25:02.000Z</time>
      </trkpt>
      <trkpt lat="45.97047" lon="6.24724">
        <ele>1530</ele>
        <time>2016-08-27T07:25:03.000Z</time>
      </trkpt>
      <trkpt lat="45.97047" lon="6.24725">
        <ele>1531</ele>
        <time>2016-08-27T07:25:04.000Z</time>
      </trkpt>
      <trkpt lat="45.97048" lon="6.24726">
        <ele>1531</ele>
        <time>2016-08-27T07:25:05.000Z</time>
      </trkpt>
      <trkpt lat="45.97048" lon="6.24727">
        <ele>1531</ele>
        <time>2016-08-27T07:25:06.000Z</time>
      </trkpt>
      <trkpt lat="45.97048" lon="6.24728">
        <ele>1531</ele>
        <time>2016-08-27T07:25:07.000Z</time>
      </trkpt>
      <trkpt lat="45.97048" lon="6.24729">
        <ele>1532</ele>
        <time>2016-08-27T07:25:08.000Z</time>
      </trkpt>
      <trkpt lat="45.97047" lon="6.24729">
        <ele>1532</ele>
        <time>2016-08-27T07:25:09.000Z</time>
      </trkpt>
      <trkpt lat="45.97047" lon="6.24729">
        <ele>1533</ele>
        <time>2016-08-27T07:25:10.000Z</time>
      </trkpt>
      <trkpt lat="45.97046" lon="6.24729">
        <ele>1533</ele>
        <time>2016-08-27T07:25:11.000Z</time>
      </trkpt>
      <trkpt lat="45.97045" lon="6.24729">
        <ele>1533</ele>
        <time>2016-08-27T07:25:12.000Z</time>
      </trkpt>
      <trkpt lat="45.97044" lon="6.24729">
        <ele>1533</ele>
        <time>2016-08-27T07:25:13.000Z</time>
      </trkpt>
      <trkpt lat="45.97043" lon="6.2473">
        <ele>1534</ele>
        <time>2016-08-27T07:25:14.000Z</time>
      </trkpt>
      <trkpt lat="45.97042" lon="6.24731">
        <ele>1534</ele>
        <time>2016-08-27T07:25:15.000Z</time>
      </trkpt>
      <trkpt lat="45.97041" lon="6.24731">
        <ele>1534</ele>
        <time>2016-08-27T07:25:16.000Z</time>
      </trkpt>
      <trkpt lat="45.9704" lon="6.24732">
        <ele>1534</ele>
        <time>2016-08-27T07:25:17.000Z</time>
      </trkpt>
      <trkpt lat="45.9704" lon="6.24733">
        <ele>1534</ele>
        <time>2016-08-27T07:25:18.000Z</time>
      </trkpt>
      <trkpt lat="45.97039" lon="6.24733">
        <ele>1534</ele>
        <time>2016-08-27T07:25:19.000Z</time>
      </trkpt>
      <trkpt lat="45.97038" lon="6.24733">
        <ele>1535</ele>
        <time>2016-08-27T07:25:20.000Z</time>
      </trkpt>
      <trkpt lat="45.97037" lon="6.24733">
        <ele>1535</ele>
        <time>2016-08-27T07:25:21.000Z</time>
      </trkpt>
      <trkpt lat="45.97036" lon="6.24734">
        <ele>1535</ele>
        <time>2016-08-27T07:25:22.000Z</time>
      </trkpt>
      <trkpt lat="45.97035" lon="6.24734">
        <ele>1535</ele>
        <time>2016-08-27T07:25:23.000Z</time>
      </trkpt>
      <trkpt lat="45.97034" lon="6.24734">
        <ele>1535</ele>
        <time>2016-08-27T07:25:24.000Z</time>
      </trkpt>
      <trkpt lat="45.97033" lon="6.24735">
        <ele>1535</ele>
        <time>2016-08-27T07:25:25.000Z</time>
      </trkpt>
      <trkpt lat="45.97032" lon="6.24735">
        <ele>1535</ele>
        <time>2016-08-27T07:25:26.000Z</time>
      </trkpt>
      <trkpt lat="45.97031" lon="6.24735">
        <ele>1535</ele>
        <time>2016-08-27T07:25:27.000Z</time>
      </trkpt>
      <trkpt lat="45.9703" lon="6.24736">
        <ele>1536</ele>
        <time>2016-08-27T07:25:28.000Z</time>
      </trkpt>
      <trkpt lat="45.97028" lon="6.24737">
        <ele>1536</ele>
        <time>2016-08-27T07:25:29.000Z</time>
      </trkpt>
      <trkpt lat="45.97027" lon="6.24737">
        <ele>1536</ele>
        <time>2016-08-27T07:25:30.000Z</time>
      </trkpt>
      <trkpt lat="45.97025" lon="6.24737">
        <ele>1536</ele>
        <time>2016-08-27T07:25:31.000Z</time>
      </trkpt>
      <trkpt lat="45.97024" lon="6.24738">
        <ele>1536</ele>
        <time>2016-08-27T07:25:32.000Z</time>
      </trkpt>
      <trkpt lat="45.97023" lon="6.24738">
        <ele>1536</ele>
        <time>2016-08-27T07:25:33.000Z</time>
      </trkpt>
      <trkpt lat="45.97022" lon="6.24738">
        <ele>1536</ele>
        <time>2016-08-27T07:25:34.000Z</time>
      </trkpt>
      <trkpt lat="45.97021" lon="6.24738">
        <ele>1536</ele>
        <time>2016-08-27T07:25:35.000Z</time>
      </trkpt>
      <trkpt lat="45.97019" lon="6.24738">
        <ele>1536</ele>
        <time>2016-08-27T07:25:36.000Z</time>
      </trkpt>
      <trkpt lat="45.97018" lon="6.24737">
        <ele>1536</ele>
        <time>2016-08-27T07:25:37.000Z</time>
      </trkpt>
      <trkpt lat="45.97017" lon="6.24737">
        <ele>1536</ele>
        <time>2016-08-27T07:25:38.000Z</time>
      </trkpt>
      <trkpt lat="45.97017" lon="6.24738">
        <ele>1536</ele>
        <time>2016-08-27T07:25:39.000Z</time>
      </trkpt>
      <trkpt lat="45.97016" lon="6.24738">
        <ele>1537</ele>
        <time>2016-08-27T07:25:40.000Z</time>
      </trkpt>
      <trkpt lat="45.97015" lon="6.24738">
        <ele>1537</ele>
        <time>2016-08-27T07:25:41.000Z</time>
      </trkpt>
      <trkpt lat="45.97014" lon="6.24738">
        <ele>1537</ele>
        <time>2016-08-27T07:25:42.000Z</time>
      </trkpt>
      <trkpt lat="45.97013" lon="6.24738">
        <ele>1537</ele>
        <time>2016-08-27T07:25:43.000Z</time>
      </trkpt>
      <trkpt lat="45.97012" lon="6.24739">
        <ele>1538</ele>
        <time>2016-08-27T07:25:44.000Z</time>
      </trkpt>
      <trkpt lat="45.97012" lon="6.24739">
        <ele>1538</ele>
        <time>2016-08-27T07:25:45.000Z</time>
      </trkpt>
      <trkpt lat="45.97011" lon="6.24739">
        <ele>1538</ele>
        <time>2016-08-27T07:25:46.000Z</time>
      </trkpt>
      <trkpt lat="45.9701" lon="6.24739">
        <ele>1538</ele>
        <time>2016-08-27T07:25:47.000Z</time>
      </trkpt>
      <trkpt lat="45.9701" lon="6.24739">
        <ele>1538</ele>
        <time>2016-08-27T07:25:48.000Z</time>
      </trkpt>
      <trkpt lat="45.97009" lon="6.24739">
        <ele>1538</ele>
        <time>2016-08-27T07:25:49.000Z</time>
      </trkpt>
      <trkpt lat="45.97008" lon="6.24739">
        <ele>1539</ele>
        <time>2016-08-27T07:25:50.000Z</time>
      </trkpt>
      <trkpt lat="45.97007" lon="6.24739">
        <ele>1539</ele>
        <time>2016-08-27T07:25:51.000Z</time>
      </trkpt>
      <trkpt lat="45.97006" lon="6.24739">
        <ele>1539</ele>
        <time>2016-08-27T07:25:52.000Z</time>
      </trkpt>
      <trkpt lat="45.97005" lon="6.24738">
        <ele>1539</ele>
        <time>2016-08-27T07:25:53.000Z</time>
      </trkpt>
      <trkpt lat="45.97004" lon="6.24738">
        <ele>1539</ele>
        <time>2016-08-27T07:25:54.000Z</time>
      </trkpt>
      <trkpt lat="45.97003" lon="6.24738">
        <ele>1539</ele>
        <time>2016-08-27T07:25:55.000Z</time>
      </trkpt>
      <trkpt lat="45.97002" lon="6.24738">
        <ele>1540</ele>
        <time>2016-08-27T07:25:56.000Z</time>
      </trkpt>
      <trkpt lat="45.97" lon="6.24738">
        <ele>1540</ele>
        <time>2016-08-27T07:25:57.000Z</time>
      </trkpt>
      <trkpt lat="45.97" lon="6.24738">
        <ele>1540</ele>
        <time>2016-08-27T07:25:58.000Z</time>
      </trkpt>
      <trkpt lat="45.96999" lon="6.24737">
        <ele>1540</ele>
        <time>2016-08-27T07:25:59.000Z</time>
      </trkpt>
      <trkpt lat="45.96997" lon="6.24737">
        <ele>1540</ele>
        <time>2016-08-27T07:26:00.000Z</time>
      </trkpt>
      <trkpt lat="45.96996" lon="6.24737">
        <ele>1540</ele>
        <time>2016-08-27T07:26:01.000Z</time>
      </trkpt>
      <trkpt lat="45.96995" lon="6.24736">
        <ele>1541</ele>
        <time>2016-08-27T07:26:02.000Z</time>
      </trkpt>
      <trkpt lat="45.96994" lon="6.24736">
        <ele>1541</ele>
        <time>2016-08-27T07:26:03.000Z</time>
      </trkpt>
      <trkpt lat="45.96993" lon="6.24736">
        <ele>1541</ele>
        <time>2016-08-27T07:26:04.000Z</time>
      </trkpt>
      <trkpt lat="45.96993" lon="6.24736">
        <ele>1541</ele>
        <time>2016-08-27T07:26:05.000Z</time>
      </trkpt>
      <trkpt lat="45.96992" lon="6.24737">
        <ele>1542</ele>
        <time>2016-08-27T07:26:06.000Z</time>
      </trkpt>
      <trkpt lat="45.96991" lon="6.24738">
        <ele>1542</ele>
        <time>2016-08-27T07:26:07.000Z</time>
      </trkpt>
      <trkpt lat="45.9699" lon="6.24738">
        <ele>1542</ele>
        <time>2016-08-27T07:26:08.000Z</time>
      </trkpt>
      <trkpt lat="45.96989" lon="6.24739">
        <ele>1542</ele>
        <time>2016-08-27T07:26:09.000Z</time>
      </trkpt>
      <trkpt lat="45.96989" lon="6.24739">
        <ele>1542</ele>
        <time>2016-08-27T07:26:10.000Z</time>
      </trkpt>
      <trkpt lat="45.96988" lon="6.24739">
        <ele>1542</ele>
        <time>2016-08-27T07:26:11.000Z</time>
      </trkpt>
      <trkpt lat="45.96987" lon="6.24739">
        <ele>1543</ele>
        <time>2016-08-27T07:26:12.000Z</time>
      </trkpt>
      <trkpt lat="45.96986" lon="6.2474">
        <ele>1543</ele>
        <time>2016-08-27T07:26:13.000Z</time>
      </trkpt>
      <trkpt lat="45.96985" lon="6.2474">
        <ele>1543</ele>
        <time>2016-08-27T07:26:14.000Z</time>
      </trkpt>
      <trkpt lat="45.96984" lon="6.2474">
        <ele>1543</ele>
        <time>2016-08-27T07:26:15.000Z</time>
      </trkpt>
      <trkpt lat="45.96983" lon="6.2474">
        <ele>1543</ele>
        <time>2016-08-27T07:26:16.000Z</time>
      </trkpt>
      <trkpt lat="45.96982" lon="6.2474">
        <ele>1543</ele>
        <time>2016-08-27T07:26:17.000Z</time>
      </trkpt>
      <trkpt lat="45.9698" lon="6.24741">
        <ele>1544</ele>
        <time>2016-08-27T07:26:18.000Z</time>
      </trkpt>
      <trkpt lat="45.96979" lon="6.2474">
        <ele>1544</ele>
        <time>2016-08-27T07:26:19.000Z</time>
      </trkpt>
      <trkpt lat="45.96978" lon="6.2474">
        <ele>1544</ele>
        <time>2016-08-27T07:26:20.000Z</time>
      </trkpt>
      <trkpt lat="45.96977" lon="6.24739">
        <ele>1544</ele>
        <time>2016-08-27T07:26:21.000Z</time>
      </trkpt>
      <trkpt lat="45.96976" lon="6.24739">
        <ele>1544</ele>
        <time>2016-08-27T07:26:22.000Z</time>
      </trkpt>
      <trkpt lat="45.96975" lon="6.24738">
        <ele>1544</ele>
        <time>2016-08-27T07:26:23.000Z</time>
      </trkpt>
      <trkpt lat="45.96974" lon="6.24737">
        <ele>1545</ele>
        <time>2016-08-27T07:26:24.000Z</time>
      </trkpt>
      <trkpt lat="45.96973" lon="6.24737">
        <ele>1545</ele>
        <time>2016-08-27T07:26:25.000Z</time>
      </trkpt>
      <trkpt lat="45.96972" lon="6.24736">
        <ele>1545</ele>
        <time>2016-08-27T07:26:26.000Z</time>
      </trkpt>
      <trkpt lat="45.96971" lon="6.24735">
        <ele>1545</ele>
        <time>2016-08-27T07:26:27.000Z</time>
      </trkpt>
      <trkpt lat="45.9697" lon="6.24735">
        <ele>1546</ele>
        <time>2016-08-27T07:26:28.000Z</time>
      </trkpt>
      <trkpt lat="45.96969" lon="6.24735">
        <ele>1546</ele>
        <time>2016-08-27T07:26:29.000Z</time>
      </trkpt>
      <trkpt lat="45.96967" lon="6.24734">
        <ele>1546</ele>
        <time>2016-08-27T07:26:30.000Z</time>
      </trkpt>
      <trkpt lat="45.96966" lon="6.24733">
        <ele>1546</ele>
        <time>2016-08-27T07:26:31.000Z</time>
      </trkpt>
      <trkpt lat="45.96964" lon="6.24732">
        <ele>1546</ele>
        <time>2016-08-27T07:26:32.000Z</time>
      </trkpt>
      <trkpt lat="45.96963" lon="6.24731">
        <ele>1546</ele>
        <time>2016-08-27T07:26:33.000Z</time>
      </trkpt>
      <trkpt lat="45.96962" lon="6.24731">
        <ele>1546</ele>
        <time>2016-08-27T07:26:34.000Z</time>
      </trkpt>
      <trkpt lat="45.96961" lon="6.2473">
        <ele>1546</ele>
        <time>2016-08-27T07:26:35.000Z</time>
      </trkpt>
      <trkpt lat="45.9696" lon="6.24729">
        <ele>1547</ele>
        <time>2016-08-27T07:26:36.000Z</time>
      </trkpt>
      <trkpt lat="45.96959" lon="6.24728">
        <ele>1547</ele>
        <time>2016-08-27T07:26:37.000Z</time>
      </trkpt>
      <trkpt lat="45.96958" lon="6.24727">
        <ele>1547</ele>
        <time>2016-08-27T07:26:38.000Z</time>
      </trkpt>
      <trkpt lat="45.96957" lon="6.24726">
        <ele>1547</ele>
        <time>2016-08-27T07:26:39.000Z</time>
      </trkpt>
      <trkpt lat="45.96956" lon="6.24725">
        <ele>1548</ele>
        <time>2016-08-27T07:26:40.000Z</time>
      </trkpt>
      <trkpt lat="45.96955" lon="6.24724">
        <ele>1548</ele>
        <time>2016-08-27T07:26:41.000Z</time>
      </trkpt>
      <trkpt lat="45.96954" lon="6.24723">
        <ele>1548</ele>
        <time>2016-08-27T07:26:42.000Z</time>
      </trkpt>
      <trkpt lat="45.96952" lon="6.24722">
        <ele>1548</ele>
        <time>2016-08-27T07:26:43.000Z</time>
      </trkpt>
      <trkpt lat="45.96951" lon="6.2472">
        <ele>1548</ele>
        <time>2016-08-27T07:26:44.000Z</time>
      </trkpt>
      <trkpt lat="45.96949" lon="6.24719">
        <ele>1548</ele>
        <time>2016-08-27T07:26:45.000Z</time>
      </trkpt>
      <trkpt lat="45.96948" lon="6.24717">
        <ele>1549</ele>
        <time>2016-08-27T07:26:46.000Z</time>
      </trkpt>
      <trkpt lat="45.96946" lon="6.24716">
        <ele>1549</ele>
        <time>2016-08-27T07:26:47.000Z</time>
      </trkpt>
      <trkpt lat="45.96944" lon="6.24714">
        <ele>1549</ele>
        <time>2016-08-27T07:26:48.000Z</time>
      </trkpt>
      <trkpt lat="45.96943" lon="6.24712">
        <ele>1549</ele>
        <time>2016-08-27T07:26:49.000Z</time>
      </trkpt>
      <trkpt lat="45.96942" lon="6.2471">
        <ele>1549</ele>
        <time>2016-08-27T07:26:50.000Z</time>
      </trkpt>
      <trkpt lat="45.96941" lon="6.24707">
        <ele>1549</ele>
        <time>2016-08-27T07:26:51.000Z</time>
      </trkpt>
      <trkpt lat="45.9694" lon="6.24705">
        <ele>1549</ele>
        <time>2016-08-27T07:26:52.000Z</time>
      </trkpt>
      <trkpt lat="45.96939" lon="6.24702">
        <ele>1549</ele>
        <time>2016-08-27T07:26:53.000Z</time>
      </trkpt>
      <trkpt lat="45.96937" lon="6.247">
        <ele>1550</ele>
        <time>2016-08-27T07:26:54.000Z</time>
      </trkpt>
      <trkpt lat="45.96936" lon="6.24697">
        <ele>1550</ele>
        <time>2016-08-27T07:26:55.000Z</time>
      </trkpt>
      <trkpt lat="45.96934" lon="6.24695">
        <ele>1550</ele>
        <time>2016-08-27T07:26:56.000Z</time>
      </trkpt>
      <trkpt lat="45.96932" lon="6.24693">
        <ele>1550</ele>
        <time>2016-08-27T07:26:57.000Z</time>
      </trkpt>
      <trkpt lat="45.96931" lon="6.24692">
        <ele>1550</ele>
        <time>2016-08-27T07:26:58.000Z</time>
      </trkpt>
      <trkpt lat="45.96929" lon="6.2469">
        <ele>1550</ele>
        <time>2016-08-27T07:26:59.000Z</time>
      </trkpt>
      <trkpt lat="45.96928" lon="6.24688">
        <ele>1550</ele>
        <time>2016-08-27T07:27:00.000Z</time>
      </trkpt>
      <trkpt lat="45.96926" lon="6.24687">
        <ele>1550</ele>
        <time>2016-08-27T07:27:01.000Z</time>
      </trkpt>
      <trkpt lat="45.96925" lon="6.24685">
        <ele>1550</ele>
        <time>2016-08-27T07:27:02.000Z</time>
      </trkpt>
      <trkpt lat="45.96924" lon="6.24683">
        <ele>1550</ele>
        <time>2016-08-27T07:27:03.000Z</time>
      </trkpt>
      <trkpt lat="45.96923" lon="6.24682">
        <ele>1551</ele>
        <time>2016-08-27T07:27:04.000Z</time>
      </trkpt>
      <trkpt lat="45.96921" lon="6.24681">
        <ele>1551</ele>
        <time>2016-08-27T07:27:05.000Z</time>
      </trkpt>
      <trkpt lat="45.9692" lon="6.24679">
        <ele>1551</ele>
        <time>2016-08-27T07:27:06.000Z</time>
      </trkpt>
      <trkpt lat="45.96919" lon="6.24679">
        <ele>1551</ele>
        <time>2016-08-27T07:27:07.000Z</time>
      </trkpt>
      <trkpt lat="45.96918" lon="6.24677">
        <ele>1551</ele>
        <time>2016-08-27T07:27:08.000Z</time>
      </trkpt>
      <trkpt lat="45.96917" lon="6.24675">
        <ele>1551</ele>
        <time>2016-08-27T07:27:09.000Z</time>
      </trkpt>
      <trkpt lat="45.96916" lon="6.24674">
        <ele>1551</ele>
        <time>2016-08-27T07:27:10.000Z</time>
      </trkpt>
      <trkpt lat="45.96914" lon="6.24672">
        <ele>1551</ele>
        <time>2016-08-27T07:27:11.000Z</time>
      </trkpt>
      <trkpt lat="45.96913" lon="6.24671">
        <ele>1551</ele>
        <time>2016-08-27T07:27:12.000Z</time>
      </trkpt>
      <trkpt lat="45.96912" lon="6.2467">
        <ele>1551</ele>
        <time>2016-08-27T07:27:13.000Z</time>
      </trkpt>
      <trkpt lat="45.9691" lon="6.24668">
        <ele>1551</ele>
        <time>2016-08-27T07:27:14.000Z</time>
      </trkpt>
      <trkpt lat="45.96909" lon="6.24667">
        <ele>1551</ele>
        <time>2016-08-27T07:27:15.000Z</time>
      </trkpt>
      <trkpt lat="45.96907" lon="6.24665">
        <ele>1551</ele>
        <time>2016-08-27T07:27:16.000Z</time>
      </trkpt>
      <trkpt lat="45.96905" lon="6.24664">
        <ele>1551</ele>
        <time>2016-08-27T07:27:17.000Z</time>
      </trkpt>
      <trkpt lat="45.96903" lon="6.24662">
        <ele>1551</ele>
        <time>2016-08-27T07:27:18.000Z</time>
      </trkpt>
      <trkpt lat="45.96901" lon="6.24661">
        <ele>1551</ele>
        <time>2016-08-27T07:27:19.000Z</time>
      </trkpt>
      <trkpt lat="45.969" lon="6.2466">
        <ele>1551</ele>
        <time>2016-08-27T07:27:20.000Z</time>
      </trkpt>
      <trkpt lat="45.96899" lon="6.24659">
        <ele>1551</ele>
        <time>2016-08-27T07:27:21.000Z</time>
      </trkpt>
      <trkpt lat="45.96898" lon="6.24657">
        <ele>1551</ele>
        <time>2016-08-27T07:27:22.000Z</time>
      </trkpt>
      <trkpt lat="45.96896" lon="6.24656">
        <ele>1551</ele>
        <time>2016-08-27T07:27:23.000Z</time>
      </trkpt>
      <trkpt lat="45.96895" lon="6.24655">
        <ele>1551</ele>
        <time>2016-08-27T07:27:24.000Z</time>
      </trkpt>
      <trkpt lat="45.96894" lon="6.24654">
        <ele>1551</ele>
        <time>2016-08-27T07:27:25.000Z</time>
      </trkpt>
      <trkpt lat="45.96893" lon="6.24653">
        <ele>1551</ele>
        <time>2016-08-27T07:27:26.000Z</time>
      </trkpt>
      <trkpt lat="45.96892" lon="6.24652">
        <ele>1551</ele>
        <time>2016-08-27T07:27:27.000Z</time>
      </trkpt>
      <trkpt lat="45.96891" lon="6.24651">
        <ele>1551</ele>
        <time>2016-08-27T07:27:28.000Z</time>
      </trkpt>
      <trkpt lat="45.9689" lon="6.2465">
        <ele>1551</ele>
        <time>2016-08-27T07:27:29.000Z</time>
      </trkpt>
      <trkpt lat="45.9689" lon="6.24649">
        <ele>1551</ele>
        <time>2016-08-27T07:27:30.000Z</time>
      </trkpt>
      <trkpt lat="45.96889" lon="6.24648">
        <ele>1551</ele>
        <time>2016-08-27T07:27:31.000Z</time>
      </trkpt>
      <trkpt lat="45.96888" lon="6.24647">
        <ele>1551</ele>
        <time>2016-08-27T07:27:32.000Z</time>
      </trkpt>
      <trkpt lat="45.96888" lon="6.24646">
        <ele>1551</ele>
        <time>2016-08-27T07:27:33.000Z</time>
      </trkpt>
      <trkpt lat="45.96887" lon="6.24644">
        <ele>1551</ele>
        <time>2016-08-27T07:27:34.000Z</time>
      </trkpt>
      <trkpt lat="45.96887" lon="6.24643">
        <ele>1551</ele>
        <time>2016-08-27T07:27:35.000Z</time>
      </trkpt>
      <trkpt lat="45.96886" lon="6.24642">
        <ele>1551</ele>
        <time>2016-08-27T07:27:36.000Z</time>
      </trkpt>
      <trkpt lat="45.96884" lon="6.24641">
        <ele>1551</ele>
        <time>2016-08-27T07:27:37.000Z</time>
      </trkpt>
      <trkpt lat="45.96883" lon="6.24639">
        <ele>1551</ele>
        <time>2016-08-27T07:27:38.000Z</time>
      </trkpt>
      <trkpt lat="45.96882" lon="6.24638">
        <ele>1551</ele>
        <time>2016-08-27T07:27:39.000Z</time>
      </trkpt>
      <trkpt lat="45.96881" lon="6.24637">
        <ele>1551</ele>
        <time>2016-08-27T07:27:40.000Z</time>
      </trkpt>
      <trkpt lat="45.9688" lon="6.24636">
        <ele>1551</ele>
        <time>2016-08-27T07:27:41.000Z</time>
      </trkpt>
      <trkpt lat="45.96878" lon="6.24635">
        <ele>1552</ele>
        <time>2016-08-27T07:27:42.000Z</time>
      </trkpt>
      <trkpt lat="45.96876" lon="6.24634">
        <ele>1552</ele>
        <time>2016-08-27T07:27:43.000Z</time>
      </trkpt>
      <trkpt lat="45.96874" lon="6.24634">
        <ele>1552</ele>
        <time>2016-08-27T07:27:44.000Z</time>
      </trkpt>
      <trkpt lat="45.96873" lon="6.24633">
        <ele>1552</ele>
        <time>2016-08-27T07:27:45.000Z</time>
      </trkpt>
      <trkpt lat="45.96871" lon="6.24632">
        <ele>1552</ele>
        <time>2016-08-27T07:27:46.000Z</time>
      </trkpt>
      <trkpt lat="45.9687" lon="6.24632">
        <ele>1552</ele>
        <time>2016-08-27T07:27:47.000Z</time>
      </trkpt>
      <trkpt lat="45.96868" lon="6.24631">
        <ele>1553</ele>
        <time>2016-08-27T07:27:48.000Z</time>
      </trkpt>
      <trkpt lat="45.96867" lon="6.24631">
        <ele>1553</ele>
        <time>2016-08-27T07:27:49.000Z</time>
      </trkpt>
      <trkpt lat="45.96866" lon="6.2463">
        <ele>1553</ele>
        <time>2016-08-27T07:27:50.000Z</time>
      </trkpt>
      <trkpt lat="45.96865" lon="6.2463">
        <ele>1553</ele>
        <time>2016-08-27T07:27:51.000Z</time>
      </trkpt>
      <trkpt lat="45.96863" lon="6.2463">
        <ele>1553</ele>
        <time>2016-08-27T07:27:52.000Z</time>
      </trkpt>
      <trkpt lat="45.96862" lon="6.24629">
        <ele>1553</ele>
        <time>2016-08-27T07:27:53.000Z</time>
      </trkpt>
      <trkpt lat="45.96861" lon="6.24629">
        <ele>1553</ele>
        <time>2016-08-27T07:27:54.000Z</time>
      </trkpt>
      <trkpt lat="45.9686" lon="6.24628">
        <ele>1553</ele>
        <time>2016-08-27T07:27:55.000Z</time>
      </trkpt>
      <trkpt lat="45.96859" lon="6.24628">
        <ele>1554</ele>
        <time>2016-08-27T07:27:56.000Z</time>
      </trkpt>
      <trkpt lat="45.96858" lon="6.24627">
        <ele>1554</ele>
        <time>2016-08-27T07:27:57.000Z</time>
      </trkpt>
      <trkpt lat="45.96856" lon="6.24626">
        <ele>1554</ele>
        <time>2016-08-27T07:27:58.000Z</time>
      </trkpt>
      <trkpt lat="45.96855" lon="6.24626">
        <ele>1554</ele>
        <time>2016-08-27T07:27:59.000Z</time>
      </trkpt>
      <trkpt lat="45.96854" lon="6.24625">
        <ele>1554</ele>
        <time>2016-08-27T07:28:00.000Z</time>
      </trkpt>
      <trkpt lat="45.96853" lon="6.24624">
        <ele>1554</ele>
        <time>2016-08-27T07:28:01.000Z</time>
      </trkpt>
      <trkpt lat="45.96852" lon="6.24624">
        <ele>1554</ele>
        <time>2016-08-27T07:28:02.000Z</time>
      </trkpt>
      <trkpt lat="45.9685" lon="6.24623">
        <ele>1554</ele>
        <time>2016-08-27T07:28:03.000Z</time>
      </trkpt>
      <trkpt lat="45.96849" lon="6.24623">
        <ele>1554</ele>
        <time>2016-08-27T07:28:04.000Z</time>
      </trkpt>
      <trkpt lat="45.96848" lon="6.24623">
        <ele>1554</ele>
        <time>2016-08-27T07:28:05.000Z</time>
      </trkpt>
      <trkpt lat="45.96846" lon="6.24622">
        <ele>1555</ele>
        <time>2016-08-27T07:28:06.000Z</time>
      </trkpt>
      <trkpt lat="45.96845" lon="6.24622">
        <ele>1555</ele>
        <time>2016-08-27T07:28:07.000Z</time>
      </trkpt>
      <trkpt lat="45.96844" lon="6.24621">
        <ele>1555</ele>
        <time>2016-08-27T07:28:08.000Z</time>
      </trkpt>
      <trkpt lat="45.96842" lon="6.2462">
        <ele>1555</ele>
        <time>2016-08-27T07:28:09.000Z</time>
      </trkpt>
      <trkpt lat="45.96841" lon="6.24619">
        <ele>1555</ele>
        <time>2016-08-27T07:28:10.000Z</time>
      </trkpt>
      <trkpt lat="45.9684" lon="6.24618">
        <ele>1555</ele>
        <time>2016-08-27T07:28:11.000Z</time>
      </trkpt>
      <trkpt lat="45.96838" lon="6.24617">
        <ele>1555</ele>
        <time>2016-08-27T07:28:12.000Z</time>
      </trkpt>
      <trkpt lat="45.96837" lon="6.24616">
        <ele>1555</ele>
        <time>2016-08-27T07:28:13.000Z</time>
      </trkpt>
      <trkpt lat="45.96835" lon="6.24615">
        <ele>1556</ele>
        <time>2016-08-27T07:28:14.000Z</time>
      </trkpt>
      <trkpt lat="45.96834" lon="6.24614">
        <ele>1556</ele>
        <time>2016-08-27T07:28:15.000Z</time>
      </trkpt>
      <trkpt lat="45.96833" lon="6.24613">
        <ele>1556</ele>
        <time>2016-08-27T07:28:16.000Z</time>
      </trkpt>
      <trkpt lat="45.96832" lon="6.24613">
        <ele>1556</ele>
        <time>2016-08-27T07:28:17.000Z</time>
      </trkpt>
      <trkpt lat="45.96831" lon="6.24612">
        <ele>1557</ele>
        <time>2016-08-27T07:28:18.000Z</time>
      </trkpt>
      <trkpt lat="45.96829" lon="6.24611">
        <ele>1557</ele>
        <time>2016-08-27T07:28:19.000Z</time>
      </trkpt>
      <trkpt lat="45.96828" lon="6.2461">
        <ele>1557</ele>
        <time>2016-08-27T07:28:20.000Z</time>
      </trkpt>
      <trkpt lat="45.96827" lon="6.24608">
        <ele>1557</ele>
        <time>2016-08-27T07:28:21.000Z</time>
      </trkpt>
      <trkpt lat="45.96826" lon="6.24607">
        <ele>1558</ele>
        <time>2016-08-27T07:28:22.000Z</time>
      </trkpt>
      <trkpt lat="45.96824" lon="6.24606">
        <ele>1558</ele>
        <time>2016-08-27T07:28:23.000Z</time>
      </trkpt>
      <trkpt lat="45.96823" lon="6.24605">
        <ele>1558</ele>
        <time>2016-08-27T07:28:24.000Z</time>
      </trkpt>
      <trkpt lat="45.96822" lon="6.24604">
        <ele>1558</ele>
        <time>2016-08-27T07:28:25.000Z</time>
      </trkpt>
      <trkpt lat="45.9682" lon="6.24602">
        <ele>1558</ele>
        <time>2016-08-27T07:28:26.000Z</time>
      </trkpt>
      <trkpt lat="45.96819" lon="6.24601">
        <ele>1558</ele>
        <time>2016-08-27T07:28:27.000Z</time>
      </trkpt>
      <trkpt lat="45.96818" lon="6.246">
        <ele>1559</ele>
        <time>2016-08-27T07:28:28.000Z</time>
      </trkpt>
      <trkpt lat="45.96817" lon="6.24599">
        <ele>1559</ele>
        <time>2016-08-27T07:28:29.000Z</time>
      </trkpt>
      <trkpt lat="45.96816" lon="6.24598">
        <ele>1559</ele>
        <time>2016-08-27T07:28:30.000Z</time>
      </trkpt>
      <trkpt lat="45.96815" lon="6.24597">
        <ele>1559</ele>
        <time>2016-08-27T07:28:31.000Z</time>
      </trkpt>
      <trkpt lat="45.96814" lon="6.24595">
        <ele>1560</ele>
        <time>2016-08-27T07:28:32.000Z</time>
      </trkpt>
      <trkpt lat="45.96813" lon="6.24593">
        <ele>1560</ele>
        <time>2016-08-27T07:28:33.000Z</time>
      </trkpt>
      <trkpt lat="45.96812" lon="6.24592">
        <ele>1560</ele>
        <time>2016-08-27T07:28:34.000Z</time>
      </trkpt>
      <trkpt lat="45.96811" lon="6.2459">
        <ele>1560</ele>
        <time>2016-08-27T07:28:35.000Z</time>
      </trkpt>
      <trkpt lat="45.9681" lon="6.24588">
        <ele>1561</ele>
        <time>2016-08-27T07:28:36.000Z</time>
      </trkpt>
      <trkpt lat="45.96809" lon="6.24587">
        <ele>1561</ele>
        <time>2016-08-27T07:28:37.000Z</time>
      </trkpt>
      <trkpt lat="45.96808" lon="6.24586">
        <ele>1561</ele>
        <time>2016-08-27T07:28:38.000Z</time>
      </trkpt>
      <trkpt lat="45.96807" lon="6.24585">
        <ele>1561</ele>
        <time>2016-08-27T07:28:39.000Z</time>
      </trkpt>
      <trkpt lat="45.96807" lon="6.24584">
        <ele>1562</ele>
        <time>2016-08-27T07:28:40.000Z</time>
      </trkpt>
      <trkpt lat="45.96806" lon="6.24583">
        <ele>1562</ele>
        <time>2016-08-27T07:28:41.000Z</time>
      </trkpt>
      <trkpt lat="45.96805" lon="6.24582">
        <ele>1562</ele>
        <time>2016-08-27T07:28:42.000Z</time>
      </trkpt>
      <trkpt lat="45.96804" lon="6.24582">
        <ele>1562</ele>
        <time>2016-08-27T07:28:43.000Z</time>
      </trkpt>
      <trkpt lat="45.96803" lon="6.24581">
        <ele>1563</ele>
        <time>2016-08-27T07:28:44.000Z</time>
      </trkpt>
      <trkpt lat="45.96802" lon="6.24581">
        <ele>1563</ele>
        <time>2016-08-27T07:28:45.000Z</time>
      </trkpt>
      <trkpt lat="45.96801" lon="6.24581">
        <ele>1563</ele>
        <time>2016-08-27T07:28:46.000Z</time>
      </trkpt>
      <trkpt lat="45.96801" lon="6.24581">
        <ele>1563</ele>
        <time>2016-08-27T07:28:47.000Z</time>
      </trkpt>
      <trkpt lat="45.968" lon="6.24581">
        <ele>1564</ele>
        <time>2016-08-27T07:28:48.000Z</time>
      </trkpt>
      <trkpt lat="45.968" lon="6.24582">
        <ele>1564</ele>
        <time>2016-08-27T07:28:49.000Z</time>
      </trkpt>
      <trkpt lat="45.96799" lon="6.24583">
        <ele>1565</ele>
        <time>2016-08-27T07:28:50.000Z</time>
      </trkpt>
      <trkpt lat="45.96799" lon="6.24584">
        <ele>1565</ele>
        <time>2016-08-27T07:28:51.000Z</time>
      </trkpt>
      <trkpt lat="45.96799" lon="6.24585">
        <ele>1566</ele>
        <time>2016-08-27T07:28:52.000Z</time>
      </trkpt>
      <trkpt lat="45.968" lon="6.24586">
        <ele>1566</ele>
        <time>2016-08-27T07:28:53.000Z</time>
      </trkpt>
      <trkpt lat="45.968" lon="6.24588">
        <ele>1566</ele>
        <time>2016-08-27T07:28:54.000Z</time>
      </trkpt>
      <trkpt lat="45.968" lon="6.24589">
        <ele>1566</ele>
        <time>2016-08-27T07:28:55.000Z</time>
      </trkpt>
      <trkpt lat="45.968" lon="6.2459">
        <ele>1567</ele>
        <time>2016-08-27T07:28:56.000Z</time>
      </trkpt>
      <trkpt lat="45.968" lon="6.24592">
        <ele>1567</ele>
        <time>2016-08-27T07:28:57.000Z</time>
      </trkpt>
      <trkpt lat="45.968" lon="6.24593">
        <ele>1567</ele>
        <time>2016-08-27T07:28:58.000Z</time>
      </trkpt>
      <trkpt lat="45.968" lon="6.24595">
        <ele>1567</ele>
        <time>2016-08-27T07:28:59.000Z</time>
      </trkpt>
      <trkpt lat="45.968" lon="6.24596">
        <ele>1568</ele>
        <time>2016-08-27T07:29:00.000Z</time>
      </trkpt>
      <trkpt lat="45.968" lon="6.24598">
        <ele>1568</ele>
        <time>2016-08-27T07:29:01.000Z</time>
      </trkpt>
      <trkpt lat="45.96799" lon="6.24599">
        <ele>1568</ele>
        <time>2016-08-27T07:29:02.000Z</time>
      </trkpt>
      <trkpt lat="45.968" lon="6.246">
        <ele>1568</ele>
        <time>2016-08-27T07:29:03.000Z</time>
      </trkpt>
      <trkpt lat="45.968" lon="6.24602">
        <ele>1569</ele>
        <time>2016-08-27T07:29:04.000Z</time>
      </trkpt>
      <trkpt lat="45.968" lon="6.24603">
        <ele>1569</ele>
        <time>2016-08-27T07:29:05.000Z</time>
      </trkpt>
      <trkpt lat="45.968" lon="6.24604">
        <ele>1570</ele>
        <time>2016-08-27T07:29:06.000Z</time>
      </trkpt>
      <trkpt lat="45.968" lon="6.24606">
        <ele>1570</ele>
        <time>2016-08-27T07:29:07.000Z</time>
      </trkpt>
      <trkpt lat="45.968" lon="6.24607">
        <ele>1570</ele>
        <time>2016-08-27T07:29:08.000Z</time>
      </trkpt>
      <trkpt lat="45.968" lon="6.24608">
        <ele>1570</ele>
        <time>2016-08-27T07:29:09.000Z</time>
      </trkpt>
      <trkpt lat="45.968" lon="6.24609">
        <ele>1571</ele>
        <time>2016-08-27T07:29:10.000Z</time>
      </trkpt>
      <trkpt lat="45.968" lon="6.24611">
        <ele>1571</ele>
        <time>2016-08-27T07:29:11.000Z</time>
      </trkpt>
      <trkpt lat="45.968" lon="6.24612">
        <ele>1571</ele>
        <time>2016-08-27T07:29:12.000Z</time>
      </trkpt>
      <trkpt lat="45.968" lon="6.24614">
        <ele>1571</ele>
        <time>2016-08-27T07:29:13.000Z</time>
      </trkpt>
      <trkpt lat="45.96801" lon="6.24615">
        <ele>1572</ele>
        <time>2016-08-27T07:29:14.000Z</time>
      </trkpt>
      <trkpt lat="45.96801" lon="6.24616">
        <ele>1572</ele>
        <time>2016-08-27T07:29:15.000Z</time>
      </trkpt>
      <trkpt lat="45.96801" lon="6.24618">
        <ele>1573</ele>
        <time>2016-08-27T07:29:16.000Z</time>
      </trkpt>
      <trkpt lat="45.96802" lon="6.24619">
        <ele>1573</ele>
        <time>2016-08-27T07:29:17.000Z</time>
      </trkpt>
      <trkpt lat="45.96802" lon="6.2462">
        <ele>1573</ele>
        <time>2016-08-27T07:29:18.000Z</time>
      </trkpt>
      <trkpt lat="45.96802" lon="6.24622">
        <ele>1573</ele>
        <time>2016-08-27T07:29:19.000Z</time>
      </trkpt>
      <trkpt lat="45.96802" lon="6.24623">
        <ele>1574</ele>
        <time>2016-08-27T07:29:20.000Z</time>
      </trkpt>
      <trkpt lat="45.96803" lon="6.24625">
        <ele>1574</ele>
        <time>2016-08-27T07:29:21.000Z</time>
      </trkpt>
      <trkpt lat="45.96803" lon="6.24627">
        <ele>1574</ele>
        <time>2016-08-27T07:29:22.000Z</time>
      </trkpt>
      <trkpt lat="45.96803" lon="6.24628">
        <ele>1574</ele>
        <time>2016-08-27T07:29:23.000Z</time>
      </trkpt>
      <trkpt lat="45.96803" lon="6.24631">
        <ele>1575</ele>
        <time>2016-08-27T07:29:24.000Z</time>
      </trkpt>
      <trkpt lat="45.96803" lon="6.24633">
        <ele>1575</ele>
        <time>2016-08-27T07:29:25.000Z</time>
      </trkpt>
      <trkpt lat="45.96802" lon="6.24634">
        <ele>1576</ele>
        <time>2016-08-27T07:29:26.000Z</time>
      </trkpt>
      <trkpt lat="45.96802" lon="6.24635">
        <ele>1576</ele>
        <time>2016-08-27T07:29:27.000Z</time>
      </trkpt>
      <trkpt lat="45.96802" lon="6.24637">
        <ele>1576</ele>
        <time>2016-08-27T07:29:28.000Z</time>
      </trkpt>
      <trkpt lat="45.96802" lon="6.24639">
        <ele>1576</ele>
        <time>2016-08-27T07:29:29.000Z</time>
      </trkpt>
      <trkpt lat="45.96801" lon="6.2464">
        <ele>1577</ele>
        <time>2016-08-27T07:29:30.000Z</time>
      </trkpt>
      <trkpt lat="45.96801" lon="6.24641">
        <ele>1577</ele>
        <time>2016-08-27T07:29:31.000Z</time>
      </trkpt>
      <trkpt lat="45.968" lon="6.24643">
        <ele>1577</ele>
        <time>2016-08-27T07:29:32.000Z</time>
      </trkpt>
      <trkpt lat="45.968" lon="6.24644">
        <ele>1577</ele>
        <time>2016-08-27T07:29:33.000Z</time>
      </trkpt>
      <trkpt lat="45.968" lon="6.24645">
        <ele>1578</ele>
        <time>2016-08-27T07:29:34.000Z</time>
      </trkpt>
      <trkpt lat="45.96799" lon="6.24646">
        <ele>1578</ele>
        <time>2016-08-27T07:29:35.000Z</time>
      </trkpt>
      <trkpt lat="45.96798" lon="6.24646">
        <ele>1578</ele>
        <time>2016-08-27T07:29:36.000Z</time>
      </trkpt>
      <trkpt lat="45.96798" lon="6.24645">
        <ele>1578</ele>
        <time>2016-08-27T07:29:37.000Z</time>
      </trkpt>
      <trkpt lat="45.96797" lon="6.24645">
        <ele>1579</ele>
        <time>2016-08-27T07:29:38.000Z</time>
      </trkpt>
      <trkpt lat="45.96796" lon="6.24644">
        <ele>1579</ele>
        <time>2016-08-27T07:29:39.000Z</time>
      </trkpt>
      <trkpt lat="45.96795" lon="6.24644">
        <ele>1579</ele>
        <time>2016-08-27T07:29:40.000Z</time>
      </trkpt>
      <trkpt lat="45.96794" lon="6.24643">
        <ele>1579</ele>
        <time>2016-08-27T07:29:41.000Z</time>
      </trkpt>
      <trkpt lat="45.96792" lon="6.24642">
        <ele>1580</ele>
        <time>2016-08-27T07:29:42.000Z</time>
      </trkpt>
      <trkpt lat="45.96791" lon="6.24641">
        <ele>1580</ele>
        <time>2016-08-27T07:29:43.000Z</time>
      </trkpt>
      <trkpt lat="45.96789" lon="6.2464">
        <ele>1580</ele>
        <time>2016-08-27T07:29:44.000Z</time>
      </trkpt>
      <trkpt lat="45.96788" lon="6.24639">
        <ele>1580</ele>
        <time>2016-08-27T07:29:45.000Z</time>
      </trkpt>
      <trkpt lat="45.96786" lon="6.24638">
        <ele>1580</ele>
        <time>2016-08-27T07:29:46.000Z</time>
      </trkpt>
      <trkpt lat="45.96785" lon="6.24638">
        <ele>1580</ele>
        <time>2016-08-27T07:29:47.000Z</time>
      </trkpt>
      <trkpt lat="45.96783" lon="6.24637">
        <ele>1580</ele>
        <time>2016-08-27T07:29:48.000Z</time>
      </trkpt>
      <trkpt lat="45.96782" lon="6.24637">
        <ele>1580</ele>
        <time>2016-08-27T07:29:49.000Z</time>
      </trkpt>
      <trkpt lat="45.9678" lon="6.24636">
        <ele>1580</ele>
        <time>2016-08-27T07:29:50.000Z</time>
      </trkpt>
      <trkpt lat="45.96779" lon="6.24635">
        <ele>1580</ele>
        <time>2016-08-27T07:29:51.000Z</time>
      </trkpt>
      <trkpt lat="45.96777" lon="6.24634">
        <ele>1580</ele>
        <time>2016-08-27T07:29:52.000Z</time>
      </trkpt>
      <trkpt lat="45.96775" lon="6.24634">
        <ele>1580</ele>
        <time>2016-08-27T07:29:53.000Z</time>
      </trkpt>
      <trkpt lat="45.96773" lon="6.24634">
        <ele>1580</ele>
        <time>2016-08-27T07:29:54.000Z</time>
      </trkpt>
      <trkpt lat="45.96771" lon="6.24634">
        <ele>1580</ele>
        <time>2016-08-27T07:29:55.000Z</time>
      </trkpt>
      <trkpt lat="45.9677" lon="6.24635">
        <ele>1580</ele>
        <time>2016-08-27T07:29:56.000Z</time>
      </trkpt>
      <trkpt lat="45.96768" lon="6.24637">
        <ele>1580</ele>
        <time>2016-08-27T07:29:57.000Z</time>
      </trkpt>
      <trkpt lat="45.96767" lon="6.24638">
        <ele>1580</ele>
        <time>2016-08-27T07:29:58.000Z</time>
      </trkpt>
      <trkpt lat="45.96766" lon="6.24639">
        <ele>1580</ele>
        <time>2016-08-27T07:29:59.000Z</time>
      </trkpt>
      <trkpt lat="45.96765" lon="6.2464">
        <ele>1581</ele>
        <time>2016-08-27T07:30:00.000Z</time>
      </trkpt>
      <trkpt lat="45.96764" lon="6.24642">
        <ele>1581</ele>
        <time>2016-08-27T07:30:01.000Z</time>
      </trkpt>
      <trkpt lat="45.96763" lon="6.24643">
        <ele>1581</ele>
        <time>2016-08-27T07:30:02.000Z</time>
      </trkpt>
      <trkpt lat="45.96762" lon="6.24644">
        <ele>1581</ele>
        <time>2016-08-27T07:30:03.000Z</time>
      </trkpt>
      <trkpt lat="45.96761" lon="6.24645">
        <ele>1581</ele>
        <time>2016-08-27T07:30:04.000Z</time>
      </trkpt>
      <trkpt lat="45.9676" lon="6.24646">
        <ele>1581</ele>
        <time>2016-08-27T07:30:05.000Z</time>
      </trkpt>
      <trkpt lat="45.9676" lon="6.24646">
        <ele>1582</ele>
        <time>2016-08-27T07:30:06.000Z</time>
      </trkpt>
      <trkpt lat="45.96759" lon="6.24647">
        <ele>1582</ele>
        <time>2016-08-27T07:30:07.000Z</time>
      </trkpt>
      <trkpt lat="45.96759" lon="6.24647">
        <ele>1582</ele>
        <time>2016-08-27T07:30:08.000Z</time>
      </trkpt>
      <trkpt lat="45.96758" lon="6.24647">
        <ele>1582</ele>
        <time>2016-08-27T07:30:09.000Z</time>
      </trkpt>
      <trkpt lat="45.96758" lon="6.24647">
        <ele>1582</ele>
        <time>2016-08-27T07:30:10.000Z</time>
      </trkpt>
      <trkpt lat="45.96758" lon="6.24647">
        <ele>1582</ele>
        <time>2016-08-27T07:30:11.000Z</time>
      </trkpt>
      <trkpt lat="45.96758" lon="6.24647">
        <ele>1582</ele>
        <time>2016-08-27T07:30:12.000Z</time>
      </trkpt>
      <trkpt lat="45.96758" lon="6.24647">
        <ele>1582</ele>
        <time>2016-08-27T07:30:13.000Z</time>
      </trkpt>
      <trkpt lat="45.96758" lon="6.24647">
        <ele>1582</ele>
        <time>2016-08-27T07:30:14.000Z</time>
      </trkpt>
      <trkpt lat="45.96758" lon="6.24648">
        <ele>1582</ele>
        <time>2016-08-27T07:30:15.000Z</time>
      </trkpt>
      <trkpt lat="45.96758" lon="6.24648">
        <ele>1582</ele>
        <time>2016-08-27T07:30:16.000Z</time>
      </trkpt>
      <trkpt lat="45.96758" lon="6.24648">
        <ele>1582</ele>
        <time>2016-08-27T07:30:17.000Z</time>
      </trkpt>
      <trkpt lat="45.96758" lon="6.24648">
        <ele>1582</ele>
        <time>2016-08-27T07:30:18.000Z</time>
      </trkpt>
      <trkpt lat="45.96758" lon="6.24648">
        <ele>1582</ele>
        <time>2016-08-27T07:30:19.000Z</time>
      </trkpt>
      <trkpt lat="45.96758" lon="6.24648">
        <ele>1582</ele>
        <time>2016-08-27T07:30:20.000Z</time>
      </trkpt>
      <trkpt lat="45.96758" lon="6.24648">
        <ele>1582</ele>
        <time>2016-08-27T07:30:21.000Z</time>
      </trkpt>
      <trkpt lat="45.96758" lon="6.24648">
        <ele>1582</ele>
        <time>2016-08-27T07:30:22.000Z</time>
      </trkpt>
      <trkpt lat="45.96758" lon="6.24648">
        <ele>1582</ele>
        <time>2016-08-27T07:30:23.000Z</time>
      </trkpt>
      <trkpt lat="45.96758" lon="6.24648">
        <ele>1582</ele>
        <time>2016-08-27T07:30:24.000Z</time>
      </trkpt>
      <trkpt lat="45.96758" lon="6.24648">
        <ele>1582</ele>
        <time>2016-08-27T07:30:25.000Z</time>
      </trkpt>
      <trkpt lat="45.96758" lon="6.24648">
        <ele>1582</ele>
        <time>2016-08-27T07:30:26.000Z</time>
      </trkpt>
      <trkpt lat="45.96758" lon="6.24648">
        <ele>1582</ele>
        <time>2016-08-27T07:30:27.000Z</time>
      </trkpt>
      <trkpt lat="45.96758" lon="6.24648">
        <ele>1582</ele>
        <time>2016-08-27T07:30:28.000Z</time>
      </trkpt>
      <trkpt lat="45.96758" lon="6.24648">
        <ele>1582</ele>
        <time>2016-08-27T07:30:29.000Z</time>
      </trkpt>
      <trkpt lat="45.96758" lon="6.24648">
        <ele>1582</ele>
        <time>2016-08-27T07:30:30.000Z</time>
      </trkpt>
      <trkpt lat="45.96758" lon="6.24648">
        <ele>1582</ele>
        <time>2016-08-27T07:30:31.000Z</time>
      </trkpt>
      <trkpt lat="45.96758" lon="6.24648">
        <ele>1582</ele>
        <time>2016-08-27T07:30:32.000Z</time>
      </trkpt>
      <trkpt lat="45.96758" lon="6.24648">
        <ele>1582</ele>
        <time>2016-08-27T07:30:33.000Z</time>
      </trkpt>
      <trkpt lat="45.96758" lon="6.24648">
        <ele>1582</ele>
        <time>2016-08-27T07:30:34.000Z</time>
      </trkpt>
      <trkpt lat="45.96758" lon="6.24648">
        <ele>1582</ele>
        <time>2016-08-27T07:30:35.000Z</time>
      </trkpt>
      <trkpt lat="45.96758" lon="6.24648">
        <ele>1582</ele>
        <time>2016-08-27T07:30:36.000Z</time>
      </trkpt>
      <trkpt lat="45.96758" lon="6.24648">
        <ele>1582</ele>
        <time>2016-08-27T07:30:37.000Z</time>
      </trkpt>
      <trkpt lat="45.96758" lon="6.24648">
        <ele>1582</ele>
        <time>2016-08-27T07:30:38.000Z</time>
      </trkpt>
      <trkpt lat="45.96758" lon="6.24648">
        <ele>1582</ele>
        <time>2016-08-27T07:30:39.000Z</time>
      </trkpt>
      <trkpt lat="45.96758" lon="6.24648">
        <ele>1582</ele>
        <time>2016-08-27T07:30:40.000Z</time>
      </trkpt>
      <trkpt lat="45.96758" lon="6.24648">
        <ele>1582</ele>
        <time>2016-08-27T07:30:41.000Z</time>
      </trkpt>
      <trkpt lat="45.96758" lon="6.24648">
        <ele>1582</ele>
        <time>2016-08-27T07:30:42.000Z</time>
      </trkpt>
      <trkpt lat="45.96758" lon="6.24648">
        <ele>1582</ele>
        <time>2016-08-27T07:30:43.000Z</time>
      </trkpt>
      <trkpt lat="45.96758" lon="6.24648">
        <ele>1582</ele>
        <time>2016-08-27T07:30:44.000Z</time>
      </trkpt>
      <trkpt lat="45.96758" lon="6.24648">
        <ele>1582</ele>
        <time>2016-08-27T07:30:45.000Z</time>
      </trkpt>
      <trkpt lat="45.96758" lon="6.24648">
        <ele>1582</ele>
        <time>2016-08-27T07:30:46.000Z</time>
      </trkpt>
      <trkpt lat="45.96758" lon="6.24648">
        <ele>1582</ele>
        <time>2016-08-27T07:30:47.000Z</time>
      </trkpt>
      <trkpt lat="45.96758" lon="6.24648">
        <ele>1582</ele>
        <time>2016-08-27T07:30:48.000Z</time>
      </trkpt>
      <trkpt lat="45.96758" lon="6.24648">
        <ele>1582</ele>
        <time>2016-08-27T07:30:49.000Z</time>
      </trkpt>
      <trkpt lat="45.96758" lon="6.24648">
        <ele>1582</ele>
        <time>2016-08-27T07:30:50.000Z</time>
      </trkpt>
      <trkpt lat="45.96758" lon="6.24648">
        <ele>1582</ele>
        <time>2016-08-27T07:30:51.000Z</time>
      </trkpt>
      <trkpt lat="45.96758" lon="6.24648">
        <ele>1582</ele>
        <time>2016-08-27T07:30:52.000Z</time>
      </trkpt>
      <trkpt lat="45.96758" lon="6.24648">
        <ele>1582</ele>
        <time>2016-08-27T07:30:53.000Z</time>
      </trkpt>
      <trkpt lat="45.96758" lon="6.24648">
        <ele>1582</ele>
        <time>2016-08-27T07:30:54.000Z</time>
      </trkpt>
      <trkpt lat="45.96758" lon="6.24648">
        <ele>1582</ele>
        <time>2016-08-27T07:30:55.000Z</time>
      </trkpt>
      <trkpt lat="45.96758" lon="6.24648">
        <ele>1582</ele>
        <time>2016-08-27T07:30:56.000Z</time>
      </trkpt>
      <trkpt lat="45.96758" lon="6.24648">
        <ele>1582</ele>
        <time>2016-08-27T07:30:57.000Z</time>
      </trkpt>
      <trkpt lat="45.96758" lon="6.24648">
        <ele>1582</ele>
        <time>2016-08-27T07:30:58.000Z</time>
      </trkpt>
      <trkpt lat="45.96758" lon="6.24648">
        <ele>1582</ele>
        <time>2016-08-27T07:30:59.000Z</time>
      </trkpt>
      <trkpt lat="45.96758" lon="6.24648">
        <ele>1582</ele>
        <time>2016-08-27T07:31:00.000Z</time>
      </trkpt>
      <trkpt lat="45.96758" lon="6.24648">
        <ele>1582</ele>
        <time>2016-08-27T07:31:01.000Z</time>
      </trkpt>
      <trkpt lat="45.96757" lon="6.24648">
        <ele>1582</ele>
        <time>2016-08-27T07:31:02.000Z</time>
      </trkpt>
      <trkpt lat="45.96757" lon="6.24649">
        <ele>1582</ele>
        <time>2016-08-27T07:31:03.000Z</time>
      </trkpt>
      <trkpt lat="45.96757" lon="6.24649">
        <ele>1582</ele>
        <time>2016-08-27T07:31:04.000Z</time>
      </trkpt>
      <trkpt lat="45.96757" lon="6.24649">
        <ele>1582</ele>
        <time>2016-08-27T07:31:05.000Z</time>
      </trkpt>
      <trkpt lat="45.96757" lon="6.24649">
        <ele>1582</ele>
        <time>2016-08-27T07:31:06.000Z</time>
      </trkpt>
      <trkpt lat="45.96757" lon="6.24649">
        <ele>1582</ele>
        <time>2016-08-27T07:31:07.000Z</time>
      </trkpt>
      <trkpt lat="45.96757" lon="6.24649">
        <ele>1582</ele>
        <time>2016-08-27T07:31:08.000Z</time>
      </trkpt>
      <trkpt lat="45.96757" lon="6.24649">
        <ele>1582</ele>
        <time>2016-08-27T07:31:09.000Z</time>
      </trkpt>
      <trkpt lat="45.96757" lon="6.24649">
        <ele>1583</ele>
        <time>2016-08-27T07:31:10.000Z</time>
      </trkpt>
      <trkpt lat="45.96757" lon="6.24649">
        <ele>1583</ele>
        <time>2016-08-27T07:31:11.000Z</time>
      </trkpt>
      <trkpt lat="45.96757" lon="6.24649">
        <ele>1583</ele>
        <time>2016-08-27T07:31:12.000Z</time>
      </trkpt>
      <trkpt lat="45.96757" lon="6.24649">
        <ele>1583</ele>
        <time>2016-08-27T07:31:13.000Z</time>
      </trkpt>
      <trkpt lat="45.96757" lon="6.24649">
        <ele>1583</ele>
        <time>2016-08-27T07:31:14.000Z</time>
      </trkpt>
      <trkpt lat="45.96757" lon="6.24649">
        <ele>1583</ele>
        <time>2016-08-27T07:31:15.000Z</time>
      </trkpt>
      <trkpt lat="45.96757" lon="6.24649">
        <ele>1583</ele>
        <time>2016-08-27T07:31:16.000Z</time>
      </trkpt>
      <trkpt lat="45.96757" lon="6.24649">
        <ele>1583</ele>
        <time>2016-08-27T07:31:17.000Z</time>
      </trkpt>
      <trkpt lat="45.96757" lon="6.24649">
        <ele>1583</ele>
        <time>2016-08-27T07:31:18.000Z</time>
      </trkpt>
      <trkpt lat="45.96757" lon="6.24649">
        <ele>1583</ele>
        <time>2016-08-27T07:31:19.000Z</time>
      </trkpt>
      <trkpt lat="45.96757" lon="6.24649">
        <ele>1583</ele>
        <time>2016-08-27T07:31:20.000Z</time>
      </trkpt>
      <trkpt lat="45.96757" lon="6.24649">
        <ele>1583</ele>
        <time>2016-08-27T07:31:21.000Z</time>
      </trkpt>
      <trkpt lat="45.96757" lon="6.24649">
        <ele>1583</ele>
        <time>2016-08-27T07:31:22.000Z</time>
      </trkpt>
      <trkpt lat="45.96757" lon="6.24649">
        <ele>1583</ele>
        <time>2016-08-27T07:31:23.000Z</time>
      </trkpt>
      <trkpt lat="45.96757" lon="6.24649">
        <ele>1583</ele>
        <time>2016-08-27T07:31:24.000Z</time>
      </trkpt>
      <trkpt lat="45.96757" lon="6.24649">
        <ele>1583</ele>
        <time>2016-08-27T07:31:25.000Z</time>
      </trkpt>
      <trkpt lat="45.96757" lon="6.24649">
        <ele>1583</ele>
        <time>2016-08-27T07:31:26.000Z</time>
      </trkpt>
      <trkpt lat="45.96757" lon="6.24649">
        <ele>1583</ele>
        <time>2016-08-27T07:31:27.000Z</time>
      </trkpt>
      <trkpt lat="45.96757" lon="6.24649">
        <ele>1583</ele>
        <time>2016-08-27T07:31:28.000Z</time>
      </trkpt>
      <trkpt lat="45.96757" lon="6.24649">
        <ele>1583</ele>
        <time>2016-08-27T07:31:29.000Z</time>
      </trkpt>
      <trkpt lat="45.96757" lon="6.24649">
        <ele>1583</ele>
        <time>2016-08-27T07:31:30.000Z</time>
      </trkpt>
      <trkpt lat="45.96757" lon="6.24649">
        <ele>1583</ele>
        <time>2016-08-27T07:31:31.000Z</time>
      </trkpt>
      <trkpt lat="45.96757" lon="6.24649">
        <ele>1583</ele>
        <time>2016-08-27T07:31:32.000Z</time>
      </trkpt>
      <trkpt lat="45.96757" lon="6.24649">
        <ele>1583</ele>
        <time>2016-08-27T07:31:33.000Z</time>
      </trkpt>
      <trkpt lat="45.96757" lon="6.24649">
        <ele>1583</ele>
        <time>2016-08-27T07:31:34.000Z</time>
      </trkpt>
      <trkpt lat="45.96757" lon="6.24649">
        <ele>1583</ele>
        <time>2016-08-27T07:31:35.000Z</time>
      </trkpt>
      <trkpt lat="45.96757" lon="6.24649">
        <ele>1583</ele>
        <time>2016-08-27T07:31:36.000Z</time>
      </trkpt>
      <trkpt lat="45.96757" lon="6.2465">
        <ele>1583</ele>
        <time>2016-08-27T07:31:37.000Z</time>
      </trkpt>
      <trkpt lat="45.96757" lon="6.2465">
        <ele>1583</ele>
        <time>2016-08-27T07:31:38.000Z</time>
      </trkpt>
      <trkpt lat="45.96757" lon="6.2465">
        <ele>1583</ele>
        <time>2016-08-27T07:31:39.000Z</time>
      </trkpt>
      <trkpt lat="45.96757" lon="6.2465">
        <ele>1583</ele>
        <time>2016-08-27T07:31:40.000Z</time>
      </trkpt>
      <trkpt lat="45.96757" lon="6.2465">
        <ele>1583</ele>
        <time>2016-08-27T07:31:41.000Z</time>
      </trkpt>
      <trkpt lat="45.96757" lon="6.2465">
        <ele>1583</ele>
        <time>2016-08-27T07:31:42.000Z</time>
      </trkpt>
      <trkpt lat="45.96757" lon="6.2465">
        <ele>1583</ele>
        <time>2016-08-27T07:31:43.000Z</time>
      </trkpt>
      <trkpt lat="45.96757" lon="6.2465">
        <ele>1583</ele>
        <time>2016-08-27T07:31:44.000Z</time>
      </trkpt>
      <trkpt lat="45.96757" lon="6.2465">
        <ele>1583</ele>
        <time>2016-08-27T07:31:45.000Z</time>
      </trkpt>
      <trkpt lat="45.96757" lon="6.2465">
        <ele>1583</ele>
        <time>2016-08-27T07:31:46.000Z</time>
      </trkpt>
      <trkpt lat="45.96757" lon="6.2465">
        <ele>1583</ele>
        <time>2016-08-27T07:31:47.000Z</time>
      </trkpt>
      <trkpt lat="45.96757" lon="6.2465">
        <ele>1583</ele>
        <time>2016-08-27T07:31:48.000Z</time>
      </trkpt>
      <trkpt lat="45.96757" lon="6.2465">
        <ele>1583</ele>
        <time>2016-08-27T07:31:49.000Z</time>
      </trkpt>
      <trkpt lat="45.96757" lon="6.2465">
        <ele>1583</ele>
        <time>2016-08-27T07:31:50.000Z</time>
      </trkpt>
      <trkpt lat="45.96757" lon="6.2465">
        <ele>1583</ele>
        <time>2016-08-27T07:31:51.000Z</time>
      </trkpt>
      <trkpt lat="45.96757" lon="6.2465">
        <ele>1583</ele>
        <time>2016-08-27T07:31:52.000Z</time>
      </trkpt>
      <trkpt lat="45.96757" lon="6.2465">
        <ele>1583</ele>
        <time>2016-08-27T07:31:53.000Z</time>
      </trkpt>
      <trkpt lat="45.96757" lon="6.2465">
        <ele>1583</ele>
        <time>2016-08-27T07:31:54.000Z</time>
      </trkpt>
      <trkpt lat="45.96757" lon="6.2465">
        <ele>1583</ele>
        <time>2016-08-27T07:31:55.000Z</time>
      </trkpt>
      <trkpt lat="45.96757" lon="6.2465">
        <ele>1583</ele>
        <time>2016-08-27T07:31:56.000Z</time>
      </trkpt>
      <trkpt lat="45.96758" lon="6.2465">
        <ele>1583</ele>
        <time>2016-08-27T07:31:57.000Z</time>
      </trkpt>
      <trkpt lat="45.96758" lon="6.2465">
        <ele>1583</ele>
        <time>2016-08-27T07:31:58.000Z</time>
      </trkpt>
      <trkpt lat="45.96758" lon="6.2465">
        <ele>1583</ele>
        <time>2016-08-27T07:31:59.000Z</time>
      </trkpt>
      <trkpt lat="45.96758" lon="6.2465">
        <ele>1583</ele>
        <time>2016-08-27T07:32:00.000Z</time>
      </trkpt>
      <trkpt lat="45.96758" lon="6.2465">
        <ele>1583</ele>
        <time>2016-08-27T07:32:01.000Z</time>
      </trkpt>
      <trkpt lat="45.96758" lon="6.2465">
        <ele>1583</ele>
        <time>2016-08-27T07:32:02.000Z</time>
      </trkpt>
      <trkpt lat="45.96758" lon="6.2465">
        <ele>1583</ele>
        <time>2016-08-27T07:32:03.000Z</time>
      </trkpt>
      <trkpt lat="45.96758" lon="6.2465">
        <ele>1583</ele>
        <time>2016-08-27T07:32:04.000Z</time>
      </trkpt>
      <trkpt lat="45.96758" lon="6.2465">
        <ele>1583</ele>
        <time>2016-08-27T07:32:05.000Z</time>
      </trkpt>
      <trkpt lat="45.96758" lon="6.2465">
        <ele>1583</ele>
        <time>2016-08-27T07:32:06.000Z</time>
      </trkpt>
      <trkpt lat="45.96758" lon="6.2465">
        <ele>1583</ele>
        <time>2016-08-27T07:32:07.000Z</time>
      </trkpt>
      <trkpt lat="45.96758" lon="6.2465">
        <ele>1583</ele>
        <time>2016-08-27T07:32:08.000Z</time>
      </trkpt>
      <trkpt lat="45.96758" lon="6.2465">
        <ele>1583</ele>
        <time>2016-08-27T07:32:09.000Z</time>
      </trkpt>
      <trkpt lat="45.96758" lon="6.2465">
        <ele>1583</ele>
        <time>2016-08-27T07:32:10.000Z</time>
      </trkpt>
      <trkpt lat="45.96758" lon="6.2465">
        <ele>1583</ele>
        <time>2016-08-27T07:32:11.000Z</time>
      </trkpt>
      <trkpt lat="45.96758" lon="6.2465">
        <ele>1583</ele>
        <time>2016-08-27T07:32:12.000Z</time>
      </trkpt>
      <trkpt lat="45.96758" lon="6.2465">
        <ele>1583</ele>
        <time>2016-08-27T07:32:13.000Z</time>
      </trkpt>
      <trkpt lat="45.96758" lon="6.2465">
        <ele>1583</ele>
        <time>2016-08-27T07:32:14.000Z</time>
      </trkpt>
      <trkpt lat="45.96758" lon="6.2465">
        <ele>1583</ele>
        <time>2016-08-27T07:32:15.000Z</time>
      </trkpt>
      <trkpt lat="45.96757" lon="6.2465">
        <ele>1583</ele>
        <time>2016-08-27T07:32:16.000Z</time>
      </trkpt>
      <trkpt lat="45.96757" lon="6.24651">
        <ele>1583</ele>
        <time>2016-08-27T07:32:17.000Z</time>
      </trkpt>
      <trkpt lat="45.96757" lon="6.24652">
        <ele>1583</ele>
        <time>2016-08-27T07:32:18.000Z</time>
      </trkpt>
      <trkpt lat="45.96756" lon="6.24652">
        <ele>1583</ele>
        <time>2016-08-27T07:32:19.000Z</time>
      </trkpt>
      <trkpt lat="45.96755" lon="6.24653">
        <ele>1583</ele>
        <time>2016-08-27T07:32:20.000Z</time>
      </trkpt>
      <trkpt lat="45.96755" lon="6.24653">
        <ele>1583</ele>
        <time>2016-08-27T07:32:21.000Z</time>
      </trkpt>
      <trkpt lat="45.96755" lon="6.24654">
        <ele>1583</ele>
        <time>2016-08-27T07:32:22.000Z</time>
      </trkpt>
      <trkpt lat="45.96755" lon="6.24654">
        <ele>1583</ele>
        <time>2016-08-27T07:32:23.000Z</time>
      </trkpt>
      <trkpt lat="45.96755" lon="6.24655">
        <ele>1583</ele>
        <time>2016-08-27T07:32:24.000Z</time>
      </trkpt>
      <trkpt lat="45.96754" lon="6.24656">
        <ele>1583</ele>
        <time>2016-08-27T07:32:25.000Z</time>
      </trkpt>
      <trkpt lat="45.96753" lon="6.24658">
        <ele>1583</ele>
        <time>2016-08-27T07:32:26.000Z</time>
      </trkpt>
      <trkpt lat="45.96752" lon="6.2466">
        <ele>1583</ele>
        <time>2016-08-27T07:32:27.000Z</time>
      </trkpt>
      <trkpt lat="45.96752" lon="6.24663">
        <ele>1583</ele>
        <time>2016-08-27T07:32:28.000Z</time>
      </trkpt>
      <trkpt lat="45.96751" lon="6.24666">
        <ele>1583</ele>
        <time>2016-08-27T07:32:29.000Z</time>
      </trkpt>
      <trkpt lat="45.9675" lon="6.24669">
        <ele>1583</ele>
        <time>2016-08-27T07:32:30.000Z</time>
      </trkpt>
      <trkpt lat="45.96749" lon="6.24673">
        <ele>1583</ele>
        <time>2016-08-27T07:32:31.000Z</time>
      </trkpt>
      <trkpt lat="45.96748" lon="6.24676">
        <ele>1583</ele>
        <time>2016-08-27T07:32:32.000Z</time>
      </trkpt>
      <trkpt lat="45.96747" lon="6.24678">
        <ele>1583</ele>
        <time>2016-08-27T07:32:33.000Z</time>
      </trkpt>
      <trkpt lat="45.96746" lon="6.24681">
        <ele>1582</ele>
        <time>2016-08-27T07:32:34.000Z</time>
      </trkpt>
      <trkpt lat="45.96744" lon="6.24684">
        <ele>1582</ele>
        <time>2016-08-27T07:32:35.000Z</time>
      </trkpt>
      <trkpt lat="45.96743" lon="6.24687">
        <ele>1582</ele>
        <time>2016-08-27T07:32:36.000Z</time>
      </trkpt>
      <trkpt lat="45.96741" lon="6.2469">
        <ele>1582</ele>
        <time>2016-08-27T07:32:37.000Z</time>
      </trkpt>
      <trkpt lat="45.9674" lon="6.24692">
        <ele>1582</ele>
        <time>2016-08-27T07:32:38.000Z</time>
      </trkpt>
      <trkpt lat="45.96739" lon="6.24695">
        <ele>1582</ele>
        <time>2016-08-27T07:32:39.000Z</time>
      </trkpt>
      <trkpt lat="45.96738" lon="6.24698">
        <ele>1581</ele>
        <time>2016-08-27T07:32:40.000Z</time>
      </trkpt>
      <trkpt lat="45.96737" lon="6.24701">
        <ele>1581</ele>
        <time>2016-08-27T07:32:41.000Z</time>
      </trkpt>
      <trkpt lat="45.96736" lon="6.24704">
        <ele>1581</ele>
        <time>2016-08-27T07:32:42.000Z</time>
      </trkpt>
      <trkpt lat="45.96736" lon="6.24707">
        <ele>1581</ele>
        <time>2016-08-27T07:32:43.000Z</time>
      </trkpt>
      <trkpt lat="45.96735" lon="6.2471">
        <ele>1581</ele>
        <time>2016-08-27T07:32:44.000Z</time>
      </trkpt>
      <trkpt lat="45.96735" lon="6.24713">
        <ele>1581</ele>
        <time>2016-08-27T07:32:45.000Z</time>
      </trkpt>
      <trkpt lat="45.96734" lon="6.24716">
        <ele>1581</ele>
        <time>2016-08-27T07:32:46.000Z</time>
      </trkpt>
      <trkpt lat="45.96733" lon="6.2472">
        <ele>1581</ele>
        <time>2016-08-27T07:32:47.000Z</time>
      </trkpt>
      <trkpt lat="45.96733" lon="6.24723">
        <ele>1581</ele>
        <time>2016-08-27T07:32:48.000Z</time>
      </trkpt>
      <trkpt lat="45.96732" lon="6.24726">
        <ele>1581</ele>
        <time>2016-08-27T07:32:49.000Z</time>
      </trkpt>
      <trkpt lat="45.96732" lon="6.24729">
        <ele>1580</ele>
        <time>2016-08-27T07:32:50.000Z</time>
      </trkpt>
      <trkpt lat="45.96731" lon="6.24732">
        <ele>1580</ele>
        <time>2016-08-27T07:32:51.000Z</time>
      </trkpt>
      <trkpt lat="45.9673" lon="6.24735">
        <ele>1580</ele>
        <time>2016-08-27T07:32:52.000Z</time>
      </trkpt>
      <trkpt lat="45.96729" lon="6.24737">
        <ele>1580</ele>
        <time>2016-08-27T07:32:53.000Z</time>
      </trkpt>
      <trkpt lat="45.96728" lon="6.2474">
        <ele>1580</ele>
        <time>2016-08-27T07:32:54.000Z</time>
      </trkpt>
      <trkpt lat="45.96726" lon="6.24742">
        <ele>1580</ele>
        <time>2016-08-27T07:32:55.000Z</time>
      </trkpt>
      <trkpt lat="45.96724" lon="6.24744">
        <ele>1580</ele>
        <time>2016-08-27T07:32:56.000Z</time>
      </trkpt>
      <trkpt lat="45.96722" lon="6.24747">
        <ele>1580</ele>
        <time>2016-08-27T07:32:57.000Z</time>
      </trkpt>
      <trkpt lat="45.96721" lon="6.24749">
        <ele>1580</ele>
        <time>2016-08-27T07:32:58.000Z</time>
      </trkpt>
      <trkpt lat="45.96719" lon="6.24751">
        <ele>1580</ele>
        <time>2016-08-27T07:32:59.000Z</time>
      </trkpt>
      <trkpt lat="45.96717" lon="6.24753">
        <ele>1580</ele>
        <time>2016-08-27T07:33:00.000Z</time>
      </trkpt>
      <trkpt lat="45.96715" lon="6.24755">
        <ele>1580</ele>
        <time>2016-08-27T07:33:01.000Z</time>
      </trkpt>
      <trkpt lat="45.96712" lon="6.24757">
        <ele>1580</ele>
        <time>2016-08-27T07:33:02.000Z</time>
      </trkpt>
      <trkpt lat="45.9671" lon="6.24758">
        <ele>1580</ele>
        <time>2016-08-27T07:33:03.000Z</time>
      </trkpt>
      <trkpt lat="45.96708" lon="6.2476">
        <ele>1580</ele>
        <time>2016-08-27T07:33:04.000Z</time>
      </trkpt>
      <trkpt lat="45.96705" lon="6.24761">
        <ele>1580</ele>
        <time>2016-08-27T07:33:05.000Z</time>
      </trkpt>
      <trkpt lat="45.96703" lon="6.24762">
        <ele>1580</ele>
        <time>2016-08-27T07:33:06.000Z</time>
      </trkpt>
      <trkpt lat="45.96701" lon="6.24764">
        <ele>1580</ele>
        <time>2016-08-27T07:33:07.000Z</time>
      </trkpt>
      <trkpt lat="45.96698" lon="6.24764">
        <ele>1580</ele>
        <time>2016-08-27T07:33:08.000Z</time>
      </trkpt>
      <trkpt lat="45.96696" lon="6.24765">
        <ele>1580</ele>
        <time>2016-08-27T07:33:09.000Z</time>
      </trkpt>
      <trkpt lat="45.96694" lon="6.24767">
        <ele>1579</ele>
        <time>2016-08-27T07:33:10.000Z</time>
      </trkpt>
      <trkpt lat="45.96692" lon="6.24768">
        <ele>1579</ele>
        <time>2016-08-27T07:33:11.000Z</time>
      </trkpt>
      <trkpt lat="45.9669" lon="6.24769">
        <ele>1579</ele>
        <time>2016-08-27T07:33:12.000Z</time>
      </trkpt>
      <trkpt lat="45.96688" lon="6.24771">
        <ele>1579</ele>
        <time>2016-08-27T07:33:13.000Z</time>
      </trkpt>
      <trkpt lat="45.96686" lon="6.24772">
        <ele>1579</ele>
        <time>2016-08-27T07:33:14.000Z</time>
      </trkpt>
      <trkpt lat="45.96684" lon="6.24774">
        <ele>1579</ele>
        <time>2016-08-27T07:33:15.000Z</time>
      </trkpt>
      <trkpt lat="45.96683" lon="6.24775">
        <ele>1579</ele>
        <time>2016-08-27T07:33:16.000Z</time>
      </trkpt>
      <trkpt lat="45.96681" lon="6.24776">
        <ele>1579</ele>
        <time>2016-08-27T07:33:17.000Z</time>
      </trkpt>
      <trkpt lat="45.9668" lon="6.24777">
        <ele>1579</ele>
        <time>2016-08-27T07:33:18.000Z</time>
      </trkpt>
      <trkpt lat="45.96678" lon="6.24778">
        <ele>1579</ele>
        <time>2016-08-27T07:33:19.000Z</time>
      </trkpt>
      <trkpt lat="45.96677" lon="6.24779">
        <ele>1579</ele>
        <time>2016-08-27T07:33:20.000Z</time>
      </trkpt>
      <trkpt lat="45.96675" lon="6.24781">
        <ele>1579</ele>
        <time>2016-08-27T07:33:21.000Z</time>
      </trkpt>
      <trkpt lat="45.96674" lon="6.24781">
        <ele>1579</ele>
        <time>2016-08-27T07:33:22.000Z</time>
      </trkpt>
      <trkpt lat="45.96672" lon="6.24782">
        <ele>1579</ele>
        <time>2016-08-27T07:33:23.000Z</time>
      </trkpt>
      <trkpt lat="45.9667" lon="6.24783">
        <ele>1579</ele>
        <time>2016-08-27T07:33:24.000Z</time>
      </trkpt>
      <trkpt lat="45.96669" lon="6.24784">
        <ele>1579</ele>
        <time>2016-08-27T07:33:25.000Z</time>
      </trkpt>
      <trkpt lat="45.96667" lon="6.24785">
        <ele>1579</ele>
        <time>2016-08-27T07:33:26.000Z</time>
      </trkpt>
      <trkpt lat="45.96666" lon="6.24787">
        <ele>1579</ele>
        <time>2016-08-27T07:33:27.000Z</time>
      </trkpt>
      <trkpt lat="45.96664" lon="6.24789">
        <ele>1579</ele>
        <time>2016-08-27T07:33:28.000Z</time>
      </trkpt>
      <trkpt lat="45.96662" lon="6.24791">
        <ele>1579</ele>
        <time>2016-08-27T07:33:29.000Z</time>
      </trkpt>
      <trkpt lat="45.9666" lon="6.24793">
        <ele>1578</ele>
        <time>2016-08-27T07:33:30.000Z</time>
      </trkpt>
      <trkpt lat="45.96659" lon="6.24796">
        <ele>1578</ele>
        <time>2016-08-27T07:33:31.000Z</time>
      </trkpt>
      <trkpt lat="45.96658" lon="6.24799">
        <ele>1578</ele>
        <time>2016-08-27T07:33:32.000Z</time>
      </trkpt>
      <trkpt lat="45.96657" lon="6.24802">
        <ele>1578</ele>
        <time>2016-08-27T07:33:33.000Z</time>
      </trkpt>
      <trkpt lat="45.96656" lon="6.24805">
        <ele>1577</ele>
        <time>2016-08-27T07:33:34.000Z</time>
      </trkpt>
      <trkpt lat="45.96655" lon="6.24808">
        <ele>1577</ele>
        <time>2016-08-27T07:33:35.000Z</time>
      </trkpt>
      <trkpt lat="45.96654" lon="6.24811">
        <ele>1576</ele>
        <time>2016-08-27T07:33:36.000Z</time>
      </trkpt>
      <trkpt lat="45.96653" lon="6.24815">
        <ele>1576</ele>
        <time>2016-08-27T07:33:37.000Z</time>
      </trkpt>
      <trkpt lat="45.96652" lon="6.24818">
        <ele>1576</ele>
        <time>2016-08-27T07:33:38.000Z</time>
      </trkpt>
      <trkpt lat="45.9665" lon="6.2482">
        <ele>1576</ele>
        <time>2016-08-27T07:33:39.000Z</time>
      </trkpt>
      <trkpt lat="45.96649" lon="6.24823">
        <ele>1575</ele>
        <time>2016-08-27T07:33:40.000Z</time>
      </trkpt>
      <trkpt lat="45.96648" lon="6.24827">
        <ele>1575</ele>
        <time>2016-08-27T07:33:41.000Z</time>
      </trkpt>
      <trkpt lat="45.96648" lon="6.2483">
        <ele>1575</ele>
        <time>2016-08-27T07:33:42.000Z</time>
      </trkpt>
      <trkpt lat="45.96647" lon="6.24833">
        <ele>1575</ele>
        <time>2016-08-27T07:33:43.000Z</time>
      </trkpt>
      <trkpt lat="45.96646" lon="6.24837">
        <ele>1575</ele>
        <time>2016-08-27T07:33:44.000Z</time>
      </trkpt>
      <trkpt lat="45.96645" lon="6.2484">
        <ele>1575</ele>
        <time>2016-08-27T07:33:45.000Z</time>
      </trkpt>
      <trkpt lat="45.96644" lon="6.24843">
        <ele>1574</ele>
        <time>2016-08-27T07:33:46.000Z</time>
      </trkpt>
      <trkpt lat="45.96644" lon="6.24847">
        <ele>1574</ele>
        <time>2016-08-27T07:33:47.000Z</time>
      </trkpt>
      <trkpt lat="45.96643" lon="6.2485">
        <ele>1574</ele>
        <time>2016-08-27T07:33:48.000Z</time>
      </trkpt>
      <trkpt lat="45.96642" lon="6.24853">
        <ele>1574</ele>
        <time>2016-08-27T07:33:49.000Z</time>
      </trkpt>
      <trkpt lat="45.96642" lon="6.24857">
        <ele>1574</ele>
        <time>2016-08-27T07:33:50.000Z</time>
      </trkpt>
      <trkpt lat="45.96641" lon="6.24861">
        <ele>1574</ele>
        <time>2016-08-27T07:33:51.000Z</time>
      </trkpt>
      <trkpt lat="45.96641" lon="6.24864">
        <ele>1573</ele>
        <time>2016-08-27T07:33:52.000Z</time>
      </trkpt>
      <trkpt lat="45.96641" lon="6.24868">
        <ele>1573</ele>
        <time>2016-08-27T07:33:53.000Z</time>
      </trkpt>
      <trkpt lat="45.9664" lon="6.24871">
        <ele>1573</ele>
        <time>2016-08-27T07:33:54.000Z</time>
      </trkpt>
      <trkpt lat="45.96639" lon="6.24875">
        <ele>1573</ele>
        <time>2016-08-27T07:33:55.000Z</time>
      </trkpt>
      <trkpt lat="45.96639" lon="6.24879">
        <ele>1572</ele>
        <time>2016-08-27T07:33:56.000Z</time>
      </trkpt>
      <trkpt lat="45.96638" lon="6.24882">
        <ele>1572</ele>
        <time>2016-08-27T07:33:57.000Z</time>
      </trkpt>
      <trkpt lat="45.96637" lon="6.24887">
        <ele>1571</ele>
        <time>2016-08-27T07:33:58.000Z</time>
      </trkpt>
      <trkpt lat="45.96637" lon="6.24891">
        <ele>1571</ele>
        <time>2016-08-27T07:33:59.000Z</time>
      </trkpt>
      <trkpt lat="45.96637" lon="6.24895">
        <ele>1571</ele>
        <time>2016-08-27T07:34:00.000Z</time>
      </trkpt>
      <trkpt lat="45.96637" lon="6.249">
        <ele>1571</ele>
        <time>2016-08-27T07:34:01.000Z</time>
      </trkpt>
      <trkpt lat="45.96637" lon="6.24904">
        <ele>1570</ele>
        <time>2016-08-27T07:34:02.000Z</time>
      </trkpt>
      <trkpt lat="45.96637" lon="6.24909">
        <ele>1570</ele>
        <time>2016-08-27T07:34:03.000Z</time>
      </trkpt>
      <trkpt lat="45.96637" lon="6.24913">
        <ele>1570</ele>
        <time>2016-08-27T07:34:04.000Z</time>
      </trkpt>
      <trkpt lat="45.96637" lon="6.24917">
        <ele>1570</ele>
        <time>2016-08-27T07:34:05.000Z</time>
      </trkpt>
      <trkpt lat="45.96638" lon="6.24921">
        <ele>1570</ele>
        <time>2016-08-27T07:34:06.000Z</time>
      </trkpt>
      <trkpt lat="45.96639" lon="6.24925">
        <ele>1570</ele>
        <time>2016-08-27T07:34:07.000Z</time>
      </trkpt>
      <trkpt lat="45.9664" lon="6.24928">
        <ele>1570</ele>
        <time>2016-08-27T07:34:08.000Z</time>
      </trkpt>
      <trkpt lat="45.96641" lon="6.24932">
        <ele>1570</ele>
        <time>2016-08-27T07:34:09.000Z</time>
      </trkpt>
      <trkpt lat="45.96642" lon="6.24935">
        <ele>1569</ele>
        <time>2016-08-27T07:34:10.000Z</time>
      </trkpt>
      <trkpt lat="45.96642" lon="6.24939">
        <ele>1569</ele>
        <time>2016-08-27T07:34:11.000Z</time>
      </trkpt>
      <trkpt lat="45.96643" lon="6.24942">
        <ele>1569</ele>
        <time>2016-08-27T07:34:12.000Z</time>
      </trkpt>
      <trkpt lat="45.96644" lon="6.24946">
        <ele>1569</ele>
        <time>2016-08-27T07:34:13.000Z</time>
      </trkpt>
      <trkpt lat="45.96644" lon="6.2495">
        <ele>1568</ele>
        <time>2016-08-27T07:34:14.000Z</time>
      </trkpt>
      <trkpt lat="45.96645" lon="6.24953">
        <ele>1568</ele>
        <time>2016-08-27T07:34:15.000Z</time>
      </trkpt>
      <trkpt lat="45.96646" lon="6.24957">
        <ele>1567</ele>
        <time>2016-08-27T07:34:16.000Z</time>
      </trkpt>
      <trkpt lat="45.96647" lon="6.2496">
        <ele>1567</ele>
        <time>2016-08-27T07:34:17.000Z</time>
      </trkpt>
      <trkpt lat="45.96648" lon="6.24962">
        <ele>1567</ele>
        <time>2016-08-27T07:34:18.000Z</time>
      </trkpt>
      <trkpt lat="45.96649" lon="6.24964">
        <ele>1567</ele>
        <time>2016-08-27T07:34:19.000Z</time>
      </trkpt>
      <trkpt lat="45.9665" lon="6.24965">
        <ele>1566</ele>
        <time>2016-08-27T07:34:20.000Z</time>
      </trkpt>
      <trkpt lat="45.9665" lon="6.24966">
        <ele>1566</ele>
        <time>2016-08-27T07:34:21.000Z</time>
      </trkpt>
      <trkpt lat="45.9665" lon="6.24967">
        <ele>1566</ele>
        <time>2016-08-27T07:34:22.000Z</time>
      </trkpt>
      <trkpt lat="45.9665" lon="6.24967">
        <ele>1566</ele>
        <time>2016-08-27T07:34:23.000Z</time>
      </trkpt>
      <trkpt lat="45.9665" lon="6.24967">
        <ele>1565</ele>
        <time>2016-08-27T07:34:24.000Z</time>
      </trkpt>
      <trkpt lat="45.9665" lon="6.24967">
        <ele>1565</ele>
        <time>2016-08-27T07:34:25.000Z</time>
      </trkpt>
      <trkpt lat="45.9665" lon="6.24967">
        <ele>1565</ele>
        <time>2016-08-27T07:34:26.000Z</time>
      </trkpt>
      <trkpt lat="45.9665" lon="6.24967">
        <ele>1565</ele>
        <time>2016-08-27T07:34:27.000Z</time>
      </trkpt>
      <trkpt lat="45.9665" lon="6.24967">
        <ele>1565</ele>
        <time>2016-08-27T07:34:28.000Z</time>
      </trkpt>
      <trkpt lat="45.96651" lon="6.24967">
        <ele>1565</ele>
        <time>2016-08-27T07:34:29.000Z</time>
      </trkpt>
      <trkpt lat="45.96651" lon="6.24969">
        <ele>1565</ele>
        <time>2016-08-27T07:34:30.000Z</time>
      </trkpt>
      <trkpt lat="45.96651" lon="6.2497">
        <ele>1565</ele>
        <time>2016-08-27T07:34:31.000Z</time>
      </trkpt>
      <trkpt lat="45.96651" lon="6.24971">
        <ele>1564</ele>
        <time>2016-08-27T07:34:32.000Z</time>
      </trkpt>
      <trkpt lat="45.9665" lon="6.24972">
        <ele>1564</ele>
        <time>2016-08-27T07:34:33.000Z</time>
      </trkpt>
      <trkpt lat="45.96649" lon="6.24972">
        <ele>1564</ele>
        <time>2016-08-27T07:34:34.000Z</time>
      </trkpt>
      <trkpt lat="45.96648" lon="6.24973">
        <ele>1564</ele>
        <time>2016-08-27T07:34:35.000Z</time>
      </trkpt>
      <trkpt lat="45.96646" lon="6.24973">
        <ele>1564</ele>
        <time>2016-08-27T07:34:36.000Z</time>
      </trkpt>
      <trkpt lat="45.96644" lon="6.24973">
        <ele>1564</ele>
        <time>2016-08-27T07:34:37.000Z</time>
      </trkpt>
      <trkpt lat="45.96642" lon="6.24973">
        <ele>1563</ele>
        <time>2016-08-27T07:34:38.000Z</time>
      </trkpt>
      <trkpt lat="45.9664" lon="6.24973">
        <ele>1563</ele>
        <time>2016-08-27T07:34:39.000Z</time>
      </trkpt>
      <trkpt lat="45.96638" lon="6.24973">
        <ele>1562</ele>
        <time>2016-08-27T07:34:40.000Z</time>
      </trkpt>
      <trkpt lat="45.96636" lon="6.24974">
        <ele>1562</ele>
        <time>2016-08-27T07:34:41.000Z</time>
      </trkpt>
      <trkpt lat="45.96634" lon="6.24976">
        <ele>1562</ele>
        <time>2016-08-27T07:34:42.000Z</time>
      </trkpt>
      <trkpt lat="45.96632" lon="6.24978">
        <ele>1562</ele>
        <time>2016-08-27T07:34:43.000Z</time>
      </trkpt>
      <trkpt lat="45.9663" lon="6.24979">
        <ele>1561</ele>
        <time>2016-08-27T07:34:44.000Z</time>
      </trkpt>
      <trkpt lat="45.96628" lon="6.24981">
        <ele>1561</ele>
        <time>2016-08-27T07:34:45.000Z</time>
      </trkpt>
      <trkpt lat="45.96626" lon="6.24982">
        <ele>1561</ele>
        <time>2016-08-27T07:34:46.000Z</time>
      </trkpt>
      <trkpt lat="45.96624" lon="6.24984">
        <ele>1561</ele>
        <time>2016-08-27T07:34:47.000Z</time>
      </trkpt>
      <trkpt lat="45.96623" lon="6.24986">
        <ele>1561</ele>
        <time>2016-08-27T07:34:48.000Z</time>
      </trkpt>
      <trkpt lat="45.96622" lon="6.24988">
        <ele>1561</ele>
        <time>2016-08-27T07:34:49.000Z</time>
      </trkpt>
      <trkpt lat="45.96621" lon="6.2499">
        <ele>1561</ele>
        <time>2016-08-27T07:34:50.000Z</time>
      </trkpt>
      <trkpt lat="45.9662" lon="6.24992">
        <ele>1561</ele>
        <time>2016-08-27T07:34:51.000Z</time>
      </trkpt>
      <trkpt lat="45.9662" lon="6.24995">
        <ele>1560</ele>
        <time>2016-08-27T07:34:52.000Z</time>
      </trkpt>
      <trkpt lat="45.96621" lon="6.24998">
        <ele>1560</ele>
        <time>2016-08-27T07:34:53.000Z</time>
      </trkpt>
      <trkpt lat="45.96622" lon="6.25">
        <ele>1560</ele>
        <time>2016-08-27T07:34:54.000Z</time>
      </trkpt>
      <trkpt lat="45.96623" lon="6.25003">
        <ele>1560</ele>
        <time>2016-08-27T07:34:55.000Z</time>
      </trkpt>
      <trkpt lat="45.96624" lon="6.25007">
        <ele>1560</ele>
        <time>2016-08-27T07:34:56.000Z</time>
      </trkpt>
      <trkpt lat="45.96625" lon="6.2501">
        <ele>1560</ele>
        <time>2016-08-27T07:34:57.000Z</time>
      </trkpt>
      <trkpt lat="45.96626" lon="6.25013">
        <ele>1559</ele>
        <time>2016-08-27T07:34:58.000Z</time>
      </trkpt>
      <trkpt lat="45.96627" lon="6.25016">
        <ele>1559</ele>
        <time>2016-08-27T07:34:59.000Z</time>
      </trkpt>
      <trkpt lat="45.96628" lon="6.25019">
        <ele>1559</ele>
        <time>2016-08-27T07:35:00.000Z</time>
      </trkpt>
      <trkpt lat="45.96629" lon="6.25021">
        <ele>1559</ele>
        <time>2016-08-27T07:35:01.000Z</time>
      </trkpt>
      <trkpt lat="45.96631" lon="6.25024">
        <ele>1558</ele>
        <time>2016-08-27T07:35:02.000Z</time>
      </trkpt>
      <trkpt lat="45.96632" lon="6.25027">
        <ele>1558</ele>
        <time>2016-08-27T07:35:03.000Z</time>
      </trkpt>
      <trkpt lat="45.96633" lon="6.2503">
        <ele>1558</ele>
        <time>2016-08-27T07:35:04.000Z</time>
      </trkpt>
      <trkpt lat="45.96635" lon="6.25033">
        <ele>1558</ele>
        <time>2016-08-27T07:35:05.000Z</time>
      </trkpt>
      <trkpt lat="45.96636" lon="6.25035">
        <ele>1558</ele>
        <time>2016-08-27T07:35:06.000Z</time>
      </trkpt>
      <trkpt lat="45.96637" lon="6.25038">
        <ele>1558</ele>
        <time>2016-08-27T07:35:07.000Z</time>
      </trkpt>
      <trkpt lat="45.96639" lon="6.2504">
        <ele>1557</ele>
        <time>2016-08-27T07:35:08.000Z</time>
      </trkpt>
      <trkpt lat="45.96641" lon="6.25042">
        <ele>1557</ele>
        <time>2016-08-27T07:35:09.000Z</time>
      </trkpt>
      <trkpt lat="45.96644" lon="6.25044">
        <ele>1557</ele>
        <time>2016-08-27T07:35:10.000Z</time>
      </trkpt>
      <trkpt lat="45.96646" lon="6.25047">
        <ele>1557</ele>
        <time>2016-08-27T07:35:11.000Z</time>
      </trkpt>
      <trkpt lat="45.96648" lon="6.25049">
        <ele>1557</ele>
        <time>2016-08-27T07:35:12.000Z</time>
      </trkpt>
      <trkpt lat="45.9665" lon="6.25052">
        <ele>1557</ele>
        <time>2016-08-27T07:35:13.000Z</time>
      </trkpt>
      <trkpt lat="45.96653" lon="6.25054">
        <ele>1556</ele>
        <time>2016-08-27T07:35:14.000Z</time>
      </trkpt>
      <trkpt lat="45.96655" lon="6.25056">
        <ele>1556</ele>
        <time>2016-08-27T07:35:15.000Z</time>
      </trkpt>
      <trkpt lat="45.96656" lon="6.25059">
        <ele>1556</ele>
        <time>2016-08-27T07:35:16.000Z</time>
      </trkpt>
      <trkpt lat="45.96658" lon="6.25061">
        <ele>1556</ele>
        <time>2016-08-27T07:35:17.000Z</time>
      </trkpt>
      <trkpt lat="45.96659" lon="6.25063">
        <ele>1556</ele>
        <time>2016-08-27T07:35:18.000Z</time>
      </trkpt>
      <trkpt lat="45.96661" lon="6.25066">
        <ele>1556</ele>
        <time>2016-08-27T07:35:19.000Z</time>
      </trkpt>
      <trkpt lat="45.96663" lon="6.25068">
        <ele>1556</ele>
        <time>2016-08-27T07:35:20.000Z</time>
      </trkpt>
      <trkpt lat="45.96664" lon="6.25071">
        <ele>1556</ele>
        <time>2016-08-27T07:35:21.000Z</time>
      </trkpt>
      <trkpt lat="45.96666" lon="6.25073">
        <ele>1556</ele>
        <time>2016-08-27T07:35:22.000Z</time>
      </trkpt>
      <trkpt lat="45.96668" lon="6.25076">
        <ele>1556</ele>
        <time>2016-08-27T07:35:23.000Z</time>
      </trkpt>
      <trkpt lat="45.96669" lon="6.25078">
        <ele>1556</ele>
        <time>2016-08-27T07:35:24.000Z</time>
      </trkpt>
      <trkpt lat="45.9667" lon="6.25081">
        <ele>1556</ele>
        <time>2016-08-27T07:35:25.000Z</time>
      </trkpt>
      <trkpt lat="45.96671" lon="6.25083">
        <ele>1555</ele>
        <time>2016-08-27T07:35:26.000Z</time>
      </trkpt>
      <trkpt lat="45.96672" lon="6.25086">
        <ele>1555</ele>
        <time>2016-08-27T07:35:27.000Z</time>
      </trkpt>
      <trkpt lat="45.96674" lon="6.25088">
        <ele>1555</ele>
        <time>2016-08-27T07:35:28.000Z</time>
      </trkpt>
      <trkpt lat="45.96675" lon="6.2509">
        <ele>1555</ele>
        <time>2016-08-27T07:35:29.000Z</time>
      </trkpt>
      <trkpt lat="45.96677" lon="6.25092">
        <ele>1554</ele>
        <time>2016-08-27T07:35:30.000Z</time>
      </trkpt>
      <trkpt lat="45.96679" lon="6.25093">
        <ele>1554</ele>
        <time>2016-08-27T07:35:31.000Z</time>
      </trkpt>
      <trkpt lat="45.96681" lon="6.25095">
        <ele>1554</ele>
        <time>2016-08-27T07:35:32.000Z</time>
      </trkpt>
      <trkpt lat="45.96683" lon="6.25097">
        <ele>1554</ele>
        <time>2016-08-27T07:35:33.000Z</time>
      </trkpt>
      <trkpt lat="45.96685" lon="6.25099">
        <ele>1554</ele>
        <time>2016-08-27T07:35:34.000Z</time>
      </trkpt>
      <trkpt lat="45.96687" lon="6.25101">
        <ele>1554</ele>
        <time>2016-08-27T07:35:35.000Z</time>
      </trkpt>
      <trkpt lat="45.96689" lon="6.25103">
        <ele>1553</ele>
        <time>2016-08-27T07:35:36.000Z</time>
      </trkpt>
      <trkpt lat="45.96691" lon="6.25106">
        <ele>1553</ele>
        <time>2016-08-27T07:35:37.000Z</time>
      </trkpt>
      <trkpt lat="45.96693" lon="6.25108">
        <ele>1552</ele>
        <time>2016-08-27T07:35:38.000Z</time>
      </trkpt>
      <trkpt lat="45.96695" lon="6.25112">
        <ele>1552</ele>
        <time>2016-08-27T07:35:39.000Z</time>
      </trkpt>
      <trkpt lat="45.96697" lon="6.25115">
        <ele>1552</ele>
        <time>2016-08-27T07:35:40.000Z</time>
      </trkpt>
      <trkpt lat="45.96698" lon="6.25118">
        <ele>1552</ele>
        <time>2016-08-27T07:35:41.000Z</time>
      </trkpt>
      <trkpt lat="45.96699" lon="6.25122">
        <ele>1551</ele>
        <time>2016-08-27T07:35:42.000Z</time>
      </trkpt>
      <trkpt lat="45.967" lon="6.25125">
        <ele>1551</ele>
        <time>2016-08-27T07:35:43.000Z</time>
      </trkpt>
      <trkpt lat="45.96702" lon="6.25128">
        <ele>1550</ele>
        <time>2016-08-27T07:35:44.000Z</time>
      </trkpt>
      <trkpt lat="45.96703" lon="6.25131">
        <ele>1550</ele>
        <time>2016-08-27T07:35:45.000Z</time>
      </trkpt>
      <trkpt lat="45.96703" lon="6.25134">
        <ele>1550</ele>
        <time>2016-08-27T07:35:46.000Z</time>
      </trkpt>
      <trkpt lat="45.96704" lon="6.25136">
        <ele>1550</ele>
        <time>2016-08-27T07:35:47.000Z</time>
      </trkpt>
      <trkpt lat="45.96705" lon="6.25139">
        <ele>1549</ele>
        <time>2016-08-27T07:35:48.000Z</time>
      </trkpt>
      <trkpt lat="45.96706" lon="6.25141">
        <ele>1549</ele>
        <time>2016-08-27T07:35:49.000Z</time>
      </trkpt>
      <trkpt lat="45.96708" lon="6.25144">
        <ele>1549</ele>
        <time>2016-08-27T07:35:50.000Z</time>
      </trkpt>
      <trkpt lat="45.96709" lon="6.25147">
        <ele>1549</ele>
        <time>2016-08-27T07:35:51.000Z</time>
      </trkpt>
      <trkpt lat="45.9671" lon="6.2515">
        <ele>1548</ele>
        <time>2016-08-27T07:35:52.000Z</time>
      </trkpt>
      <trkpt lat="45.96711" lon="6.25153">
        <ele>1548</ele>
        <time>2016-08-27T07:35:53.000Z</time>
      </trkpt>
      <trkpt lat="45.96712" lon="6.25156">
        <ele>1548</ele>
        <time>2016-08-27T07:35:54.000Z</time>
      </trkpt>
      <trkpt lat="45.96713" lon="6.25159">
        <ele>1548</ele>
        <time>2016-08-27T07:35:55.000Z</time>
      </trkpt>
      <trkpt lat="45.96713" lon="6.25161">
        <ele>1547</ele>
        <time>2016-08-27T07:35:56.000Z</time>
      </trkpt>
      <trkpt lat="45.96714" lon="6.25163">
        <ele>1547</ele>
        <time>2016-08-27T07:35:57.000Z</time>
      </trkpt>
      <trkpt lat="45.96715" lon="6.25165">
        <ele>1547</ele>
        <time>2016-08-27T07:35:58.000Z</time>
      </trkpt>
      <trkpt lat="45.96715" lon="6.25167">
        <ele>1547</ele>
        <time>2016-08-27T07:35:59.000Z</time>
      </trkpt>
      <trkpt lat="45.96716" lon="6.25169">
        <ele>1546</ele>
        <time>2016-08-27T07:36:00.000Z</time>
      </trkpt>
      <trkpt lat="45.96716" lon="6.25172">
        <ele>1546</ele>
        <time>2016-08-27T07:36:01.000Z</time>
      </trkpt>
      <trkpt lat="45.96717" lon="6.25174">
        <ele>1546</ele>
        <time>2016-08-27T07:36:02.000Z</time>
      </trkpt>
      <trkpt lat="45.96717" lon="6.25177">
        <ele>1546</ele>
        <time>2016-08-27T07:36:03.000Z</time>
      </trkpt>
      <trkpt lat="45.96718" lon="6.2518">
        <ele>1546</ele>
        <time>2016-08-27T07:36:04.000Z</time>
      </trkpt>
      <trkpt lat="45.96717" lon="6.25183">
        <ele>1546</ele>
        <time>2016-08-27T07:36:05.000Z</time>
      </trkpt>
      <trkpt lat="45.96717" lon="6.25185">
        <ele>1545</ele>
        <time>2016-08-27T07:36:06.000Z</time>
      </trkpt>
      <trkpt lat="45.96717" lon="6.25187">
        <ele>1545</ele>
        <time>2016-08-27T07:36:07.000Z</time>
      </trkpt>
      <trkpt lat="45.96716" lon="6.25189">
        <ele>1545</ele>
        <time>2016-08-27T07:36:08.000Z</time>
      </trkpt>
      <trkpt lat="45.96716" lon="6.25191">
        <ele>1545</ele>
        <time>2016-08-27T07:36:09.000Z</time>
      </trkpt>
      <trkpt lat="45.96716" lon="6.25193">
        <ele>1545</ele>
        <time>2016-08-27T07:36:10.000Z</time>
      </trkpt>
      <trkpt lat="45.96716" lon="6.25195">
        <ele>1545</ele>
        <time>2016-08-27T07:36:11.000Z</time>
      </trkpt>
      <trkpt lat="45.96717" lon="6.25197">
        <ele>1544</ele>
        <time>2016-08-27T07:36:12.000Z</time>
      </trkpt>
      <trkpt lat="45.96717" lon="6.252">
        <ele>1544</ele>
        <time>2016-08-27T07:36:13.000Z</time>
      </trkpt>
      <trkpt lat="45.96718" lon="6.25203">
        <ele>1544</ele>
        <time>2016-08-27T07:36:14.000Z</time>
      </trkpt>
      <trkpt lat="45.96719" lon="6.25207">
        <ele>1544</ele>
        <time>2016-08-27T07:36:15.000Z</time>
      </trkpt>
      <trkpt lat="45.96719" lon="6.2521">
        <ele>1544</ele>
        <time>2016-08-27T07:36:16.000Z</time>
      </trkpt>
      <trkpt lat="45.96719" lon="6.25213">
        <ele>1544</ele>
        <time>2016-08-27T07:36:17.000Z</time>
      </trkpt>
      <trkpt lat="45.9672" lon="6.25215">
        <ele>1544</ele>
        <time>2016-08-27T07:36:18.000Z</time>
      </trkpt>
      <trkpt lat="45.9672" lon="6.25217">
        <ele>1544</ele>
        <time>2016-08-27T07:36:19.000Z</time>
      </trkpt>
      <trkpt lat="45.9672" lon="6.25219">
        <ele>1544</ele>
        <time>2016-08-27T07:36:20.000Z</time>
      </trkpt>
      <trkpt lat="45.9672" lon="6.25219">
        <ele>1544</ele>
        <time>2016-08-27T07:36:21.000Z</time>
      </trkpt>
      <trkpt lat="45.9672" lon="6.2522">
        <ele>1544</ele>
        <time>2016-08-27T07:36:22.000Z</time>
      </trkpt>
      <trkpt lat="45.9672" lon="6.2522">
        <ele>1544</ele>
        <time>2016-08-27T07:36:23.000Z</time>
      </trkpt>
      <trkpt lat="45.9672" lon="6.25222">
        <ele>1544</ele>
        <time>2016-08-27T07:36:24.000Z</time>
      </trkpt>
      <trkpt lat="45.9672" lon="6.25223">
        <ele>1544</ele>
        <time>2016-08-27T07:36:25.000Z</time>
      </trkpt>
      <trkpt lat="45.9672" lon="6.25224">
        <ele>1544</ele>
        <time>2016-08-27T07:36:26.000Z</time>
      </trkpt>
      <trkpt lat="45.96721" lon="6.25226">
        <ele>1544</ele>
        <time>2016-08-27T07:36:27.000Z</time>
      </trkpt>
      <trkpt lat="45.96721" lon="6.25229">
        <ele>1544</ele>
        <time>2016-08-27T07:36:28.000Z</time>
      </trkpt>
      <trkpt lat="45.96721" lon="6.25231">
        <ele>1544</ele>
        <time>2016-08-27T07:36:29.000Z</time>
      </trkpt>
      <trkpt lat="45.96721" lon="6.25234">
        <ele>1543</ele>
        <time>2016-08-27T07:36:30.000Z</time>
      </trkpt>
      <trkpt lat="45.96721" lon="6.25237">
        <ele>1543</ele>
        <time>2016-08-27T07:36:31.000Z</time>
      </trkpt>
      <trkpt lat="45.9672" lon="6.25241">
        <ele>1543</ele>
        <time>2016-08-27T07:36:32.000Z</time>
      </trkpt>
      <trkpt lat="45.96719" lon="6.25244">
        <ele>1543</ele>
        <time>2016-08-27T07:36:33.000Z</time>
      </trkpt>
      <trkpt lat="45.96719" lon="6.25247">
        <ele>1543</ele>
        <time>2016-08-27T07:36:34.000Z</time>
      </trkpt>
      <trkpt lat="45.96719" lon="6.25249">
        <ele>1543</ele>
        <time>2016-08-27T07:36:35.000Z</time>
      </trkpt>
      <trkpt lat="45.96719" lon="6.2525">
        <ele>1543</ele>
        <time>2016-08-27T07:36:36.000Z</time>
      </trkpt>
      <trkpt lat="45.9672" lon="6.2525">
        <ele>1543</ele>
        <time>2016-08-27T07:36:37.000Z</time>
      </trkpt>
      <trkpt lat="45.9672" lon="6.2525">
        <ele>1543</ele>
        <time>2016-08-27T07:36:38.000Z</time>
      </trkpt>
      <trkpt lat="45.9672" lon="6.2525">
        <ele>1543</ele>
        <time>2016-08-27T07:36:39.000Z</time>
      </trkpt>
      <trkpt lat="45.9672" lon="6.2525">
        <ele>1543</ele>
        <time>2016-08-27T07:36:40.000Z</time>
      </trkpt>
      <trkpt lat="45.9672" lon="6.2525">
        <ele>1543</ele>
        <time>2016-08-27T07:36:41.000Z</time>
      </trkpt>
      <trkpt lat="45.9672" lon="6.25251">
        <ele>1543</ele>
        <time>2016-08-27T07:36:42.000Z</time>
      </trkpt>
      <trkpt lat="45.9672" lon="6.25251">
        <ele>1543</ele>
        <time>2016-08-27T07:36:43.000Z</time>
      </trkpt>
      <trkpt lat="45.9672" lon="6.25251">
        <ele>1543</ele>
        <time>2016-08-27T07:36:44.000Z</time>
      </trkpt>
      <trkpt lat="45.9672" lon="6.25251">
        <ele>1543</ele>
        <time>2016-08-27T07:36:45.000Z</time>
      </trkpt>
      <trkpt lat="45.9672" lon="6.25251">
        <ele>1543</ele>
        <time>2016-08-27T07:36:46.000Z</time>
      </trkpt>
      <trkpt lat="45.96721" lon="6.25252">
        <ele>1543</ele>
        <time>2016-08-27T07:36:47.000Z</time>
      </trkpt>
      <trkpt lat="45.96721" lon="6.25254">
        <ele>1543</ele>
        <time>2016-08-27T07:36:48.000Z</time>
      </trkpt>
      <trkpt lat="45.96721" lon="6.25255">
        <ele>1543</ele>
        <time>2016-08-27T07:36:49.000Z</time>
      </trkpt>
      <trkpt lat="45.96721" lon="6.25256">
        <ele>1543</ele>
        <time>2016-08-27T07:36:50.000Z</time>
      </trkpt>
      <trkpt lat="45.96721" lon="6.25257">
        <ele>1543</ele>
        <time>2016-08-27T07:36:51.000Z</time>
      </trkpt>
      <trkpt lat="45.96721" lon="6.25259">
        <ele>1543</ele>
        <time>2016-08-27T07:36:52.000Z</time>
      </trkpt>
      <trkpt lat="45.9672" lon="6.2526">
        <ele>1543</ele>
        <time>2016-08-27T07:36:53.000Z</time>
      </trkpt>
      <trkpt lat="45.9672" lon="6.25261">
        <ele>1543</ele>
        <time>2016-08-27T07:36:54.000Z</time>
      </trkpt>
      <trkpt lat="45.9672" lon="6.25262">
        <ele>1543</ele>
        <time>2016-08-27T07:36:55.000Z</time>
      </trkpt>
      <trkpt lat="45.96719" lon="6.25264">
        <ele>1543</ele>
        <time>2016-08-27T07:36:56.000Z</time>
      </trkpt>
      <trkpt lat="45.96719" lon="6.25265">
        <ele>1543</ele>
        <time>2016-08-27T07:36:57.000Z</time>
      </trkpt>
      <trkpt lat="45.96719" lon="6.25266">
        <ele>1543</ele>
        <time>2016-08-27T07:36:58.000Z</time>
      </trkpt>
      <trkpt lat="45.96718" lon="6.25267">
        <ele>1543</ele>
        <time>2016-08-27T07:36:59.000Z</time>
      </trkpt>
      <trkpt lat="45.96718" lon="6.25269">
        <ele>1543</ele>
        <time>2016-08-27T07:37:00.000Z</time>
      </trkpt>
      <trkpt lat="45.96718" lon="6.2527">
        <ele>1543</ele>
        <time>2016-08-27T07:37:01.000Z</time>
      </trkpt>
      <trkpt lat="45.96718" lon="6.25271">
        <ele>1543</ele>
        <time>2016-08-27T07:37:02.000Z</time>
      </trkpt>
      <trkpt lat="45.96718" lon="6.25272">
        <ele>1543</ele>
        <time>2016-08-27T07:37:03.000Z</time>
      </trkpt>
      <trkpt lat="45.96719" lon="6.25274">
        <ele>1543</ele>
        <time>2016-08-27T07:37:04.000Z</time>
      </trkpt>
      <trkpt lat="45.96719" lon="6.25276">
        <ele>1543</ele>
        <time>2016-08-27T07:37:05.000Z</time>
      </trkpt>
      <trkpt lat="45.96719" lon="6.25277">
        <ele>1543</ele>
        <time>2016-08-27T07:37:06.000Z</time>
      </trkpt>
      <trkpt lat="45.96719" lon="6.2528">
        <ele>1543</ele>
        <time>2016-08-27T07:37:07.000Z</time>
      </trkpt>
      <trkpt lat="45.9672" lon="6.25281">
        <ele>1543</ele>
        <time>2016-08-27T07:37:08.000Z</time>
      </trkpt>
      <trkpt lat="45.9672" lon="6.25283">
        <ele>1543</ele>
        <time>2016-08-27T07:37:09.000Z</time>
      </trkpt>
      <trkpt lat="45.9672" lon="6.25284">
        <ele>1542</ele>
        <time>2016-08-27T07:37:10.000Z</time>
      </trkpt>
      <trkpt lat="45.9672" lon="6.25285">
        <ele>1542</ele>
        <time>2016-08-27T07:37:11.000Z</time>
      </trkpt>
      <trkpt lat="45.96721" lon="6.25286">
        <ele>1542</ele>
        <time>2016-08-27T07:37:12.000Z</time>
      </trkpt>
      <trkpt lat="45.96722" lon="6.25286">
        <ele>1542</ele>
        <time>2016-08-27T07:37:13.000Z</time>
      </trkpt>
      <trkpt lat="45.96724" lon="6.25287">
        <ele>1541</ele>
        <time>2016-08-27T07:37:14.000Z</time>
      </trkpt>
      <trkpt lat="45.96725" lon="6.25288">
        <ele>1541</ele>
        <time>2016-08-27T07:37:15.000Z</time>
      </trkpt>
      <trkpt lat="45.96727" lon="6.25288">
        <ele>1541</ele>
        <time>2016-08-27T07:37:16.000Z</time>
      </trkpt>
      <trkpt lat="45.96729" lon="6.25288">
        <ele>1541</ele>
        <time>2016-08-27T07:37:17.000Z</time>
      </trkpt>
      <trkpt lat="45.96731" lon="6.25287">
        <ele>1540</ele>
        <time>2016-08-27T07:37:18.000Z</time>
      </trkpt>
      <trkpt lat="45.96733" lon="6.25285">
        <ele>1540</ele>
        <time>2016-08-27T07:37:19.000Z</time>
      </trkpt>
      <trkpt lat="45.96736" lon="6.25284">
        <ele>1540</ele>
        <time>2016-08-27T07:37:20.000Z</time>
      </trkpt>
      <trkpt lat="45.96738" lon="6.25283">
        <ele>1540</ele>
        <time>2016-08-27T07:37:21.000Z</time>
      </trkpt>
      <trkpt lat="45.96739" lon="6.25283">
        <ele>1539</ele>
        <time>2016-08-27T07:37:22.000Z</time>
      </trkpt>
      <trkpt lat="45.96741" lon="6.25282">
        <ele>1539</ele>
        <time>2016-08-27T07:37:23.000Z</time>
      </trkpt>
      <trkpt lat="45.96743" lon="6.25281">
        <ele>1539</ele>
        <time>2016-08-27T07:37:24.000Z</time>
      </trkpt>
      <trkpt lat="45.96744" lon="6.2528">
        <ele>1539</ele>
        <time>2016-08-27T07:37:25.000Z</time>
      </trkpt>
      <trkpt lat="45.96745" lon="6.25279">
        <ele>1539</ele>
        <time>2016-08-27T07:37:26.000Z</time>
      </trkpt>
      <trkpt lat="45.96746" lon="6.25279">
        <ele>1539</ele>
        <time>2016-08-27T07:37:27.000Z</time>
      </trkpt>
      <trkpt lat="45.96746" lon="6.25279">
        <ele>1539</ele>
        <time>2016-08-27T07:37:28.000Z</time>
      </trkpt>
      <trkpt lat="45.96746" lon="6.25278">
        <ele>1539</ele>
        <time>2016-08-27T07:37:29.000Z</time>
      </trkpt>
      <trkpt lat="45.96746" lon="6.25278">
        <ele>1539</ele>
        <time>2016-08-27T07:37:30.000Z</time>
      </trkpt>
      <trkpt lat="45.96746" lon="6.25278">
        <ele>1539</ele>
        <time>2016-08-27T07:37:31.000Z</time>
      </trkpt>
      <trkpt lat="45.96747" lon="6.25278">
        <ele>1539</ele>
        <time>2016-08-27T07:37:32.000Z</time>
      </trkpt>
      <trkpt lat="45.96748" lon="6.25279">
        <ele>1539</ele>
        <time>2016-08-27T07:37:33.000Z</time>
      </trkpt>
      <trkpt lat="45.96749" lon="6.2528">
        <ele>1539</ele>
        <time>2016-08-27T07:37:34.000Z</time>
      </trkpt>
      <trkpt lat="45.9675" lon="6.25281">
        <ele>1539</ele>
        <time>2016-08-27T07:37:35.000Z</time>
      </trkpt>
      <trkpt lat="45.96751" lon="6.25283">
        <ele>1538</ele>
        <time>2016-08-27T07:37:36.000Z</time>
      </trkpt>
      <trkpt lat="45.96751" lon="6.25285">
        <ele>1538</ele>
        <time>2016-08-27T07:37:37.000Z</time>
      </trkpt>
      <trkpt lat="45.96751" lon="6.25287">
        <ele>1538</ele>
        <time>2016-08-27T07:37:38.000Z</time>
      </trkpt>
      <trkpt lat="45.96751" lon="6.25289">
        <ele>1538</ele>
        <time>2016-08-27T07:37:39.000Z</time>
      </trkpt>
      <trkpt lat="45.96752" lon="6.25292">
        <ele>1537</ele>
        <time>2016-08-27T07:37:40.000Z</time>
      </trkpt>
      <trkpt lat="45.96752" lon="6.25294">
        <ele>1537</ele>
        <time>2016-08-27T07:37:41.000Z</time>
      </trkpt>
      <trkpt lat="45.96753" lon="6.25295">
        <ele>1537</ele>
        <time>2016-08-27T07:37:42.000Z</time>
      </trkpt>
      <trkpt lat="45.96753" lon="6.25297">
        <ele>1537</ele>
        <time>2016-08-27T07:37:43.000Z</time>
      </trkpt>
      <trkpt lat="45.96753" lon="6.25298">
        <ele>1536</ele>
        <time>2016-08-27T07:37:44.000Z</time>
      </trkpt>
      <trkpt lat="45.96754" lon="6.25299">
        <ele>1536</ele>
        <time>2016-08-27T07:37:45.000Z</time>
      </trkpt>
      <trkpt lat="45.96755" lon="6.253">
        <ele>1536</ele>
        <time>2016-08-27T07:37:46.000Z</time>
      </trkpt>
      <trkpt lat="45.96756" lon="6.253">
        <ele>1536</ele>
        <time>2016-08-27T07:37:47.000Z</time>
      </trkpt>
      <trkpt lat="45.96757" lon="6.253">
        <ele>1536</ele>
        <time>2016-08-27T07:37:48.000Z</time>
      </trkpt>
      <trkpt lat="45.96758" lon="6.25301">
        <ele>1536</ele>
        <time>2016-08-27T07:37:49.000Z</time>
      </trkpt>
      <trkpt lat="45.96759" lon="6.25302">
        <ele>1535</ele>
        <time>2016-08-27T07:37:50.000Z</time>
      </trkpt>
      <trkpt lat="45.96759" lon="6.25303">
        <ele>1535</ele>
        <time>2016-08-27T07:37:51.000Z</time>
      </trkpt>
      <trkpt lat="45.9676" lon="6.25303">
        <ele>1535</ele>
        <time>2016-08-27T07:37:52.000Z</time>
      </trkpt>
      <trkpt lat="45.96761" lon="6.25303">
        <ele>1535</ele>
        <time>2016-08-27T07:37:53.000Z</time>
      </trkpt>
      <trkpt lat="45.96761" lon="6.25303">
        <ele>1535</ele>
        <time>2016-08-27T07:37:54.000Z</time>
      </trkpt>
      <trkpt lat="45.96762" lon="6.25303">
        <ele>1535</ele>
        <time>2016-08-27T07:37:55.000Z</time>
      </trkpt>
      <trkpt lat="45.96763" lon="6.25303">
        <ele>1534</ele>
        <time>2016-08-27T07:37:56.000Z</time>
      </trkpt>
      <trkpt lat="45.96764" lon="6.25303">
        <ele>1534</ele>
        <time>2016-08-27T07:37:57.000Z</time>
      </trkpt>
      <trkpt lat="45.96766" lon="6.25303">
        <ele>1534</ele>
        <time>2016-08-27T07:37:58.000Z</time>
      </trkpt>
      <trkpt lat="45.96767" lon="6.25302">
        <ele>1534</ele>
        <time>2016-08-27T07:37:59.000Z</time>
      </trkpt>
      <trkpt lat="45.96768" lon="6.25301">
        <ele>1534</ele>
        <time>2016-08-27T07:38:00.000Z</time>
      </trkpt>
      <trkpt lat="45.96769" lon="6.253">
        <ele>1534</ele>
        <time>2016-08-27T07:38:01.000Z</time>
      </trkpt>
      <trkpt lat="45.9677" lon="6.25299">
        <ele>1533</ele>
        <time>2016-08-27T07:38:02.000Z</time>
      </trkpt>
      <trkpt lat="45.96771" lon="6.25298">
        <ele>1533</ele>
        <time>2016-08-27T07:38:03.000Z</time>
      </trkpt>
      <trkpt lat="45.96772" lon="6.25297">
        <ele>1533</ele>
        <time>2016-08-27T07:38:04.000Z</time>
      </trkpt>
      <trkpt lat="45.96773" lon="6.25296">
        <ele>1533</ele>
        <time>2016-08-27T07:38:05.000Z</time>
      </trkpt>
      <trkpt lat="45.96773" lon="6.25295">
        <ele>1533</ele>
        <time>2016-08-27T07:38:06.000Z</time>
      </trkpt>
      <trkpt lat="45.96774" lon="6.25293">
        <ele>1533</ele>
        <time>2016-08-27T07:38:07.000Z</time>
      </trkpt>
      <trkpt lat="45.96775" lon="6.25291">
        <ele>1533</ele>
        <time>2016-08-27T07:38:08.000Z</time>
      </trkpt>
      <trkpt lat="45.96776" lon="6.2529">
        <ele>1533</ele>
        <time>2016-08-27T07:38:09.000Z</time>
      </trkpt>
      <trkpt lat="45.96777" lon="6.25289">
        <ele>1533</ele>
        <time>2016-08-27T07:38:10.000Z</time>
      </trkpt>
      <trkpt lat="45.96778" lon="6.25289">
        <ele>1533</ele>
        <time>2016-08-27T07:38:11.000Z</time>
      </trkpt>
      <trkpt lat="45.96779" lon="6.25288">
        <ele>1533</ele>
        <time>2016-08-27T07:38:12.000Z</time>
      </trkpt>
      <trkpt lat="45.9678" lon="6.25288">
        <ele>1533</ele>
        <time>2016-08-27T07:38:13.000Z</time>
      </trkpt>
      <trkpt lat="45.96781" lon="6.25287">
        <ele>1533</ele>
        <time>2016-08-27T07:38:14.000Z</time>
      </trkpt>
      <trkpt lat="45.96782" lon="6.25285">
        <ele>1533</ele>
        <time>2016-08-27T07:38:15.000Z</time>
      </trkpt>
      <trkpt lat="45.96783" lon="6.25283">
        <ele>1533</ele>
        <time>2016-08-27T07:38:16.000Z</time>
      </trkpt>
      <trkpt lat="45.96785" lon="6.25281">
        <ele>1533</ele>
        <time>2016-08-27T07:38:17.000Z</time>
      </trkpt>
      <trkpt lat="45.96786" lon="6.25279">
        <ele>1533</ele>
        <time>2016-08-27T07:38:18.000Z</time>
      </trkpt>
      <trkpt lat="45.96788" lon="6.25277">
        <ele>1533</ele>
        <time>2016-08-27T07:38:19.000Z</time>
      </trkpt>
      <trkpt lat="45.9679" lon="6.25274">
        <ele>1532</ele>
        <time>2016-08-27T07:38:20.000Z</time>
      </trkpt>
      <trkpt lat="45.96792" lon="6.25273">
        <ele>1532</ele>
        <time>2016-08-27T07:38:21.000Z</time>
      </trkpt>
      <trkpt lat="45.96793" lon="6.25272">
        <ele>1532</ele>
        <time>2016-08-27T07:38:22.000Z</time>
      </trkpt>
      <trkpt lat="45.96795" lon="6.25271">
        <ele>1532</ele>
        <time>2016-08-27T07:38:23.000Z</time>
      </trkpt>
      <trkpt lat="45.96796" lon="6.25271">
        <ele>1532</ele>
        <time>2016-08-27T07:38:24.000Z</time>
      </trkpt>
      <trkpt lat="45.96797" lon="6.2527">
        <ele>1532</ele>
        <time>2016-08-27T07:38:25.000Z</time>
      </trkpt>
      <trkpt lat="45.96799" lon="6.2527">
        <ele>1531</ele>
        <time>2016-08-27T07:38:26.000Z</time>
      </trkpt>
      <trkpt lat="45.968" lon="6.25271">
        <ele>1531</ele>
        <time>2016-08-27T07:38:27.000Z</time>
      </trkpt>
      <trkpt lat="45.96802" lon="6.25271">
        <ele>1530</ele>
        <time>2016-08-27T07:38:28.000Z</time>
      </trkpt>
      <trkpt lat="45.96804" lon="6.25272">
        <ele>1530</ele>
        <time>2016-08-27T07:38:29.000Z</time>
      </trkpt>
      <trkpt lat="45.96806" lon="6.25272">
        <ele>1530</ele>
        <time>2016-08-27T07:38:30.000Z</time>
      </trkpt>
      <trkpt lat="45.96808" lon="6.25273">
        <ele>1530</ele>
        <time>2016-08-27T07:38:31.000Z</time>
      </trkpt>
      <trkpt lat="45.9681" lon="6.25274">
        <ele>1529</ele>
        <time>2016-08-27T07:38:32.000Z</time>
      </trkpt>
      <trkpt lat="45.96812" lon="6.25275">
        <ele>1529</ele>
        <time>2016-08-27T07:38:33.000Z</time>
      </trkpt>
      <trkpt lat="45.96814" lon="6.25276">
        <ele>1528</ele>
        <time>2016-08-27T07:38:34.000Z</time>
      </trkpt>
      <trkpt lat="45.96816" lon="6.25277">
        <ele>1528</ele>
        <time>2016-08-27T07:38:35.000Z</time>
      </trkpt>
      <trkpt lat="45.96818" lon="6.25279">
        <ele>1528</ele>
        <time>2016-08-27T07:38:36.000Z</time>
      </trkpt>
      <trkpt lat="45.9682" lon="6.2528">
        <ele>1528</ele>
        <time>2016-08-27T07:38:37.000Z</time>
      </trkpt>
      <trkpt lat="45.96822" lon="6.25282">
        <ele>1527</ele>
        <time>2016-08-27T07:38:38.000Z</time>
      </trkpt>
      <trkpt lat="45.96824" lon="6.25284">
        <ele>1527</ele>
        <time>2016-08-27T07:38:39.000Z</time>
      </trkpt>
      <trkpt lat="45.96826" lon="6.25286">
        <ele>1526</ele>
        <time>2016-08-27T07:38:40.000Z</time>
      </trkpt>
      <trkpt lat="45.96828" lon="6.25287">
        <ele>1526</ele>
        <time>2016-08-27T07:38:41.000Z</time>
      </trkpt>
      <trkpt lat="45.9683" lon="6.25289">
        <ele>1526</ele>
        <time>2016-08-27T07:38:42.000Z</time>
      </trkpt>
      <trkpt lat="45.96831" lon="6.25291">
        <ele>1526</ele>
        <time>2016-08-27T07:38:43.000Z</time>
      </trkpt>
      <trkpt lat="45.96833" lon="6.25294">
        <ele>1525</ele>
        <time>2016-08-27T07:38:44.000Z</time>
      </trkpt>
      <trkpt lat="45.96835" lon="6.25296">
        <ele>1525</ele>
        <time>2016-08-27T07:38:45.000Z</time>
      </trkpt>
      <trkpt lat="45.96836" lon="6.25298">
        <ele>1525</ele>
        <time>2016-08-27T07:38:46.000Z</time>
      </trkpt>
      <trkpt lat="45.96838" lon="6.25301">
        <ele>1525</ele>
        <time>2016-08-27T07:38:47.000Z</time>
      </trkpt>
      <trkpt lat="45.96839" lon="6.25303">
        <ele>1524</ele>
        <time>2016-08-27T07:38:48.000Z</time>
      </trkpt>
      <trkpt lat="45.96841" lon="6.25306">
        <ele>1524</ele>
        <time>2016-08-27T07:38:49.000Z</time>
      </trkpt>
      <trkpt lat="45.96842" lon="6.25308">
        <ele>1524</ele>
        <time>2016-08-27T07:38:50.000Z</time>
      </trkpt>
      <trkpt lat="45.96843" lon="6.25311">
        <ele>1524</ele>
        <time>2016-08-27T07:38:51.000Z</time>
      </trkpt>
      <trkpt lat="45.96844" lon="6.25313">
        <ele>1524</ele>
        <time>2016-08-27T07:38:52.000Z</time>
      </trkpt>
      <trkpt lat="45.96845" lon="6.25314">
        <ele>1524</ele>
        <time>2016-08-27T07:38:53.000Z</time>
      </trkpt>
      <trkpt lat="45.96847" lon="6.25315">
        <ele>1524</ele>
        <time>2016-08-27T07:38:54.000Z</time>
      </trkpt>
      <trkpt lat="45.96848" lon="6.25317">
        <ele>1524</ele>
        <time>2016-08-27T07:38:55.000Z</time>
      </trkpt>
      <trkpt lat="45.96849" lon="6.25318">
        <ele>1524</ele>
        <time>2016-08-27T07:38:56.000Z</time>
      </trkpt>
      <trkpt lat="45.9685" lon="6.2532">
        <ele>1524</ele>
        <time>2016-08-27T07:38:57.000Z</time>
      </trkpt>
      <trkpt lat="45.96852" lon="6.2532">
        <ele>1524</ele>
        <time>2016-08-27T07:38:58.000Z</time>
      </trkpt>
      <trkpt lat="45.96853" lon="6.2532">
        <ele>1524</ele>
        <time>2016-08-27T07:38:59.000Z</time>
      </trkpt>
      <trkpt lat="45.96855" lon="6.25321">
        <ele>1524</ele>
        <time>2016-08-27T07:39:00.000Z</time>
      </trkpt>
      <trkpt lat="45.96857" lon="6.25321">
        <ele>1524</ele>
        <time>2016-08-27T07:39:01.000Z</time>
      </trkpt>
      <trkpt lat="45.96859" lon="6.25321">
        <ele>1524</ele>
        <time>2016-08-27T07:39:02.000Z</time>
      </trkpt>
      <trkpt lat="45.96861" lon="6.25322">
        <ele>1524</ele>
        <time>2016-08-27T07:39:03.000Z</time>
      </trkpt>
      <trkpt lat="45.96863" lon="6.25322">
        <ele>1524</ele>
        <time>2016-08-27T07:39:04.000Z</time>
      </trkpt>
      <trkpt lat="45.96865" lon="6.25323">
        <ele>1524</ele>
        <time>2016-08-27T07:39:05.000Z</time>
      </trkpt>
      <trkpt lat="45.96867" lon="6.25323">
        <ele>1524</ele>
        <time>2016-08-27T07:39:06.000Z</time>
      </trkpt>
      <trkpt lat="45.96868" lon="6.25324">
        <ele>1524</ele>
        <time>2016-08-27T07:39:07.000Z</time>
      </trkpt>
      <trkpt lat="45.9687" lon="6.25324">
        <ele>1523</ele>
        <time>2016-08-27T07:39:08.000Z</time>
      </trkpt>
      <trkpt lat="45.96872" lon="6.25324">
        <ele>1523</ele>
        <time>2016-08-27T07:39:09.000Z</time>
      </trkpt>
      <trkpt lat="45.96874" lon="6.25326">
        <ele>1523</ele>
        <time>2016-08-27T07:39:10.000Z</time>
      </trkpt>
      <trkpt lat="45.96876" lon="6.25327">
        <ele>1523</ele>
        <time>2016-08-27T07:39:11.000Z</time>
      </trkpt>
      <trkpt lat="45.96878" lon="6.25329">
        <ele>1523</ele>
        <time>2016-08-27T07:39:12.000Z</time>
      </trkpt>
      <trkpt lat="45.96879" lon="6.25332">
        <ele>1523</ele>
        <time>2016-08-27T07:39:13.000Z</time>
      </trkpt>
      <trkpt lat="45.9688" lon="6.25334">
        <ele>1523</ele>
        <time>2016-08-27T07:39:14.000Z</time>
      </trkpt>
      <trkpt lat="45.96882" lon="6.25335">
        <ele>1523</ele>
        <time>2016-08-27T07:39:15.000Z</time>
      </trkpt>
      <trkpt lat="45.96883" lon="6.25337">
        <ele>1523</ele>
        <time>2016-08-27T07:39:16.000Z</time>
      </trkpt>
      <trkpt lat="45.96885" lon="6.25338">
        <ele>1523</ele>
        <time>2016-08-27T07:39:17.000Z</time>
      </trkpt>
      <trkpt lat="45.96887" lon="6.25339">
        <ele>1523</ele>
        <time>2016-08-27T07:39:18.000Z</time>
      </trkpt>
      <trkpt lat="45.96889" lon="6.2534">
        <ele>1523</ele>
        <time>2016-08-27T07:39:19.000Z</time>
      </trkpt>
      <trkpt lat="45.9689" lon="6.25341">
        <ele>1523</ele>
        <time>2016-08-27T07:39:20.000Z</time>
      </trkpt>
      <trkpt lat="45.96892" lon="6.25341">
        <ele>1523</ele>
        <time>2016-08-27T07:39:21.000Z</time>
      </trkpt>
      <trkpt lat="45.96894" lon="6.25343">
        <ele>1523</ele>
        <time>2016-08-27T07:39:22.000Z</time>
      </trkpt>
      <trkpt lat="45.96895" lon="6.25344">
        <ele>1523</ele>
        <time>2016-08-27T07:39:23.000Z</time>
      </trkpt>
      <trkpt lat="45.96897" lon="6.25345">
        <ele>1523</ele>
        <time>2016-08-27T07:39:24.000Z</time>
      </trkpt>
      <trkpt lat="45.96898" lon="6.25346">
        <ele>1523</ele>
        <time>2016-08-27T07:39:25.000Z</time>
      </trkpt>
      <trkpt lat="45.969" lon="6.25347">
        <ele>1523</ele>
        <time>2016-08-27T07:39:26.000Z</time>
      </trkpt>
      <trkpt lat="45.96901" lon="6.25349">
        <ele>1523</ele>
        <time>2016-08-27T07:39:27.000Z</time>
      </trkpt>
      <trkpt lat="45.96902" lon="6.2535">
        <ele>1523</ele>
        <time>2016-08-27T07:39:28.000Z</time>
      </trkpt>
      <trkpt lat="45.96903" lon="6.25351">
        <ele>1523</ele>
        <time>2016-08-27T07:39:29.000Z</time>
      </trkpt>
      <trkpt lat="45.96904" lon="6.25352">
        <ele>1523</ele>
        <time>2016-08-27T07:39:30.000Z</time>
      </trkpt>
      <trkpt lat="45.96904" lon="6.25352">
        <ele>1523</ele>
        <time>2016-08-27T07:39:31.000Z</time>
      </trkpt>
      <trkpt lat="45.96905" lon="6.25353">
        <ele>1523</ele>
        <time>2016-08-27T07:39:32.000Z</time>
      </trkpt>
      <trkpt lat="45.96907" lon="6.25355">
        <ele>1523</ele>
        <time>2016-08-27T07:39:33.000Z</time>
      </trkpt>
      <trkpt lat="45.96908" lon="6.25356">
        <ele>1523</ele>
        <time>2016-08-27T07:39:34.000Z</time>
      </trkpt>
      <trkpt lat="45.96909" lon="6.25358">
        <ele>1523</ele>
        <time>2016-08-27T07:39:35.000Z</time>
      </trkpt>
      <trkpt lat="45.96911" lon="6.2536">
        <ele>1523</ele>
        <time>2016-08-27T07:39:36.000Z</time>
      </trkpt>
      <trkpt lat="45.96913" lon="6.25362">
        <ele>1523</ele>
        <time>2016-08-27T07:39:37.000Z</time>
      </trkpt>
      <trkpt lat="45.96914" lon="6.25364">
        <ele>1523</ele>
        <time>2016-08-27T07:39:38.000Z</time>
      </trkpt>
      <trkpt lat="45.96916" lon="6.25365">
        <ele>1523</ele>
        <time>2016-08-27T07:39:39.000Z</time>
      </trkpt>
      <trkpt lat="45.96917" lon="6.25367">
        <ele>1523</ele>
        <time>2016-08-27T07:39:40.000Z</time>
      </trkpt>
      <trkpt lat="45.96918" lon="6.25368">
        <ele>1523</ele>
        <time>2016-08-27T07:39:41.000Z</time>
      </trkpt>
      <trkpt lat="45.96919" lon="6.25369">
        <ele>1523</ele>
        <time>2016-08-27T07:39:42.000Z</time>
      </trkpt>
      <trkpt lat="45.9692" lon="6.2537">
        <ele>1523</ele>
        <time>2016-08-27T07:39:43.000Z</time>
      </trkpt>
      <trkpt lat="45.96921" lon="6.25371">
        <ele>1523</ele>
        <time>2016-08-27T07:39:44.000Z</time>
      </trkpt>
      <trkpt lat="45.96922" lon="6.25371">
        <ele>1523</ele>
        <time>2016-08-27T07:39:45.000Z</time>
      </trkpt>
      <trkpt lat="45.96923" lon="6.25372">
        <ele>1523</ele>
        <time>2016-08-27T07:39:46.000Z</time>
      </trkpt>
      <trkpt lat="45.96924" lon="6.25374">
        <ele>1523</ele>
        <time>2016-08-27T07:39:47.000Z</time>
      </trkpt>
      <trkpt lat="45.96925" lon="6.25374">
        <ele>1524</ele>
        <time>2016-08-27T07:39:48.000Z</time>
      </trkpt>
      <trkpt lat="45.96926" lon="6.25376">
        <ele>1524</ele>
        <time>2016-08-27T07:39:49.000Z</time>
      </trkpt>
      <trkpt lat="45.96927" lon="6.25376">
        <ele>1524</ele>
        <time>2016-08-27T07:39:50.000Z</time>
      </trkpt>
      <trkpt lat="45.96929" lon="6.25377">
        <ele>1524</ele>
        <time>2016-08-27T07:39:51.000Z</time>
      </trkpt>
      <trkpt lat="45.9693" lon="6.25378">
        <ele>1524</ele>
        <time>2016-08-27T07:39:52.000Z</time>
      </trkpt>
      <trkpt lat="45.96932" lon="6.25378">
        <ele>1524</ele>
        <time>2016-08-27T07:39:53.000Z</time>
      </trkpt>
      <trkpt lat="45.96934" lon="6.25379">
        <ele>1525</ele>
        <time>2016-08-27T07:39:54.000Z</time>
      </trkpt>
      <trkpt lat="45.96935" lon="6.2538">
        <ele>1525</ele>
        <time>2016-08-27T07:39:55.000Z</time>
      </trkpt>
      <trkpt lat="45.96937" lon="6.25381">
        <ele>1525</ele>
        <time>2016-08-27T07:39:56.000Z</time>
      </trkpt>
      <trkpt lat="45.96938" lon="6.25382">
        <ele>1525</ele>
        <time>2016-08-27T07:39:57.000Z</time>
      </trkpt>
      <trkpt lat="45.96939" lon="6.25383">
        <ele>1525</ele>
        <time>2016-08-27T07:39:58.000Z</time>
      </trkpt>
      <trkpt lat="45.96941" lon="6.25384">
        <ele>1525</ele>
        <time>2016-08-27T07:39:59.000Z</time>
      </trkpt>
      <trkpt lat="45.96943" lon="6.25384">
        <ele>1526</ele>
        <time>2016-08-27T07:40:00.000Z</time>
      </trkpt>
      <trkpt lat="45.96944" lon="6.25385">
        <ele>1526</ele>
        <time>2016-08-27T07:40:01.000Z</time>
      </trkpt>
      <trkpt lat="45.96946" lon="6.25385">
        <ele>1526</ele>
        <time>2016-08-27T07:40:02.000Z</time>
      </trkpt>
      <trkpt lat="45.96948" lon="6.25386">
        <ele>1526</ele>
        <time>2016-08-27T07:40:03.000Z</time>
      </trkpt>
      <trkpt lat="45.9695" lon="6.25387">
        <ele>1526</ele>
        <time>2016-08-27T07:40:04.000Z</time>
      </trkpt>
      <trkpt lat="45.96952" lon="6.25388">
        <ele>1526</ele>
        <time>2016-08-27T07:40:05.000Z</time>
      </trkpt>
      <trkpt lat="45.96954" lon="6.25389">
        <ele>1527</ele>
        <time>2016-08-27T07:40:06.000Z</time>
      </trkpt>
      <trkpt lat="45.96956" lon="6.25389">
        <ele>1527</ele>
        <time>2016-08-27T07:40:07.000Z</time>
      </trkpt>
      <trkpt lat="45.96957" lon="6.2539">
        <ele>1527</ele>
        <time>2016-08-27T07:40:08.000Z</time>
      </trkpt>
      <trkpt lat="45.96959" lon="6.25391">
        <ele>1527</ele>
        <time>2016-08-27T07:40:09.000Z</time>
      </trkpt>
      <trkpt lat="45.96961" lon="6.25392">
        <ele>1527</ele>
        <time>2016-08-27T07:40:10.000Z</time>
      </trkpt>
      <trkpt lat="45.96962" lon="6.25393">
        <ele>1527</ele>
        <time>2016-08-27T07:40:11.000Z</time>
      </trkpt>
      <trkpt lat="45.96964" lon="6.25394">
        <ele>1528</ele>
        <time>2016-08-27T07:40:12.000Z</time>
      </trkpt>
      <trkpt lat="45.96965" lon="6.25395">
        <ele>1528</ele>
        <time>2016-08-27T07:40:13.000Z</time>
      </trkpt>
      <trkpt lat="45.96966" lon="6.25395">
        <ele>1528</ele>
        <time>2016-08-27T07:40:14.000Z</time>
      </trkpt>
      <trkpt lat="45.96967" lon="6.25395">
        <ele>1528</ele>
        <time>2016-08-27T07:40:15.000Z</time>
      </trkpt>
      <trkpt lat="45.96969" lon="6.25396">
        <ele>1528</ele>
        <time>2016-08-27T07:40:16.000Z</time>
      </trkpt>
      <trkpt lat="45.9697" lon="6.25396">
        <ele>1528</ele>
        <time>2016-08-27T07:40:17.000Z</time>
      </trkpt>
      <trkpt lat="45.96972" lon="6.25398">
        <ele>1528</ele>
        <time>2016-08-27T07:40:18.000Z</time>
      </trkpt>
      <trkpt lat="45.96973" lon="6.25399">
        <ele>1528</ele>
        <time>2016-08-27T07:40:19.000Z</time>
      </trkpt>
      <trkpt lat="45.96974" lon="6.254">
        <ele>1529</ele>
        <time>2016-08-27T07:40:20.000Z</time>
      </trkpt>
      <trkpt lat="45.96975" lon="6.254">
        <ele>1529</ele>
        <time>2016-08-27T07:40:21.000Z</time>
      </trkpt>
      <trkpt lat="45.96976" lon="6.25401">
        <ele>1529</ele>
        <time>2016-08-27T07:40:22.000Z</time>
      </trkpt>
      <trkpt lat="45.96977" lon="6.25402">
        <ele>1529</ele>
        <time>2016-08-27T07:40:23.000Z</time>
      </trkpt>
      <trkpt lat="45.96978" lon="6.25403">
        <ele>1529</ele>
        <time>2016-08-27T07:40:24.000Z</time>
      </trkpt>
      <trkpt lat="45.96978" lon="6.25405">
        <ele>1529</ele>
        <time>2016-08-27T07:40:25.000Z</time>
      </trkpt>
      <trkpt lat="45.96979" lon="6.25406">
        <ele>1530</ele>
        <time>2016-08-27T07:40:26.000Z</time>
      </trkpt>
      <trkpt lat="45.9698" lon="6.25407">
        <ele>1530</ele>
        <time>2016-08-27T07:40:27.000Z</time>
      </trkpt>
      <trkpt lat="45.96981" lon="6.25408">
        <ele>1530</ele>
        <time>2016-08-27T07:40:28.000Z</time>
      </trkpt>
      <trkpt lat="45.96982" lon="6.25409">
        <ele>1530</ele>
        <time>2016-08-27T07:40:29.000Z</time>
      </trkpt>
      <trkpt lat="45.96983" lon="6.25409">
        <ele>1530</ele>
        <time>2016-08-27T07:40:30.000Z</time>
      </trkpt>
      <trkpt lat="45.96985" lon="6.2541">
        <ele>1530</ele>
        <time>2016-08-27T07:40:31.000Z</time>
      </trkpt>
      <trkpt lat="45.96986" lon="6.25412">
        <ele>1531</ele>
        <time>2016-08-27T07:40:32.000Z</time>
      </trkpt>
      <trkpt lat="45.96986" lon="6.25413">
        <ele>1531</ele>
        <time>2016-08-27T07:40:33.000Z</time>
      </trkpt>
      <trkpt lat="45.96987" lon="6.25415">
        <ele>1531</ele>
        <time>2016-08-27T07:40:34.000Z</time>
      </trkpt>
      <trkpt lat="45.96988" lon="6.25415">
        <ele>1531</ele>
        <time>2016-08-27T07:40:35.000Z</time>
      </trkpt>
      <trkpt lat="45.96988" lon="6.25416">
        <ele>1531</ele>
        <time>2016-08-27T07:40:36.000Z</time>
      </trkpt>
      <trkpt lat="45.96989" lon="6.25417">
        <ele>1531</ele>
        <time>2016-08-27T07:40:37.000Z</time>
      </trkpt>
      <trkpt lat="45.9699" lon="6.25417">
        <ele>1532</ele>
        <time>2016-08-27T07:40:38.000Z</time>
      </trkpt>
      <trkpt lat="45.96991" lon="6.25418">
        <ele>1532</ele>
        <time>2016-08-27T07:40:39.000Z</time>
      </trkpt>
      <trkpt lat="45.96992" lon="6.25419">
        <ele>1532</ele>
        <time>2016-08-27T07:40:40.000Z</time>
      </trkpt>
      <trkpt lat="45.96993" lon="6.25419">
        <ele>1532</ele>
        <time>2016-08-27T07:40:41.000Z</time>
      </trkpt>
      <trkpt lat="45.96995" lon="6.2542">
        <ele>1532</ele>
        <time>2016-08-27T07:40:42.000Z</time>
      </trkpt>
      <trkpt lat="45.96997" lon="6.2542">
        <ele>1532</ele>
        <time>2016-08-27T07:40:43.000Z</time>
      </trkpt>
      <trkpt lat="45.96999" lon="6.25421">
        <ele>1533</ele>
        <time>2016-08-27T07:40:44.000Z</time>
      </trkpt>
      <trkpt lat="45.97001" lon="6.25423">
        <ele>1533</ele>
        <time>2016-08-27T07:40:45.000Z</time>
      </trkpt>
      <trkpt lat="45.97003" lon="6.25424">
        <ele>1533</ele>
        <time>2016-08-27T07:40:46.000Z</time>
      </trkpt>
      <trkpt lat="45.97004" lon="6.25425">
        <ele>1533</ele>
        <time>2016-08-27T07:40:47.000Z</time>
      </trkpt>
      <trkpt lat="45.97006" lon="6.25427">
        <ele>1534</ele>
        <time>2016-08-27T07:40:48.000Z</time>
      </trkpt>
      <trkpt lat="45.97007" lon="6.25429">
        <ele>1534</ele>
        <time>2016-08-27T07:40:49.000Z</time>
      </trkpt>
      <trkpt lat="45.97008" lon="6.25431">
        <ele>1534</ele>
        <time>2016-08-27T07:40:50.000Z</time>
      </trkpt>
      <trkpt lat="45.9701" lon="6.25433">
        <ele>1534</ele>
        <time>2016-08-27T07:40:51.000Z</time>
      </trkpt>
      <trkpt lat="45.97011" lon="6.25435">
        <ele>1535</ele>
        <time>2016-08-27T07:40:52.000Z</time>
      </trkpt>
      <trkpt lat="45.97012" lon="6.25437">
        <ele>1535</ele>
        <time>2016-08-27T07:40:53.000Z</time>
      </trkpt>
      <trkpt lat="45.97012" lon="6.25439">
        <ele>1535</ele>
        <time>2016-08-27T07:40:54.000Z</time>
      </trkpt>
      <trkpt lat="45.97013" lon="6.2544">
        <ele>1535</ele>
        <time>2016-08-27T07:40:55.000Z</time>
      </trkpt>
      <trkpt lat="45.97013" lon="6.25441">
        <ele>1536</ele>
        <time>2016-08-27T07:40:56.000Z</time>
      </trkpt>
      <trkpt lat="45.97014" lon="6.25442">
        <ele>1536</ele>
        <time>2016-08-27T07:40:57.000Z</time>
      </trkpt>
      <trkpt lat="45.97015" lon="6.25443">
        <ele>1536</ele>
        <time>2016-08-27T07:40:58.000Z</time>
      </trkpt>
      <trkpt lat="45.97016" lon="6.25444">
        <ele>1536</ele>
        <time>2016-08-27T07:40:59.000Z</time>
      </trkpt>
      <trkpt lat="45.97017" lon="6.25445">
        <ele>1536</ele>
        <time>2016-08-27T07:41:00.000Z</time>
      </trkpt>
      <trkpt lat="45.97017" lon="6.25445">
        <ele>1536</ele>
        <time>2016-08-27T07:41:01.000Z</time>
      </trkpt>
      <trkpt lat="45.97018" lon="6.25446">
        <ele>1536</ele>
        <time>2016-08-27T07:41:02.000Z</time>
      </trkpt>
      <trkpt lat="45.97019" lon="6.25448">
        <ele>1536</ele>
        <time>2016-08-27T07:41:03.000Z</time>
      </trkpt>
      <trkpt lat="45.9702" lon="6.25449">
        <ele>1537</ele>
        <time>2016-08-27T07:41:04.000Z</time>
      </trkpt>
      <trkpt lat="45.9702" lon="6.2545">
        <ele>1537</ele>
        <time>2016-08-27T07:41:05.000Z</time>
      </trkpt>
      <trkpt lat="45.97021" lon="6.25451">
        <ele>1537</ele>
        <time>2016-08-27T07:41:06.000Z</time>
      </trkpt>
      <trkpt lat="45.97022" lon="6.25452">
        <ele>1537</ele>
        <time>2016-08-27T07:41:07.000Z</time>
      </trkpt>
      <trkpt lat="45.97022" lon="6.25452">
        <ele>1537</ele>
        <time>2016-08-27T07:41:08.000Z</time>
      </trkpt>
      <trkpt lat="45.97023" lon="6.25453">
        <ele>1537</ele>
        <time>2016-08-27T07:41:09.000Z</time>
      </trkpt>
      <trkpt lat="45.97024" lon="6.25454">
        <ele>1537</ele>
        <time>2016-08-27T07:41:10.000Z</time>
      </trkpt>
      <trkpt lat="45.97024" lon="6.25455">
        <ele>1537</ele>
        <time>2016-08-27T07:41:11.000Z</time>
      </trkpt>
      <trkpt lat="45.97024" lon="6.25456">
        <ele>1538</ele>
        <time>2016-08-27T07:41:12.000Z</time>
      </trkpt>
      <trkpt lat="45.97025" lon="6.25456">
        <ele>1538</ele>
        <time>2016-08-27T07:41:13.000Z</time>
      </trkpt>
      <trkpt lat="45.97025" lon="6.25457">
        <ele>1538</ele>
        <time>2016-08-27T07:41:14.000Z</time>
      </trkpt>
      <trkpt lat="45.97025" lon="6.25458">
        <ele>1538</ele>
        <time>2016-08-27T07:41:15.000Z</time>
      </trkpt>
      <trkpt lat="45.97026" lon="6.25459">
        <ele>1539</ele>
        <time>2016-08-27T07:41:16.000Z</time>
      </trkpt>
      <trkpt lat="45.97026" lon="6.2546">
        <ele>1539</ele>
        <time>2016-08-27T07:41:17.000Z</time>
      </trkpt>
      <trkpt lat="45.97027" lon="6.25461">
        <ele>1539</ele>
        <time>2016-08-27T07:41:18.000Z</time>
      </trkpt>
      <trkpt lat="45.97027" lon="6.25462">
        <ele>1539</ele>
        <time>2016-08-27T07:41:19.000Z</time>
      </trkpt>
      <trkpt lat="45.97028" lon="6.25463">
        <ele>1540</ele>
        <time>2016-08-27T07:41:20.000Z</time>
      </trkpt>
      <trkpt lat="45.97029" lon="6.25463">
        <ele>1540</ele>
        <time>2016-08-27T07:41:21.000Z</time>
      </trkpt>
      <trkpt lat="45.9703" lon="6.25464">
        <ele>1540</ele>
        <time>2016-08-27T07:41:22.000Z</time>
      </trkpt>
      <trkpt lat="45.97031" lon="6.25465">
        <ele>1540</ele>
        <time>2016-08-27T07:41:23.000Z</time>
      </trkpt>
      <trkpt lat="45.97032" lon="6.25466">
        <ele>1541</ele>
        <time>2016-08-27T07:41:24.000Z</time>
      </trkpt>
      <trkpt lat="45.97033" lon="6.25467">
        <ele>1541</ele>
        <time>2016-08-27T07:41:25.000Z</time>
      </trkpt>
      <trkpt lat="45.97034" lon="6.25467">
        <ele>1541</ele>
        <time>2016-08-27T07:41:26.000Z</time>
      </trkpt>
      <trkpt lat="45.97035" lon="6.25468">
        <ele>1541</ele>
        <time>2016-08-27T07:41:27.000Z</time>
      </trkpt>
      <trkpt lat="45.97036" lon="6.25469">
        <ele>1542</ele>
        <time>2016-08-27T07:41:28.000Z</time>
      </trkpt>
      <trkpt lat="45.97037" lon="6.2547">
        <ele>1542</ele>
        <time>2016-08-27T07:41:29.000Z</time>
      </trkpt>
      <trkpt lat="45.97038" lon="6.25471">
        <ele>1543</ele>
        <time>2016-08-27T07:41:30.000Z</time>
      </trkpt>
      <trkpt lat="45.97039" lon="6.25472">
        <ele>1543</ele>
        <time>2016-08-27T07:41:31.000Z</time>
      </trkpt>
      <trkpt lat="45.9704" lon="6.25473">
        <ele>1544</ele>
        <time>2016-08-27T07:41:32.000Z</time>
      </trkpt>
      <trkpt lat="45.97041" lon="6.25474">
        <ele>1544</ele>
        <time>2016-08-27T07:41:33.000Z</time>
      </trkpt>
      <trkpt lat="45.97042" lon="6.25474">
        <ele>1544</ele>
        <time>2016-08-27T07:41:34.000Z</time>
      </trkpt>
      <trkpt lat="45.97043" lon="6.25475">
        <ele>1544</ele>
        <time>2016-08-27T07:41:35.000Z</time>
      </trkpt>
      <trkpt lat="45.97044" lon="6.25476">
        <ele>1545</ele>
        <time>2016-08-27T07:41:36.000Z</time>
      </trkpt>
      <trkpt lat="45.97044" lon="6.25477">
        <ele>1545</ele>
        <time>2016-08-27T07:41:37.000Z</time>
      </trkpt>
      <trkpt lat="45.97045" lon="6.25478">
        <ele>1545</ele>
        <time>2016-08-27T07:41:38.000Z</time>
      </trkpt>
      <trkpt lat="45.97046" lon="6.25479">
        <ele>1545</ele>
        <time>2016-08-27T07:41:39.000Z</time>
      </trkpt>
      <trkpt lat="45.97047" lon="6.2548">
        <ele>1546</ele>
        <time>2016-08-27T07:41:40.000Z</time>
      </trkpt>
      <trkpt lat="45.97047" lon="6.25481">
        <ele>1546</ele>
        <time>2016-08-27T07:41:41.000Z</time>
      </trkpt>
      <trkpt lat="45.97048" lon="6.25482">
        <ele>1546</ele>
        <time>2016-08-27T07:41:42.000Z</time>
      </trkpt>
      <trkpt lat="45.97049" lon="6.25483">
        <ele>1546</ele>
        <time>2016-08-27T07:41:43.000Z</time>
      </trkpt>
      <trkpt lat="45.9705" lon="6.25484">
        <ele>1547</ele>
        <time>2016-08-27T07:41:44.000Z</time>
      </trkpt>
      <trkpt lat="45.97051" lon="6.25485">
        <ele>1547</ele>
        <time>2016-08-27T07:41:45.000Z</time>
      </trkpt>
      <trkpt lat="45.97052" lon="6.25486">
        <ele>1547</ele>
        <time>2016-08-27T07:41:46.000Z</time>
      </trkpt>
      <trkpt lat="45.97053" lon="6.25487">
        <ele>1547</ele>
        <time>2016-08-27T07:41:47.000Z</time>
      </trkpt>
      <trkpt lat="45.97053" lon="6.25487">
        <ele>1548</ele>
        <time>2016-08-27T07:41:48.000Z</time>
      </trkpt>
      <trkpt lat="45.97054" lon="6.25487">
        <ele>1548</ele>
        <time>2016-08-27T07:41:49.000Z</time>
      </trkpt>
      <trkpt lat="45.97054" lon="6.25487">
        <ele>1548</ele>
        <time>2016-08-27T07:41:50.000Z</time>
      </trkpt>
      <trkpt lat="45.97054" lon="6.25487">
        <ele>1548</ele>
        <time>2016-08-27T07:41:51.000Z</time>
      </trkpt>
      <trkpt lat="45.97054" lon="6.25487">
        <ele>1548</ele>
        <time>2016-08-27T07:41:52.000Z</time>
      </trkpt>
      <trkpt lat="45.97055" lon="6.25488">
        <ele>1548</ele>
        <time>2016-08-27T07:41:53.000Z</time>
      </trkpt>
      <trkpt lat="45.97056" lon="6.25488">
        <ele>1549</ele>
        <time>2016-08-27T07:41:54.000Z</time>
      </trkpt>
      <trkpt lat="45.97057" lon="6.25489">
        <ele>1549</ele>
        <time>2016-08-27T07:41:55.000Z</time>
      </trkpt>
      <trkpt lat="45.97058" lon="6.2549">
        <ele>1549</ele>
        <time>2016-08-27T07:41:56.000Z</time>
      </trkpt>
      <trkpt lat="45.97059" lon="6.2549">
        <ele>1549</ele>
        <time>2016-08-27T07:41:57.000Z</time>
      </trkpt>
      <trkpt lat="45.9706" lon="6.25491">
        <ele>1549</ele>
        <time>2016-08-27T07:41:58.000Z</time>
      </trkpt>
      <trkpt lat="45.97061" lon="6.25492">
        <ele>1549</ele>
        <time>2016-08-27T07:41:59.000Z</time>
      </trkpt>
      <trkpt lat="45.97063" lon="6.25493">
        <ele>1549</ele>
        <time>2016-08-27T07:42:00.000Z</time>
      </trkpt>
      <trkpt lat="45.97064" lon="6.25493">
        <ele>1549</ele>
        <time>2016-08-27T07:42:01.000Z</time>
      </trkpt>
      <trkpt lat="45.97066" lon="6.25494">
        <ele>1549</ele>
        <time>2016-08-27T07:42:02.000Z</time>
      </trkpt>
      <trkpt lat="45.97067" lon="6.25495">
        <ele>1549</ele>
        <time>2016-08-27T07:42:03.000Z</time>
      </trkpt>
      <trkpt lat="45.97068" lon="6.25496">
        <ele>1549</ele>
        <time>2016-08-27T07:42:04.000Z</time>
      </trkpt>
      <trkpt lat="45.97069" lon="6.25497">
        <ele>1549</ele>
        <time>2016-08-27T07:42:05.000Z</time>
      </trkpt>
      <trkpt lat="45.9707" lon="6.25498">
        <ele>1550</ele>
        <time>2016-08-27T07:42:06.000Z</time>
      </trkpt>
      <trkpt lat="45.97072" lon="6.25499">
        <ele>1550</ele>
        <time>2016-08-27T07:42:07.000Z</time>
      </trkpt>
      <trkpt lat="45.97073" lon="6.255">
        <ele>1550</ele>
        <time>2016-08-27T07:42:08.000Z</time>
      </trkpt>
      <trkpt lat="45.97075" lon="6.25501">
        <ele>1550</ele>
        <time>2016-08-27T07:42:09.000Z</time>
      </trkpt>
      <trkpt lat="45.97076" lon="6.25502">
        <ele>1550</ele>
        <time>2016-08-27T07:42:10.000Z</time>
      </trkpt>
      <trkpt lat="45.97077" lon="6.25503">
        <ele>1550</ele>
        <time>2016-08-27T07:42:11.000Z</time>
      </trkpt>
      <trkpt lat="45.97079" lon="6.25504">
        <ele>1551</ele>
        <time>2016-08-27T07:42:12.000Z</time>
      </trkpt>
      <trkpt lat="45.97079" lon="6.25504">
        <ele>1551</ele>
        <time>2016-08-27T07:42:13.000Z</time>
      </trkpt>
      <trkpt lat="45.9708" lon="6.25505">
        <ele>1551</ele>
        <time>2016-08-27T07:42:14.000Z</time>
      </trkpt>
      <trkpt lat="45.97081" lon="6.25505">
        <ele>1551</ele>
        <time>2016-08-27T07:42:15.000Z</time>
      </trkpt>
      <trkpt lat="45.97082" lon="6.25506">
        <ele>1551</ele>
        <time>2016-08-27T07:42:16.000Z</time>
      </trkpt>
      <trkpt lat="45.97083" lon="6.25507">
        <ele>1551</ele>
        <time>2016-08-27T07:42:17.000Z</time>
      </trkpt>
      <trkpt lat="45.97084" lon="6.25508">
        <ele>1552</ele>
        <time>2016-08-27T07:42:18.000Z</time>
      </trkpt>
      <trkpt lat="45.97085" lon="6.25509">
        <ele>1552</ele>
        <time>2016-08-27T07:42:19.000Z</time>
      </trkpt>
      <trkpt lat="45.97085" lon="6.2551">
        <ele>1552</ele>
        <time>2016-08-27T07:42:20.000Z</time>
      </trkpt>
      <trkpt lat="45.97087" lon="6.2551">
        <ele>1552</ele>
        <time>2016-08-27T07:42:21.000Z</time>
      </trkpt>
      <trkpt lat="45.97088" lon="6.25511">
        <ele>1552</ele>
        <time>2016-08-27T07:42:22.000Z</time>
      </trkpt>
      <trkpt lat="45.97089" lon="6.25512">
        <ele>1552</ele>
        <time>2016-08-27T07:42:23.000Z</time>
      </trkpt>
      <trkpt lat="45.9709" lon="6.25513">
        <ele>1552</ele>
        <time>2016-08-27T07:42:24.000Z</time>
      </trkpt>
      <trkpt lat="45.97091" lon="6.25514">
        <ele>1552</ele>
        <time>2016-08-27T07:42:25.000Z</time>
      </trkpt>
      <trkpt lat="45.97091" lon="6.25516">
        <ele>1552</ele>
        <time>2016-08-27T07:42:26.000Z</time>
      </trkpt>
      <trkpt lat="45.97092" lon="6.25517">
        <ele>1552</ele>
        <time>2016-08-27T07:42:27.000Z</time>
      </trkpt>
      <trkpt lat="45.97093" lon="6.25518">
        <ele>1553</ele>
        <time>2016-08-27T07:42:28.000Z</time>
      </trkpt>
      <trkpt lat="45.97094" lon="6.2552">
        <ele>1553</ele>
        <time>2016-08-27T07:42:29.000Z</time>
      </trkpt>
      <trkpt lat="45.97095" lon="6.25522">
        <ele>1553</ele>
        <time>2016-08-27T07:42:30.000Z</time>
      </trkpt>
      <trkpt lat="45.97096" lon="6.25523">
        <ele>1553</ele>
        <time>2016-08-27T07:42:31.000Z</time>
      </trkpt>
      <trkpt lat="45.97096" lon="6.25524">
        <ele>1554</ele>
        <time>2016-08-27T07:42:32.000Z</time>
      </trkpt>
      <trkpt lat="45.97097" lon="6.25525">
        <ele>1554</ele>
        <time>2016-08-27T07:42:33.000Z</time>
      </trkpt>
      <trkpt lat="45.97098" lon="6.25526">
        <ele>1554</ele>
        <time>2016-08-27T07:42:34.000Z</time>
      </trkpt>
      <trkpt lat="45.97099" lon="6.25527">
        <ele>1554</ele>
        <time>2016-08-27T07:42:35.000Z</time>
      </trkpt>
      <trkpt lat="45.971" lon="6.25528">
        <ele>1555</ele>
        <time>2016-08-27T07:42:36.000Z</time>
      </trkpt>
      <trkpt lat="45.971" lon="6.25528">
        <ele>1555</ele>
        <time>2016-08-27T07:42:37.000Z</time>
      </trkpt>
      <trkpt lat="45.97101" lon="6.25529">
        <ele>1555</ele>
        <time>2016-08-27T07:42:38.000Z</time>
      </trkpt>
      <trkpt lat="45.97103" lon="6.2553">
        <ele>1555</ele>
        <time>2016-08-27T07:42:39.000Z</time>
      </trkpt>
      <trkpt lat="45.97104" lon="6.25531">
        <ele>1556</ele>
        <time>2016-08-27T07:42:40.000Z</time>
      </trkpt>
      <trkpt lat="45.97105" lon="6.25532">
        <ele>1556</ele>
        <time>2016-08-27T07:42:41.000Z</time>
      </trkpt>
      <trkpt lat="45.97106" lon="6.25533">
        <ele>1556</ele>
        <time>2016-08-27T07:42:42.000Z</time>
      </trkpt>
      <trkpt lat="45.97107" lon="6.25534">
        <ele>1556</ele>
        <time>2016-08-27T07:42:43.000Z</time>
      </trkpt>
      <trkpt lat="45.97108" lon="6.25535">
        <ele>1557</ele>
        <time>2016-08-27T07:42:44.000Z</time>
      </trkpt>
      <trkpt lat="45.97109" lon="6.25536">
        <ele>1557</ele>
        <time>2016-08-27T07:42:45.000Z</time>
      </trkpt>
      <trkpt lat="45.9711" lon="6.25537">
        <ele>1557</ele>
        <time>2016-08-27T07:42:46.000Z</time>
      </trkpt>
      <trkpt lat="45.97111" lon="6.25537">
        <ele>1557</ele>
        <time>2016-08-27T07:42:47.000Z</time>
      </trkpt>
      <trkpt lat="45.97112" lon="6.25537">
        <ele>1557</ele>
        <time>2016-08-27T07:42:48.000Z</time>
      </trkpt>
      <trkpt lat="45.97113" lon="6.25537">
        <ele>1557</ele>
        <time>2016-08-27T07:42:49.000Z</time>
      </trkpt>
      <trkpt lat="45.97114" lon="6.25537">
        <ele>1557</ele>
        <time>2016-08-27T07:42:50.000Z</time>
      </trkpt>
      <trkpt lat="45.97115" lon="6.25537">
        <ele>1557</ele>
        <time>2016-08-27T07:42:51.000Z</time>
      </trkpt>
      <trkpt lat="45.97116" lon="6.25537">
        <ele>1557</ele>
        <time>2016-08-27T07:42:52.000Z</time>
      </trkpt>
      <trkpt lat="45.97117" lon="6.25537">
        <ele>1557</ele>
        <time>2016-08-27T07:42:53.000Z</time>
      </trkpt>
      <trkpt lat="45.97119" lon="6.25538">
        <ele>1557</ele>
        <time>2016-08-27T07:42:54.000Z</time>
      </trkpt>
      <trkpt lat="45.9712" lon="6.25538">
        <ele>1557</ele>
        <time>2016-08-27T07:42:55.000Z</time>
      </trkpt>
      <trkpt lat="45.97121" lon="6.25538">
        <ele>1557</ele>
        <time>2016-08-27T07:42:56.000Z</time>
      </trkpt>
      <trkpt lat="45.97122" lon="6.25538">
        <ele>1557</ele>
        <time>2016-08-27T07:42:57.000Z</time>
      </trkpt>
      <trkpt lat="45.97123" lon="6.25538">
        <ele>1557</ele>
        <time>2016-08-27T07:42:58.000Z</time>
      </trkpt>
      <trkpt lat="45.97125" lon="6.25538">
        <ele>1557</ele>
        <time>2016-08-27T07:42:59.000Z</time>
      </trkpt>
      <trkpt lat="45.97126" lon="6.25538">
        <ele>1557</ele>
        <time>2016-08-27T07:43:00.000Z</time>
      </trkpt>
      <trkpt lat="45.97127" lon="6.25539">
        <ele>1557</ele>
        <time>2016-08-27T07:43:01.000Z</time>
      </trkpt>
      <trkpt lat="45.97128" lon="6.25539">
        <ele>1557</ele>
        <time>2016-08-27T07:43:02.000Z</time>
      </trkpt>
      <trkpt lat="45.97128" lon="6.25539">
        <ele>1557</ele>
        <time>2016-08-27T07:43:03.000Z</time>
      </trkpt>
      <trkpt lat="45.97129" lon="6.25539">
        <ele>1557</ele>
        <time>2016-08-27T07:43:04.000Z</time>
      </trkpt>
      <trkpt lat="45.9713" lon="6.25539">
        <ele>1557</ele>
        <time>2016-08-27T07:43:05.000Z</time>
      </trkpt>
      <trkpt lat="45.97131" lon="6.25538">
        <ele>1557</ele>
        <time>2016-08-27T07:43:06.000Z</time>
      </trkpt>
      <trkpt lat="45.97133" lon="6.25537">
        <ele>1557</ele>
        <time>2016-08-27T07:43:07.000Z</time>
      </trkpt>
      <trkpt lat="45.97135" lon="6.25537">
        <ele>1556</ele>
        <time>2016-08-27T07:43:08.000Z</time>
      </trkpt>
      <trkpt lat="45.97137" lon="6.25537">
        <ele>1556</ele>
        <time>2016-08-27T07:43:09.000Z</time>
      </trkpt>
      <trkpt lat="45.97139" lon="6.25536">
        <ele>1556</ele>
        <time>2016-08-27T07:43:10.000Z</time>
      </trkpt>
      <trkpt lat="45.97141" lon="6.25535">
        <ele>1556</ele>
        <time>2016-08-27T07:43:11.000Z</time>
      </trkpt>
      <trkpt lat="45.97143" lon="6.25534">
        <ele>1556</ele>
        <time>2016-08-27T07:43:12.000Z</time>
      </trkpt>
      <trkpt lat="45.97146" lon="6.25534">
        <ele>1556</ele>
        <time>2016-08-27T07:43:13.000Z</time>
      </trkpt>
      <trkpt lat="45.97149" lon="6.25533">
        <ele>1556</ele>
        <time>2016-08-27T07:43:14.000Z</time>
      </trkpt>
      <trkpt lat="45.97152" lon="6.25533">
        <ele>1556</ele>
        <time>2016-08-27T07:43:15.000Z</time>
      </trkpt>
      <trkpt lat="45.97154" lon="6.25533">
        <ele>1556</ele>
        <time>2016-08-27T07:43:16.000Z</time>
      </trkpt>
      <trkpt lat="45.97157" lon="6.25534">
        <ele>1556</ele>
        <time>2016-08-27T07:43:17.000Z</time>
      </trkpt>
      <trkpt lat="45.97159" lon="6.25534">
        <ele>1556</ele>
        <time>2016-08-27T07:43:18.000Z</time>
      </trkpt>
      <trkpt lat="45.97162" lon="6.25535">
        <ele>1556</ele>
        <time>2016-08-27T07:43:19.000Z</time>
      </trkpt>
      <trkpt lat="45.97164" lon="6.25535">
        <ele>1555</ele>
        <time>2016-08-27T07:43:20.000Z</time>
      </trkpt>
      <trkpt lat="45.97167" lon="6.25536">
        <ele>1555</ele>
        <time>2016-08-27T07:43:21.000Z</time>
      </trkpt>
      <trkpt lat="45.97169" lon="6.25537">
        <ele>1555</ele>
        <time>2016-08-27T07:43:22.000Z</time>
      </trkpt>
      <trkpt lat="45.97171" lon="6.25538">
        <ele>1555</ele>
        <time>2016-08-27T07:43:23.000Z</time>
      </trkpt>
      <trkpt lat="45.97173" lon="6.25539">
        <ele>1555</ele>
        <time>2016-08-27T07:43:24.000Z</time>
      </trkpt>
      <trkpt lat="45.97175" lon="6.2554">
        <ele>1555</ele>
        <time>2016-08-27T07:43:25.000Z</time>
      </trkpt>
      <trkpt lat="45.97177" lon="6.25541">
        <ele>1554</ele>
        <time>2016-08-27T07:43:26.000Z</time>
      </trkpt>
      <trkpt lat="45.97179" lon="6.25542">
        <ele>1554</ele>
        <time>2016-08-27T07:43:27.000Z</time>
      </trkpt>
      <trkpt lat="45.9718" lon="6.25543">
        <ele>1554</ele>
        <time>2016-08-27T07:43:28.000Z</time>
      </trkpt>
      <trkpt lat="45.9718" lon="6.25544">
        <ele>1554</ele>
        <time>2016-08-27T07:43:29.000Z</time>
      </trkpt>
      <trkpt lat="45.97179" lon="6.25546">
        <ele>1553</ele>
        <time>2016-08-27T07:43:30.000Z</time>
      </trkpt>
      <trkpt lat="45.97178" lon="6.25548">
        <ele>1553</ele>
        <time>2016-08-27T07:43:31.000Z</time>
      </trkpt>
      <trkpt lat="45.97176" lon="6.2555">
        <ele>1552</ele>
        <time>2016-08-27T07:43:32.000Z</time>
      </trkpt>
      <trkpt lat="45.97174" lon="6.25551">
        <ele>1552</ele>
        <time>2016-08-27T07:43:33.000Z</time>
      </trkpt>
      <trkpt lat="45.97172" lon="6.25553">
        <ele>1551</ele>
        <time>2016-08-27T07:43:34.000Z</time>
      </trkpt>
      <trkpt lat="45.9717" lon="6.25554">
        <ele>1551</ele>
        <time>2016-08-27T07:43:35.000Z</time>
      </trkpt>
      <trkpt lat="45.97168" lon="6.25555">
        <ele>1550</ele>
        <time>2016-08-27T07:43:36.000Z</time>
      </trkpt>
      <trkpt lat="45.97167" lon="6.25557">
        <ele>1550</ele>
        <time>2016-08-27T07:43:37.000Z</time>
      </trkpt>
      <trkpt lat="45.97166" lon="6.25558">
        <ele>1549</ele>
        <time>2016-08-27T07:43:38.000Z</time>
      </trkpt>
      <trkpt lat="45.97164" lon="6.2556">
        <ele>1549</ele>
        <time>2016-08-27T07:43:39.000Z</time>
      </trkpt>
      <trkpt lat="45.97162" lon="6.25562">
        <ele>1548</ele>
        <time>2016-08-27T07:43:40.000Z</time>
      </trkpt>
      <trkpt lat="45.97161" lon="6.25564">
        <ele>1548</ele>
        <time>2016-08-27T07:43:41.000Z</time>
      </trkpt>
      <trkpt lat="45.9716" lon="6.25566">
        <ele>1547</ele>
        <time>2016-08-27T07:43:42.000Z</time>
      </trkpt>
      <trkpt lat="45.97158" lon="6.25567">
        <ele>1547</ele>
        <time>2016-08-27T07:43:43.000Z</time>
      </trkpt>
      <trkpt lat="45.97158" lon="6.25568">
        <ele>1546</ele>
        <time>2016-08-27T07:43:44.000Z</time>
      </trkpt>
      <trkpt lat="45.97157" lon="6.25569">
        <ele>1546</ele>
        <time>2016-08-27T07:43:45.000Z</time>
      </trkpt>
      <trkpt lat="45.97157" lon="6.2557">
        <ele>1545</ele>
        <time>2016-08-27T07:43:46.000Z</time>
      </trkpt>
      <trkpt lat="45.97157" lon="6.25571">
        <ele>1545</ele>
        <time>2016-08-27T07:43:47.000Z</time>
      </trkpt>
      <trkpt lat="45.97158" lon="6.25572">
        <ele>1544</ele>
        <time>2016-08-27T07:43:48.000Z</time>
      </trkpt>
      <trkpt lat="45.97159" lon="6.25573">
        <ele>1544</ele>
        <time>2016-08-27T07:43:49.000Z</time>
      </trkpt>
      <trkpt lat="45.9716" lon="6.25573">
        <ele>1543</ele>
        <time>2016-08-27T07:43:50.000Z</time>
      </trkpt>
      <trkpt lat="45.97161" lon="6.25573">
        <ele>1543</ele>
        <time>2016-08-27T07:43:51.000Z</time>
      </trkpt>
      <trkpt lat="45.97162" lon="6.25573">
        <ele>1542</ele>
        <time>2016-08-27T07:43:52.000Z</time>
      </trkpt>
      <trkpt lat="45.97163" lon="6.25573">
        <ele>1542</ele>
        <time>2016-08-27T07:43:53.000Z</time>
      </trkpt>
      <trkpt lat="45.97164" lon="6.25572">
        <ele>1541</ele>
        <time>2016-08-27T07:43:54.000Z</time>
      </trkpt>
      <trkpt lat="45.97165" lon="6.25572">
        <ele>1541</ele>
        <time>2016-08-27T07:43:55.000Z</time>
      </trkpt>
      <trkpt lat="45.97166" lon="6.25572">
        <ele>1540</ele>
        <time>2016-08-27T07:43:56.000Z</time>
      </trkpt>
      <trkpt lat="45.97167" lon="6.25572">
        <ele>1540</ele>
        <time>2016-08-27T07:43:57.000Z</time>
      </trkpt>
      <trkpt lat="45.97169" lon="6.25572">
        <ele>1539</ele>
        <time>2016-08-27T07:43:58.000Z</time>
      </trkpt>
      <trkpt lat="45.9717" lon="6.25573">
        <ele>1539</ele>
        <time>2016-08-27T07:43:59.000Z</time>
      </trkpt>
      <trkpt lat="45.97172" lon="6.25573">
        <ele>1538</ele>
        <time>2016-08-27T07:44:00.000Z</time>
      </trkpt>
      <trkpt lat="45.97173" lon="6.25574">
        <ele>1538</ele>
        <time>2016-08-27T07:44:01.000Z</time>
      </trkpt>
      <trkpt lat="45.97175" lon="6.25574">
        <ele>1537</ele>
        <time>2016-08-27T07:44:02.000Z</time>
      </trkpt>
      <trkpt lat="45.97176" lon="6.25574">
        <ele>1537</ele>
        <time>2016-08-27T07:44:03.000Z</time>
      </trkpt>
      <trkpt lat="45.97178" lon="6.25575">
        <ele>1537</ele>
        <time>2016-08-27T07:44:04.000Z</time>
      </trkpt>
      <trkpt lat="45.9718" lon="6.25576">
        <ele>1537</ele>
        <time>2016-08-27T07:44:05.000Z</time>
      </trkpt>
      <trkpt lat="45.97181" lon="6.25576">
        <ele>1536</ele>
        <time>2016-08-27T07:44:06.000Z</time>
      </trkpt>
      <trkpt lat="45.97183" lon="6.25577">
        <ele>1536</ele>
        <time>2016-08-27T07:44:07.000Z</time>
      </trkpt>
      <trkpt lat="45.97185" lon="6.25578">
        <ele>1536</ele>
        <time>2016-08-27T07:44:08.000Z</time>
      </trkpt>
      <trkpt lat="45.97186" lon="6.25579">
        <ele>1536</ele>
        <time>2016-08-27T07:44:09.000Z</time>
      </trkpt>
      <trkpt lat="45.97188" lon="6.2558">
        <ele>1536</ele>
        <time>2016-08-27T07:44:10.000Z</time>
      </trkpt>
      <trkpt lat="45.9719" lon="6.2558">
        <ele>1536</ele>
        <time>2016-08-27T07:44:11.000Z</time>
      </trkpt>
      <trkpt lat="45.97193" lon="6.25581">
        <ele>1536</ele>
        <time>2016-08-27T07:44:12.000Z</time>
      </trkpt>
      <trkpt lat="45.97195" lon="6.25582">
        <ele>1536</ele>
        <time>2016-08-27T07:44:13.000Z</time>
      </trkpt>
      <trkpt lat="45.97197" lon="6.25582">
        <ele>1535</ele>
        <time>2016-08-27T07:44:14.000Z</time>
      </trkpt>
      <trkpt lat="45.97199" lon="6.25582">
        <ele>1535</ele>
        <time>2016-08-27T07:44:15.000Z</time>
      </trkpt>
      <trkpt lat="45.97201" lon="6.25582">
        <ele>1535</ele>
        <time>2016-08-27T07:44:16.000Z</time>
      </trkpt>
      <trkpt lat="45.97202" lon="6.25583">
        <ele>1535</ele>
        <time>2016-08-27T07:44:17.000Z</time>
      </trkpt>
      <trkpt lat="45.97203" lon="6.25583">
        <ele>1535</ele>
        <time>2016-08-27T07:44:18.000Z</time>
      </trkpt>
      <trkpt lat="45.97204" lon="6.25583">
        <ele>1535</ele>
        <time>2016-08-27T07:44:19.000Z</time>
      </trkpt>
      <trkpt lat="45.97206" lon="6.25584">
        <ele>1535</ele>
        <time>2016-08-27T07:44:20.000Z</time>
      </trkpt>
      <trkpt lat="45.97208" lon="6.25584">
        <ele>1535</ele>
        <time>2016-08-27T07:44:21.000Z</time>
      </trkpt>
      <trkpt lat="45.9721" lon="6.25585">
        <ele>1535</ele>
        <time>2016-08-27T07:44:22.000Z</time>
      </trkpt>
      <trkpt lat="45.97212" lon="6.25585">
        <ele>1535</ele>
        <time>2016-08-27T07:44:23.000Z</time>
      </trkpt>
      <trkpt lat="45.97215" lon="6.25585">
        <ele>1535</ele>
        <time>2016-08-27T07:44:24.000Z</time>
      </trkpt>
      <trkpt lat="45.97217" lon="6.25586">
        <ele>1535</ele>
        <time>2016-08-27T07:44:25.000Z</time>
      </trkpt>
      <trkpt lat="45.97219" lon="6.25586">
        <ele>1535</ele>
        <time>2016-08-27T07:44:26.000Z</time>
      </trkpt>
      <trkpt lat="45.97221" lon="6.25586">
        <ele>1535</ele>
        <time>2016-08-27T07:44:27.000Z</time>
      </trkpt>
      <trkpt lat="45.97223" lon="6.25587">
        <ele>1535</ele>
        <time>2016-08-27T07:44:28.000Z</time>
      </trkpt>
      <trkpt lat="45.97225" lon="6.25587">
        <ele>1535</ele>
        <time>2016-08-27T07:44:29.000Z</time>
      </trkpt>
      <trkpt lat="45.97227" lon="6.25586">
        <ele>1535</ele>
        <time>2016-08-27T07:44:30.000Z</time>
      </trkpt>
      <trkpt lat="45.97229" lon="6.25586">
        <ele>1535</ele>
        <time>2016-08-27T07:44:31.000Z</time>
      </trkpt>
      <trkpt lat="45.97231" lon="6.25586">
        <ele>1535</ele>
        <time>2016-08-27T07:44:32.000Z</time>
      </trkpt>
      <trkpt lat="45.97234" lon="6.25586">
        <ele>1535</ele>
        <time>2016-08-27T07:44:33.000Z</time>
      </trkpt>
      <trkpt lat="45.97236" lon="6.25586">
        <ele>1535</ele>
        <time>2016-08-27T07:44:34.000Z</time>
      </trkpt>
      <trkpt lat="45.97239" lon="6.25587">
        <ele>1535</ele>
        <time>2016-08-27T07:44:35.000Z</time>
      </trkpt>
      <trkpt lat="45.97241" lon="6.25587">
        <ele>1535</ele>
        <time>2016-08-27T07:44:36.000Z</time>
      </trkpt>
      <trkpt lat="45.97242" lon="6.25588">
        <ele>1535</ele>
        <time>2016-08-27T07:44:37.000Z</time>
      </trkpt>
      <trkpt lat="45.97244" lon="6.25588">
        <ele>1535</ele>
        <time>2016-08-27T07:44:38.000Z</time>
      </trkpt>
      <trkpt lat="45.97246" lon="6.25588">
        <ele>1535</ele>
        <time>2016-08-27T07:44:39.000Z</time>
      </trkpt>
      <trkpt lat="45.97247" lon="6.25588">
        <ele>1534</ele>
        <time>2016-08-27T07:44:40.000Z</time>
      </trkpt>
      <trkpt lat="45.97249" lon="6.25588">
        <ele>1534</ele>
        <time>2016-08-27T07:44:41.000Z</time>
      </trkpt>
      <trkpt lat="45.97252" lon="6.25589">
        <ele>1534</ele>
        <time>2016-08-27T07:44:42.000Z</time>
      </trkpt>
      <trkpt lat="45.97254" lon="6.25589">
        <ele>1534</ele>
        <time>2016-08-27T07:44:43.000Z</time>
      </trkpt>
      <trkpt lat="45.97256" lon="6.25589">
        <ele>1534</ele>
        <time>2016-08-27T07:44:44.000Z</time>
      </trkpt>
      <trkpt lat="45.97258" lon="6.25588">
        <ele>1534</ele>
        <time>2016-08-27T07:44:45.000Z</time>
      </trkpt>
      <trkpt lat="45.9726" lon="6.25588">
        <ele>1534</ele>
        <time>2016-08-27T07:44:46.000Z</time>
      </trkpt>
      <trkpt lat="45.97262" lon="6.25588">
        <ele>1534</ele>
        <time>2016-08-27T07:44:47.000Z</time>
      </trkpt>
      <trkpt lat="45.97263" lon="6.25588">
        <ele>1533</ele>
        <time>2016-08-27T07:44:48.000Z</time>
      </trkpt>
      <trkpt lat="45.97265" lon="6.25588">
        <ele>1533</ele>
        <time>2016-08-27T07:44:49.000Z</time>
      </trkpt>
      <trkpt lat="45.97266" lon="6.25588">
        <ele>1533</ele>
        <time>2016-08-27T07:44:50.000Z</time>
      </trkpt>
      <trkpt lat="45.97267" lon="6.25588">
        <ele>1533</ele>
        <time>2016-08-27T07:44:51.000Z</time>
      </trkpt>
      <trkpt lat="45.97268" lon="6.25588">
        <ele>1533</ele>
        <time>2016-08-27T07:44:52.000Z</time>
      </trkpt>
      <trkpt lat="45.97269" lon="6.25588">
        <ele>1533</ele>
        <time>2016-08-27T07:44:53.000Z</time>
      </trkpt>
      <trkpt lat="45.9727" lon="6.25588">
        <ele>1532</ele>
        <time>2016-08-27T07:44:54.000Z</time>
      </trkpt>
      <trkpt lat="45.97272" lon="6.25588">
        <ele>1532</ele>
        <time>2016-08-27T07:44:55.000Z</time>
      </trkpt>
      <trkpt lat="45.97273" lon="6.25588">
        <ele>1532</ele>
        <time>2016-08-27T07:44:56.000Z</time>
      </trkpt>
      <trkpt lat="45.97275" lon="6.25587">
        <ele>1532</ele>
        <time>2016-08-27T07:44:57.000Z</time>
      </trkpt>
      <trkpt lat="45.97276" lon="6.25587">
        <ele>1531</ele>
        <time>2016-08-27T07:44:58.000Z</time>
      </trkpt>
      <trkpt lat="45.97278" lon="6.25588">
        <ele>1531</ele>
        <time>2016-08-27T07:44:59.000Z</time>
      </trkpt>
      <trkpt lat="45.9728" lon="6.25588">
        <ele>1531</ele>
        <time>2016-08-27T07:45:00.000Z</time>
      </trkpt>
      <trkpt lat="45.97282" lon="6.25588">
        <ele>1531</ele>
        <time>2016-08-27T07:45:01.000Z</time>
      </trkpt>
      <trkpt lat="45.97284" lon="6.25588">
        <ele>1531</ele>
        <time>2016-08-27T07:45:02.000Z</time>
      </trkpt>
      <trkpt lat="45.97285" lon="6.25588">
        <ele>1531</ele>
        <time>2016-08-27T07:45:03.000Z</time>
      </trkpt>
      <trkpt lat="45.97287" lon="6.25588">
        <ele>1530</ele>
        <time>2016-08-27T07:45:04.000Z</time>
      </trkpt>
      <trkpt lat="45.97289" lon="6.25588">
        <ele>1530</ele>
        <time>2016-08-27T07:45:05.000Z</time>
      </trkpt>
      <trkpt lat="45.97291" lon="6.25588">
        <ele>1530</ele>
        <time>2016-08-27T07:45:06.000Z</time>
      </trkpt>
      <trkpt lat="45.97292" lon="6.25588">
        <ele>1530</ele>
        <time>2016-08-27T07:45:07.000Z</time>
      </trkpt>
      <trkpt lat="45.97294" lon="6.25588">
        <ele>1530</ele>
        <time>2016-08-27T07:45:08.000Z</time>
      </trkpt>
      <trkpt lat="45.97296" lon="6.25587">
        <ele>1530</ele>
        <time>2016-08-27T07:45:09.000Z</time>
      </trkpt>
      <trkpt lat="45.97298" lon="6.25586">
        <ele>1529</ele>
        <time>2016-08-27T07:45:10.000Z</time>
      </trkpt>
      <trkpt lat="45.97299" lon="6.25586">
        <ele>1529</ele>
        <time>2016-08-27T07:45:11.000Z</time>
      </trkpt>
      <trkpt lat="45.97301" lon="6.25585">
        <ele>1529</ele>
        <time>2016-08-27T07:45:12.000Z</time>
      </trkpt>
      <trkpt lat="45.97302" lon="6.25584">
        <ele>1529</ele>
        <time>2016-08-27T07:45:13.000Z</time>
      </trkpt>
      <trkpt lat="45.97303" lon="6.25584">
        <ele>1528</ele>
        <time>2016-08-27T07:45:14.000Z</time>
      </trkpt>
      <trkpt lat="45.97305" lon="6.25584">
        <ele>1528</ele>
        <time>2016-08-27T07:45:15.000Z</time>
      </trkpt>
      <trkpt lat="45.97306" lon="6.25583">
        <ele>1528</ele>
        <time>2016-08-27T07:45:16.000Z</time>
      </trkpt>
      <trkpt lat="45.97308" lon="6.25583">
        <ele>1528</ele>
        <time>2016-08-27T07:45:17.000Z</time>
      </trkpt>
      <trkpt lat="45.97309" lon="6.25582">
        <ele>1527</ele>
        <time>2016-08-27T07:45:18.000Z</time>
      </trkpt>
      <trkpt lat="45.97309" lon="6.25582">
        <ele>1527</ele>
        <time>2016-08-27T07:45:19.000Z</time>
      </trkpt>
      <trkpt lat="45.97311" lon="6.25581">
        <ele>1526</ele>
        <time>2016-08-27T07:45:20.000Z</time>
      </trkpt>
      <trkpt lat="45.97312" lon="6.25581">
        <ele>1526</ele>
        <time>2016-08-27T07:45:21.000Z</time>
      </trkpt>
      <trkpt lat="45.97313" lon="6.25581">
        <ele>1526</ele>
        <time>2016-08-27T07:45:22.000Z</time>
      </trkpt>
      <trkpt lat="45.97315" lon="6.25581">
        <ele>1526</ele>
        <time>2016-08-27T07:45:23.000Z</time>
      </trkpt>
      <trkpt lat="45.97317" lon="6.25581">
        <ele>1525</ele>
        <time>2016-08-27T07:45:24.000Z</time>
      </trkpt>
      <trkpt lat="45.97319" lon="6.25581">
        <ele>1525</ele>
        <time>2016-08-27T07:45:25.000Z</time>
      </trkpt>
      <trkpt lat="45.97321" lon="6.25582">
        <ele>1524</ele>
        <time>2016-08-27T07:45:26.000Z</time>
      </trkpt>
      <trkpt lat="45.97322" lon="6.25581">
        <ele>1524</ele>
        <time>2016-08-27T07:45:27.000Z</time>
      </trkpt>
      <trkpt lat="45.97324" lon="6.25581">
        <ele>1523</ele>
        <time>2016-08-27T07:45:28.000Z</time>
      </trkpt>
      <trkpt lat="45.97325" lon="6.25581">
        <ele>1523</ele>
        <time>2016-08-27T07:45:29.000Z</time>
      </trkpt>
      <trkpt lat="45.97325" lon="6.25581">
        <ele>1523</ele>
        <time>2016-08-27T07:45:30.000Z</time>
      </trkpt>
      <trkpt lat="45.97325" lon="6.25581">
        <ele>1523</ele>
        <time>2016-08-27T07:45:31.000Z</time>
      </trkpt>
      <trkpt lat="45.97324" lon="6.25581">
        <ele>1522</ele>
        <time>2016-08-27T07:45:32.000Z</time>
      </trkpt>
      <trkpt lat="45.97324" lon="6.25581">
        <ele>1522</ele>
        <time>2016-08-27T07:45:33.000Z</time>
      </trkpt>
      <trkpt lat="45.97324" lon="6.25582">
        <ele>1521</ele>
        <time>2016-08-27T07:45:34.000Z</time>
      </trkpt>
      <trkpt lat="45.97325" lon="6.25582">
        <ele>1521</ele>
        <time>2016-08-27T07:45:35.000Z</time>
      </trkpt>
      <trkpt lat="45.97325" lon="6.25583">
        <ele>1520</ele>
        <time>2016-08-27T07:45:36.000Z</time>
      </trkpt>
      <trkpt lat="45.97325" lon="6.25584">
        <ele>1520</ele>
        <time>2016-08-27T07:45:37.000Z</time>
      </trkpt>
      <trkpt lat="45.97324" lon="6.25585">
        <ele>1518</ele>
        <time>2016-08-27T07:45:38.000Z</time>
      </trkpt>
      <trkpt lat="45.97323" lon="6.25586">
        <ele>1518</ele>
        <time>2016-08-27T07:45:39.000Z</time>
      </trkpt>
      <trkpt lat="45.97323" lon="6.25588">
        <ele>1517</ele>
        <time>2016-08-27T07:45:40.000Z</time>
      </trkpt>
      <trkpt lat="45.97322" lon="6.25589">
        <ele>1517</ele>
        <time>2016-08-27T07:45:41.000Z</time>
      </trkpt>
      <trkpt lat="45.97322" lon="6.25591">
        <ele>1515</ele>
        <time>2016-08-27T07:45:42.000Z</time>
      </trkpt>
      <trkpt lat="45.97321" lon="6.25593">
        <ele>1515</ele>
        <time>2016-08-27T07:45:43.000Z</time>
      </trkpt>
      <trkpt lat="45.97321" lon="6.25595">
        <ele>1514</ele>
        <time>2016-08-27T07:45:44.000Z</time>
      </trkpt>
      <trkpt lat="45.97321" lon="6.25597">
        <ele>1514</ele>
        <time>2016-08-27T07:45:45.000Z</time>
      </trkpt>
      <trkpt lat="45.97321" lon="6.25598">
        <ele>1513</ele>
        <time>2016-08-27T07:45:46.000Z</time>
      </trkpt>
      <trkpt lat="45.97321" lon="6.256">
        <ele>1513</ele>
        <time>2016-08-27T07:45:47.000Z</time>
      </trkpt>
      <trkpt lat="45.97321" lon="6.25602">
        <ele>1512</ele>
        <time>2016-08-27T07:45:48.000Z</time>
      </trkpt>
      <trkpt lat="45.97321" lon="6.25604">
        <ele>1512</ele>
        <time>2016-08-27T07:45:49.000Z</time>
      </trkpt>
      <trkpt lat="45.97321" lon="6.25605">
        <ele>1511</ele>
        <time>2016-08-27T07:45:50.000Z</time>
      </trkpt>
      <trkpt lat="45.97321" lon="6.25607">
        <ele>1511</ele>
        <time>2016-08-27T07:45:51.000Z</time>
      </trkpt>
      <trkpt lat="45.97321" lon="6.25608">
        <ele>1510</ele>
        <time>2016-08-27T07:45:52.000Z</time>
      </trkpt>
      <trkpt lat="45.9732" lon="6.2561">
        <ele>1510</ele>
        <time>2016-08-27T07:45:53.000Z</time>
      </trkpt>
      <trkpt lat="45.9732" lon="6.25611">
        <ele>1509</ele>
        <time>2016-08-27T07:45:54.000Z</time>
      </trkpt>
      <trkpt lat="45.9732" lon="6.25612">
        <ele>1509</ele>
        <time>2016-08-27T07:45:55.000Z</time>
      </trkpt>
      <trkpt lat="45.97319" lon="6.25613">
        <ele>1508</ele>
        <time>2016-08-27T07:45:56.000Z</time>
      </trkpt>
      <trkpt lat="45.97319" lon="6.25614">
        <ele>1508</ele>
        <time>2016-08-27T07:45:57.000Z</time>
      </trkpt>
      <trkpt lat="45.97319" lon="6.25614">
        <ele>1507</ele>
        <time>2016-08-27T07:45:58.000Z</time>
      </trkpt>
      <trkpt lat="45.97319" lon="6.25614">
        <ele>1507</ele>
        <time>2016-08-27T07:45:59.000Z</time>
      </trkpt>
      <trkpt lat="45.97319" lon="6.25615">
        <ele>1506</ele>
        <time>2016-08-27T07:46:00.000Z</time>
      </trkpt>
      <trkpt lat="45.9732" lon="6.25615">
        <ele>1506</ele>
        <time>2016-08-27T07:46:01.000Z</time>
      </trkpt>
      <trkpt lat="45.9732" lon="6.25615">
        <ele>1505</ele>
        <time>2016-08-27T07:46:02.000Z</time>
      </trkpt>
      <trkpt lat="45.9732" lon="6.25615">
        <ele>1505</ele>
        <time>2016-08-27T07:46:03.000Z</time>
      </trkpt>
      <trkpt lat="45.97321" lon="6.25614">
        <ele>1504</ele>
        <time>2016-08-27T07:46:04.000Z</time>
      </trkpt>
      <trkpt lat="45.97321" lon="6.25614">
        <ele>1504</ele>
        <time>2016-08-27T07:46:05.000Z</time>
      </trkpt>
      <trkpt lat="45.97322" lon="6.25613">
        <ele>1503</ele>
        <time>2016-08-27T07:46:06.000Z</time>
      </trkpt>
      <trkpt lat="45.97323" lon="6.25612">
        <ele>1503</ele>
        <time>2016-08-27T07:46:07.000Z</time>
      </trkpt>
      <trkpt lat="45.97324" lon="6.25611">
        <ele>1503</ele>
        <time>2016-08-27T07:46:08.000Z</time>
      </trkpt>
      <trkpt lat="45.97325" lon="6.2561">
        <ele>1503</ele>
        <time>2016-08-27T07:46:09.000Z</time>
      </trkpt>
      <trkpt lat="45.97326" lon="6.25608">
        <ele>1502</ele>
        <time>2016-08-27T07:46:10.000Z</time>
      </trkpt>
      <trkpt lat="45.97327" lon="6.25607">
        <ele>1502</ele>
        <time>2016-08-27T07:46:11.000Z</time>
      </trkpt>
      <trkpt lat="45.97328" lon="6.25605">
        <ele>1502</ele>
        <time>2016-08-27T07:46:12.000Z</time>
      </trkpt>
      <trkpt lat="45.97329" lon="6.25603">
        <ele>1502</ele>
        <time>2016-08-27T07:46:13.000Z</time>
      </trkpt>
      <trkpt lat="45.97331" lon="6.25601">
        <ele>1501</ele>
        <time>2016-08-27T07:46:14.000Z</time>
      </trkpt>
      <trkpt lat="45.97332" lon="6.25599">
        <ele>1501</ele>
        <time>2016-08-27T07:46:15.000Z</time>
      </trkpt>
      <trkpt lat="45.97334" lon="6.25598">
        <ele>1501</ele>
        <time>2016-08-27T07:46:16.000Z</time>
      </trkpt>
      <trkpt lat="45.97337" lon="6.25596">
        <ele>1501</ele>
        <time>2016-08-27T07:46:17.000Z</time>
      </trkpt>
      <trkpt lat="45.97339" lon="6.25594">
        <ele>1501</ele>
        <time>2016-08-27T07:46:18.000Z</time>
      </trkpt>
      <trkpt lat="45.97342" lon="6.25592">
        <ele>1501</ele>
        <time>2016-08-27T07:46:19.000Z</time>
      </trkpt>
      <trkpt lat="45.97345" lon="6.2559">
        <ele>1501</ele>
        <time>2016-08-27T07:46:20.000Z</time>
      </trkpt>
      <trkpt lat="45.97348" lon="6.25588">
        <ele>1501</ele>
        <time>2016-08-27T07:46:21.000Z</time>
      </trkpt>
      <trkpt lat="45.97352" lon="6.25586">
        <ele>1500</ele>
        <time>2016-08-27T07:46:22.000Z</time>
      </trkpt>
      <trkpt lat="45.97355" lon="6.25584">
        <ele>1500</ele>
        <time>2016-08-27T07:46:23.000Z</time>
      </trkpt>
      <trkpt lat="45.97358" lon="6.25581">
        <ele>1500</ele>
        <time>2016-08-27T07:46:24.000Z</time>
      </trkpt>
      <trkpt lat="45.97361" lon="6.2558">
        <ele>1500</ele>
        <time>2016-08-27T07:46:25.000Z</time>
      </trkpt>
      <trkpt lat="45.97364" lon="6.25578">
        <ele>1500</ele>
        <time>2016-08-27T07:46:26.000Z</time>
      </trkpt>
      <trkpt lat="45.97367" lon="6.25576">
        <ele>1500</ele>
        <time>2016-08-27T07:46:27.000Z</time>
      </trkpt>
      <trkpt lat="45.9737" lon="6.25574">
        <ele>1500</ele>
        <time>2016-08-27T07:46:28.000Z</time>
      </trkpt>
      <trkpt lat="45.97373" lon="6.25573">
        <ele>1500</ele>
        <time>2016-08-27T07:46:29.000Z</time>
      </trkpt>
      <trkpt lat="45.97376" lon="6.25572">
        <ele>1500</ele>
        <time>2016-08-27T07:46:30.000Z</time>
      </trkpt>
      <trkpt lat="45.97378" lon="6.25571">
        <ele>1500</ele>
        <time>2016-08-27T07:46:31.000Z</time>
      </trkpt>
      <trkpt lat="45.9738" lon="6.25569">
        <ele>1500</ele>
        <time>2016-08-27T07:46:32.000Z</time>
      </trkpt>
      <trkpt lat="45.97382" lon="6.25568">
        <ele>1500</ele>
        <time>2016-08-27T07:46:33.000Z</time>
      </trkpt>
      <trkpt lat="45.97385" lon="6.25566">
        <ele>1500</ele>
        <time>2016-08-27T07:46:34.000Z</time>
      </trkpt>
      <trkpt lat="45.97387" lon="6.25565">
        <ele>1500</ele>
        <time>2016-08-27T07:46:35.000Z</time>
      </trkpt>
      <trkpt lat="45.9739" lon="6.25563">
        <ele>1500</ele>
        <time>2016-08-27T07:46:36.000Z</time>
      </trkpt>
      <trkpt lat="45.97392" lon="6.25562">
        <ele>1500</ele>
        <time>2016-08-27T07:46:37.000Z</time>
      </trkpt>
      <trkpt lat="45.97394" lon="6.25561">
        <ele>1500</ele>
        <time>2016-08-27T07:46:38.000Z</time>
      </trkpt>
      <trkpt lat="45.97396" lon="6.25561">
        <ele>1500</ele>
        <time>2016-08-27T07:46:39.000Z</time>
      </trkpt>
      <trkpt lat="45.97397" lon="6.2556">
        <ele>1500</ele>
        <time>2016-08-27T07:46:40.000Z</time>
      </trkpt>
      <trkpt lat="45.97399" lon="6.25558">
        <ele>1500</ele>
        <time>2016-08-27T07:46:41.000Z</time>
      </trkpt>
      <trkpt lat="45.974" lon="6.25557">
        <ele>1500</ele>
        <time>2016-08-27T07:46:42.000Z</time>
      </trkpt>
      <trkpt lat="45.97401" lon="6.25554">
        <ele>1500</ele>
        <time>2016-08-27T07:46:43.000Z</time>
      </trkpt>
      <trkpt lat="45.97403" lon="6.25552">
        <ele>1499</ele>
        <time>2016-08-27T07:46:44.000Z</time>
      </trkpt>
      <trkpt lat="45.97404" lon="6.25549">
        <ele>1499</ele>
        <time>2016-08-27T07:46:45.000Z</time>
      </trkpt>
      <trkpt lat="45.97406" lon="6.25546">
        <ele>1499</ele>
        <time>2016-08-27T07:46:46.000Z</time>
      </trkpt>
      <trkpt lat="45.97408" lon="6.25544">
        <ele>1499</ele>
        <time>2016-08-27T07:46:47.000Z</time>
      </trkpt>
      <trkpt lat="45.9741" lon="6.25542">
        <ele>1499</ele>
        <time>2016-08-27T07:46:48.000Z</time>
      </trkpt>
      <trkpt lat="45.97412" lon="6.2554">
        <ele>1499</ele>
        <time>2016-08-27T07:46:49.000Z</time>
      </trkpt>
      <trkpt lat="45.97415" lon="6.25538">
        <ele>1498</ele>
        <time>2016-08-27T07:46:50.000Z</time>
      </trkpt>
      <trkpt lat="45.97417" lon="6.25536">
        <ele>1498</ele>
        <time>2016-08-27T07:46:51.000Z</time>
      </trkpt>
      <trkpt lat="45.97419" lon="6.25533">
        <ele>1498</ele>
        <time>2016-08-27T07:46:52.000Z</time>
      </trkpt>
      <trkpt lat="45.97421" lon="6.25531">
        <ele>1498</ele>
        <time>2016-08-27T07:46:53.000Z</time>
      </trkpt>
      <trkpt lat="45.97423" lon="6.25529">
        <ele>1497</ele>
        <time>2016-08-27T07:46:54.000Z</time>
      </trkpt>
      <trkpt lat="45.97425" lon="6.25527">
        <ele>1497</ele>
        <time>2016-08-27T07:46:55.000Z</time>
      </trkpt>
      <trkpt lat="45.97427" lon="6.25526">
        <ele>1496</ele>
        <time>2016-08-27T07:46:56.000Z</time>
      </trkpt>
      <trkpt lat="45.97429" lon="6.25524">
        <ele>1496</ele>
        <time>2016-08-27T07:46:57.000Z</time>
      </trkpt>
      <trkpt lat="45.97432" lon="6.25522">
        <ele>1495</ele>
        <time>2016-08-27T07:46:58.000Z</time>
      </trkpt>
      <trkpt lat="45.97434" lon="6.2552">
        <ele>1495</ele>
        <time>2016-08-27T07:46:59.000Z</time>
      </trkpt>
      <trkpt lat="45.97436" lon="6.25518">
        <ele>1495</ele>
        <time>2016-08-27T07:47:00.000Z</time>
      </trkpt>
      <trkpt lat="45.97439" lon="6.25517">
        <ele>1495</ele>
        <time>2016-08-27T07:47:01.000Z</time>
      </trkpt>
      <trkpt lat="45.97442" lon="6.25515">
        <ele>1494</ele>
        <time>2016-08-27T07:47:02.000Z</time>
      </trkpt>
      <trkpt lat="45.97444" lon="6.25514">
        <ele>1494</ele>
        <time>2016-08-27T07:47:03.000Z</time>
      </trkpt>
      <trkpt lat="45.97446" lon="6.25514">
        <ele>1493</ele>
        <time>2016-08-27T07:47:04.000Z</time>
      </trkpt>
      <trkpt lat="45.97448" lon="6.25513">
        <ele>1493</ele>
        <time>2016-08-27T07:47:05.000Z</time>
      </trkpt>
      <trkpt lat="45.9745" lon="6.25513">
        <ele>1492</ele>
        <time>2016-08-27T07:47:06.000Z</time>
      </trkpt>
      <trkpt lat="45.97451" lon="6.25513">
        <ele>1492</ele>
        <time>2016-08-27T07:47:07.000Z</time>
      </trkpt>
      <trkpt lat="45.97452" lon="6.25514">
        <ele>1491</ele>
        <time>2016-08-27T07:47:08.000Z</time>
      </trkpt>
      <trkpt lat="45.97453" lon="6.25515">
        <ele>1491</ele>
        <time>2016-08-27T07:47:09.000Z</time>
      </trkpt>
      <trkpt lat="45.97455" lon="6.25516">
        <ele>1490</ele>
        <time>2016-08-27T07:47:10.000Z</time>
      </trkpt>
      <trkpt lat="45.97456" lon="6.25517">
        <ele>1490</ele>
        <time>2016-08-27T07:47:11.000Z</time>
      </trkpt>
      <trkpt lat="45.97457" lon="6.25518">
        <ele>1489</ele>
        <time>2016-08-27T07:47:12.000Z</time>
      </trkpt>
      <trkpt lat="45.97458" lon="6.25519">
        <ele>1489</ele>
        <time>2016-08-27T07:47:13.000Z</time>
      </trkpt>
      <trkpt lat="45.97459" lon="6.25519">
        <ele>1488</ele>
        <time>2016-08-27T07:47:14.000Z</time>
      </trkpt>
      <trkpt lat="45.9746" lon="6.2552">
        <ele>1488</ele>
        <time>2016-08-27T07:47:15.000Z</time>
      </trkpt>
      <trkpt lat="45.9746" lon="6.25521">
        <ele>1487</ele>
        <time>2016-08-27T07:47:16.000Z</time>
      </trkpt>
      <trkpt lat="45.97461" lon="6.25522">
        <ele>1487</ele>
        <time>2016-08-27T07:47:17.000Z</time>
      </trkpt>
      <trkpt lat="45.97462" lon="6.25523">
        <ele>1486</ele>
        <time>2016-08-27T07:47:18.000Z</time>
      </trkpt>
      <trkpt lat="45.97463" lon="6.25525">
        <ele>1486</ele>
        <time>2016-08-27T07:47:19.000Z</time>
      </trkpt>
      <trkpt lat="45.97464" lon="6.25526">
        <ele>1485</ele>
        <time>2016-08-27T07:47:20.000Z</time>
      </trkpt>
      <trkpt lat="45.97465" lon="6.25528">
        <ele>1485</ele>
        <time>2016-08-27T07:47:21.000Z</time>
      </trkpt>
      <trkpt lat="45.97466" lon="6.25529">
        <ele>1484</ele>
        <time>2016-08-27T07:47:22.000Z</time>
      </trkpt>
      <trkpt lat="45.97467" lon="6.2553">
        <ele>1484</ele>
        <time>2016-08-27T07:47:23.000Z</time>
      </trkpt>
      <trkpt lat="45.97469" lon="6.25532">
        <ele>1483</ele>
        <time>2016-08-27T07:47:24.000Z</time>
      </trkpt>
      <trkpt lat="45.9747" lon="6.25533">
        <ele>1483</ele>
        <time>2016-08-27T07:47:25.000Z</time>
      </trkpt>
      <trkpt lat="45.9747" lon="6.25534">
        <ele>1483</ele>
        <time>2016-08-27T07:47:26.000Z</time>
      </trkpt>
      <trkpt lat="45.97471" lon="6.25536">
        <ele>1483</ele>
        <time>2016-08-27T07:47:27.000Z</time>
      </trkpt>
      <trkpt lat="45.97472" lon="6.25538">
        <ele>1482</ele>
        <time>2016-08-27T07:47:28.000Z</time>
      </trkpt>
      <trkpt lat="45.97473" lon="6.25539">
        <ele>1482</ele>
        <time>2016-08-27T07:47:29.000Z</time>
      </trkpt>
      <trkpt lat="45.97474" lon="6.25541">
        <ele>1481</ele>
        <time>2016-08-27T07:47:30.000Z</time>
      </trkpt>
      <trkpt lat="45.97475" lon="6.25543">
        <ele>1481</ele>
        <time>2016-08-27T07:47:31.000Z</time>
      </trkpt>
      <trkpt lat="45.97476" lon="6.25544">
        <ele>1481</ele>
        <time>2016-08-27T07:47:32.000Z</time>
      </trkpt>
      <trkpt lat="45.97477" lon="6.25545">
        <ele>1481</ele>
        <time>2016-08-27T07:47:33.000Z</time>
      </trkpt>
      <trkpt lat="45.97479" lon="6.25547">
        <ele>1480</ele>
        <time>2016-08-27T07:47:34.000Z</time>
      </trkpt>
      <trkpt lat="45.9748" lon="6.25548">
        <ele>1480</ele>
        <time>2016-08-27T07:47:35.000Z</time>
      </trkpt>
      <trkpt lat="45.97482" lon="6.25549">
        <ele>1480</ele>
        <time>2016-08-27T07:47:36.000Z</time>
      </trkpt>
      <trkpt lat="45.97484" lon="6.2555">
        <ele>1480</ele>
        <time>2016-08-27T07:47:37.000Z</time>
      </trkpt>
      <trkpt lat="45.97485" lon="6.25551">
        <ele>1479</ele>
        <time>2016-08-27T07:47:38.000Z</time>
      </trkpt>
      <trkpt lat="45.97487" lon="6.25551">
        <ele>1479</ele>
        <time>2016-08-27T07:47:39.000Z</time>
      </trkpt>
      <trkpt lat="45.97489" lon="6.25552">
        <ele>1479</ele>
        <time>2016-08-27T07:47:40.000Z</time>
      </trkpt>
      <trkpt lat="45.9749" lon="6.25553">
        <ele>1479</ele>
        <time>2016-08-27T07:47:41.000Z</time>
      </trkpt>
      <trkpt lat="45.97492" lon="6.25554">
        <ele>1479</ele>
        <time>2016-08-27T07:47:42.000Z</time>
      </trkpt>
      <trkpt lat="45.97493" lon="6.25555">
        <ele>1479</ele>
        <time>2016-08-27T07:47:43.000Z</time>
      </trkpt>
      <trkpt lat="45.97494" lon="6.25556">
        <ele>1478</ele>
        <time>2016-08-27T07:47:44.000Z</time>
      </trkpt>
      <trkpt lat="45.97495" lon="6.25556">
        <ele>1478</ele>
        <time>2016-08-27T07:47:45.000Z</time>
      </trkpt>
      <trkpt lat="45.97496" lon="6.25557">
        <ele>1478</ele>
        <time>2016-08-27T07:47:46.000Z</time>
      </trkpt>
      <trkpt lat="45.97497" lon="6.25557">
        <ele>1478</ele>
        <time>2016-08-27T07:47:47.000Z</time>
      </trkpt>
      <trkpt lat="45.97499" lon="6.25558">
        <ele>1477</ele>
        <time>2016-08-27T07:47:48.000Z</time>
      </trkpt>
      <trkpt lat="45.975" lon="6.2556">
        <ele>1477</ele>
        <time>2016-08-27T07:47:49.000Z</time>
      </trkpt>
      <trkpt lat="45.97502" lon="6.25561">
        <ele>1477</ele>
        <time>2016-08-27T07:47:50.000Z</time>
      </trkpt>
      <trkpt lat="45.97504" lon="6.25563">
        <ele>1477</ele>
        <time>2016-08-27T07:47:51.000Z</time>
      </trkpt>
      <trkpt lat="45.97506" lon="6.25564">
        <ele>1477</ele>
        <time>2016-08-27T07:47:52.000Z</time>
      </trkpt>
      <trkpt lat="45.97508" lon="6.25566">
        <ele>1477</ele>
        <time>2016-08-27T07:47:53.000Z</time>
      </trkpt>
      <trkpt lat="45.9751" lon="6.25568">
        <ele>1476</ele>
        <time>2016-08-27T07:47:54.000Z</time>
      </trkpt>
      <trkpt lat="45.97512" lon="6.25569">
        <ele>1476</ele>
        <time>2016-08-27T07:47:55.000Z</time>
      </trkpt>
      <trkpt lat="45.97514" lon="6.25571">
        <ele>1476</ele>
        <time>2016-08-27T07:47:56.000Z</time>
      </trkpt>
      <trkpt lat="45.97515" lon="6.25572">
        <ele>1476</ele>
        <time>2016-08-27T07:47:57.000Z</time>
      </trkpt>
      <trkpt lat="45.97517" lon="6.25574">
        <ele>1476</ele>
        <time>2016-08-27T07:47:58.000Z</time>
      </trkpt>
      <trkpt lat="45.97519" lon="6.25576">
        <ele>1476</ele>
        <time>2016-08-27T07:47:59.000Z</time>
      </trkpt>
      <trkpt lat="45.9752" lon="6.25577">
        <ele>1475</ele>
        <time>2016-08-27T07:48:00.000Z</time>
      </trkpt>
      <trkpt lat="45.97522" lon="6.25577">
        <ele>1475</ele>
        <time>2016-08-27T07:48:01.000Z</time>
      </trkpt>
      <trkpt lat="45.97524" lon="6.25578">
        <ele>1475</ele>
        <time>2016-08-27T07:48:02.000Z</time>
      </trkpt>
      <trkpt lat="45.97525" lon="6.2558">
        <ele>1475</ele>
        <time>2016-08-27T07:48:03.000Z</time>
      </trkpt>
      <trkpt lat="45.97527" lon="6.25582">
        <ele>1474</ele>
        <time>2016-08-27T07:48:04.000Z</time>
      </trkpt>
      <trkpt lat="45.97528" lon="6.25583">
        <ele>1474</ele>
        <time>2016-08-27T07:48:05.000Z</time>
      </trkpt>
      <trkpt lat="45.9753" lon="6.25585">
        <ele>1473</ele>
        <time>2016-08-27T07:48:06.000Z</time>
      </trkpt>
      <trkpt lat="45.97532" lon="6.25586">
        <ele>1473</ele>
        <time>2016-08-27T07:48:07.000Z</time>
      </trkpt>
      <trkpt lat="45.97534" lon="6.25587">
        <ele>1473</ele>
        <time>2016-08-27T07:48:08.000Z</time>
      </trkpt>
      <trkpt lat="45.97536" lon="6.25589">
        <ele>1473</ele>
        <time>2016-08-27T07:48:09.000Z</time>
      </trkpt>
      <trkpt lat="45.97538" lon="6.25591">
        <ele>1472</ele>
        <time>2016-08-27T07:48:10.000Z</time>
      </trkpt>
      <trkpt lat="45.97539" lon="6.25593">
        <ele>1472</ele>
        <time>2016-08-27T07:48:11.000Z</time>
      </trkpt>
      <trkpt lat="45.97541" lon="6.25596">
        <ele>1471</ele>
        <time>2016-08-27T07:48:12.000Z</time>
      </trkpt>
      <trkpt lat="45.97542" lon="6.25598">
        <ele>1471</ele>
        <time>2016-08-27T07:48:13.000Z</time>
      </trkpt>
      <trkpt lat="45.97544" lon="6.25599">
        <ele>1471</ele>
        <time>2016-08-27T07:48:14.000Z</time>
      </trkpt>
      <trkpt lat="45.97545" lon="6.25601">
        <ele>1471</ele>
        <time>2016-08-27T07:48:15.000Z</time>
      </trkpt>
      <trkpt lat="45.97547" lon="6.25602">
        <ele>1470</ele>
        <time>2016-08-27T07:48:16.000Z</time>
      </trkpt>
      <trkpt lat="45.97548" lon="6.25604">
        <ele>1470</ele>
        <time>2016-08-27T07:48:17.000Z</time>
      </trkpt>
      <trkpt lat="45.97549" lon="6.25606">
        <ele>1470</ele>
        <time>2016-08-27T07:48:18.000Z</time>
      </trkpt>
      <trkpt lat="45.9755" lon="6.25608">
        <ele>1470</ele>
        <time>2016-08-27T07:48:19.000Z</time>
      </trkpt>
      <trkpt lat="45.97551" lon="6.25611">
        <ele>1469</ele>
        <time>2016-08-27T07:48:20.000Z</time>
      </trkpt>
      <trkpt lat="45.97551" lon="6.25613">
        <ele>1469</ele>
        <time>2016-08-27T07:48:21.000Z</time>
      </trkpt>
      <trkpt lat="45.97552" lon="6.25615">
        <ele>1469</ele>
        <time>2016-08-27T07:48:22.000Z</time>
      </trkpt>
      <trkpt lat="45.97552" lon="6.25616">
        <ele>1469</ele>
        <time>2016-08-27T07:48:23.000Z</time>
      </trkpt>
      <trkpt lat="45.97553" lon="6.25618">
        <ele>1469</ele>
        <time>2016-08-27T07:48:24.000Z</time>
      </trkpt>
      <trkpt lat="45.97554" lon="6.25621">
        <ele>1469</ele>
        <time>2016-08-27T07:48:25.000Z</time>
      </trkpt>
      <trkpt lat="45.97555" lon="6.25623">
        <ele>1468</ele>
        <time>2016-08-27T07:48:26.000Z</time>
      </trkpt>
      <trkpt lat="45.97556" lon="6.25626">
        <ele>1468</ele>
        <time>2016-08-27T07:48:27.000Z</time>
      </trkpt>
      <trkpt lat="45.97557" lon="6.25629">
        <ele>1468</ele>
        <time>2016-08-27T07:48:28.000Z</time>
      </trkpt>
      <trkpt lat="45.97558" lon="6.25631">
        <ele>1468</ele>
        <time>2016-08-27T07:48:29.000Z</time>
      </trkpt>
      <trkpt lat="45.97558" lon="6.25633">
        <ele>1467</ele>
        <time>2016-08-27T07:48:30.000Z</time>
      </trkpt>
      <trkpt lat="45.9756" lon="6.25635">
        <ele>1467</ele>
        <time>2016-08-27T07:48:31.000Z</time>
      </trkpt>
      <trkpt lat="45.97561" lon="6.25638">
        <ele>1467</ele>
        <time>2016-08-27T07:48:32.000Z</time>
      </trkpt>
      <trkpt lat="45.97563" lon="6.25641">
        <ele>1467</ele>
        <time>2016-08-27T07:48:33.000Z</time>
      </trkpt>
      <trkpt lat="45.97565" lon="6.25643">
        <ele>1467</ele>
        <time>2016-08-27T07:48:34.000Z</time>
      </trkpt>
      <trkpt lat="45.97567" lon="6.25645">
        <ele>1467</ele>
        <time>2016-08-27T07:48:35.000Z</time>
      </trkpt>
      <trkpt lat="45.9757" lon="6.25647">
        <ele>1466</ele>
        <time>2016-08-27T07:48:36.000Z</time>
      </trkpt>
      <trkpt lat="45.97572" lon="6.25648">
        <ele>1466</ele>
        <time>2016-08-27T07:48:37.000Z</time>
      </trkpt>
      <trkpt lat="45.97574" lon="6.2565">
        <ele>1466</ele>
        <time>2016-08-27T07:48:38.000Z</time>
      </trkpt>
      <trkpt lat="45.97576" lon="6.25651">
        <ele>1466</ele>
        <time>2016-08-27T07:48:39.000Z</time>
      </trkpt>
      <trkpt lat="45.97577" lon="6.25651">
        <ele>1466</ele>
        <time>2016-08-27T07:48:40.000Z</time>
      </trkpt>
      <trkpt lat="45.97579" lon="6.25652">
        <ele>1466</ele>
        <time>2016-08-27T07:48:41.000Z</time>
      </trkpt>
      <trkpt lat="45.9758" lon="6.25653">
        <ele>1466</ele>
        <time>2016-08-27T07:48:42.000Z</time>
      </trkpt>
      <trkpt lat="45.97582" lon="6.25654">
        <ele>1466</ele>
        <time>2016-08-27T07:48:43.000Z</time>
      </trkpt>
      <trkpt lat="45.97583" lon="6.25654">
        <ele>1465</ele>
        <time>2016-08-27T07:48:44.000Z</time>
      </trkpt>
      <trkpt lat="45.97584" lon="6.25655">
        <ele>1465</ele>
        <time>2016-08-27T07:48:45.000Z</time>
      </trkpt>
      <trkpt lat="45.97585" lon="6.25655">
        <ele>1465</ele>
        <time>2016-08-27T07:48:46.000Z</time>
      </trkpt>
      <trkpt lat="45.97587" lon="6.25655">
        <ele>1465</ele>
        <time>2016-08-27T07:48:47.000Z</time>
      </trkpt>
      <trkpt lat="45.97588" lon="6.25655">
        <ele>1465</ele>
        <time>2016-08-27T07:48:48.000Z</time>
      </trkpt>
      <trkpt lat="45.97589" lon="6.25655">
        <ele>1465</ele>
        <time>2016-08-27T07:48:49.000Z</time>
      </trkpt>
      <trkpt lat="45.9759" lon="6.25655">
        <ele>1464</ele>
        <time>2016-08-27T07:48:50.000Z</time>
      </trkpt>
      <trkpt lat="45.97592" lon="6.25655">
        <ele>1464</ele>
        <time>2016-08-27T07:48:51.000Z</time>
      </trkpt>
      <trkpt lat="45.97594" lon="6.25655">
        <ele>1464</ele>
        <time>2016-08-27T07:48:52.000Z</time>
      </trkpt>
      <trkpt lat="45.97595" lon="6.25654">
        <ele>1464</ele>
        <time>2016-08-27T07:48:53.000Z</time>
      </trkpt>
      <trkpt lat="45.97597" lon="6.25653">
        <ele>1464</ele>
        <time>2016-08-27T07:48:54.000Z</time>
      </trkpt>
      <trkpt lat="45.97598" lon="6.25653">
        <ele>1464</ele>
        <time>2016-08-27T07:48:55.000Z</time>
      </trkpt>
      <trkpt lat="45.976" lon="6.25653">
        <ele>1464</ele>
        <time>2016-08-27T07:48:56.000Z</time>
      </trkpt>
      <trkpt lat="45.97602" lon="6.25654">
        <ele>1464</ele>
        <time>2016-08-27T07:48:57.000Z</time>
      </trkpt>
      <trkpt lat="45.97603" lon="6.25655">
        <ele>1463</ele>
        <time>2016-08-27T07:48:58.000Z</time>
      </trkpt>
      <trkpt lat="45.97605" lon="6.25656">
        <ele>1463</ele>
        <time>2016-08-27T07:48:59.000Z</time>
      </trkpt>
      <trkpt lat="45.97607" lon="6.25657">
        <ele>1463</ele>
        <time>2016-08-27T07:49:00.000Z</time>
      </trkpt>
      <trkpt lat="45.97609" lon="6.25658">
        <ele>1463</ele>
        <time>2016-08-27T07:49:01.000Z</time>
      </trkpt>
      <trkpt lat="45.97612" lon="6.25659">
        <ele>1462</ele>
        <time>2016-08-27T07:49:02.000Z</time>
      </trkpt>
      <trkpt lat="45.97614" lon="6.2566">
        <ele>1462</ele>
        <time>2016-08-27T07:49:03.000Z</time>
      </trkpt>
      <trkpt lat="45.97616" lon="6.25662">
        <ele>1462</ele>
        <time>2016-08-27T07:49:04.000Z</time>
      </trkpt>
      <trkpt lat="45.97617" lon="6.25664">
        <ele>1462</ele>
        <time>2016-08-27T07:49:05.000Z</time>
      </trkpt>
      <trkpt lat="45.97619" lon="6.25665">
        <ele>1462</ele>
        <time>2016-08-27T07:49:06.000Z</time>
      </trkpt>
      <trkpt lat="45.9762" lon="6.25666">
        <ele>1462</ele>
        <time>2016-08-27T07:49:07.000Z</time>
      </trkpt>
      <trkpt lat="45.97621" lon="6.25667">
        <ele>1461</ele>
        <time>2016-08-27T07:49:08.000Z</time>
      </trkpt>
      <trkpt lat="45.97622" lon="6.25668">
        <ele>1461</ele>
        <time>2016-08-27T07:49:09.000Z</time>
      </trkpt>
      <trkpt lat="45.97622" lon="6.25668">
        <ele>1461</ele>
        <time>2016-08-27T07:49:10.000Z</time>
      </trkpt>
      <trkpt lat="45.97623" lon="6.25669">
        <ele>1461</ele>
        <time>2016-08-27T07:49:11.000Z</time>
      </trkpt>
      <trkpt lat="45.97624" lon="6.25669">
        <ele>1460</ele>
        <time>2016-08-27T07:49:12.000Z</time>
      </trkpt>
      <trkpt lat="45.97624" lon="6.25669">
        <ele>1460</ele>
        <time>2016-08-27T07:49:13.000Z</time>
      </trkpt>
      <trkpt lat="45.97625" lon="6.25669">
        <ele>1460</ele>
        <time>2016-08-27T07:49:14.000Z</time>
      </trkpt>
      <trkpt lat="45.97626" lon="6.25669">
        <ele>1460</ele>
        <time>2016-08-27T07:49:15.000Z</time>
      </trkpt>
      <trkpt lat="45.97627" lon="6.25669">
        <ele>1459</ele>
        <time>2016-08-27T07:49:16.000Z</time>
      </trkpt>
      <trkpt lat="45.97628" lon="6.25669">
        <ele>1459</ele>
        <time>2016-08-27T07:49:17.000Z</time>
      </trkpt>
      <trkpt lat="45.9763" lon="6.2567">
        <ele>1458</ele>
        <time>2016-08-27T07:49:18.000Z</time>
      </trkpt>
      <trkpt lat="45.97632" lon="6.25671">
        <ele>1458</ele>
        <time>2016-08-27T07:49:19.000Z</time>
      </trkpt>
      <trkpt lat="45.97633" lon="6.25672">
        <ele>1458</ele>
        <time>2016-08-27T07:49:20.000Z</time>
      </trkpt>
      <trkpt lat="45.97634" lon="6.25674">
        <ele>1458</ele>
        <time>2016-08-27T07:49:21.000Z</time>
      </trkpt>
      <trkpt lat="45.97636" lon="6.25675">
        <ele>1457</ele>
        <time>2016-08-27T07:49:22.000Z</time>
      </trkpt>
      <trkpt lat="45.97638" lon="6.25677">
        <ele>1457</ele>
        <time>2016-08-27T07:49:23.000Z</time>
      </trkpt>
      <trkpt lat="45.97639" lon="6.25679">
        <ele>1456</ele>
        <time>2016-08-27T07:49:24.000Z</time>
      </trkpt>
      <trkpt lat="45.97641" lon="6.25681">
        <ele>1456</ele>
        <time>2016-08-27T07:49:25.000Z</time>
      </trkpt>
      <trkpt lat="45.97642" lon="6.25682">
        <ele>1456</ele>
        <time>2016-08-27T07:49:26.000Z</time>
      </trkpt>
      <trkpt lat="45.97644" lon="6.25685">
        <ele>1456</ele>
        <time>2016-08-27T07:49:27.000Z</time>
      </trkpt>
      <trkpt lat="45.97646" lon="6.25687">
        <ele>1455</ele>
        <time>2016-08-27T07:49:28.000Z</time>
      </trkpt>
      <trkpt lat="45.97649" lon="6.25689">
        <ele>1455</ele>
        <time>2016-08-27T07:49:29.000Z</time>
      </trkpt>
      <trkpt lat="45.97651" lon="6.25691">
        <ele>1454</ele>
        <time>2016-08-27T07:49:30.000Z</time>
      </trkpt>
      <trkpt lat="45.97653" lon="6.25693">
        <ele>1454</ele>
        <time>2016-08-27T07:49:31.000Z</time>
      </trkpt>
      <trkpt lat="45.97656" lon="6.25696">
        <ele>1453</ele>
        <time>2016-08-27T07:49:32.000Z</time>
      </trkpt>
      <trkpt lat="45.97658" lon="6.25698">
        <ele>1453</ele>
        <time>2016-08-27T07:49:33.000Z</time>
      </trkpt>
      <trkpt lat="45.9766" lon="6.257">
        <ele>1452</ele>
        <time>2016-08-27T07:49:34.000Z</time>
      </trkpt>
      <trkpt lat="45.97663" lon="6.25701">
        <ele>1452</ele>
        <time>2016-08-27T07:49:35.000Z</time>
      </trkpt>
      <trkpt lat="45.97665" lon="6.25703">
        <ele>1451</ele>
        <time>2016-08-27T07:49:36.000Z</time>
      </trkpt>
      <trkpt lat="45.97667" lon="6.25705">
        <ele>1451</ele>
        <time>2016-08-27T07:49:37.000Z</time>
      </trkpt>
      <trkpt lat="45.97669" lon="6.25706">
        <ele>1450</ele>
        <time>2016-08-27T07:49:38.000Z</time>
      </trkpt>
      <trkpt lat="45.97671" lon="6.25707">
        <ele>1450</ele>
        <time>2016-08-27T07:49:39.000Z</time>
      </trkpt>
      <trkpt lat="45.97672" lon="6.25707">
        <ele>1449</ele>
        <time>2016-08-27T07:49:40.000Z</time>
      </trkpt>
      <trkpt lat="45.97673" lon="6.25708">
        <ele>1449</ele>
        <time>2016-08-27T07:49:41.000Z</time>
      </trkpt>
      <trkpt lat="45.97675" lon="6.25708">
        <ele>1448</ele>
        <time>2016-08-27T07:49:42.000Z</time>
      </trkpt>
      <trkpt lat="45.97676" lon="6.25708">
        <ele>1448</ele>
        <time>2016-08-27T07:49:43.000Z</time>
      </trkpt>
      <trkpt lat="45.97678" lon="6.25708">
        <ele>1447</ele>
        <time>2016-08-27T07:49:44.000Z</time>
      </trkpt>
      <trkpt lat="45.97679" lon="6.25707">
        <ele>1447</ele>
        <time>2016-08-27T07:49:45.000Z</time>
      </trkpt>
      <trkpt lat="45.9768" lon="6.25706">
        <ele>1446</ele>
        <time>2016-08-27T07:49:46.000Z</time>
      </trkpt>
      <trkpt lat="45.97681" lon="6.25706">
        <ele>1446</ele>
        <time>2016-08-27T07:49:47.000Z</time>
      </trkpt>
      <trkpt lat="45.97681" lon="6.25705">
        <ele>1446</ele>
        <time>2016-08-27T07:49:48.000Z</time>
      </trkpt>
      <trkpt lat="45.97681" lon="6.25704">
        <ele>1446</ele>
        <time>2016-08-27T07:49:49.000Z</time>
      </trkpt>
      <trkpt lat="45.97682" lon="6.25703">
        <ele>1445</ele>
        <time>2016-08-27T07:49:50.000Z</time>
      </trkpt>
      <trkpt lat="45.97683" lon="6.25703">
        <ele>1445</ele>
        <time>2016-08-27T07:49:51.000Z</time>
      </trkpt>
      <trkpt lat="45.97684" lon="6.25703">
        <ele>1444</ele>
        <time>2016-08-27T07:49:52.000Z</time>
      </trkpt>
      <trkpt lat="45.97684" lon="6.25703">
        <ele>1444</ele>
        <time>2016-08-27T07:49:53.000Z</time>
      </trkpt>
      <trkpt lat="45.97686" lon="6.25703">
        <ele>1443</ele>
        <time>2016-08-27T07:49:54.000Z</time>
      </trkpt>
      <trkpt lat="45.97686" lon="6.25702">
        <ele>1443</ele>
        <time>2016-08-27T07:49:55.000Z</time>
      </trkpt>
      <trkpt lat="45.97687" lon="6.25701">
        <ele>1443</ele>
        <time>2016-08-27T07:49:56.000Z</time>
      </trkpt>
      <trkpt lat="45.97688" lon="6.257">
        <ele>1443</ele>
        <time>2016-08-27T07:49:57.000Z</time>
      </trkpt>
      <trkpt lat="45.97688" lon="6.257">
        <ele>1442</ele>
        <time>2016-08-27T07:49:58.000Z</time>
      </trkpt>
      <trkpt lat="45.97689" lon="6.25699">
        <ele>1442</ele>
        <time>2016-08-27T07:49:59.000Z</time>
      </trkpt>
      <trkpt lat="45.97689" lon="6.25697">
        <ele>1442</ele>
        <time>2016-08-27T07:50:00.000Z</time>
      </trkpt>
      <trkpt lat="45.9769" lon="6.25696">
        <ele>1442</ele>
        <time>2016-08-27T07:50:01.000Z</time>
      </trkpt>
      <trkpt lat="45.9769" lon="6.25694">
        <ele>1441</ele>
        <time>2016-08-27T07:50:02.000Z</time>
      </trkpt>
      <trkpt lat="45.9769" lon="6.25692">
        <ele>1441</ele>
        <time>2016-08-27T07:50:03.000Z</time>
      </trkpt>
      <trkpt lat="45.97691" lon="6.2569">
        <ele>1441</ele>
        <time>2016-08-27T07:50:04.000Z</time>
      </trkpt>
      <trkpt lat="45.97691" lon="6.25688">
        <ele>1441</ele>
        <time>2016-08-27T07:50:05.000Z</time>
      </trkpt>
      <trkpt lat="45.97691" lon="6.25685">
        <ele>1440</ele>
        <time>2016-08-27T07:50:06.000Z</time>
      </trkpt>
      <trkpt lat="45.97691" lon="6.25683">
        <ele>1440</ele>
        <time>2016-08-27T07:50:07.000Z</time>
      </trkpt>
      <trkpt lat="45.97692" lon="6.2568">
        <ele>1440</ele>
        <time>2016-08-27T07:50:08.000Z</time>
      </trkpt>
      <trkpt lat="45.97693" lon="6.25678">
        <ele>1440</ele>
        <time>2016-08-27T07:50:09.000Z</time>
      </trkpt>
      <trkpt lat="45.97693" lon="6.25675">
        <ele>1439</ele>
        <time>2016-08-27T07:50:10.000Z</time>
      </trkpt>
      <trkpt lat="45.97693" lon="6.25672">
        <ele>1439</ele>
        <time>2016-08-27T07:50:11.000Z</time>
      </trkpt>
      <trkpt lat="45.97694" lon="6.25669">
        <ele>1439</ele>
        <time>2016-08-27T07:50:12.000Z</time>
      </trkpt>
      <trkpt lat="45.97693" lon="6.25667">
        <ele>1439</ele>
        <time>2016-08-27T07:50:13.000Z</time>
      </trkpt>
      <trkpt lat="45.97693" lon="6.25664">
        <ele>1439</ele>
        <time>2016-08-27T07:50:14.000Z</time>
      </trkpt>
      <trkpt lat="45.97692" lon="6.25661">
        <ele>1439</ele>
        <time>2016-08-27T07:50:15.000Z</time>
      </trkpt>
      <trkpt lat="45.97692" lon="6.25658">
        <ele>1438</ele>
        <time>2016-08-27T07:50:16.000Z</time>
      </trkpt>
      <trkpt lat="45.97692" lon="6.25656">
        <ele>1438</ele>
        <time>2016-08-27T07:50:17.000Z</time>
      </trkpt>
      <trkpt lat="45.97692" lon="6.25654">
        <ele>1438</ele>
        <time>2016-08-27T07:50:18.000Z</time>
      </trkpt>
      <trkpt lat="45.97691" lon="6.25652">
        <ele>1438</ele>
        <time>2016-08-27T07:50:19.000Z</time>
      </trkpt>
      <trkpt lat="45.97691" lon="6.2565">
        <ele>1437</ele>
        <time>2016-08-27T07:50:20.000Z</time>
      </trkpt>
      <trkpt lat="45.97691" lon="6.25648">
        <ele>1437</ele>
        <time>2016-08-27T07:50:21.000Z</time>
      </trkpt>
      <trkpt lat="45.9769" lon="6.25646">
        <ele>1437</ele>
        <time>2016-08-27T07:50:22.000Z</time>
      </trkpt>
      <trkpt lat="45.9769" lon="6.25644">
        <ele>1437</ele>
        <time>2016-08-27T07:50:23.000Z</time>
      </trkpt>
      <trkpt lat="45.97689" lon="6.25642">
        <ele>1437</ele>
        <time>2016-08-27T07:50:24.000Z</time>
      </trkpt>
      <trkpt lat="45.97688" lon="6.25641">
        <ele>1437</ele>
        <time>2016-08-27T07:50:25.000Z</time>
      </trkpt>
      <trkpt lat="45.97687" lon="6.25639">
        <ele>1436</ele>
        <time>2016-08-27T07:50:26.000Z</time>
      </trkpt>
      <trkpt lat="45.97687" lon="6.25637">
        <ele>1436</ele>
        <time>2016-08-27T07:50:27.000Z</time>
      </trkpt>
      <trkpt lat="45.97686" lon="6.25635">
        <ele>1436</ele>
        <time>2016-08-27T07:50:28.000Z</time>
      </trkpt>
      <trkpt lat="45.97687" lon="6.25633">
        <ele>1436</ele>
        <time>2016-08-27T07:50:29.000Z</time>
      </trkpt>
      <trkpt lat="45.97687" lon="6.25632">
        <ele>1435</ele>
        <time>2016-08-27T07:50:30.000Z</time>
      </trkpt>
      <trkpt lat="45.97688" lon="6.2563">
        <ele>1435</ele>
        <time>2016-08-27T07:50:31.000Z</time>
      </trkpt>
      <trkpt lat="45.97688" lon="6.25629">
        <ele>1435</ele>
        <time>2016-08-27T07:50:32.000Z</time>
      </trkpt>
      <trkpt lat="45.9769" lon="6.25628">
        <ele>1435</ele>
        <time>2016-08-27T07:50:33.000Z</time>
      </trkpt>
      <trkpt lat="45.97691" lon="6.25627">
        <ele>1435</ele>
        <time>2016-08-27T07:50:34.000Z</time>
      </trkpt>
      <trkpt lat="45.97693" lon="6.25626">
        <ele>1435</ele>
        <time>2016-08-27T07:50:35.000Z</time>
      </trkpt>
      <trkpt lat="45.97695" lon="6.25625">
        <ele>1434</ele>
        <time>2016-08-27T07:50:36.000Z</time>
      </trkpt>
      <trkpt lat="45.97697" lon="6.25624">
        <ele>1434</ele>
        <time>2016-08-27T07:50:37.000Z</time>
      </trkpt>
      <trkpt lat="45.97698" lon="6.25623">
        <ele>1433</ele>
        <time>2016-08-27T07:50:38.000Z</time>
      </trkpt>
      <trkpt lat="45.977" lon="6.25621">
        <ele>1433</ele>
        <time>2016-08-27T07:50:39.000Z</time>
      </trkpt>
      <trkpt lat="45.97702" lon="6.2562">
        <ele>1433</ele>
        <time>2016-08-27T07:50:40.000Z</time>
      </trkpt>
      <trkpt lat="45.97704" lon="6.25618">
        <ele>1433</ele>
        <time>2016-08-27T07:50:41.000Z</time>
      </trkpt>
      <trkpt lat="45.97706" lon="6.25617">
        <ele>1432</ele>
        <time>2016-08-27T07:50:42.000Z</time>
      </trkpt>
      <trkpt lat="45.97707" lon="6.25616">
        <ele>1432</ele>
        <time>2016-08-27T07:50:43.000Z</time>
      </trkpt>
      <trkpt lat="45.97708" lon="6.25615">
        <ele>1432</ele>
        <time>2016-08-27T07:50:44.000Z</time>
      </trkpt>
      <trkpt lat="45.97709" lon="6.25614">
        <ele>1432</ele>
        <time>2016-08-27T07:50:45.000Z</time>
      </trkpt>
      <trkpt lat="45.9771" lon="6.25613">
        <ele>1431</ele>
        <time>2016-08-27T07:50:46.000Z</time>
      </trkpt>
      <trkpt lat="45.97711" lon="6.25612">
        <ele>1431</ele>
        <time>2016-08-27T07:50:47.000Z</time>
      </trkpt>
      <trkpt lat="45.97712" lon="6.25611">
        <ele>1430</ele>
        <time>2016-08-27T07:50:48.000Z</time>
      </trkpt>
      <trkpt lat="45.97713" lon="6.25611">
        <ele>1430</ele>
        <time>2016-08-27T07:50:49.000Z</time>
      </trkpt>
      <trkpt lat="45.97714" lon="6.2561">
        <ele>1430</ele>
        <time>2016-08-27T07:50:50.000Z</time>
      </trkpt>
      <trkpt lat="45.97714" lon="6.25609">
        <ele>1430</ele>
        <time>2016-08-27T07:50:51.000Z</time>
      </trkpt>
      <trkpt lat="45.97715" lon="6.25608">
        <ele>1430</ele>
        <time>2016-08-27T07:50:52.000Z</time>
      </trkpt>
      <trkpt lat="45.97717" lon="6.25608">
        <ele>1430</ele>
        <time>2016-08-27T07:50:53.000Z</time>
      </trkpt>
      <trkpt lat="45.97718" lon="6.25607">
        <ele>1430</ele>
        <time>2016-08-27T07:50:54.000Z</time>
      </trkpt>
      <trkpt lat="45.9772" lon="6.25606">
        <ele>1430</ele>
        <time>2016-08-27T07:50:55.000Z</time>
      </trkpt>
      <trkpt lat="45.97721" lon="6.25605">
        <ele>1429</ele>
        <time>2016-08-27T07:50:56.000Z</time>
      </trkpt>
      <trkpt lat="45.97722" lon="6.25603">
        <ele>1429</ele>
        <time>2016-08-27T07:50:57.000Z</time>
      </trkpt>
      <trkpt lat="45.97723" lon="6.25602">
        <ele>1429</ele>
        <time>2016-08-27T07:50:58.000Z</time>
      </trkpt>
      <trkpt lat="45.97724" lon="6.256">
        <ele>1429</ele>
        <time>2016-08-27T07:50:59.000Z</time>
      </trkpt>
      <trkpt lat="45.97726" lon="6.25598">
        <ele>1429</ele>
        <time>2016-08-27T07:51:00.000Z</time>
      </trkpt>
      <trkpt lat="45.97727" lon="6.25597">
        <ele>1429</ele>
        <time>2016-08-27T07:51:01.000Z</time>
      </trkpt>
      <trkpt lat="45.97728" lon="6.25595">
        <ele>1429</ele>
        <time>2016-08-27T07:51:02.000Z</time>
      </trkpt>
      <trkpt lat="45.97729" lon="6.25594">
        <ele>1429</ele>
        <time>2016-08-27T07:51:03.000Z</time>
      </trkpt>
      <trkpt lat="45.97731" lon="6.25593">
        <ele>1428</ele>
        <time>2016-08-27T07:51:04.000Z</time>
      </trkpt>
      <trkpt lat="45.97732" lon="6.25592">
        <ele>1428</ele>
        <time>2016-08-27T07:51:05.000Z</time>
      </trkpt>
      <trkpt lat="45.97733" lon="6.25591">
        <ele>1428</ele>
        <time>2016-08-27T07:51:06.000Z</time>
      </trkpt>
      <trkpt lat="45.97735" lon="6.2559">
        <ele>1428</ele>
        <time>2016-08-27T07:51:07.000Z</time>
      </trkpt>
      <trkpt lat="45.97736" lon="6.25589">
        <ele>1428</ele>
        <time>2016-08-27T07:51:08.000Z</time>
      </trkpt>
      <trkpt lat="45.97737" lon="6.25588">
        <ele>1428</ele>
        <time>2016-08-27T07:51:09.000Z</time>
      </trkpt>
      <trkpt lat="45.97738" lon="6.25587">
        <ele>1427</ele>
        <time>2016-08-27T07:51:10.000Z</time>
      </trkpt>
      <trkpt lat="45.9774" lon="6.25587">
        <ele>1427</ele>
        <time>2016-08-27T07:51:11.000Z</time>
      </trkpt>
      <trkpt lat="45.97741" lon="6.25585">
        <ele>1427</ele>
        <time>2016-08-27T07:51:12.000Z</time>
      </trkpt>
      <trkpt lat="45.97743" lon="6.25584">
        <ele>1427</ele>
        <time>2016-08-27T07:51:13.000Z</time>
      </trkpt>
      <trkpt lat="45.97745" lon="6.25582">
        <ele>1427</ele>
        <time>2016-08-27T07:51:14.000Z</time>
      </trkpt>
      <trkpt lat="45.97747" lon="6.2558">
        <ele>1427</ele>
        <time>2016-08-27T07:51:15.000Z</time>
      </trkpt>
      <trkpt lat="45.97749" lon="6.25578">
        <ele>1426</ele>
        <time>2016-08-27T07:51:16.000Z</time>
      </trkpt>
      <trkpt lat="45.97751" lon="6.25575">
        <ele>1426</ele>
        <time>2016-08-27T07:51:17.000Z</time>
      </trkpt>
      <trkpt lat="45.97753" lon="6.25572">
        <ele>1426</ele>
        <time>2016-08-27T07:51:18.000Z</time>
      </trkpt>
      <trkpt lat="45.97755" lon="6.2557">
        <ele>1426</ele>
        <time>2016-08-27T07:51:19.000Z</time>
      </trkpt>
      <trkpt lat="45.97757" lon="6.25567">
        <ele>1426</ele>
        <time>2016-08-27T07:51:20.000Z</time>
      </trkpt>
      <trkpt lat="45.97759" lon="6.25564">
        <ele>1426</ele>
        <time>2016-08-27T07:51:21.000Z</time>
      </trkpt>
      <trkpt lat="45.97761" lon="6.25562">
        <ele>1426</ele>
        <time>2016-08-27T07:51:22.000Z</time>
      </trkpt>
      <trkpt lat="45.97762" lon="6.25559">
        <ele>1426</ele>
        <time>2016-08-27T07:51:23.000Z</time>
      </trkpt>
      <trkpt lat="45.97764" lon="6.25557">
        <ele>1426</ele>
        <time>2016-08-27T07:51:24.000Z</time>
      </trkpt>
      <trkpt lat="45.97766" lon="6.25554">
        <ele>1426</ele>
        <time>2016-08-27T07:51:25.000Z</time>
      </trkpt>
      <trkpt lat="45.97768" lon="6.25551">
        <ele>1425</ele>
        <time>2016-08-27T07:51:26.000Z</time>
      </trkpt>
      <trkpt lat="45.97769" lon="6.25549">
        <ele>1425</ele>
        <time>2016-08-27T07:51:27.000Z</time>
      </trkpt>
      <trkpt lat="45.97771" lon="6.25547">
        <ele>1425</ele>
        <time>2016-08-27T07:51:28.000Z</time>
      </trkpt>
      <trkpt lat="45.97772" lon="6.25544">
        <ele>1425</ele>
        <time>2016-08-27T07:51:29.000Z</time>
      </trkpt>
      <trkpt lat="45.97773" lon="6.25542">
        <ele>1424</ele>
        <time>2016-08-27T07:51:30.000Z</time>
      </trkpt>
      <trkpt lat="45.97774" lon="6.2554">
        <ele>1424</ele>
        <time>2016-08-27T07:51:31.000Z</time>
      </trkpt>
      <trkpt lat="45.97775" lon="6.25538">
        <ele>1424</ele>
        <time>2016-08-27T07:51:32.000Z</time>
      </trkpt>
      <trkpt lat="45.97775" lon="6.25536">
        <ele>1424</ele>
        <time>2016-08-27T07:51:33.000Z</time>
      </trkpt>
      <trkpt lat="45.97776" lon="6.25533">
        <ele>1424</ele>
        <time>2016-08-27T07:51:34.000Z</time>
      </trkpt>
      <trkpt lat="45.97778" lon="6.25532">
        <ele>1424</ele>
        <time>2016-08-27T07:51:35.000Z</time>
      </trkpt>
      <trkpt lat="45.97779" lon="6.2553">
        <ele>1423</ele>
        <time>2016-08-27T07:51:36.000Z</time>
      </trkpt>
      <trkpt lat="45.9778" lon="6.25528">
        <ele>1423</ele>
        <time>2016-08-27T07:51:37.000Z</time>
      </trkpt>
      <trkpt lat="45.97782" lon="6.25526">
        <ele>1422</ele>
        <time>2016-08-27T07:51:38.000Z</time>
      </trkpt>
      <trkpt lat="45.97783" lon="6.25524">
        <ele>1422</ele>
        <time>2016-08-27T07:51:39.000Z</time>
      </trkpt>
      <trkpt lat="45.97785" lon="6.25521">
        <ele>1422</ele>
        <time>2016-08-27T07:51:40.000Z</time>
      </trkpt>
      <trkpt lat="45.97788" lon="6.2552">
        <ele>1422</ele>
        <time>2016-08-27T07:51:41.000Z</time>
      </trkpt>
      <trkpt lat="45.97789" lon="6.25518">
        <ele>1421</ele>
        <time>2016-08-27T07:51:42.000Z</time>
      </trkpt>
      <trkpt lat="45.97792" lon="6.25516">
        <ele>1421</ele>
        <time>2016-08-27T07:51:43.000Z</time>
      </trkpt>
      <trkpt lat="45.97793" lon="6.25514">
        <ele>1421</ele>
        <time>2016-08-27T07:51:44.000Z</time>
      </trkpt>
      <trkpt lat="45.97795" lon="6.25513">
        <ele>1421</ele>
        <time>2016-08-27T07:51:45.000Z</time>
      </trkpt>
      <trkpt lat="45.97796" lon="6.25511">
        <ele>1420</ele>
        <time>2016-08-27T07:51:46.000Z</time>
      </trkpt>
      <trkpt lat="45.97798" lon="6.25509">
        <ele>1420</ele>
        <time>2016-08-27T07:51:47.000Z</time>
      </trkpt>
      <trkpt lat="45.97799" lon="6.25508">
        <ele>1420</ele>
        <time>2016-08-27T07:51:48.000Z</time>
      </trkpt>
      <trkpt lat="45.978" lon="6.25507">
        <ele>1420</ele>
        <time>2016-08-27T07:51:49.000Z</time>
      </trkpt>
      <trkpt lat="45.978" lon="6.25506">
        <ele>1419</ele>
        <time>2016-08-27T07:51:50.000Z</time>
      </trkpt>
      <trkpt lat="45.97801" lon="6.25504">
        <ele>1419</ele>
        <time>2016-08-27T07:51:51.000Z</time>
      </trkpt>
      <trkpt lat="45.97802" lon="6.25503">
        <ele>1419</ele>
        <time>2016-08-27T07:51:52.000Z</time>
      </trkpt>
      <trkpt lat="45.97803" lon="6.25503">
        <ele>1419</ele>
        <time>2016-08-27T07:51:53.000Z</time>
      </trkpt>
      <trkpt lat="45.97804" lon="6.25502">
        <ele>1418</ele>
        <time>2016-08-27T07:51:54.000Z</time>
      </trkpt>
      <trkpt lat="45.97805" lon="6.25501">
        <ele>1418</ele>
        <time>2016-08-27T07:51:55.000Z</time>
      </trkpt>
      <trkpt lat="45.97806" lon="6.25501">
        <ele>1418</ele>
        <time>2016-08-27T07:51:56.000Z</time>
      </trkpt>
      <trkpt lat="45.97807" lon="6.255">
        <ele>1418</ele>
        <time>2016-08-27T07:51:57.000Z</time>
      </trkpt>
      <trkpt lat="45.97809" lon="6.25499">
        <ele>1417</ele>
        <time>2016-08-27T07:51:58.000Z</time>
      </trkpt>
      <trkpt lat="45.9781" lon="6.25498">
        <ele>1417</ele>
        <time>2016-08-27T07:51:59.000Z</time>
      </trkpt>
      <trkpt lat="45.97811" lon="6.25498">
        <ele>1417</ele>
        <time>2016-08-27T07:52:00.000Z</time>
      </trkpt>
      <trkpt lat="45.97813" lon="6.25498">
        <ele>1417</ele>
        <time>2016-08-27T07:52:01.000Z</time>
      </trkpt>
      <trkpt lat="45.97814" lon="6.25498">
        <ele>1416</ele>
        <time>2016-08-27T07:52:02.000Z</time>
      </trkpt>
      <trkpt lat="45.97815" lon="6.25497">
        <ele>1416</ele>
        <time>2016-08-27T07:52:03.000Z</time>
      </trkpt>
      <trkpt lat="45.97816" lon="6.25497">
        <ele>1416</ele>
        <time>2016-08-27T07:52:04.000Z</time>
      </trkpt>
      <trkpt lat="45.97818" lon="6.25497">
        <ele>1416</ele>
        <time>2016-08-27T07:52:05.000Z</time>
      </trkpt>
      <trkpt lat="45.97819" lon="6.25496">
        <ele>1415</ele>
        <time>2016-08-27T07:52:06.000Z</time>
      </trkpt>
      <trkpt lat="45.9782" lon="6.25496">
        <ele>1415</ele>
        <time>2016-08-27T07:52:07.000Z</time>
      </trkpt>
      <trkpt lat="45.97821" lon="6.25496">
        <ele>1415</ele>
        <time>2016-08-27T07:52:08.000Z</time>
      </trkpt>
      <trkpt lat="45.97822" lon="6.25496">
        <ele>1415</ele>
        <time>2016-08-27T07:52:09.000Z</time>
      </trkpt>
      <trkpt lat="45.97823" lon="6.25495">
        <ele>1414</ele>
        <time>2016-08-27T07:52:10.000Z</time>
      </trkpt>
      <trkpt lat="45.97825" lon="6.25495">
        <ele>1414</ele>
        <time>2016-08-27T07:52:11.000Z</time>
      </trkpt>
      <trkpt lat="45.97827" lon="6.25494">
        <ele>1414</ele>
        <time>2016-08-27T07:52:12.000Z</time>
      </trkpt>
      <trkpt lat="45.97828" lon="6.25494">
        <ele>1414</ele>
        <time>2016-08-27T07:52:13.000Z</time>
      </trkpt>
      <trkpt lat="45.9783" lon="6.25494">
        <ele>1413</ele>
        <time>2016-08-27T07:52:14.000Z</time>
      </trkpt>
      <trkpt lat="45.97832" lon="6.25493">
        <ele>1413</ele>
        <time>2016-08-27T07:52:15.000Z</time>
      </trkpt>
      <trkpt lat="45.97834" lon="6.25493">
        <ele>1413</ele>
        <time>2016-08-27T07:52:16.000Z</time>
      </trkpt>
      <trkpt lat="45.97836" lon="6.25493">
        <ele>1413</ele>
        <time>2016-08-27T07:52:17.000Z</time>
      </trkpt>
      <trkpt lat="45.97839" lon="6.25492">
        <ele>1412</ele>
        <time>2016-08-27T07:52:18.000Z</time>
      </trkpt>
      <trkpt lat="45.97841" lon="6.25492">
        <ele>1412</ele>
        <time>2016-08-27T07:52:19.000Z</time>
      </trkpt>
      <trkpt lat="45.97842" lon="6.25492">
        <ele>1412</ele>
        <time>2016-08-27T07:52:20.000Z</time>
      </trkpt>
      <trkpt lat="45.97844" lon="6.25492">
        <ele>1412</ele>
        <time>2016-08-27T07:52:21.000Z</time>
      </trkpt>
      <trkpt lat="45.97845" lon="6.25492">
        <ele>1411</ele>
        <time>2016-08-27T07:52:22.000Z</time>
      </trkpt>
      <trkpt lat="45.97847" lon="6.25491">
        <ele>1411</ele>
        <time>2016-08-27T07:52:23.000Z</time>
      </trkpt>
      <trkpt lat="45.97848" lon="6.25491">
        <ele>1411</ele>
        <time>2016-08-27T07:52:24.000Z</time>
      </trkpt>
      <trkpt lat="45.9785" lon="6.2549">
        <ele>1411</ele>
        <time>2016-08-27T07:52:25.000Z</time>
      </trkpt>
      <trkpt lat="45.97851" lon="6.2549">
        <ele>1410</ele>
        <time>2016-08-27T07:52:26.000Z</time>
      </trkpt>
      <trkpt lat="45.97852" lon="6.25489">
        <ele>1410</ele>
        <time>2016-08-27T07:52:27.000Z</time>
      </trkpt>
      <trkpt lat="45.97854" lon="6.25489">
        <ele>1410</ele>
        <time>2016-08-27T07:52:28.000Z</time>
      </trkpt>
      <trkpt lat="45.97855" lon="6.25489">
        <ele>1410</ele>
        <time>2016-08-27T07:52:29.000Z</time>
      </trkpt>
      <trkpt lat="45.97857" lon="6.25489">
        <ele>1409</ele>
        <time>2016-08-27T07:52:30.000Z</time>
      </trkpt>
      <trkpt lat="45.97858" lon="6.25489">
        <ele>1409</ele>
        <time>2016-08-27T07:52:31.000Z</time>
      </trkpt>
      <trkpt lat="45.9786" lon="6.25489">
        <ele>1409</ele>
        <time>2016-08-27T07:52:32.000Z</time>
      </trkpt>
      <trkpt lat="45.97862" lon="6.25489">
        <ele>1409</ele>
        <time>2016-08-27T07:52:33.000Z</time>
      </trkpt>
      <trkpt lat="45.97863" lon="6.25489">
        <ele>1408</ele>
        <time>2016-08-27T07:52:34.000Z</time>
      </trkpt>
      <trkpt lat="45.97865" lon="6.25488">
        <ele>1408</ele>
        <time>2016-08-27T07:52:35.000Z</time>
      </trkpt>
      <trkpt lat="45.97867" lon="6.25488">
        <ele>1408</ele>
        <time>2016-08-27T07:52:36.000Z</time>
      </trkpt>
      <trkpt lat="45.97869" lon="6.25488">
        <ele>1408</ele>
        <time>2016-08-27T07:52:37.000Z</time>
      </trkpt>
      <trkpt lat="45.97871" lon="6.25487">
        <ele>1408</ele>
        <time>2016-08-27T07:52:38.000Z</time>
      </trkpt>
      <trkpt lat="45.97874" lon="6.25487">
        <ele>1408</ele>
        <time>2016-08-27T07:52:39.000Z</time>
      </trkpt>
      <trkpt lat="45.97876" lon="6.25487">
        <ele>1407</ele>
        <time>2016-08-27T07:52:40.000Z</time>
      </trkpt>
      <trkpt lat="45.97879" lon="6.25487">
        <ele>1407</ele>
        <time>2016-08-27T07:52:41.000Z</time>
      </trkpt>
      <trkpt lat="45.97881" lon="6.25487">
        <ele>1407</ele>
        <time>2016-08-27T07:52:42.000Z</time>
      </trkpt>
      <trkpt lat="45.97884" lon="6.25486">
        <ele>1407</ele>
        <time>2016-08-27T07:52:43.000Z</time>
      </trkpt>
      <trkpt lat="45.97887" lon="6.25486">
        <ele>1407</ele>
        <time>2016-08-27T07:52:44.000Z</time>
      </trkpt>
      <trkpt lat="45.9789" lon="6.25486">
        <ele>1407</ele>
        <time>2016-08-27T07:52:45.000Z</time>
      </trkpt>
      <trkpt lat="45.97893" lon="6.25486">
        <ele>1406</ele>
        <time>2016-08-27T07:52:46.000Z</time>
      </trkpt>
      <trkpt lat="45.97896" lon="6.25485">
        <ele>1406</ele>
        <time>2016-08-27T07:52:47.000Z</time>
      </trkpt>
      <trkpt lat="45.97898" lon="6.25485">
        <ele>1405</ele>
        <time>2016-08-27T07:52:48.000Z</time>
      </trkpt>
      <trkpt lat="45.97901" lon="6.25485">
        <ele>1405</ele>
        <time>2016-08-27T07:52:49.000Z</time>
      </trkpt>
      <trkpt lat="45.97903" lon="6.25485">
        <ele>1405</ele>
        <time>2016-08-27T07:52:50.000Z</time>
      </trkpt>
      <trkpt lat="45.97905" lon="6.25484">
        <ele>1405</ele>
        <time>2016-08-27T07:52:51.000Z</time>
      </trkpt>
      <trkpt lat="45.97907" lon="6.25484">
        <ele>1404</ele>
        <time>2016-08-27T07:52:52.000Z</time>
      </trkpt>
      <trkpt lat="45.97909" lon="6.25484">
        <ele>1404</ele>
        <time>2016-08-27T07:52:53.000Z</time>
      </trkpt>
      <trkpt lat="45.97911" lon="6.25485">
        <ele>1404</ele>
        <time>2016-08-27T07:52:54.000Z</time>
      </trkpt>
      <trkpt lat="45.97913" lon="6.25485">
        <ele>1404</ele>
        <time>2016-08-27T07:52:55.000Z</time>
      </trkpt>
      <trkpt lat="45.97915" lon="6.25486">
        <ele>1403</ele>
        <time>2016-08-27T07:52:56.000Z</time>
      </trkpt>
      <trkpt lat="45.97917" lon="6.25487">
        <ele>1403</ele>
        <time>2016-08-27T07:52:57.000Z</time>
      </trkpt>
      <trkpt lat="45.97919" lon="6.25487">
        <ele>1403</ele>
        <time>2016-08-27T07:52:58.000Z</time>
      </trkpt>
      <trkpt lat="45.97921" lon="6.25488">
        <ele>1403</ele>
        <time>2016-08-27T07:52:59.000Z</time>
      </trkpt>
      <trkpt lat="45.97923" lon="6.25489">
        <ele>1402</ele>
        <time>2016-08-27T07:53:00.000Z</time>
      </trkpt>
      <trkpt lat="45.97925" lon="6.25489">
        <ele>1402</ele>
        <time>2016-08-27T07:53:01.000Z</time>
      </trkpt>
      <trkpt lat="45.97927" lon="6.2549">
        <ele>1401</ele>
        <time>2016-08-27T07:53:02.000Z</time>
      </trkpt>
      <trkpt lat="45.9793" lon="6.25491">
        <ele>1401</ele>
        <time>2016-08-27T07:53:03.000Z</time>
      </trkpt>
      <trkpt lat="45.97933" lon="6.25492">
        <ele>1400</ele>
        <time>2016-08-27T07:53:04.000Z</time>
      </trkpt>
      <trkpt lat="45.97935" lon="6.25494">
        <ele>1400</ele>
        <time>2016-08-27T07:53:05.000Z</time>
      </trkpt>
      <trkpt lat="45.97938" lon="6.25496">
        <ele>1399</ele>
        <time>2016-08-27T07:53:06.000Z</time>
      </trkpt>
      <trkpt lat="45.9794" lon="6.25497">
        <ele>1399</ele>
        <time>2016-08-27T07:53:07.000Z</time>
      </trkpt>
      <trkpt lat="45.97943" lon="6.25499">
        <ele>1398</ele>
        <time>2016-08-27T07:53:08.000Z</time>
      </trkpt>
      <trkpt lat="45.97945" lon="6.255">
        <ele>1398</ele>
        <time>2016-08-27T07:53:09.000Z</time>
      </trkpt>
      <trkpt lat="45.97947" lon="6.25501">
        <ele>1397</ele>
        <time>2016-08-27T07:53:10.000Z</time>
      </trkpt>
      <trkpt lat="45.97949" lon="6.25503">
        <ele>1397</ele>
        <time>2016-08-27T07:53:11.000Z</time>
      </trkpt>
      <trkpt lat="45.97951" lon="6.25504">
        <ele>1396</ele>
        <time>2016-08-27T07:53:12.000Z</time>
      </trkpt>
      <trkpt lat="45.97954" lon="6.25505">
        <ele>1396</ele>
        <time>2016-08-27T07:53:13.000Z</time>
      </trkpt>
      <trkpt lat="45.97956" lon="6.25507">
        <ele>1394</ele>
        <time>2016-08-27T07:53:14.000Z</time>
      </trkpt>
      <trkpt lat="45.97958" lon="6.25508">
        <ele>1394</ele>
        <time>2016-08-27T07:53:15.000Z</time>
      </trkpt>
      <trkpt lat="45.97959" lon="6.2551">
        <ele>1393</ele>
        <time>2016-08-27T07:53:16.000Z</time>
      </trkpt>
      <trkpt lat="45.97961" lon="6.25511">
        <ele>1393</ele>
        <time>2016-08-27T07:53:17.000Z</time>
      </trkpt>
      <trkpt lat="45.97963" lon="6.25512">
        <ele>1392</ele>
        <time>2016-08-27T07:53:18.000Z</time>
      </trkpt>
      <trkpt lat="45.97965" lon="6.25513">
        <ele>1392</ele>
        <time>2016-08-27T07:53:19.000Z</time>
      </trkpt>
      <trkpt lat="45.97967" lon="6.25514">
        <ele>1391</ele>
        <time>2016-08-27T07:53:20.000Z</time>
      </trkpt>
      <trkpt lat="45.97969" lon="6.25516">
        <ele>1391</ele>
        <time>2016-08-27T07:53:21.000Z</time>
      </trkpt>
      <trkpt lat="45.97971" lon="6.25518">
        <ele>1390</ele>
        <time>2016-08-27T07:53:22.000Z</time>
      </trkpt>
      <trkpt lat="45.97972" lon="6.2552">
        <ele>1390</ele>
        <time>2016-08-27T07:53:23.000Z</time>
      </trkpt>
      <trkpt lat="45.97974" lon="6.25522">
        <ele>1389</ele>
        <time>2016-08-27T07:53:24.000Z</time>
      </trkpt>
      <trkpt lat="45.97975" lon="6.25523">
        <ele>1389</ele>
        <time>2016-08-27T07:53:25.000Z</time>
      </trkpt>
      <trkpt lat="45.97976" lon="6.25524">
        <ele>1388</ele>
        <time>2016-08-27T07:53:26.000Z</time>
      </trkpt>
      <trkpt lat="45.97978" lon="6.25526">
        <ele>1388</ele>
        <time>2016-08-27T07:53:27.000Z</time>
      </trkpt>
      <trkpt lat="45.97979" lon="6.25527">
        <ele>1387</ele>
        <time>2016-08-27T07:53:28.000Z</time>
      </trkpt>
      <trkpt lat="45.97981" lon="6.25529">
        <ele>1387</ele>
        <time>2016-08-27T07:53:29.000Z</time>
      </trkpt>
      <trkpt lat="45.97982" lon="6.25531">
        <ele>1386</ele>
        <time>2016-08-27T07:53:30.000Z</time>
      </trkpt>
      <trkpt lat="45.97983" lon="6.25533">
        <ele>1386</ele>
        <time>2016-08-27T07:53:31.000Z</time>
      </trkpt>
      <trkpt lat="45.97984" lon="6.25536">
        <ele>1385</ele>
        <time>2016-08-27T07:53:32.000Z</time>
      </trkpt>
      <trkpt lat="45.97985" lon="6.25538">
        <ele>1385</ele>
        <time>2016-08-27T07:53:33.000Z</time>
      </trkpt>
      <trkpt lat="45.97986" lon="6.25541">
        <ele>1384</ele>
        <time>2016-08-27T07:53:34.000Z</time>
      </trkpt>
      <trkpt lat="45.97987" lon="6.25543">
        <ele>1384</ele>
        <time>2016-08-27T07:53:35.000Z</time>
      </trkpt>
      <trkpt lat="45.97989" lon="6.25545">
        <ele>1384</ele>
        <time>2016-08-27T07:53:36.000Z</time>
      </trkpt>
      <trkpt lat="45.97991" lon="6.25548">
        <ele>1384</ele>
        <time>2016-08-27T07:53:37.000Z</time>
      </trkpt>
      <trkpt lat="45.97993" lon="6.2555">
        <ele>1383</ele>
        <time>2016-08-27T07:53:38.000Z</time>
      </trkpt>
      <trkpt lat="45.97995" lon="6.25551">
        <ele>1383</ele>
        <time>2016-08-27T07:53:39.000Z</time>
      </trkpt>
      <trkpt lat="45.97996" lon="6.25553">
        <ele>1382</ele>
        <time>2016-08-27T07:53:40.000Z</time>
      </trkpt>
      <trkpt lat="45.97998" lon="6.25555">
        <ele>1382</ele>
        <time>2016-08-27T07:53:41.000Z</time>
      </trkpt>
      <trkpt lat="45.97999" lon="6.25557">
        <ele>1381</ele>
        <time>2016-08-27T07:53:42.000Z</time>
      </trkpt>
      <trkpt lat="45.98001" lon="6.25559">
        <ele>1381</ele>
        <time>2016-08-27T07:53:43.000Z</time>
      </trkpt>
      <trkpt lat="45.98002" lon="6.25561">
        <ele>1380</ele>
        <time>2016-08-27T07:53:44.000Z</time>
      </trkpt>
      <trkpt lat="45.98005" lon="6.25564">
        <ele>1380</ele>
        <time>2016-08-27T07:53:45.000Z</time>
      </trkpt>
      <trkpt lat="45.98008" lon="6.25566">
        <ele>1379</ele>
        <time>2016-08-27T07:53:46.000Z</time>
      </trkpt>
      <trkpt lat="45.9801" lon="6.25569">
        <ele>1379</ele>
        <time>2016-08-27T07:53:47.000Z</time>
      </trkpt>
      <trkpt lat="45.98012" lon="6.25572">
        <ele>1379</ele>
        <time>2016-08-27T07:53:48.000Z</time>
      </trkpt>
      <trkpt lat="45.98015" lon="6.25575">
        <ele>1379</ele>
        <time>2016-08-27T07:53:49.000Z</time>
      </trkpt>
      <trkpt lat="45.98017" lon="6.25577">
        <ele>1378</ele>
        <time>2016-08-27T07:53:50.000Z</time>
      </trkpt>
      <trkpt lat="45.9802" lon="6.2558">
        <ele>1378</ele>
        <time>2016-08-27T07:53:51.000Z</time>
      </trkpt>
      <trkpt lat="45.98023" lon="6.25582">
        <ele>1377</ele>
        <time>2016-08-27T07:53:52.000Z</time>
      </trkpt>
      <trkpt lat="45.98026" lon="6.25585">
        <ele>1377</ele>
        <time>2016-08-27T07:53:53.000Z</time>
      </trkpt>
      <trkpt lat="45.98028" lon="6.25588">
        <ele>1377</ele>
        <time>2016-08-27T07:53:54.000Z</time>
      </trkpt>
      <trkpt lat="45.9803" lon="6.25591">
        <ele>1377</ele>
        <time>2016-08-27T07:53:55.000Z</time>
      </trkpt>
      <trkpt lat="45.98032" lon="6.25594">
        <ele>1376</ele>
        <time>2016-08-27T07:53:56.000Z</time>
      </trkpt>
      <trkpt lat="45.98034" lon="6.25597">
        <ele>1376</ele>
        <time>2016-08-27T07:53:57.000Z</time>
      </trkpt>
      <trkpt lat="45.98036" lon="6.25599">
        <ele>1376</ele>
        <time>2016-08-27T07:53:58.000Z</time>
      </trkpt>
      <trkpt lat="45.98038" lon="6.25602">
        <ele>1376</ele>
        <time>2016-08-27T07:53:59.000Z</time>
      </trkpt>
      <trkpt lat="45.98039" lon="6.25604">
        <ele>1375</ele>
        <time>2016-08-27T07:54:00.000Z</time>
      </trkpt>
      <trkpt lat="45.98041" lon="6.25606">
        <ele>1375</ele>
        <time>2016-08-27T07:54:01.000Z</time>
      </trkpt>
      <trkpt lat="45.98043" lon="6.25608">
        <ele>1375</ele>
        <time>2016-08-27T07:54:02.000Z</time>
      </trkpt>
      <trkpt lat="45.98044" lon="6.2561">
        <ele>1375</ele>
        <time>2016-08-27T07:54:03.000Z</time>
      </trkpt>
      <trkpt lat="45.98046" lon="6.25613">
        <ele>1374</ele>
        <time>2016-08-27T07:54:04.000Z</time>
      </trkpt>
      <trkpt lat="45.98048" lon="6.25616">
        <ele>1374</ele>
        <time>2016-08-27T07:54:05.000Z</time>
      </trkpt>
      <trkpt lat="45.98049" lon="6.25618">
        <ele>1374</ele>
        <time>2016-08-27T07:54:06.000Z</time>
      </trkpt>
      <trkpt lat="45.98051" lon="6.25621">
        <ele>1374</ele>
        <time>2016-08-27T07:54:07.000Z</time>
      </trkpt>
      <trkpt lat="45.98053" lon="6.25624">
        <ele>1373</ele>
        <time>2016-08-27T07:54:08.000Z</time>
      </trkpt>
      <trkpt lat="45.98054" lon="6.25627">
        <ele>1373</ele>
        <time>2016-08-27T07:54:09.000Z</time>
      </trkpt>
      <trkpt lat="45.98056" lon="6.2563">
        <ele>1373</ele>
        <time>2016-08-27T07:54:10.000Z</time>
      </trkpt>
      <trkpt lat="45.98058" lon="6.25632">
        <ele>1373</ele>
        <time>2016-08-27T07:54:11.000Z</time>
      </trkpt>
      <trkpt lat="45.98059" lon="6.25635">
        <ele>1372</ele>
        <time>2016-08-27T07:54:12.000Z</time>
      </trkpt>
      <trkpt lat="45.9806" lon="6.25636">
        <ele>1372</ele>
        <time>2016-08-27T07:54:13.000Z</time>
      </trkpt>
      <trkpt lat="45.98061" lon="6.25637">
        <ele>1372</ele>
        <time>2016-08-27T07:54:14.000Z</time>
      </trkpt>
      <trkpt lat="45.98061" lon="6.25637">
        <ele>1372</ele>
        <time>2016-08-27T07:54:15.000Z</time>
      </trkpt>
      <trkpt lat="45.98061" lon="6.25636">
        <ele>1372</ele>
        <time>2016-08-27T07:54:16.000Z</time>
      </trkpt>
      <trkpt lat="45.98062" lon="6.25636">
        <ele>1372</ele>
        <time>2016-08-27T07:54:17.000Z</time>
      </trkpt>
      <trkpt lat="45.98062" lon="6.25635">
        <ele>1371</ele>
        <time>2016-08-27T07:54:18.000Z</time>
      </trkpt>
      <trkpt lat="45.98062" lon="6.25633">
        <ele>1371</ele>
        <time>2016-08-27T07:54:19.000Z</time>
      </trkpt>
      <trkpt lat="45.98062" lon="6.25632">
        <ele>1371</ele>
        <time>2016-08-27T07:54:20.000Z</time>
      </trkpt>
      <trkpt lat="45.98062" lon="6.2563">
        <ele>1371</ele>
        <time>2016-08-27T07:54:21.000Z</time>
      </trkpt>
      <trkpt lat="45.98061" lon="6.25627">
        <ele>1370</ele>
        <time>2016-08-27T07:54:22.000Z</time>
      </trkpt>
      <trkpt lat="45.98061" lon="6.25624">
        <ele>1370</ele>
        <time>2016-08-27T07:54:23.000Z</time>
      </trkpt>
      <trkpt lat="45.98061" lon="6.25621">
        <ele>1370</ele>
        <time>2016-08-27T07:54:24.000Z</time>
      </trkpt>
      <trkpt lat="45.98061" lon="6.25619">
        <ele>1370</ele>
        <time>2016-08-27T07:54:25.000Z</time>
      </trkpt>
      <trkpt lat="45.98061" lon="6.25616">
        <ele>1369</ele>
        <time>2016-08-27T07:54:26.000Z</time>
      </trkpt>
      <trkpt lat="45.9806" lon="6.25613">
        <ele>1369</ele>
        <time>2016-08-27T07:54:27.000Z</time>
      </trkpt>
      <trkpt lat="45.9806" lon="6.2561">
        <ele>1369</ele>
        <time>2016-08-27T07:54:28.000Z</time>
      </trkpt>
      <trkpt lat="45.9806" lon="6.25608">
        <ele>1369</ele>
        <time>2016-08-27T07:54:29.000Z</time>
      </trkpt>
      <trkpt lat="45.98059" lon="6.25606">
        <ele>1368</ele>
        <time>2016-08-27T07:54:30.000Z</time>
      </trkpt>
      <trkpt lat="45.98059" lon="6.25604">
        <ele>1368</ele>
        <time>2016-08-27T07:54:31.000Z</time>
      </trkpt>
      <trkpt lat="45.9806" lon="6.25603">
        <ele>1368</ele>
        <time>2016-08-27T07:54:32.000Z</time>
      </trkpt>
      <trkpt lat="45.9806" lon="6.25604">
        <ele>1368</ele>
        <time>2016-08-27T07:54:33.000Z</time>
      </trkpt>
      <trkpt lat="45.98061" lon="6.25605">
        <ele>1367</ele>
        <time>2016-08-27T07:54:34.000Z</time>
      </trkpt>
      <trkpt lat="45.98063" lon="6.25607">
        <ele>1367</ele>
        <time>2016-08-27T07:54:35.000Z</time>
      </trkpt>
      <trkpt lat="45.98063" lon="6.25609">
        <ele>1366</ele>
        <time>2016-08-27T07:54:36.000Z</time>
      </trkpt>
      <trkpt lat="45.98064" lon="6.25611">
        <ele>1366</ele>
        <time>2016-08-27T07:54:37.000Z</time>
      </trkpt>
      <trkpt lat="45.98065" lon="6.25613">
        <ele>1365</ele>
        <time>2016-08-27T07:54:38.000Z</time>
      </trkpt>
      <trkpt lat="45.98067" lon="6.25615">
        <ele>1365</ele>
        <time>2016-08-27T07:54:39.000Z</time>
      </trkpt>
      <trkpt lat="45.98068" lon="6.25617">
        <ele>1364</ele>
        <time>2016-08-27T07:54:40.000Z</time>
      </trkpt>
      <trkpt lat="45.98069" lon="6.2562">
        <ele>1364</ele>
        <time>2016-08-27T07:54:41.000Z</time>
      </trkpt>
      <trkpt lat="45.98071" lon="6.25622">
        <ele>1363</ele>
        <time>2016-08-27T07:54:42.000Z</time>
      </trkpt>
      <trkpt lat="45.98073" lon="6.25625">
        <ele>1363</ele>
        <time>2016-08-27T07:54:43.000Z</time>
      </trkpt>
      <trkpt lat="45.98074" lon="6.25626">
        <ele>1362</ele>
        <time>2016-08-27T07:54:44.000Z</time>
      </trkpt>
      <trkpt lat="45.98075" lon="6.25627">
        <ele>1362</ele>
        <time>2016-08-27T07:54:45.000Z</time>
      </trkpt>
      <trkpt lat="45.98076" lon="6.25627">
        <ele>1361</ele>
        <time>2016-08-27T07:54:46.000Z</time>
      </trkpt>
      <trkpt lat="45.98076" lon="6.25625">
        <ele>1361</ele>
        <time>2016-08-27T07:54:47.000Z</time>
      </trkpt>
      <trkpt lat="45.98076" lon="6.25624">
        <ele>1360</ele>
        <time>2016-08-27T07:54:48.000Z</time>
      </trkpt>
      <trkpt lat="45.98076" lon="6.25623">
        <ele>1360</ele>
        <time>2016-08-27T07:54:49.000Z</time>
      </trkpt>
      <trkpt lat="45.98076" lon="6.25621">
        <ele>1359</ele>
        <time>2016-08-27T07:54:50.000Z</time>
      </trkpt>
      <trkpt lat="45.98076" lon="6.2562">
        <ele>1359</ele>
        <time>2016-08-27T07:54:51.000Z</time>
      </trkpt>
      <trkpt lat="45.98076" lon="6.25618">
        <ele>1358</ele>
        <time>2016-08-27T07:54:52.000Z</time>
      </trkpt>
      <trkpt lat="45.98075" lon="6.25617">
        <ele>1358</ele>
        <time>2016-08-27T07:54:53.000Z</time>
      </trkpt>
      <trkpt lat="45.98075" lon="6.25615">
        <ele>1357</ele>
        <time>2016-08-27T07:54:54.000Z</time>
      </trkpt>
      <trkpt lat="45.98074" lon="6.25613">
        <ele>1357</ele>
        <time>2016-08-27T07:54:55.000Z</time>
      </trkpt>
      <trkpt lat="45.98074" lon="6.25611">
        <ele>1356</ele>
        <time>2016-08-27T07:54:56.000Z</time>
      </trkpt>
      <trkpt lat="45.98073" lon="6.2561">
        <ele>1356</ele>
        <time>2016-08-27T07:54:57.000Z</time>
      </trkpt>
      <trkpt lat="45.98072" lon="6.25609">
        <ele>1355</ele>
        <time>2016-08-27T07:54:58.000Z</time>
      </trkpt>
      <trkpt lat="45.98072" lon="6.25607">
        <ele>1355</ele>
        <time>2016-08-27T07:54:59.000Z</time>
      </trkpt>
      <trkpt lat="45.98071" lon="6.25607">
        <ele>1354</ele>
        <time>2016-08-27T07:55:00.000Z</time>
      </trkpt>
      <trkpt lat="45.98071" lon="6.25606">
        <ele>1354</ele>
        <time>2016-08-27T07:55:01.000Z</time>
      </trkpt>
      <trkpt lat="45.98071" lon="6.25605">
        <ele>1353</ele>
        <time>2016-08-27T07:55:02.000Z</time>
      </trkpt>
      <trkpt lat="45.9807" lon="6.25604">
        <ele>1353</ele>
        <time>2016-08-27T07:55:03.000Z</time>
      </trkpt>
      <trkpt lat="45.9807" lon="6.25603">
        <ele>1352</ele>
        <time>2016-08-27T07:55:04.000Z</time>
      </trkpt>
      <trkpt lat="45.9807" lon="6.25601">
        <ele>1352</ele>
        <time>2016-08-27T07:55:05.000Z</time>
      </trkpt>
      <trkpt lat="45.98069" lon="6.256">
        <ele>1352</ele>
        <time>2016-08-27T07:55:06.000Z</time>
      </trkpt>
      <trkpt lat="45.98069" lon="6.25598">
        <ele>1352</ele>
        <time>2016-08-27T07:55:07.000Z</time>
      </trkpt>
      <trkpt lat="45.98069" lon="6.25597">
        <ele>1351</ele>
        <time>2016-08-27T07:55:08.000Z</time>
      </trkpt>
      <trkpt lat="45.98068" lon="6.25595">
        <ele>1351</ele>
        <time>2016-08-27T07:55:09.000Z</time>
      </trkpt>
      <trkpt lat="45.98068" lon="6.25594">
        <ele>1350</ele>
        <time>2016-08-27T07:55:10.000Z</time>
      </trkpt>
      <trkpt lat="45.98068" lon="6.25592">
        <ele>1350</ele>
        <time>2016-08-27T07:55:11.000Z</time>
      </trkpt>
      <trkpt lat="45.98067" lon="6.2559">
        <ele>1349</ele>
        <time>2016-08-27T07:55:12.000Z</time>
      </trkpt>
      <trkpt lat="45.98067" lon="6.25589">
        <ele>1349</ele>
        <time>2016-08-27T07:55:13.000Z</time>
      </trkpt>
      <trkpt lat="45.98067" lon="6.25587">
        <ele>1348</ele>
        <time>2016-08-27T07:55:14.000Z</time>
      </trkpt>
      <trkpt lat="45.98066" lon="6.25586">
        <ele>1348</ele>
        <time>2016-08-27T07:55:15.000Z</time>
      </trkpt>
      <trkpt lat="45.98066" lon="6.25585">
        <ele>1347</ele>
        <time>2016-08-27T07:55:16.000Z</time>
      </trkpt>
      <trkpt lat="45.98066" lon="6.25585">
        <ele>1347</ele>
        <time>2016-08-27T07:55:17.000Z</time>
      </trkpt>
      <trkpt lat="45.98066" lon="6.25584">
        <ele>1347</ele>
        <time>2016-08-27T07:55:18.000Z</time>
      </trkpt>
      <trkpt lat="45.98065" lon="6.25583">
        <ele>1347</ele>
        <time>2016-08-27T07:55:19.000Z</time>
      </trkpt>
      <trkpt lat="45.98064" lon="6.25582">
        <ele>1346</ele>
        <time>2016-08-27T07:55:20.000Z</time>
      </trkpt>
      <trkpt lat="45.98064" lon="6.25581">
        <ele>1346</ele>
        <time>2016-08-27T07:55:21.000Z</time>
      </trkpt>
      <trkpt lat="45.98063" lon="6.2558">
        <ele>1345</ele>
        <time>2016-08-27T07:55:22.000Z</time>
      </trkpt>
      <trkpt lat="45.98062" lon="6.25579">
        <ele>1345</ele>
        <time>2016-08-27T07:55:23.000Z</time>
      </trkpt>
      <trkpt lat="45.98062" lon="6.25578">
        <ele>1344</ele>
        <time>2016-08-27T07:55:24.000Z</time>
      </trkpt>
      <trkpt lat="45.98061" lon="6.25577">
        <ele>1344</ele>
        <time>2016-08-27T07:55:25.000Z</time>
      </trkpt>
      <trkpt lat="45.98061" lon="6.25575">
        <ele>1343</ele>
        <time>2016-08-27T07:55:26.000Z</time>
      </trkpt>
      <trkpt lat="45.9806" lon="6.25574">
        <ele>1343</ele>
        <time>2016-08-27T07:55:27.000Z</time>
      </trkpt>
      <trkpt lat="45.98059" lon="6.25572">
        <ele>1342</ele>
        <time>2016-08-27T07:55:28.000Z</time>
      </trkpt>
      <trkpt lat="45.98059" lon="6.2557">
        <ele>1342</ele>
        <time>2016-08-27T07:55:29.000Z</time>
      </trkpt>
      <trkpt lat="45.98059" lon="6.25569">
        <ele>1342</ele>
        <time>2016-08-27T07:55:30.000Z</time>
      </trkpt>
      <trkpt lat="45.98059" lon="6.25567">
        <ele>1342</ele>
        <time>2016-08-27T07:55:31.000Z</time>
      </trkpt>
      <trkpt lat="45.98058" lon="6.25566">
        <ele>1341</ele>
        <time>2016-08-27T07:55:32.000Z</time>
      </trkpt>
      <trkpt lat="45.98058" lon="6.25565">
        <ele>1341</ele>
        <time>2016-08-27T07:55:33.000Z</time>
      </trkpt>
      <trkpt lat="45.98057" lon="6.25564">
        <ele>1341</ele>
        <time>2016-08-27T07:55:34.000Z</time>
      </trkpt>
      <trkpt lat="45.98056" lon="6.25563">
        <ele>1341</ele>
        <time>2016-08-27T07:55:35.000Z</time>
      </trkpt>
      <trkpt lat="45.98056" lon="6.25562">
        <ele>1340</ele>
        <time>2016-08-27T07:55:36.000Z</time>
      </trkpt>
      <trkpt lat="45.98055" lon="6.2556">
        <ele>1340</ele>
        <time>2016-08-27T07:55:37.000Z</time>
      </trkpt>
      <trkpt lat="45.98054" lon="6.25559">
        <ele>1340</ele>
        <time>2016-08-27T07:55:38.000Z</time>
      </trkpt>
      <trkpt lat="45.98054" lon="6.25557">
        <ele>1340</ele>
        <time>2016-08-27T07:55:39.000Z</time>
      </trkpt>
      <trkpt lat="45.98053" lon="6.25556">
        <ele>1340</ele>
        <time>2016-08-27T07:55:40.000Z</time>
      </trkpt>
      <trkpt lat="45.98053" lon="6.25554">
        <ele>1340</ele>
        <time>2016-08-27T07:55:41.000Z</time>
      </trkpt>
      <trkpt lat="45.98052" lon="6.25553">
        <ele>1339</ele>
        <time>2016-08-27T07:55:42.000Z</time>
      </trkpt>
      <trkpt lat="45.98052" lon="6.25551">
        <ele>1339</ele>
        <time>2016-08-27T07:55:43.000Z</time>
      </trkpt>
      <trkpt lat="45.98052" lon="6.25549">
        <ele>1339</ele>
        <time>2016-08-27T07:55:44.000Z</time>
      </trkpt>
      <trkpt lat="45.98052" lon="6.25547">
        <ele>1339</ele>
        <time>2016-08-27T07:55:45.000Z</time>
      </trkpt>
      <trkpt lat="45.98052" lon="6.25545">
        <ele>1338</ele>
        <time>2016-08-27T07:55:46.000Z</time>
      </trkpt>
      <trkpt lat="45.98052" lon="6.25543">
        <ele>1338</ele>
        <time>2016-08-27T07:55:47.000Z</time>
      </trkpt>
      <trkpt lat="45.98051" lon="6.2554">
        <ele>1338</ele>
        <time>2016-08-27T07:55:48.000Z</time>
      </trkpt>
      <trkpt lat="45.98051" lon="6.25538">
        <ele>1338</ele>
        <time>2016-08-27T07:55:49.000Z</time>
      </trkpt>
      <trkpt lat="45.98051" lon="6.25536">
        <ele>1337</ele>
        <time>2016-08-27T07:55:50.000Z</time>
      </trkpt>
      <trkpt lat="45.9805" lon="6.25534">
        <ele>1337</ele>
        <time>2016-08-27T07:55:51.000Z</time>
      </trkpt>
      <trkpt lat="45.9805" lon="6.25534">
        <ele>1336</ele>
        <time>2016-08-27T07:55:52.000Z</time>
      </trkpt>
      <trkpt lat="45.9805" lon="6.25533">
        <ele>1336</ele>
        <time>2016-08-27T07:55:53.000Z</time>
      </trkpt>
      <trkpt lat="45.9805" lon="6.25533">
        <ele>1336</ele>
        <time>2016-08-27T07:55:54.000Z</time>
      </trkpt>
      <trkpt lat="45.9805" lon="6.25533">
        <ele>1336</ele>
        <time>2016-08-27T07:55:55.000Z</time>
      </trkpt>
      <trkpt lat="45.9805" lon="6.25533">
        <ele>1336</ele>
        <time>2016-08-27T07:55:56.000Z</time>
      </trkpt>
      <trkpt lat="45.9805" lon="6.25533">
        <ele>1336</ele>
        <time>2016-08-27T07:55:57.000Z</time>
      </trkpt>
      <trkpt lat="45.9805" lon="6.25533">
        <ele>1336</ele>
        <time>2016-08-27T07:55:58.000Z</time>
      </trkpt>
      <trkpt lat="45.9805" lon="6.25533">
        <ele>1336</ele>
        <time>2016-08-27T07:55:59.000Z</time>
      </trkpt>
      <trkpt lat="45.98049" lon="6.25532">
        <ele>1336</ele>
        <time>2016-08-27T07:56:00.000Z</time>
      </trkpt>
      <trkpt lat="45.98049" lon="6.25532">
        <ele>1336</ele>
        <time>2016-08-27T07:56:01.000Z</time>
      </trkpt>
      <trkpt lat="45.9805" lon="6.2553">
        <ele>1335</ele>
        <time>2016-08-27T07:56:02.000Z</time>
      </trkpt>
      <trkpt lat="45.98049" lon="6.25529">
        <ele>1335</ele>
        <time>2016-08-27T07:56:03.000Z</time>
      </trkpt>
      <trkpt lat="45.98049" lon="6.25527">
        <ele>1335</ele>
        <time>2016-08-27T07:56:04.000Z</time>
      </trkpt>
      <trkpt lat="45.98049" lon="6.25525">
        <ele>1335</ele>
        <time>2016-08-27T07:56:05.000Z</time>
      </trkpt>
      <trkpt lat="45.98049" lon="6.25523">
        <ele>1334</ele>
        <time>2016-08-27T07:56:06.000Z</time>
      </trkpt>
      <trkpt lat="45.98048" lon="6.25521">
        <ele>1334</ele>
        <time>2016-08-27T07:56:07.000Z</time>
      </trkpt>
      <trkpt lat="45.98048" lon="6.25519">
        <ele>1333</ele>
        <time>2016-08-27T07:56:08.000Z</time>
      </trkpt>
      <trkpt lat="45.98048" lon="6.25517">
        <ele>1333</ele>
        <time>2016-08-27T07:56:09.000Z</time>
      </trkpt>
      <trkpt lat="45.98048" lon="6.25515">
        <ele>1332</ele>
        <time>2016-08-27T07:56:10.000Z</time>
      </trkpt>
      <trkpt lat="45.98048" lon="6.25513">
        <ele>1332</ele>
        <time>2016-08-27T07:56:11.000Z</time>
      </trkpt>
      <trkpt lat="45.98048" lon="6.25511">
        <ele>1331</ele>
        <time>2016-08-27T07:56:12.000Z</time>
      </trkpt>
      <trkpt lat="45.98048" lon="6.2551">
        <ele>1331</ele>
        <time>2016-08-27T07:56:13.000Z</time>
      </trkpt>
      <trkpt lat="45.98048" lon="6.25509">
        <ele>1331</ele>
        <time>2016-08-27T07:56:14.000Z</time>
      </trkpt>
      <trkpt lat="45.98048" lon="6.25507">
        <ele>1331</ele>
        <time>2016-08-27T07:56:15.000Z</time>
      </trkpt>
      <trkpt lat="45.98048" lon="6.25506">
        <ele>1330</ele>
        <time>2016-08-27T07:56:16.000Z</time>
      </trkpt>
      <trkpt lat="45.98048" lon="6.25505">
        <ele>1330</ele>
        <time>2016-08-27T07:56:17.000Z</time>
      </trkpt>
      <trkpt lat="45.98048" lon="6.25504">
        <ele>1330</ele>
        <time>2016-08-27T07:56:18.000Z</time>
      </trkpt>
      <trkpt lat="45.98048" lon="6.25503">
        <ele>1330</ele>
        <time>2016-08-27T07:56:19.000Z</time>
      </trkpt>
      <trkpt lat="45.98048" lon="6.25502">
        <ele>1329</ele>
        <time>2016-08-27T07:56:20.000Z</time>
      </trkpt>
      <trkpt lat="45.98048" lon="6.25501">
        <ele>1329</ele>
        <time>2016-08-27T07:56:21.000Z</time>
      </trkpt>
      <trkpt lat="45.98048" lon="6.25499">
        <ele>1329</ele>
        <time>2016-08-27T07:56:22.000Z</time>
      </trkpt>
      <trkpt lat="45.98048" lon="6.25498">
        <ele>1329</ele>
        <time>2016-08-27T07:56:23.000Z</time>
      </trkpt>
      <trkpt lat="45.98047" lon="6.25497">
        <ele>1329</ele>
        <time>2016-08-27T07:56:24.000Z</time>
      </trkpt>
      <trkpt lat="45.98047" lon="6.25497">
        <ele>1329</ele>
        <time>2016-08-27T07:56:25.000Z</time>
      </trkpt>
      <trkpt lat="45.98047" lon="6.25496">
        <ele>1328</ele>
        <time>2016-08-27T07:56:26.000Z</time>
      </trkpt>
      <trkpt lat="45.98046" lon="6.25495">
        <ele>1328</ele>
        <time>2016-08-27T07:56:27.000Z</time>
      </trkpt>
      <trkpt lat="45.98046" lon="6.25494">
        <ele>1328</ele>
        <time>2016-08-27T07:56:28.000Z</time>
      </trkpt>
      <trkpt lat="45.98047" lon="6.25494">
        <ele>1328</ele>
        <time>2016-08-27T07:56:29.000Z</time>
      </trkpt>
      <trkpt lat="45.98047" lon="6.25495">
        <ele>1327</ele>
        <time>2016-08-27T07:56:30.000Z</time>
      </trkpt>
      <trkpt lat="45.98048" lon="6.25495">
        <ele>1327</ele>
        <time>2016-08-27T07:56:31.000Z</time>
      </trkpt>
      <trkpt lat="45.98048" lon="6.25495">
        <ele>1327</ele>
        <time>2016-08-27T07:56:32.000Z</time>
      </trkpt>
      <trkpt lat="45.98048" lon="6.25495">
        <ele>1327</ele>
        <time>2016-08-27T07:56:33.000Z</time>
      </trkpt>
      <trkpt lat="45.98048" lon="6.25495">
        <ele>1326</ele>
        <time>2016-08-27T07:56:34.000Z</time>
      </trkpt>
      <trkpt lat="45.98048" lon="6.25495">
        <ele>1326</ele>
        <time>2016-08-27T07:56:35.000Z</time>
      </trkpt>
      <trkpt lat="45.98048" lon="6.25495">
        <ele>1326</ele>
        <time>2016-08-27T07:56:36.000Z</time>
      </trkpt>
      <trkpt lat="45.98048" lon="6.25495">
        <ele>1326</ele>
        <time>2016-08-27T07:56:37.000Z</time>
      </trkpt>
      <trkpt lat="45.98048" lon="6.25495">
        <ele>1326</ele>
        <time>2016-08-27T07:56:38.000Z</time>
      </trkpt>
      <trkpt lat="45.98048" lon="6.25495">
        <ele>1326</ele>
        <time>2016-08-27T07:56:39.000Z</time>
      </trkpt>
      <trkpt lat="45.98048" lon="6.25495">
        <ele>1325</ele>
        <time>2016-08-27T07:56:40.000Z</time>
      </trkpt>
      <trkpt lat="45.98048" lon="6.25495">
        <ele>1325</ele>
        <time>2016-08-27T07:56:41.000Z</time>
      </trkpt>
      <trkpt lat="45.98048" lon="6.25495">
        <ele>1325</ele>
        <time>2016-08-27T07:56:42.000Z</time>
      </trkpt>
      <trkpt lat="45.98048" lon="6.25495">
        <ele>1325</ele>
        <time>2016-08-27T07:56:43.000Z</time>
      </trkpt>
      <trkpt lat="45.98048" lon="6.25495">
        <ele>1325</ele>
        <time>2016-08-27T07:56:44.000Z</time>
      </trkpt>
      <trkpt lat="45.98048" lon="6.25495">
        <ele>1325</ele>
        <time>2016-08-27T07:56:45.000Z</time>
      </trkpt>
      <trkpt lat="45.98049" lon="6.25495">
        <ele>1325</ele>
        <time>2016-08-27T07:56:46.000Z</time>
      </trkpt>
      <trkpt lat="45.98049" lon="6.25496">
        <ele>1325</ele>
        <time>2016-08-27T07:56:47.000Z</time>
      </trkpt>
      <trkpt lat="45.98049" lon="6.25496">
        <ele>1325</ele>
        <time>2016-08-27T07:56:48.000Z</time>
      </trkpt>
      <trkpt lat="45.98049" lon="6.25496">
        <ele>1325</ele>
        <time>2016-08-27T07:56:49.000Z</time>
      </trkpt>
      <trkpt lat="45.98048" lon="6.25496">
        <ele>1324</ele>
        <time>2016-08-27T07:56:50.000Z</time>
      </trkpt>
      <trkpt lat="45.98048" lon="6.25496">
        <ele>1324</ele>
        <time>2016-08-27T07:56:51.000Z</time>
      </trkpt>
      <trkpt lat="45.98048" lon="6.25496">
        <ele>1324</ele>
        <time>2016-08-27T07:56:52.000Z</time>
      </trkpt>
      <trkpt lat="45.98048" lon="6.25496">
        <ele>1324</ele>
        <time>2016-08-27T07:56:53.000Z</time>
      </trkpt>
      <trkpt lat="45.98048" lon="6.25496">
        <ele>1324</ele>
        <time>2016-08-27T07:56:54.000Z</time>
      </trkpt>
      <trkpt lat="45.98048" lon="6.25497">
        <ele>1324</ele>
        <time>2016-08-27T07:56:55.000Z</time>
      </trkpt>
      <trkpt lat="45.98048" lon="6.25497">
        <ele>1324</ele>
        <time>2016-08-27T07:56:56.000Z</time>
      </trkpt>
      <trkpt lat="45.98048" lon="6.25497">
        <ele>1324</ele>
        <time>2016-08-27T07:56:57.000Z</time>
      </trkpt>
      <trkpt lat="45.98048" lon="6.25497">
        <ele>1324</ele>
        <time>2016-08-27T07:56:58.000Z</time>
      </trkpt>
      <trkpt lat="45.98048" lon="6.25497">
        <ele>1324</ele>
        <time>2016-08-27T07:56:59.000Z</time>
      </trkpt>
      <trkpt lat="45.98048" lon="6.25497">
        <ele>1323</ele>
        <time>2016-08-27T07:57:00.000Z</time>
      </trkpt>
      <trkpt lat="45.98048" lon="6.25497">
        <ele>1323</ele>
        <time>2016-08-27T07:57:01.000Z</time>
      </trkpt>
      <trkpt lat="45.98048" lon="6.25497">
        <ele>1323</ele>
        <time>2016-08-27T07:57:02.000Z</time>
      </trkpt>
      <trkpt lat="45.98048" lon="6.25497">
        <ele>1323</ele>
        <time>2016-08-27T07:57:03.000Z</time>
      </trkpt>
      <trkpt lat="45.98048" lon="6.25497">
        <ele>1323</ele>
        <time>2016-08-27T07:57:04.000Z</time>
      </trkpt>
      <trkpt lat="45.98048" lon="6.25497">
        <ele>1323</ele>
        <time>2016-08-27T07:57:05.000Z</time>
      </trkpt>
      <trkpt lat="45.98048" lon="6.25497">
        <ele>1323</ele>
        <time>2016-08-27T07:57:06.000Z</time>
      </trkpt>
      <trkpt lat="45.98048" lon="6.25497">
        <ele>1323</ele>
        <time>2016-08-27T07:57:07.000Z</time>
      </trkpt>
      <trkpt lat="45.98048" lon="6.25497">
        <ele>1323</ele>
        <time>2016-08-27T07:57:08.000Z</time>
      </trkpt>
      <trkpt lat="45.98048" lon="6.25497">
        <ele>1323</ele>
        <time>2016-08-27T07:57:09.000Z</time>
      </trkpt>
      <trkpt lat="45.98048" lon="6.25497">
        <ele>1323</ele>
        <time>2016-08-27T07:57:10.000Z</time>
      </trkpt>
      <trkpt lat="45.98048" lon="6.25497">
        <ele>1323</ele>
        <time>2016-08-27T07:57:11.000Z</time>
      </trkpt>
      <trkpt lat="45.98048" lon="6.25497">
        <ele>1323</ele>
        <time>2016-08-27T07:57:12.000Z</time>
      </trkpt>
      <trkpt lat="45.98048" lon="6.25498">
        <ele>1323</ele>
        <time>2016-08-27T07:57:13.000Z</time>
      </trkpt>
      <trkpt lat="45.98048" lon="6.25498">
        <ele>1323</ele>
        <time>2016-08-27T07:57:14.000Z</time>
      </trkpt>
      <trkpt lat="45.98048" lon="6.25498">
        <ele>1323</ele>
        <time>2016-08-27T07:57:15.000Z</time>
      </trkpt>
      <trkpt lat="45.98048" lon="6.25498">
        <ele>1323</ele>
        <time>2016-08-27T07:57:16.000Z</time>
      </trkpt>
      <trkpt lat="45.98048" lon="6.25498">
        <ele>1323</ele>
        <time>2016-08-27T07:57:17.000Z</time>
      </trkpt>
      <trkpt lat="45.98048" lon="6.25498">
        <ele>1323</ele>
        <time>2016-08-27T07:57:18.000Z</time>
      </trkpt>
      <trkpt lat="45.98048" lon="6.25498">
        <ele>1323</ele>
        <time>2016-08-27T07:57:19.000Z</time>
      </trkpt>
      <trkpt lat="45.98048" lon="6.25498">
        <ele>1323</ele>
        <time>2016-08-27T07:57:20.000Z</time>
      </trkpt>
      <trkpt lat="45.98048" lon="6.25498">
        <ele>1323</ele>
        <time>2016-08-27T07:57:21.000Z</time>
      </trkpt>
      <trkpt lat="45.98048" lon="6.25498">
        <ele>1323</ele>
        <time>2016-08-27T07:57:22.000Z</time>
      </trkpt>
      <trkpt lat="45.98048" lon="6.25498">
        <ele>1323</ele>
        <time>2016-08-27T07:57:23.000Z</time>
      </trkpt>
      <trkpt lat="45.98048" lon="6.25498">
        <ele>1323</ele>
        <time>2016-08-27T07:57:24.000Z</time>
      </trkpt>
      <trkpt lat="45.98048" lon="6.25498">
        <ele>1323</ele>
        <time>2016-08-27T07:57:25.000Z</time>
      </trkpt>
      <trkpt lat="45.98048" lon="6.25498">
        <ele>1323</ele>
        <time>2016-08-27T07:57:26.000Z</time>
      </trkpt>
      <trkpt lat="45.98049" lon="6.25499">
        <ele>1323</ele>
        <time>2016-08-27T07:57:27.000Z</time>
      </trkpt>
      <trkpt lat="45.98049" lon="6.255">
        <ele>1323</ele>
        <time>2016-08-27T07:57:28.000Z</time>
      </trkpt>
      <trkpt lat="45.98049" lon="6.255">
        <ele>1323</ele>
        <time>2016-08-27T07:57:29.000Z</time>
      </trkpt>
      <trkpt lat="45.98049" lon="6.255">
        <ele>1323</ele>
        <time>2016-08-27T07:57:30.000Z</time>
      </trkpt>
      <trkpt lat="45.98049" lon="6.255">
        <ele>1323</ele>
        <time>2016-08-27T07:57:31.000Z</time>
      </trkpt>
      <trkpt lat="45.98049" lon="6.255">
        <ele>1323</ele>
        <time>2016-08-27T07:57:32.000Z</time>
      </trkpt>
      <trkpt lat="45.98049" lon="6.255">
        <ele>1323</ele>
        <time>2016-08-27T07:57:33.000Z</time>
      </trkpt>
      <trkpt lat="45.98049" lon="6.25499">
        <ele>1323</ele>
        <time>2016-08-27T07:57:34.000Z</time>
      </trkpt>
      <trkpt lat="45.98049" lon="6.25499">
        <ele>1323</ele>
        <time>2016-08-27T07:57:35.000Z</time>
      </trkpt>
      <trkpt lat="45.9805" lon="6.255">
        <ele>1322</ele>
        <time>2016-08-27T07:57:36.000Z</time>
      </trkpt>
      <trkpt lat="45.9805" lon="6.255">
        <ele>1322</ele>
        <time>2016-08-27T07:57:37.000Z</time>
      </trkpt>
      <trkpt lat="45.9805" lon="6.255">
        <ele>1322</ele>
        <time>2016-08-27T07:57:38.000Z</time>
      </trkpt>
      <trkpt lat="45.9805" lon="6.255">
        <ele>1322</ele>
        <time>2016-08-27T07:57:39.000Z</time>
      </trkpt>
      <trkpt lat="45.98051" lon="6.255">
        <ele>1322</ele>
        <time>2016-08-27T07:57:40.000Z</time>
      </trkpt>
      <trkpt lat="45.98051" lon="6.25501">
        <ele>1322</ele>
        <time>2016-08-27T07:57:41.000Z</time>
      </trkpt>
      <trkpt lat="45.98051" lon="6.25501">
        <ele>1322</ele>
        <time>2016-08-27T07:57:42.000Z</time>
      </trkpt>
      <trkpt lat="45.98051" lon="6.25501">
        <ele>1322</ele>
        <time>2016-08-27T07:57:43.000Z</time>
      </trkpt>
      <trkpt lat="45.98051" lon="6.25501">
        <ele>1322</ele>
        <time>2016-08-27T07:57:44.000Z</time>
      </trkpt>
      <trkpt lat="45.98051" lon="6.25501">
        <ele>1322</ele>
        <time>2016-08-27T07:57:45.000Z</time>
      </trkpt>
      <trkpt lat="45.98051" lon="6.25501">
        <ele>1322</ele>
        <time>2016-08-27T07:57:46.000Z</time>
      </trkpt>
      <trkpt lat="45.98051" lon="6.25501">
        <ele>1322</ele>
        <time>2016-08-27T07:57:47.000Z</time>
      </trkpt>
      <trkpt lat="45.98051" lon="6.25501">
        <ele>1322</ele>
        <time>2016-08-27T07:57:48.000Z</time>
      </trkpt>
      <trkpt lat="45.98051" lon="6.25501">
        <ele>1322</ele>
        <time>2016-08-27T07:57:49.000Z</time>
      </trkpt>
      <trkpt lat="45.98051" lon="6.25501">
        <ele>1322</ele>
        <time>2016-08-27T07:57:50.000Z</time>
      </trkpt>
      <trkpt lat="45.98051" lon="6.25501">
        <ele>1322</ele>
        <time>2016-08-27T07:57:51.000Z</time>
      </trkpt>
      <trkpt lat="45.98051" lon="6.25501">
        <ele>1322</ele>
        <time>2016-08-27T07:57:52.000Z</time>
      </trkpt>
      <trkpt lat="45.98051" lon="6.25501">
        <ele>1322</ele>
        <time>2016-08-27T07:57:53.000Z</time>
      </trkpt>
      <trkpt lat="45.98051" lon="6.25501">
        <ele>1322</ele>
        <time>2016-08-27T07:57:54.000Z</time>
      </trkpt>
      <trkpt lat="45.98051" lon="6.25501">
        <ele>1322</ele>
        <time>2016-08-27T07:57:55.000Z</time>
      </trkpt>
      <trkpt lat="45.98051" lon="6.25501">
        <ele>1322</ele>
        <time>2016-08-27T07:57:56.000Z</time>
      </trkpt>
      <trkpt lat="45.98051" lon="6.25501">
        <ele>1322</ele>
        <time>2016-08-27T07:57:57.000Z</time>
      </trkpt>
      <trkpt lat="45.98051" lon="6.25501">
        <ele>1322</ele>
        <time>2016-08-27T07:57:58.000Z</time>
      </trkpt>
      <trkpt lat="45.98051" lon="6.25501">
        <ele>1322</ele>
        <time>2016-08-27T07:57:59.000Z</time>
      </trkpt>
      <trkpt lat="45.98051" lon="6.25501">
        <ele>1322</ele>
        <time>2016-08-27T07:58:00.000Z</time>
      </trkpt>
      <trkpt lat="45.98051" lon="6.25501">
        <ele>1322</ele>
        <time>2016-08-27T07:58:01.000Z</time>
      </trkpt>
      <trkpt lat="45.98051" lon="6.25501">
        <ele>1322</ele>
        <time>2016-08-27T07:58:02.000Z</time>
      </trkpt>
      <trkpt lat="45.98051" lon="6.25501">
        <ele>1322</ele>
        <time>2016-08-27T07:58:03.000Z</time>
      </trkpt>
      <trkpt lat="45.98051" lon="6.25501">
        <ele>1322</ele>
        <time>2016-08-27T07:58:04.000Z</time>
      </trkpt>
      <trkpt lat="45.98051" lon="6.25501">
        <ele>1322</ele>
        <time>2016-08-27T07:58:05.000Z</time>
      </trkpt>
      <trkpt lat="45.98051" lon="6.25501">
        <ele>1322</ele>
        <time>2016-08-27T07:58:06.000Z</time>
      </trkpt>
      <trkpt lat="45.98051" lon="6.25501">
        <ele>1322</ele>
        <time>2016-08-27T07:58:07.000Z</time>
      </trkpt>
      <trkpt lat="45.98051" lon="6.25501">
        <ele>1322</ele>
        <time>2016-08-27T07:58:08.000Z</time>
      </trkpt>
      <trkpt lat="45.98051" lon="6.25501">
        <ele>1322</ele>
        <time>2016-08-27T07:58:09.000Z</time>
      </trkpt>
      <trkpt lat="45.98052" lon="6.25502">
        <ele>1322</ele>
        <time>2016-08-27T07:58:10.000Z</time>
      </trkpt>
      <trkpt lat="45.98052" lon="6.25502">
        <ele>1322</ele>
        <time>2016-08-27T07:58:11.000Z</time>
      </trkpt>
      <trkpt lat="45.98052" lon="6.25503">
        <ele>1321</ele>
        <time>2016-08-27T07:58:12.000Z</time>
      </trkpt>
      <trkpt lat="45.98053" lon="6.25504">
        <ele>1321</ele>
        <time>2016-08-27T07:58:13.000Z</time>
      </trkpt>
      <trkpt lat="45.98053" lon="6.25504">
        <ele>1321</ele>
        <time>2016-08-27T07:58:14.000Z</time>
      </trkpt>
      <trkpt lat="45.98053" lon="6.25505">
        <ele>1321</ele>
        <time>2016-08-27T07:58:15.000Z</time>
      </trkpt>
      <trkpt lat="45.98054" lon="6.25506">
        <ele>1321</ele>
        <time>2016-08-27T07:58:16.000Z</time>
      </trkpt>
      <trkpt lat="45.98054" lon="6.25507">
        <ele>1321</ele>
        <time>2016-08-27T07:58:17.000Z</time>
      </trkpt>
      <trkpt lat="45.98054" lon="6.25508">
        <ele>1321</ele>
        <time>2016-08-27T07:58:18.000Z</time>
      </trkpt>
      <trkpt lat="45.98055" lon="6.2551">
        <ele>1321</ele>
        <time>2016-08-27T07:58:19.000Z</time>
      </trkpt>
      <trkpt lat="45.98055" lon="6.25511">
        <ele>1320</ele>
        <time>2016-08-27T07:58:20.000Z</time>
      </trkpt>
      <trkpt lat="45.98055" lon="6.25512">
        <ele>1320</ele>
        <time>2016-08-27T07:58:21.000Z</time>
      </trkpt>
      <trkpt lat="45.98056" lon="6.25513">
        <ele>1320</ele>
        <time>2016-08-27T07:58:22.000Z</time>
      </trkpt>
      <trkpt lat="45.98057" lon="6.25515">
        <ele>1320</ele>
        <time>2016-08-27T07:58:23.000Z</time>
      </trkpt>
      <trkpt lat="45.98057" lon="6.25516">
        <ele>1320</ele>
        <time>2016-08-27T07:58:24.000Z</time>
      </trkpt>
      <trkpt lat="45.98058" lon="6.25518">
        <ele>1320</ele>
        <time>2016-08-27T07:58:25.000Z</time>
      </trkpt>
      <trkpt lat="45.98058" lon="6.25519">
        <ele>1320</ele>
        <time>2016-08-27T07:58:26.000Z</time>
      </trkpt>
      <trkpt lat="45.98058" lon="6.25521">
        <ele>1320</ele>
        <time>2016-08-27T07:58:27.000Z</time>
      </trkpt>
      <trkpt lat="45.98059" lon="6.25522">
        <ele>1320</ele>
        <time>2016-08-27T07:58:28.000Z</time>
      </trkpt>
      <trkpt lat="45.98059" lon="6.25523">
        <ele>1320</ele>
        <time>2016-08-27T07:58:29.000Z</time>
      </trkpt>
      <trkpt lat="45.98059" lon="6.25525">
        <ele>1320</ele>
        <time>2016-08-27T07:58:30.000Z</time>
      </trkpt>
      <trkpt lat="45.9806" lon="6.25526">
        <ele>1320</ele>
        <time>2016-08-27T07:58:31.000Z</time>
      </trkpt>
      <trkpt lat="45.9806" lon="6.25528">
        <ele>1319</ele>
        <time>2016-08-27T07:58:32.000Z</time>
      </trkpt>
      <trkpt lat="45.98061" lon="6.25529">
        <ele>1319</ele>
        <time>2016-08-27T07:58:33.000Z</time>
      </trkpt>
      <trkpt lat="45.98062" lon="6.2553">
        <ele>1319</ele>
        <time>2016-08-27T07:58:34.000Z</time>
      </trkpt>
      <trkpt lat="45.98063" lon="6.25532">
        <ele>1319</ele>
        <time>2016-08-27T07:58:35.000Z</time>
      </trkpt>
      <trkpt lat="45.98063" lon="6.25533">
        <ele>1319</ele>
        <time>2016-08-27T07:58:36.000Z</time>
      </trkpt>
      <trkpt lat="45.98064" lon="6.25534">
        <ele>1319</ele>
        <time>2016-08-27T07:58:37.000Z</time>
      </trkpt>
      <trkpt lat="45.98064" lon="6.25534">
        <ele>1319</ele>
        <time>2016-08-27T07:58:38.000Z</time>
      </trkpt>
      <trkpt lat="45.98064" lon="6.25535">
        <ele>1319</ele>
        <time>2016-08-27T07:58:39.000Z</time>
      </trkpt>
      <trkpt lat="45.98065" lon="6.25535">
        <ele>1319</ele>
        <time>2016-08-27T07:58:40.000Z</time>
      </trkpt>
      <trkpt lat="45.98066" lon="6.25536">
        <ele>1319</ele>
        <time>2016-08-27T07:58:41.000Z</time>
      </trkpt>
      <trkpt lat="45.98066" lon="6.25537">
        <ele>1318</ele>
        <time>2016-08-27T07:58:42.000Z</time>
      </trkpt>
      <trkpt lat="45.98067" lon="6.25538">
        <ele>1318</ele>
        <time>2016-08-27T07:58:43.000Z</time>
      </trkpt>
      <trkpt lat="45.98068" lon="6.25539">
        <ele>1318</ele>
        <time>2016-08-27T07:58:44.000Z</time>
      </trkpt>
      <trkpt lat="45.98068" lon="6.25541">
        <ele>1318</ele>
        <time>2016-08-27T07:58:45.000Z</time>
      </trkpt>
      <trkpt lat="45.98069" lon="6.25542">
        <ele>1318</ele>
        <time>2016-08-27T07:58:46.000Z</time>
      </trkpt>
      <trkpt lat="45.9807" lon="6.25542">
        <ele>1318</ele>
        <time>2016-08-27T07:58:47.000Z</time>
      </trkpt>
      <trkpt lat="45.9807" lon="6.25542">
        <ele>1318</ele>
        <time>2016-08-27T07:58:48.000Z</time>
      </trkpt>
      <trkpt lat="45.98071" lon="6.25542">
        <ele>1318</ele>
        <time>2016-08-27T07:58:49.000Z</time>
      </trkpt>
      <trkpt lat="45.98071" lon="6.25542">
        <ele>1318</ele>
        <time>2016-08-27T07:58:50.000Z</time>
      </trkpt>
      <trkpt lat="45.98072" lon="6.25541">
        <ele>1318</ele>
        <time>2016-08-27T07:58:51.000Z</time>
      </trkpt>
      <trkpt lat="45.98073" lon="6.2554">
        <ele>1318</ele>
        <time>2016-08-27T07:58:52.000Z</time>
      </trkpt>
      <trkpt lat="45.98073" lon="6.25539">
        <ele>1318</ele>
        <time>2016-08-27T07:58:53.000Z</time>
      </trkpt>
      <trkpt lat="45.98074" lon="6.25537">
        <ele>1317</ele>
        <time>2016-08-27T07:58:54.000Z</time>
      </trkpt>
      <trkpt lat="45.98074" lon="6.25536">
        <ele>1317</ele>
        <time>2016-08-27T07:58:55.000Z</time>
      </trkpt>
      <trkpt lat="45.98075" lon="6.25535">
        <ele>1317</ele>
        <time>2016-08-27T07:58:56.000Z</time>
      </trkpt>
      <trkpt lat="45.98075" lon="6.25534">
        <ele>1317</ele>
        <time>2016-08-27T07:58:57.000Z</time>
      </trkpt>
      <trkpt lat="45.98075" lon="6.25533">
        <ele>1317</ele>
        <time>2016-08-27T07:58:58.000Z</time>
      </trkpt>
      <trkpt lat="45.98075" lon="6.25532">
        <ele>1317</ele>
        <time>2016-08-27T07:58:59.000Z</time>
      </trkpt>
      <trkpt lat="45.98075" lon="6.2553">
        <ele>1316</ele>
        <time>2016-08-27T07:59:00.000Z</time>
      </trkpt>
      <trkpt lat="45.98075" lon="6.25529">
        <ele>1316</ele>
        <time>2016-08-27T07:59:01.000Z</time>
      </trkpt>
      <trkpt lat="45.98075" lon="6.25528">
        <ele>1316</ele>
        <time>2016-08-27T07:59:02.000Z</time>
      </trkpt>
      <trkpt lat="45.98075" lon="6.25527">
        <ele>1316</ele>
        <time>2016-08-27T07:59:03.000Z</time>
      </trkpt>
      <trkpt lat="45.98075" lon="6.25526">
        <ele>1315</ele>
        <time>2016-08-27T07:59:04.000Z</time>
      </trkpt>
      <trkpt lat="45.98075" lon="6.25525">
        <ele>1315</ele>
        <time>2016-08-27T07:59:05.000Z</time>
      </trkpt>
      <trkpt lat="45.98075" lon="6.25523">
        <ele>1315</ele>
        <time>2016-08-27T07:59:06.000Z</time>
      </trkpt>
      <trkpt lat="45.98075" lon="6.25523">
        <ele>1315</ele>
        <time>2016-08-27T07:59:07.000Z</time>
      </trkpt>
      <trkpt lat="45.98075" lon="6.25522">
        <ele>1314</ele>
        <time>2016-08-27T07:59:08.000Z</time>
      </trkpt>
      <trkpt lat="45.98075" lon="6.25521">
        <ele>1314</ele>
        <time>2016-08-27T07:59:09.000Z</time>
      </trkpt>
      <trkpt lat="45.98075" lon="6.25521">
        <ele>1314</ele>
        <time>2016-08-27T07:59:10.000Z</time>
      </trkpt>
      <trkpt lat="45.98074" lon="6.2552">
        <ele>1314</ele>
        <time>2016-08-27T07:59:11.000Z</time>
      </trkpt>
      <trkpt lat="45.98074" lon="6.2552">
        <ele>1314</ele>
        <time>2016-08-27T07:59:12.000Z</time>
      </trkpt>
      <trkpt lat="45.98074" lon="6.25519">
        <ele>1314</ele>
        <time>2016-08-27T07:59:13.000Z</time>
      </trkpt>
      <trkpt lat="45.98074" lon="6.25519">
        <ele>1313</ele>
        <time>2016-08-27T07:59:14.000Z</time>
      </trkpt>
      <trkpt lat="45.98074" lon="6.2552">
        <ele>1313</ele>
        <time>2016-08-27T07:59:15.000Z</time>
      </trkpt>
      <trkpt lat="45.98074" lon="6.25521">
        <ele>1313</ele>
        <time>2016-08-27T07:59:16.000Z</time>
      </trkpt>
      <trkpt lat="45.98075" lon="6.25522">
        <ele>1313</ele>
        <time>2016-08-27T07:59:17.000Z</time>
      </trkpt>
      <trkpt lat="45.98075" lon="6.25523">
        <ele>1312</ele>
        <time>2016-08-27T07:59:18.000Z</time>
      </trkpt>
      <trkpt lat="45.98076" lon="6.25523">
        <ele>1312</ele>
        <time>2016-08-27T07:59:19.000Z</time>
      </trkpt>
      <trkpt lat="45.98076" lon="6.25524">
        <ele>1312</ele>
        <time>2016-08-27T07:59:20.000Z</time>
      </trkpt>
      <trkpt lat="45.98077" lon="6.25525">
        <ele>1312</ele>
        <time>2016-08-27T07:59:21.000Z</time>
      </trkpt>
      <trkpt lat="45.98078" lon="6.25526">
        <ele>1311</ele>
        <time>2016-08-27T07:59:22.000Z</time>
      </trkpt>
      <trkpt lat="45.98078" lon="6.25527">
        <ele>1311</ele>
        <time>2016-08-27T07:59:23.000Z</time>
      </trkpt>
      <trkpt lat="45.98079" lon="6.25528">
        <ele>1311</ele>
        <time>2016-08-27T07:59:24.000Z</time>
      </trkpt>
      <trkpt lat="45.98079" lon="6.25529">
        <ele>1311</ele>
        <time>2016-08-27T07:59:25.000Z</time>
      </trkpt>
      <trkpt lat="45.98079" lon="6.25529">
        <ele>1310</ele>
        <time>2016-08-27T07:59:26.000Z</time>
      </trkpt>
      <trkpt lat="45.9808" lon="6.2553">
        <ele>1310</ele>
        <time>2016-08-27T07:59:27.000Z</time>
      </trkpt>
      <trkpt lat="45.9808" lon="6.25532">
        <ele>1310</ele>
        <time>2016-08-27T07:59:28.000Z</time>
      </trkpt>
      <trkpt lat="45.98081" lon="6.25533">
        <ele>1310</ele>
        <time>2016-08-27T07:59:29.000Z</time>
      </trkpt>
      <trkpt lat="45.98081" lon="6.25533">
        <ele>1309</ele>
        <time>2016-08-27T07:59:30.000Z</time>
      </trkpt>
      <trkpt lat="45.98081" lon="6.25533">
        <ele>1309</ele>
        <time>2016-08-27T07:59:31.000Z</time>
      </trkpt>
      <trkpt lat="45.98081" lon="6.25535">
        <ele>1309</ele>
        <time>2016-08-27T07:59:32.000Z</time>
      </trkpt>
      <trkpt lat="45.98081" lon="6.25536">
        <ele>1309</ele>
        <time>2016-08-27T07:59:33.000Z</time>
      </trkpt>
      <trkpt lat="45.98081" lon="6.25537">
        <ele>1308</ele>
        <time>2016-08-27T07:59:34.000Z</time>
      </trkpt>
      <trkpt lat="45.98081" lon="6.25539">
        <ele>1308</ele>
        <time>2016-08-27T07:59:35.000Z</time>
      </trkpt>
      <trkpt lat="45.98082" lon="6.2554">
        <ele>1308</ele>
        <time>2016-08-27T07:59:36.000Z</time>
      </trkpt>
      <trkpt lat="45.98083" lon="6.25542">
        <ele>1308</ele>
        <time>2016-08-27T07:59:37.000Z</time>
      </trkpt>
      <trkpt lat="45.98083" lon="6.25543">
        <ele>1308</ele>
        <time>2016-08-27T07:59:38.000Z</time>
      </trkpt>
      <trkpt lat="45.98084" lon="6.25543">
        <ele>1308</ele>
        <time>2016-08-27T07:59:39.000Z</time>
      </trkpt>
      <trkpt lat="45.98084" lon="6.25543">
        <ele>1307</ele>
        <time>2016-08-27T07:59:40.000Z</time>
      </trkpt>
      <trkpt lat="45.98084" lon="6.25543">
        <ele>1307</ele>
        <time>2016-08-27T07:59:41.000Z</time>
      </trkpt>
      <trkpt lat="45.98085" lon="6.25543">
        <ele>1307</ele>
        <time>2016-08-27T07:59:42.000Z</time>
      </trkpt>
      <trkpt lat="45.98085" lon="6.25542">
        <ele>1307</ele>
        <time>2016-08-27T07:59:43.000Z</time>
      </trkpt>
      <trkpt lat="45.98086" lon="6.2554">
        <ele>1306</ele>
        <time>2016-08-27T07:59:44.000Z</time>
      </trkpt>
      <trkpt lat="45.98086" lon="6.25539">
        <ele>1306</ele>
        <time>2016-08-27T07:59:45.000Z</time>
      </trkpt>
      <trkpt lat="45.98087" lon="6.25537">
        <ele>1306</ele>
        <time>2016-08-27T07:59:46.000Z</time>
      </trkpt>
      <trkpt lat="45.98087" lon="6.25534">
        <ele>1306</ele>
        <time>2016-08-27T07:59:47.000Z</time>
      </trkpt>
      <trkpt lat="45.98087" lon="6.25532">
        <ele>1305</ele>
        <time>2016-08-27T07:59:48.000Z</time>
      </trkpt>
      <trkpt lat="45.98087" lon="6.25531">
        <ele>1305</ele>
        <time>2016-08-27T07:59:49.000Z</time>
      </trkpt>
      <trkpt lat="45.98087" lon="6.2553">
        <ele>1304</ele>
        <time>2016-08-27T07:59:50.000Z</time>
      </trkpt>
      <trkpt lat="45.98087" lon="6.25528">
        <ele>1304</ele>
        <time>2016-08-27T07:59:51.000Z</time>
      </trkpt>
      <trkpt lat="45.98087" lon="6.25528">
        <ele>1303</ele>
        <time>2016-08-27T07:59:52.000Z</time>
      </trkpt>
      <trkpt lat="45.98087" lon="6.25527">
        <ele>1303</ele>
        <time>2016-08-27T07:59:53.000Z</time>
      </trkpt>
      <trkpt lat="45.98086" lon="6.25527">
        <ele>1302</ele>
        <time>2016-08-27T07:59:54.000Z</time>
      </trkpt>
      <trkpt lat="45.98086" lon="6.25527">
        <ele>1302</ele>
        <time>2016-08-27T07:59:55.000Z</time>
      </trkpt>
      <trkpt lat="45.98085" lon="6.25527">
        <ele>1301</ele>
        <time>2016-08-27T07:59:56.000Z</time>
      </trkpt>
      <trkpt lat="45.98085" lon="6.25527">
        <ele>1301</ele>
        <time>2016-08-27T07:59:57.000Z</time>
      </trkpt>
      <trkpt lat="45.98085" lon="6.25527">
        <ele>1301</ele>
        <time>2016-08-27T07:59:58.000Z</time>
      </trkpt>
      <trkpt lat="45.98085" lon="6.25527">
        <ele>1301</ele>
        <time>2016-08-27T07:59:59.000Z</time>
      </trkpt>
      <trkpt lat="45.98085" lon="6.25526">
        <ele>1300</ele>
        <time>2016-08-27T08:00:00.000Z</time>
      </trkpt>
      <trkpt lat="45.98084" lon="6.25526">
        <ele>1300</ele>
        <time>2016-08-27T08:00:01.000Z</time>
      </trkpt>
      <trkpt lat="45.98084" lon="6.25525">
        <ele>1300</ele>
        <time>2016-08-27T08:00:02.000Z</time>
      </trkpt>
      <trkpt lat="45.98084" lon="6.25525">
        <ele>1300</ele>
        <time>2016-08-27T08:00:03.000Z</time>
      </trkpt>
      <trkpt lat="45.98084" lon="6.25524">
        <ele>1299</ele>
        <time>2016-08-27T08:00:04.000Z</time>
      </trkpt>
      <trkpt lat="45.98083" lon="6.25523">
        <ele>1299</ele>
        <time>2016-08-27T08:00:05.000Z</time>
      </trkpt>
      <trkpt lat="45.98083" lon="6.25522">
        <ele>1299</ele>
        <time>2016-08-27T08:00:06.000Z</time>
      </trkpt>
      <trkpt lat="45.98083" lon="6.25521">
        <ele>1299</ele>
        <time>2016-08-27T08:00:07.000Z</time>
      </trkpt>
      <trkpt lat="45.98082" lon="6.2552">
        <ele>1298</ele>
        <time>2016-08-27T08:00:08.000Z</time>
      </trkpt>
      <trkpt lat="45.98082" lon="6.25519">
        <ele>1298</ele>
        <time>2016-08-27T08:00:09.000Z</time>
      </trkpt>
      <trkpt lat="45.98082" lon="6.25517">
        <ele>1298</ele>
        <time>2016-08-27T08:00:10.000Z</time>
      </trkpt>
      <trkpt lat="45.98082" lon="6.25516">
        <ele>1298</ele>
        <time>2016-08-27T08:00:11.000Z</time>
      </trkpt>
      <trkpt lat="45.98081" lon="6.25515">
        <ele>1297</ele>
        <time>2016-08-27T08:00:12.000Z</time>
      </trkpt>
      <trkpt lat="45.98081" lon="6.25514">
        <ele>1297</ele>
        <time>2016-08-27T08:00:13.000Z</time>
      </trkpt>
      <trkpt lat="45.98081" lon="6.25513">
        <ele>1297</ele>
        <time>2016-08-27T08:00:14.000Z</time>
      </trkpt>
      <trkpt lat="45.98081" lon="6.25512">
        <ele>1297</ele>
        <time>2016-08-27T08:00:15.000Z</time>
      </trkpt>
      <trkpt lat="45.98081" lon="6.2551">
        <ele>1296</ele>
        <time>2016-08-27T08:00:16.000Z</time>
      </trkpt>
      <trkpt lat="45.98081" lon="6.25509">
        <ele>1296</ele>
        <time>2016-08-27T08:00:17.000Z</time>
      </trkpt>
      <trkpt lat="45.9808" lon="6.25508">
        <ele>1296</ele>
        <time>2016-08-27T08:00:18.000Z</time>
      </trkpt>
      <trkpt lat="45.9808" lon="6.25506">
        <ele>1296</ele>
        <time>2016-08-27T08:00:19.000Z</time>
      </trkpt>
      <trkpt lat="45.9808" lon="6.25505">
        <ele>1295</ele>
        <time>2016-08-27T08:00:20.000Z</time>
      </trkpt>
      <trkpt lat="45.9808" lon="6.25504">
        <ele>1295</ele>
        <time>2016-08-27T08:00:21.000Z</time>
      </trkpt>
      <trkpt lat="45.9808" lon="6.25502">
        <ele>1295</ele>
        <time>2016-08-27T08:00:22.000Z</time>
      </trkpt>
      <trkpt lat="45.9808" lon="6.25502">
        <ele>1295</ele>
        <time>2016-08-27T08:00:23.000Z</time>
      </trkpt>
      <trkpt lat="45.9808" lon="6.25501">
        <ele>1294</ele>
        <time>2016-08-27T08:00:24.000Z</time>
      </trkpt>
      <trkpt lat="45.98079" lon="6.25499">
        <ele>1294</ele>
        <time>2016-08-27T08:00:25.000Z</time>
      </trkpt>
      <trkpt lat="45.98079" lon="6.25497">
        <ele>1293</ele>
        <time>2016-08-27T08:00:26.000Z</time>
      </trkpt>
      <trkpt lat="45.98078" lon="6.25496">
        <ele>1293</ele>
        <time>2016-08-27T08:00:27.000Z</time>
      </trkpt>
      <trkpt lat="45.98078" lon="6.25494">
        <ele>1293</ele>
        <time>2016-08-27T08:00:28.000Z</time>
      </trkpt>
      <trkpt lat="45.98077" lon="6.25493">
        <ele>1293</ele>
        <time>2016-08-27T08:00:29.000Z</time>
      </trkpt>
      <trkpt lat="45.98077" lon="6.25492">
        <ele>1293</ele>
        <time>2016-08-27T08:00:30.000Z</time>
      </trkpt>
      <trkpt lat="45.98077" lon="6.25491">
        <ele>1293</ele>
        <time>2016-08-27T08:00:31.000Z</time>
      </trkpt>
      <trkpt lat="45.98076" lon="6.2549">
        <ele>1292</ele>
        <time>2016-08-27T08:00:32.000Z</time>
      </trkpt>
      <trkpt lat="45.98076" lon="6.25488">
        <ele>1292</ele>
        <time>2016-08-27T08:00:33.000Z</time>
      </trkpt>
      <trkpt lat="45.98076" lon="6.25488">
        <ele>1292</ele>
        <time>2016-08-27T08:00:34.000Z</time>
      </trkpt>
      <trkpt lat="45.98076" lon="6.25487">
        <ele>1292</ele>
        <time>2016-08-27T08:00:35.000Z</time>
      </trkpt>
      <trkpt lat="45.98076" lon="6.25485">
        <ele>1291</ele>
        <time>2016-08-27T08:00:36.000Z</time>
      </trkpt>
      <trkpt lat="45.98076" lon="6.25484">
        <ele>1291</ele>
        <time>2016-08-27T08:00:37.000Z</time>
      </trkpt>
      <trkpt lat="45.98075" lon="6.25484">
        <ele>1291</ele>
        <time>2016-08-27T08:00:38.000Z</time>
      </trkpt>
      <trkpt lat="45.98075" lon="6.25483">
        <ele>1291</ele>
        <time>2016-08-27T08:00:39.000Z</time>
      </trkpt>
      <trkpt lat="45.98074" lon="6.25481">
        <ele>1291</ele>
        <time>2016-08-27T08:00:40.000Z</time>
      </trkpt>
      <trkpt lat="45.98074" lon="6.25479">
        <ele>1291</ele>
        <time>2016-08-27T08:00:41.000Z</time>
      </trkpt>
      <trkpt lat="45.98074" lon="6.25478">
        <ele>1290</ele>
        <time>2016-08-27T08:00:42.000Z</time>
      </trkpt>
      <trkpt lat="45.98073" lon="6.25476">
        <ele>1290</ele>
        <time>2016-08-27T08:00:43.000Z</time>
      </trkpt>
      <trkpt lat="45.98073" lon="6.25475">
        <ele>1290</ele>
        <time>2016-08-27T08:00:44.000Z</time>
      </trkpt>
      <trkpt lat="45.98072" lon="6.25473">
        <ele>1290</ele>
        <time>2016-08-27T08:00:45.000Z</time>
      </trkpt>
      <trkpt lat="45.98072" lon="6.25472">
        <ele>1290</ele>
        <time>2016-08-27T08:00:46.000Z</time>
      </trkpt>
      <trkpt lat="45.98072" lon="6.2547">
        <ele>1290</ele>
        <time>2016-08-27T08:00:47.000Z</time>
      </trkpt>
      <trkpt lat="45.98072" lon="6.25469">
        <ele>1289</ele>
        <time>2016-08-27T08:00:48.000Z</time>
      </trkpt>
      <trkpt lat="45.98071" lon="6.25468">
        <ele>1289</ele>
        <time>2016-08-27T08:00:49.000Z</time>
      </trkpt>
      <trkpt lat="45.98071" lon="6.25467">
        <ele>1289</ele>
        <time>2016-08-27T08:00:50.000Z</time>
      </trkpt>
      <trkpt lat="45.98071" lon="6.25465">
        <ele>1289</ele>
        <time>2016-08-27T08:00:51.000Z</time>
      </trkpt>
      <trkpt lat="45.98071" lon="6.25464">
        <ele>1288</ele>
        <time>2016-08-27T08:00:52.000Z</time>
      </trkpt>
      <trkpt lat="45.98071" lon="6.25463">
        <ele>1288</ele>
        <time>2016-08-27T08:00:53.000Z</time>
      </trkpt>
      <trkpt lat="45.9807" lon="6.25462">
        <ele>1288</ele>
        <time>2016-08-27T08:00:54.000Z</time>
      </trkpt>
      <trkpt lat="45.9807" lon="6.2546">
        <ele>1288</ele>
        <time>2016-08-27T08:00:55.000Z</time>
      </trkpt>
      <trkpt lat="45.9807" lon="6.25458">
        <ele>1287</ele>
        <time>2016-08-27T08:00:56.000Z</time>
      </trkpt>
      <trkpt lat="45.98069" lon="6.25457">
        <ele>1287</ele>
        <time>2016-08-27T08:00:57.000Z</time>
      </trkpt>
      <trkpt lat="45.98069" lon="6.25456">
        <ele>1287</ele>
        <time>2016-08-27T08:00:58.000Z</time>
      </trkpt>
      <trkpt lat="45.98069" lon="6.25455">
        <ele>1287</ele>
        <time>2016-08-27T08:00:59.000Z</time>
      </trkpt>
      <trkpt lat="45.98069" lon="6.25454">
        <ele>1286</ele>
        <time>2016-08-27T08:01:00.000Z</time>
      </trkpt>
      <trkpt lat="45.98069" lon="6.25453">
        <ele>1286</ele>
        <time>2016-08-27T08:01:01.000Z</time>
      </trkpt>
      <trkpt lat="45.98069" lon="6.25452">
        <ele>1285</ele>
        <time>2016-08-27T08:01:02.000Z</time>
      </trkpt>
      <trkpt lat="45.98069" lon="6.25451">
        <ele>1285</ele>
        <time>2016-08-27T08:01:03.000Z</time>
      </trkpt>
      <trkpt lat="45.98068" lon="6.2545">
        <ele>1285</ele>
        <time>2016-08-27T08:01:04.000Z</time>
      </trkpt>
      <trkpt lat="45.98068" lon="6.25448">
        <ele>1285</ele>
        <time>2016-08-27T08:01:05.000Z</time>
      </trkpt>
      <trkpt lat="45.98068" lon="6.25447">
        <ele>1284</ele>
        <time>2016-08-27T08:01:06.000Z</time>
      </trkpt>
      <trkpt lat="45.98068" lon="6.25446">
        <ele>1284</ele>
        <time>2016-08-27T08:01:07.000Z</time>
      </trkpt>
      <trkpt lat="45.98068" lon="6.25444">
        <ele>1284</ele>
        <time>2016-08-27T08:01:08.000Z</time>
      </trkpt>
      <trkpt lat="45.98068" lon="6.25442">
        <ele>1284</ele>
        <time>2016-08-27T08:01:09.000Z</time>
      </trkpt>
      <trkpt lat="45.98067" lon="6.25441">
        <ele>1283</ele>
        <time>2016-08-27T08:01:10.000Z</time>
      </trkpt>
      <trkpt lat="45.98067" lon="6.2544">
        <ele>1283</ele>
        <time>2016-08-27T08:01:11.000Z</time>
      </trkpt>
      <trkpt lat="45.98067" lon="6.25438">
        <ele>1283</ele>
        <time>2016-08-27T08:01:12.000Z</time>
      </trkpt>
      <trkpt lat="45.98066" lon="6.25437">
        <ele>1283</ele>
        <time>2016-08-27T08:01:13.000Z</time>
      </trkpt>
      <trkpt lat="45.98066" lon="6.25435">
        <ele>1283</ele>
        <time>2016-08-27T08:01:14.000Z</time>
      </trkpt>
      <trkpt lat="45.98065" lon="6.25434">
        <ele>1283</ele>
        <time>2016-08-27T08:01:15.000Z</time>
      </trkpt>
      <trkpt lat="45.98065" lon="6.25432">
        <ele>1283</ele>
        <time>2016-08-27T08:01:16.000Z</time>
      </trkpt>
      <trkpt lat="45.98064" lon="6.2543">
        <ele>1283</ele>
        <time>2016-08-27T08:01:17.000Z</time>
      </trkpt>
      <trkpt lat="45.98064" lon="6.25429">
        <ele>1282</ele>
        <time>2016-08-27T08:01:18.000Z</time>
      </trkpt>
      <trkpt lat="45.98063" lon="6.25427">
        <ele>1282</ele>
        <time>2016-08-27T08:01:19.000Z</time>
      </trkpt>
      <trkpt lat="45.98063" lon="6.25426">
        <ele>1282</ele>
        <time>2016-08-27T08:01:20.000Z</time>
      </trkpt>
      <trkpt lat="45.98063" lon="6.25424">
        <ele>1282</ele>
        <time>2016-08-27T08:01:21.000Z</time>
      </trkpt>
      <trkpt lat="45.98062" lon="6.25422">
        <ele>1281</ele>
        <time>2016-08-27T08:01:22.000Z</time>
      </trkpt>
      <trkpt lat="45.98062" lon="6.25421">
        <ele>1281</ele>
        <time>2016-08-27T08:01:23.000Z</time>
      </trkpt>
      <trkpt lat="45.98062" lon="6.2542">
        <ele>1281</ele>
        <time>2016-08-27T08:01:24.000Z</time>
      </trkpt>
      <trkpt lat="45.98062" lon="6.25418">
        <ele>1281</ele>
        <time>2016-08-27T08:01:25.000Z</time>
      </trkpt>
      <trkpt lat="45.98061" lon="6.25416">
        <ele>1280</ele>
        <time>2016-08-27T08:01:26.000Z</time>
      </trkpt>
      <trkpt lat="45.9806" lon="6.25415">
        <ele>1280</ele>
        <time>2016-08-27T08:01:27.000Z</time>
      </trkpt>
      <trkpt lat="45.98059" lon="6.25413">
        <ele>1280</ele>
        <time>2016-08-27T08:01:28.000Z</time>
      </trkpt>
      <trkpt lat="45.98059" lon="6.25412">
        <ele>1280</ele>
        <time>2016-08-27T08:01:29.000Z</time>
      </trkpt>
      <trkpt lat="45.98058" lon="6.25411">
        <ele>1280</ele>
        <time>2016-08-27T08:01:30.000Z</time>
      </trkpt>
      <trkpt lat="45.98058" lon="6.2541">
        <ele>1280</ele>
        <time>2016-08-27T08:01:31.000Z</time>
      </trkpt>
      <trkpt lat="45.98057" lon="6.25409">
        <ele>1279</ele>
        <time>2016-08-27T08:01:32.000Z</time>
      </trkpt>
      <trkpt lat="45.98057" lon="6.25406">
        <ele>1279</ele>
        <time>2016-08-27T08:01:33.000Z</time>
      </trkpt>
      <trkpt lat="45.98056" lon="6.25405">
        <ele>1278</ele>
        <time>2016-08-27T08:01:34.000Z</time>
      </trkpt>
      <trkpt lat="45.98056" lon="6.25403">
        <ele>1278</ele>
        <time>2016-08-27T08:01:35.000Z</time>
      </trkpt>
      <trkpt lat="45.98056" lon="6.25401">
        <ele>1277</ele>
        <time>2016-08-27T08:01:36.000Z</time>
      </trkpt>
      <trkpt lat="45.98055" lon="6.25399">
        <ele>1277</ele>
        <time>2016-08-27T08:01:37.000Z</time>
      </trkpt>
      <trkpt lat="45.98055" lon="6.25398">
        <ele>1277</ele>
        <time>2016-08-27T08:01:38.000Z</time>
      </trkpt>
      <trkpt lat="45.98055" lon="6.25396">
        <ele>1277</ele>
        <time>2016-08-27T08:01:39.000Z</time>
      </trkpt>
      <trkpt lat="45.98055" lon="6.25395">
        <ele>1276</ele>
        <time>2016-08-27T08:01:40.000Z</time>
      </trkpt>
      <trkpt lat="45.98054" lon="6.25393">
        <ele>1276</ele>
        <time>2016-08-27T08:01:41.000Z</time>
      </trkpt>
      <trkpt lat="45.98054" lon="6.25392">
        <ele>1275</ele>
        <time>2016-08-27T08:01:42.000Z</time>
      </trkpt>
      <trkpt lat="45.98054" lon="6.2539">
        <ele>1275</ele>
        <time>2016-08-27T08:01:43.000Z</time>
      </trkpt>
      <trkpt lat="45.98054" lon="6.25389">
        <ele>1274</ele>
        <time>2016-08-27T08:01:44.000Z</time>
      </trkpt>
      <trkpt lat="45.98054" lon="6.25388">
        <ele>1274</ele>
        <time>2016-08-27T08:01:45.000Z</time>
      </trkpt>
      <trkpt lat="45.98053" lon="6.25387">
        <ele>1274</ele>
        <time>2016-08-27T08:01:46.000Z</time>
      </trkpt>
      <trkpt lat="45.98053" lon="6.25386">
        <ele>1274</ele>
        <time>2016-08-27T08:01:47.000Z</time>
      </trkpt>
      <trkpt lat="45.98053" lon="6.25385">
        <ele>1273</ele>
        <time>2016-08-27T08:01:48.000Z</time>
      </trkpt>
      <trkpt lat="45.98052" lon="6.25383">
        <ele>1273</ele>
        <time>2016-08-27T08:01:49.000Z</time>
      </trkpt>
      <trkpt lat="45.98052" lon="6.25382">
        <ele>1273</ele>
        <time>2016-08-27T08:01:50.000Z</time>
      </trkpt>
      <trkpt lat="45.98051" lon="6.25381">
        <ele>1273</ele>
        <time>2016-08-27T08:01:51.000Z</time>
      </trkpt>
      <trkpt lat="45.98051" lon="6.2538">
        <ele>1272</ele>
        <time>2016-08-27T08:01:52.000Z</time>
      </trkpt>
      <trkpt lat="45.98051" lon="6.25379">
        <ele>1272</ele>
        <time>2016-08-27T08:01:53.000Z</time>
      </trkpt>
      <trkpt lat="45.9805" lon="6.25379">
        <ele>1272</ele>
        <time>2016-08-27T08:01:54.000Z</time>
      </trkpt>
      <trkpt lat="45.9805" lon="6.25378">
        <ele>1272</ele>
        <time>2016-08-27T08:01:55.000Z</time>
      </trkpt>
      <trkpt lat="45.9805" lon="6.25377">
        <ele>1271</ele>
        <time>2016-08-27T08:01:56.000Z</time>
      </trkpt>
      <trkpt lat="45.9805" lon="6.25376">
        <ele>1271</ele>
        <time>2016-08-27T08:01:57.000Z</time>
      </trkpt>
      <trkpt lat="45.9805" lon="6.25375">
        <ele>1271</ele>
        <time>2016-08-27T08:01:58.000Z</time>
      </trkpt>
      <trkpt lat="45.9805" lon="6.25374">
        <ele>1271</ele>
        <time>2016-08-27T08:01:59.000Z</time>
      </trkpt>
      <trkpt lat="45.9805" lon="6.25374">
        <ele>1270</ele>
        <time>2016-08-27T08:02:00.000Z</time>
      </trkpt>
      <trkpt lat="45.98049" lon="6.25373">
        <ele>1270</ele>
        <time>2016-08-27T08:02:01.000Z</time>
      </trkpt>
      <trkpt lat="45.98049" lon="6.25373">
        <ele>1270</ele>
        <time>2016-08-27T08:02:02.000Z</time>
      </trkpt>
      <trkpt lat="45.98049" lon="6.25372">
        <ele>1270</ele>
        <time>2016-08-27T08:02:03.000Z</time>
      </trkpt>
      <trkpt lat="45.98049" lon="6.25371">
        <ele>1270</ele>
        <time>2016-08-27T08:02:04.000Z</time>
      </trkpt>
      <trkpt lat="45.98049" lon="6.2537">
        <ele>1270</ele>
        <time>2016-08-27T08:02:05.000Z</time>
      </trkpt>
      <trkpt lat="45.98049" lon="6.25369">
        <ele>1269</ele>
        <time>2016-08-27T08:02:06.000Z</time>
      </trkpt>
      <trkpt lat="45.98048" lon="6.25368">
        <ele>1269</ele>
        <time>2016-08-27T08:02:07.000Z</time>
      </trkpt>
      <trkpt lat="45.98048" lon="6.25367">
        <ele>1269</ele>
        <time>2016-08-27T08:02:08.000Z</time>
      </trkpt>
      <trkpt lat="45.98048" lon="6.25366">
        <ele>1269</ele>
        <time>2016-08-27T08:02:09.000Z</time>
      </trkpt>
      <trkpt lat="45.98048" lon="6.25365">
        <ele>1269</ele>
        <time>2016-08-27T08:02:10.000Z</time>
      </trkpt>
      <trkpt lat="45.98047" lon="6.25364">
        <ele>1269</ele>
        <time>2016-08-27T08:02:11.000Z</time>
      </trkpt>
      <trkpt lat="45.98047" lon="6.25363">
        <ele>1268</ele>
        <time>2016-08-27T08:02:12.000Z</time>
      </trkpt>
      <trkpt lat="45.98047" lon="6.25362">
        <ele>1268</ele>
        <time>2016-08-27T08:02:13.000Z</time>
      </trkpt>
      <trkpt lat="45.98046" lon="6.25361">
        <ele>1268</ele>
        <time>2016-08-27T08:02:14.000Z</time>
      </trkpt>
      <trkpt lat="45.98046" lon="6.2536">
        <ele>1268</ele>
        <time>2016-08-27T08:02:15.000Z</time>
      </trkpt>
      <trkpt lat="45.98046" lon="6.2536">
        <ele>1268</ele>
        <time>2016-08-27T08:02:16.000Z</time>
      </trkpt>
      <trkpt lat="45.98046" lon="6.25359">
        <ele>1268</ele>
        <time>2016-08-27T08:02:17.000Z</time>
      </trkpt>
      <trkpt lat="45.98046" lon="6.25358">
        <ele>1268</ele>
        <time>2016-08-27T08:02:18.000Z</time>
      </trkpt>
      <trkpt lat="45.98046" lon="6.25357">
        <ele>1268</ele>
        <time>2016-08-27T08:02:19.000Z</time>
      </trkpt>
      <trkpt lat="45.98046" lon="6.25356">
        <ele>1267</ele>
        <time>2016-08-27T08:02:20.000Z</time>
      </trkpt>
      <trkpt lat="45.98046" lon="6.25356">
        <ele>1267</ele>
        <time>2016-08-27T08:02:21.000Z</time>
      </trkpt>
      <trkpt lat="45.98046" lon="6.25355">
        <ele>1267</ele>
        <time>2016-08-27T08:02:22.000Z</time>
      </trkpt>
      <trkpt lat="45.98046" lon="6.25354">
        <ele>1267</ele>
        <time>2016-08-27T08:02:23.000Z</time>
      </trkpt>
      <trkpt lat="45.98046" lon="6.25354">
        <ele>1266</ele>
        <time>2016-08-27T08:02:24.000Z</time>
      </trkpt>
      <trkpt lat="45.98046" lon="6.25354">
        <ele>1266</ele>
        <time>2016-08-27T08:02:25.000Z</time>
      </trkpt>
      <trkpt lat="45.98046" lon="6.25353">
        <ele>1266</ele>
        <time>2016-08-27T08:02:26.000Z</time>
      </trkpt>
      <trkpt lat="45.98045" lon="6.25352">
        <ele>1266</ele>
        <time>2016-08-27T08:02:27.000Z</time>
      </trkpt>
      <trkpt lat="45.98045" lon="6.25352">
        <ele>1266</ele>
        <time>2016-08-27T08:02:28.000Z</time>
      </trkpt>
      <trkpt lat="45.98044" lon="6.25352">
        <ele>1266</ele>
        <time>2016-08-27T08:02:29.000Z</time>
      </trkpt>
      <trkpt lat="45.98044" lon="6.25351">
        <ele>1265</ele>
        <time>2016-08-27T08:02:30.000Z</time>
      </trkpt>
      <trkpt lat="45.98044" lon="6.25351">
        <ele>1265</ele>
        <time>2016-08-27T08:02:31.000Z</time>
      </trkpt>
      <trkpt lat="45.98044" lon="6.2535">
        <ele>1265</ele>
        <time>2016-08-27T08:02:32.000Z</time>
      </trkpt>
      <trkpt lat="45.98044" lon="6.25349">
        <ele>1265</ele>
        <time>2016-08-27T08:02:33.000Z</time>
      </trkpt>
      <trkpt lat="45.98044" lon="6.25348">
        <ele>1265</ele>
        <time>2016-08-27T08:02:34.000Z</time>
      </trkpt>
      <trkpt lat="45.98044" lon="6.25347">
        <ele>1265</ele>
        <time>2016-08-27T08:02:35.000Z</time>
      </trkpt>
      <trkpt lat="45.98044" lon="6.25346">
        <ele>1264</ele>
        <time>2016-08-27T08:02:36.000Z</time>
      </trkpt>
      <trkpt lat="45.98045" lon="6.25345">
        <ele>1264</ele>
        <time>2016-08-27T08:02:37.000Z</time>
      </trkpt>
      <trkpt lat="45.98045" lon="6.25345">
        <ele>1264</ele>
        <time>2016-08-27T08:02:38.000Z</time>
      </trkpt>
      <trkpt lat="45.98045" lon="6.25344">
        <ele>1264</ele>
        <time>2016-08-27T08:02:39.000Z</time>
      </trkpt>
      <trkpt lat="45.98045" lon="6.25343">
        <ele>1264</ele>
        <time>2016-08-27T08:02:40.000Z</time>
      </trkpt>
      <trkpt lat="45.98045" lon="6.25342">
        <ele>1264</ele>
        <time>2016-08-27T08:02:41.000Z</time>
      </trkpt>
      <trkpt lat="45.98044" lon="6.25342">
        <ele>1264</ele>
        <time>2016-08-27T08:02:42.000Z</time>
      </trkpt>
      <trkpt lat="45.98044" lon="6.25341">
        <ele>1264</ele>
        <time>2016-08-27T08:02:43.000Z</time>
      </trkpt>
      <trkpt lat="45.98044" lon="6.2534">
        <ele>1264</ele>
        <time>2016-08-27T08:02:44.000Z</time>
      </trkpt>
      <trkpt lat="45.98044" lon="6.25339">
        <ele>1264</ele>
        <time>2016-08-27T08:02:45.000Z</time>
      </trkpt>
      <trkpt lat="45.98044" lon="6.25338">
        <ele>1263</ele>
        <time>2016-08-27T08:02:46.000Z</time>
      </trkpt>
      <trkpt lat="45.98044" lon="6.25337">
        <ele>1263</ele>
        <time>2016-08-27T08:02:47.000Z</time>
      </trkpt>
      <trkpt lat="45.98043" lon="6.25336">
        <ele>1263</ele>
        <time>2016-08-27T08:02:48.000Z</time>
      </trkpt>
      <trkpt lat="45.98043" lon="6.25335">
        <ele>1263</ele>
        <time>2016-08-27T08:02:49.000Z</time>
      </trkpt>
      <trkpt lat="45.98043" lon="6.25334">
        <ele>1263</ele>
        <time>2016-08-27T08:02:50.000Z</time>
      </trkpt>
      <trkpt lat="45.98042" lon="6.25333">
        <ele>1263</ele>
        <time>2016-08-27T08:02:51.000Z</time>
      </trkpt>
      <trkpt lat="45.98042" lon="6.25331">
        <ele>1263</ele>
        <time>2016-08-27T08:02:52.000Z</time>
      </trkpt>
      <trkpt lat="45.98042" lon="6.2533">
        <ele>1263</ele>
        <time>2016-08-27T08:02:53.000Z</time>
      </trkpt>
      <trkpt lat="45.98042" lon="6.25328">
        <ele>1262</ele>
        <time>2016-08-27T08:02:54.000Z</time>
      </trkpt>
      <trkpt lat="45.98042" lon="6.25326">
        <ele>1262</ele>
        <time>2016-08-27T08:02:55.000Z</time>
      </trkpt>
      <trkpt lat="45.98042" lon="6.25324">
        <ele>1262</ele>
        <time>2016-08-27T08:02:56.000Z</time>
      </trkpt>
      <trkpt lat="45.98042" lon="6.25321">
        <ele>1262</ele>
        <time>2016-08-27T08:02:57.000Z</time>
      </trkpt>
      <trkpt lat="45.98042" lon="6.25317">
        <ele>1261</ele>
        <time>2016-08-27T08:02:58.000Z</time>
      </trkpt>
      <trkpt lat="45.98041" lon="6.25314">
        <ele>1261</ele>
        <time>2016-08-27T08:02:59.000Z</time>
      </trkpt>
      <trkpt lat="45.9804" lon="6.25312">
        <ele>1261</ele>
        <time>2016-08-27T08:03:00.000Z</time>
      </trkpt>
      <trkpt lat="45.98038" lon="6.25309">
        <ele>1261</ele>
        <time>2016-08-27T08:03:01.000Z</time>
      </trkpt>
      <trkpt lat="45.98037" lon="6.25306">
        <ele>1260</ele>
        <time>2016-08-27T08:03:02.000Z</time>
      </trkpt>
      <trkpt lat="45.98035" lon="6.25303">
        <ele>1260</ele>
        <time>2016-08-27T08:03:03.000Z</time>
      </trkpt>
      <trkpt lat="45.98034" lon="6.253">
        <ele>1260</ele>
        <time>2016-08-27T08:03:04.000Z</time>
      </trkpt>
      <trkpt lat="45.98032" lon="6.25297">
        <ele>1260</ele>
        <time>2016-08-27T08:03:05.000Z</time>
      </trkpt>
      <trkpt lat="45.98031" lon="6.25294">
        <ele>1259</ele>
        <time>2016-08-27T08:03:06.000Z</time>
      </trkpt>
      <trkpt lat="45.9803" lon="6.2529">
        <ele>1259</ele>
        <time>2016-08-27T08:03:07.000Z</time>
      </trkpt>
      <trkpt lat="45.98028" lon="6.25286">
        <ele>1259</ele>
        <time>2016-08-27T08:03:08.000Z</time>
      </trkpt>
      <trkpt lat="45.98027" lon="6.25283">
        <ele>1259</ele>
        <time>2016-08-27T08:03:09.000Z</time>
      </trkpt>
      <trkpt lat="45.98025" lon="6.25281">
        <ele>1258</ele>
        <time>2016-08-27T08:03:10.000Z</time>
      </trkpt>
      <trkpt lat="45.98023" lon="6.25278">
        <ele>1258</ele>
        <time>2016-08-27T08:03:11.000Z</time>
      </trkpt>
      <trkpt lat="45.98022" lon="6.25275">
        <ele>1258</ele>
        <time>2016-08-27T08:03:12.000Z</time>
      </trkpt>
      <trkpt lat="45.9802" lon="6.25273">
        <ele>1258</ele>
        <time>2016-08-27T08:03:13.000Z</time>
      </trkpt>
      <trkpt lat="45.98018" lon="6.2527">
        <ele>1258</ele>
        <time>2016-08-27T08:03:14.000Z</time>
      </trkpt>
      <trkpt lat="45.98016" lon="6.25268">
        <ele>1258</ele>
        <time>2016-08-27T08:03:15.000Z</time>
      </trkpt>
      <trkpt lat="45.98014" lon="6.25265">
        <ele>1258</ele>
        <time>2016-08-27T08:03:16.000Z</time>
      </trkpt>
      <trkpt lat="45.98013" lon="6.25263">
        <ele>1258</ele>
        <time>2016-08-27T08:03:17.000Z</time>
      </trkpt>
      <trkpt lat="45.98011" lon="6.2526">
        <ele>1257</ele>
        <time>2016-08-27T08:03:18.000Z</time>
      </trkpt>
      <trkpt lat="45.98009" lon="6.25257">
        <ele>1257</ele>
        <time>2016-08-27T08:03:19.000Z</time>
      </trkpt>
      <trkpt lat="45.98008" lon="6.25254">
        <ele>1257</ele>
        <time>2016-08-27T08:03:20.000Z</time>
      </trkpt>
      <trkpt lat="45.98007" lon="6.25251">
        <ele>1257</ele>
        <time>2016-08-27T08:03:21.000Z</time>
      </trkpt>
      <trkpt lat="45.98006" lon="6.25249">
        <ele>1257</ele>
        <time>2016-08-27T08:03:22.000Z</time>
      </trkpt>
      <trkpt lat="45.98005" lon="6.25246">
        <ele>1257</ele>
        <time>2016-08-27T08:03:23.000Z</time>
      </trkpt>
      <trkpt lat="45.98004" lon="6.25242">
        <ele>1256</ele>
        <time>2016-08-27T08:03:24.000Z</time>
      </trkpt>
      <trkpt lat="45.98003" lon="6.25239">
        <ele>1256</ele>
        <time>2016-08-27T08:03:25.000Z</time>
      </trkpt>
      <trkpt lat="45.98002" lon="6.25235">
        <ele>1256</ele>
        <time>2016-08-27T08:03:26.000Z</time>
      </trkpt>
      <trkpt lat="45.98001" lon="6.25232">
        <ele>1256</ele>
        <time>2016-08-27T08:03:27.000Z</time>
      </trkpt>
      <trkpt lat="45.97999" lon="6.25228">
        <ele>1255</ele>
        <time>2016-08-27T08:03:28.000Z</time>
      </trkpt>
      <trkpt lat="45.97998" lon="6.25225">
        <ele>1255</ele>
        <time>2016-08-27T08:03:29.000Z</time>
      </trkpt>
      <trkpt lat="45.97997" lon="6.25222">
        <ele>1254</ele>
        <time>2016-08-27T08:03:30.000Z</time>
      </trkpt>
      <trkpt lat="45.97996" lon="6.25219">
        <ele>1254</ele>
        <time>2016-08-27T08:03:31.000Z</time>
      </trkpt>
      <trkpt lat="45.97995" lon="6.25216">
        <ele>1254</ele>
        <time>2016-08-27T08:03:32.000Z</time>
      </trkpt>
      <trkpt lat="45.97993" lon="6.25213">
        <ele>1254</ele>
        <time>2016-08-27T08:03:33.000Z</time>
      </trkpt>
      <trkpt lat="45.97992" lon="6.25211">
        <ele>1254</ele>
        <time>2016-08-27T08:03:34.000Z</time>
      </trkpt>
      <trkpt lat="45.9799" lon="6.25208">
        <ele>1254</ele>
        <time>2016-08-27T08:03:35.000Z</time>
      </trkpt>
      <trkpt lat="45.97988" lon="6.25205">
        <ele>1253</ele>
        <time>2016-08-27T08:03:36.000Z</time>
      </trkpt>
      <trkpt lat="45.97986" lon="6.25202">
        <ele>1253</ele>
        <time>2016-08-27T08:03:37.000Z</time>
      </trkpt>
      <trkpt lat="45.97984" lon="6.252">
        <ele>1252</ele>
        <time>2016-08-27T08:03:38.000Z</time>
      </trkpt>
      <trkpt lat="45.97983" lon="6.25198">
        <ele>1252</ele>
        <time>2016-08-27T08:03:39.000Z</time>
      </trkpt>
      <trkpt lat="45.97981" lon="6.25195">
        <ele>1252</ele>
        <time>2016-08-27T08:03:40.000Z</time>
      </trkpt>
      <trkpt lat="45.9798" lon="6.25193">
        <ele>1252</ele>
        <time>2016-08-27T08:03:41.000Z</time>
      </trkpt>
      <trkpt lat="45.97978" lon="6.25191">
        <ele>1251</ele>
        <time>2016-08-27T08:03:42.000Z</time>
      </trkpt>
      <trkpt lat="45.97977" lon="6.25189">
        <ele>1251</ele>
        <time>2016-08-27T08:03:43.000Z</time>
      </trkpt>
      <trkpt lat="45.97976" lon="6.25187">
        <ele>1250</ele>
        <time>2016-08-27T08:03:44.000Z</time>
      </trkpt>
      <trkpt lat="45.97975" lon="6.25185">
        <ele>1250</ele>
        <time>2016-08-27T08:03:45.000Z</time>
      </trkpt>
      <trkpt lat="45.97974" lon="6.25183">
        <ele>1250</ele>
        <time>2016-08-27T08:03:46.000Z</time>
      </trkpt>
      <trkpt lat="45.97974" lon="6.25181">
        <ele>1250</ele>
        <time>2016-08-27T08:03:47.000Z</time>
      </trkpt>
      <trkpt lat="45.97973" lon="6.25179">
        <ele>1249</ele>
        <time>2016-08-27T08:03:48.000Z</time>
      </trkpt>
      <trkpt lat="45.97972" lon="6.25177">
        <ele>1249</ele>
        <time>2016-08-27T08:03:49.000Z</time>
      </trkpt>
      <trkpt lat="45.9797" lon="6.25175">
        <ele>1249</ele>
        <time>2016-08-27T08:03:50.000Z</time>
      </trkpt>
      <trkpt lat="45.97969" lon="6.25173">
        <ele>1249</ele>
        <time>2016-08-27T08:03:51.000Z</time>
      </trkpt>
      <trkpt lat="45.97968" lon="6.25172">
        <ele>1248</ele>
        <time>2016-08-27T08:03:52.000Z</time>
      </trkpt>
      <trkpt lat="45.97966" lon="6.2517">
        <ele>1248</ele>
        <time>2016-08-27T08:03:53.000Z</time>
      </trkpt>
      <trkpt lat="45.97965" lon="6.25169">
        <ele>1248</ele>
        <time>2016-08-27T08:03:54.000Z</time>
      </trkpt>
      <trkpt lat="45.97964" lon="6.25167">
        <ele>1248</ele>
        <time>2016-08-27T08:03:55.000Z</time>
      </trkpt>
      <trkpt lat="45.97962" lon="6.25166">
        <ele>1248</ele>
        <time>2016-08-27T08:03:56.000Z</time>
      </trkpt>
      <trkpt lat="45.97961" lon="6.25165">
        <ele>1248</ele>
        <time>2016-08-27T08:03:57.000Z</time>
      </trkpt>
      <trkpt lat="45.9796" lon="6.25164">
        <ele>1247</ele>
        <time>2016-08-27T08:03:58.000Z</time>
      </trkpt>
      <trkpt lat="45.97959" lon="6.25162">
        <ele>1247</ele>
        <time>2016-08-27T08:03:59.000Z</time>
      </trkpt>
      <trkpt lat="45.97958" lon="6.25161">
        <ele>1247</ele>
        <time>2016-08-27T08:04:00.000Z</time>
      </trkpt>
      <trkpt lat="45.97957" lon="6.2516">
        <ele>1247</ele>
        <time>2016-08-27T08:04:01.000Z</time>
      </trkpt>
      <trkpt lat="45.97956" lon="6.25159">
        <ele>1246</ele>
        <time>2016-08-27T08:04:02.000Z</time>
      </trkpt>
      <trkpt lat="45.97955" lon="6.25158">
        <ele>1246</ele>
        <time>2016-08-27T08:04:03.000Z</time>
      </trkpt>
      <trkpt lat="45.97954" lon="6.25157">
        <ele>1246</ele>
        <time>2016-08-27T08:04:04.000Z</time>
      </trkpt>
      <trkpt lat="45.97952" lon="6.25156">
        <ele>1246</ele>
        <time>2016-08-27T08:04:05.000Z</time>
      </trkpt>
      <trkpt lat="45.97951" lon="6.25155">
        <ele>1245</ele>
        <time>2016-08-27T08:04:06.000Z</time>
      </trkpt>
      <trkpt lat="45.9795" lon="6.25155">
        <ele>1245</ele>
        <time>2016-08-27T08:04:07.000Z</time>
      </trkpt>
      <trkpt lat="45.97949" lon="6.25154">
        <ele>1245</ele>
        <time>2016-08-27T08:04:08.000Z</time>
      </trkpt>
      <trkpt lat="45.97947" lon="6.25153">
        <ele>1245</ele>
        <time>2016-08-27T08:04:09.000Z</time>
      </trkpt>
      <trkpt lat="45.97946" lon="6.25152">
        <ele>1245</ele>
        <time>2016-08-27T08:04:10.000Z</time>
      </trkpt>
      <trkpt lat="45.97944" lon="6.25151">
        <ele>1245</ele>
        <time>2016-08-27T08:04:11.000Z</time>
      </trkpt>
      <trkpt lat="45.97942" lon="6.2515">
        <ele>1244</ele>
        <time>2016-08-27T08:04:12.000Z</time>
      </trkpt>
      <trkpt lat="45.97941" lon="6.25148">
        <ele>1244</ele>
        <time>2016-08-27T08:04:13.000Z</time>
      </trkpt>
      <trkpt lat="45.97939" lon="6.25147">
        <ele>1244</ele>
        <time>2016-08-27T08:04:14.000Z</time>
      </trkpt>
      <trkpt lat="45.97937" lon="6.25145">
        <ele>1244</ele>
        <time>2016-08-27T08:04:15.000Z</time>
      </trkpt>
      <trkpt lat="45.97934" lon="6.25143">
        <ele>1243</ele>
        <time>2016-08-27T08:04:16.000Z</time>
      </trkpt>
      <trkpt lat="45.97932" lon="6.25142">
        <ele>1243</ele>
        <time>2016-08-27T08:04:17.000Z</time>
      </trkpt>
      <trkpt lat="45.97929" lon="6.2514">
        <ele>1242</ele>
        <time>2016-08-27T08:04:18.000Z</time>
      </trkpt>
      <trkpt lat="45.97926" lon="6.25139">
        <ele>1242</ele>
        <time>2016-08-27T08:04:19.000Z</time>
      </trkpt>
      <trkpt lat="45.97923" lon="6.25137">
        <ele>1242</ele>
        <time>2016-08-27T08:04:20.000Z</time>
      </trkpt>
      <trkpt lat="45.97921" lon="6.25136">
        <ele>1242</ele>
        <time>2016-08-27T08:04:21.000Z</time>
      </trkpt>
      <trkpt lat="45.97918" lon="6.25135">
        <ele>1241</ele>
        <time>2016-08-27T08:04:22.000Z</time>
      </trkpt>
      <trkpt lat="45.97916" lon="6.25133">
        <ele>1241</ele>
        <time>2016-08-27T08:04:23.000Z</time>
      </trkpt>
      <trkpt lat="45.97913" lon="6.25131">
        <ele>1241</ele>
        <time>2016-08-27T08:04:24.000Z</time>
      </trkpt>
      <trkpt lat="45.97911" lon="6.2513">
        <ele>1241</ele>
        <time>2016-08-27T08:04:25.000Z</time>
      </trkpt>
      <trkpt lat="45.97908" lon="6.25128">
        <ele>1240</ele>
        <time>2016-08-27T08:04:26.000Z</time>
      </trkpt>
      <trkpt lat="45.97906" lon="6.25127">
        <ele>1240</ele>
        <time>2016-08-27T08:04:27.000Z</time>
      </trkpt>
      <trkpt lat="45.97904" lon="6.25126">
        <ele>1240</ele>
        <time>2016-08-27T08:04:28.000Z</time>
      </trkpt>
      <trkpt lat="45.97902" lon="6.25125">
        <ele>1240</ele>
        <time>2016-08-27T08:04:29.000Z</time>
      </trkpt>
      <trkpt lat="45.979" lon="6.25124">
        <ele>1239</ele>
        <time>2016-08-27T08:04:30.000Z</time>
      </trkpt>
      <trkpt lat="45.97899" lon="6.25122">
        <ele>1239</ele>
        <time>2016-08-27T08:04:31.000Z</time>
      </trkpt>
      <trkpt lat="45.97898" lon="6.25121">
        <ele>1239</ele>
        <time>2016-08-27T08:04:32.000Z</time>
      </trkpt>
      <trkpt lat="45.97897" lon="6.2512">
        <ele>1239</ele>
        <time>2016-08-27T08:04:33.000Z</time>
      </trkpt>
      <trkpt lat="45.97896" lon="6.25119">
        <ele>1238</ele>
        <time>2016-08-27T08:04:34.000Z</time>
      </trkpt>
      <trkpt lat="45.97895" lon="6.25118">
        <ele>1238</ele>
        <time>2016-08-27T08:04:35.000Z</time>
      </trkpt>
      <trkpt lat="45.97895" lon="6.25117">
        <ele>1237</ele>
        <time>2016-08-27T08:04:36.000Z</time>
      </trkpt>
      <trkpt lat="45.97894" lon="6.25116">
        <ele>1237</ele>
        <time>2016-08-27T08:04:37.000Z</time>
      </trkpt>
      <trkpt lat="45.97894" lon="6.25115">
        <ele>1237</ele>
        <time>2016-08-27T08:04:38.000Z</time>
      </trkpt>
      <trkpt lat="45.97894" lon="6.25114">
        <ele>1237</ele>
        <time>2016-08-27T08:04:39.000Z</time>
      </trkpt>
      <trkpt lat="45.97894" lon="6.25113">
        <ele>1236</ele>
        <time>2016-08-27T08:04:40.000Z</time>
      </trkpt>
      <trkpt lat="45.97895" lon="6.25111">
        <ele>1236</ele>
        <time>2016-08-27T08:04:41.000Z</time>
      </trkpt>
      <trkpt lat="45.97895" lon="6.2511">
        <ele>1235</ele>
        <time>2016-08-27T08:04:42.000Z</time>
      </trkpt>
      <trkpt lat="45.97894" lon="6.25109">
        <ele>1235</ele>
        <time>2016-08-27T08:04:43.000Z</time>
      </trkpt>
      <trkpt lat="45.97894" lon="6.25108">
        <ele>1234</ele>
        <time>2016-08-27T08:04:44.000Z</time>
      </trkpt>
      <trkpt lat="45.97894" lon="6.25107">
        <ele>1234</ele>
        <time>2016-08-27T08:04:45.000Z</time>
      </trkpt>
      <trkpt lat="45.97894" lon="6.25106">
        <ele>1234</ele>
        <time>2016-08-27T08:04:46.000Z</time>
      </trkpt>
      <trkpt lat="45.97895" lon="6.25106">
        <ele>1234</ele>
        <time>2016-08-27T08:04:47.000Z</time>
      </trkpt>
      <trkpt lat="45.97895" lon="6.25105">
        <ele>1233</ele>
        <time>2016-08-27T08:04:48.000Z</time>
      </trkpt>
      <trkpt lat="45.97896" lon="6.25103">
        <ele>1233</ele>
        <time>2016-08-27T08:04:49.000Z</time>
      </trkpt>
      <trkpt lat="45.97897" lon="6.25102">
        <ele>1232</ele>
        <time>2016-08-27T08:04:50.000Z</time>
      </trkpt>
      <trkpt lat="45.97898" lon="6.25101">
        <ele>1232</ele>
        <time>2016-08-27T08:04:51.000Z</time>
      </trkpt>
      <trkpt lat="45.97899" lon="6.25101">
        <ele>1231</ele>
        <time>2016-08-27T08:04:52.000Z</time>
      </trkpt>
      <trkpt lat="45.97899" lon="6.251">
        <ele>1231</ele>
        <time>2016-08-27T08:04:53.000Z</time>
      </trkpt>
      <trkpt lat="45.979" lon="6.25101">
        <ele>1229</ele>
        <time>2016-08-27T08:04:54.000Z</time>
      </trkpt>
      <trkpt lat="45.979" lon="6.25101">
        <ele>1229</ele>
        <time>2016-08-27T08:04:55.000Z</time>
      </trkpt>
      <trkpt lat="45.97901" lon="6.25101">
        <ele>1228</ele>
        <time>2016-08-27T08:04:56.000Z</time>
      </trkpt>
      <trkpt lat="45.97901" lon="6.25101">
        <ele>1228</ele>
        <time>2016-08-27T08:04:57.000Z</time>
      </trkpt>
      <trkpt lat="45.97901" lon="6.25101">
        <ele>1227</ele>
        <time>2016-08-27T08:04:58.000Z</time>
      </trkpt>
      <trkpt lat="45.97901" lon="6.251">
        <ele>1227</ele>
        <time>2016-08-27T08:04:59.000Z</time>
      </trkpt>
      <trkpt lat="45.97901" lon="6.251">
        <ele>1226</ele>
        <time>2016-08-27T08:05:00.000Z</time>
      </trkpt>
      <trkpt lat="45.97901" lon="6.25099">
        <ele>1226</ele>
        <time>2016-08-27T08:05:01.000Z</time>
      </trkpt>
      <trkpt lat="45.97901" lon="6.25099">
        <ele>1225</ele>
        <time>2016-08-27T08:05:02.000Z</time>
      </trkpt>
      <trkpt lat="45.97901" lon="6.25098">
        <ele>1225</ele>
        <time>2016-08-27T08:05:03.000Z</time>
      </trkpt>
      <trkpt lat="45.97901" lon="6.25098">
        <ele>1225</ele>
        <time>2016-08-27T08:05:04.000Z</time>
      </trkpt>
      <trkpt lat="45.97901" lon="6.25097">
        <ele>1225</ele>
        <time>2016-08-27T08:05:05.000Z</time>
      </trkpt>
      <trkpt lat="45.979" lon="6.25097">
        <ele>1224</ele>
        <time>2016-08-27T08:05:06.000Z</time>
      </trkpt>
      <trkpt lat="45.979" lon="6.25096">
        <ele>1224</ele>
        <time>2016-08-27T08:05:07.000Z</time>
      </trkpt>
      <trkpt lat="45.979" lon="6.25096">
        <ele>1224</ele>
        <time>2016-08-27T08:05:08.000Z</time>
      </trkpt>
      <trkpt lat="45.979" lon="6.25096">
        <ele>1224</ele>
        <time>2016-08-27T08:05:09.000Z</time>
      </trkpt>
      <trkpt lat="45.979" lon="6.25096">
        <ele>1223</ele>
        <time>2016-08-27T08:05:10.000Z</time>
      </trkpt>
      <trkpt lat="45.979" lon="6.25096">
        <ele>1223</ele>
        <time>2016-08-27T08:05:11.000Z</time>
      </trkpt>
      <trkpt lat="45.97899" lon="6.25096">
        <ele>1223</ele>
        <time>2016-08-27T08:05:12.000Z</time>
      </trkpt>
      <trkpt lat="45.97899" lon="6.25095">
        <ele>1223</ele>
        <time>2016-08-27T08:05:13.000Z</time>
      </trkpt>
      <trkpt lat="45.97898" lon="6.25095">
        <ele>1222</ele>
        <time>2016-08-27T08:05:14.000Z</time>
      </trkpt>
      <trkpt lat="45.97898" lon="6.25094">
        <ele>1222</ele>
        <time>2016-08-27T08:05:15.000Z</time>
      </trkpt>
      <trkpt lat="45.97897" lon="6.25093">
        <ele>1222</ele>
        <time>2016-08-27T08:05:16.000Z</time>
      </trkpt>
      <trkpt lat="45.97897" lon="6.25093">
        <ele>1222</ele>
        <time>2016-08-27T08:05:17.000Z</time>
      </trkpt>
      <trkpt lat="45.97896" lon="6.25093">
        <ele>1221</ele>
        <time>2016-08-27T08:05:18.000Z</time>
      </trkpt>
      <trkpt lat="45.97896" lon="6.25093">
        <ele>1221</ele>
        <time>2016-08-27T08:05:19.000Z</time>
      </trkpt>
      <trkpt lat="45.97896" lon="6.25093">
        <ele>1221</ele>
        <time>2016-08-27T08:05:20.000Z</time>
      </trkpt>
      <trkpt lat="45.97896" lon="6.25093">
        <ele>1221</ele>
        <time>2016-08-27T08:05:21.000Z</time>
      </trkpt>
      <trkpt lat="45.97897" lon="6.25093">
        <ele>1220</ele>
        <time>2016-08-27T08:05:22.000Z</time>
      </trkpt>
      <trkpt lat="45.97897" lon="6.25093">
        <ele>1220</ele>
        <time>2016-08-27T08:05:23.000Z</time>
      </trkpt>
      <trkpt lat="45.97897" lon="6.25093">
        <ele>1220</ele>
        <time>2016-08-27T08:05:24.000Z</time>
      </trkpt>
      <trkpt lat="45.97898" lon="6.25093">
        <ele>1220</ele>
        <time>2016-08-27T08:05:25.000Z</time>
      </trkpt>
      <trkpt lat="45.97898" lon="6.25093">
        <ele>1219</ele>
        <time>2016-08-27T08:05:26.000Z</time>
      </trkpt>
      <trkpt lat="45.97899" lon="6.25093">
        <ele>1219</ele>
        <time>2016-08-27T08:05:27.000Z</time>
      </trkpt>
      <trkpt lat="45.979" lon="6.25093">
        <ele>1219</ele>
        <time>2016-08-27T08:05:28.000Z</time>
      </trkpt>
      <trkpt lat="45.97901" lon="6.25093">
        <ele>1219</ele>
        <time>2016-08-27T08:05:29.000Z</time>
      </trkpt>
      <trkpt lat="45.97903" lon="6.25093">
        <ele>1219</ele>
        <time>2016-08-27T08:05:30.000Z</time>
      </trkpt>
      <trkpt lat="45.97906" lon="6.25094">
        <ele>1219</ele>
        <time>2016-08-27T08:05:31.000Z</time>
      </trkpt>
      <trkpt lat="45.97909" lon="6.25094">
        <ele>1219</ele>
        <time>2016-08-27T08:05:32.000Z</time>
      </trkpt>
      <trkpt lat="45.97912" lon="6.25094">
        <ele>1219</ele>
        <time>2016-08-27T08:05:33.000Z</time>
      </trkpt>
      <trkpt lat="45.97915" lon="6.25094">
        <ele>1218</ele>
        <time>2016-08-27T08:05:34.000Z</time>
      </trkpt>
      <trkpt lat="45.97918" lon="6.25094">
        <ele>1218</ele>
        <time>2016-08-27T08:05:35.000Z</time>
      </trkpt>
      <trkpt lat="45.97922" lon="6.25095">
        <ele>1218</ele>
        <time>2016-08-27T08:05:36.000Z</time>
      </trkpt>
      <trkpt lat="45.97925" lon="6.25095">
        <ele>1218</ele>
        <time>2016-08-27T08:05:37.000Z</time>
      </trkpt>
      <trkpt lat="45.97928" lon="6.25095">
        <ele>1218</ele>
        <time>2016-08-27T08:05:38.000Z</time>
      </trkpt>
      <trkpt lat="45.97932" lon="6.25095">
        <ele>1218</ele>
        <time>2016-08-27T08:05:39.000Z</time>
      </trkpt>
      <trkpt lat="45.97935" lon="6.25095">
        <ele>1217</ele>
        <time>2016-08-27T08:05:40.000Z</time>
      </trkpt>
      <trkpt lat="45.97939" lon="6.25096">
        <ele>1217</ele>
        <time>2016-08-27T08:05:41.000Z</time>
      </trkpt>
      <trkpt lat="45.97942" lon="6.25096">
        <ele>1217</ele>
        <time>2016-08-27T08:05:42.000Z</time>
      </trkpt>
      <trkpt lat="45.97946" lon="6.25096">
        <ele>1217</ele>
        <time>2016-08-27T08:05:43.000Z</time>
      </trkpt>
      <trkpt lat="45.9795" lon="6.25097">
        <ele>1216</ele>
        <time>2016-08-27T08:05:44.000Z</time>
      </trkpt>
      <trkpt lat="45.97953" lon="6.25097">
        <ele>1216</ele>
        <time>2016-08-27T08:05:45.000Z</time>
      </trkpt>
      <trkpt lat="45.97957" lon="6.25097">
        <ele>1216</ele>
        <time>2016-08-27T08:05:46.000Z</time>
      </trkpt>
      <trkpt lat="45.9796" lon="6.25097">
        <ele>1216</ele>
        <time>2016-08-27T08:05:47.000Z</time>
      </trkpt>
      <trkpt lat="45.97964" lon="6.25098">
        <ele>1215</ele>
        <time>2016-08-27T08:05:48.000Z</time>
      </trkpt>
      <trkpt lat="45.97967" lon="6.25098">
        <ele>1215</ele>
        <time>2016-08-27T08:05:49.000Z</time>
      </trkpt>
      <trkpt lat="45.97971" lon="6.25098">
        <ele>1214</ele>
        <time>2016-08-27T08:05:50.000Z</time>
      </trkpt>
      <trkpt lat="45.97974" lon="6.25099">
        <ele>1214</ele>
        <time>2016-08-27T08:05:51.000Z</time>
      </trkpt>
      <trkpt lat="45.97977" lon="6.251">
        <ele>1213</ele>
        <time>2016-08-27T08:05:52.000Z</time>
      </trkpt>
      <trkpt lat="45.97979" lon="6.25101">
        <ele>1213</ele>
        <time>2016-08-27T08:05:53.000Z</time>
      </trkpt>
      <trkpt lat="45.97982" lon="6.25101">
        <ele>1213</ele>
        <time>2016-08-27T08:05:54.000Z</time>
      </trkpt>
      <trkpt lat="45.97984" lon="6.25102">
        <ele>1213</ele>
        <time>2016-08-27T08:05:55.000Z</time>
      </trkpt>
      <trkpt lat="45.97987" lon="6.25103">
        <ele>1212</ele>
        <time>2016-08-27T08:05:56.000Z</time>
      </trkpt>
      <trkpt lat="45.97989" lon="6.25105">
        <ele>1212</ele>
        <time>2016-08-27T08:05:57.000Z</time>
      </trkpt>
      <trkpt lat="45.97991" lon="6.25106">
        <ele>1211</ele>
        <time>2016-08-27T08:05:58.000Z</time>
      </trkpt>
      <trkpt lat="45.97992" lon="6.25108">
        <ele>1211</ele>
        <time>2016-08-27T08:05:59.000Z</time>
      </trkpt>
      <trkpt lat="45.97994" lon="6.25109">
        <ele>1210</ele>
        <time>2016-08-27T08:06:00.000Z</time>
      </trkpt>
      <trkpt lat="45.97996" lon="6.25111">
        <ele>1210</ele>
        <time>2016-08-27T08:06:01.000Z</time>
      </trkpt>
      <trkpt lat="45.97998" lon="6.25113">
        <ele>1209</ele>
        <time>2016-08-27T08:06:02.000Z</time>
      </trkpt>
      <trkpt lat="45.98" lon="6.25115">
        <ele>1209</ele>
        <time>2016-08-27T08:06:03.000Z</time>
      </trkpt>
      <trkpt lat="45.98002" lon="6.25118">
        <ele>1209</ele>
        <time>2016-08-27T08:06:04.000Z</time>
      </trkpt>
      <trkpt lat="45.98004" lon="6.2512">
        <ele>1209</ele>
        <time>2016-08-27T08:06:05.000Z</time>
      </trkpt>
      <trkpt lat="45.98006" lon="6.25122">
        <ele>1208</ele>
        <time>2016-08-27T08:06:06.000Z</time>
      </trkpt>
      <trkpt lat="45.98009" lon="6.25124">
        <ele>1208</ele>
        <time>2016-08-27T08:06:07.000Z</time>
      </trkpt>
      <trkpt lat="45.98011" lon="6.25126">
        <ele>1207</ele>
        <time>2016-08-27T08:06:08.000Z</time>
      </trkpt>
      <trkpt lat="45.98014" lon="6.25128">
        <ele>1207</ele>
        <time>2016-08-27T08:06:09.000Z</time>
      </trkpt>
      <trkpt lat="45.98016" lon="6.2513">
        <ele>1206</ele>
        <time>2016-08-27T08:06:10.000Z</time>
      </trkpt>
      <trkpt lat="45.98018" lon="6.25132">
        <ele>1206</ele>
        <time>2016-08-27T08:06:11.000Z</time>
      </trkpt>
      <trkpt lat="45.9802" lon="6.25135">
        <ele>1206</ele>
        <time>2016-08-27T08:06:12.000Z</time>
      </trkpt>
      <trkpt lat="45.98022" lon="6.25136">
        <ele>1206</ele>
        <time>2016-08-27T08:06:13.000Z</time>
      </trkpt>
      <trkpt lat="45.98024" lon="6.25139">
        <ele>1205</ele>
        <time>2016-08-27T08:06:14.000Z</time>
      </trkpt>
      <trkpt lat="45.98026" lon="6.25141">
        <ele>1205</ele>
        <time>2016-08-27T08:06:15.000Z</time>
      </trkpt>
      <trkpt lat="45.98029" lon="6.25143">
        <ele>1204</ele>
        <time>2016-08-27T08:06:16.000Z</time>
      </trkpt>
      <trkpt lat="45.98032" lon="6.25145">
        <ele>1204</ele>
        <time>2016-08-27T08:06:17.000Z</time>
      </trkpt>
      <trkpt lat="45.98035" lon="6.25147">
        <ele>1203</ele>
        <time>2016-08-27T08:06:18.000Z</time>
      </trkpt>
      <trkpt lat="45.98038" lon="6.2515">
        <ele>1203</ele>
        <time>2016-08-27T08:06:19.000Z</time>
      </trkpt>
      <trkpt lat="45.98041" lon="6.25153">
        <ele>1202</ele>
        <time>2016-08-27T08:06:20.000Z</time>
      </trkpt>
      <trkpt lat="45.98044" lon="6.25157">
        <ele>1202</ele>
        <time>2016-08-27T08:06:21.000Z</time>
      </trkpt>
      <trkpt lat="45.98046" lon="6.25159">
        <ele>1201</ele>
        <time>2016-08-27T08:06:22.000Z</time>
      </trkpt>
      <trkpt lat="45.9805" lon="6.25163">
        <ele>1201</ele>
        <time>2016-08-27T08:06:23.000Z</time>
      </trkpt>
      <trkpt lat="45.98053" lon="6.25166">
        <ele>1200</ele>
        <time>2016-08-27T08:06:24.000Z</time>
      </trkpt>
      <trkpt lat="45.98056" lon="6.25168">
        <ele>1200</ele>
        <time>2016-08-27T08:06:25.000Z</time>
      </trkpt>
      <trkpt lat="45.98059" lon="6.25171">
        <ele>1200</ele>
        <time>2016-08-27T08:06:26.000Z</time>
      </trkpt>
      <trkpt lat="45.98062" lon="6.25174">
        <ele>1200</ele>
        <time>2016-08-27T08:06:27.000Z</time>
      </trkpt>
      <trkpt lat="45.98064" lon="6.25177">
        <ele>1199</ele>
        <time>2016-08-27T08:06:28.000Z</time>
      </trkpt>
      <trkpt lat="45.98067" lon="6.2518">
        <ele>1199</ele>
        <time>2016-08-27T08:06:29.000Z</time>
      </trkpt>
      <trkpt lat="45.9807" lon="6.25182">
        <ele>1198</ele>
        <time>2016-08-27T08:06:30.000Z</time>
      </trkpt>
      <trkpt lat="45.98072" lon="6.25184">
        <ele>1198</ele>
        <time>2016-08-27T08:06:31.000Z</time>
      </trkpt>
      <trkpt lat="45.98075" lon="6.25187">
        <ele>1198</ele>
        <time>2016-08-27T08:06:32.000Z</time>
      </trkpt>
      <trkpt lat="45.98077" lon="6.25189">
        <ele>1198</ele>
        <time>2016-08-27T08:06:33.000Z</time>
      </trkpt>
      <trkpt lat="45.9808" lon="6.25192">
        <ele>1197</ele>
        <time>2016-08-27T08:06:34.000Z</time>
      </trkpt>
      <trkpt lat="45.98083" lon="6.25195">
        <ele>1197</ele>
        <time>2016-08-27T08:06:35.000Z</time>
      </trkpt>
      <trkpt lat="45.98086" lon="6.25197">
        <ele>1196</ele>
        <time>2016-08-27T08:06:36.000Z</time>
      </trkpt>
      <trkpt lat="45.98088" lon="6.25199">
        <ele>1196</ele>
        <time>2016-08-27T08:06:37.000Z</time>
      </trkpt>
      <trkpt lat="45.98089" lon="6.25201">
        <ele>1196</ele>
        <time>2016-08-27T08:06:38.000Z</time>
      </trkpt>
      <trkpt lat="45.9809" lon="6.25203">
        <ele>1196</ele>
        <time>2016-08-27T08:06:39.000Z</time>
      </trkpt>
      <trkpt lat="45.98092" lon="6.25205">
        <ele>1195</ele>
        <time>2016-08-27T08:06:40.000Z</time>
      </trkpt>
      <trkpt lat="45.98093" lon="6.25207">
        <ele>1195</ele>
        <time>2016-08-27T08:06:41.000Z</time>
      </trkpt>
      <trkpt lat="45.98095" lon="6.25208">
        <ele>1194</ele>
        <time>2016-08-27T08:06:42.000Z</time>
      </trkpt>
      <trkpt lat="45.98096" lon="6.2521">
        <ele>1194</ele>
        <time>2016-08-27T08:06:43.000Z</time>
      </trkpt>
      <trkpt lat="45.98097" lon="6.25211">
        <ele>1194</ele>
        <time>2016-08-27T08:06:44.000Z</time>
      </trkpt>
      <trkpt lat="45.98099" lon="6.25213">
        <ele>1194</ele>
        <time>2016-08-27T08:06:45.000Z</time>
      </trkpt>
      <trkpt lat="45.981" lon="6.25214">
        <ele>1193</ele>
        <time>2016-08-27T08:06:46.000Z</time>
      </trkpt>
      <trkpt lat="45.98101" lon="6.25215">
        <ele>1193</ele>
        <time>2016-08-27T08:06:47.000Z</time>
      </trkpt>
      <trkpt lat="45.98102" lon="6.25217">
        <ele>1192</ele>
        <time>2016-08-27T08:06:48.000Z</time>
      </trkpt>
      <trkpt lat="45.98104" lon="6.25219">
        <ele>1192</ele>
        <time>2016-08-27T08:06:49.000Z</time>
      </trkpt>
      <trkpt lat="45.98106" lon="6.25221">
        <ele>1192</ele>
        <time>2016-08-27T08:06:50.000Z</time>
      </trkpt>
      <trkpt lat="45.98108" lon="6.25223">
        <ele>1192</ele>
        <time>2016-08-27T08:06:51.000Z</time>
      </trkpt>
      <trkpt lat="45.98109" lon="6.25225">
        <ele>1191</ele>
        <time>2016-08-27T08:06:52.000Z</time>
      </trkpt>
      <trkpt lat="45.98111" lon="6.25227">
        <ele>1191</ele>
        <time>2016-08-27T08:06:53.000Z</time>
      </trkpt>
      <trkpt lat="45.98113" lon="6.25228">
        <ele>1191</ele>
        <time>2016-08-27T08:06:54.000Z</time>
      </trkpt>
      <trkpt lat="45.98114" lon="6.2523">
        <ele>1191</ele>
        <time>2016-08-27T08:06:55.000Z</time>
      </trkpt>
      <trkpt lat="45.98116" lon="6.25231">
        <ele>1190</ele>
        <time>2016-08-27T08:06:56.000Z</time>
      </trkpt>
      <trkpt lat="45.98118" lon="6.25232">
        <ele>1190</ele>
        <time>2016-08-27T08:06:57.000Z</time>
      </trkpt>
      <trkpt lat="45.98119" lon="6.25234">
        <ele>1189</ele>
        <time>2016-08-27T08:06:58.000Z</time>
      </trkpt>
      <trkpt lat="45.98121" lon="6.25235">
        <ele>1189</ele>
        <time>2016-08-27T08:06:59.000Z</time>
      </trkpt>
      <trkpt lat="45.98122" lon="6.25236">
        <ele>1189</ele>
        <time>2016-08-27T08:07:00.000Z</time>
      </trkpt>
      <trkpt lat="45.98124" lon="6.25237">
        <ele>1189</ele>
        <time>2016-08-27T08:07:01.000Z</time>
      </trkpt>
      <trkpt lat="45.98126" lon="6.25238">
        <ele>1188</ele>
        <time>2016-08-27T08:07:02.000Z</time>
      </trkpt>
      <trkpt lat="45.98128" lon="6.25239">
        <ele>1188</ele>
        <time>2016-08-27T08:07:03.000Z</time>
      </trkpt>
      <trkpt lat="45.9813" lon="6.25241">
        <ele>1187</ele>
        <time>2016-08-27T08:07:04.000Z</time>
      </trkpt>
      <trkpt lat="45.98132" lon="6.25243">
        <ele>1187</ele>
        <time>2016-08-27T08:07:05.000Z</time>
      </trkpt>
      <trkpt lat="45.98134" lon="6.25245">
        <ele>1186</ele>
        <time>2016-08-27T08:07:06.000Z</time>
      </trkpt>
      <trkpt lat="45.98135" lon="6.25247">
        <ele>1186</ele>
        <time>2016-08-27T08:07:07.000Z</time>
      </trkpt>
      <trkpt lat="45.98137" lon="6.25249">
        <ele>1186</ele>
        <time>2016-08-27T08:07:08.000Z</time>
      </trkpt>
      <trkpt lat="45.98138" lon="6.25251">
        <ele>1186</ele>
        <time>2016-08-27T08:07:09.000Z</time>
      </trkpt>
      <trkpt lat="45.98139" lon="6.25253">
        <ele>1185</ele>
        <time>2016-08-27T08:07:10.000Z</time>
      </trkpt>
      <trkpt lat="45.98141" lon="6.25255">
        <ele>1185</ele>
        <time>2016-08-27T08:07:11.000Z</time>
      </trkpt>
      <trkpt lat="45.98142" lon="6.25257">
        <ele>1184</ele>
        <time>2016-08-27T08:07:12.000Z</time>
      </trkpt>
      <trkpt lat="45.98144" lon="6.25259">
        <ele>1184</ele>
        <time>2016-08-27T08:07:13.000Z</time>
      </trkpt>
      <trkpt lat="45.98145" lon="6.25261">
        <ele>1183</ele>
        <time>2016-08-27T08:07:14.000Z</time>
      </trkpt>
      <trkpt lat="45.98146" lon="6.25263">
        <ele>1183</ele>
        <time>2016-08-27T08:07:15.000Z</time>
      </trkpt>
      <trkpt lat="45.98147" lon="6.25265">
        <ele>1182</ele>
        <time>2016-08-27T08:07:16.000Z</time>
      </trkpt>
      <trkpt lat="45.98149" lon="6.25266">
        <ele>1182</ele>
        <time>2016-08-27T08:07:17.000Z</time>
      </trkpt>
      <trkpt lat="45.9815" lon="6.25267">
        <ele>1182</ele>
        <time>2016-08-27T08:07:18.000Z</time>
      </trkpt>
      <trkpt lat="45.98152" lon="6.25266">
        <ele>1182</ele>
        <time>2016-08-27T08:07:19.000Z</time>
      </trkpt>
      <trkpt lat="45.98153" lon="6.25265">
        <ele>1181</ele>
        <time>2016-08-27T08:07:20.000Z</time>
      </trkpt>
      <trkpt lat="45.98154" lon="6.25264">
        <ele>1181</ele>
        <time>2016-08-27T08:07:21.000Z</time>
      </trkpt>
      <trkpt lat="45.98155" lon="6.25263">
        <ele>1180</ele>
        <time>2016-08-27T08:07:22.000Z</time>
      </trkpt>
      <trkpt lat="45.98156" lon="6.25262">
        <ele>1180</ele>
        <time>2016-08-27T08:07:23.000Z</time>
      </trkpt>
      <trkpt lat="45.98157" lon="6.25261">
        <ele>1179</ele>
        <time>2016-08-27T08:07:24.000Z</time>
      </trkpt>
      <trkpt lat="45.98158" lon="6.2526">
        <ele>1179</ele>
        <time>2016-08-27T08:07:25.000Z</time>
      </trkpt>
      <trkpt lat="45.98158" lon="6.25259">
        <ele>1178</ele>
        <time>2016-08-27T08:07:26.000Z</time>
      </trkpt>
      <trkpt lat="45.98159" lon="6.25258">
        <ele>1178</ele>
        <time>2016-08-27T08:07:27.000Z</time>
      </trkpt>
      <trkpt lat="45.9816" lon="6.25259">
        <ele>1177</ele>
        <time>2016-08-27T08:07:28.000Z</time>
      </trkpt>
      <trkpt lat="45.9816" lon="6.25259">
        <ele>1177</ele>
        <time>2016-08-27T08:07:29.000Z</time>
      </trkpt>
      <trkpt lat="45.9816" lon="6.2526">
        <ele>1176</ele>
        <time>2016-08-27T08:07:30.000Z</time>
      </trkpt>
      <trkpt lat="45.9816" lon="6.25261">
        <ele>1176</ele>
        <time>2016-08-27T08:07:31.000Z</time>
      </trkpt>
      <trkpt lat="45.9816" lon="6.25262">
        <ele>1175</ele>
        <time>2016-08-27T08:07:32.000Z</time>
      </trkpt>
      <trkpt lat="45.9816" lon="6.25263">
        <ele>1175</ele>
        <time>2016-08-27T08:07:33.000Z</time>
      </trkpt>
      <trkpt lat="45.9816" lon="6.25265">
        <ele>1174</ele>
        <time>2016-08-27T08:07:34.000Z</time>
      </trkpt>
      <trkpt lat="45.98161" lon="6.25267">
        <ele>1174</ele>
        <time>2016-08-27T08:07:35.000Z</time>
      </trkpt>
      <trkpt lat="45.98161" lon="6.25268">
        <ele>1173</ele>
        <time>2016-08-27T08:07:36.000Z</time>
      </trkpt>
      <trkpt lat="45.98162" lon="6.2527">
        <ele>1173</ele>
        <time>2016-08-27T08:07:37.000Z</time>
      </trkpt>
      <trkpt lat="45.98163" lon="6.25272">
        <ele>1172</ele>
        <time>2016-08-27T08:07:38.000Z</time>
      </trkpt>
      <trkpt lat="45.98164" lon="6.25273">
        <ele>1172</ele>
        <time>2016-08-27T08:07:39.000Z</time>
      </trkpt>
      <trkpt lat="45.98165" lon="6.25274">
        <ele>1171</ele>
        <time>2016-08-27T08:07:40.000Z</time>
      </trkpt>
      <trkpt lat="45.98166" lon="6.25275">
        <ele>1171</ele>
        <time>2016-08-27T08:07:41.000Z</time>
      </trkpt>
      <trkpt lat="45.98168" lon="6.25276">
        <ele>1171</ele>
        <time>2016-08-27T08:07:42.000Z</time>
      </trkpt>
      <trkpt lat="45.98169" lon="6.25278">
        <ele>1171</ele>
        <time>2016-08-27T08:07:43.000Z</time>
      </trkpt>
      <trkpt lat="45.98169" lon="6.25279">
        <ele>1170</ele>
        <time>2016-08-27T08:07:44.000Z</time>
      </trkpt>
      <trkpt lat="45.9817" lon="6.25281">
        <ele>1170</ele>
        <time>2016-08-27T08:07:45.000Z</time>
      </trkpt>
      <trkpt lat="45.9817" lon="6.25283">
        <ele>1169</ele>
        <time>2016-08-27T08:07:46.000Z</time>
      </trkpt>
      <trkpt lat="45.9817" lon="6.25285">
        <ele>1169</ele>
        <time>2016-08-27T08:07:47.000Z</time>
      </trkpt>
      <trkpt lat="45.9817" lon="6.25286">
        <ele>1168</ele>
        <time>2016-08-27T08:07:48.000Z</time>
      </trkpt>
      <trkpt lat="45.9817" lon="6.25287">
        <ele>1168</ele>
        <time>2016-08-27T08:07:49.000Z</time>
      </trkpt>
      <trkpt lat="45.9817" lon="6.25288">
        <ele>1167</ele>
        <time>2016-08-27T08:07:50.000Z</time>
      </trkpt>
      <trkpt lat="45.98171" lon="6.25289">
        <ele>1167</ele>
        <time>2016-08-27T08:07:51.000Z</time>
      </trkpt>
      <trkpt lat="45.98172" lon="6.2529">
        <ele>1166</ele>
        <time>2016-08-27T08:07:52.000Z</time>
      </trkpt>
      <trkpt lat="45.98172" lon="6.25291">
        <ele>1166</ele>
        <time>2016-08-27T08:07:53.000Z</time>
      </trkpt>
      <trkpt lat="45.98173" lon="6.25292">
        <ele>1165</ele>
        <time>2016-08-27T08:07:54.000Z</time>
      </trkpt>
      <trkpt lat="45.98173" lon="6.25294">
        <ele>1165</ele>
        <time>2016-08-27T08:07:55.000Z</time>
      </trkpt>
      <trkpt lat="45.98173" lon="6.25295">
        <ele>1164</ele>
        <time>2016-08-27T08:07:56.000Z</time>
      </trkpt>
      <trkpt lat="45.98173" lon="6.25295">
        <ele>1164</ele>
        <time>2016-08-27T08:07:57.000Z</time>
      </trkpt>
      <trkpt lat="45.98173" lon="6.25296">
        <ele>1164</ele>
        <time>2016-08-27T08:07:58.000Z</time>
      </trkpt>
      <trkpt lat="45.98172" lon="6.25297">
        <ele>1164</ele>
        <time>2016-08-27T08:07:59.000Z</time>
      </trkpt>
      <trkpt lat="45.98172" lon="6.25297">
        <ele>1163</ele>
        <time>2016-08-27T08:08:00.000Z</time>
      </trkpt>
      <trkpt lat="45.98172" lon="6.25298">
        <ele>1163</ele>
        <time>2016-08-27T08:08:01.000Z</time>
      </trkpt>
      <trkpt lat="45.98172" lon="6.25298">
        <ele>1162</ele>
        <time>2016-08-27T08:08:02.000Z</time>
      </trkpt>
      <trkpt lat="45.98172" lon="6.25299">
        <ele>1162</ele>
        <time>2016-08-27T08:08:03.000Z</time>
      </trkpt>
      <trkpt lat="45.98172" lon="6.25299">
        <ele>1162</ele>
        <time>2016-08-27T08:08:04.000Z</time>
      </trkpt>
      <trkpt lat="45.98172" lon="6.253">
        <ele>1162</ele>
        <time>2016-08-27T08:08:05.000Z</time>
      </trkpt>
      <trkpt lat="45.98172" lon="6.253">
        <ele>1161</ele>
        <time>2016-08-27T08:08:06.000Z</time>
      </trkpt>
      <trkpt lat="45.98173" lon="6.25302">
        <ele>1161</ele>
        <time>2016-08-27T08:08:07.000Z</time>
      </trkpt>
      <trkpt lat="45.98173" lon="6.25303">
        <ele>1160</ele>
        <time>2016-08-27T08:08:08.000Z</time>
      </trkpt>
      <trkpt lat="45.98173" lon="6.25304">
        <ele>1160</ele>
        <time>2016-08-27T08:08:09.000Z</time>
      </trkpt>
      <trkpt lat="45.98174" lon="6.25305">
        <ele>1160</ele>
        <time>2016-08-27T08:08:10.000Z</time>
      </trkpt>
      <trkpt lat="45.98174" lon="6.25305">
        <ele>1160</ele>
        <time>2016-08-27T08:08:11.000Z</time>
      </trkpt>
      <trkpt lat="45.98175" lon="6.25306">
        <ele>1160</ele>
        <time>2016-08-27T08:08:12.000Z</time>
      </trkpt>
      <trkpt lat="45.98175" lon="6.25306">
        <ele>1160</ele>
        <time>2016-08-27T08:08:13.000Z</time>
      </trkpt>
      <trkpt lat="45.98175" lon="6.25306">
        <ele>1159</ele>
        <time>2016-08-27T08:08:14.000Z</time>
      </trkpt>
      <trkpt lat="45.98176" lon="6.25307">
        <ele>1159</ele>
        <time>2016-08-27T08:08:15.000Z</time>
      </trkpt>
      <trkpt lat="45.98176" lon="6.25307">
        <ele>1158</ele>
        <time>2016-08-27T08:08:16.000Z</time>
      </trkpt>
      <trkpt lat="45.98177" lon="6.25309">
        <ele>1158</ele>
        <time>2016-08-27T08:08:17.000Z</time>
      </trkpt>
      <trkpt lat="45.98178" lon="6.2531">
        <ele>1158</ele>
        <time>2016-08-27T08:08:18.000Z</time>
      </trkpt>
      <trkpt lat="45.98179" lon="6.25311">
        <ele>1158</ele>
        <time>2016-08-27T08:08:19.000Z</time>
      </trkpt>
      <trkpt lat="45.9818" lon="6.25312">
        <ele>1157</ele>
        <time>2016-08-27T08:08:20.000Z</time>
      </trkpt>
      <trkpt lat="45.98181" lon="6.25313">
        <ele>1157</ele>
        <time>2016-08-27T08:08:21.000Z</time>
      </trkpt>
      <trkpt lat="45.98182" lon="6.25315">
        <ele>1157</ele>
        <time>2016-08-27T08:08:22.000Z</time>
      </trkpt>
      <trkpt lat="45.98183" lon="6.25316">
        <ele>1157</ele>
        <time>2016-08-27T08:08:23.000Z</time>
      </trkpt>
      <trkpt lat="45.98183" lon="6.25317">
        <ele>1156</ele>
        <time>2016-08-27T08:08:24.000Z</time>
      </trkpt>
      <trkpt lat="45.98184" lon="6.25318">
        <ele>1156</ele>
        <time>2016-08-27T08:08:25.000Z</time>
      </trkpt>
      <trkpt lat="45.98185" lon="6.2532">
        <ele>1156</ele>
        <time>2016-08-27T08:08:26.000Z</time>
      </trkpt>
      <trkpt lat="45.98185" lon="6.25321">
        <ele>1156</ele>
        <time>2016-08-27T08:08:27.000Z</time>
      </trkpt>
      <trkpt lat="45.98184" lon="6.25323">
        <ele>1155</ele>
        <time>2016-08-27T08:08:28.000Z</time>
      </trkpt>
      <trkpt lat="45.98183" lon="6.25325">
        <ele>1155</ele>
        <time>2016-08-27T08:08:29.000Z</time>
      </trkpt>
      <trkpt lat="45.98183" lon="6.25327">
        <ele>1155</ele>
        <time>2016-08-27T08:08:30.000Z</time>
      </trkpt>
      <trkpt lat="45.98182" lon="6.25328">
        <ele>1155</ele>
        <time>2016-08-27T08:08:31.000Z</time>
      </trkpt>
      <trkpt lat="45.98181" lon="6.25329">
        <ele>1154</ele>
        <time>2016-08-27T08:08:32.000Z</time>
      </trkpt>
      <trkpt lat="45.98181" lon="6.2533">
        <ele>1154</ele>
        <time>2016-08-27T08:08:33.000Z</time>
      </trkpt>
      <trkpt lat="45.98181" lon="6.25332">
        <ele>1153</ele>
        <time>2016-08-27T08:08:34.000Z</time>
      </trkpt>
      <trkpt lat="45.98181" lon="6.25333">
        <ele>1153</ele>
        <time>2016-08-27T08:08:35.000Z</time>
      </trkpt>
      <trkpt lat="45.98181" lon="6.25334">
        <ele>1152</ele>
        <time>2016-08-27T08:08:36.000Z</time>
      </trkpt>
      <trkpt lat="45.98181" lon="6.25335">
        <ele>1152</ele>
        <time>2016-08-27T08:08:37.000Z</time>
      </trkpt>
      <trkpt lat="45.98182" lon="6.25336">
        <ele>1151</ele>
        <time>2016-08-27T08:08:38.000Z</time>
      </trkpt>
      <trkpt lat="45.98182" lon="6.25337">
        <ele>1151</ele>
        <time>2016-08-27T08:08:39.000Z</time>
      </trkpt>
      <trkpt lat="45.98183" lon="6.25338">
        <ele>1151</ele>
        <time>2016-08-27T08:08:40.000Z</time>
      </trkpt>
      <trkpt lat="45.98183" lon="6.25339">
        <ele>1151</ele>
        <time>2016-08-27T08:08:41.000Z</time>
      </trkpt>
      <trkpt lat="45.98184" lon="6.2534">
        <ele>1150</ele>
        <time>2016-08-27T08:08:42.000Z</time>
      </trkpt>
      <trkpt lat="45.98184" lon="6.25341">
        <ele>1150</ele>
        <time>2016-08-27T08:08:43.000Z</time>
      </trkpt>
      <trkpt lat="45.98185" lon="6.25342">
        <ele>1150</ele>
        <time>2016-08-27T08:08:44.000Z</time>
      </trkpt>
      <trkpt lat="45.98185" lon="6.25342">
        <ele>1150</ele>
        <time>2016-08-27T08:08:45.000Z</time>
      </trkpt>
      <trkpt lat="45.98185" lon="6.25343">
        <ele>1149</ele>
        <time>2016-08-27T08:08:46.000Z</time>
      </trkpt>
      <trkpt lat="45.98185" lon="6.25344">
        <ele>1149</ele>
        <time>2016-08-27T08:08:47.000Z</time>
      </trkpt>
      <trkpt lat="45.98185" lon="6.25344">
        <ele>1149</ele>
        <time>2016-08-27T08:08:48.000Z</time>
      </trkpt>
      <trkpt lat="45.98185" lon="6.25344">
        <ele>1149</ele>
        <time>2016-08-27T08:08:49.000Z</time>
      </trkpt>
      <trkpt lat="45.98185" lon="6.25346">
        <ele>1148</ele>
        <time>2016-08-27T08:08:50.000Z</time>
      </trkpt>
      <trkpt lat="45.98185" lon="6.25347">
        <ele>1148</ele>
        <time>2016-08-27T08:08:51.000Z</time>
      </trkpt>
      <trkpt lat="45.98185" lon="6.25347">
        <ele>1148</ele>
        <time>2016-08-27T08:08:52.000Z</time>
      </trkpt>
      <trkpt lat="45.98185" lon="6.25348">
        <ele>1148</ele>
        <time>2016-08-27T08:08:53.000Z</time>
      </trkpt>
      <trkpt lat="45.98186" lon="6.25348">
        <ele>1147</ele>
        <time>2016-08-27T08:08:54.000Z</time>
      </trkpt>
      <trkpt lat="45.98185" lon="6.25348">
        <ele>1147</ele>
        <time>2016-08-27T08:08:55.000Z</time>
      </trkpt>
      <trkpt lat="45.98186" lon="6.25349">
        <ele>1147</ele>
        <time>2016-08-27T08:08:56.000Z</time>
      </trkpt>
      <trkpt lat="45.98187" lon="6.2535">
        <ele>1147</ele>
        <time>2016-08-27T08:08:57.000Z</time>
      </trkpt>
      <trkpt lat="45.98187" lon="6.25351">
        <ele>1147</ele>
        <time>2016-08-27T08:08:58.000Z</time>
      </trkpt>
      <trkpt lat="45.98187" lon="6.25351">
        <ele>1147</ele>
        <time>2016-08-27T08:08:59.000Z</time>
      </trkpt>
      <trkpt lat="45.98187" lon="6.25351">
        <ele>1147</ele>
        <time>2016-08-27T08:09:00.000Z</time>
      </trkpt>
      <trkpt lat="45.98187" lon="6.25352">
        <ele>1147</ele>
        <time>2016-08-27T08:09:01.000Z</time>
      </trkpt>
      <trkpt lat="45.98187" lon="6.25352">
        <ele>1147</ele>
        <time>2016-08-27T08:09:02.000Z</time>
      </trkpt>
      <trkpt lat="45.98187" lon="6.25352">
        <ele>1147</ele>
        <time>2016-08-27T08:09:03.000Z</time>
      </trkpt>
      <trkpt lat="45.98187" lon="6.25352">
        <ele>1146</ele>
        <time>2016-08-27T08:09:04.000Z</time>
      </trkpt>
      <trkpt lat="45.98187" lon="6.25352">
        <ele>1146</ele>
        <time>2016-08-27T08:09:05.000Z</time>
      </trkpt>
      <trkpt lat="45.98187" lon="6.25352">
        <ele>1146</ele>
        <time>2016-08-27T08:09:06.000Z</time>
      </trkpt>
      <trkpt lat="45.98187" lon="6.25352">
        <ele>1146</ele>
        <time>2016-08-27T08:09:07.000Z</time>
      </trkpt>
      <trkpt lat="45.98186" lon="6.25352">
        <ele>1146</ele>
        <time>2016-08-27T08:09:08.000Z</time>
      </trkpt>
      <trkpt lat="45.98186" lon="6.25352">
        <ele>1146</ele>
        <time>2016-08-27T08:09:09.000Z</time>
      </trkpt>
      <trkpt lat="45.98187" lon="6.25353">
        <ele>1146</ele>
        <time>2016-08-27T08:09:10.000Z</time>
      </trkpt>
      <trkpt lat="45.98187" lon="6.25354">
        <ele>1146</ele>
        <time>2016-08-27T08:09:11.000Z</time>
      </trkpt>
      <trkpt lat="45.98188" lon="6.25355">
        <ele>1146</ele>
        <time>2016-08-27T08:09:12.000Z</time>
      </trkpt>
      <trkpt lat="45.98189" lon="6.25357">
        <ele>1146</ele>
        <time>2016-08-27T08:09:13.000Z</time>
      </trkpt>
      <trkpt lat="45.9819" lon="6.25358">
        <ele>1145</ele>
        <time>2016-08-27T08:09:14.000Z</time>
      </trkpt>
      <trkpt lat="45.9819" lon="6.25359">
        <ele>1145</ele>
        <time>2016-08-27T08:09:15.000Z</time>
      </trkpt>
      <trkpt lat="45.98191" lon="6.2536">
        <ele>1145</ele>
        <time>2016-08-27T08:09:16.000Z</time>
      </trkpt>
      <trkpt lat="45.98192" lon="6.25361">
        <ele>1145</ele>
        <time>2016-08-27T08:09:17.000Z</time>
      </trkpt>
      <trkpt lat="45.98192" lon="6.25362">
        <ele>1145</ele>
        <time>2016-08-27T08:09:18.000Z</time>
      </trkpt>
      <trkpt lat="45.98193" lon="6.25364">
        <ele>1145</ele>
        <time>2016-08-27T08:09:19.000Z</time>
      </trkpt>
      <trkpt lat="45.98194" lon="6.25365">
        <ele>1144</ele>
        <time>2016-08-27T08:09:20.000Z</time>
      </trkpt>
      <trkpt lat="45.98195" lon="6.25367">
        <ele>1144</ele>
        <time>2016-08-27T08:09:21.000Z</time>
      </trkpt>
      <trkpt lat="45.98197" lon="6.25369">
        <ele>1144</ele>
        <time>2016-08-27T08:09:22.000Z</time>
      </trkpt>
      <trkpt lat="45.98198" lon="6.25371">
        <ele>1144</ele>
        <time>2016-08-27T08:09:23.000Z</time>
      </trkpt>
      <trkpt lat="45.98199" lon="6.25373">
        <ele>1143</ele>
        <time>2016-08-27T08:09:24.000Z</time>
      </trkpt>
      <trkpt lat="45.982" lon="6.25375">
        <ele>1143</ele>
        <time>2016-08-27T08:09:25.000Z</time>
      </trkpt>
      <trkpt lat="45.98201" lon="6.25378">
        <ele>1143</ele>
        <time>2016-08-27T08:09:26.000Z</time>
      </trkpt>
      <trkpt lat="45.98202" lon="6.2538">
        <ele>1143</ele>
        <time>2016-08-27T08:09:27.000Z</time>
      </trkpt>
      <trkpt lat="45.98203" lon="6.25382">
        <ele>1143</ele>
        <time>2016-08-27T08:09:28.000Z</time>
      </trkpt>
      <trkpt lat="45.98204" lon="6.25384">
        <ele>1143</ele>
        <time>2016-08-27T08:09:29.000Z</time>
      </trkpt>
      <trkpt lat="45.98206" lon="6.25386">
        <ele>1142</ele>
        <time>2016-08-27T08:09:30.000Z</time>
      </trkpt>
      <trkpt lat="45.98207" lon="6.25387">
        <ele>1142</ele>
        <time>2016-08-27T08:09:31.000Z</time>
      </trkpt>
      <trkpt lat="45.98208" lon="6.25388">
        <ele>1142</ele>
        <time>2016-08-27T08:09:32.000Z</time>
      </trkpt>
      <trkpt lat="45.98209" lon="6.25388">
        <ele>1142</ele>
        <time>2016-08-27T08:09:33.000Z</time>
      </trkpt>
      <trkpt lat="45.9821" lon="6.25387">
        <ele>1142</ele>
        <time>2016-08-27T08:09:34.000Z</time>
      </trkpt>
      <trkpt lat="45.98211" lon="6.25387">
        <ele>1142</ele>
        <time>2016-08-27T08:09:35.000Z</time>
      </trkpt>
      <trkpt lat="45.98211" lon="6.25386">
        <ele>1141</ele>
        <time>2016-08-27T08:09:36.000Z</time>
      </trkpt>
      <trkpt lat="45.98211" lon="6.25386">
        <ele>1141</ele>
        <time>2016-08-27T08:09:37.000Z</time>
      </trkpt>
      <trkpt lat="45.9821" lon="6.25385">
        <ele>1140</ele>
        <time>2016-08-27T08:09:38.000Z</time>
      </trkpt>
      <trkpt lat="45.98209" lon="6.25383">
        <ele>1140</ele>
        <time>2016-08-27T08:09:39.000Z</time>
      </trkpt>
      <trkpt lat="45.98209" lon="6.25382">
        <ele>1139</ele>
        <time>2016-08-27T08:09:40.000Z</time>
      </trkpt>
      <trkpt lat="45.98208" lon="6.25381">
        <ele>1139</ele>
        <time>2016-08-27T08:09:41.000Z</time>
      </trkpt>
      <trkpt lat="45.98207" lon="6.2538">
        <ele>1139</ele>
        <time>2016-08-27T08:09:42.000Z</time>
      </trkpt>
      <trkpt lat="45.98206" lon="6.25378">
        <ele>1139</ele>
        <time>2016-08-27T08:09:43.000Z</time>
      </trkpt>
      <trkpt lat="45.98206" lon="6.25377">
        <ele>1138</ele>
        <time>2016-08-27T08:09:44.000Z</time>
      </trkpt>
      <trkpt lat="45.98205" lon="6.25375">
        <ele>1138</ele>
        <time>2016-08-27T08:09:45.000Z</time>
      </trkpt>
      <trkpt lat="45.98205" lon="6.25374">
        <ele>1137</ele>
        <time>2016-08-27T08:09:46.000Z</time>
      </trkpt>
      <trkpt lat="45.98205" lon="6.25373">
        <ele>1137</ele>
        <time>2016-08-27T08:09:47.000Z</time>
      </trkpt>
      <trkpt lat="45.98205" lon="6.25372">
        <ele>1137</ele>
        <time>2016-08-27T08:09:48.000Z</time>
      </trkpt>
      <trkpt lat="45.98204" lon="6.25371">
        <ele>1137</ele>
        <time>2016-08-27T08:09:49.000Z</time>
      </trkpt>
      <trkpt lat="45.98204" lon="6.25369">
        <ele>1136</ele>
        <time>2016-08-27T08:09:50.000Z</time>
      </trkpt>
      <trkpt lat="45.98203" lon="6.25368">
        <ele>1136</ele>
        <time>2016-08-27T08:09:51.000Z</time>
      </trkpt>
      <trkpt lat="45.98202" lon="6.25366">
        <ele>1136</ele>
        <time>2016-08-27T08:09:52.000Z</time>
      </trkpt>
      <trkpt lat="45.98202" lon="6.25365">
        <ele>1136</ele>
        <time>2016-08-27T08:09:53.000Z</time>
      </trkpt>
      <trkpt lat="45.98201" lon="6.25363">
        <ele>1135</ele>
        <time>2016-08-27T08:09:54.000Z</time>
      </trkpt>
      <trkpt lat="45.98201" lon="6.25361">
        <ele>1135</ele>
        <time>2016-08-27T08:09:55.000Z</time>
      </trkpt>
      <trkpt lat="45.982" lon="6.2536">
        <ele>1134</ele>
        <time>2016-08-27T08:09:56.000Z</time>
      </trkpt>
      <trkpt lat="45.982" lon="6.25358">
        <ele>1134</ele>
        <time>2016-08-27T08:09:57.000Z</time>
      </trkpt>
      <trkpt lat="45.982" lon="6.25356">
        <ele>1134</ele>
        <time>2016-08-27T08:09:58.000Z</time>
      </trkpt>
      <trkpt lat="45.982" lon="6.25354">
        <ele>1134</ele>
        <time>2016-08-27T08:09:59.000Z</time>
      </trkpt>
      <trkpt lat="45.982" lon="6.25352">
        <ele>1133</ele>
        <time>2016-08-27T08:10:00.000Z</time>
      </trkpt>
      <trkpt lat="45.982" lon="6.2535">
        <ele>1133</ele>
        <time>2016-08-27T08:10:01.000Z</time>
      </trkpt>
      <trkpt lat="45.982" lon="6.25348">
        <ele>1133</ele>
        <time>2016-08-27T08:10:02.000Z</time>
      </trkpt>
      <trkpt lat="45.98201" lon="6.25347">
        <ele>1133</ele>
        <time>2016-08-27T08:10:03.000Z</time>
      </trkpt>
      <trkpt lat="45.98201" lon="6.25346">
        <ele>1132</ele>
        <time>2016-08-27T08:10:04.000Z</time>
      </trkpt>
      <trkpt lat="45.98202" lon="6.25344">
        <ele>1132</ele>
        <time>2016-08-27T08:10:05.000Z</time>
      </trkpt>
      <trkpt lat="45.98202" lon="6.25343">
        <ele>1132</ele>
        <time>2016-08-27T08:10:06.000Z</time>
      </trkpt>
      <trkpt lat="45.98203" lon="6.25342">
        <ele>1132</ele>
        <time>2016-08-27T08:10:07.000Z</time>
      </trkpt>
      <trkpt lat="45.98204" lon="6.25341">
        <ele>1132</ele>
        <time>2016-08-27T08:10:08.000Z</time>
      </trkpt>
      <trkpt lat="45.98204" lon="6.25339">
        <ele>1132</ele>
        <time>2016-08-27T08:10:09.000Z</time>
      </trkpt>
      <trkpt lat="45.98205" lon="6.25339">
        <ele>1131</ele>
        <time>2016-08-27T08:10:10.000Z</time>
      </trkpt>
      <trkpt lat="45.98205" lon="6.25338">
        <ele>1131</ele>
        <time>2016-08-27T08:10:11.000Z</time>
      </trkpt>
      <trkpt lat="45.98205" lon="6.25339">
        <ele>1131</ele>
        <time>2016-08-27T08:10:12.000Z</time>
      </trkpt>
      <trkpt lat="45.98206" lon="6.25339">
        <ele>1131</ele>
        <time>2016-08-27T08:10:13.000Z</time>
      </trkpt>
      <trkpt lat="45.98207" lon="6.2534">
        <ele>1130</ele>
        <time>2016-08-27T08:10:14.000Z</time>
      </trkpt>
      <trkpt lat="45.98208" lon="6.25341">
        <ele>1130</ele>
        <time>2016-08-27T08:10:15.000Z</time>
      </trkpt>
      <trkpt lat="45.98209" lon="6.25342">
        <ele>1130</ele>
        <time>2016-08-27T08:10:16.000Z</time>
      </trkpt>
      <trkpt lat="45.9821" lon="6.25343">
        <ele>1130</ele>
        <time>2016-08-27T08:10:17.000Z</time>
      </trkpt>
      <trkpt lat="45.98211" lon="6.25344">
        <ele>1129</ele>
        <time>2016-08-27T08:10:18.000Z</time>
      </trkpt>
      <trkpt lat="45.98212" lon="6.25346">
        <ele>1129</ele>
        <time>2016-08-27T08:10:19.000Z</time>
      </trkpt>
      <trkpt lat="45.98213" lon="6.25347">
        <ele>1129</ele>
        <time>2016-08-27T08:10:20.000Z</time>
      </trkpt>
      <trkpt lat="45.98214" lon="6.25348">
        <ele>1129</ele>
        <time>2016-08-27T08:10:21.000Z</time>
      </trkpt>
      <trkpt lat="45.98215" lon="6.2535">
        <ele>1128</ele>
        <time>2016-08-27T08:10:22.000Z</time>
      </trkpt>
      <trkpt lat="45.98215" lon="6.25351">
        <ele>1128</ele>
        <time>2016-08-27T08:10:23.000Z</time>
      </trkpt>
      <trkpt lat="45.98216" lon="6.25353">
        <ele>1128</ele>
        <time>2016-08-27T08:10:24.000Z</time>
      </trkpt>
      <trkpt lat="45.98217" lon="6.25354">
        <ele>1128</ele>
        <time>2016-08-27T08:10:25.000Z</time>
      </trkpt>
      <trkpt lat="45.98217" lon="6.25355">
        <ele>1127</ele>
        <time>2016-08-27T08:10:26.000Z</time>
      </trkpt>
      <trkpt lat="45.98218" lon="6.25356">
        <ele>1127</ele>
        <time>2016-08-27T08:10:27.000Z</time>
      </trkpt>
      <trkpt lat="45.98219" lon="6.25356">
        <ele>1127</ele>
        <time>2016-08-27T08:10:28.000Z</time>
      </trkpt>
      <trkpt lat="45.98219" lon="6.25356">
        <ele>1127</ele>
        <time>2016-08-27T08:10:29.000Z</time>
      </trkpt>
      <trkpt lat="45.9822" lon="6.25356">
        <ele>1126</ele>
        <time>2016-08-27T08:10:30.000Z</time>
      </trkpt>
      <trkpt lat="45.9822" lon="6.25355">
        <ele>1126</ele>
        <time>2016-08-27T08:10:31.000Z</time>
      </trkpt>
      <trkpt lat="45.9822" lon="6.25354">
        <ele>1125</ele>
        <time>2016-08-27T08:10:32.000Z</time>
      </trkpt>
      <trkpt lat="45.9822" lon="6.25353">
        <ele>1125</ele>
        <time>2016-08-27T08:10:33.000Z</time>
      </trkpt>
      <trkpt lat="45.9822" lon="6.25351">
        <ele>1125</ele>
        <time>2016-08-27T08:10:34.000Z</time>
      </trkpt>
      <trkpt lat="45.98219" lon="6.25349">
        <ele>1125</ele>
        <time>2016-08-27T08:10:35.000Z</time>
      </trkpt>
      <trkpt lat="45.98219" lon="6.25348">
        <ele>1124</ele>
        <time>2016-08-27T08:10:36.000Z</time>
      </trkpt>
      <trkpt lat="45.9822" lon="6.25346">
        <ele>1124</ele>
        <time>2016-08-27T08:10:37.000Z</time>
      </trkpt>
      <trkpt lat="45.9822" lon="6.25345">
        <ele>1124</ele>
        <time>2016-08-27T08:10:38.000Z</time>
      </trkpt>
      <trkpt lat="45.9822" lon="6.25343">
        <ele>1124</ele>
        <time>2016-08-27T08:10:39.000Z</time>
      </trkpt>
      <trkpt lat="45.9822" lon="6.25342">
        <ele>1123</ele>
        <time>2016-08-27T08:10:40.000Z</time>
      </trkpt>
      <trkpt lat="45.98221" lon="6.25341">
        <ele>1123</ele>
        <time>2016-08-27T08:10:41.000Z</time>
      </trkpt>
      <trkpt lat="45.98221" lon="6.25341">
        <ele>1123</ele>
        <time>2016-08-27T08:10:42.000Z</time>
      </trkpt>
      <trkpt lat="45.98222" lon="6.2534">
        <ele>1123</ele>
        <time>2016-08-27T08:10:43.000Z</time>
      </trkpt>
      <trkpt lat="45.98222" lon="6.25339">
        <ele>1122</ele>
        <time>2016-08-27T08:10:44.000Z</time>
      </trkpt>
      <trkpt lat="45.98221" lon="6.25338">
        <ele>1122</ele>
        <time>2016-08-27T08:10:45.000Z</time>
      </trkpt>
      <trkpt lat="45.98221" lon="6.25337">
        <ele>1122</ele>
        <time>2016-08-27T08:10:46.000Z</time>
      </trkpt>
      <trkpt lat="45.9822" lon="6.25336">
        <ele>1122</ele>
        <time>2016-08-27T08:10:47.000Z</time>
      </trkpt>
      <trkpt lat="45.9822" lon="6.25335">
        <ele>1121</ele>
        <time>2016-08-27T08:10:48.000Z</time>
      </trkpt>
      <trkpt lat="45.98219" lon="6.25334">
        <ele>1121</ele>
        <time>2016-08-27T08:10:49.000Z</time>
      </trkpt>
      <trkpt lat="45.98219" lon="6.25333">
        <ele>1120</ele>
        <time>2016-08-27T08:10:50.000Z</time>
      </trkpt>
      <trkpt lat="45.98219" lon="6.25331">
        <ele>1120</ele>
        <time>2016-08-27T08:10:51.000Z</time>
      </trkpt>
      <trkpt lat="45.98218" lon="6.2533">
        <ele>1120</ele>
        <time>2016-08-27T08:10:52.000Z</time>
      </trkpt>
      <trkpt lat="45.98218" lon="6.25329">
        <ele>1120</ele>
        <time>2016-08-27T08:10:53.000Z</time>
      </trkpt>
      <trkpt lat="45.98218" lon="6.25327">
        <ele>1119</ele>
        <time>2016-08-27T08:10:54.000Z</time>
      </trkpt>
      <trkpt lat="45.98218" lon="6.25325">
        <ele>1119</ele>
        <time>2016-08-27T08:10:55.000Z</time>
      </trkpt>
      <trkpt lat="45.98218" lon="6.25323">
        <ele>1118</ele>
        <time>2016-08-27T08:10:56.000Z</time>
      </trkpt>
      <trkpt lat="45.98218" lon="6.25322">
        <ele>1118</ele>
        <time>2016-08-27T08:10:57.000Z</time>
      </trkpt>
      <trkpt lat="45.98218" lon="6.2532">
        <ele>1118</ele>
        <time>2016-08-27T08:10:58.000Z</time>
      </trkpt>
      <trkpt lat="45.98218" lon="6.25319">
        <ele>1118</ele>
        <time>2016-08-27T08:10:59.000Z</time>
      </trkpt>
      <trkpt lat="45.98219" lon="6.25318">
        <ele>1117</ele>
        <time>2016-08-27T08:11:00.000Z</time>
      </trkpt>
      <trkpt lat="45.98219" lon="6.25316">
        <ele>1117</ele>
        <time>2016-08-27T08:11:01.000Z</time>
      </trkpt>
      <trkpt lat="45.98219" lon="6.25315">
        <ele>1117</ele>
        <time>2016-08-27T08:11:02.000Z</time>
      </trkpt>
      <trkpt lat="45.98219" lon="6.25313">
        <ele>1117</ele>
        <time>2016-08-27T08:11:03.000Z</time>
      </trkpt>
      <trkpt lat="45.98219" lon="6.25312">
        <ele>1116</ele>
        <time>2016-08-27T08:11:04.000Z</time>
      </trkpt>
      <trkpt lat="45.98219" lon="6.25311">
        <ele>1116</ele>
        <time>2016-08-27T08:11:05.000Z</time>
      </trkpt>
      <trkpt lat="45.98219" lon="6.25309">
        <ele>1115</ele>
        <time>2016-08-27T08:11:06.000Z</time>
      </trkpt>
      <trkpt lat="45.98219" lon="6.25307">
        <ele>1115</ele>
        <time>2016-08-27T08:11:07.000Z</time>
      </trkpt>
      <trkpt lat="45.98219" lon="6.25306">
        <ele>1115</ele>
        <time>2016-08-27T08:11:08.000Z</time>
      </trkpt>
      <trkpt lat="45.98219" lon="6.25305">
        <ele>1115</ele>
        <time>2016-08-27T08:11:09.000Z</time>
      </trkpt>
      <trkpt lat="45.9822" lon="6.25304">
        <ele>1114</ele>
        <time>2016-08-27T08:11:10.000Z</time>
      </trkpt>
      <trkpt lat="45.9822" lon="6.25304">
        <ele>1114</ele>
        <time>2016-08-27T08:11:11.000Z</time>
      </trkpt>
      <trkpt lat="45.9822" lon="6.25304">
        <ele>1113</ele>
        <time>2016-08-27T08:11:12.000Z</time>
      </trkpt>
      <trkpt lat="45.98221" lon="6.25305">
        <ele>1113</ele>
        <time>2016-08-27T08:11:13.000Z</time>
      </trkpt>
      <trkpt lat="45.98222" lon="6.25306">
        <ele>1112</ele>
        <time>2016-08-27T08:11:14.000Z</time>
      </trkpt>
      <trkpt lat="45.98223" lon="6.25306">
        <ele>1112</ele>
        <time>2016-08-27T08:11:15.000Z</time>
      </trkpt>
      <trkpt lat="45.98223" lon="6.25307">
        <ele>1112</ele>
        <time>2016-08-27T08:11:16.000Z</time>
      </trkpt>
      <trkpt lat="45.98223" lon="6.25307">
        <ele>1112</ele>
        <time>2016-08-27T08:11:17.000Z</time>
      </trkpt>
      <trkpt lat="45.98224" lon="6.25307">
        <ele>1111</ele>
        <time>2016-08-27T08:11:18.000Z</time>
      </trkpt>
      <trkpt lat="45.98224" lon="6.25308">
        <ele>1111</ele>
        <time>2016-08-27T08:11:19.000Z</time>
      </trkpt>
      <trkpt lat="45.98224" lon="6.25309">
        <ele>1111</ele>
        <time>2016-08-27T08:11:20.000Z</time>
      </trkpt>
      <trkpt lat="45.98224" lon="6.25311">
        <ele>1111</ele>
        <time>2016-08-27T08:11:21.000Z</time>
      </trkpt>
      <trkpt lat="45.98224" lon="6.25311">
        <ele>1110</ele>
        <time>2016-08-27T08:11:22.000Z</time>
      </trkpt>
      <trkpt lat="45.98224" lon="6.25312">
        <ele>1110</ele>
        <time>2016-08-27T08:11:23.000Z</time>
      </trkpt>
      <trkpt lat="45.98224" lon="6.25313">
        <ele>1109</ele>
        <time>2016-08-27T08:11:24.000Z</time>
      </trkpt>
      <trkpt lat="45.98224" lon="6.25313">
        <ele>1109</ele>
        <time>2016-08-27T08:11:25.000Z</time>
      </trkpt>
      <trkpt lat="45.98224" lon="6.25315">
        <ele>1108</ele>
        <time>2016-08-27T08:11:26.000Z</time>
      </trkpt>
      <trkpt lat="45.98224" lon="6.25317">
        <ele>1108</ele>
        <time>2016-08-27T08:11:27.000Z</time>
      </trkpt>
      <trkpt lat="45.98224" lon="6.25319">
        <ele>1108</ele>
        <time>2016-08-27T08:11:28.000Z</time>
      </trkpt>
      <trkpt lat="45.98225" lon="6.2532">
        <ele>1108</ele>
        <time>2016-08-27T08:11:29.000Z</time>
      </trkpt>
      <trkpt lat="45.98225" lon="6.25322">
        <ele>1107</ele>
        <time>2016-08-27T08:11:30.000Z</time>
      </trkpt>
      <trkpt lat="45.98225" lon="6.25324">
        <ele>1107</ele>
        <time>2016-08-27T08:11:31.000Z</time>
      </trkpt>
      <trkpt lat="45.98226" lon="6.25326">
        <ele>1107</ele>
        <time>2016-08-27T08:11:32.000Z</time>
      </trkpt>
      <trkpt lat="45.98227" lon="6.25328">
        <ele>1107</ele>
        <time>2016-08-27T08:11:33.000Z</time>
      </trkpt>
      <trkpt lat="45.98227" lon="6.25329">
        <ele>1106</ele>
        <time>2016-08-27T08:11:34.000Z</time>
      </trkpt>
      <trkpt lat="45.98228" lon="6.25331">
        <ele>1106</ele>
        <time>2016-08-27T08:11:35.000Z</time>
      </trkpt>
      <trkpt lat="45.98229" lon="6.25332">
        <ele>1106</ele>
        <time>2016-08-27T08:11:36.000Z</time>
      </trkpt>
      <trkpt lat="45.98229" lon="6.25334">
        <ele>1106</ele>
        <time>2016-08-27T08:11:37.000Z</time>
      </trkpt>
      <trkpt lat="45.9823" lon="6.25336">
        <ele>1105</ele>
        <time>2016-08-27T08:11:38.000Z</time>
      </trkpt>
      <trkpt lat="45.98231" lon="6.25337">
        <ele>1105</ele>
        <time>2016-08-27T08:11:39.000Z</time>
      </trkpt>
      <trkpt lat="45.98231" lon="6.25338">
        <ele>1105</ele>
        <time>2016-08-27T08:11:40.000Z</time>
      </trkpt>
      <trkpt lat="45.98232" lon="6.2534">
        <ele>1105</ele>
        <time>2016-08-27T08:11:41.000Z</time>
      </trkpt>
      <trkpt lat="45.98232" lon="6.25341">
        <ele>1104</ele>
        <time>2016-08-27T08:11:42.000Z</time>
      </trkpt>
      <trkpt lat="45.98232" lon="6.25343">
        <ele>1104</ele>
        <time>2016-08-27T08:11:43.000Z</time>
      </trkpt>
      <trkpt lat="45.98232" lon="6.25344">
        <ele>1104</ele>
        <time>2016-08-27T08:11:44.000Z</time>
      </trkpt>
      <trkpt lat="45.98232" lon="6.25345">
        <ele>1104</ele>
        <time>2016-08-27T08:11:45.000Z</time>
      </trkpt>
      <trkpt lat="45.98232" lon="6.25346">
        <ele>1103</ele>
        <time>2016-08-27T08:11:46.000Z</time>
      </trkpt>
      <trkpt lat="45.98232" lon="6.25347">
        <ele>1103</ele>
        <time>2016-08-27T08:11:47.000Z</time>
      </trkpt>
      <trkpt lat="45.98233" lon="6.25348">
        <ele>1102</ele>
        <time>2016-08-27T08:11:48.000Z</time>
      </trkpt>
      <trkpt lat="45.98233" lon="6.25349">
        <ele>1102</ele>
        <time>2016-08-27T08:11:49.000Z</time>
      </trkpt>
      <trkpt lat="45.98233" lon="6.2535">
        <ele>1102</ele>
        <time>2016-08-27T08:11:50.000Z</time>
      </trkpt>
      <trkpt lat="45.98234" lon="6.25351">
        <ele>1102</ele>
        <time>2016-08-27T08:11:51.000Z</time>
      </trkpt>
      <trkpt lat="45.98234" lon="6.25353">
        <ele>1101</ele>
        <time>2016-08-27T08:11:52.000Z</time>
      </trkpt>
      <trkpt lat="45.98235" lon="6.25354">
        <ele>1101</ele>
        <time>2016-08-27T08:11:53.000Z</time>
      </trkpt>
      <trkpt lat="45.98236" lon="6.25356">
        <ele>1101</ele>
        <time>2016-08-27T08:11:54.000Z</time>
      </trkpt>
      <trkpt lat="45.98237" lon="6.25357">
        <ele>1101</ele>
        <time>2016-08-27T08:11:55.000Z</time>
      </trkpt>
      <trkpt lat="45.98238" lon="6.25358">
        <ele>1101</ele>
        <time>2016-08-27T08:11:56.000Z</time>
      </trkpt>
      <trkpt lat="45.98239" lon="6.25359">
        <ele>1101</ele>
        <time>2016-08-27T08:11:57.000Z</time>
      </trkpt>
      <trkpt lat="45.9824" lon="6.2536">
        <ele>1100</ele>
        <time>2016-08-27T08:11:58.000Z</time>
      </trkpt>
      <trkpt lat="45.9824" lon="6.2536">
        <ele>1100</ele>
        <time>2016-08-27T08:11:59.000Z</time>
      </trkpt>
      <trkpt lat="45.9824" lon="6.2536">
        <ele>1100</ele>
        <time>2016-08-27T08:12:00.000Z</time>
      </trkpt>
      <trkpt lat="45.98241" lon="6.25359">
        <ele>1100</ele>
        <time>2016-08-27T08:12:01.000Z</time>
      </trkpt>
      <trkpt lat="45.98241" lon="6.25358">
        <ele>1099</ele>
        <time>2016-08-27T08:12:02.000Z</time>
      </trkpt>
      <trkpt lat="45.98242" lon="6.25357">
        <ele>1099</ele>
        <time>2016-08-27T08:12:03.000Z</time>
      </trkpt>
      <trkpt lat="45.98242" lon="6.25357">
        <ele>1098</ele>
        <time>2016-08-27T08:12:04.000Z</time>
      </trkpt>
      <trkpt lat="45.98243" lon="6.25356">
        <ele>1098</ele>
        <time>2016-08-27T08:12:05.000Z</time>
      </trkpt>
      <trkpt lat="45.98244" lon="6.25355">
        <ele>1098</ele>
        <time>2016-08-27T08:12:06.000Z</time>
      </trkpt>
      <trkpt lat="45.98245" lon="6.25353">
        <ele>1098</ele>
        <time>2016-08-27T08:12:07.000Z</time>
      </trkpt>
      <trkpt lat="45.98245" lon="6.25352">
        <ele>1097</ele>
        <time>2016-08-27T08:12:08.000Z</time>
      </trkpt>
      <trkpt lat="45.98246" lon="6.25351">
        <ele>1097</ele>
        <time>2016-08-27T08:12:09.000Z</time>
      </trkpt>
      <trkpt lat="45.98247" lon="6.2535">
        <ele>1096</ele>
        <time>2016-08-27T08:12:10.000Z</time>
      </trkpt>
      <trkpt lat="45.98247" lon="6.25349">
        <ele>1096</ele>
        <time>2016-08-27T08:12:11.000Z</time>
      </trkpt>
      <trkpt lat="45.98248" lon="6.25348">
        <ele>1096</ele>
        <time>2016-08-27T08:12:12.000Z</time>
      </trkpt>
      <trkpt lat="45.98249" lon="6.25346">
        <ele>1096</ele>
        <time>2016-08-27T08:12:13.000Z</time>
      </trkpt>
      <trkpt lat="45.98249" lon="6.25345">
        <ele>1095</ele>
        <time>2016-08-27T08:12:14.000Z</time>
      </trkpt>
      <trkpt lat="45.9825" lon="6.25344">
        <ele>1095</ele>
        <time>2016-08-27T08:12:15.000Z</time>
      </trkpt>
      <trkpt lat="45.98251" lon="6.25343">
        <ele>1094</ele>
        <time>2016-08-27T08:12:16.000Z</time>
      </trkpt>
      <trkpt lat="45.98251" lon="6.25342">
        <ele>1094</ele>
        <time>2016-08-27T08:12:17.000Z</time>
      </trkpt>
      <trkpt lat="45.98251" lon="6.25341">
        <ele>1094</ele>
        <time>2016-08-27T08:12:18.000Z</time>
      </trkpt>
      <trkpt lat="45.98252" lon="6.2534">
        <ele>1094</ele>
        <time>2016-08-27T08:12:19.000Z</time>
      </trkpt>
      <trkpt lat="45.98252" lon="6.25341">
        <ele>1093</ele>
        <time>2016-08-27T08:12:20.000Z</time>
      </trkpt>
      <trkpt lat="45.98252" lon="6.25341">
        <ele>1093</ele>
        <time>2016-08-27T08:12:21.000Z</time>
      </trkpt>
      <trkpt lat="45.98252" lon="6.25342">
        <ele>1093</ele>
        <time>2016-08-27T08:12:22.000Z</time>
      </trkpt>
      <trkpt lat="45.98252" lon="6.25343">
        <ele>1093</ele>
        <time>2016-08-27T08:12:23.000Z</time>
      </trkpt>
      <trkpt lat="45.98253" lon="6.25344">
        <ele>1092</ele>
        <time>2016-08-27T08:12:24.000Z</time>
      </trkpt>
      <trkpt lat="45.98253" lon="6.25346">
        <ele>1092</ele>
        <time>2016-08-27T08:12:25.000Z</time>
      </trkpt>
      <trkpt lat="45.98254" lon="6.25347">
        <ele>1092</ele>
        <time>2016-08-27T08:12:26.000Z</time>
      </trkpt>
      <trkpt lat="45.98254" lon="6.25349">
        <ele>1092</ele>
        <time>2016-08-27T08:12:27.000Z</time>
      </trkpt>
      <trkpt lat="45.98254" lon="6.2535">
        <ele>1091</ele>
        <time>2016-08-27T08:12:28.000Z</time>
      </trkpt>
      <trkpt lat="45.98255" lon="6.25352">
        <ele>1091</ele>
        <time>2016-08-27T08:12:29.000Z</time>
      </trkpt>
      <trkpt lat="45.98256" lon="6.25354">
        <ele>1091</ele>
        <time>2016-08-27T08:12:30.000Z</time>
      </trkpt>
      <trkpt lat="45.98256" lon="6.25355">
        <ele>1091</ele>
        <time>2016-08-27T08:12:31.000Z</time>
      </trkpt>
      <trkpt lat="45.98257" lon="6.25356">
        <ele>1091</ele>
        <time>2016-08-27T08:12:32.000Z</time>
      </trkpt>
      <trkpt lat="45.98258" lon="6.25357">
        <ele>1091</ele>
        <time>2016-08-27T08:12:33.000Z</time>
      </trkpt>
      <trkpt lat="45.98258" lon="6.25358">
        <ele>1090</ele>
        <time>2016-08-27T08:12:34.000Z</time>
      </trkpt>
      <trkpt lat="45.98259" lon="6.25359">
        <ele>1090</ele>
        <time>2016-08-27T08:12:35.000Z</time>
      </trkpt>
      <trkpt lat="45.9826" lon="6.25359">
        <ele>1090</ele>
        <time>2016-08-27T08:12:36.000Z</time>
      </trkpt>
      <trkpt lat="45.98261" lon="6.25359">
        <ele>1090</ele>
        <time>2016-08-27T08:12:37.000Z</time>
      </trkpt>
      <trkpt lat="45.98262" lon="6.25358">
        <ele>1089</ele>
        <time>2016-08-27T08:12:38.000Z</time>
      </trkpt>
      <trkpt lat="45.98263" lon="6.25357">
        <ele>1089</ele>
        <time>2016-08-27T08:12:39.000Z</time>
      </trkpt>
      <trkpt lat="45.98264" lon="6.25357">
        <ele>1089</ele>
        <time>2016-08-27T08:12:40.000Z</time>
      </trkpt>
      <trkpt lat="45.98264" lon="6.25356">
        <ele>1089</ele>
        <time>2016-08-27T08:12:41.000Z</time>
      </trkpt>
      <trkpt lat="45.98265" lon="6.25354">
        <ele>1088</ele>
        <time>2016-08-27T08:12:42.000Z</time>
      </trkpt>
      <trkpt lat="45.98266" lon="6.25353">
        <ele>1088</ele>
        <time>2016-08-27T08:12:43.000Z</time>
      </trkpt>
      <trkpt lat="45.98266" lon="6.25352">
        <ele>1088</ele>
        <time>2016-08-27T08:12:44.000Z</time>
      </trkpt>
      <trkpt lat="45.98266" lon="6.25351">
        <ele>1088</ele>
        <time>2016-08-27T08:12:45.000Z</time>
      </trkpt>
      <trkpt lat="45.98267" lon="6.2535">
        <ele>1087</ele>
        <time>2016-08-27T08:12:46.000Z</time>
      </trkpt>
      <trkpt lat="45.98267" lon="6.25349">
        <ele>1087</ele>
        <time>2016-08-27T08:12:47.000Z</time>
      </trkpt>
      <trkpt lat="45.98268" lon="6.25347">
        <ele>1087</ele>
        <time>2016-08-27T08:12:48.000Z</time>
      </trkpt>
      <trkpt lat="45.98268" lon="6.25346">
        <ele>1087</ele>
        <time>2016-08-27T08:12:49.000Z</time>
      </trkpt>
      <trkpt lat="45.98268" lon="6.25345">
        <ele>1086</ele>
        <time>2016-08-27T08:12:50.000Z</time>
      </trkpt>
      <trkpt lat="45.98269" lon="6.25344">
        <ele>1086</ele>
        <time>2016-08-27T08:12:51.000Z</time>
      </trkpt>
      <trkpt lat="45.98269" lon="6.25343">
        <ele>1086</ele>
        <time>2016-08-27T08:12:52.000Z</time>
      </trkpt>
      <trkpt lat="45.9827" lon="6.25341">
        <ele>1086</ele>
        <time>2016-08-27T08:12:53.000Z</time>
      </trkpt>
      <trkpt lat="45.9827" lon="6.2534">
        <ele>1086</ele>
        <time>2016-08-27T08:12:54.000Z</time>
      </trkpt>
      <trkpt lat="45.9827" lon="6.25339">
        <ele>1086</ele>
        <time>2016-08-27T08:12:55.000Z</time>
      </trkpt>
      <trkpt lat="45.98269" lon="6.25338">
        <ele>1085</ele>
        <time>2016-08-27T08:12:56.000Z</time>
      </trkpt>
      <trkpt lat="45.98269" lon="6.25337">
        <ele>1085</ele>
        <time>2016-08-27T08:12:57.000Z</time>
      </trkpt>
      <trkpt lat="45.98268" lon="6.25336">
        <ele>1085</ele>
        <time>2016-08-27T08:12:58.000Z</time>
      </trkpt>
      <trkpt lat="45.98267" lon="6.25335">
        <ele>1085</ele>
        <time>2016-08-27T08:12:59.000Z</time>
      </trkpt>
      <trkpt lat="45.98267" lon="6.25334">
        <ele>1084</ele>
        <time>2016-08-27T08:13:00.000Z</time>
      </trkpt>
      <trkpt lat="45.98266" lon="6.25333">
        <ele>1084</ele>
        <time>2016-08-27T08:13:01.000Z</time>
      </trkpt>
      <trkpt lat="45.98265" lon="6.25332">
        <ele>1084</ele>
        <time>2016-08-27T08:13:02.000Z</time>
      </trkpt>
      <trkpt lat="45.98265" lon="6.25331">
        <ele>1084</ele>
        <time>2016-08-27T08:13:03.000Z</time>
      </trkpt>
      <trkpt lat="45.98265" lon="6.2533">
        <ele>1083</ele>
        <time>2016-08-27T08:13:04.000Z</time>
      </trkpt>
      <trkpt lat="45.98264" lon="6.25328">
        <ele>1083</ele>
        <time>2016-08-27T08:13:05.000Z</time>
      </trkpt>
      <trkpt lat="45.98264" lon="6.25327">
        <ele>1083</ele>
        <time>2016-08-27T08:13:06.000Z</time>
      </trkpt>
      <trkpt lat="45.98264" lon="6.25326">
        <ele>1083</ele>
        <time>2016-08-27T08:13:07.000Z</time>
      </trkpt>
      <trkpt lat="45.98264" lon="6.25326">
        <ele>1083</ele>
        <time>2016-08-27T08:13:08.000Z</time>
      </trkpt>
      <trkpt lat="45.98264" lon="6.25325">
        <ele>1083</ele>
        <time>2016-08-27T08:13:09.000Z</time>
      </trkpt>
      <trkpt lat="45.98264" lon="6.25324">
        <ele>1082</ele>
        <time>2016-08-27T08:13:10.000Z</time>
      </trkpt>
      <trkpt lat="45.98264" lon="6.25324">
        <ele>1082</ele>
        <time>2016-08-27T08:13:11.000Z</time>
      </trkpt>
      <trkpt lat="45.98264" lon="6.25324">
        <ele>1082</ele>
        <time>2016-08-27T08:13:12.000Z</time>
      </trkpt>
      <trkpt lat="45.98264" lon="6.25324">
        <ele>1082</ele>
        <time>2016-08-27T08:13:13.000Z</time>
      </trkpt>
      <trkpt lat="45.98264" lon="6.25325">
        <ele>1082</ele>
        <time>2016-08-27T08:13:14.000Z</time>
      </trkpt>
      <trkpt lat="45.98264" lon="6.25326">
        <ele>1082</ele>
        <time>2016-08-27T08:13:15.000Z</time>
      </trkpt>
      <trkpt lat="45.98264" lon="6.25327">
        <ele>1081</ele>
        <time>2016-08-27T08:13:16.000Z</time>
      </trkpt>
      <trkpt lat="45.98264" lon="6.25327">
        <ele>1081</ele>
        <time>2016-08-27T08:13:17.000Z</time>
      </trkpt>
      <trkpt lat="45.98265" lon="6.25329">
        <ele>1081</ele>
        <time>2016-08-27T08:13:18.000Z</time>
      </trkpt>
      <trkpt lat="45.98265" lon="6.2533">
        <ele>1081</ele>
        <time>2016-08-27T08:13:19.000Z</time>
      </trkpt>
      <trkpt lat="45.98265" lon="6.25331">
        <ele>1080</ele>
        <time>2016-08-27T08:13:20.000Z</time>
      </trkpt>
      <trkpt lat="45.98265" lon="6.25332">
        <ele>1080</ele>
        <time>2016-08-27T08:13:21.000Z</time>
      </trkpt>
      <trkpt lat="45.98265" lon="6.25333">
        <ele>1080</ele>
        <time>2016-08-27T08:13:22.000Z</time>
      </trkpt>
      <trkpt lat="45.98266" lon="6.25334">
        <ele>1080</ele>
        <time>2016-08-27T08:13:23.000Z</time>
      </trkpt>
      <trkpt lat="45.98267" lon="6.25336">
        <ele>1079</ele>
        <time>2016-08-27T08:13:24.000Z</time>
      </trkpt>
      <trkpt lat="45.98267" lon="6.25337">
        <ele>1079</ele>
        <time>2016-08-27T08:13:25.000Z</time>
      </trkpt>
      <trkpt lat="45.98268" lon="6.25339">
        <ele>1079</ele>
        <time>2016-08-27T08:13:26.000Z</time>
      </trkpt>
      <trkpt lat="45.98269" lon="6.25341">
        <ele>1079</ele>
        <time>2016-08-27T08:13:27.000Z</time>
      </trkpt>
      <trkpt lat="45.9827" lon="6.25343">
        <ele>1079</ele>
        <time>2016-08-27T08:13:28.000Z</time>
      </trkpt>
      <trkpt lat="45.98271" lon="6.25344">
        <ele>1079</ele>
        <time>2016-08-27T08:13:29.000Z</time>
      </trkpt>
      <trkpt lat="45.98271" lon="6.25346">
        <ele>1078</ele>
        <time>2016-08-27T08:13:30.000Z</time>
      </trkpt>
      <trkpt lat="45.98272" lon="6.25348">
        <ele>1078</ele>
        <time>2016-08-27T08:13:31.000Z</time>
      </trkpt>
      <trkpt lat="45.98273" lon="6.2535">
        <ele>1078</ele>
        <time>2016-08-27T08:13:32.000Z</time>
      </trkpt>
      <trkpt lat="45.98273" lon="6.25353">
        <ele>1078</ele>
        <time>2016-08-27T08:13:33.000Z</time>
      </trkpt>
      <trkpt lat="45.98274" lon="6.25355">
        <ele>1077</ele>
        <time>2016-08-27T08:13:34.000Z</time>
      </trkpt>
      <trkpt lat="45.98275" lon="6.25358">
        <ele>1077</ele>
        <time>2016-08-27T08:13:35.000Z</time>
      </trkpt>
      <trkpt lat="45.98276" lon="6.2536">
        <ele>1076</ele>
        <time>2016-08-27T08:13:36.000Z</time>
      </trkpt>
      <trkpt lat="45.98278" lon="6.25362">
        <ele>1076</ele>
        <time>2016-08-27T08:13:37.000Z</time>
      </trkpt>
      <trkpt lat="45.98279" lon="6.25363">
        <ele>1076</ele>
        <time>2016-08-27T08:13:38.000Z</time>
      </trkpt>
      <trkpt lat="45.9828" lon="6.25365">
        <ele>1076</ele>
        <time>2016-08-27T08:13:39.000Z</time>
      </trkpt>
      <trkpt lat="45.98282" lon="6.25367">
        <ele>1076</ele>
        <time>2016-08-27T08:13:40.000Z</time>
      </trkpt>
      <trkpt lat="45.98283" lon="6.25369">
        <ele>1076</ele>
        <time>2016-08-27T08:13:41.000Z</time>
      </trkpt>
      <trkpt lat="45.98285" lon="6.25371">
        <ele>1075</ele>
        <time>2016-08-27T08:13:42.000Z</time>
      </trkpt>
      <trkpt lat="45.98287" lon="6.25374">
        <ele>1075</ele>
        <time>2016-08-27T08:13:43.000Z</time>
      </trkpt>
      <trkpt lat="45.98288" lon="6.25377">
        <ele>1075</ele>
        <time>2016-08-27T08:13:44.000Z</time>
      </trkpt>
      <trkpt lat="45.9829" lon="6.25379">
        <ele>1075</ele>
        <time>2016-08-27T08:13:45.000Z</time>
      </trkpt>
      <trkpt lat="45.98291" lon="6.25382">
        <ele>1074</ele>
        <time>2016-08-27T08:13:46.000Z</time>
      </trkpt>
      <trkpt lat="45.98292" lon="6.25384">
        <ele>1074</ele>
        <time>2016-08-27T08:13:47.000Z</time>
      </trkpt>
      <trkpt lat="45.98292" lon="6.25387">
        <ele>1073</ele>
        <time>2016-08-27T08:13:48.000Z</time>
      </trkpt>
      <trkpt lat="45.98292" lon="6.2539">
        <ele>1073</ele>
        <time>2016-08-27T08:13:49.000Z</time>
      </trkpt>
      <trkpt lat="45.98293" lon="6.25393">
        <ele>1072</ele>
        <time>2016-08-27T08:13:50.000Z</time>
      </trkpt>
      <trkpt lat="45.98293" lon="6.25395">
        <ele>1072</ele>
        <time>2016-08-27T08:13:51.000Z</time>
      </trkpt>
      <trkpt lat="45.98293" lon="6.25397">
        <ele>1071</ele>
        <time>2016-08-27T08:13:52.000Z</time>
      </trkpt>
      <trkpt lat="45.98293" lon="6.25399">
        <ele>1071</ele>
        <time>2016-08-27T08:13:53.000Z</time>
      </trkpt>
      <trkpt lat="45.98294" lon="6.254">
        <ele>1070</ele>
        <time>2016-08-27T08:13:54.000Z</time>
      </trkpt>
      <trkpt lat="45.98295" lon="6.25402">
        <ele>1070</ele>
        <time>2016-08-27T08:13:55.000Z</time>
      </trkpt>
      <trkpt lat="45.98295" lon="6.25404">
        <ele>1069</ele>
        <time>2016-08-27T08:13:56.000Z</time>
      </trkpt>
      <trkpt lat="45.98296" lon="6.25405">
        <ele>1069</ele>
        <time>2016-08-27T08:13:57.000Z</time>
      </trkpt>
      <trkpt lat="45.98297" lon="6.25407">
        <ele>1068</ele>
        <time>2016-08-27T08:13:58.000Z</time>
      </trkpt>
      <trkpt lat="45.98298" lon="6.25409">
        <ele>1068</ele>
        <time>2016-08-27T08:13:59.000Z</time>
      </trkpt>
      <trkpt lat="45.98298" lon="6.2541">
        <ele>1067</ele>
        <time>2016-08-27T08:14:00.000Z</time>
      </trkpt>
      <trkpt lat="45.98298" lon="6.25412">
        <ele>1067</ele>
        <time>2016-08-27T08:14:01.000Z</time>
      </trkpt>
      <trkpt lat="45.98298" lon="6.25413">
        <ele>1066</ele>
        <time>2016-08-27T08:14:02.000Z</time>
      </trkpt>
      <trkpt lat="45.98297" lon="6.25415">
        <ele>1066</ele>
        <time>2016-08-27T08:14:03.000Z</time>
      </trkpt>
      <trkpt lat="45.98297" lon="6.25416">
        <ele>1066</ele>
        <time>2016-08-27T08:14:04.000Z</time>
      </trkpt>
      <trkpt lat="45.98297" lon="6.25418">
        <ele>1066</ele>
        <time>2016-08-27T08:14:05.000Z</time>
      </trkpt>
      <trkpt lat="45.98297" lon="6.2542">
        <ele>1065</ele>
        <time>2016-08-27T08:14:06.000Z</time>
      </trkpt>
      <trkpt lat="45.98297" lon="6.2542">
        <ele>1065</ele>
        <time>2016-08-27T08:14:07.000Z</time>
      </trkpt>
      <trkpt lat="45.98297" lon="6.2542">
        <ele>1064</ele>
        <time>2016-08-27T08:14:08.000Z</time>
      </trkpt>
      <trkpt lat="45.98297" lon="6.25419">
        <ele>1064</ele>
        <time>2016-08-27T08:14:09.000Z</time>
      </trkpt>
      <trkpt lat="45.98297" lon="6.25419">
        <ele>1064</ele>
        <time>2016-08-27T08:14:10.000Z</time>
      </trkpt>
      <trkpt lat="45.98297" lon="6.25418">
        <ele>1064</ele>
        <time>2016-08-27T08:14:11.000Z</time>
      </trkpt>
      <trkpt lat="45.98298" lon="6.25417">
        <ele>1063</ele>
        <time>2016-08-27T08:14:12.000Z</time>
      </trkpt>
      <trkpt lat="45.98298" lon="6.25416">
        <ele>1063</ele>
        <time>2016-08-27T08:14:13.000Z</time>
      </trkpt>
      <trkpt lat="45.98299" lon="6.25415">
        <ele>1063</ele>
        <time>2016-08-27T08:14:14.000Z</time>
      </trkpt>
      <trkpt lat="45.98299" lon="6.25414">
        <ele>1063</ele>
        <time>2016-08-27T08:14:15.000Z</time>
      </trkpt>
      <trkpt lat="45.98299" lon="6.25413">
        <ele>1062</ele>
        <time>2016-08-27T08:14:16.000Z</time>
      </trkpt>
      <trkpt lat="45.983" lon="6.25413">
        <ele>1062</ele>
        <time>2016-08-27T08:14:17.000Z</time>
      </trkpt>
      <trkpt lat="45.983" lon="6.25412">
        <ele>1061</ele>
        <time>2016-08-27T08:14:18.000Z</time>
      </trkpt>
      <trkpt lat="45.98301" lon="6.25411">
        <ele>1061</ele>
        <time>2016-08-27T08:14:19.000Z</time>
      </trkpt>
      <trkpt lat="45.98302" lon="6.2541">
        <ele>1061</ele>
        <time>2016-08-27T08:14:20.000Z</time>
      </trkpt>
      <trkpt lat="45.98302" lon="6.25409">
        <ele>1061</ele>
        <time>2016-08-27T08:14:21.000Z</time>
      </trkpt>
      <trkpt lat="45.98302" lon="6.25408">
        <ele>1060</ele>
        <time>2016-08-27T08:14:22.000Z</time>
      </trkpt>
      <trkpt lat="45.98303" lon="6.25407">
        <ele>1060</ele>
        <time>2016-08-27T08:14:23.000Z</time>
      </trkpt>
      <trkpt lat="45.98303" lon="6.25406">
        <ele>1060</ele>
        <time>2016-08-27T08:14:24.000Z</time>
      </trkpt>
      <trkpt lat="45.98304" lon="6.25405">
        <ele>1060</ele>
        <time>2016-08-27T08:14:25.000Z</time>
      </trkpt>
      <trkpt lat="45.98305" lon="6.25403">
        <ele>1059</ele>
        <time>2016-08-27T08:14:26.000Z</time>
      </trkpt>
      <trkpt lat="45.98305" lon="6.25402">
        <ele>1059</ele>
        <time>2016-08-27T08:14:27.000Z</time>
      </trkpt>
      <trkpt lat="45.98307" lon="6.254">
        <ele>1059</ele>
        <time>2016-08-27T08:14:28.000Z</time>
      </trkpt>
      <trkpt lat="45.98308" lon="6.25399">
        <ele>1059</ele>
        <time>2016-08-27T08:14:29.000Z</time>
      </trkpt>
      <trkpt lat="45.98309" lon="6.25397">
        <ele>1058</ele>
        <time>2016-08-27T08:14:30.000Z</time>
      </trkpt>
      <trkpt lat="45.9831" lon="6.25395">
        <ele>1058</ele>
        <time>2016-08-27T08:14:31.000Z</time>
      </trkpt>
      <trkpt lat="45.98311" lon="6.25393">
        <ele>1057</ele>
        <time>2016-08-27T08:14:32.000Z</time>
      </trkpt>
      <trkpt lat="45.98312" lon="6.25391">
        <ele>1057</ele>
        <time>2016-08-27T08:14:33.000Z</time>
      </trkpt>
      <trkpt lat="45.98313" lon="6.25389">
        <ele>1057</ele>
        <time>2016-08-27T08:14:34.000Z</time>
      </trkpt>
      <trkpt lat="45.98314" lon="6.25387">
        <ele>1057</ele>
        <time>2016-08-27T08:14:35.000Z</time>
      </trkpt>
      <trkpt lat="45.98315" lon="6.25385">
        <ele>1056</ele>
        <time>2016-08-27T08:14:36.000Z</time>
      </trkpt>
      <trkpt lat="45.98316" lon="6.25383">
        <ele>1056</ele>
        <time>2016-08-27T08:14:37.000Z</time>
      </trkpt>
      <trkpt lat="45.98316" lon="6.25381">
        <ele>1056</ele>
        <time>2016-08-27T08:14:38.000Z</time>
      </trkpt>
      <trkpt lat="45.98316" lon="6.25378">
        <ele>1056</ele>
        <time>2016-08-27T08:14:39.000Z</time>
      </trkpt>
      <trkpt lat="45.98316" lon="6.25375">
        <ele>1055</ele>
        <time>2016-08-27T08:14:40.000Z</time>
      </trkpt>
      <trkpt lat="45.98316" lon="6.25373">
        <ele>1055</ele>
        <time>2016-08-27T08:14:41.000Z</time>
      </trkpt>
      <trkpt lat="45.98317" lon="6.2537">
        <ele>1054</ele>
        <time>2016-08-27T08:14:42.000Z</time>
      </trkpt>
      <trkpt lat="45.98317" lon="6.25367">
        <ele>1054</ele>
        <time>2016-08-27T08:14:43.000Z</time>
      </trkpt>
      <trkpt lat="45.98317" lon="6.25365">
        <ele>1054</ele>
        <time>2016-08-27T08:14:44.000Z</time>
      </trkpt>
      <trkpt lat="45.98317" lon="6.25362">
        <ele>1054</ele>
        <time>2016-08-27T08:14:45.000Z</time>
      </trkpt>
      <trkpt lat="45.98317" lon="6.2536">
        <ele>1053</ele>
        <time>2016-08-27T08:14:46.000Z</time>
      </trkpt>
      <trkpt lat="45.98317" lon="6.25358">
        <ele>1053</ele>
        <time>2016-08-27T08:14:47.000Z</time>
      </trkpt>
      <trkpt lat="45.98316" lon="6.25356">
        <ele>1053</ele>
        <time>2016-08-27T08:14:48.000Z</time>
      </trkpt>
      <trkpt lat="45.98316" lon="6.25354">
        <ele>1053</ele>
        <time>2016-08-27T08:14:49.000Z</time>
      </trkpt>
      <trkpt lat="45.98315" lon="6.25351">
        <ele>1052</ele>
        <time>2016-08-27T08:14:50.000Z</time>
      </trkpt>
      <trkpt lat="45.98315" lon="6.25349">
        <ele>1052</ele>
        <time>2016-08-27T08:14:51.000Z</time>
      </trkpt>
      <trkpt lat="45.98314" lon="6.25346">
        <ele>1052</ele>
        <time>2016-08-27T08:14:52.000Z</time>
      </trkpt>
      <trkpt lat="45.98314" lon="6.25343">
        <ele>1052</ele>
        <time>2016-08-27T08:14:53.000Z</time>
      </trkpt>
      <trkpt lat="45.98313" lon="6.25341">
        <ele>1052</ele>
        <time>2016-08-27T08:14:54.000Z</time>
      </trkpt>
      <trkpt lat="45.98312" lon="6.25338">
        <ele>1052</ele>
        <time>2016-08-27T08:14:55.000Z</time>
      </trkpt>
      <trkpt lat="45.98311" lon="6.25335">
        <ele>1051</ele>
        <time>2016-08-27T08:14:56.000Z</time>
      </trkpt>
      <trkpt lat="45.9831" lon="6.25332">
        <ele>1051</ele>
        <time>2016-08-27T08:14:57.000Z</time>
      </trkpt>
      <trkpt lat="45.9831" lon="6.2533">
        <ele>1051</ele>
        <time>2016-08-27T08:14:58.000Z</time>
      </trkpt>
      <trkpt lat="45.98309" lon="6.25328">
        <ele>1051</ele>
        <time>2016-08-27T08:14:59.000Z</time>
      </trkpt>
      <trkpt lat="45.98308" lon="6.25326">
        <ele>1051</ele>
        <time>2016-08-27T08:15:00.000Z</time>
      </trkpt>
      <trkpt lat="45.98307" lon="6.25324">
        <ele>1051</ele>
        <time>2016-08-27T08:15:01.000Z</time>
      </trkpt>
      <trkpt lat="45.98307" lon="6.25321">
        <ele>1050</ele>
        <time>2016-08-27T08:15:02.000Z</time>
      </trkpt>
      <trkpt lat="45.98306" lon="6.25318">
        <ele>1050</ele>
        <time>2016-08-27T08:15:03.000Z</time>
      </trkpt>
      <trkpt lat="45.98307" lon="6.25316">
        <ele>1050</ele>
        <time>2016-08-27T08:15:04.000Z</time>
      </trkpt>
      <trkpt lat="45.98307" lon="6.25313">
        <ele>1050</ele>
        <time>2016-08-27T08:15:05.000Z</time>
      </trkpt>
      <trkpt lat="45.98307" lon="6.2531">
        <ele>1050</ele>
        <time>2016-08-27T08:15:06.000Z</time>
      </trkpt>
      <trkpt lat="45.98307" lon="6.25307">
        <ele>1050</ele>
        <time>2016-08-27T08:15:07.000Z</time>
      </trkpt>
      <trkpt lat="45.98307" lon="6.25304">
        <ele>1049</ele>
        <time>2016-08-27T08:15:08.000Z</time>
      </trkpt>
      <trkpt lat="45.98307" lon="6.25301">
        <ele>1049</ele>
        <time>2016-08-27T08:15:09.000Z</time>
      </trkpt>
      <trkpt lat="45.98307" lon="6.25298">
        <ele>1048</ele>
        <time>2016-08-27T08:15:10.000Z</time>
      </trkpt>
      <trkpt lat="45.98306" lon="6.25295">
        <ele>1048</ele>
        <time>2016-08-27T08:15:11.000Z</time>
      </trkpt>
      <trkpt lat="45.98306" lon="6.25293">
        <ele>1048</ele>
        <time>2016-08-27T08:15:12.000Z</time>
      </trkpt>
      <trkpt lat="45.98305" lon="6.2529">
        <ele>1048</ele>
        <time>2016-08-27T08:15:13.000Z</time>
      </trkpt>
      <trkpt lat="45.98305" lon="6.25288">
        <ele>1048</ele>
        <time>2016-08-27T08:15:14.000Z</time>
      </trkpt>
      <trkpt lat="45.98304" lon="6.25286">
        <ele>1048</ele>
        <time>2016-08-27T08:15:15.000Z</time>
      </trkpt>
      <trkpt lat="45.98303" lon="6.25284">
        <ele>1047</ele>
        <time>2016-08-27T08:15:16.000Z</time>
      </trkpt>
      <trkpt lat="45.98303" lon="6.25282">
        <ele>1047</ele>
        <time>2016-08-27T08:15:17.000Z</time>
      </trkpt>
      <trkpt lat="45.98302" lon="6.25281">
        <ele>1046</ele>
        <time>2016-08-27T08:15:18.000Z</time>
      </trkpt>
      <trkpt lat="45.98302" lon="6.25281">
        <ele>1046</ele>
        <time>2016-08-27T08:15:19.000Z</time>
      </trkpt>
      <trkpt lat="45.98301" lon="6.25281">
        <ele>1046</ele>
        <time>2016-08-27T08:15:20.000Z</time>
      </trkpt>
      <trkpt lat="45.98301" lon="6.25281">
        <ele>1046</ele>
        <time>2016-08-27T08:15:21.000Z</time>
      </trkpt>
      <trkpt lat="45.983" lon="6.25282">
        <ele>1045</ele>
        <time>2016-08-27T08:15:22.000Z</time>
      </trkpt>
      <trkpt lat="45.983" lon="6.25283">
        <ele>1045</ele>
        <time>2016-08-27T08:15:23.000Z</time>
      </trkpt>
      <trkpt lat="45.98301" lon="6.25284">
        <ele>1044</ele>
        <time>2016-08-27T08:15:24.000Z</time>
      </trkpt>
      <trkpt lat="45.98302" lon="6.25285">
        <ele>1044</ele>
        <time>2016-08-27T08:15:25.000Z</time>
      </trkpt>
      <trkpt lat="45.98303" lon="6.25287">
        <ele>1043</ele>
        <time>2016-08-27T08:15:26.000Z</time>
      </trkpt>
      <trkpt lat="45.98304" lon="6.25289">
        <ele>1043</ele>
        <time>2016-08-27T08:15:27.000Z</time>
      </trkpt>
      <trkpt lat="45.98305" lon="6.25291">
        <ele>1042</ele>
        <time>2016-08-27T08:15:28.000Z</time>
      </trkpt>
      <trkpt lat="45.98306" lon="6.25294">
        <ele>1042</ele>
        <time>2016-08-27T08:15:29.000Z</time>
      </trkpt>
      <trkpt lat="45.98308" lon="6.25296">
        <ele>1041</ele>
        <time>2016-08-27T08:15:30.000Z</time>
      </trkpt>
      <trkpt lat="45.98309" lon="6.25298">
        <ele>1041</ele>
        <time>2016-08-27T08:15:31.000Z</time>
      </trkpt>
      <trkpt lat="45.98311" lon="6.253">
        <ele>1040</ele>
        <time>2016-08-27T08:15:32.000Z</time>
      </trkpt>
      <trkpt lat="45.98312" lon="6.25303">
        <ele>1040</ele>
        <time>2016-08-27T08:15:33.000Z</time>
      </trkpt>
      <trkpt lat="45.98313" lon="6.25304">
        <ele>1040</ele>
        <time>2016-08-27T08:15:34.000Z</time>
      </trkpt>
      <trkpt lat="45.98314" lon="6.25305">
        <ele>1040</ele>
        <time>2016-08-27T08:15:35.000Z</time>
      </trkpt>
      <trkpt lat="45.98315" lon="6.25305">
        <ele>1039</ele>
        <time>2016-08-27T08:15:36.000Z</time>
      </trkpt>
      <trkpt lat="45.98317" lon="6.25305">
        <ele>1039</ele>
        <time>2016-08-27T08:15:37.000Z</time>
      </trkpt>
      <trkpt lat="45.98318" lon="6.25304">
        <ele>1038</ele>
        <time>2016-08-27T08:15:38.000Z</time>
      </trkpt>
      <trkpt lat="45.98319" lon="6.25303">
        <ele>1038</ele>
        <time>2016-08-27T08:15:39.000Z</time>
      </trkpt>
      <trkpt lat="45.9832" lon="6.25301">
        <ele>1037</ele>
        <time>2016-08-27T08:15:40.000Z</time>
      </trkpt>
      <trkpt lat="45.9832" lon="6.253">
        <ele>1037</ele>
        <time>2016-08-27T08:15:41.000Z</time>
      </trkpt>
      <trkpt lat="45.98321" lon="6.25298">
        <ele>1037</ele>
        <time>2016-08-27T08:15:42.000Z</time>
      </trkpt>
      <trkpt lat="45.98322" lon="6.25296">
        <ele>1037</ele>
        <time>2016-08-27T08:15:43.000Z</time>
      </trkpt>
      <trkpt lat="45.98323" lon="6.25294">
        <ele>1036</ele>
        <time>2016-08-27T08:15:44.000Z</time>
      </trkpt>
      <trkpt lat="45.98324" lon="6.25293">
        <ele>1036</ele>
        <time>2016-08-27T08:15:45.000Z</time>
      </trkpt>
      <trkpt lat="45.98324" lon="6.25293">
        <ele>1035</ele>
        <time>2016-08-27T08:15:46.000Z</time>
      </trkpt>
      <trkpt lat="45.98325" lon="6.25294">
        <ele>1035</ele>
        <time>2016-08-27T08:15:47.000Z</time>
      </trkpt>
      <trkpt lat="45.98326" lon="6.25294">
        <ele>1034</ele>
        <time>2016-08-27T08:15:48.000Z</time>
      </trkpt>
      <trkpt lat="45.98327" lon="6.25293">
        <ele>1034</ele>
        <time>2016-08-27T08:15:49.000Z</time>
      </trkpt>
      <trkpt lat="45.98328" lon="6.25292">
        <ele>1033</ele>
        <time>2016-08-27T08:15:50.000Z</time>
      </trkpt>
      <trkpt lat="45.98329" lon="6.2529">
        <ele>1033</ele>
        <time>2016-08-27T08:15:51.000Z</time>
      </trkpt>
      <trkpt lat="45.9833" lon="6.25288">
        <ele>1033</ele>
        <time>2016-08-27T08:15:52.000Z</time>
      </trkpt>
      <trkpt lat="45.98331" lon="6.25286">
        <ele>1033</ele>
        <time>2016-08-27T08:15:53.000Z</time>
      </trkpt>
      <trkpt lat="45.98332" lon="6.25284">
        <ele>1032</ele>
        <time>2016-08-27T08:15:54.000Z</time>
      </trkpt>
      <trkpt lat="45.98332" lon="6.25283">
        <ele>1032</ele>
        <time>2016-08-27T08:15:55.000Z</time>
      </trkpt>
      <trkpt lat="45.98333" lon="6.25282">
        <ele>1031</ele>
        <time>2016-08-27T08:15:56.000Z</time>
      </trkpt>
      <trkpt lat="45.98333" lon="6.25281">
        <ele>1031</ele>
        <time>2016-08-27T08:15:57.000Z</time>
      </trkpt>
      <trkpt lat="45.98333" lon="6.25281">
        <ele>1031</ele>
        <time>2016-08-27T08:15:58.000Z</time>
      </trkpt>
      <trkpt lat="45.98333" lon="6.25281">
        <ele>1031</ele>
        <time>2016-08-27T08:15:59.000Z</time>
      </trkpt>
      <trkpt lat="45.98332" lon="6.25282">
        <ele>1030</ele>
        <time>2016-08-27T08:16:00.000Z</time>
      </trkpt>
      <trkpt lat="45.98332" lon="6.25283">
        <ele>1030</ele>
        <time>2016-08-27T08:16:01.000Z</time>
      </trkpt>
      <trkpt lat="45.98332" lon="6.25284">
        <ele>1029</ele>
        <time>2016-08-27T08:16:02.000Z</time>
      </trkpt>
      <trkpt lat="45.98332" lon="6.25285">
        <ele>1029</ele>
        <time>2016-08-27T08:16:03.000Z</time>
      </trkpt>
      <trkpt lat="45.98332" lon="6.25287">
        <ele>1028</ele>
        <time>2016-08-27T08:16:04.000Z</time>
      </trkpt>
      <trkpt lat="45.98333" lon="6.25289">
        <ele>1028</ele>
        <time>2016-08-27T08:16:05.000Z</time>
      </trkpt>
      <trkpt lat="45.98333" lon="6.25291">
        <ele>1027</ele>
        <time>2016-08-27T08:16:06.000Z</time>
      </trkpt>
      <trkpt lat="45.98333" lon="6.25292">
        <ele>1027</ele>
        <time>2016-08-27T08:16:07.000Z</time>
      </trkpt>
      <trkpt lat="45.98333" lon="6.25294">
        <ele>1026</ele>
        <time>2016-08-27T08:16:08.000Z</time>
      </trkpt>
      <trkpt lat="45.98333" lon="6.25295">
        <ele>1026</ele>
        <time>2016-08-27T08:16:09.000Z</time>
      </trkpt>
      <trkpt lat="45.98334" lon="6.25296">
        <ele>1025</ele>
        <time>2016-08-27T08:16:10.000Z</time>
      </trkpt>
      <trkpt lat="45.98334" lon="6.25298">
        <ele>1025</ele>
        <time>2016-08-27T08:16:11.000Z</time>
      </trkpt>
      <trkpt lat="45.98334" lon="6.25299">
        <ele>1025</ele>
        <time>2016-08-27T08:16:12.000Z</time>
      </trkpt>
      <trkpt lat="45.98335" lon="6.25301">
        <ele>1025</ele>
        <time>2016-08-27T08:16:13.000Z</time>
      </trkpt>
      <trkpt lat="45.98335" lon="6.25303">
        <ele>1024</ele>
        <time>2016-08-27T08:16:14.000Z</time>
      </trkpt>
      <trkpt lat="45.98336" lon="6.25305">
        <ele>1024</ele>
        <time>2016-08-27T08:16:15.000Z</time>
      </trkpt>
      <trkpt lat="45.98336" lon="6.25307">
        <ele>1023</ele>
        <time>2016-08-27T08:16:16.000Z</time>
      </trkpt>
      <trkpt lat="45.98337" lon="6.25309">
        <ele>1023</ele>
        <time>2016-08-27T08:16:17.000Z</time>
      </trkpt>
      <trkpt lat="45.98337" lon="6.2531">
        <ele>1023</ele>
        <time>2016-08-27T08:16:18.000Z</time>
      </trkpt>
      <trkpt lat="45.98339" lon="6.25312">
        <ele>1023</ele>
        <time>2016-08-27T08:16:19.000Z</time>
      </trkpt>
      <trkpt lat="45.9834" lon="6.25314">
        <ele>1022</ele>
        <time>2016-08-27T08:16:20.000Z</time>
      </trkpt>
      <trkpt lat="45.98342" lon="6.25316">
        <ele>1022</ele>
        <time>2016-08-27T08:16:21.000Z</time>
      </trkpt>
      <trkpt lat="45.98343" lon="6.25317">
        <ele>1022</ele>
        <time>2016-08-27T08:16:22.000Z</time>
      </trkpt>
      <trkpt lat="45.98344" lon="6.25318">
        <ele>1022</ele>
        <time>2016-08-27T08:16:23.000Z</time>
      </trkpt>
      <trkpt lat="45.98345" lon="6.25318">
        <ele>1022</ele>
        <time>2016-08-27T08:16:24.000Z</time>
      </trkpt>
      <trkpt lat="45.98347" lon="6.25319">
        <ele>1022</ele>
        <time>2016-08-27T08:16:25.000Z</time>
      </trkpt>
      <trkpt lat="45.98348" lon="6.2532">
        <ele>1021</ele>
        <time>2016-08-27T08:16:26.000Z</time>
      </trkpt>
      <trkpt lat="45.9835" lon="6.25321">
        <ele>1021</ele>
        <time>2016-08-27T08:16:27.000Z</time>
      </trkpt>
      <trkpt lat="45.98351" lon="6.25322">
        <ele>1020</ele>
        <time>2016-08-27T08:16:28.000Z</time>
      </trkpt>
      <trkpt lat="45.98353" lon="6.25323">
        <ele>1020</ele>
        <time>2016-08-27T08:16:29.000Z</time>
      </trkpt>
      <trkpt lat="45.98354" lon="6.25324">
        <ele>1020</ele>
        <time>2016-08-27T08:16:30.000Z</time>
      </trkpt>
      <trkpt lat="45.98356" lon="6.25326">
        <ele>1020</ele>
        <time>2016-08-27T08:16:31.000Z</time>
      </trkpt>
      <trkpt lat="45.98358" lon="6.25328">
        <ele>1019</ele>
        <time>2016-08-27T08:16:32.000Z</time>
      </trkpt>
      <trkpt lat="45.98359" lon="6.25331">
        <ele>1019</ele>
        <time>2016-08-27T08:16:33.000Z</time>
      </trkpt>
      <trkpt lat="45.98361" lon="6.25333">
        <ele>1018</ele>
        <time>2016-08-27T08:16:34.000Z</time>
      </trkpt>
      <trkpt lat="45.98363" lon="6.25336">
        <ele>1018</ele>
        <time>2016-08-27T08:16:35.000Z</time>
      </trkpt>
      <trkpt lat="45.98365" lon="6.25339">
        <ele>1018</ele>
        <time>2016-08-27T08:16:36.000Z</time>
      </trkpt>
      <trkpt lat="45.98366" lon="6.25342">
        <ele>1018</ele>
        <time>2016-08-27T08:16:37.000Z</time>
      </trkpt>
      <trkpt lat="45.98367" lon="6.25346">
        <ele>1017</ele>
        <time>2016-08-27T08:16:38.000Z</time>
      </trkpt>
      <trkpt lat="45.98368" lon="6.2535">
        <ele>1017</ele>
        <time>2016-08-27T08:16:39.000Z</time>
      </trkpt>
      <trkpt lat="45.98369" lon="6.25353">
        <ele>1016</ele>
        <time>2016-08-27T08:16:40.000Z</time>
      </trkpt>
      <trkpt lat="45.9837" lon="6.25356">
        <ele>1016</ele>
        <time>2016-08-27T08:16:41.000Z</time>
      </trkpt>
      <trkpt lat="45.98371" lon="6.25358">
        <ele>1015</ele>
        <time>2016-08-27T08:16:42.000Z</time>
      </trkpt>
      <trkpt lat="45.98372" lon="6.2536">
        <ele>1015</ele>
        <time>2016-08-27T08:16:43.000Z</time>
      </trkpt>
      <trkpt lat="45.98373" lon="6.2536">
        <ele>1014</ele>
        <time>2016-08-27T08:16:44.000Z</time>
      </trkpt>
      <trkpt lat="45.98374" lon="6.25359">
        <ele>1014</ele>
        <time>2016-08-27T08:16:45.000Z</time>
      </trkpt>
      <trkpt lat="45.98375" lon="6.25357">
        <ele>1013</ele>
        <time>2016-08-27T08:16:46.000Z</time>
      </trkpt>
      <trkpt lat="45.98377" lon="6.25356">
        <ele>1013</ele>
        <time>2016-08-27T08:16:47.000Z</time>
      </trkpt>
      <trkpt lat="45.98378" lon="6.25354">
        <ele>1012</ele>
        <time>2016-08-27T08:16:48.000Z</time>
      </trkpt>
      <trkpt lat="45.98378" lon="6.25351">
        <ele>1012</ele>
        <time>2016-08-27T08:16:49.000Z</time>
      </trkpt>
      <trkpt lat="45.98379" lon="6.25349">
        <ele>1011</ele>
        <time>2016-08-27T08:16:50.000Z</time>
      </trkpt>
      <trkpt lat="45.9838" lon="6.25347">
        <ele>1011</ele>
        <time>2016-08-27T08:16:51.000Z</time>
      </trkpt>
      <trkpt lat="45.9838" lon="6.25345">
        <ele>1010</ele>
        <time>2016-08-27T08:16:52.000Z</time>
      </trkpt>
      <trkpt lat="45.9838" lon="6.25343">
        <ele>1010</ele>
        <time>2016-08-27T08:16:53.000Z</time>
      </trkpt>
      <trkpt lat="45.9838" lon="6.2534">
        <ele>1010</ele>
        <time>2016-08-27T08:16:54.000Z</time>
      </trkpt>
      <trkpt lat="45.9838" lon="6.25338">
        <ele>1010</ele>
        <time>2016-08-27T08:16:55.000Z</time>
      </trkpt>
      <trkpt lat="45.9838" lon="6.25335">
        <ele>1009</ele>
        <time>2016-08-27T08:16:56.000Z</time>
      </trkpt>
      <trkpt lat="45.9838" lon="6.25333">
        <ele>1009</ele>
        <time>2016-08-27T08:16:57.000Z</time>
      </trkpt>
      <trkpt lat="45.9838" lon="6.25331">
        <ele>1008</ele>
        <time>2016-08-27T08:16:58.000Z</time>
      </trkpt>
      <trkpt lat="45.98379" lon="6.25329">
        <ele>1008</ele>
        <time>2016-08-27T08:16:59.000Z</time>
      </trkpt>
      <trkpt lat="45.98378" lon="6.25327">
        <ele>1007</ele>
        <time>2016-08-27T08:17:00.000Z</time>
      </trkpt>
      <trkpt lat="45.98378" lon="6.25324">
        <ele>1007</ele>
        <time>2016-08-27T08:17:01.000Z</time>
      </trkpt>
      <trkpt lat="45.98377" lon="6.25322">
        <ele>1006</ele>
        <time>2016-08-27T08:17:02.000Z</time>
      </trkpt>
      <trkpt lat="45.98376" lon="6.25319">
        <ele>1006</ele>
        <time>2016-08-27T08:17:03.000Z</time>
      </trkpt>
      <trkpt lat="45.98376" lon="6.25317">
        <ele>1006</ele>
        <time>2016-08-27T08:17:04.000Z</time>
      </trkpt>
      <trkpt lat="45.98376" lon="6.25314">
        <ele>1006</ele>
        <time>2016-08-27T08:17:05.000Z</time>
      </trkpt>
      <trkpt lat="45.98376" lon="6.25312">
        <ele>1005</ele>
        <time>2016-08-27T08:17:06.000Z</time>
      </trkpt>
      <trkpt lat="45.98376" lon="6.2531">
        <ele>1005</ele>
        <time>2016-08-27T08:17:07.000Z</time>
      </trkpt>
      <trkpt lat="45.98375" lon="6.25308">
        <ele>1004</ele>
        <time>2016-08-27T08:17:08.000Z</time>
      </trkpt>
      <trkpt lat="45.98375" lon="6.25306">
        <ele>1004</ele>
        <time>2016-08-27T08:17:09.000Z</time>
      </trkpt>
      <trkpt lat="45.98374" lon="6.25303">
        <ele>1003</ele>
        <time>2016-08-27T08:17:10.000Z</time>
      </trkpt>
      <trkpt lat="45.98374" lon="6.25301">
        <ele>1003</ele>
        <time>2016-08-27T08:17:11.000Z</time>
      </trkpt>
      <trkpt lat="45.98373" lon="6.25299">
        <ele>1003</ele>
        <time>2016-08-27T08:17:12.000Z</time>
      </trkpt>
      <trkpt lat="45.98372" lon="6.25296">
        <ele>1003</ele>
        <time>2016-08-27T08:17:13.000Z</time>
      </trkpt>
      <trkpt lat="45.98371" lon="6.25294">
        <ele>1002</ele>
        <time>2016-08-27T08:17:14.000Z</time>
      </trkpt>
      <trkpt lat="45.9837" lon="6.25291">
        <ele>1002</ele>
        <time>2016-08-27T08:17:15.000Z</time>
      </trkpt>
      <trkpt lat="45.98369" lon="6.25289">
        <ele>1002</ele>
        <time>2016-08-27T08:17:16.000Z</time>
      </trkpt>
      <trkpt lat="45.98369" lon="6.25286">
        <ele>1002</ele>
        <time>2016-08-27T08:17:17.000Z</time>
      </trkpt>
      <trkpt lat="45.98368" lon="6.25284">
        <ele>1001</ele>
        <time>2016-08-27T08:17:18.000Z</time>
      </trkpt>
      <trkpt lat="45.98367" lon="6.25281">
        <ele>1001</ele>
        <time>2016-08-27T08:17:19.000Z</time>
      </trkpt>
      <trkpt lat="45.98365" lon="6.25278">
        <ele>1001</ele>
        <time>2016-08-27T08:17:20.000Z</time>
      </trkpt>
      <trkpt lat="45.98365" lon="6.25275">
        <ele>1001</ele>
        <time>2016-08-27T08:17:21.000Z</time>
      </trkpt>
      <trkpt lat="45.98364" lon="6.25272">
        <ele>1000</ele>
        <time>2016-08-27T08:17:22.000Z</time>
      </trkpt>
      <trkpt lat="45.98362" lon="6.25269">
        <ele>1000</ele>
        <time>2016-08-27T08:17:23.000Z</time>
      </trkpt>
      <trkpt lat="45.98361" lon="6.25266">
        <ele>1000</ele>
        <time>2016-08-27T08:17:24.000Z</time>
      </trkpt>
      <trkpt lat="45.9836" lon="6.25262">
        <ele>1000</ele>
        <time>2016-08-27T08:17:25.000Z</time>
      </trkpt>
      <trkpt lat="45.9836" lon="6.25259">
        <ele>999</ele>
        <time>2016-08-27T08:17:26.000Z</time>
      </trkpt>
      <trkpt lat="45.98359" lon="6.25255">
        <ele>999</ele>
        <time>2016-08-27T08:17:27.000Z</time>
      </trkpt>
      <trkpt lat="45.98359" lon="6.25252">
        <ele>998</ele>
        <time>2016-08-27T08:17:28.000Z</time>
      </trkpt>
      <trkpt lat="45.98359" lon="6.25248">
        <ele>998</ele>
        <time>2016-08-27T08:17:29.000Z</time>
      </trkpt>
      <trkpt lat="45.98358" lon="6.25245">
        <ele>997</ele>
        <time>2016-08-27T08:17:30.000Z</time>
      </trkpt>
      <trkpt lat="45.98358" lon="6.25242">
        <ele>997</ele>
        <time>2016-08-27T08:17:31.000Z</time>
      </trkpt>
      <trkpt lat="45.98357" lon="6.2524">
        <ele>996</ele>
        <time>2016-08-27T08:17:32.000Z</time>
      </trkpt>
      <trkpt lat="45.98357" lon="6.25237">
        <ele>996</ele>
        <time>2016-08-27T08:17:33.000Z</time>
      </trkpt>
      <trkpt lat="45.98357" lon="6.25234">
        <ele>995</ele>
        <time>2016-08-27T08:17:34.000Z</time>
      </trkpt>
      <trkpt lat="45.98356" lon="6.25232">
        <ele>995</ele>
        <time>2016-08-27T08:17:35.000Z</time>
      </trkpt>
      <trkpt lat="45.98356" lon="6.25229">
        <ele>995</ele>
        <time>2016-08-27T08:17:36.000Z</time>
      </trkpt>
      <trkpt lat="45.98355" lon="6.25227">
        <ele>995</ele>
        <time>2016-08-27T08:17:37.000Z</time>
      </trkpt>
      <trkpt lat="45.98354" lon="6.25225">
        <ele>994</ele>
        <time>2016-08-27T08:17:38.000Z</time>
      </trkpt>
      <trkpt lat="45.98354" lon="6.25223">
        <ele>994</ele>
        <time>2016-08-27T08:17:39.000Z</time>
      </trkpt>
      <trkpt lat="45.98353" lon="6.25221">
        <ele>993</ele>
        <time>2016-08-27T08:17:40.000Z</time>
      </trkpt>
      <trkpt lat="45.98353" lon="6.2522">
        <ele>993</ele>
        <time>2016-08-27T08:17:41.000Z</time>
      </trkpt>
      <trkpt lat="45.98354" lon="6.2522">
        <ele>992</ele>
        <time>2016-08-27T08:17:42.000Z</time>
      </trkpt>
      <trkpt lat="45.98355" lon="6.2522">
        <ele>992</ele>
        <time>2016-08-27T08:17:43.000Z</time>
      </trkpt>
      <trkpt lat="45.98357" lon="6.25221">
        <ele>992</ele>
        <time>2016-08-27T08:17:44.000Z</time>
      </trkpt>
      <trkpt lat="45.98359" lon="6.25223">
        <ele>992</ele>
        <time>2016-08-27T08:17:45.000Z</time>
      </trkpt>
      <trkpt lat="45.9836" lon="6.25224">
        <ele>991</ele>
        <time>2016-08-27T08:17:46.000Z</time>
      </trkpt>
      <trkpt lat="45.98361" lon="6.25226">
        <ele>991</ele>
        <time>2016-08-27T08:17:47.000Z</time>
      </trkpt>
      <trkpt lat="45.98363" lon="6.25228">
        <ele>990</ele>
        <time>2016-08-27T08:17:48.000Z</time>
      </trkpt>
      <trkpt lat="45.98364" lon="6.2523">
        <ele>990</ele>
        <time>2016-08-27T08:17:49.000Z</time>
      </trkpt>
      <trkpt lat="45.98365" lon="6.25231">
        <ele>989</ele>
        <time>2016-08-27T08:17:50.000Z</time>
      </trkpt>
      <trkpt lat="45.98366" lon="6.25233">
        <ele>989</ele>
        <time>2016-08-27T08:17:51.000Z</time>
      </trkpt>
      <trkpt lat="45.98367" lon="6.25235">
        <ele>988</ele>
        <time>2016-08-27T08:17:52.000Z</time>
      </trkpt>
      <trkpt lat="45.98367" lon="6.25237">
        <ele>988</ele>
        <time>2016-08-27T08:17:53.000Z</time>
      </trkpt>
      <trkpt lat="45.98368" lon="6.25238">
        <ele>987</ele>
        <time>2016-08-27T08:17:54.000Z</time>
      </trkpt>
      <trkpt lat="45.98369" lon="6.2524">
        <ele>987</ele>
        <time>2016-08-27T08:17:55.000Z</time>
      </trkpt>
      <trkpt lat="45.9837" lon="6.25241">
        <ele>986</ele>
        <time>2016-08-27T08:17:56.000Z</time>
      </trkpt>
      <trkpt lat="45.9837" lon="6.25243">
        <ele>986</ele>
        <time>2016-08-27T08:17:57.000Z</time>
      </trkpt>
      <trkpt lat="45.98372" lon="6.25244">
        <ele>985</ele>
        <time>2016-08-27T08:17:58.000Z</time>
      </trkpt>
      <trkpt lat="45.98373" lon="6.25245">
        <ele>985</ele>
        <time>2016-08-27T08:17:59.000Z</time>
      </trkpt>
      <trkpt lat="45.98375" lon="6.25247">
        <ele>984</ele>
        <time>2016-08-27T08:18:00.000Z</time>
      </trkpt>
      <trkpt lat="45.98376" lon="6.25248">
        <ele>984</ele>
        <time>2016-08-27T08:18:01.000Z</time>
      </trkpt>
      <trkpt lat="45.98378" lon="6.25249">
        <ele>983</ele>
        <time>2016-08-27T08:18:02.000Z</time>
      </trkpt>
      <trkpt lat="45.98379" lon="6.25251">
        <ele>983</ele>
        <time>2016-08-27T08:18:03.000Z</time>
      </trkpt>
      <trkpt lat="45.98381" lon="6.25252">
        <ele>982</ele>
        <time>2016-08-27T08:18:04.000Z</time>
      </trkpt>
      <trkpt lat="45.98383" lon="6.25253">
        <ele>982</ele>
        <time>2016-08-27T08:18:05.000Z</time>
      </trkpt>
      <trkpt lat="45.98384" lon="6.25255">
        <ele>982</ele>
        <time>2016-08-27T08:18:06.000Z</time>
      </trkpt>
      <trkpt lat="45.98386" lon="6.25256">
        <ele>982</ele>
        <time>2016-08-27T08:18:07.000Z</time>
      </trkpt>
      <trkpt lat="45.98387" lon="6.25258">
        <ele>981</ele>
        <time>2016-08-27T08:18:08.000Z</time>
      </trkpt>
      <trkpt lat="45.98389" lon="6.2526">
        <ele>981</ele>
        <time>2016-08-27T08:18:09.000Z</time>
      </trkpt>
      <trkpt lat="45.98391" lon="6.25261">
        <ele>980</ele>
        <time>2016-08-27T08:18:10.000Z</time>
      </trkpt>
      <trkpt lat="45.98393" lon="6.25262">
        <ele>980</ele>
        <time>2016-08-27T08:18:11.000Z</time>
      </trkpt>
      <trkpt lat="45.98395" lon="6.25264">
        <ele>979</ele>
        <time>2016-08-27T08:18:12.000Z</time>
      </trkpt>
      <trkpt lat="45.98397" lon="6.25267">
        <ele>979</ele>
        <time>2016-08-27T08:18:13.000Z</time>
      </trkpt>
      <trkpt lat="45.98399" lon="6.25269">
        <ele>978</ele>
        <time>2016-08-27T08:18:14.000Z</time>
      </trkpt>
      <trkpt lat="45.98401" lon="6.25271">
        <ele>978</ele>
        <time>2016-08-27T08:18:15.000Z</time>
      </trkpt>
      <trkpt lat="45.98404" lon="6.25273">
        <ele>977</ele>
        <time>2016-08-27T08:18:16.000Z</time>
      </trkpt>
      <trkpt lat="45.98406" lon="6.25275">
        <ele>977</ele>
        <time>2016-08-27T08:18:17.000Z</time>
      </trkpt>
      <trkpt lat="45.98408" lon="6.25277">
        <ele>976</ele>
        <time>2016-08-27T08:18:18.000Z</time>
      </trkpt>
      <trkpt lat="45.98409" lon="6.25278">
        <ele>976</ele>
        <time>2016-08-27T08:18:19.000Z</time>
      </trkpt>
      <trkpt lat="45.9841" lon="6.25279">
        <ele>975</ele>
        <time>2016-08-27T08:18:20.000Z</time>
      </trkpt>
      <trkpt lat="45.9841" lon="6.25278">
        <ele>975</ele>
        <time>2016-08-27T08:18:21.000Z</time>
      </trkpt>
      <trkpt lat="45.98411" lon="6.25277">
        <ele>974</ele>
        <time>2016-08-27T08:18:22.000Z</time>
      </trkpt>
      <trkpt lat="45.98411" lon="6.25276">
        <ele>974</ele>
        <time>2016-08-27T08:18:23.000Z</time>
      </trkpt>
      <trkpt lat="45.98412" lon="6.25275">
        <ele>973</ele>
        <time>2016-08-27T08:18:24.000Z</time>
      </trkpt>
      <trkpt lat="45.98412" lon="6.25273">
        <ele>973</ele>
        <time>2016-08-27T08:18:25.000Z</time>
      </trkpt>
      <trkpt lat="45.98412" lon="6.25272">
        <ele>972</ele>
        <time>2016-08-27T08:18:26.000Z</time>
      </trkpt>
      <trkpt lat="45.98412" lon="6.2527">
        <ele>972</ele>
        <time>2016-08-27T08:18:27.000Z</time>
      </trkpt>
      <trkpt lat="45.98411" lon="6.25268">
        <ele>971</ele>
        <time>2016-08-27T08:18:28.000Z</time>
      </trkpt>
      <trkpt lat="45.98411" lon="6.25266">
        <ele>971</ele>
        <time>2016-08-27T08:18:29.000Z</time>
      </trkpt>
      <trkpt lat="45.9841" lon="6.25264">
        <ele>970</ele>
        <time>2016-08-27T08:18:30.000Z</time>
      </trkpt>
      <trkpt lat="45.98409" lon="6.25261">
        <ele>970</ele>
        <time>2016-08-27T08:18:31.000Z</time>
      </trkpt>
      <trkpt lat="45.98407" lon="6.25259">
        <ele>969</ele>
        <time>2016-08-27T08:18:32.000Z</time>
      </trkpt>
      <trkpt lat="45.98406" lon="6.25256">
        <ele>969</ele>
        <time>2016-08-27T08:18:33.000Z</time>
      </trkpt>
      <trkpt lat="45.98404" lon="6.25254">
        <ele>968</ele>
        <time>2016-08-27T08:18:34.000Z</time>
      </trkpt>
      <trkpt lat="45.98404" lon="6.25251">
        <ele>968</ele>
        <time>2016-08-27T08:18:35.000Z</time>
      </trkpt>
      <trkpt lat="45.98403" lon="6.25249">
        <ele>967</ele>
        <time>2016-08-27T08:18:36.000Z</time>
      </trkpt>
      <trkpt lat="45.98402" lon="6.25246">
        <ele>967</ele>
        <time>2016-08-27T08:18:37.000Z</time>
      </trkpt>
      <trkpt lat="45.98401" lon="6.25243">
        <ele>966</ele>
        <time>2016-08-27T08:18:38.000Z</time>
      </trkpt>
      <trkpt lat="45.98401" lon="6.25241">
        <ele>966</ele>
        <time>2016-08-27T08:18:39.000Z</time>
      </trkpt>
      <trkpt lat="45.984" lon="6.25239">
        <ele>965</ele>
        <time>2016-08-27T08:18:40.000Z</time>
      </trkpt>
      <trkpt lat="45.98399" lon="6.25237">
        <ele>965</ele>
        <time>2016-08-27T08:18:41.000Z</time>
      </trkpt>
      <trkpt lat="45.98398" lon="6.25236">
        <ele>964</ele>
        <time>2016-08-27T08:18:42.000Z</time>
      </trkpt>
      <trkpt lat="45.98398" lon="6.25234">
        <ele>964</ele>
        <time>2016-08-27T08:18:43.000Z</time>
      </trkpt>
      <trkpt lat="45.98397" lon="6.25233">
        <ele>964</ele>
        <time>2016-08-27T08:18:44.000Z</time>
      </trkpt>
      <trkpt lat="45.98396" lon="6.25231">
        <ele>964</ele>
        <time>2016-08-27T08:18:45.000Z</time>
      </trkpt>
      <trkpt lat="45.98396" lon="6.25229">
        <ele>963</ele>
        <time>2016-08-27T08:18:46.000Z</time>
      </trkpt>
      <trkpt lat="45.98395" lon="6.25228">
        <ele>963</ele>
        <time>2016-08-27T08:18:47.000Z</time>
      </trkpt>
      <trkpt lat="45.98394" lon="6.25225">
        <ele>963</ele>
        <time>2016-08-27T08:18:48.000Z</time>
      </trkpt>
      <trkpt lat="45.98394" lon="6.25223">
        <ele>963</ele>
        <time>2016-08-27T08:18:49.000Z</time>
      </trkpt>
      <trkpt lat="45.98393" lon="6.25221">
        <ele>962</ele>
        <time>2016-08-27T08:18:50.000Z</time>
      </trkpt>
      <trkpt lat="45.98393" lon="6.25219">
        <ele>962</ele>
        <time>2016-08-27T08:18:51.000Z</time>
      </trkpt>
      <trkpt lat="45.98392" lon="6.25217">
        <ele>961</ele>
        <time>2016-08-27T08:18:52.000Z</time>
      </trkpt>
      <trkpt lat="45.98392" lon="6.25215">
        <ele>961</ele>
        <time>2016-08-27T08:18:53.000Z</time>
      </trkpt>
      <trkpt lat="45.98392" lon="6.25213">
        <ele>961</ele>
        <time>2016-08-27T08:18:54.000Z</time>
      </trkpt>
      <trkpt lat="45.98391" lon="6.25211">
        <ele>961</ele>
        <time>2016-08-27T08:18:55.000Z</time>
      </trkpt>
      <trkpt lat="45.98391" lon="6.25211">
        <ele>961</ele>
        <time>2016-08-27T08:18:56.000Z</time>
      </trkpt>
      <trkpt lat="45.98391" lon="6.2521">
        <ele>961</ele>
        <time>2016-08-27T08:18:57.000Z</time>
      </trkpt>
      <trkpt lat="45.98391" lon="6.2521">
        <ele>960</ele>
        <time>2016-08-27T08:18:58.000Z</time>
      </trkpt>
      <trkpt lat="45.98392" lon="6.25211">
        <ele>960</ele>
        <time>2016-08-27T08:18:59.000Z</time>
      </trkpt>
      <trkpt lat="45.98392" lon="6.25212">
        <ele>960</ele>
        <time>2016-08-27T08:19:00.000Z</time>
      </trkpt>
      <trkpt lat="45.98394" lon="6.25213">
        <ele>960</ele>
        <time>2016-08-27T08:19:01.000Z</time>
      </trkpt>
      <trkpt lat="45.98395" lon="6.25214">
        <ele>959</ele>
        <time>2016-08-27T08:19:02.000Z</time>
      </trkpt>
      <trkpt lat="45.98396" lon="6.25215">
        <ele>959</ele>
        <time>2016-08-27T08:19:03.000Z</time>
      </trkpt>
      <trkpt lat="45.98398" lon="6.25217">
        <ele>959</ele>
        <time>2016-08-27T08:19:04.000Z</time>
      </trkpt>
      <trkpt lat="45.984" lon="6.25218">
        <ele>959</ele>
        <time>2016-08-27T08:19:05.000Z</time>
      </trkpt>
      <trkpt lat="45.98402" lon="6.2522">
        <ele>958</ele>
        <time>2016-08-27T08:19:06.000Z</time>
      </trkpt>
      <trkpt lat="45.98404" lon="6.25222">
        <ele>958</ele>
        <time>2016-08-27T08:19:07.000Z</time>
      </trkpt>
      <trkpt lat="45.98406" lon="6.25223">
        <ele>957</ele>
        <time>2016-08-27T08:19:08.000Z</time>
      </trkpt>
      <trkpt lat="45.98408" lon="6.25224">
        <ele>957</ele>
        <time>2016-08-27T08:19:09.000Z</time>
      </trkpt>
      <trkpt lat="45.9841" lon="6.25226">
        <ele>957</ele>
        <time>2016-08-27T08:19:10.000Z</time>
      </trkpt>
      <trkpt lat="45.98412" lon="6.25227">
        <ele>957</ele>
        <time>2016-08-27T08:19:11.000Z</time>
      </trkpt>
      <trkpt lat="45.98414" lon="6.25229">
        <ele>956</ele>
        <time>2016-08-27T08:19:12.000Z</time>
      </trkpt>
      <trkpt lat="45.98417" lon="6.25231">
        <ele>956</ele>
        <time>2016-08-27T08:19:13.000Z</time>
      </trkpt>
      <trkpt lat="45.98419" lon="6.25233">
        <ele>956</ele>
        <time>2016-08-27T08:19:14.000Z</time>
      </trkpt>
      <trkpt lat="45.9842" lon="6.25234">
        <ele>956</ele>
        <time>2016-08-27T08:19:15.000Z</time>
      </trkpt>
      <trkpt lat="45.98422" lon="6.25236">
        <ele>955</ele>
        <time>2016-08-27T08:19:16.000Z</time>
      </trkpt>
      <trkpt lat="45.98423" lon="6.25237">
        <ele>955</ele>
        <time>2016-08-27T08:19:17.000Z</time>
      </trkpt>
      <trkpt lat="45.98424" lon="6.25236">
        <ele>954</ele>
        <time>2016-08-27T08:19:18.000Z</time>
      </trkpt>
      <trkpt lat="45.98425" lon="6.25235">
        <ele>954</ele>
        <time>2016-08-27T08:19:19.000Z</time>
      </trkpt>
      <trkpt lat="45.98426" lon="6.25234">
        <ele>953</ele>
        <time>2016-08-27T08:19:20.000Z</time>
      </trkpt>
      <trkpt lat="45.98427" lon="6.25233">
        <ele>953</ele>
        <time>2016-08-27T08:19:21.000Z</time>
      </trkpt>
      <trkpt lat="45.98427" lon="6.25231">
        <ele>952</ele>
        <time>2016-08-27T08:19:22.000Z</time>
      </trkpt>
      <trkpt lat="45.98428" lon="6.2523">
        <ele>952</ele>
        <time>2016-08-27T08:19:23.000Z</time>
      </trkpt>
      <trkpt lat="45.98428" lon="6.25228">
        <ele>951</ele>
        <time>2016-08-27T08:19:24.000Z</time>
      </trkpt>
      <trkpt lat="45.98428" lon="6.25227">
        <ele>951</ele>
        <time>2016-08-27T08:19:25.000Z</time>
      </trkpt>
      <trkpt lat="45.98427" lon="6.25225">
        <ele>950</ele>
        <time>2016-08-27T08:19:26.000Z</time>
      </trkpt>
      <trkpt lat="45.98427" lon="6.25224">
        <ele>950</ele>
        <time>2016-08-27T08:19:27.000Z</time>
      </trkpt>
      <trkpt lat="45.98426" lon="6.25222">
        <ele>949</ele>
        <time>2016-08-27T08:19:28.000Z</time>
      </trkpt>
      <trkpt lat="45.98425" lon="6.2522">
        <ele>949</ele>
        <time>2016-08-27T08:19:29.000Z</time>
      </trkpt>
      <trkpt lat="45.98425" lon="6.25218">
        <ele>948</ele>
        <time>2016-08-27T08:19:30.000Z</time>
      </trkpt>
      <trkpt lat="45.98424" lon="6.25216">
        <ele>948</ele>
        <time>2016-08-27T08:19:31.000Z</time>
      </trkpt>
      <trkpt lat="45.98424" lon="6.25215">
        <ele>947</ele>
        <time>2016-08-27T08:19:32.000Z</time>
      </trkpt>
      <trkpt lat="45.98423" lon="6.25213">
        <ele>947</ele>
        <time>2016-08-27T08:19:33.000Z</time>
      </trkpt>
      <trkpt lat="45.98422" lon="6.25212">
        <ele>947</ele>
        <time>2016-08-27T08:19:34.000Z</time>
      </trkpt>
      <trkpt lat="45.98422" lon="6.2521">
        <ele>947</ele>
        <time>2016-08-27T08:19:35.000Z</time>
      </trkpt>
      <trkpt lat="45.98421" lon="6.25209">
        <ele>946</ele>
        <time>2016-08-27T08:19:36.000Z</time>
      </trkpt>
      <trkpt lat="45.9842" lon="6.25208">
        <ele>946</ele>
        <time>2016-08-27T08:19:37.000Z</time>
      </trkpt>
      <trkpt lat="45.98419" lon="6.25206">
        <ele>945</ele>
        <time>2016-08-27T08:19:38.000Z</time>
      </trkpt>
      <trkpt lat="45.98419" lon="6.25204">
        <ele>945</ele>
        <time>2016-08-27T08:19:39.000Z</time>
      </trkpt>
      <trkpt lat="45.98419" lon="6.25202">
        <ele>944</ele>
        <time>2016-08-27T08:19:40.000Z</time>
      </trkpt>
      <trkpt lat="45.98418" lon="6.252">
        <ele>944</ele>
        <time>2016-08-27T08:19:41.000Z</time>
      </trkpt>
      <trkpt lat="45.98418" lon="6.25198">
        <ele>944</ele>
        <time>2016-08-27T08:19:42.000Z</time>
      </trkpt>
      <trkpt lat="45.98418" lon="6.25195">
        <ele>944</ele>
        <time>2016-08-27T08:19:43.000Z</time>
      </trkpt>
      <trkpt lat="45.98417" lon="6.25192">
        <ele>943</ele>
        <time>2016-08-27T08:19:44.000Z</time>
      </trkpt>
      <trkpt lat="45.98417" lon="6.25189">
        <ele>943</ele>
        <time>2016-08-27T08:19:45.000Z</time>
      </trkpt>
      <trkpt lat="45.98417" lon="6.25187">
        <ele>942</ele>
        <time>2016-08-27T08:19:46.000Z</time>
      </trkpt>
      <trkpt lat="45.98416" lon="6.25185">
        <ele>942</ele>
        <time>2016-08-27T08:19:47.000Z</time>
      </trkpt>
      <trkpt lat="45.98416" lon="6.25183">
        <ele>942</ele>
        <time>2016-08-27T08:19:48.000Z</time>
      </trkpt>
      <trkpt lat="45.98415" lon="6.25181">
        <ele>942</ele>
        <time>2016-08-27T08:19:49.000Z</time>
      </trkpt>
      <trkpt lat="45.98415" lon="6.25179">
        <ele>941</ele>
        <time>2016-08-27T08:19:50.000Z</time>
      </trkpt>
      <trkpt lat="45.98415" lon="6.25178">
        <ele>941</ele>
        <time>2016-08-27T08:19:51.000Z</time>
      </trkpt>
      <trkpt lat="45.98414" lon="6.25177">
        <ele>941</ele>
        <time>2016-08-27T08:19:52.000Z</time>
      </trkpt>
      <trkpt lat="45.98414" lon="6.25177">
        <ele>941</ele>
        <time>2016-08-27T08:19:53.000Z</time>
      </trkpt>
      <trkpt lat="45.98415" lon="6.25178">
        <ele>940</ele>
        <time>2016-08-27T08:19:54.000Z</time>
      </trkpt>
      <trkpt lat="45.98415" lon="6.25179">
        <ele>940</ele>
        <time>2016-08-27T08:19:55.000Z</time>
      </trkpt>
      <trkpt lat="45.98415" lon="6.2518">
        <ele>939</ele>
        <time>2016-08-27T08:19:56.000Z</time>
      </trkpt>
      <trkpt lat="45.98415" lon="6.2518">
        <ele>939</ele>
        <time>2016-08-27T08:19:57.000Z</time>
      </trkpt>
      <trkpt lat="45.98416" lon="6.25181">
        <ele>939</ele>
        <time>2016-08-27T08:19:58.000Z</time>
      </trkpt>
      <trkpt lat="45.98416" lon="6.25182">
        <ele>939</ele>
        <time>2016-08-27T08:19:59.000Z</time>
      </trkpt>
      <trkpt lat="45.98417" lon="6.25183">
        <ele>938</ele>
        <time>2016-08-27T08:20:00.000Z</time>
      </trkpt>
      <trkpt lat="45.98418" lon="6.25185">
        <ele>938</ele>
        <time>2016-08-27T08:20:01.000Z</time>
      </trkpt>
      <trkpt lat="45.9842" lon="6.25187">
        <ele>937</ele>
        <time>2016-08-27T08:20:02.000Z</time>
      </trkpt>
      <trkpt lat="45.98421" lon="6.25188">
        <ele>937</ele>
        <time>2016-08-27T08:20:03.000Z</time>
      </trkpt>
      <trkpt lat="45.98422" lon="6.25189">
        <ele>936</ele>
        <time>2016-08-27T08:20:04.000Z</time>
      </trkpt>
      <trkpt lat="45.98424" lon="6.2519">
        <ele>936</ele>
        <time>2016-08-27T08:20:05.000Z</time>
      </trkpt>
      <trkpt lat="45.98425" lon="6.25191">
        <ele>935</ele>
        <time>2016-08-27T08:20:06.000Z</time>
      </trkpt>
      <trkpt lat="45.98426" lon="6.25193">
        <ele>935</ele>
        <time>2016-08-27T08:20:07.000Z</time>
      </trkpt>
      <trkpt lat="45.98426" lon="6.25194">
        <ele>935</ele>
        <time>2016-08-27T08:20:08.000Z</time>
      </trkpt>
      <trkpt lat="45.98427" lon="6.25196">
        <ele>935</ele>
        <time>2016-08-27T08:20:09.000Z</time>
      </trkpt>
      <trkpt lat="45.98427" lon="6.25196">
        <ele>934</ele>
        <time>2016-08-27T08:20:10.000Z</time>
      </trkpt>
      <trkpt lat="45.98428" lon="6.25197">
        <ele>934</ele>
        <time>2016-08-27T08:20:11.000Z</time>
      </trkpt>
      <trkpt lat="45.98428" lon="6.25198">
        <ele>933</ele>
        <time>2016-08-27T08:20:12.000Z</time>
      </trkpt>
      <trkpt lat="45.98429" lon="6.25199">
        <ele>933</ele>
        <time>2016-08-27T08:20:13.000Z</time>
      </trkpt>
      <trkpt lat="45.9843" lon="6.25199">
        <ele>932</ele>
        <time>2016-08-27T08:20:14.000Z</time>
      </trkpt>
      <trkpt lat="45.9843" lon="6.25201">
        <ele>932</ele>
        <time>2016-08-27T08:20:15.000Z</time>
      </trkpt>
      <trkpt lat="45.98431" lon="6.25202">
        <ele>932</ele>
        <time>2016-08-27T08:20:16.000Z</time>
      </trkpt>
      <trkpt lat="45.98433" lon="6.25203">
        <ele>932</ele>
        <time>2016-08-27T08:20:17.000Z</time>
      </trkpt>
      <trkpt lat="45.98434" lon="6.25205">
        <ele>931</ele>
        <time>2016-08-27T08:20:18.000Z</time>
      </trkpt>
      <trkpt lat="45.98435" lon="6.25206">
        <ele>931</ele>
        <time>2016-08-27T08:20:19.000Z</time>
      </trkpt>
      <trkpt lat="45.98437" lon="6.25207">
        <ele>930</ele>
        <time>2016-08-27T08:20:20.000Z</time>
      </trkpt>
      <trkpt lat="45.98438" lon="6.25209">
        <ele>930</ele>
        <time>2016-08-27T08:20:21.000Z</time>
      </trkpt>
      <trkpt lat="45.98439" lon="6.2521">
        <ele>930</ele>
        <time>2016-08-27T08:20:22.000Z</time>
      </trkpt>
      <trkpt lat="45.98441" lon="6.25212">
        <ele>930</ele>
        <time>2016-08-27T08:20:23.000Z</time>
      </trkpt>
      <trkpt lat="45.98442" lon="6.25213">
        <ele>929</ele>
        <time>2016-08-27T08:20:24.000Z</time>
      </trkpt>
      <trkpt lat="45.98444" lon="6.25215">
        <ele>929</ele>
        <time>2016-08-27T08:20:25.000Z</time>
      </trkpt>
      <trkpt lat="45.98445" lon="6.25217">
        <ele>929</ele>
        <time>2016-08-27T08:20:26.000Z</time>
      </trkpt>
      <trkpt lat="45.98446" lon="6.25219">
        <ele>929</ele>
        <time>2016-08-27T08:20:27.000Z</time>
      </trkpt>
      <trkpt lat="45.98447" lon="6.25221">
        <ele>928</ele>
        <time>2016-08-27T08:20:28.000Z</time>
      </trkpt>
      <trkpt lat="45.98448" lon="6.25224">
        <ele>928</ele>
        <time>2016-08-27T08:20:29.000Z</time>
      </trkpt>
      <trkpt lat="45.9845" lon="6.25227">
        <ele>927</ele>
        <time>2016-08-27T08:20:30.000Z</time>
      </trkpt>
      <trkpt lat="45.98451" lon="6.25229">
        <ele>927</ele>
        <time>2016-08-27T08:20:31.000Z</time>
      </trkpt>
      <trkpt lat="45.98453" lon="6.25232">
        <ele>926</ele>
        <time>2016-08-27T08:20:32.000Z</time>
      </trkpt>
      <trkpt lat="45.98455" lon="6.25234">
        <ele>926</ele>
        <time>2016-08-27T08:20:33.000Z</time>
      </trkpt>
      <trkpt lat="45.98456" lon="6.25237">
        <ele>925</ele>
        <time>2016-08-27T08:20:34.000Z</time>
      </trkpt>
      <trkpt lat="45.98458" lon="6.25239">
        <ele>925</ele>
        <time>2016-08-27T08:20:35.000Z</time>
      </trkpt>
      <trkpt lat="45.98459" lon="6.25241">
        <ele>925</ele>
        <time>2016-08-27T08:20:36.000Z</time>
      </trkpt>
      <trkpt lat="45.98461" lon="6.25244">
        <ele>925</ele>
        <time>2016-08-27T08:20:37.000Z</time>
      </trkpt>
      <trkpt lat="45.98463" lon="6.25246">
        <ele>924</ele>
        <time>2016-08-27T08:20:38.000Z</time>
      </trkpt>
      <trkpt lat="45.98464" lon="6.25247">
        <ele>924</ele>
        <time>2016-08-27T08:20:39.000Z</time>
      </trkpt>
      <trkpt lat="45.98466" lon="6.25249">
        <ele>923</ele>
        <time>2016-08-27T08:20:40.000Z</time>
      </trkpt>
      <trkpt lat="45.98468" lon="6.2525">
        <ele>923</ele>
        <time>2016-08-27T08:20:41.000Z</time>
      </trkpt>
      <trkpt lat="45.9847" lon="6.25252">
        <ele>922</ele>
        <time>2016-08-27T08:20:42.000Z</time>
      </trkpt>
      <trkpt lat="45.98472" lon="6.25254">
        <ele>922</ele>
        <time>2016-08-27T08:20:43.000Z</time>
      </trkpt>
      <trkpt lat="45.98474" lon="6.25256">
        <ele>921</ele>
        <time>2016-08-27T08:20:44.000Z</time>
      </trkpt>
      <trkpt lat="45.98476" lon="6.25257">
        <ele>921</ele>
        <time>2016-08-27T08:20:45.000Z</time>
      </trkpt>
      <trkpt lat="45.98478" lon="6.25259">
        <ele>920</ele>
        <time>2016-08-27T08:20:46.000Z</time>
      </trkpt>
      <trkpt lat="45.98479" lon="6.25261">
        <ele>920</ele>
        <time>2016-08-27T08:20:47.000Z</time>
      </trkpt>
      <trkpt lat="45.9848" lon="6.25262">
        <ele>919</ele>
        <time>2016-08-27T08:20:48.000Z</time>
      </trkpt>
      <trkpt lat="45.98481" lon="6.25264">
        <ele>919</ele>
        <time>2016-08-27T08:20:49.000Z</time>
      </trkpt>
      <trkpt lat="45.98482" lon="6.25266">
        <ele>918</ele>
        <time>2016-08-27T08:20:50.000Z</time>
      </trkpt>
      <trkpt lat="45.98484" lon="6.25268">
        <ele>918</ele>
        <time>2016-08-27T08:20:51.000Z</time>
      </trkpt>
      <trkpt lat="45.98485" lon="6.2527">
        <ele>917</ele>
        <time>2016-08-27T08:20:52.000Z</time>
      </trkpt>
      <trkpt lat="45.98487" lon="6.25273">
        <ele>917</ele>
        <time>2016-08-27T08:20:53.000Z</time>
      </trkpt>
      <trkpt lat="45.98489" lon="6.25275">
        <ele>916</ele>
        <time>2016-08-27T08:20:54.000Z</time>
      </trkpt>
      <trkpt lat="45.98491" lon="6.25277">
        <ele>916</ele>
        <time>2016-08-27T08:20:55.000Z</time>
      </trkpt>
      <trkpt lat="45.98492" lon="6.25278">
        <ele>915</ele>
        <time>2016-08-27T08:20:56.000Z</time>
      </trkpt>
      <trkpt lat="45.98493" lon="6.2528">
        <ele>915</ele>
        <time>2016-08-27T08:20:57.000Z</time>
      </trkpt>
      <trkpt lat="45.98495" lon="6.25281">
        <ele>914</ele>
        <time>2016-08-27T08:20:58.000Z</time>
      </trkpt>
      <trkpt lat="45.98496" lon="6.25283">
        <ele>914</ele>
        <time>2016-08-27T08:20:59.000Z</time>
      </trkpt>
      <trkpt lat="45.98496" lon="6.25285">
        <ele>913</ele>
        <time>2016-08-27T08:21:00.000Z</time>
      </trkpt>
      <trkpt lat="45.98497" lon="6.25286">
        <ele>913</ele>
        <time>2016-08-27T08:21:01.000Z</time>
      </trkpt>
      <trkpt lat="45.98498" lon="6.25287">
        <ele>911</ele>
        <time>2016-08-27T08:21:02.000Z</time>
      </trkpt>
      <trkpt lat="45.98498" lon="6.25289">
        <ele>911</ele>
        <time>2016-08-27T08:21:03.000Z</time>
      </trkpt>
      <trkpt lat="45.98499" lon="6.2529">
        <ele>910</ele>
        <time>2016-08-27T08:21:04.000Z</time>
      </trkpt>
      <trkpt lat="45.985" lon="6.25292">
        <ele>910</ele>
        <time>2016-08-27T08:21:05.000Z</time>
      </trkpt>
      <trkpt lat="45.98501" lon="6.25293">
        <ele>908</ele>
        <time>2016-08-27T08:21:06.000Z</time>
      </trkpt>
      <trkpt lat="45.98501" lon="6.25294">
        <ele>908</ele>
        <time>2016-08-27T08:21:07.000Z</time>
      </trkpt>
      <trkpt lat="45.98501" lon="6.25295">
        <ele>907</ele>
        <time>2016-08-27T08:21:08.000Z</time>
      </trkpt>
      <trkpt lat="45.98502" lon="6.25296">
        <ele>907</ele>
        <time>2016-08-27T08:21:09.000Z</time>
      </trkpt>
      <trkpt lat="45.98502" lon="6.25297">
        <ele>905</ele>
        <time>2016-08-27T08:21:10.000Z</time>
      </trkpt>
      <trkpt lat="45.98502" lon="6.25298">
        <ele>905</ele>
        <time>2016-08-27T08:21:11.000Z</time>
      </trkpt>
      <trkpt lat="45.98503" lon="6.25299">
        <ele>904</ele>
        <time>2016-08-27T08:21:12.000Z</time>
      </trkpt>
      <trkpt lat="45.98503" lon="6.253">
        <ele>904</ele>
        <time>2016-08-27T08:21:13.000Z</time>
      </trkpt>
      <trkpt lat="45.98502" lon="6.25301">
        <ele>903</ele>
        <time>2016-08-27T08:21:14.000Z</time>
      </trkpt>
      <trkpt lat="45.98502" lon="6.25302">
        <ele>903</ele>
        <time>2016-08-27T08:21:15.000Z</time>
      </trkpt>
      <trkpt lat="45.98502" lon="6.25303">
        <ele>902</ele>
        <time>2016-08-27T08:21:16.000Z</time>
      </trkpt>
      <trkpt lat="45.98502" lon="6.25305">
        <ele>902</ele>
        <time>2016-08-27T08:21:17.000Z</time>
      </trkpt>
      <trkpt lat="45.98502" lon="6.25306">
        <ele>901</ele>
        <time>2016-08-27T08:21:18.000Z</time>
      </trkpt>
      <trkpt lat="45.98502" lon="6.25307">
        <ele>901</ele>
        <time>2016-08-27T08:21:19.000Z</time>
      </trkpt>
      <trkpt lat="45.98502" lon="6.25308">
        <ele>900</ele>
        <time>2016-08-27T08:21:20.000Z</time>
      </trkpt>
      <trkpt lat="45.98502" lon="6.25309">
        <ele>900</ele>
        <time>2016-08-27T08:21:21.000Z</time>
      </trkpt>
      <trkpt lat="45.98502" lon="6.25311">
        <ele>898</ele>
        <time>2016-08-27T08:21:22.000Z</time>
      </trkpt>
      <trkpt lat="45.98502" lon="6.25312">
        <ele>898</ele>
        <time>2016-08-27T08:21:23.000Z</time>
      </trkpt>
      <trkpt lat="45.98502" lon="6.25313">
        <ele>897</ele>
        <time>2016-08-27T08:21:24.000Z</time>
      </trkpt>
      <trkpt lat="45.98502" lon="6.25314">
        <ele>897</ele>
        <time>2016-08-27T08:21:25.000Z</time>
      </trkpt>
      <trkpt lat="45.98502" lon="6.25315">
        <ele>896</ele>
        <time>2016-08-27T08:21:26.000Z</time>
      </trkpt>
      <trkpt lat="45.98503" lon="6.25315">
        <ele>896</ele>
        <time>2016-08-27T08:21:27.000Z</time>
      </trkpt>
      <trkpt lat="45.98503" lon="6.25316">
        <ele>895</ele>
        <time>2016-08-27T08:21:28.000Z</time>
      </trkpt>
      <trkpt lat="45.98504" lon="6.25318">
        <ele>895</ele>
        <time>2016-08-27T08:21:29.000Z</time>
      </trkpt>
      <trkpt lat="45.98505" lon="6.2532">
        <ele>894</ele>
        <time>2016-08-27T08:21:30.000Z</time>
      </trkpt>
      <trkpt lat="45.98506" lon="6.25322">
        <ele>894</ele>
        <time>2016-08-27T08:21:31.000Z</time>
      </trkpt>
      <trkpt lat="45.98507" lon="6.25323">
        <ele>893</ele>
        <time>2016-08-27T08:21:32.000Z</time>
      </trkpt>
      <trkpt lat="45.98508" lon="6.25325">
        <ele>893</ele>
        <time>2016-08-27T08:21:33.000Z</time>
      </trkpt>
      <trkpt lat="45.98509" lon="6.25327">
        <ele>892</ele>
        <time>2016-08-27T08:21:34.000Z</time>
      </trkpt>
      <trkpt lat="45.98511" lon="6.25329">
        <ele>892</ele>
        <time>2016-08-27T08:21:35.000Z</time>
      </trkpt>
      <trkpt lat="45.98512" lon="6.25331">
        <ele>891</ele>
        <time>2016-08-27T08:21:36.000Z</time>
      </trkpt>
      <trkpt lat="45.98513" lon="6.25333">
        <ele>891</ele>
        <time>2016-08-27T08:21:37.000Z</time>
      </trkpt>
      <trkpt lat="45.98515" lon="6.25336">
        <ele>890</ele>
        <time>2016-08-27T08:21:38.000Z</time>
      </trkpt>
      <trkpt lat="45.98516" lon="6.25337">
        <ele>890</ele>
        <time>2016-08-27T08:21:39.000Z</time>
      </trkpt>
      <trkpt lat="45.98517" lon="6.25338">
        <ele>889</ele>
        <time>2016-08-27T08:21:40.000Z</time>
      </trkpt>
      <trkpt lat="45.98519" lon="6.25339">
        <ele>889</ele>
        <time>2016-08-27T08:21:41.000Z</time>
      </trkpt>
      <trkpt lat="45.9852" lon="6.25338">
        <ele>888</ele>
        <time>2016-08-27T08:21:42.000Z</time>
      </trkpt>
      <trkpt lat="45.98521" lon="6.25337">
        <ele>888</ele>
        <time>2016-08-27T08:21:43.000Z</time>
      </trkpt>
      <trkpt lat="45.98522" lon="6.25336">
        <ele>887</ele>
        <time>2016-08-27T08:21:44.000Z</time>
      </trkpt>
      <trkpt lat="45.98522" lon="6.25334">
        <ele>887</ele>
        <time>2016-08-27T08:21:45.000Z</time>
      </trkpt>
      <trkpt lat="45.98523" lon="6.25333">
        <ele>886</ele>
        <time>2016-08-27T08:21:46.000Z</time>
      </trkpt>
      <trkpt lat="45.98523" lon="6.25332">
        <ele>886</ele>
        <time>2016-08-27T08:21:47.000Z</time>
      </trkpt>
      <trkpt lat="45.98523" lon="6.25332">
        <ele>885</ele>
        <time>2016-08-27T08:21:48.000Z</time>
      </trkpt>
      <trkpt lat="45.98523" lon="6.25331">
        <ele>885</ele>
        <time>2016-08-27T08:21:49.000Z</time>
      </trkpt>
      <trkpt lat="45.98523" lon="6.25331">
        <ele>884</ele>
        <time>2016-08-27T08:21:50.000Z</time>
      </trkpt>
      <trkpt lat="45.98523" lon="6.25331">
        <ele>884</ele>
        <time>2016-08-27T08:21:51.000Z</time>
      </trkpt>
      <trkpt lat="45.98522" lon="6.25331">
        <ele>884</ele>
        <time>2016-08-27T08:21:52.000Z</time>
      </trkpt>
      <trkpt lat="45.98522" lon="6.2533">
        <ele>884</ele>
        <time>2016-08-27T08:21:53.000Z</time>
      </trkpt>
      <trkpt lat="45.98521" lon="6.2533">
        <ele>883</ele>
        <time>2016-08-27T08:21:54.000Z</time>
      </trkpt>
      <trkpt lat="45.98521" lon="6.2533">
        <ele>883</ele>
        <time>2016-08-27T08:21:55.000Z</time>
      </trkpt>
      <trkpt lat="45.9852" lon="6.2533">
        <ele>883</ele>
        <time>2016-08-27T08:21:56.000Z</time>
      </trkpt>
      <trkpt lat="45.9852" lon="6.2533">
        <ele>883</ele>
        <time>2016-08-27T08:21:57.000Z</time>
      </trkpt>
      <trkpt lat="45.98519" lon="6.25329">
        <ele>883</ele>
        <time>2016-08-27T08:21:58.000Z</time>
      </trkpt>
      <trkpt lat="45.98519" lon="6.25329">
        <ele>883</ele>
        <time>2016-08-27T08:21:59.000Z</time>
      </trkpt>
      <trkpt lat="45.98519" lon="6.25329">
        <ele>883</ele>
        <time>2016-08-27T08:22:00.000Z</time>
      </trkpt>
      <trkpt lat="45.98519" lon="6.25329">
        <ele>883</ele>
        <time>2016-08-27T08:22:01.000Z</time>
      </trkpt>
      <trkpt lat="45.98518" lon="6.25329">
        <ele>882</ele>
        <time>2016-08-27T08:22:02.000Z</time>
      </trkpt>
      <trkpt lat="45.98518" lon="6.25328">
        <ele>882</ele>
        <time>2016-08-27T08:22:03.000Z</time>
      </trkpt>
      <trkpt lat="45.98518" lon="6.25328">
        <ele>882</ele>
        <time>2016-08-27T08:22:04.000Z</time>
      </trkpt>
      <trkpt lat="45.98517" lon="6.25328">
        <ele>882</ele>
        <time>2016-08-27T08:22:05.000Z</time>
      </trkpt>
      <trkpt lat="45.98517" lon="6.25328">
        <ele>882</ele>
        <time>2016-08-27T08:22:06.000Z</time>
      </trkpt>
      <trkpt lat="45.98517" lon="6.25328">
        <ele>882</ele>
        <time>2016-08-27T08:22:07.000Z</time>
      </trkpt>
      <trkpt lat="45.98517" lon="6.25328">
        <ele>882</ele>
        <time>2016-08-27T08:22:08.000Z</time>
      </trkpt>
      <trkpt lat="45.98517" lon="6.25328">
        <ele>882</ele>
        <time>2016-08-27T08:22:09.000Z</time>
      </trkpt>
      <trkpt lat="45.98516" lon="6.25328">
        <ele>882</ele>
        <time>2016-08-27T08:22:10.000Z</time>
      </trkpt>
      <trkpt lat="45.98516" lon="6.25328">
        <ele>882</ele>
        <time>2016-08-27T08:22:11.000Z</time>
      </trkpt>
      <trkpt lat="45.98516" lon="6.25328">
        <ele>882</ele>
        <time>2016-08-27T08:22:12.000Z</time>
      </trkpt>
      <trkpt lat="45.98516" lon="6.25328">
        <ele>882</ele>
        <time>2016-08-27T08:22:13.000Z</time>
      </trkpt>
      <trkpt lat="45.98515" lon="6.25327">
        <ele>882</ele>
        <time>2016-08-27T08:22:14.000Z</time>
      </trkpt>
      <trkpt lat="45.98515" lon="6.25326">
        <ele>882</ele>
        <time>2016-08-27T08:22:15.000Z</time>
      </trkpt>
      <trkpt lat="45.98515" lon="6.25324">
        <ele>881</ele>
        <time>2016-08-27T08:22:16.000Z</time>
      </trkpt>
      <trkpt lat="45.98515" lon="6.25321">
        <ele>881</ele>
        <time>2016-08-27T08:22:17.000Z</time>
      </trkpt>
      <trkpt lat="45.98515" lon="6.25319">
        <ele>881</ele>
        <time>2016-08-27T08:22:18.000Z</time>
      </trkpt>
      <trkpt lat="45.98515" lon="6.25316">
        <ele>881</ele>
        <time>2016-08-27T08:22:19.000Z</time>
      </trkpt>
      <trkpt lat="45.98515" lon="6.25313">
        <ele>881</ele>
        <time>2016-08-27T08:22:20.000Z</time>
      </trkpt>
      <trkpt lat="45.98515" lon="6.25311">
        <ele>881</ele>
        <time>2016-08-27T08:22:21.000Z</time>
      </trkpt>
      <trkpt lat="45.98515" lon="6.25308">
        <ele>881</ele>
        <time>2016-08-27T08:22:22.000Z</time>
      </trkpt>
      <trkpt lat="45.98516" lon="6.25305">
        <ele>881</ele>
        <time>2016-08-27T08:22:23.000Z</time>
      </trkpt>
      <trkpt lat="45.98516" lon="6.25302">
        <ele>880</ele>
        <time>2016-08-27T08:22:24.000Z</time>
      </trkpt>
      <trkpt lat="45.98516" lon="6.253">
        <ele>880</ele>
        <time>2016-08-27T08:22:25.000Z</time>
      </trkpt>
      <trkpt lat="45.98516" lon="6.25297">
        <ele>880</ele>
        <time>2016-08-27T08:22:26.000Z</time>
      </trkpt>
      <trkpt lat="45.98516" lon="6.25295">
        <ele>880</ele>
        <time>2016-08-27T08:22:27.000Z</time>
      </trkpt>
      <trkpt lat="45.98516" lon="6.25293">
        <ele>879</ele>
        <time>2016-08-27T08:22:28.000Z</time>
      </trkpt>
      <trkpt lat="45.98516" lon="6.25291">
        <ele>879</ele>
        <time>2016-08-27T08:22:29.000Z</time>
      </trkpt>
      <trkpt lat="45.98516" lon="6.2529">
        <ele>879</ele>
        <time>2016-08-27T08:22:30.000Z</time>
      </trkpt>
      <trkpt lat="45.98516" lon="6.25288">
        <ele>879</ele>
        <time>2016-08-27T08:22:31.000Z</time>
      </trkpt>
      <trkpt lat="45.98516" lon="6.25286">
        <ele>879</ele>
        <time>2016-08-27T08:22:32.000Z</time>
      </trkpt>
      <trkpt lat="45.98516" lon="6.25283">
        <ele>879</ele>
        <time>2016-08-27T08:22:33.000Z</time>
      </trkpt>
      <trkpt lat="45.98516" lon="6.25281">
        <ele>878</ele>
        <time>2016-08-27T08:22:34.000Z</time>
      </trkpt>
      <trkpt lat="45.98516" lon="6.25278">
        <ele>878</ele>
        <time>2016-08-27T08:22:35.000Z</time>
      </trkpt>
      <trkpt lat="45.98516" lon="6.25276">
        <ele>877</ele>
        <time>2016-08-27T08:22:36.000Z</time>
      </trkpt>
      <trkpt lat="45.98516" lon="6.25273">
        <ele>877</ele>
        <time>2016-08-27T08:22:37.000Z</time>
      </trkpt>
      <trkpt lat="45.98515" lon="6.2527">
        <ele>877</ele>
        <time>2016-08-27T08:22:38.000Z</time>
      </trkpt>
      <trkpt lat="45.98515" lon="6.25268">
        <ele>877</ele>
        <time>2016-08-27T08:22:39.000Z</time>
      </trkpt>
      <trkpt lat="45.98514" lon="6.25265">
        <ele>876</ele>
        <time>2016-08-27T08:22:40.000Z</time>
      </trkpt>
      <trkpt lat="45.98514" lon="6.25262">
        <ele>876</ele>
        <time>2016-08-27T08:22:41.000Z</time>
      </trkpt>
      <trkpt lat="45.98514" lon="6.2526">
        <ele>875</ele>
        <time>2016-08-27T08:22:42.000Z</time>
      </trkpt>
      <trkpt lat="45.98513" lon="6.25257">
        <ele>875</ele>
        <time>2016-08-27T08:22:43.000Z</time>
      </trkpt>
      <trkpt lat="45.98513" lon="6.25255">
        <ele>875</ele>
        <time>2016-08-27T08:22:44.000Z</time>
      </trkpt>
      <trkpt lat="45.98513" lon="6.25253">
        <ele>875</ele>
        <time>2016-08-27T08:22:45.000Z</time>
      </trkpt>
      <trkpt lat="45.98513" lon="6.2525">
        <ele>874</ele>
        <time>2016-08-27T08:22:46.000Z</time>
      </trkpt>
      <trkpt lat="45.98512" lon="6.25249">
        <ele>874</ele>
        <time>2016-08-27T08:22:47.000Z</time>
      </trkpt>
      <trkpt lat="45.98513" lon="6.25248">
        <ele>874</ele>
        <time>2016-08-27T08:22:48.000Z</time>
      </trkpt>
      <trkpt lat="45.98513" lon="6.25248">
        <ele>874</ele>
        <time>2016-08-27T08:22:49.000Z</time>
      </trkpt>
      <trkpt lat="45.98513" lon="6.25249">
        <ele>874</ele>
        <time>2016-08-27T08:22:50.000Z</time>
      </trkpt>
      <trkpt lat="45.98513" lon="6.2525">
        <ele>874</ele>
        <time>2016-08-27T08:22:51.000Z</time>
      </trkpt>
      <trkpt lat="45.98514" lon="6.25251">
        <ele>873</ele>
        <time>2016-08-27T08:22:52.000Z</time>
      </trkpt>
      <trkpt lat="45.98515" lon="6.25252">
        <ele>873</ele>
        <time>2016-08-27T08:22:53.000Z</time>
      </trkpt>
      <trkpt lat="45.98515" lon="6.25253">
        <ele>872</ele>
        <time>2016-08-27T08:22:54.000Z</time>
      </trkpt>
      <trkpt lat="45.98516" lon="6.25255">
        <ele>872</ele>
        <time>2016-08-27T08:22:55.000Z</time>
      </trkpt>
      <trkpt lat="45.98517" lon="6.25256">
        <ele>872</ele>
        <time>2016-08-27T08:22:56.000Z</time>
      </trkpt>
      <trkpt lat="45.98518" lon="6.25257">
        <ele>872</ele>
        <time>2016-08-27T08:22:57.000Z</time>
      </trkpt>
      <trkpt lat="45.9852" lon="6.25258">
        <ele>871</ele>
        <time>2016-08-27T08:22:58.000Z</time>
      </trkpt>
      <trkpt lat="45.98521" lon="6.25259">
        <ele>871</ele>
        <time>2016-08-27T08:22:59.000Z</time>
      </trkpt>
      <trkpt lat="45.98521" lon="6.2526">
        <ele>870</ele>
        <time>2016-08-27T08:23:00.000Z</time>
      </trkpt>
      <trkpt lat="45.98522" lon="6.25261">
        <ele>870</ele>
        <time>2016-08-27T08:23:01.000Z</time>
      </trkpt>
      <trkpt lat="45.98522" lon="6.25261">
        <ele>869</ele>
        <time>2016-08-27T08:23:02.000Z</time>
      </trkpt>
      <trkpt lat="45.98523" lon="6.25262">
        <ele>869</ele>
        <time>2016-08-27T08:23:03.000Z</time>
      </trkpt>
      <trkpt lat="45.98524" lon="6.25263">
        <ele>868</ele>
        <time>2016-08-27T08:23:04.000Z</time>
      </trkpt>
      <trkpt lat="45.98524" lon="6.25263">
        <ele>868</ele>
        <time>2016-08-27T08:23:05.000Z</time>
      </trkpt>
      <trkpt lat="45.98525" lon="6.25264">
        <ele>867</ele>
        <time>2016-08-27T08:23:06.000Z</time>
      </trkpt>
      <trkpt lat="45.98525" lon="6.25264">
        <ele>867</ele>
        <time>2016-08-27T08:23:07.000Z</time>
      </trkpt>
      <trkpt lat="45.98525" lon="6.25265">
        <ele>866</ele>
        <time>2016-08-27T08:23:08.000Z</time>
      </trkpt>
      <trkpt lat="45.98526" lon="6.25265">
        <ele>866</ele>
        <time>2016-08-27T08:23:09.000Z</time>
      </trkpt>
      <trkpt lat="45.98527" lon="6.25266">
        <ele>865</ele>
        <time>2016-08-27T08:23:10.000Z</time>
      </trkpt>
      <trkpt lat="45.98527" lon="6.25266">
        <ele>865</ele>
        <time>2016-08-27T08:23:11.000Z</time>
      </trkpt>
      <trkpt lat="45.98528" lon="6.25267">
        <ele>864</ele>
        <time>2016-08-27T08:23:12.000Z</time>
      </trkpt>
      <trkpt lat="45.98528" lon="6.25268">
        <ele>864</ele>
        <time>2016-08-27T08:23:13.000Z</time>
      </trkpt>
      <trkpt lat="45.98528" lon="6.25269">
        <ele>863</ele>
        <time>2016-08-27T08:23:14.000Z</time>
      </trkpt>
      <trkpt lat="45.98529" lon="6.25269">
        <ele>863</ele>
        <time>2016-08-27T08:23:15.000Z</time>
      </trkpt>
      <trkpt lat="45.98529" lon="6.2527">
        <ele>862</ele>
        <time>2016-08-27T08:23:16.000Z</time>
      </trkpt>
      <trkpt lat="45.9853" lon="6.25271">
        <ele>862</ele>
        <time>2016-08-27T08:23:17.000Z</time>
      </trkpt>
      <trkpt lat="45.98531" lon="6.25272">
        <ele>861</ele>
        <time>2016-08-27T08:23:18.000Z</time>
      </trkpt>
      <trkpt lat="45.98531" lon="6.25273">
        <ele>861</ele>
        <time>2016-08-27T08:23:19.000Z</time>
      </trkpt>
      <trkpt lat="45.98531" lon="6.25275">
        <ele>860</ele>
        <time>2016-08-27T08:23:20.000Z</time>
      </trkpt>
      <trkpt lat="45.98532" lon="6.25277">
        <ele>860</ele>
        <time>2016-08-27T08:23:21.000Z</time>
      </trkpt>
      <trkpt lat="45.98532" lon="6.25278">
        <ele>860</ele>
        <time>2016-08-27T08:23:22.000Z</time>
      </trkpt>
      <trkpt lat="45.98533" lon="6.25279">
        <ele>860</ele>
        <time>2016-08-27T08:23:23.000Z</time>
      </trkpt>
      <trkpt lat="45.98534" lon="6.25279">
        <ele>859</ele>
        <time>2016-08-27T08:23:24.000Z</time>
      </trkpt>
      <trkpt lat="45.98535" lon="6.2528">
        <ele>859</ele>
        <time>2016-08-27T08:23:25.000Z</time>
      </trkpt>
      <trkpt lat="45.98536" lon="6.25281">
        <ele>858</ele>
        <time>2016-08-27T08:23:26.000Z</time>
      </trkpt>
      <trkpt lat="45.98537" lon="6.25282">
        <ele>858</ele>
        <time>2016-08-27T08:23:27.000Z</time>
      </trkpt>
      <trkpt lat="45.98538" lon="6.25284">
        <ele>857</ele>
        <time>2016-08-27T08:23:28.000Z</time>
      </trkpt>
      <trkpt lat="45.9854" lon="6.25286">
        <ele>857</ele>
        <time>2016-08-27T08:23:29.000Z</time>
      </trkpt>
      <trkpt lat="45.98541" lon="6.25287">
        <ele>856</ele>
        <time>2016-08-27T08:23:30.000Z</time>
      </trkpt>
      <trkpt lat="45.98542" lon="6.25289">
        <ele>856</ele>
        <time>2016-08-27T08:23:31.000Z</time>
      </trkpt>
      <trkpt lat="45.98544" lon="6.25291">
        <ele>856</ele>
        <time>2016-08-27T08:23:32.000Z</time>
      </trkpt>
      <trkpt lat="45.98545" lon="6.25293">
        <ele>856</ele>
        <time>2016-08-27T08:23:33.000Z</time>
      </trkpt>
      <trkpt lat="45.98546" lon="6.25295">
        <ele>855</ele>
        <time>2016-08-27T08:23:34.000Z</time>
      </trkpt>
      <trkpt lat="45.98548" lon="6.25296">
        <ele>855</ele>
        <time>2016-08-27T08:23:35.000Z</time>
      </trkpt>
      <trkpt lat="45.98549" lon="6.25298">
        <ele>854</ele>
        <time>2016-08-27T08:23:36.000Z</time>
      </trkpt>
      <trkpt lat="45.98551" lon="6.25299">
        <ele>854</ele>
        <time>2016-08-27T08:23:37.000Z</time>
      </trkpt>
      <trkpt lat="45.98553" lon="6.25301">
        <ele>853</ele>
        <time>2016-08-27T08:23:38.000Z</time>
      </trkpt>
      <trkpt lat="45.98554" lon="6.25302">
        <ele>853</ele>
        <time>2016-08-27T08:23:39.000Z</time>
      </trkpt>
      <trkpt lat="45.98556" lon="6.25303">
        <ele>853</ele>
        <time>2016-08-27T08:23:40.000Z</time>
      </trkpt>
      <trkpt lat="45.98557" lon="6.25305">
        <ele>853</ele>
        <time>2016-08-27T08:23:41.000Z</time>
      </trkpt>
      <trkpt lat="45.98558" lon="6.25306">
        <ele>852</ele>
        <time>2016-08-27T08:23:42.000Z</time>
      </trkpt>
      <trkpt lat="45.98559" lon="6.25308">
        <ele>852</ele>
        <time>2016-08-27T08:23:43.000Z</time>
      </trkpt>
      <trkpt lat="45.9856" lon="6.2531">
        <ele>851</ele>
        <time>2016-08-27T08:23:44.000Z</time>
      </trkpt>
      <trkpt lat="45.98561" lon="6.25311">
        <ele>851</ele>
        <time>2016-08-27T08:23:45.000Z</time>
      </trkpt>
      <trkpt lat="45.98562" lon="6.25313">
        <ele>851</ele>
        <time>2016-08-27T08:23:46.000Z</time>
      </trkpt>
      <trkpt lat="45.98563" lon="6.25314">
        <ele>851</ele>
        <time>2016-08-27T08:23:47.000Z</time>
      </trkpt>
      <trkpt lat="45.98564" lon="6.25316">
        <ele>850</ele>
        <time>2016-08-27T08:23:48.000Z</time>
      </trkpt>
      <trkpt lat="45.98565" lon="6.25318">
        <ele>850</ele>
        <time>2016-08-27T08:23:49.000Z</time>
      </trkpt>
      <trkpt lat="45.98566" lon="6.25319">
        <ele>849</ele>
        <time>2016-08-27T08:23:50.000Z</time>
      </trkpt>
      <trkpt lat="45.98567" lon="6.2532">
        <ele>849</ele>
        <time>2016-08-27T08:23:51.000Z</time>
      </trkpt>
      <trkpt lat="45.98568" lon="6.25321">
        <ele>848</ele>
        <time>2016-08-27T08:23:52.000Z</time>
      </trkpt>
      <trkpt lat="45.98569" lon="6.25322">
        <ele>848</ele>
        <time>2016-08-27T08:23:53.000Z</time>
      </trkpt>
      <trkpt lat="45.9857" lon="6.25323">
        <ele>847</ele>
        <time>2016-08-27T08:23:54.000Z</time>
      </trkpt>
      <trkpt lat="45.98571" lon="6.25325">
        <ele>847</ele>
        <time>2016-08-27T08:23:55.000Z</time>
      </trkpt>
      <trkpt lat="45.98572" lon="6.25326">
        <ele>847</ele>
        <time>2016-08-27T08:23:56.000Z</time>
      </trkpt>
      <trkpt lat="45.98573" lon="6.25327">
        <ele>847</ele>
        <time>2016-08-27T08:23:57.000Z</time>
      </trkpt>
      <trkpt lat="45.98574" lon="6.25328">
        <ele>846</ele>
        <time>2016-08-27T08:23:58.000Z</time>
      </trkpt>
      <trkpt lat="45.98574" lon="6.25329">
        <ele>846</ele>
        <time>2016-08-27T08:23:59.000Z</time>
      </trkpt>
      <trkpt lat="45.98575" lon="6.2533">
        <ele>846</ele>
        <time>2016-08-27T08:24:00.000Z</time>
      </trkpt>
      <trkpt lat="45.98576" lon="6.2533">
        <ele>846</ele>
        <time>2016-08-27T08:24:01.000Z</time>
      </trkpt>
      <trkpt lat="45.98576" lon="6.25331">
        <ele>846</ele>
        <time>2016-08-27T08:24:02.000Z</time>
      </trkpt>
      <trkpt lat="45.98577" lon="6.2533">
        <ele>846</ele>
        <time>2016-08-27T08:24:03.000Z</time>
      </trkpt>
      <trkpt lat="45.98577" lon="6.2533">
        <ele>845</ele>
        <time>2016-08-27T08:24:04.000Z</time>
      </trkpt>
      <trkpt lat="45.98577" lon="6.25329">
        <ele>845</ele>
        <time>2016-08-27T08:24:05.000Z</time>
      </trkpt>
      <trkpt lat="45.98578" lon="6.25328">
        <ele>845</ele>
        <time>2016-08-27T08:24:06.000Z</time>
      </trkpt>
      <trkpt lat="45.98578" lon="6.25326">
        <ele>845</ele>
        <time>2016-08-27T08:24:07.000Z</time>
      </trkpt>
      <trkpt lat="45.98579" lon="6.25324">
        <ele>845</ele>
        <time>2016-08-27T08:24:08.000Z</time>
      </trkpt>
      <trkpt lat="45.98579" lon="6.25323">
        <ele>845</ele>
        <time>2016-08-27T08:24:09.000Z</time>
      </trkpt>
      <trkpt lat="45.98579" lon="6.25321">
        <ele>844</ele>
        <time>2016-08-27T08:24:10.000Z</time>
      </trkpt>
      <trkpt lat="45.9858" lon="6.25319">
        <ele>844</ele>
        <time>2016-08-27T08:24:11.000Z</time>
      </trkpt>
      <trkpt lat="45.9858" lon="6.25317">
        <ele>844</ele>
        <time>2016-08-27T08:24:12.000Z</time>
      </trkpt>
      <trkpt lat="45.98581" lon="6.25315">
        <ele>844</ele>
        <time>2016-08-27T08:24:13.000Z</time>
      </trkpt>
      <trkpt lat="45.98581" lon="6.25313">
        <ele>843</ele>
        <time>2016-08-27T08:24:14.000Z</time>
      </trkpt>
      <trkpt lat="45.98581" lon="6.25311">
        <ele>843</ele>
        <time>2016-08-27T08:24:15.000Z</time>
      </trkpt>
      <trkpt lat="45.98581" lon="6.25309">
        <ele>842</ele>
        <time>2016-08-27T08:24:16.000Z</time>
      </trkpt>
      <trkpt lat="45.98581" lon="6.25307">
        <ele>842</ele>
        <time>2016-08-27T08:24:17.000Z</time>
      </trkpt>
      <trkpt lat="45.98581" lon="6.25304">
        <ele>841</ele>
        <time>2016-08-27T08:24:18.000Z</time>
      </trkpt>
      <trkpt lat="45.98581" lon="6.25302">
        <ele>841</ele>
        <time>2016-08-27T08:24:19.000Z</time>
      </trkpt>
      <trkpt lat="45.98581" lon="6.253">
        <ele>840</ele>
        <time>2016-08-27T08:24:20.000Z</time>
      </trkpt>
      <trkpt lat="45.9858" lon="6.25299">
        <ele>840</ele>
        <time>2016-08-27T08:24:21.000Z</time>
      </trkpt>
      <trkpt lat="45.9858" lon="6.25297">
        <ele>839</ele>
        <time>2016-08-27T08:24:22.000Z</time>
      </trkpt>
      <trkpt lat="45.98579" lon="6.25295">
        <ele>839</ele>
        <time>2016-08-27T08:24:23.000Z</time>
      </trkpt>
      <trkpt lat="45.98579" lon="6.25294">
        <ele>838</ele>
        <time>2016-08-27T08:24:24.000Z</time>
      </trkpt>
      <trkpt lat="45.98578" lon="6.25292">
        <ele>838</ele>
        <time>2016-08-27T08:24:25.000Z</time>
      </trkpt>
      <trkpt lat="45.98578" lon="6.25289">
        <ele>837</ele>
        <time>2016-08-27T08:24:26.000Z</time>
      </trkpt>
      <trkpt lat="45.98577" lon="6.25287">
        <ele>837</ele>
        <time>2016-08-27T08:24:27.000Z</time>
      </trkpt>
      <trkpt lat="45.98577" lon="6.25285">
        <ele>836</ele>
        <time>2016-08-27T08:24:28.000Z</time>
      </trkpt>
      <trkpt lat="45.98576" lon="6.25283">
        <ele>836</ele>
        <time>2016-08-27T08:24:29.000Z</time>
      </trkpt>
      <trkpt lat="45.98576" lon="6.25281">
        <ele>835</ele>
        <time>2016-08-27T08:24:30.000Z</time>
      </trkpt>
      <trkpt lat="45.98576" lon="6.25279">
        <ele>835</ele>
        <time>2016-08-27T08:24:31.000Z</time>
      </trkpt>
      <trkpt lat="45.98576" lon="6.25278">
        <ele>834</ele>
        <time>2016-08-27T08:24:32.000Z</time>
      </trkpt>
      <trkpt lat="45.98576" lon="6.25276">
        <ele>834</ele>
        <time>2016-08-27T08:24:33.000Z</time>
      </trkpt>
      <trkpt lat="45.98576" lon="6.25274">
        <ele>833</ele>
        <time>2016-08-27T08:24:34.000Z</time>
      </trkpt>
      <trkpt lat="45.98576" lon="6.25272">
        <ele>833</ele>
        <time>2016-08-27T08:24:35.000Z</time>
      </trkpt>
      <trkpt lat="45.98575" lon="6.25271">
        <ele>832</ele>
        <time>2016-08-27T08:24:36.000Z</time>
      </trkpt>
      <trkpt lat="45.98575" lon="6.25269">
        <ele>832</ele>
        <time>2016-08-27T08:24:37.000Z</time>
      </trkpt>
      <trkpt lat="45.98575" lon="6.25268">
        <ele>831</ele>
        <time>2016-08-27T08:24:38.000Z</time>
      </trkpt>
      <trkpt lat="45.98575" lon="6.25267">
        <ele>831</ele>
        <time>2016-08-27T08:24:39.000Z</time>
      </trkpt>
      <trkpt lat="45.98574" lon="6.25265">
        <ele>831</ele>
        <time>2016-08-27T08:24:40.000Z</time>
      </trkpt>
      <trkpt lat="45.98574" lon="6.25263">
        <ele>831</ele>
        <time>2016-08-27T08:24:41.000Z</time>
      </trkpt>
      <trkpt lat="45.98574" lon="6.25262">
        <ele>830</ele>
        <time>2016-08-27T08:24:42.000Z</time>
      </trkpt>
      <trkpt lat="45.98573" lon="6.2526">
        <ele>830</ele>
        <time>2016-08-27T08:24:43.000Z</time>
      </trkpt>
      <trkpt lat="45.98573" lon="6.25258">
        <ele>829</ele>
        <time>2016-08-27T08:24:44.000Z</time>
      </trkpt>
      <trkpt lat="45.98572" lon="6.25257">
        <ele>829</ele>
        <time>2016-08-27T08:24:45.000Z</time>
      </trkpt>
      <trkpt lat="45.98572" lon="6.25255">
        <ele>828</ele>
        <time>2016-08-27T08:24:46.000Z</time>
      </trkpt>
      <trkpt lat="45.98571" lon="6.25254">
        <ele>828</ele>
        <time>2016-08-27T08:24:47.000Z</time>
      </trkpt>
      <trkpt lat="45.9857" lon="6.25253">
        <ele>827</ele>
        <time>2016-08-27T08:24:48.000Z</time>
      </trkpt>
      <trkpt lat="45.9857" lon="6.25252">
        <ele>827</ele>
        <time>2016-08-27T08:24:49.000Z</time>
      </trkpt>
      <trkpt lat="45.9857" lon="6.25251">
        <ele>826</ele>
        <time>2016-08-27T08:24:50.000Z</time>
      </trkpt>
      <trkpt lat="45.98569" lon="6.25249">
        <ele>826</ele>
        <time>2016-08-27T08:24:51.000Z</time>
      </trkpt>
      <trkpt lat="45.98569" lon="6.25248">
        <ele>825</ele>
        <time>2016-08-27T08:24:52.000Z</time>
      </trkpt>
      <trkpt lat="45.98569" lon="6.25246">
        <ele>825</ele>
        <time>2016-08-27T08:24:53.000Z</time>
      </trkpt>
      <trkpt lat="45.98569" lon="6.25245">
        <ele>824</ele>
        <time>2016-08-27T08:24:54.000Z</time>
      </trkpt>
      <trkpt lat="45.98569" lon="6.25243">
        <ele>824</ele>
        <time>2016-08-27T08:24:55.000Z</time>
      </trkpt>
      <trkpt lat="45.98569" lon="6.25242">
        <ele>823</ele>
        <time>2016-08-27T08:24:56.000Z</time>
      </trkpt>
      <trkpt lat="45.98568" lon="6.2524">
        <ele>823</ele>
        <time>2016-08-27T08:24:57.000Z</time>
      </trkpt>
      <trkpt lat="45.98568" lon="6.25238">
        <ele>822</ele>
        <time>2016-08-27T08:24:58.000Z</time>
      </trkpt>
      <trkpt lat="45.98568" lon="6.25236">
        <ele>822</ele>
        <time>2016-08-27T08:24:59.000Z</time>
      </trkpt>
      <trkpt lat="45.98567" lon="6.25234">
        <ele>822</ele>
        <time>2016-08-27T08:25:00.000Z</time>
      </trkpt>
      <trkpt lat="45.98567" lon="6.25232">
        <ele>822</ele>
        <time>2016-08-27T08:25:01.000Z</time>
      </trkpt>
      <trkpt lat="45.98567" lon="6.2523">
        <ele>821</ele>
        <time>2016-08-27T08:25:02.000Z</time>
      </trkpt>
      <trkpt lat="45.98566" lon="6.25229">
        <ele>821</ele>
        <time>2016-08-27T08:25:03.000Z</time>
      </trkpt>
      <trkpt lat="45.98566" lon="6.25227">
        <ele>820</ele>
        <time>2016-08-27T08:25:04.000Z</time>
      </trkpt>
      <trkpt lat="45.98566" lon="6.25226">
        <ele>820</ele>
        <time>2016-08-27T08:25:05.000Z</time>
      </trkpt>
      <trkpt lat="45.98566" lon="6.25224">
        <ele>819</ele>
        <time>2016-08-27T08:25:06.000Z</time>
      </trkpt>
      <trkpt lat="45.98566" lon="6.25222">
        <ele>819</ele>
        <time>2016-08-27T08:25:07.000Z</time>
      </trkpt>
      <trkpt lat="45.98566" lon="6.2522">
        <ele>819</ele>
        <time>2016-08-27T08:25:08.000Z</time>
      </trkpt>
      <trkpt lat="45.98566" lon="6.25218">
        <ele>819</ele>
        <time>2016-08-27T08:25:09.000Z</time>
      </trkpt>
      <trkpt lat="45.98566" lon="6.25215">
        <ele>818</ele>
        <time>2016-08-27T08:25:10.000Z</time>
      </trkpt>
      <trkpt lat="45.98567" lon="6.25214">
        <ele>818</ele>
        <time>2016-08-27T08:25:11.000Z</time>
      </trkpt>
      <trkpt lat="45.98567" lon="6.25212">
        <ele>817</ele>
        <time>2016-08-27T08:25:12.000Z</time>
      </trkpt>
      <trkpt lat="45.98567" lon="6.2521">
        <ele>817</ele>
        <time>2016-08-27T08:25:13.000Z</time>
      </trkpt>
      <trkpt lat="45.98566" lon="6.25208">
        <ele>817</ele>
        <time>2016-08-27T08:25:14.000Z</time>
      </trkpt>
      <trkpt lat="45.98566" lon="6.25206">
        <ele>817</ele>
        <time>2016-08-27T08:25:15.000Z</time>
      </trkpt>
      <trkpt lat="45.98566" lon="6.25204">
        <ele>816</ele>
        <time>2016-08-27T08:25:16.000Z</time>
      </trkpt>
      <trkpt lat="45.98566" lon="6.25203">
        <ele>816</ele>
        <time>2016-08-27T08:25:17.000Z</time>
      </trkpt>
      <trkpt lat="45.98566" lon="6.25201">
        <ele>816</ele>
        <time>2016-08-27T08:25:18.000Z</time>
      </trkpt>
      <trkpt lat="45.98566" lon="6.252">
        <ele>816</ele>
        <time>2016-08-27T08:25:19.000Z</time>
      </trkpt>
      <trkpt lat="45.98566" lon="6.25198">
        <ele>815</ele>
        <time>2016-08-27T08:25:20.000Z</time>
      </trkpt>
      <trkpt lat="45.98566" lon="6.25196">
        <ele>815</ele>
        <time>2016-08-27T08:25:21.000Z</time>
      </trkpt>
      <trkpt lat="45.98566" lon="6.25195">
        <ele>815</ele>
        <time>2016-08-27T08:25:22.000Z</time>
      </trkpt>
      <trkpt lat="45.98567" lon="6.25194">
        <ele>815</ele>
        <time>2016-08-27T08:25:23.000Z</time>
      </trkpt>
      <trkpt lat="45.98568" lon="6.25195">
        <ele>814</ele>
        <time>2016-08-27T08:25:24.000Z</time>
      </trkpt>
      <trkpt lat="45.98568" lon="6.25195">
        <ele>814</ele>
        <time>2016-08-27T08:25:25.000Z</time>
      </trkpt>
      <trkpt lat="45.9857" lon="6.25197">
        <ele>814</ele>
        <time>2016-08-27T08:25:26.000Z</time>
      </trkpt>
      <trkpt lat="45.98571" lon="6.25198">
        <ele>814</ele>
        <time>2016-08-27T08:25:27.000Z</time>
      </trkpt>
      <trkpt lat="45.98572" lon="6.25199">
        <ele>813</ele>
        <time>2016-08-27T08:25:28.000Z</time>
      </trkpt>
      <trkpt lat="45.98573" lon="6.25201">
        <ele>813</ele>
        <time>2016-08-27T08:25:29.000Z</time>
      </trkpt>
      <trkpt lat="45.98575" lon="6.25203">
        <ele>812</ele>
        <time>2016-08-27T08:25:30.000Z</time>
      </trkpt>
      <trkpt lat="45.98577" lon="6.25204">
        <ele>812</ele>
        <time>2016-08-27T08:25:31.000Z</time>
      </trkpt>
      <trkpt lat="45.98578" lon="6.25206">
        <ele>811</ele>
        <time>2016-08-27T08:25:32.000Z</time>
      </trkpt>
      <trkpt lat="45.9858" lon="6.25209">
        <ele>811</ele>
        <time>2016-08-27T08:25:33.000Z</time>
      </trkpt>
      <trkpt lat="45.98581" lon="6.25211">
        <ele>810</ele>
        <time>2016-08-27T08:25:34.000Z</time>
      </trkpt>
      <trkpt lat="45.98583" lon="6.25214">
        <ele>810</ele>
        <time>2016-08-27T08:25:35.000Z</time>
      </trkpt>
      <trkpt lat="45.98584" lon="6.25216">
        <ele>809</ele>
        <time>2016-08-27T08:25:36.000Z</time>
      </trkpt>
      <trkpt lat="45.98585" lon="6.25218">
        <ele>809</ele>
        <time>2016-08-27T08:25:37.000Z</time>
      </trkpt>
      <trkpt lat="45.98586" lon="6.2522">
        <ele>809</ele>
        <time>2016-08-27T08:25:38.000Z</time>
      </trkpt>
      <trkpt lat="45.98587" lon="6.25221">
        <ele>809</ele>
        <time>2016-08-27T08:25:39.000Z</time>
      </trkpt>
      <trkpt lat="45.98588" lon="6.25223">
        <ele>808</ele>
        <time>2016-08-27T08:25:40.000Z</time>
      </trkpt>
      <trkpt lat="45.98589" lon="6.25224">
        <ele>808</ele>
        <time>2016-08-27T08:25:41.000Z</time>
      </trkpt>
      <trkpt lat="45.98589" lon="6.25225">
        <ele>807</ele>
        <time>2016-08-27T08:25:42.000Z</time>
      </trkpt>
      <trkpt lat="45.98589" lon="6.25227">
        <ele>807</ele>
        <time>2016-08-27T08:25:43.000Z</time>
      </trkpt>
      <trkpt lat="45.9859" lon="6.25228">
        <ele>806</ele>
        <time>2016-08-27T08:25:44.000Z</time>
      </trkpt>
      <trkpt lat="45.9859" lon="6.25228">
        <ele>806</ele>
        <time>2016-08-27T08:25:45.000Z</time>
      </trkpt>
      <trkpt lat="45.98591" lon="6.25229">
        <ele>805</ele>
        <time>2016-08-27T08:25:46.000Z</time>
      </trkpt>
      <trkpt lat="45.98591" lon="6.2523">
        <ele>805</ele>
        <time>2016-08-27T08:25:47.000Z</time>
      </trkpt>
      <trkpt lat="45.98592" lon="6.25231">
        <ele>804</ele>
        <time>2016-08-27T08:25:48.000Z</time>
      </trkpt>
      <trkpt lat="45.98592" lon="6.25233">
        <ele>804</ele>
        <time>2016-08-27T08:25:49.000Z</time>
      </trkpt>
      <trkpt lat="45.98593" lon="6.25234">
        <ele>802</ele>
        <time>2016-08-27T08:25:50.000Z</time>
      </trkpt>
      <trkpt lat="45.98593" lon="6.25236">
        <ele>802</ele>
        <time>2016-08-27T08:25:51.000Z</time>
      </trkpt>
      <trkpt lat="45.98594" lon="6.25237">
        <ele>801</ele>
        <time>2016-08-27T08:25:52.000Z</time>
      </trkpt>
      <trkpt lat="45.98594" lon="6.25239">
        <ele>801</ele>
        <time>2016-08-27T08:25:53.000Z</time>
      </trkpt>
      <trkpt lat="45.98595" lon="6.25241">
        <ele>800</ele>
        <time>2016-08-27T08:25:54.000Z</time>
      </trkpt>
      <trkpt lat="45.98596" lon="6.25241">
        <ele>800</ele>
        <time>2016-08-27T08:25:55.000Z</time>
      </trkpt>
      <trkpt lat="45.98596" lon="6.25242">
        <ele>799</ele>
        <time>2016-08-27T08:25:56.000Z</time>
      </trkpt>
      <trkpt lat="45.98597" lon="6.25243">
        <ele>799</ele>
        <time>2016-08-27T08:25:57.000Z</time>
      </trkpt>
      <trkpt lat="45.98598" lon="6.25244">
        <ele>798</ele>
        <time>2016-08-27T08:25:58.000Z</time>
      </trkpt>
      <trkpt lat="45.98598" lon="6.25245">
        <ele>798</ele>
        <time>2016-08-27T08:25:59.000Z</time>
      </trkpt>
      <trkpt lat="45.98598" lon="6.25246">
        <ele>798</ele>
        <time>2016-08-27T08:26:00.000Z</time>
      </trkpt>
      <trkpt lat="45.98599" lon="6.25247">
        <ele>798</ele>
        <time>2016-08-27T08:26:01.000Z</time>
      </trkpt>
      <trkpt lat="45.98599" lon="6.25247">
        <ele>797</ele>
        <time>2016-08-27T08:26:02.000Z</time>
      </trkpt>
      <trkpt lat="45.98599" lon="6.25248">
        <ele>797</ele>
        <time>2016-08-27T08:26:03.000Z</time>
      </trkpt>
      <trkpt lat="45.98599" lon="6.25249">
        <ele>796</ele>
        <time>2016-08-27T08:26:04.000Z</time>
      </trkpt>
      <trkpt lat="45.986" lon="6.2525">
        <ele>796</ele>
        <time>2016-08-27T08:26:05.000Z</time>
      </trkpt>
      <trkpt lat="45.986" lon="6.2525">
        <ele>796</ele>
        <time>2016-08-27T08:26:06.000Z</time>
      </trkpt>
      <trkpt lat="45.98601" lon="6.25251">
        <ele>796</ele>
        <time>2016-08-27T08:26:07.000Z</time>
      </trkpt>
      <trkpt lat="45.98601" lon="6.25251">
        <ele>795</ele>
        <time>2016-08-27T08:26:08.000Z</time>
      </trkpt>
      <trkpt lat="45.98602" lon="6.25252">
        <ele>795</ele>
        <time>2016-08-27T08:26:09.000Z</time>
      </trkpt>
      <trkpt lat="45.98603" lon="6.25252">
        <ele>794</ele>
        <time>2016-08-27T08:26:10.000Z</time>
      </trkpt>
      <trkpt lat="45.98603" lon="6.25253">
        <ele>794</ele>
        <time>2016-08-27T08:26:11.000Z</time>
      </trkpt>
      <trkpt lat="45.98604" lon="6.25253">
        <ele>793</ele>
        <time>2016-08-27T08:26:12.000Z</time>
      </trkpt>
      <trkpt lat="45.98604" lon="6.25254">
        <ele>793</ele>
        <time>2016-08-27T08:26:13.000Z</time>
      </trkpt>
      <trkpt lat="45.98604" lon="6.25254">
        <ele>793</ele>
        <time>2016-08-27T08:26:14.000Z</time>
      </trkpt>
      <trkpt lat="45.98605" lon="6.25254">
        <ele>793</ele>
        <time>2016-08-27T08:26:15.000Z</time>
      </trkpt>
      <trkpt lat="45.98605" lon="6.25255">
        <ele>792</ele>
        <time>2016-08-27T08:26:16.000Z</time>
      </trkpt>
      <trkpt lat="45.98606" lon="6.25257">
        <ele>792</ele>
        <time>2016-08-27T08:26:17.000Z</time>
      </trkpt>
      <trkpt lat="45.98607" lon="6.25258">
        <ele>792</ele>
        <time>2016-08-27T08:26:18.000Z</time>
      </trkpt>
      <trkpt lat="45.98608" lon="6.25259">
        <ele>792</ele>
        <time>2016-08-27T08:26:19.000Z</time>
      </trkpt>
      <trkpt lat="45.98609" lon="6.2526">
        <ele>791</ele>
        <time>2016-08-27T08:26:20.000Z</time>
      </trkpt>
      <trkpt lat="45.98609" lon="6.25262">
        <ele>791</ele>
        <time>2016-08-27T08:26:21.000Z</time>
      </trkpt>
      <trkpt lat="45.9861" lon="6.25263">
        <ele>790</ele>
        <time>2016-08-27T08:26:22.000Z</time>
      </trkpt>
      <trkpt lat="45.98611" lon="6.25265">
        <ele>790</ele>
        <time>2016-08-27T08:26:23.000Z</time>
      </trkpt>
      <trkpt lat="45.98611" lon="6.25266">
        <ele>790</ele>
        <time>2016-08-27T08:26:24.000Z</time>
      </trkpt>
      <trkpt lat="45.98612" lon="6.25266">
        <ele>790</ele>
        <time>2016-08-27T08:26:25.000Z</time>
      </trkpt>
      <trkpt lat="45.98612" lon="6.25266">
        <ele>790</ele>
        <time>2016-08-27T08:26:26.000Z</time>
      </trkpt>
      <trkpt lat="45.98613" lon="6.25266">
        <ele>790</ele>
        <time>2016-08-27T08:26:27.000Z</time>
      </trkpt>
      <trkpt lat="45.98613" lon="6.25265">
        <ele>789</ele>
        <time>2016-08-27T08:26:28.000Z</time>
      </trkpt>
      <trkpt lat="45.98613" lon="6.25264">
        <ele>789</ele>
        <time>2016-08-27T08:26:29.000Z</time>
      </trkpt>
      <trkpt lat="45.98614" lon="6.25263">
        <ele>789</ele>
        <time>2016-08-27T08:26:30.000Z</time>
      </trkpt>
      <trkpt lat="45.98614" lon="6.25262">
        <ele>789</ele>
        <time>2016-08-27T08:26:31.000Z</time>
      </trkpt>
      <trkpt lat="45.98614" lon="6.25261">
        <ele>789</ele>
        <time>2016-08-27T08:26:32.000Z</time>
      </trkpt>
      <trkpt lat="45.98614" lon="6.2526">
        <ele>789</ele>
        <time>2016-08-27T08:26:33.000Z</time>
      </trkpt>
      <trkpt lat="45.98614" lon="6.25259">
        <ele>788</ele>
        <time>2016-08-27T08:26:34.000Z</time>
      </trkpt>
      <trkpt lat="45.98614" lon="6.25257">
        <ele>788</ele>
        <time>2016-08-27T08:26:35.000Z</time>
      </trkpt>
      <trkpt lat="45.98614" lon="6.25256">
        <ele>788</ele>
        <time>2016-08-27T08:26:36.000Z</time>
      </trkpt>
      <trkpt lat="45.98614" lon="6.25254">
        <ele>788</ele>
        <time>2016-08-27T08:26:37.000Z</time>
      </trkpt>
      <trkpt lat="45.98614" lon="6.25252">
        <ele>788</ele>
        <time>2016-08-27T08:26:38.000Z</time>
      </trkpt>
      <trkpt lat="45.98615" lon="6.25251">
        <ele>788</ele>
        <time>2016-08-27T08:26:39.000Z</time>
      </trkpt>
      <trkpt lat="45.98615" lon="6.25249">
        <ele>788</ele>
        <time>2016-08-27T08:26:40.000Z</time>
      </trkpt>
      <trkpt lat="45.98615" lon="6.25248">
        <ele>788</ele>
        <time>2016-08-27T08:26:41.000Z</time>
      </trkpt>
      <trkpt lat="45.98615" lon="6.25247">
        <ele>787</ele>
        <time>2016-08-27T08:26:42.000Z</time>
      </trkpt>
      <trkpt lat="45.98615" lon="6.25246">
        <ele>787</ele>
        <time>2016-08-27T08:26:43.000Z</time>
      </trkpt>
      <trkpt lat="45.98615" lon="6.25245">
        <ele>787</ele>
        <time>2016-08-27T08:26:44.000Z</time>
      </trkpt>
      <trkpt lat="45.98616" lon="6.25243">
        <ele>787</ele>
        <time>2016-08-27T08:26:45.000Z</time>
      </trkpt>
      <trkpt lat="45.98616" lon="6.25242">
        <ele>787</ele>
        <time>2016-08-27T08:26:46.000Z</time>
      </trkpt>
      <trkpt lat="45.98616" lon="6.25241">
        <ele>787</ele>
        <time>2016-08-27T08:26:47.000Z</time>
      </trkpt>
      <trkpt lat="45.98616" lon="6.2524">
        <ele>787</ele>
        <time>2016-08-27T08:26:48.000Z</time>
      </trkpt>
      <trkpt lat="45.98616" lon="6.25238">
        <ele>787</ele>
        <time>2016-08-27T08:26:49.000Z</time>
      </trkpt>
      <trkpt lat="45.98616" lon="6.25237">
        <ele>786</ele>
        <time>2016-08-27T08:26:50.000Z</time>
      </trkpt>
      <trkpt lat="45.98616" lon="6.25235">
        <ele>786</ele>
        <time>2016-08-27T08:26:51.000Z</time>
      </trkpt>
      <trkpt lat="45.98615" lon="6.25234">
        <ele>785</ele>
        <time>2016-08-27T08:26:52.000Z</time>
      </trkpt>
      <trkpt lat="45.98615" lon="6.25232">
        <ele>785</ele>
        <time>2016-08-27T08:26:53.000Z</time>
      </trkpt>
      <trkpt lat="45.98615" lon="6.25231">
        <ele>785</ele>
        <time>2016-08-27T08:26:54.000Z</time>
      </trkpt>
      <trkpt lat="45.98615" lon="6.25229">
        <ele>785</ele>
        <time>2016-08-27T08:26:55.000Z</time>
      </trkpt>
      <trkpt lat="45.98615" lon="6.25227">
        <ele>784</ele>
        <time>2016-08-27T08:26:56.000Z</time>
      </trkpt>
      <trkpt lat="45.98614" lon="6.25225">
        <ele>784</ele>
        <time>2016-08-27T08:26:57.000Z</time>
      </trkpt>
      <trkpt lat="45.98614" lon="6.25223">
        <ele>783</ele>
        <time>2016-08-27T08:26:58.000Z</time>
      </trkpt>
      <trkpt lat="45.98614" lon="6.25222">
        <ele>783</ele>
        <time>2016-08-27T08:26:59.000Z</time>
      </trkpt>
      <trkpt lat="45.98615" lon="6.2522">
        <ele>783</ele>
        <time>2016-08-27T08:27:00.000Z</time>
      </trkpt>
      <trkpt lat="45.98615" lon="6.25219">
        <ele>783</ele>
        <time>2016-08-27T08:27:01.000Z</time>
      </trkpt>
      <trkpt lat="45.98615" lon="6.25218">
        <ele>782</ele>
        <time>2016-08-27T08:27:02.000Z</time>
      </trkpt>
      <trkpt lat="45.98616" lon="6.25217">
        <ele>782</ele>
        <time>2016-08-27T08:27:03.000Z</time>
      </trkpt>
      <trkpt lat="45.98616" lon="6.25216">
        <ele>782</ele>
        <time>2016-08-27T08:27:04.000Z</time>
      </trkpt>
      <trkpt lat="45.98617" lon="6.25215">
        <ele>782</ele>
        <time>2016-08-27T08:27:05.000Z</time>
      </trkpt>
      <trkpt lat="45.98617" lon="6.25214">
        <ele>781</ele>
        <time>2016-08-27T08:27:06.000Z</time>
      </trkpt>
      <trkpt lat="45.98617" lon="6.25213">
        <ele>781</ele>
        <time>2016-08-27T08:27:07.000Z</time>
      </trkpt>
      <trkpt lat="45.98617" lon="6.25211">
        <ele>781</ele>
        <time>2016-08-27T08:27:08.000Z</time>
      </trkpt>
      <trkpt lat="45.98617" lon="6.2521">
        <ele>781</ele>
        <time>2016-08-27T08:27:09.000Z</time>
      </trkpt>
      <trkpt lat="45.98616" lon="6.25209">
        <ele>780</ele>
        <time>2016-08-27T08:27:10.000Z</time>
      </trkpt>
      <trkpt lat="45.98616" lon="6.25208">
        <ele>780</ele>
        <time>2016-08-27T08:27:11.000Z</time>
      </trkpt>
      <trkpt lat="45.98616" lon="6.25207">
        <ele>780</ele>
        <time>2016-08-27T08:27:12.000Z</time>
      </trkpt>
      <trkpt lat="45.98616" lon="6.25206">
        <ele>780</ele>
        <time>2016-08-27T08:27:13.000Z</time>
      </trkpt>
      <trkpt lat="45.98616" lon="6.25205">
        <ele>780</ele>
        <time>2016-08-27T08:27:14.000Z</time>
      </trkpt>
      <trkpt lat="45.98617" lon="6.25204">
        <ele>780</ele>
        <time>2016-08-27T08:27:15.000Z</time>
      </trkpt>
      <trkpt lat="45.98617" lon="6.25203">
        <ele>779</ele>
        <time>2016-08-27T08:27:16.000Z</time>
      </trkpt>
      <trkpt lat="45.98617" lon="6.25203">
        <ele>779</ele>
        <time>2016-08-27T08:27:17.000Z</time>
      </trkpt>
      <trkpt lat="45.98617" lon="6.25202">
        <ele>779</ele>
        <time>2016-08-27T08:27:18.000Z</time>
      </trkpt>
      <trkpt lat="45.98617" lon="6.25202">
        <ele>779</ele>
        <time>2016-08-27T08:27:19.000Z</time>
      </trkpt>
      <trkpt lat="45.98617" lon="6.25201">
        <ele>779</ele>
        <time>2016-08-27T08:27:20.000Z</time>
      </trkpt>
      <trkpt lat="45.98617" lon="6.252">
        <ele>779</ele>
        <time>2016-08-27T08:27:21.000Z</time>
      </trkpt>
      <trkpt lat="45.98617" lon="6.252">
        <ele>779</ele>
        <time>2016-08-27T08:27:22.000Z</time>
      </trkpt>
      <trkpt lat="45.98617" lon="6.25199">
        <ele>779</ele>
        <time>2016-08-27T08:27:23.000Z</time>
      </trkpt>
      <trkpt lat="45.98617" lon="6.25199">
        <ele>779</ele>
        <time>2016-08-27T08:27:24.000Z</time>
      </trkpt>
      <trkpt lat="45.98617" lon="6.25199">
        <ele>779</ele>
        <time>2016-08-27T08:27:25.000Z</time>
      </trkpt>
      <trkpt lat="45.98617" lon="6.25199">
        <ele>779</ele>
        <time>2016-08-27T08:27:26.000Z</time>
      </trkpt>
      <trkpt lat="45.98616" lon="6.25199">
        <ele>779</ele>
        <time>2016-08-27T08:27:27.000Z</time>
      </trkpt>
      <trkpt lat="45.98616" lon="6.25199">
        <ele>779</ele>
        <time>2016-08-27T08:27:28.000Z</time>
      </trkpt>
      <trkpt lat="45.98616" lon="6.25198">
        <ele>779</ele>
        <time>2016-08-27T08:27:29.000Z</time>
      </trkpt>
      <trkpt lat="45.98616" lon="6.25198">
        <ele>779</ele>
        <time>2016-08-27T08:27:30.000Z</time>
      </trkpt>
      <trkpt lat="45.98616" lon="6.25199">
        <ele>779</ele>
        <time>2016-08-27T08:27:31.000Z</time>
      </trkpt>
      <trkpt lat="45.98616" lon="6.25198">
        <ele>779</ele>
        <time>2016-08-27T08:27:32.000Z</time>
      </trkpt>
      <trkpt lat="45.98616" lon="6.25198">
        <ele>779</ele>
        <time>2016-08-27T08:27:33.000Z</time>
      </trkpt>
      <trkpt lat="45.98616" lon="6.25197">
        <ele>779</ele>
        <time>2016-08-27T08:27:34.000Z</time>
      </trkpt>
      <trkpt lat="45.98616" lon="6.25196">
        <ele>779</ele>
        <time>2016-08-27T08:27:35.000Z</time>
      </trkpt>
      <trkpt lat="45.98616" lon="6.25196">
        <ele>779</ele>
        <time>2016-08-27T08:27:36.000Z</time>
      </trkpt>
      <trkpt lat="45.98616" lon="6.25196">
        <ele>779</ele>
        <time>2016-08-27T08:27:37.000Z</time>
      </trkpt>
      <trkpt lat="45.98616" lon="6.25195">
        <ele>779</ele>
        <time>2016-08-27T08:27:38.000Z</time>
      </trkpt>
      <trkpt lat="45.98615" lon="6.25195">
        <ele>779</ele>
        <time>2016-08-27T08:27:39.000Z</time>
      </trkpt>
      <trkpt lat="45.98614" lon="6.25194">
        <ele>779</ele>
        <time>2016-08-27T08:27:40.000Z</time>
      </trkpt>
      <trkpt lat="45.98614" lon="6.25194">
        <ele>779</ele>
        <time>2016-08-27T08:27:41.000Z</time>
      </trkpt>
      <trkpt lat="45.98614" lon="6.25194">
        <ele>779</ele>
        <time>2016-08-27T08:27:42.000Z</time>
      </trkpt>
      <trkpt lat="45.98613" lon="6.25193">
        <ele>779</ele>
        <time>2016-08-27T08:27:43.000Z</time>
      </trkpt>
      <trkpt lat="45.98613" lon="6.25192">
        <ele>779</ele>
        <time>2016-08-27T08:27:44.000Z</time>
      </trkpt>
      <trkpt lat="45.98612" lon="6.25191">
        <ele>779</ele>
        <time>2016-08-27T08:27:45.000Z</time>
      </trkpt>
      <trkpt lat="45.98612" lon="6.2519">
        <ele>779</ele>
        <time>2016-08-27T08:27:46.000Z</time>
      </trkpt>
      <trkpt lat="45.98612" lon="6.2519">
        <ele>779</ele>
        <time>2016-08-27T08:27:47.000Z</time>
      </trkpt>
      <trkpt lat="45.98611" lon="6.25189">
        <ele>779</ele>
        <time>2016-08-27T08:27:48.000Z</time>
      </trkpt>
      <trkpt lat="45.98611" lon="6.25189">
        <ele>779</ele>
        <time>2016-08-27T08:27:49.000Z</time>
      </trkpt>
      <trkpt lat="45.98611" lon="6.25189">
        <ele>779</ele>
        <time>2016-08-27T08:27:50.000Z</time>
      </trkpt>
      <trkpt lat="45.98611" lon="6.25189">
        <ele>779</ele>
        <time>2016-08-27T08:27:51.000Z</time>
      </trkpt>
      <trkpt lat="45.98611" lon="6.25189">
        <ele>779</ele>
        <time>2016-08-27T08:27:52.000Z</time>
      </trkpt>
      <trkpt lat="45.98611" lon="6.25189">
        <ele>779</ele>
        <time>2016-08-27T08:27:53.000Z</time>
      </trkpt>
      <trkpt lat="45.98611" lon="6.25189">
        <ele>779</ele>
        <time>2016-08-27T08:27:54.000Z</time>
      </trkpt>
      <trkpt lat="45.9861" lon="6.25189">
        <ele>779</ele>
        <time>2016-08-27T08:27:55.000Z</time>
      </trkpt>
      <trkpt lat="45.9861" lon="6.25188">
        <ele>779</ele>
        <time>2016-08-27T08:27:56.000Z</time>
      </trkpt>
      <trkpt lat="45.9861" lon="6.25187">
        <ele>779</ele>
        <time>2016-08-27T08:27:57.000Z</time>
      </trkpt>
      <trkpt lat="45.9861" lon="6.25187">
        <ele>779</ele>
        <time>2016-08-27T08:27:58.000Z</time>
      </trkpt>
      <trkpt lat="45.98609" lon="6.25187">
        <ele>779</ele>
        <time>2016-08-27T08:27:59.000Z</time>
      </trkpt>
      <trkpt lat="45.98609" lon="6.25185">
        <ele>779</ele>
        <time>2016-08-27T08:28:00.000Z</time>
      </trkpt>
      <trkpt lat="45.98608" lon="6.25185">
        <ele>779</ele>
        <time>2016-08-27T08:28:01.000Z</time>
      </trkpt>
      <trkpt lat="45.98608" lon="6.25184">
        <ele>779</ele>
        <time>2016-08-27T08:28:02.000Z</time>
      </trkpt>
      <trkpt lat="45.98608" lon="6.25183">
        <ele>779</ele>
        <time>2016-08-27T08:28:03.000Z</time>
      </trkpt>
      <trkpt lat="45.98607" lon="6.25182">
        <ele>779</ele>
        <time>2016-08-27T08:28:04.000Z</time>
      </trkpt>
      <trkpt lat="45.98607" lon="6.25182">
        <ele>779</ele>
        <time>2016-08-27T08:28:05.000Z</time>
      </trkpt>
      <trkpt lat="45.98607" lon="6.25182">
        <ele>779</ele>
        <time>2016-08-27T08:28:06.000Z</time>
      </trkpt>
      <trkpt lat="45.98607" lon="6.25182">
        <ele>779</ele>
        <time>2016-08-27T08:28:07.000Z</time>
      </trkpt>
      <trkpt lat="45.98607" lon="6.25182">
        <ele>779</ele>
        <time>2016-08-27T08:28:08.000Z</time>
      </trkpt>
      <trkpt lat="45.98607" lon="6.25182">
        <ele>779</ele>
        <time>2016-08-27T08:28:09.000Z</time>
      </trkpt>
      <trkpt lat="45.98607" lon="6.25182">
        <ele>779</ele>
        <time>2016-08-27T08:28:10.000Z</time>
      </trkpt>
      <trkpt lat="45.98607" lon="6.25182">
        <ele>779</ele>
        <time>2016-08-27T08:28:11.000Z</time>
      </trkpt>
      <trkpt lat="45.98608" lon="6.25182">
        <ele>779</ele>
        <time>2016-08-27T08:28:12.000Z</time>
      </trkpt>
      <trkpt lat="45.98608" lon="6.25183">
        <ele>779</ele>
        <time>2016-08-27T08:28:13.000Z</time>
      </trkpt>
      <trkpt lat="45.98609" lon="6.25184">
        <ele>779</ele>
        <time>2016-08-27T08:28:14.000Z</time>
      </trkpt>
      <trkpt lat="45.98609" lon="6.25185">
        <ele>779</ele>
        <time>2016-08-27T08:28:15.000Z</time>
      </trkpt>
      <trkpt lat="45.9861" lon="6.25186">
        <ele>779</ele>
        <time>2016-08-27T08:28:16.000Z</time>
      </trkpt>
      <trkpt lat="45.98611" lon="6.25187">
        <ele>779</ele>
        <time>2016-08-27T08:28:17.000Z</time>
      </trkpt>
      <trkpt lat="45.98612" lon="6.25188">
        <ele>779</ele>
        <time>2016-08-27T08:28:18.000Z</time>
      </trkpt>
      <trkpt lat="45.98613" lon="6.2519">
        <ele>779</ele>
        <time>2016-08-27T08:28:19.000Z</time>
      </trkpt>
      <trkpt lat="45.98614" lon="6.25191">
        <ele>779</ele>
        <time>2016-08-27T08:28:20.000Z</time>
      </trkpt>
      <trkpt lat="45.98615" lon="6.25193">
        <ele>779</ele>
        <time>2016-08-27T08:28:21.000Z</time>
      </trkpt>
      <trkpt lat="45.98616" lon="6.25195">
        <ele>779</ele>
        <time>2016-08-27T08:28:22.000Z</time>
      </trkpt>
      <trkpt lat="45.98616" lon="6.25196">
        <ele>779</ele>
        <time>2016-08-27T08:28:23.000Z</time>
      </trkpt>
      <trkpt lat="45.98617" lon="6.25197">
        <ele>778</ele>
        <time>2016-08-27T08:28:24.000Z</time>
      </trkpt>
      <trkpt lat="45.98618" lon="6.25199">
        <ele>778</ele>
        <time>2016-08-27T08:28:25.000Z</time>
      </trkpt>
      <trkpt lat="45.98619" lon="6.252">
        <ele>778</ele>
        <time>2016-08-27T08:28:26.000Z</time>
      </trkpt>
      <trkpt lat="45.98619" lon="6.25202">
        <ele>778</ele>
        <time>2016-08-27T08:28:27.000Z</time>
      </trkpt>
      <trkpt lat="45.9862" lon="6.25203">
        <ele>778</ele>
        <time>2016-08-27T08:28:28.000Z</time>
      </trkpt>
      <trkpt lat="45.98621" lon="6.25205">
        <ele>778</ele>
        <time>2016-08-27T08:28:29.000Z</time>
      </trkpt>
      <trkpt lat="45.98621" lon="6.25205">
        <ele>778</ele>
        <time>2016-08-27T08:28:30.000Z</time>
      </trkpt>
      <trkpt lat="45.98622" lon="6.25206">
        <ele>778</ele>
        <time>2016-08-27T08:28:31.000Z</time>
      </trkpt>
      <trkpt lat="45.98622" lon="6.25206">
        <ele>778</ele>
        <time>2016-08-27T08:28:32.000Z</time>
      </trkpt>
      <trkpt lat="45.98622" lon="6.25206">
        <ele>778</ele>
        <time>2016-08-27T08:28:33.000Z</time>
      </trkpt>
      <trkpt lat="45.98622" lon="6.25206">
        <ele>778</ele>
        <time>2016-08-27T08:28:34.000Z</time>
      </trkpt>
      <trkpt lat="45.98622" lon="6.25207">
        <ele>778</ele>
        <time>2016-08-27T08:28:35.000Z</time>
      </trkpt>
      <trkpt lat="45.98623" lon="6.25208">
        <ele>778</ele>
        <time>2016-08-27T08:28:36.000Z</time>
      </trkpt>
      <trkpt lat="45.98624" lon="6.25209">
        <ele>778</ele>
        <time>2016-08-27T08:28:37.000Z</time>
      </trkpt>
      <trkpt lat="45.98624" lon="6.2521">
        <ele>777</ele>
        <time>2016-08-27T08:28:38.000Z</time>
      </trkpt>
      <trkpt lat="45.98625" lon="6.25212">
        <ele>777</ele>
        <time>2016-08-27T08:28:39.000Z</time>
      </trkpt>
      <trkpt lat="45.98627" lon="6.25214">
        <ele>777</ele>
        <time>2016-08-27T08:28:40.000Z</time>
      </trkpt>
      <trkpt lat="45.98628" lon="6.25216">
        <ele>777</ele>
        <time>2016-08-27T08:28:41.000Z</time>
      </trkpt>
      <trkpt lat="45.98629" lon="6.25218">
        <ele>776</ele>
        <time>2016-08-27T08:28:42.000Z</time>
      </trkpt>
      <trkpt lat="45.98631" lon="6.2522">
        <ele>776</ele>
        <time>2016-08-27T08:28:43.000Z</time>
      </trkpt>
      <trkpt lat="45.98632" lon="6.25221">
        <ele>775</ele>
        <time>2016-08-27T08:28:44.000Z</time>
      </trkpt>
      <trkpt lat="45.98633" lon="6.25222">
        <ele>775</ele>
        <time>2016-08-27T08:28:45.000Z</time>
      </trkpt>
      <trkpt lat="45.98634" lon="6.25222">
        <ele>775</ele>
        <time>2016-08-27T08:28:46.000Z</time>
      </trkpt>
      <trkpt lat="45.98634" lon="6.25223">
        <ele>775</ele>
        <time>2016-08-27T08:28:47.000Z</time>
      </trkpt>
      <trkpt lat="45.98635" lon="6.25225">
        <ele>774</ele>
        <time>2016-08-27T08:28:48.000Z</time>
      </trkpt>
      <trkpt lat="45.98637" lon="6.25226">
        <ele>774</ele>
        <time>2016-08-27T08:28:49.000Z</time>
      </trkpt>
      <trkpt lat="45.98638" lon="6.25227">
        <ele>773</ele>
        <time>2016-08-27T08:28:50.000Z</time>
      </trkpt>
      <trkpt lat="45.9864" lon="6.25228">
        <ele>773</ele>
        <time>2016-08-27T08:28:51.000Z</time>
      </trkpt>
      <trkpt lat="45.98642" lon="6.25229">
        <ele>773</ele>
        <time>2016-08-27T08:28:52.000Z</time>
      </trkpt>
      <trkpt lat="45.98643" lon="6.2523">
        <ele>773</ele>
        <time>2016-08-27T08:28:53.000Z</time>
      </trkpt>
      <trkpt lat="45.98645" lon="6.2523">
        <ele>772</ele>
        <time>2016-08-27T08:28:54.000Z</time>
      </trkpt>
      <trkpt lat="45.98646" lon="6.2523">
        <ele>772</ele>
        <time>2016-08-27T08:28:55.000Z</time>
      </trkpt>
      <trkpt lat="45.98648" lon="6.25229">
        <ele>772</ele>
        <time>2016-08-27T08:28:56.000Z</time>
      </trkpt>
      <trkpt lat="45.98649" lon="6.25228">
        <ele>772</ele>
        <time>2016-08-27T08:28:57.000Z</time>
      </trkpt>
      <trkpt lat="45.98651" lon="6.25228">
        <ele>771</ele>
        <time>2016-08-27T08:28:58.000Z</time>
      </trkpt>
      <trkpt lat="45.98652" lon="6.25227">
        <ele>771</ele>
        <time>2016-08-27T08:28:59.000Z</time>
      </trkpt>
      <trkpt lat="45.98654" lon="6.25227">
        <ele>770</ele>
        <time>2016-08-27T08:29:00.000Z</time>
      </trkpt>
      <trkpt lat="45.98655" lon="6.25226">
        <ele>770</ele>
        <time>2016-08-27T08:29:01.000Z</time>
      </trkpt>
      <trkpt lat="45.98657" lon="6.25225">
        <ele>770</ele>
        <time>2016-08-27T08:29:02.000Z</time>
      </trkpt>
      <trkpt lat="45.98659" lon="6.25223">
        <ele>770</ele>
        <time>2016-08-27T08:29:03.000Z</time>
      </trkpt>
      <trkpt lat="45.9866" lon="6.25222">
        <ele>769</ele>
        <time>2016-08-27T08:29:04.000Z</time>
      </trkpt>
      <trkpt lat="45.98662" lon="6.2522">
        <ele>769</ele>
        <time>2016-08-27T08:29:05.000Z</time>
      </trkpt>
      <trkpt lat="45.98664" lon="6.25218">
        <ele>768</ele>
        <time>2016-08-27T08:29:06.000Z</time>
      </trkpt>
      <trkpt lat="45.98666" lon="6.25216">
        <ele>768</ele>
        <time>2016-08-27T08:29:07.000Z</time>
      </trkpt>
      <trkpt lat="45.98668" lon="6.25214">
        <ele>767</ele>
        <time>2016-08-27T08:29:08.000Z</time>
      </trkpt>
      <trkpt lat="45.9867" lon="6.25212">
        <ele>767</ele>
        <time>2016-08-27T08:29:09.000Z</time>
      </trkpt>
      <trkpt lat="45.98672" lon="6.25211">
        <ele>766</ele>
        <time>2016-08-27T08:29:10.000Z</time>
      </trkpt>
      <trkpt lat="45.98673" lon="6.25209">
        <ele>766</ele>
        <time>2016-08-27T08:29:11.000Z</time>
      </trkpt>
      <trkpt lat="45.98675" lon="6.25208">
        <ele>765</ele>
        <time>2016-08-27T08:29:12.000Z</time>
      </trkpt>
      <trkpt lat="45.98677" lon="6.25208">
        <ele>765</ele>
        <time>2016-08-27T08:29:13.000Z</time>
      </trkpt>
      <trkpt lat="45.98679" lon="6.25208">
        <ele>764</ele>
        <time>2016-08-27T08:29:14.000Z</time>
      </trkpt>
      <trkpt lat="45.98681" lon="6.25209">
        <ele>764</ele>
        <time>2016-08-27T08:29:15.000Z</time>
      </trkpt>
      <trkpt lat="45.98683" lon="6.25211">
        <ele>763</ele>
        <time>2016-08-27T08:29:16.000Z</time>
      </trkpt>
      <trkpt lat="45.98685" lon="6.25213">
        <ele>763</ele>
        <time>2016-08-27T08:29:17.000Z</time>
      </trkpt>
      <trkpt lat="45.98687" lon="6.25215">
        <ele>762</ele>
        <time>2016-08-27T08:29:18.000Z</time>
      </trkpt>
      <trkpt lat="45.98688" lon="6.25218">
        <ele>762</ele>
        <time>2016-08-27T08:29:19.000Z</time>
      </trkpt>
      <trkpt lat="45.9869" lon="6.25221">
        <ele>761</ele>
        <time>2016-08-27T08:29:20.000Z</time>
      </trkpt>
      <trkpt lat="45.98691" lon="6.25224">
        <ele>761</ele>
        <time>2016-08-27T08:29:21.000Z</time>
      </trkpt>
      <trkpt lat="45.98692" lon="6.25226">
        <ele>760</ele>
        <time>2016-08-27T08:29:22.000Z</time>
      </trkpt>
      <trkpt lat="45.98693" lon="6.25229">
        <ele>760</ele>
        <time>2016-08-27T08:29:23.000Z</time>
      </trkpt>
      <trkpt lat="45.98695" lon="6.25233">
        <ele>759</ele>
        <time>2016-08-27T08:29:24.000Z</time>
      </trkpt>
      <trkpt lat="45.98697" lon="6.25236">
        <ele>759</ele>
        <time>2016-08-27T08:29:25.000Z</time>
      </trkpt>
      <trkpt lat="45.98698" lon="6.25239">
        <ele>759</ele>
        <time>2016-08-27T08:29:26.000Z</time>
      </trkpt>
      <trkpt lat="45.987" lon="6.25242">
        <ele>759</ele>
        <time>2016-08-27T08:29:27.000Z</time>
      </trkpt>
      <trkpt lat="45.98702" lon="6.25244">
        <ele>758</ele>
        <time>2016-08-27T08:29:28.000Z</time>
      </trkpt>
      <trkpt lat="45.98704" lon="6.25247">
        <ele>758</ele>
        <time>2016-08-27T08:29:29.000Z</time>
      </trkpt>
      <trkpt lat="45.98706" lon="6.25249">
        <ele>757</ele>
        <time>2016-08-27T08:29:30.000Z</time>
      </trkpt>
      <trkpt lat="45.98708" lon="6.25251">
        <ele>757</ele>
        <time>2016-08-27T08:29:31.000Z</time>
      </trkpt>
      <trkpt lat="45.98711" lon="6.25254">
        <ele>756</ele>
        <time>2016-08-27T08:29:32.000Z</time>
      </trkpt>
      <trkpt lat="45.98713" lon="6.25256">
        <ele>756</ele>
        <time>2016-08-27T08:29:33.000Z</time>
      </trkpt>
      <trkpt lat="45.98716" lon="6.25258">
        <ele>755</ele>
        <time>2016-08-27T08:29:34.000Z</time>
      </trkpt>
      <trkpt lat="45.98718" lon="6.2526">
        <ele>755</ele>
        <time>2016-08-27T08:29:35.000Z</time>
      </trkpt>
      <trkpt lat="45.98721" lon="6.25261">
        <ele>754</ele>
        <time>2016-08-27T08:29:36.000Z</time>
      </trkpt>
      <trkpt lat="45.98724" lon="6.25263">
        <ele>754</ele>
        <time>2016-08-27T08:29:37.000Z</time>
      </trkpt>
      <trkpt lat="45.98726" lon="6.25265">
        <ele>753</ele>
        <time>2016-08-27T08:29:38.000Z</time>
      </trkpt>
      <trkpt lat="45.98729" lon="6.25268">
        <ele>753</ele>
        <time>2016-08-27T08:29:39.000Z</time>
      </trkpt>
      <trkpt lat="45.98731" lon="6.25271">
        <ele>753</ele>
        <time>2016-08-27T08:29:40.000Z</time>
      </trkpt>
      <trkpt lat="45.98734" lon="6.25274">
        <ele>753</ele>
        <time>2016-08-27T08:29:41.000Z</time>
      </trkpt>
      <trkpt lat="45.98736" lon="6.25278">
        <ele>752</ele>
        <time>2016-08-27T08:29:42.000Z</time>
      </trkpt>
      <trkpt lat="45.98739" lon="6.25281">
        <ele>752</ele>
        <time>2016-08-27T08:29:43.000Z</time>
      </trkpt>
      <trkpt lat="45.98741" lon="6.25285">
        <ele>751</ele>
        <time>2016-08-27T08:29:44.000Z</time>
      </trkpt>
      <trkpt lat="45.98743" lon="6.25289">
        <ele>751</ele>
        <time>2016-08-27T08:29:45.000Z</time>
      </trkpt>
      <trkpt lat="45.98746" lon="6.25292">
        <ele>750</ele>
        <time>2016-08-27T08:29:46.000Z</time>
      </trkpt>
      <trkpt lat="45.98748" lon="6.25295">
        <ele>750</ele>
        <time>2016-08-27T08:29:47.000Z</time>
      </trkpt>
      <trkpt lat="45.98749" lon="6.25298">
        <ele>750</ele>
        <time>2016-08-27T08:29:48.000Z</time>
      </trkpt>
      <trkpt lat="45.98751" lon="6.25301">
        <ele>750</ele>
        <time>2016-08-27T08:29:49.000Z</time>
      </trkpt>
      <trkpt lat="45.98753" lon="6.25302">
        <ele>749</ele>
        <time>2016-08-27T08:29:50.000Z</time>
      </trkpt>
      <trkpt lat="45.98754" lon="6.25303">
        <ele>749</ele>
        <time>2016-08-27T08:29:51.000Z</time>
      </trkpt>
      <trkpt lat="45.98756" lon="6.25303">
        <ele>749</ele>
        <time>2016-08-27T08:29:52.000Z</time>
      </trkpt>
      <trkpt lat="45.98757" lon="6.25302">
        <ele>749</ele>
        <time>2016-08-27T08:29:53.000Z</time>
      </trkpt>
      <trkpt lat="45.98759" lon="6.253">
        <ele>748</ele>
        <time>2016-08-27T08:29:54.000Z</time>
      </trkpt>
      <trkpt lat="45.9876" lon="6.25298">
        <ele>748</ele>
        <time>2016-08-27T08:29:55.000Z</time>
      </trkpt>
      <trkpt lat="45.98761" lon="6.25295">
        <ele>748</ele>
        <time>2016-08-27T08:29:56.000Z</time>
      </trkpt>
      <trkpt lat="45.98762" lon="6.25292">
        <ele>748</ele>
        <time>2016-08-27T08:29:57.000Z</time>
      </trkpt>
      <trkpt lat="45.98762" lon="6.25289">
        <ele>747</ele>
        <time>2016-08-27T08:29:58.000Z</time>
      </trkpt>
      <trkpt lat="45.98762" lon="6.25286">
        <ele>747</ele>
        <time>2016-08-27T08:29:59.000Z</time>
      </trkpt>
      <trkpt lat="45.98762" lon="6.25282">
        <ele>746</ele>
        <time>2016-08-27T08:30:00.000Z</time>
      </trkpt>
      <trkpt lat="45.98763" lon="6.25279">
        <ele>746</ele>
        <time>2016-08-27T08:30:01.000Z</time>
      </trkpt>
      <trkpt lat="45.98763" lon="6.25276">
        <ele>745</ele>
        <time>2016-08-27T08:30:02.000Z</time>
      </trkpt>
      <trkpt lat="45.98764" lon="6.25272">
        <ele>745</ele>
        <time>2016-08-27T08:30:03.000Z</time>
      </trkpt>
      <trkpt lat="45.98764" lon="6.25268">
        <ele>744</ele>
        <time>2016-08-27T08:30:04.000Z</time>
      </trkpt>
      <trkpt lat="45.98765" lon="6.25265">
        <ele>744</ele>
        <time>2016-08-27T08:30:05.000Z</time>
      </trkpt>
      <trkpt lat="45.98765" lon="6.25261">
        <ele>743</ele>
        <time>2016-08-27T08:30:06.000Z</time>
      </trkpt>
      <trkpt lat="45.98765" lon="6.25258">
        <ele>743</ele>
        <time>2016-08-27T08:30:07.000Z</time>
      </trkpt>
      <trkpt lat="45.98765" lon="6.25254">
        <ele>742</ele>
        <time>2016-08-27T08:30:08.000Z</time>
      </trkpt>
      <trkpt lat="45.98766" lon="6.25251">
        <ele>742</ele>
        <time>2016-08-27T08:30:09.000Z</time>
      </trkpt>
      <trkpt lat="45.98766" lon="6.25248">
        <ele>742</ele>
        <time>2016-08-27T08:30:10.000Z</time>
      </trkpt>
      <trkpt lat="45.98766" lon="6.25245">
        <ele>742</ele>
        <time>2016-08-27T08:30:11.000Z</time>
      </trkpt>
      <trkpt lat="45.98766" lon="6.25243">
        <ele>741</ele>
        <time>2016-08-27T08:30:12.000Z</time>
      </trkpt>
      <trkpt lat="45.98766" lon="6.25242">
        <ele>741</ele>
        <time>2016-08-27T08:30:13.000Z</time>
      </trkpt>
      <trkpt lat="45.98766" lon="6.25241">
        <ele>740</ele>
        <time>2016-08-27T08:30:14.000Z</time>
      </trkpt>
      <trkpt lat="45.98765" lon="6.2524">
        <ele>740</ele>
        <time>2016-08-27T08:30:15.000Z</time>
      </trkpt>
      <trkpt lat="45.98765" lon="6.2524">
        <ele>740</ele>
        <time>2016-08-27T08:30:16.000Z</time>
      </trkpt>
      <trkpt lat="45.98765" lon="6.2524">
        <ele>740</ele>
        <time>2016-08-27T08:30:17.000Z</time>
      </trkpt>
      <trkpt lat="45.98765" lon="6.25239">
        <ele>739</ele>
        <time>2016-08-27T08:30:18.000Z</time>
      </trkpt>
      <trkpt lat="45.98765" lon="6.25239">
        <ele>739</ele>
        <time>2016-08-27T08:30:19.000Z</time>
      </trkpt>
      <trkpt lat="45.98765" lon="6.25239">
        <ele>739</ele>
        <time>2016-08-27T08:30:20.000Z</time>
      </trkpt>
      <trkpt lat="45.98765" lon="6.25239">
        <ele>739</ele>
        <time>2016-08-27T08:30:21.000Z</time>
      </trkpt>
      <trkpt lat="45.98765" lon="6.25238">
        <ele>738</ele>
        <time>2016-08-27T08:30:22.000Z</time>
      </trkpt>
      <trkpt lat="45.98765" lon="6.25238">
        <ele>738</ele>
        <time>2016-08-27T08:30:23.000Z</time>
      </trkpt>
      <trkpt lat="45.98765" lon="6.25238">
        <ele>738</ele>
        <time>2016-08-27T08:30:24.000Z</time>
      </trkpt>
      <trkpt lat="45.98765" lon="6.25237">
        <ele>738</ele>
        <time>2016-08-27T08:30:25.000Z</time>
      </trkpt>
      <trkpt lat="45.98765" lon="6.25237">
        <ele>737</ele>
        <time>2016-08-27T08:30:26.000Z</time>
      </trkpt>
      <trkpt lat="45.98765" lon="6.25237">
        <ele>737</ele>
        <time>2016-08-27T08:30:27.000Z</time>
      </trkpt>
      <trkpt lat="45.98765" lon="6.25236">
        <ele>736</ele>
        <time>2016-08-27T08:30:28.000Z</time>
      </trkpt>
      <trkpt lat="45.98765" lon="6.25236">
        <ele>736</ele>
        <time>2016-08-27T08:30:29.000Z</time>
      </trkpt>
      <trkpt lat="45.98765" lon="6.25234">
        <ele>736</ele>
        <time>2016-08-27T08:30:30.000Z</time>
      </trkpt>
      <trkpt lat="45.98765" lon="6.25232">
        <ele>736</ele>
        <time>2016-08-27T08:30:31.000Z</time>
      </trkpt>
      <trkpt lat="45.98765" lon="6.2523">
        <ele>735</ele>
        <time>2016-08-27T08:30:32.000Z</time>
      </trkpt>
      <trkpt lat="45.98766" lon="6.25228">
        <ele>735</ele>
        <time>2016-08-27T08:30:33.000Z</time>
      </trkpt>
      <trkpt lat="45.98766" lon="6.25225">
        <ele>735</ele>
        <time>2016-08-27T08:30:34.000Z</time>
      </trkpt>
      <trkpt lat="45.98766" lon="6.25222">
        <ele>735</ele>
        <time>2016-08-27T08:30:35.000Z</time>
      </trkpt>
      <trkpt lat="45.98766" lon="6.25219">
        <ele>734</ele>
        <time>2016-08-27T08:30:36.000Z</time>
      </trkpt>
      <trkpt lat="45.98765" lon="6.25216">
        <ele>734</ele>
        <time>2016-08-27T08:30:37.000Z</time>
      </trkpt>
      <trkpt lat="45.98764" lon="6.25212">
        <ele>734</ele>
        <time>2016-08-27T08:30:38.000Z</time>
      </trkpt>
      <trkpt lat="45.98763" lon="6.25208">
        <ele>734</ele>
        <time>2016-08-27T08:30:39.000Z</time>
      </trkpt>
      <trkpt lat="45.98763" lon="6.25204">
        <ele>733</ele>
        <time>2016-08-27T08:30:40.000Z</time>
      </trkpt>
      <trkpt lat="45.98762" lon="6.25199">
        <ele>733</ele>
        <time>2016-08-27T08:30:41.000Z</time>
      </trkpt>
      <trkpt lat="45.98761" lon="6.25195">
        <ele>733</ele>
        <time>2016-08-27T08:30:42.000Z</time>
      </trkpt>
      <trkpt lat="45.98761" lon="6.2519">
        <ele>733</ele>
        <time>2016-08-27T08:30:43.000Z</time>
      </trkpt>
      <trkpt lat="45.9876" lon="6.25186">
        <ele>732</ele>
        <time>2016-08-27T08:30:44.000Z</time>
      </trkpt>
      <trkpt lat="45.98759" lon="6.25182">
        <ele>732</ele>
        <time>2016-08-27T08:30:45.000Z</time>
      </trkpt>
      <trkpt lat="45.98758" lon="6.25177">
        <ele>732</ele>
        <time>2016-08-27T08:30:46.000Z</time>
      </trkpt>
      <trkpt lat="45.98758" lon="6.25174">
        <ele>732</ele>
        <time>2016-08-27T08:30:47.000Z</time>
      </trkpt>
      <trkpt lat="45.98757" lon="6.2517">
        <ele>732</ele>
        <time>2016-08-27T08:30:48.000Z</time>
      </trkpt>
      <trkpt lat="45.98757" lon="6.25166">
        <ele>732</ele>
        <time>2016-08-27T08:30:49.000Z</time>
      </trkpt>
      <trkpt lat="45.98756" lon="6.25162">
        <ele>731</ele>
        <time>2016-08-27T08:30:50.000Z</time>
      </trkpt>
      <trkpt lat="45.98756" lon="6.25159">
        <ele>731</ele>
        <time>2016-08-27T08:30:51.000Z</time>
      </trkpt>
      <trkpt lat="45.98755" lon="6.25155">
        <ele>731</ele>
        <time>2016-08-27T08:30:52.000Z</time>
      </trkpt>
      <trkpt lat="45.98754" lon="6.25152">
        <ele>731</ele>
        <time>2016-08-27T08:30:53.000Z</time>
      </trkpt>
      <trkpt lat="45.98753" lon="6.25149">
        <ele>731</ele>
        <time>2016-08-27T08:30:54.000Z</time>
      </trkpt>
      <trkpt lat="45.98752" lon="6.25146">
        <ele>731</ele>
        <time>2016-08-27T08:30:55.000Z</time>
      </trkpt>
      <trkpt lat="45.98751" lon="6.25143">
        <ele>731</ele>
        <time>2016-08-27T08:30:56.000Z</time>
      </trkpt>
      <trkpt lat="45.98751" lon="6.2514">
        <ele>731</ele>
        <time>2016-08-27T08:30:57.000Z</time>
      </trkpt>
      <trkpt lat="45.9875" lon="6.25137">
        <ele>730</ele>
        <time>2016-08-27T08:30:58.000Z</time>
      </trkpt>
      <trkpt lat="45.98749" lon="6.25133">
        <ele>730</ele>
        <time>2016-08-27T08:30:59.000Z</time>
      </trkpt>
      <trkpt lat="45.98749" lon="6.2513">
        <ele>730</ele>
        <time>2016-08-27T08:31:00.000Z</time>
      </trkpt>
      <trkpt lat="45.98748" lon="6.25127">
        <ele>730</ele>
        <time>2016-08-27T08:31:01.000Z</time>
      </trkpt>
      <trkpt lat="45.98749" lon="6.25123">
        <ele>730</ele>
        <time>2016-08-27T08:31:02.000Z</time>
      </trkpt>
      <trkpt lat="45.98749" lon="6.25119">
        <ele>730</ele>
        <time>2016-08-27T08:31:03.000Z</time>
      </trkpt>
      <trkpt lat="45.98749" lon="6.25115">
        <ele>729</ele>
        <time>2016-08-27T08:31:04.000Z</time>
      </trkpt>
      <trkpt lat="45.9875" lon="6.25112">
        <ele>729</ele>
        <time>2016-08-27T08:31:05.000Z</time>
      </trkpt>
      <trkpt lat="45.9875" lon="6.25108">
        <ele>729</ele>
        <time>2016-08-27T08:31:06.000Z</time>
      </trkpt>
      <trkpt lat="45.98751" lon="6.25105">
        <ele>729</ele>
        <time>2016-08-27T08:31:07.000Z</time>
      </trkpt>
      <trkpt lat="45.98752" lon="6.25101">
        <ele>728</ele>
        <time>2016-08-27T08:31:08.000Z</time>
      </trkpt>
      <trkpt lat="45.98752" lon="6.25098">
        <ele>728</ele>
        <time>2016-08-27T08:31:09.000Z</time>
      </trkpt>
      <trkpt lat="45.98753" lon="6.25096">
        <ele>727</ele>
        <time>2016-08-27T08:31:10.000Z</time>
      </trkpt>
      <trkpt lat="45.98753" lon="6.25095">
        <ele>727</ele>
        <time>2016-08-27T08:31:11.000Z</time>
      </trkpt>
      <trkpt lat="45.98754" lon="6.25093">
        <ele>727</ele>
        <time>2016-08-27T08:31:12.000Z</time>
      </trkpt>
      <trkpt lat="45.98754" lon="6.25092">
        <ele>727</ele>
        <time>2016-08-27T08:31:13.000Z</time>
      </trkpt>
      <trkpt lat="45.98755" lon="6.25091">
        <ele>726</ele>
        <time>2016-08-27T08:31:14.000Z</time>
      </trkpt>
      <trkpt lat="45.98756" lon="6.2509">
        <ele>726</ele>
        <time>2016-08-27T08:31:15.000Z</time>
      </trkpt>
      <trkpt lat="45.98757" lon="6.25089">
        <ele>726</ele>
        <time>2016-08-27T08:31:16.000Z</time>
      </trkpt>
      <trkpt lat="45.98758" lon="6.25088">
        <ele>726</ele>
        <time>2016-08-27T08:31:17.000Z</time>
      </trkpt>
      <trkpt lat="45.9876" lon="6.25088">
        <ele>725</ele>
        <time>2016-08-27T08:31:18.000Z</time>
      </trkpt>
      <trkpt lat="45.98761" lon="6.25087">
        <ele>725</ele>
        <time>2016-08-27T08:31:19.000Z</time>
      </trkpt>
      <trkpt lat="45.98764" lon="6.25087">
        <ele>725</ele>
        <time>2016-08-27T08:31:20.000Z</time>
      </trkpt>
      <trkpt lat="45.98766" lon="6.25087">
        <ele>725</ele>
        <time>2016-08-27T08:31:21.000Z</time>
      </trkpt>
      <trkpt lat="45.98769" lon="6.25088">
        <ele>724</ele>
        <time>2016-08-27T08:31:22.000Z</time>
      </trkpt>
      <trkpt lat="45.98772" lon="6.25089">
        <ele>724</ele>
        <time>2016-08-27T08:31:23.000Z</time>
      </trkpt>
      <trkpt lat="45.98775" lon="6.2509">
        <ele>723</ele>
        <time>2016-08-27T08:31:24.000Z</time>
      </trkpt>
      <trkpt lat="45.98778" lon="6.25091">
        <ele>723</ele>
        <time>2016-08-27T08:31:25.000Z</time>
      </trkpt>
      <trkpt lat="45.98781" lon="6.25092">
        <ele>722</ele>
        <time>2016-08-27T08:31:26.000Z</time>
      </trkpt>
      <trkpt lat="45.98784" lon="6.25092">
        <ele>722</ele>
        <time>2016-08-27T08:31:27.000Z</time>
      </trkpt>
      <trkpt lat="45.98787" lon="6.25093">
        <ele>721</ele>
        <time>2016-08-27T08:31:28.000Z</time>
      </trkpt>
      <trkpt lat="45.98789" lon="6.25094">
        <ele>721</ele>
        <time>2016-08-27T08:31:29.000Z</time>
      </trkpt>
      <trkpt lat="45.98792" lon="6.25096">
        <ele>720</ele>
        <time>2016-08-27T08:31:30.000Z</time>
      </trkpt>
      <trkpt lat="45.98795" lon="6.25097">
        <ele>720</ele>
        <time>2016-08-27T08:31:31.000Z</time>
      </trkpt>
      <trkpt lat="45.98798" lon="6.25099">
        <ele>719</ele>
        <time>2016-08-27T08:31:32.000Z</time>
      </trkpt>
      <trkpt lat="45.98802" lon="6.251">
        <ele>719</ele>
        <time>2016-08-27T08:31:33.000Z</time>
      </trkpt>
      <trkpt lat="45.98805" lon="6.25102">
        <ele>718</ele>
        <time>2016-08-27T08:31:34.000Z</time>
      </trkpt>
      <trkpt lat="45.98808" lon="6.25105">
        <ele>718</ele>
        <time>2016-08-27T08:31:35.000Z</time>
      </trkpt>
      <trkpt lat="45.98811" lon="6.25108">
        <ele>717</ele>
        <time>2016-08-27T08:31:36.000Z</time>
      </trkpt>
      <trkpt lat="45.98813" lon="6.2511">
        <ele>717</ele>
        <time>2016-08-27T08:31:37.000Z</time>
      </trkpt>
      <trkpt lat="45.98815" lon="6.25112">
        <ele>716</ele>
        <time>2016-08-27T08:31:38.000Z</time>
      </trkpt>
      <trkpt lat="45.98816" lon="6.25115">
        <ele>716</ele>
        <time>2016-08-27T08:31:39.000Z</time>
      </trkpt>
      <trkpt lat="45.98817" lon="6.25118">
        <ele>715</ele>
        <time>2016-08-27T08:31:40.000Z</time>
      </trkpt>
      <trkpt lat="45.98818" lon="6.25122">
        <ele>715</ele>
        <time>2016-08-27T08:31:41.000Z</time>
      </trkpt>
      <trkpt lat="45.98819" lon="6.25126">
        <ele>714</ele>
        <time>2016-08-27T08:31:42.000Z</time>
      </trkpt>
      <trkpt lat="45.98819" lon="6.2513">
        <ele>714</ele>
        <time>2016-08-27T08:31:43.000Z</time>
      </trkpt>
      <trkpt lat="45.9882" lon="6.25134">
        <ele>713</ele>
        <time>2016-08-27T08:31:44.000Z</time>
      </trkpt>
      <trkpt lat="45.98821" lon="6.25138">
        <ele>713</ele>
        <time>2016-08-27T08:31:45.000Z</time>
      </trkpt>
      <trkpt lat="45.98821" lon="6.25142">
        <ele>712</ele>
        <time>2016-08-27T08:31:46.000Z</time>
      </trkpt>
      <trkpt lat="45.98823" lon="6.25146">
        <ele>712</ele>
        <time>2016-08-27T08:31:47.000Z</time>
      </trkpt>
      <trkpt lat="45.98824" lon="6.25149">
        <ele>711</ele>
        <time>2016-08-27T08:31:48.000Z</time>
      </trkpt>
      <trkpt lat="45.98825" lon="6.25153">
        <ele>711</ele>
        <time>2016-08-27T08:31:49.000Z</time>
      </trkpt>
      <trkpt lat="45.98826" lon="6.25157">
        <ele>710</ele>
        <time>2016-08-27T08:31:50.000Z</time>
      </trkpt>
      <trkpt lat="45.98827" lon="6.2516">
        <ele>710</ele>
        <time>2016-08-27T08:31:51.000Z</time>
      </trkpt>
      <trkpt lat="45.98829" lon="6.25164">
        <ele>709</ele>
        <time>2016-08-27T08:31:52.000Z</time>
      </trkpt>
      <trkpt lat="45.98831" lon="6.25168">
        <ele>709</ele>
        <time>2016-08-27T08:31:53.000Z</time>
      </trkpt>
      <trkpt lat="45.98833" lon="6.25171">
        <ele>707</ele>
        <time>2016-08-27T08:31:54.000Z</time>
      </trkpt>
      <trkpt lat="45.98835" lon="6.25175">
        <ele>707</ele>
        <time>2016-08-27T08:31:55.000Z</time>
      </trkpt>
      <trkpt lat="45.98838" lon="6.25179">
        <ele>705</ele>
        <time>2016-08-27T08:31:56.000Z</time>
      </trkpt>
      <trkpt lat="45.9884" lon="6.25183">
        <ele>705</ele>
        <time>2016-08-27T08:31:57.000Z</time>
      </trkpt>
      <trkpt lat="45.98842" lon="6.25186">
        <ele>704</ele>
        <time>2016-08-27T08:31:58.000Z</time>
      </trkpt>
      <trkpt lat="45.98844" lon="6.2519">
        <ele>704</ele>
        <time>2016-08-27T08:31:59.000Z</time>
      </trkpt>
      <trkpt lat="45.98847" lon="6.25193">
        <ele>702</ele>
        <time>2016-08-27T08:32:00.000Z</time>
      </trkpt>
      <trkpt lat="45.98849" lon="6.25196">
        <ele>702</ele>
        <time>2016-08-27T08:32:01.000Z</time>
      </trkpt>
      <trkpt lat="45.98851" lon="6.25198">
        <ele>700</ele>
        <time>2016-08-27T08:32:02.000Z</time>
      </trkpt>
      <trkpt lat="45.98853" lon="6.25199">
        <ele>700</ele>
        <time>2016-08-27T08:32:03.000Z</time>
      </trkpt>
      <trkpt lat="45.98854" lon="6.25199">
        <ele>699</ele>
        <time>2016-08-27T08:32:04.000Z</time>
      </trkpt>
      <trkpt lat="45.98856" lon="6.25197">
        <ele>699</ele>
        <time>2016-08-27T08:32:05.000Z</time>
      </trkpt>
      <trkpt lat="45.98857" lon="6.25195">
        <ele>697</ele>
        <time>2016-08-27T08:32:06.000Z</time>
      </trkpt>
      <trkpt lat="45.98859" lon="6.25192">
        <ele>697</ele>
        <time>2016-08-27T08:32:07.000Z</time>
      </trkpt>
      <trkpt lat="45.98861" lon="6.25189">
        <ele>695</ele>
        <time>2016-08-27T08:32:08.000Z</time>
      </trkpt>
      <trkpt lat="45.98862" lon="6.25185">
        <ele>695</ele>
        <time>2016-08-27T08:32:09.000Z</time>
      </trkpt>
      <trkpt lat="45.98863" lon="6.25181">
        <ele>694</ele>
        <time>2016-08-27T08:32:10.000Z</time>
      </trkpt>
      <trkpt lat="45.98863" lon="6.25178">
        <ele>694</ele>
        <time>2016-08-27T08:32:11.000Z</time>
      </trkpt>
      <trkpt lat="45.98864" lon="6.25174">
        <ele>692</ele>
        <time>2016-08-27T08:32:12.000Z</time>
      </trkpt>
      <trkpt lat="45.98864" lon="6.25171">
        <ele>692</ele>
        <time>2016-08-27T08:32:13.000Z</time>
      </trkpt>
      <trkpt lat="45.98865" lon="6.25167">
        <ele>691</ele>
        <time>2016-08-27T08:32:14.000Z</time>
      </trkpt>
      <trkpt lat="45.98865" lon="6.25163">
        <ele>691</ele>
        <time>2016-08-27T08:32:15.000Z</time>
      </trkpt>
      <trkpt lat="45.98866" lon="6.25159">
        <ele>690</ele>
        <time>2016-08-27T08:32:16.000Z</time>
      </trkpt>
      <trkpt lat="45.98866" lon="6.25155">
        <ele>690</ele>
        <time>2016-08-27T08:32:17.000Z</time>
      </trkpt>
      <trkpt lat="45.98866" lon="6.2515">
        <ele>689</ele>
        <time>2016-08-27T08:32:18.000Z</time>
      </trkpt>
      <trkpt lat="45.98866" lon="6.25146">
        <ele>689</ele>
        <time>2016-08-27T08:32:19.000Z</time>
      </trkpt>
      <trkpt lat="45.98866" lon="6.25141">
        <ele>688</ele>
        <time>2016-08-27T08:32:20.000Z</time>
      </trkpt>
      <trkpt lat="45.98867" lon="6.25137">
        <ele>688</ele>
        <time>2016-08-27T08:32:21.000Z</time>
      </trkpt>
      <trkpt lat="45.98867" lon="6.25133">
        <ele>687</ele>
        <time>2016-08-27T08:32:22.000Z</time>
      </trkpt>
      <trkpt lat="45.98868" lon="6.2513">
        <ele>687</ele>
        <time>2016-08-27T08:32:23.000Z</time>
      </trkpt>
      <trkpt lat="45.98868" lon="6.25126">
        <ele>686</ele>
        <time>2016-08-27T08:32:24.000Z</time>
      </trkpt>
      <trkpt lat="45.98869" lon="6.25123">
        <ele>686</ele>
        <time>2016-08-27T08:32:25.000Z</time>
      </trkpt>
      <trkpt lat="45.98869" lon="6.2512">
        <ele>685</ele>
        <time>2016-08-27T08:32:26.000Z</time>
      </trkpt>
      <trkpt lat="45.9887" lon="6.25117">
        <ele>685</ele>
        <time>2016-08-27T08:32:27.000Z</time>
      </trkpt>
      <trkpt lat="45.9887" lon="6.25115">
        <ele>684</ele>
        <time>2016-08-27T08:32:28.000Z</time>
      </trkpt>
      <trkpt lat="45.98871" lon="6.25112">
        <ele>684</ele>
        <time>2016-08-27T08:32:29.000Z</time>
      </trkpt>
      <trkpt lat="45.98872" lon="6.2511">
        <ele>683</ele>
        <time>2016-08-27T08:32:30.000Z</time>
      </trkpt>
      <trkpt lat="45.98873" lon="6.25108">
        <ele>683</ele>
        <time>2016-08-27T08:32:31.000Z</time>
      </trkpt>
      <trkpt lat="45.98874" lon="6.25106">
        <ele>682</ele>
        <time>2016-08-27T08:32:32.000Z</time>
      </trkpt>
      <trkpt lat="45.98875" lon="6.25104">
        <ele>682</ele>
        <time>2016-08-27T08:32:33.000Z</time>
      </trkpt>
      <trkpt lat="45.98875" lon="6.25103">
        <ele>681</ele>
        <time>2016-08-27T08:32:34.000Z</time>
      </trkpt>
      <trkpt lat="45.98876" lon="6.25101">
        <ele>681</ele>
        <time>2016-08-27T08:32:35.000Z</time>
      </trkpt>
      <trkpt lat="45.98877" lon="6.251">
        <ele>681</ele>
        <time>2016-08-27T08:32:36.000Z</time>
      </trkpt>
      <trkpt lat="45.98879" lon="6.25099">
        <ele>681</ele>
        <time>2016-08-27T08:32:37.000Z</time>
      </trkpt>
      <trkpt lat="45.98881" lon="6.25098">
        <ele>680</ele>
        <time>2016-08-27T08:32:38.000Z</time>
      </trkpt>
      <trkpt lat="45.98883" lon="6.25097">
        <ele>680</ele>
        <time>2016-08-27T08:32:39.000Z</time>
      </trkpt>
      <trkpt lat="45.98885" lon="6.25096">
        <ele>680</ele>
        <time>2016-08-27T08:32:40.000Z</time>
      </trkpt>
      <trkpt lat="45.98887" lon="6.25095">
        <ele>680</ele>
        <time>2016-08-27T08:32:41.000Z</time>
      </trkpt>
      <trkpt lat="45.98889" lon="6.25093">
        <ele>679</ele>
        <time>2016-08-27T08:32:42.000Z</time>
      </trkpt>
      <trkpt lat="45.98892" lon="6.25092">
        <ele>679</ele>
        <time>2016-08-27T08:32:43.000Z</time>
      </trkpt>
      <trkpt lat="45.98894" lon="6.2509">
        <ele>679</ele>
        <time>2016-08-27T08:32:44.000Z</time>
      </trkpt>
      <trkpt lat="45.98897" lon="6.25089">
        <ele>679</ele>
        <time>2016-08-27T08:32:45.000Z</time>
      </trkpt>
      <trkpt lat="45.989" lon="6.25087">
        <ele>678</ele>
        <time>2016-08-27T08:32:46.000Z</time>
      </trkpt>
      <trkpt lat="45.98903" lon="6.25085">
        <ele>678</ele>
        <time>2016-08-27T08:32:47.000Z</time>
      </trkpt>
      <trkpt lat="45.98906" lon="6.25083">
        <ele>677</ele>
        <time>2016-08-27T08:32:48.000Z</time>
      </trkpt>
      <trkpt lat="45.98909" lon="6.2508">
        <ele>677</ele>
        <time>2016-08-27T08:32:49.000Z</time>
      </trkpt>
      <trkpt lat="45.98912" lon="6.25078">
        <ele>676</ele>
        <time>2016-08-27T08:32:50.000Z</time>
      </trkpt>
      <trkpt lat="45.98915" lon="6.25075">
        <ele>676</ele>
        <time>2016-08-27T08:32:51.000Z</time>
      </trkpt>
      <trkpt lat="45.98918" lon="6.25073">
        <ele>675</ele>
        <time>2016-08-27T08:32:52.000Z</time>
      </trkpt>
      <trkpt lat="45.98921" lon="6.25072">
        <ele>675</ele>
        <time>2016-08-27T08:32:53.000Z</time>
      </trkpt>
      <trkpt lat="45.98924" lon="6.2507">
        <ele>675</ele>
        <time>2016-08-27T08:32:54.000Z</time>
      </trkpt>
      <trkpt lat="45.98927" lon="6.25068">
        <ele>675</ele>
        <time>2016-08-27T08:32:55.000Z</time>
      </trkpt>
      <trkpt lat="45.9893" lon="6.25067">
        <ele>674</ele>
        <time>2016-08-27T08:32:56.000Z</time>
      </trkpt>
      <trkpt lat="45.98933" lon="6.25065">
        <ele>674</ele>
        <time>2016-08-27T08:32:57.000Z</time>
      </trkpt>
      <trkpt lat="45.98935" lon="6.25063">
        <ele>673</ele>
        <time>2016-08-27T08:32:58.000Z</time>
      </trkpt>
      <trkpt lat="45.98938" lon="6.25062">
        <ele>673</ele>
        <time>2016-08-27T08:32:59.000Z</time>
      </trkpt>
      <trkpt lat="45.98941" lon="6.2506">
        <ele>672</ele>
        <time>2016-08-27T08:33:00.000Z</time>
      </trkpt>
      <trkpt lat="45.98944" lon="6.25059">
        <ele>672</ele>
        <time>2016-08-27T08:33:01.000Z</time>
      </trkpt>
      <trkpt lat="45.98946" lon="6.25058">
        <ele>671</ele>
        <time>2016-08-27T08:33:02.000Z</time>
      </trkpt>
      <trkpt lat="45.98949" lon="6.25057">
        <ele>671</ele>
        <time>2016-08-27T08:33:03.000Z</time>
      </trkpt>
      <trkpt lat="45.98951" lon="6.25056">
        <ele>670</ele>
        <time>2016-08-27T08:33:04.000Z</time>
      </trkpt>
      <trkpt lat="45.98954" lon="6.25055">
        <ele>670</ele>
        <time>2016-08-27T08:33:05.000Z</time>
      </trkpt>
      <trkpt lat="45.98956" lon="6.25054">
        <ele>669</ele>
        <time>2016-08-27T08:33:06.000Z</time>
      </trkpt>
      <trkpt lat="45.98959" lon="6.25052">
        <ele>669</ele>
        <time>2016-08-27T08:33:07.000Z</time>
      </trkpt>
      <trkpt lat="45.98961" lon="6.2505">
        <ele>668</ele>
        <time>2016-08-27T08:33:08.000Z</time>
      </trkpt>
      <trkpt lat="45.98963" lon="6.25049">
        <ele>668</ele>
        <time>2016-08-27T08:33:09.000Z</time>
      </trkpt>
      <trkpt lat="45.98966" lon="6.25047">
        <ele>667</ele>
        <time>2016-08-27T08:33:10.000Z</time>
      </trkpt>
      <trkpt lat="45.98968" lon="6.25046">
        <ele>667</ele>
        <time>2016-08-27T08:33:11.000Z</time>
      </trkpt>
      <trkpt lat="45.98971" lon="6.25045">
        <ele>666</ele>
        <time>2016-08-27T08:33:12.000Z</time>
      </trkpt>
      <trkpt lat="45.98973" lon="6.25043">
        <ele>666</ele>
        <time>2016-08-27T08:33:13.000Z</time>
      </trkpt>
      <trkpt lat="45.98976" lon="6.25042">
        <ele>665</ele>
        <time>2016-08-27T08:33:14.000Z</time>
      </trkpt>
      <trkpt lat="45.98978" lon="6.2504">
        <ele>665</ele>
        <time>2016-08-27T08:33:15.000Z</time>
      </trkpt>
      <trkpt lat="45.98981" lon="6.25038">
        <ele>664</ele>
        <time>2016-08-27T08:33:16.000Z</time>
      </trkpt>
      <trkpt lat="45.98983" lon="6.25036">
        <ele>664</ele>
        <time>2016-08-27T08:33:17.000Z</time>
      </trkpt>
      <trkpt lat="45.98986" lon="6.25035">
        <ele>663</ele>
        <time>2016-08-27T08:33:18.000Z</time>
      </trkpt>
      <trkpt lat="45.98988" lon="6.25033">
        <ele>663</ele>
        <time>2016-08-27T08:33:19.000Z</time>
      </trkpt>
      <trkpt lat="45.9899" lon="6.25031">
        <ele>662</ele>
        <time>2016-08-27T08:33:20.000Z</time>
      </trkpt>
      <trkpt lat="45.98992" lon="6.2503">
        <ele>662</ele>
        <time>2016-08-27T08:33:21.000Z</time>
      </trkpt>
      <trkpt lat="45.98994" lon="6.25028">
        <ele>661</ele>
        <time>2016-08-27T08:33:22.000Z</time>
      </trkpt>
      <trkpt lat="45.98996" lon="6.25027">
        <ele>661</ele>
        <time>2016-08-27T08:33:23.000Z</time>
      </trkpt>
      <trkpt lat="45.98998" lon="6.25025">
        <ele>660</ele>
        <time>2016-08-27T08:33:24.000Z</time>
      </trkpt>
      <trkpt lat="45.99001" lon="6.25024">
        <ele>660</ele>
        <time>2016-08-27T08:33:25.000Z</time>
      </trkpt>
      <trkpt lat="45.99002" lon="6.25022">
        <ele>659</ele>
        <time>2016-08-27T08:33:26.000Z</time>
      </trkpt>
      <trkpt lat="45.99004" lon="6.25021">
        <ele>659</ele>
        <time>2016-08-27T08:33:27.000Z</time>
      </trkpt>
      <trkpt lat="45.99007" lon="6.2502">
        <ele>658</ele>
        <time>2016-08-27T08:33:28.000Z</time>
      </trkpt>
      <trkpt lat="45.99009" lon="6.25019">
        <ele>658</ele>
        <time>2016-08-27T08:33:29.000Z</time>
      </trkpt>
      <trkpt lat="45.99011" lon="6.25017">
        <ele>658</ele>
        <time>2016-08-27T08:33:30.000Z</time>
      </trkpt>
      <trkpt lat="45.99013" lon="6.25016">
        <ele>658</ele>
        <time>2016-08-27T08:33:31.000Z</time>
      </trkpt>
      <trkpt lat="45.99015" lon="6.25014">
        <ele>657</ele>
        <time>2016-08-27T08:33:32.000Z</time>
      </trkpt>
      <trkpt lat="45.99017" lon="6.25012">
        <ele>657</ele>
        <time>2016-08-27T08:33:33.000Z</time>
      </trkpt>
      <trkpt lat="45.9902" lon="6.25011">
        <ele>656</ele>
        <time>2016-08-27T08:33:34.000Z</time>
      </trkpt>
      <trkpt lat="45.99022" lon="6.25009">
        <ele>656</ele>
        <time>2016-08-27T08:33:35.000Z</time>
      </trkpt>
      <trkpt lat="45.99024" lon="6.25007">
        <ele>655</ele>
        <time>2016-08-27T08:33:36.000Z</time>
      </trkpt>
      <trkpt lat="45.99026" lon="6.25005">
        <ele>655</ele>
        <time>2016-08-27T08:33:37.000Z</time>
      </trkpt>
      <trkpt lat="45.99028" lon="6.25002">
        <ele>655</ele>
        <time>2016-08-27T08:33:38.000Z</time>
      </trkpt>
      <trkpt lat="45.99031" lon="6.25">
        <ele>655</ele>
        <time>2016-08-27T08:33:39.000Z</time>
      </trkpt>
      <trkpt lat="45.99033" lon="6.24998">
        <ele>654</ele>
        <time>2016-08-27T08:33:40.000Z</time>
      </trkpt>
      <trkpt lat="45.99035" lon="6.24996">
        <ele>654</ele>
        <time>2016-08-27T08:33:41.000Z</time>
      </trkpt>
      <trkpt lat="45.99037" lon="6.24994">
        <ele>653</ele>
        <time>2016-08-27T08:33:42.000Z</time>
      </trkpt>
      <trkpt lat="45.99039" lon="6.24991">
        <ele>653</ele>
        <time>2016-08-27T08:33:43.000Z</time>
      </trkpt>
      <trkpt lat="45.99041" lon="6.24988">
        <ele>652</ele>
        <time>2016-08-27T08:33:44.000Z</time>
      </trkpt>
      <trkpt lat="45.99043" lon="6.24985">
        <ele>652</ele>
        <time>2016-08-27T08:33:45.000Z</time>
      </trkpt>
      <trkpt lat="45.99045" lon="6.24982">
        <ele>652</ele>
        <time>2016-08-27T08:33:46.000Z</time>
      </trkpt>
      <trkpt lat="45.99047" lon="6.2498">
        <ele>652</ele>
        <time>2016-08-27T08:33:47.000Z</time>
      </trkpt>
      <trkpt lat="45.99048" lon="6.24977">
        <ele>651</ele>
        <time>2016-08-27T08:33:48.000Z</time>
      </trkpt>
      <trkpt lat="45.9905" lon="6.24973">
        <ele>651</ele>
        <time>2016-08-27T08:33:49.000Z</time>
      </trkpt>
      <trkpt lat="45.99051" lon="6.2497">
        <ele>650</ele>
        <time>2016-08-27T08:33:50.000Z</time>
      </trkpt>
      <trkpt lat="45.99052" lon="6.24967">
        <ele>650</ele>
        <time>2016-08-27T08:33:51.000Z</time>
      </trkpt>
      <trkpt lat="45.99053" lon="6.24963">
        <ele>650</ele>
        <time>2016-08-27T08:33:52.000Z</time>
      </trkpt>
      <trkpt lat="45.99054" lon="6.2496">
        <ele>650</ele>
        <time>2016-08-27T08:33:53.000Z</time>
      </trkpt>
      <trkpt lat="45.99054" lon="6.24956">
        <ele>649</ele>
        <time>2016-08-27T08:33:54.000Z</time>
      </trkpt>
      <trkpt lat="45.99053" lon="6.24952">
        <ele>649</ele>
        <time>2016-08-27T08:33:55.000Z</time>
      </trkpt>
      <trkpt lat="45.99053" lon="6.24949">
        <ele>649</ele>
        <time>2016-08-27T08:33:56.000Z</time>
      </trkpt>
      <trkpt lat="45.99052" lon="6.24946">
        <ele>649</ele>
        <time>2016-08-27T08:33:57.000Z</time>
      </trkpt>
      <trkpt lat="45.99052" lon="6.24942">
        <ele>648</ele>
        <time>2016-08-27T08:33:58.000Z</time>
      </trkpt>
      <trkpt lat="45.99051" lon="6.24939">
        <ele>648</ele>
        <time>2016-08-27T08:33:59.000Z</time>
      </trkpt>
      <trkpt lat="45.9905" lon="6.24935">
        <ele>648</ele>
        <time>2016-08-27T08:34:00.000Z</time>
      </trkpt>
      <trkpt lat="45.99049" lon="6.24932">
        <ele>648</ele>
        <time>2016-08-27T08:34:01.000Z</time>
      </trkpt>
      <trkpt lat="45.99049" lon="6.24928">
        <ele>648</ele>
        <time>2016-08-27T08:34:02.000Z</time>
      </trkpt>
      <trkpt lat="45.99048" lon="6.24925">
        <ele>648</ele>
        <time>2016-08-27T08:34:03.000Z</time>
      </trkpt>
      <trkpt lat="45.99047" lon="6.24921">
        <ele>647</ele>
        <time>2016-08-27T08:34:04.000Z</time>
      </trkpt>
      <trkpt lat="45.99047" lon="6.24918">
        <ele>647</ele>
        <time>2016-08-27T08:34:05.000Z</time>
      </trkpt>
      <trkpt lat="45.99046" lon="6.24914">
        <ele>647</ele>
        <time>2016-08-27T08:34:06.000Z</time>
      </trkpt>
      <trkpt lat="45.99045" lon="6.24911">
        <ele>647</ele>
        <time>2016-08-27T08:34:07.000Z</time>
      </trkpt>
      <trkpt lat="45.99044" lon="6.24907">
        <ele>647</ele>
        <time>2016-08-27T08:34:08.000Z</time>
      </trkpt>
      <trkpt lat="45.99043" lon="6.24904">
        <ele>647</ele>
        <time>2016-08-27T08:34:09.000Z</time>
      </trkpt>
      <trkpt lat="45.99042" lon="6.24901">
        <ele>647</ele>
        <time>2016-08-27T08:34:10.000Z</time>
      </trkpt>
      <trkpt lat="45.99041" lon="6.24898">
        <ele>647</ele>
        <time>2016-08-27T08:34:11.000Z</time>
      </trkpt>
      <trkpt lat="45.9904" lon="6.24894">
        <ele>647</ele>
        <time>2016-08-27T08:34:12.000Z</time>
      </trkpt>
      <trkpt lat="45.99039" lon="6.24891">
        <ele>647</ele>
        <time>2016-08-27T08:34:13.000Z</time>
      </trkpt>
      <trkpt lat="45.99039" lon="6.24888">
        <ele>646</ele>
        <time>2016-08-27T08:34:14.000Z</time>
      </trkpt>
      <trkpt lat="45.99038" lon="6.24884">
        <ele>646</ele>
        <time>2016-08-27T08:34:15.000Z</time>
      </trkpt>
      <trkpt lat="45.99037" lon="6.24881">
        <ele>646</ele>
        <time>2016-08-27T08:34:16.000Z</time>
      </trkpt>
      <trkpt lat="45.99036" lon="6.24878">
        <ele>646</ele>
        <time>2016-08-27T08:34:17.000Z</time>
      </trkpt>
      <trkpt lat="45.99036" lon="6.24874">
        <ele>646</ele>
        <time>2016-08-27T08:34:18.000Z</time>
      </trkpt>
      <trkpt lat="45.99035" lon="6.24871">
        <ele>646</ele>
        <time>2016-08-27T08:34:19.000Z</time>
      </trkpt>
      <trkpt lat="45.99034" lon="6.24868">
        <ele>645</ele>
        <time>2016-08-27T08:34:20.000Z</time>
      </trkpt>
      <trkpt lat="45.99033" lon="6.24865">
        <ele>645</ele>
        <time>2016-08-27T08:34:21.000Z</time>
      </trkpt>
      <trkpt lat="45.99032" lon="6.24862">
        <ele>645</ele>
        <time>2016-08-27T08:34:22.000Z</time>
      </trkpt>
      <trkpt lat="45.99031" lon="6.2486">
        <ele>645</ele>
        <time>2016-08-27T08:34:23.000Z</time>
      </trkpt>
      <trkpt lat="45.9903" lon="6.24857">
        <ele>645</ele>
        <time>2016-08-27T08:34:24.000Z</time>
      </trkpt>
      <trkpt lat="45.99028" lon="6.24853">
        <ele>645</ele>
        <time>2016-08-27T08:34:25.000Z</time>
      </trkpt>
      <trkpt lat="45.99027" lon="6.2485">
        <ele>645</ele>
        <time>2016-08-27T08:34:26.000Z</time>
      </trkpt>
      <trkpt lat="45.99026" lon="6.24847">
        <ele>645</ele>
        <time>2016-08-27T08:34:27.000Z</time>
      </trkpt>
      <trkpt lat="45.99025" lon="6.24844">
        <ele>645</ele>
        <time>2016-08-27T08:34:28.000Z</time>
      </trkpt>
      <trkpt lat="45.99024" lon="6.2484">
        <ele>645</ele>
        <time>2016-08-27T08:34:29.000Z</time>
      </trkpt>
      <trkpt lat="45.99023" lon="6.24837">
        <ele>645</ele>
        <time>2016-08-27T08:34:30.000Z</time>
      </trkpt>
      <trkpt lat="45.99023" lon="6.24834">
        <ele>645</ele>
        <time>2016-08-27T08:34:31.000Z</time>
      </trkpt>
      <trkpt lat="45.99022" lon="6.24831">
        <ele>645</ele>
        <time>2016-08-27T08:34:32.000Z</time>
      </trkpt>
      <trkpt lat="45.99021" lon="6.24828">
        <ele>645</ele>
        <time>2016-08-27T08:34:33.000Z</time>
      </trkpt>
      <trkpt lat="45.9902" lon="6.24824">
        <ele>645</ele>
        <time>2016-08-27T08:34:34.000Z</time>
      </trkpt>
      <trkpt lat="45.9902" lon="6.24821">
        <ele>645</ele>
        <time>2016-08-27T08:34:35.000Z</time>
      </trkpt>
      <trkpt lat="45.99019" lon="6.24818">
        <ele>644</ele>
        <time>2016-08-27T08:34:36.000Z</time>
      </trkpt>
      <trkpt lat="45.99018" lon="6.24815">
        <ele>644</ele>
        <time>2016-08-27T08:34:37.000Z</time>
      </trkpt>
      <trkpt lat="45.99018" lon="6.24811">
        <ele>644</ele>
        <time>2016-08-27T08:34:38.000Z</time>
      </trkpt>
      <trkpt lat="45.99017" lon="6.24808">
        <ele>644</ele>
        <time>2016-08-27T08:34:39.000Z</time>
      </trkpt>
      <trkpt lat="45.99017" lon="6.24805">
        <ele>644</ele>
        <time>2016-08-27T08:34:40.000Z</time>
      </trkpt>
      <trkpt lat="45.99017" lon="6.24801">
        <ele>644</ele>
        <time>2016-08-27T08:34:41.000Z</time>
      </trkpt>
      <trkpt lat="45.99016" lon="6.24798">
        <ele>644</ele>
        <time>2016-08-27T08:34:42.000Z</time>
      </trkpt>
      <trkpt lat="45.99016" lon="6.24795">
        <ele>644</ele>
        <time>2016-08-27T08:34:43.000Z</time>
      </trkpt>
      <trkpt lat="45.99016" lon="6.24792">
        <ele>644</ele>
        <time>2016-08-27T08:34:44.000Z</time>
      </trkpt>
      <trkpt lat="45.99015" lon="6.24788">
        <ele>644</ele>
        <time>2016-08-27T08:34:45.000Z</time>
      </trkpt>
      <trkpt lat="45.99015" lon="6.24785">
        <ele>644</ele>
        <time>2016-08-27T08:34:46.000Z</time>
      </trkpt>
      <trkpt lat="45.99015" lon="6.24781">
        <ele>644</ele>
        <time>2016-08-27T08:34:47.000Z</time>
      </trkpt>
      <trkpt lat="45.99015" lon="6.24777">
        <ele>644</ele>
        <time>2016-08-27T08:34:48.000Z</time>
      </trkpt>
      <trkpt lat="45.99015" lon="6.24773">
        <ele>644</ele>
        <time>2016-08-27T08:34:49.000Z</time>
      </trkpt>
      <trkpt lat="45.99015" lon="6.24769">
        <ele>644</ele>
        <time>2016-08-27T08:34:50.000Z</time>
      </trkpt>
      <trkpt lat="45.99015" lon="6.24766">
        <ele>644</ele>
        <time>2016-08-27T08:34:51.000Z</time>
      </trkpt>
      <trkpt lat="45.99014" lon="6.24762">
        <ele>644</ele>
        <time>2016-08-27T08:34:52.000Z</time>
      </trkpt>
      <trkpt lat="45.99015" lon="6.24758">
        <ele>644</ele>
        <time>2016-08-27T08:34:53.000Z</time>
      </trkpt>
      <trkpt lat="45.99015" lon="6.24753">
        <ele>644</ele>
        <time>2016-08-27T08:34:54.000Z</time>
      </trkpt>
      <trkpt lat="45.99015" lon="6.24749">
        <ele>644</ele>
        <time>2016-08-27T08:34:55.000Z</time>
      </trkpt>
      <trkpt lat="45.99015" lon="6.24744">
        <ele>644</ele>
        <time>2016-08-27T08:34:56.000Z</time>
      </trkpt>
      <trkpt lat="45.99015" lon="6.2474">
        <ele>644</ele>
        <time>2016-08-27T08:34:57.000Z</time>
      </trkpt>
      <trkpt lat="45.99015" lon="6.24736">
        <ele>644</ele>
        <time>2016-08-27T08:34:58.000Z</time>
      </trkpt>
      <trkpt lat="45.99015" lon="6.24732">
        <ele>644</ele>
        <time>2016-08-27T08:34:59.000Z</time>
      </trkpt>
      <trkpt lat="45.99015" lon="6.24728">
        <ele>644</ele>
        <time>2016-08-27T08:35:00.000Z</time>
      </trkpt>
      <trkpt lat="45.99016" lon="6.24723">
        <ele>644</ele>
        <time>2016-08-27T08:35:01.000Z</time>
      </trkpt>
      <trkpt lat="45.99016" lon="6.24719">
        <ele>644</ele>
        <time>2016-08-27T08:35:02.000Z</time>
      </trkpt>
      <trkpt lat="45.99016" lon="6.24715">
        <ele>644</ele>
        <time>2016-08-27T08:35:03.000Z</time>
      </trkpt>
      <trkpt lat="45.99016" lon="6.24711">
        <ele>644</ele>
        <time>2016-08-27T08:35:04.000Z</time>
      </trkpt>
      <trkpt lat="45.99016" lon="6.24708">
        <ele>644</ele>
        <time>2016-08-27T08:35:05.000Z</time>
      </trkpt>
      <trkpt lat="45.99016" lon="6.24704">
        <ele>644</ele>
        <time>2016-08-27T08:35:06.000Z</time>
      </trkpt>
      <trkpt lat="45.99015" lon="6.247">
        <ele>644</ele>
        <time>2016-08-27T08:35:07.000Z</time>
      </trkpt>
      <trkpt lat="45.99015" lon="6.24697">
        <ele>644</ele>
        <time>2016-08-27T08:35:08.000Z</time>
      </trkpt>
      <trkpt lat="45.99015" lon="6.24693">
        <ele>644</ele>
        <time>2016-08-27T08:35:09.000Z</time>
      </trkpt>
      <trkpt lat="45.99014" lon="6.24688">
        <ele>644</ele>
        <time>2016-08-27T08:35:10.000Z</time>
      </trkpt>
      <trkpt lat="45.99013" lon="6.24684">
        <ele>644</ele>
        <time>2016-08-27T08:35:11.000Z</time>
      </trkpt>
      <trkpt lat="45.99012" lon="6.24681">
        <ele>645</ele>
        <time>2016-08-27T08:35:12.000Z</time>
      </trkpt>
      <trkpt lat="45.99011" lon="6.24677">
        <ele>645</ele>
        <time>2016-08-27T08:35:13.000Z</time>
      </trkpt>
      <trkpt lat="45.9901" lon="6.24673">
        <ele>645</ele>
        <time>2016-08-27T08:35:14.000Z</time>
      </trkpt>
      <trkpt lat="45.99008" lon="6.24669">
        <ele>645</ele>
        <time>2016-08-27T08:35:15.000Z</time>
      </trkpt>
      <trkpt lat="45.99006" lon="6.24666">
        <ele>645</ele>
        <time>2016-08-27T08:35:16.000Z</time>
      </trkpt>
      <trkpt lat="45.99005" lon="6.24663">
        <ele>645</ele>
        <time>2016-08-27T08:35:17.000Z</time>
      </trkpt>
      <trkpt lat="45.99003" lon="6.24659">
        <ele>645</ele>
        <time>2016-08-27T08:35:18.000Z</time>
      </trkpt>
      <trkpt lat="45.99002" lon="6.24656">
        <ele>645</ele>
        <time>2016-08-27T08:35:19.000Z</time>
      </trkpt>
      <trkpt lat="45.99001" lon="6.24653">
        <ele>645</ele>
        <time>2016-08-27T08:35:20.000Z</time>
      </trkpt>
      <trkpt lat="45.99" lon="6.24649">
        <ele>645</ele>
        <time>2016-08-27T08:35:21.000Z</time>
      </trkpt>
      <trkpt lat="45.98999" lon="6.24646">
        <ele>645</ele>
        <time>2016-08-27T08:35:22.000Z</time>
      </trkpt>
      <trkpt lat="45.98998" lon="6.24642">
        <ele>645</ele>
        <time>2016-08-27T08:35:23.000Z</time>
      </trkpt>
      <trkpt lat="45.98996" lon="6.24639">
        <ele>645</ele>
        <time>2016-08-27T08:35:24.000Z</time>
      </trkpt>
      <trkpt lat="45.98995" lon="6.24635">
        <ele>645</ele>
        <time>2016-08-27T08:35:25.000Z</time>
      </trkpt>
      <trkpt lat="45.98994" lon="6.24632">
        <ele>645</ele>
        <time>2016-08-27T08:35:26.000Z</time>
      </trkpt>
      <trkpt lat="45.98993" lon="6.24628">
        <ele>645</ele>
        <time>2016-08-27T08:35:27.000Z</time>
      </trkpt>
      <trkpt lat="45.98992" lon="6.24624">
        <ele>645</ele>
        <time>2016-08-27T08:35:28.000Z</time>
      </trkpt>
      <trkpt lat="45.98992" lon="6.24621">
        <ele>645</ele>
        <time>2016-08-27T08:35:29.000Z</time>
      </trkpt>
      <trkpt lat="45.98991" lon="6.24617">
        <ele>645</ele>
        <time>2016-08-27T08:35:30.000Z</time>
      </trkpt>
      <trkpt lat="45.98991" lon="6.24613">
        <ele>645</ele>
        <time>2016-08-27T08:35:31.000Z</time>
      </trkpt>
      <trkpt lat="45.9899" lon="6.2461">
        <ele>644</ele>
        <time>2016-08-27T08:35:32.000Z</time>
      </trkpt>
      <trkpt lat="45.9899" lon="6.24606">
        <ele>644</ele>
        <time>2016-08-27T08:35:33.000Z</time>
      </trkpt>
      <trkpt lat="45.98989" lon="6.24602">
        <ele>644</ele>
        <time>2016-08-27T08:35:34.000Z</time>
      </trkpt>
      <trkpt lat="45.98989" lon="6.24598">
        <ele>644</ele>
        <time>2016-08-27T08:35:35.000Z</time>
      </trkpt>
      <trkpt lat="45.98988" lon="6.24595">
        <ele>644</ele>
        <time>2016-08-27T08:35:36.000Z</time>
      </trkpt>
      <trkpt lat="45.98988" lon="6.24591">
        <ele>644</ele>
        <time>2016-08-27T08:35:37.000Z</time>
      </trkpt>
      <trkpt lat="45.98988" lon="6.24587">
        <ele>644</ele>
        <time>2016-08-27T08:35:38.000Z</time>
      </trkpt>
      <trkpt lat="45.98987" lon="6.24584">
        <ele>644</ele>
        <time>2016-08-27T08:35:39.000Z</time>
      </trkpt>
      <trkpt lat="45.98987" lon="6.2458">
        <ele>644</ele>
        <time>2016-08-27T08:35:40.000Z</time>
      </trkpt>
      <trkpt lat="45.98986" lon="6.24576">
        <ele>644</ele>
        <time>2016-08-27T08:35:41.000Z</time>
      </trkpt>
      <trkpt lat="45.98985" lon="6.24572">
        <ele>644</ele>
        <time>2016-08-27T08:35:42.000Z</time>
      </trkpt>
      <trkpt lat="45.98985" lon="6.24568">
        <ele>644</ele>
        <time>2016-08-27T08:35:43.000Z</time>
      </trkpt>
      <trkpt lat="45.98984" lon="6.24564">
        <ele>644</ele>
        <time>2016-08-27T08:35:44.000Z</time>
      </trkpt>
      <trkpt lat="45.98983" lon="6.2456">
        <ele>644</ele>
        <time>2016-08-27T08:35:45.000Z</time>
      </trkpt>
      <trkpt lat="45.98983" lon="6.24557">
        <ele>644</ele>
        <time>2016-08-27T08:35:46.000Z</time>
      </trkpt>
      <trkpt lat="45.98982" lon="6.24553">
        <ele>644</ele>
        <time>2016-08-27T08:35:47.000Z</time>
      </trkpt>
      <trkpt lat="45.98981" lon="6.24549">
        <ele>644</ele>
        <time>2016-08-27T08:35:48.000Z</time>
      </trkpt>
      <trkpt lat="45.98981" lon="6.24546">
        <ele>644</ele>
        <time>2016-08-27T08:35:49.000Z</time>
      </trkpt>
      <trkpt lat="45.9898" lon="6.24542">
        <ele>644</ele>
        <time>2016-08-27T08:35:50.000Z</time>
      </trkpt>
      <trkpt lat="45.98979" lon="6.24539">
        <ele>644</ele>
        <time>2016-08-27T08:35:51.000Z</time>
      </trkpt>
      <trkpt lat="45.98978" lon="6.24535">
        <ele>644</ele>
        <time>2016-08-27T08:35:52.000Z</time>
      </trkpt>
      <trkpt lat="45.98977" lon="6.24532">
        <ele>644</ele>
        <time>2016-08-27T08:35:53.000Z</time>
      </trkpt>
      <trkpt lat="45.98976" lon="6.24529">
        <ele>644</ele>
        <time>2016-08-27T08:35:54.000Z</time>
      </trkpt>
      <trkpt lat="45.98975" lon="6.24526">
        <ele>644</ele>
        <time>2016-08-27T08:35:55.000Z</time>
      </trkpt>
      <trkpt lat="45.98974" lon="6.24524">
        <ele>644</ele>
        <time>2016-08-27T08:35:56.000Z</time>
      </trkpt>
      <trkpt lat="45.98972" lon="6.24521">
        <ele>644</ele>
        <time>2016-08-27T08:35:57.000Z</time>
      </trkpt>
      <trkpt lat="45.98971" lon="6.24518">
        <ele>644</ele>
        <time>2016-08-27T08:35:58.000Z</time>
      </trkpt>
      <trkpt lat="45.98969" lon="6.24515">
        <ele>644</ele>
        <time>2016-08-27T08:35:59.000Z</time>
      </trkpt>
      <trkpt lat="45.98968" lon="6.24512">
        <ele>645</ele>
        <time>2016-08-27T08:36:00.000Z</time>
      </trkpt>
      <trkpt lat="45.98966" lon="6.24509">
        <ele>645</ele>
        <time>2016-08-27T08:36:01.000Z</time>
      </trkpt>
      <trkpt lat="45.98965" lon="6.24507">
        <ele>645</ele>
        <time>2016-08-27T08:36:02.000Z</time>
      </trkpt>
      <trkpt lat="45.98963" lon="6.24504">
        <ele>645</ele>
        <time>2016-08-27T08:36:03.000Z</time>
      </trkpt>
      <trkpt lat="45.98961" lon="6.24501">
        <ele>645</ele>
        <time>2016-08-27T08:36:04.000Z</time>
      </trkpt>
      <trkpt lat="45.9896" lon="6.24498">
        <ele>645</ele>
        <time>2016-08-27T08:36:05.000Z</time>
      </trkpt>
      <trkpt lat="45.98958" lon="6.24496">
        <ele>645</ele>
        <time>2016-08-27T08:36:06.000Z</time>
      </trkpt>
      <trkpt lat="45.98956" lon="6.24493">
        <ele>645</ele>
        <time>2016-08-27T08:36:07.000Z</time>
      </trkpt>
      <trkpt lat="45.98955" lon="6.24491">
        <ele>645</ele>
        <time>2016-08-27T08:36:08.000Z</time>
      </trkpt>
      <trkpt lat="45.98954" lon="6.24488">
        <ele>645</ele>
        <time>2016-08-27T08:36:09.000Z</time>
      </trkpt>
      <trkpt lat="45.98952" lon="6.24485">
        <ele>645</ele>
        <time>2016-08-27T08:36:10.000Z</time>
      </trkpt>
      <trkpt lat="45.98951" lon="6.24482">
        <ele>645</ele>
        <time>2016-08-27T08:36:11.000Z</time>
      </trkpt>
      <trkpt lat="45.9895" lon="6.24479">
        <ele>645</ele>
        <time>2016-08-27T08:36:12.000Z</time>
      </trkpt>
      <trkpt lat="45.98949" lon="6.24475">
        <ele>645</ele>
        <time>2016-08-27T08:36:13.000Z</time>
      </trkpt>
      <trkpt lat="45.98948" lon="6.24472">
        <ele>645</ele>
        <time>2016-08-27T08:36:14.000Z</time>
      </trkpt>
      <trkpt lat="45.98947" lon="6.24469">
        <ele>645</ele>
        <time>2016-08-27T08:36:15.000Z</time>
      </trkpt>
      <trkpt lat="45.98946" lon="6.24466">
        <ele>645</ele>
        <time>2016-08-27T08:36:16.000Z</time>
      </trkpt>
      <trkpt lat="45.98945" lon="6.24463">
        <ele>645</ele>
        <time>2016-08-27T08:36:17.000Z</time>
      </trkpt>
      <trkpt lat="45.98945" lon="6.2446">
        <ele>645</ele>
        <time>2016-08-27T08:36:18.000Z</time>
      </trkpt>
      <trkpt lat="45.98944" lon="6.24457">
        <ele>645</ele>
        <time>2016-08-27T08:36:19.000Z</time>
      </trkpt>
      <trkpt lat="45.98943" lon="6.24453">
        <ele>645</ele>
        <time>2016-08-27T08:36:20.000Z</time>
      </trkpt>
      <trkpt lat="45.98942" lon="6.2445">
        <ele>645</ele>
        <time>2016-08-27T08:36:21.000Z</time>
      </trkpt>
      <trkpt lat="45.98941" lon="6.24446">
        <ele>645</ele>
        <time>2016-08-27T08:36:22.000Z</time>
      </trkpt>
      <trkpt lat="45.9894" lon="6.24443">
        <ele>645</ele>
        <time>2016-08-27T08:36:23.000Z</time>
      </trkpt>
      <trkpt lat="45.98939" lon="6.2444">
        <ele>645</ele>
        <time>2016-08-27T08:36:24.000Z</time>
      </trkpt>
      <trkpt lat="45.98938" lon="6.24436">
        <ele>645</ele>
        <time>2016-08-27T08:36:25.000Z</time>
      </trkpt>
      <trkpt lat="45.98937" lon="6.24433">
        <ele>645</ele>
        <time>2016-08-27T08:36:26.000Z</time>
      </trkpt>
      <trkpt lat="45.98936" lon="6.24429">
        <ele>645</ele>
        <time>2016-08-27T08:36:27.000Z</time>
      </trkpt>
      <trkpt lat="45.98935" lon="6.24426">
        <ele>645</ele>
        <time>2016-08-27T08:36:28.000Z</time>
      </trkpt>
      <trkpt lat="45.98934" lon="6.24422">
        <ele>645</ele>
        <time>2016-08-27T08:36:29.000Z</time>
      </trkpt>
      <trkpt lat="45.98932" lon="6.24419">
        <ele>646</ele>
        <time>2016-08-27T08:36:30.000Z</time>
      </trkpt>
      <trkpt lat="45.98931" lon="6.24416">
        <ele>646</ele>
        <time>2016-08-27T08:36:31.000Z</time>
      </trkpt>
      <trkpt lat="45.98929" lon="6.24414">
        <ele>646</ele>
        <time>2016-08-27T08:36:32.000Z</time>
      </trkpt>
      <trkpt lat="45.98927" lon="6.24412">
        <ele>646</ele>
        <time>2016-08-27T08:36:33.000Z</time>
      </trkpt>
      <trkpt lat="45.98925" lon="6.24411">
        <ele>646</ele>
        <time>2016-08-27T08:36:34.000Z</time>
      </trkpt>
      <trkpt lat="45.98923" lon="6.24411">
        <ele>646</ele>
        <time>2016-08-27T08:36:35.000Z</time>
      </trkpt>
      <trkpt lat="45.98921" lon="6.24412">
        <ele>647</ele>
        <time>2016-08-27T08:36:36.000Z</time>
      </trkpt>
      <trkpt lat="45.98918" lon="6.24412">
        <ele>647</ele>
        <time>2016-08-27T08:36:37.000Z</time>
      </trkpt>
      <trkpt lat="45.98916" lon="6.24412">
        <ele>647</ele>
        <time>2016-08-27T08:36:38.000Z</time>
      </trkpt>
      <trkpt lat="45.98913" lon="6.24412">
        <ele>647</ele>
        <time>2016-08-27T08:36:39.000Z</time>
      </trkpt>
      <trkpt lat="45.98911" lon="6.24412">
        <ele>647</ele>
        <time>2016-08-27T08:36:40.000Z</time>
      </trkpt>
      <trkpt lat="45.98908" lon="6.24412">
        <ele>647</ele>
        <time>2016-08-27T08:36:41.000Z</time>
      </trkpt>
      <trkpt lat="45.98906" lon="6.24413">
        <ele>648</ele>
        <time>2016-08-27T08:36:42.000Z</time>
      </trkpt>
      <trkpt lat="45.98904" lon="6.24412">
        <ele>648</ele>
        <time>2016-08-27T08:36:43.000Z</time>
      </trkpt>
      <trkpt lat="45.98902" lon="6.24412">
        <ele>648</ele>
        <time>2016-08-27T08:36:44.000Z</time>
      </trkpt>
      <trkpt lat="45.98899" lon="6.24411">
        <ele>648</ele>
        <time>2016-08-27T08:36:45.000Z</time>
      </trkpt>
      <trkpt lat="45.98897" lon="6.24409">
        <ele>648</ele>
        <time>2016-08-27T08:36:46.000Z</time>
      </trkpt>
      <trkpt lat="45.98895" lon="6.24408">
        <ele>648</ele>
        <time>2016-08-27T08:36:47.000Z</time>
      </trkpt>
      <trkpt lat="45.98893" lon="6.24407">
        <ele>648</ele>
        <time>2016-08-27T08:36:48.000Z</time>
      </trkpt>
      <trkpt lat="45.98891" lon="6.24406">
        <ele>648</ele>
        <time>2016-08-27T08:36:49.000Z</time>
      </trkpt>
      <trkpt lat="45.98889" lon="6.24405">
        <ele>648</ele>
        <time>2016-08-27T08:36:50.000Z</time>
      </trkpt>
      <trkpt lat="45.98887" lon="6.24404">
        <ele>648</ele>
        <time>2016-08-27T08:36:51.000Z</time>
      </trkpt>
      <trkpt lat="45.98886" lon="6.24402">
        <ele>649</ele>
        <time>2016-08-27T08:36:52.000Z</time>
      </trkpt>
      <trkpt lat="45.98884" lon="6.24401">
        <ele>649</ele>
        <time>2016-08-27T08:36:53.000Z</time>
      </trkpt>
    </trkseg>
  </trk>
</gpx>